<?xml version='1.0' encoding='UTF-8'?><gpx version="1.1" creator="JPX - https://github.com/jenetics/jpx" xmlns="http://www.topografix.com/GPX/1/1"><trk><trkseg><trkpt lat="45.4896972" lon="10.3655463"><ele>147.0</ele><time>2026-05-01T07:26:15.48Z</time></trkpt><trkpt lat="45.489725" lon="10.3656537"><ele>147.0</ele><time>2026-05-01T07:26:17.48Z</time></trkpt><trkpt lat="45.4898007" lon="10.365682"><ele>147.0</ele><time>2026-05-01T07:26:19.48Z</time></trkpt><trkpt lat="45.4899064" lon="10.3655884"><ele>147.0</ele><time>2026-05-01T07:26:21.48Z</time></trkpt><trkpt lat="45.4899576" lon="10.3655329"><ele>147.0</ele><time>2026-05-01T07:26:22.48Z</time></trkpt><trkpt lat="45.4900151" lon="10.3654631"><ele>147.0</ele><time>2026-05-01T07:26:23.48Z</time></trkpt><trkpt lat="45.4900737" lon="10.3653787"><ele>147.4</ele><time>2026-05-01T07:26:24.48Z</time></trkpt><trkpt lat="45.4901371" lon="10.3652939"><ele>147.79999999999998</ele><time>2026-05-01T07:26:25.48Z</time></trkpt><trkpt lat="45.4902046" lon="10.3651992"><ele>148.2</ele><time>2026-05-01T07:26:26.48Z</time></trkpt><trkpt lat="45.4902736" lon="10.3651004"><ele>148.6</ele><time>2026-05-01T07:26:27.48Z</time></trkpt><trkpt lat="45.4903407" lon="10.3649976"><ele>149.0</ele><time>2026-05-01T07:26:28.48Z</time></trkpt><trkpt lat="45.4904084" lon="10.3649071"><ele>149.0</ele><time>2026-05-01T07:26:29.48Z</time></trkpt><trkpt lat="45.4904661" lon="10.3648206"><ele>149.0</ele><time>2026-05-01T07:26:30.48Z</time></trkpt><trkpt lat="45.4905207" lon="10.3647453"><ele>149.0</ele><time>2026-05-01T07:26:31.48Z</time></trkpt><trkpt lat="45.4905757" lon="10.3646754"><ele>149.0</ele><time>2026-05-01T07:26:32.48Z</time></trkpt><trkpt lat="45.4906273" lon="10.3646048"><ele>149.0</ele><time>2026-05-01T07:26:33.48Z</time></trkpt><trkpt lat="45.4906721" lon="10.3645288"><ele>149.0</ele><time>2026-05-01T07:26:34.48Z</time></trkpt><trkpt lat="45.4907182" lon="10.3644551"><ele>149.0</ele><time>2026-05-01T07:26:35.48Z</time></trkpt><trkpt lat="45.4907634" lon="10.3643766"><ele>149.0</ele><time>2026-05-01T07:26:36.48Z</time></trkpt><trkpt lat="45.4908189" lon="10.3642944"><ele>149.0</ele><time>2026-05-01T07:26:37.48Z</time></trkpt><trkpt lat="45.4908717" lon="10.3642089"><ele>149.0</ele><time>2026-05-01T07:26:38.48Z</time></trkpt><trkpt lat="45.490903" lon="10.3641149"><ele>149.0</ele><time>2026-05-01T07:26:39.48Z</time></trkpt><trkpt lat="45.4909156" lon="10.3640145"><ele>149.0</ele><time>2026-05-01T07:26:40.48Z</time></trkpt><trkpt lat="45.490896" lon="10.3639226"><ele>149.0</ele><time>2026-05-01T07:26:41.481Z</time></trkpt><trkpt lat="45.4908485" lon="10.3638337"><ele>148.83333333333331</ele><time>2026-05-01T07:26:42.481Z</time></trkpt><trkpt lat="45.4907867" lon="10.3637737"><ele>148.66666666666666</ele><time>2026-05-01T07:26:43.48Z</time></trkpt><trkpt lat="45.4907079" lon="10.3637291"><ele>148.5</ele><time>2026-05-01T07:26:44.481Z</time></trkpt><trkpt lat="45.4906182" lon="10.3636965"><ele>148.33333333333334</ele><time>2026-05-01T07:26:45.48Z</time></trkpt><trkpt lat="45.4905315" lon="10.3636623"><ele>148.16666666666669</ele><time>2026-05-01T07:26:46.48Z</time></trkpt><trkpt lat="45.4904483" lon="10.3636271"><ele>148.0</ele><time>2026-05-01T07:26:47.48Z</time></trkpt><trkpt lat="45.4903634" lon="10.3635731"><ele>147.66666666666669</ele><time>2026-05-01T07:26:48.48Z</time></trkpt><trkpt lat="45.4902783" lon="10.3635159"><ele>147.33333333333334</ele><time>2026-05-01T07:26:49.48Z</time></trkpt><trkpt lat="45.4901994" lon="10.3634624"><ele>147.0</ele><time>2026-05-01T07:26:50.48Z</time></trkpt><trkpt lat="45.4901246" lon="10.3634025"><ele>146.66666666666666</ele><time>2026-05-01T07:26:51.48Z</time></trkpt><trkpt lat="45.4900638" lon="10.3633594"><ele>146.33333333333331</ele><time>2026-05-01T07:26:52.48Z</time></trkpt><trkpt lat="45.4899936" lon="10.3633209"><ele>146.0</ele><time>2026-05-01T07:27:04.48Z</time></trkpt><trkpt lat="45.4899112" lon="10.3632822"><ele>146.0</ele><time>2026-05-01T07:27:05.48Z</time></trkpt><trkpt lat="45.4897957" lon="10.3632265"><ele>146.0</ele><time>2026-05-01T07:27:06.48Z</time></trkpt><trkpt lat="45.489653" lon="10.3631406"><ele>146.0</ele><time>2026-05-01T07:27:07.48Z</time></trkpt><trkpt lat="45.4894976" lon="10.3630416"><ele>146.0</ele><time>2026-05-01T07:27:08.48Z</time></trkpt><trkpt lat="45.4893336" lon="10.3629402"><ele>145.66666666666666</ele><time>2026-05-01T07:27:09.48Z</time></trkpt><trkpt lat="45.4891534" lon="10.3628326"><ele>145.33333333333334</ele><time>2026-05-01T07:27:10.481Z</time></trkpt><trkpt lat="45.4889734" lon="10.3627184"><ele>145.0</ele><time>2026-05-01T07:27:11.48Z</time></trkpt><trkpt lat="45.4888098" lon="10.3626153"><ele>145.25</ele><time>2026-05-01T07:27:12.48Z</time></trkpt><trkpt lat="45.4886584" lon="10.3625227"><ele>145.5</ele><time>2026-05-01T07:27:13.48Z</time></trkpt><trkpt lat="45.4885222" lon="10.3624432"><ele>145.75</ele><time>2026-05-01T07:27:14.48Z</time></trkpt><trkpt lat="45.4884062" lon="10.3623722"><ele>146.0</ele><time>2026-05-01T07:27:15.48Z</time></trkpt><trkpt lat="45.4883062" lon="10.3623146"><ele>146.0</ele><time>2026-05-01T07:27:16.48Z</time></trkpt><trkpt lat="45.4882069" lon="10.3622913"><ele>146.0</ele><time>2026-05-01T07:27:17.481Z</time></trkpt><trkpt lat="45.4880959" lon="10.3623059"><ele>146.0</ele><time>2026-05-01T07:27:18.48Z</time></trkpt><trkpt lat="45.4879711" lon="10.3623671"><ele>146.0</ele><time>2026-05-01T07:27:19.48Z</time></trkpt><trkpt lat="45.4878404" lon="10.3624763"><ele>145.33333333333331</ele><time>2026-05-01T07:27:20.48Z</time></trkpt><trkpt lat="45.4876974" lon="10.3626025"><ele>144.66666666666666</ele><time>2026-05-01T07:27:21.48Z</time></trkpt><trkpt lat="45.4875407" lon="10.3627341"><ele>144.0</ele><time>2026-05-01T07:27:22.48Z</time></trkpt><trkpt lat="45.487354" lon="10.3628766"><ele>144.0</ele><time>2026-05-01T07:27:23.48Z</time></trkpt><trkpt lat="45.4871457" lon="10.3630401"><ele>144.0</ele><time>2026-05-01T07:27:24.48Z</time></trkpt><trkpt lat="45.486925" lon="10.3632192"><ele>144.0</ele><time>2026-05-01T07:27:25.48Z</time></trkpt><trkpt lat="45.486694" lon="10.3634064"><ele>144.0</ele><time>2026-05-01T07:27:26.48Z</time></trkpt><trkpt lat="45.4864629" lon="10.3635809"><ele>143.5</ele><time>2026-05-01T07:27:27.48Z</time></trkpt><trkpt lat="45.4862392" lon="10.3637503"><ele>143.0</ele><time>2026-05-01T07:27:28.48Z</time></trkpt><trkpt lat="45.4860194" lon="10.3639246"><ele>142.5</ele><time>2026-05-01T07:27:29.48Z</time></trkpt><trkpt lat="45.4857985" lon="10.3641017"><ele>142.0</ele><time>2026-05-01T07:27:30.48Z</time></trkpt><trkpt lat="45.4855832" lon="10.3642957"><ele>142.0</ele><time>2026-05-01T07:27:31.48Z</time></trkpt><trkpt lat="45.4853695" lon="10.3645114"><ele>142.0</ele><time>2026-05-01T07:27:32.48Z</time></trkpt><trkpt lat="45.4851667" lon="10.3647322"><ele>142.0</ele><time>2026-05-01T07:27:33.48Z</time></trkpt><trkpt lat="45.4849666" lon="10.3649454"><ele>142.0</ele><time>2026-05-01T07:27:34.48Z</time></trkpt><trkpt lat="45.4847555" lon="10.3651677"><ele>141.0</ele><time>2026-05-01T07:27:35.48Z</time></trkpt><trkpt lat="45.4845414" lon="10.3653827"><ele>140.0</ele><time>2026-05-01T07:27:36.48Z</time></trkpt><trkpt lat="45.4843408" lon="10.3655871"><ele>140.0</ele><time>2026-05-01T07:27:37.48Z</time></trkpt><trkpt lat="45.4841549" lon="10.365781"><ele>140.0</ele><time>2026-05-01T07:27:38.48Z</time></trkpt><trkpt lat="45.4839836" lon="10.3659599"><ele>140.0</ele><time>2026-05-01T07:27:39.48Z</time></trkpt><trkpt lat="45.4838194" lon="10.3661328"><ele>140.33333333333331</ele><time>2026-05-01T07:27:40.48Z</time></trkpt><trkpt lat="45.4836654" lon="10.3663003"><ele>140.66666666666666</ele><time>2026-05-01T07:27:41.48Z</time></trkpt><trkpt lat="45.4835049" lon="10.3664764"><ele>141.0</ele><time>2026-05-01T07:27:42.48Z</time></trkpt><trkpt lat="45.4833502" lon="10.3666461"><ele>141.33333333333334</ele><time>2026-05-01T07:27:43.48Z</time></trkpt><trkpt lat="45.4831947" lon="10.3668141"><ele>141.66666666666669</ele><time>2026-05-01T07:27:44.48Z</time></trkpt><trkpt lat="45.4830432" lon="10.3669772"><ele>142.0</ele><time>2026-05-01T07:27:45.48Z</time></trkpt><trkpt lat="45.4829016" lon="10.3671326"><ele>142.0</ele><time>2026-05-01T07:27:46.48Z</time></trkpt><trkpt lat="45.4827623" lon="10.3672805"><ele>142.0</ele><time>2026-05-01T07:27:47.48Z</time></trkpt><trkpt lat="45.4826233" lon="10.3674433"><ele>142.0</ele><time>2026-05-01T07:27:48.48Z</time></trkpt><trkpt lat="45.4824833" lon="10.3676067"><ele>142.0</ele><time>2026-05-01T07:27:49.48Z</time></trkpt><trkpt lat="45.482345" lon="10.367755"><ele>142.0</ele><time>2026-05-01T07:27:50.48Z</time></trkpt><trkpt lat="45.482205" lon="10.3679"><ele>142.0</ele><time>2026-05-01T07:27:51.48Z</time></trkpt><trkpt lat="45.4820817" lon="10.3680417"><ele>142.33333333333334</ele><time>2026-05-01T07:27:52.48Z</time></trkpt><trkpt lat="45.4819467" lon="10.3681917"><ele>142.66666666666666</ele><time>2026-05-01T07:27:53.48Z</time></trkpt><trkpt lat="45.4818083" lon="10.36834"><ele>143.0</ele><time>2026-05-01T07:27:54.48Z</time></trkpt><trkpt lat="45.4816683" lon="10.3684817"><ele>143.0</ele><time>2026-05-01T07:27:55.48Z</time></trkpt><trkpt lat="45.481525" lon="10.3686383"><ele>143.0</ele><time>2026-05-01T07:27:56.48Z</time></trkpt><trkpt lat="45.4813783" lon="10.3687933"><ele>143.0</ele><time>2026-05-01T07:27:57.48Z</time></trkpt><trkpt lat="45.4812283" lon="10.368945"><ele>142.33333333333331</ele><time>2026-05-01T07:27:58.48Z</time></trkpt><trkpt lat="45.4810817" lon="10.3691"><ele>141.66666666666666</ele><time>2026-05-01T07:27:59.48Z</time></trkpt><trkpt lat="45.48093" lon="10.36925"><ele>141.0</ele><time>2026-05-01T07:28:00.48Z</time></trkpt><trkpt lat="45.480795" lon="10.3694033"><ele>141.0</ele><time>2026-05-01T07:28:01.481Z</time></trkpt><trkpt lat="45.4806533" lon="10.3695483"><ele>141.0</ele><time>2026-05-01T07:28:02.48Z</time></trkpt><trkpt lat="45.4805083" lon="10.3697"><ele>141.0</ele><time>2026-05-01T07:28:03.48Z</time></trkpt><trkpt lat="45.4803683" lon="10.3698517"><ele>141.0</ele><time>2026-05-01T07:28:04.48Z</time></trkpt><trkpt lat="45.4802267" lon="10.37001"><ele>141.0</ele><time>2026-05-01T07:28:05.48Z</time></trkpt><trkpt lat="45.4800867" lon="10.3701583"><ele>141.0</ele><time>2026-05-01T07:28:06.48Z</time></trkpt><trkpt lat="45.4799417" lon="10.3703133"><ele>141.0</ele><time>2026-05-01T07:28:07.481Z</time></trkpt><trkpt lat="45.479815" lon="10.370465"><ele>141.0</ele><time>2026-05-01T07:28:08.48Z</time></trkpt><trkpt lat="45.479685" lon="10.370615"><ele>141.0</ele><time>2026-05-01T07:28:09.48Z</time></trkpt><trkpt lat="45.4795667" lon="10.3707617"><ele>141.25</ele><time>2026-05-01T07:28:10.48Z</time></trkpt><trkpt lat="45.4794533" lon="10.3709033"><ele>141.5</ele><time>2026-05-01T07:28:11.48Z</time></trkpt><trkpt lat="45.4793417" lon="10.3710417"><ele>141.75</ele><time>2026-05-01T07:28:12.48Z</time></trkpt><trkpt lat="45.4792383" lon="10.3711717"><ele>142.0</ele><time>2026-05-01T07:28:13.48Z</time></trkpt><trkpt lat="45.4791317" lon="10.3712983"><ele>141.75</ele><time>2026-05-01T07:28:14.48Z</time></trkpt><trkpt lat="45.479035" lon="10.37142"><ele>141.5</ele><time>2026-05-01T07:28:15.48Z</time></trkpt><trkpt lat="45.478925" lon="10.37156"><ele>141.25</ele><time>2026-05-01T07:28:16.48Z</time></trkpt><trkpt lat="45.4788217" lon="10.3716933"><ele>141.0</ele><time>2026-05-01T07:28:17.48Z</time></trkpt><trkpt lat="45.47871" lon="10.3718267"><ele>140.5</ele><time>2026-05-01T07:28:18.48Z</time></trkpt><trkpt lat="45.478605" lon="10.3719483"><ele>140.0</ele><time>2026-05-01T07:28:19.48Z</time></trkpt><trkpt lat="45.4784883" lon="10.3720933"><ele>139.5</ele><time>2026-05-01T07:28:20.48Z</time></trkpt><trkpt lat="45.4783733" lon="10.3722333"><ele>139.0</ele><time>2026-05-01T07:28:21.48Z</time></trkpt><trkpt lat="45.4782717" lon="10.3723683"><ele>139.0</ele><time>2026-05-01T07:28:22.48Z</time></trkpt><trkpt lat="45.4781917" lon="10.37247"><ele>139.0</ele><time>2026-05-01T07:28:23.48Z</time></trkpt><trkpt lat="45.47814" lon="10.3725383"><ele>139.0</ele><time>2026-05-01T07:28:24.48Z</time></trkpt><trkpt lat="45.4781167" lon="10.3726733"><ele>139.0</ele><time>2026-05-01T07:28:26.48Z</time></trkpt><trkpt lat="45.4782133" lon="10.3727733"><ele>139.0</ele><time>2026-05-01T07:28:28.481Z</time></trkpt><trkpt lat="45.47831" lon="10.37282"><ele>139.0</ele><time>2026-05-01T07:28:29.48Z</time></trkpt><trkpt lat="45.4784233" lon="10.3728733"><ele>139.0</ele><time>2026-05-01T07:28:30.48Z</time></trkpt><trkpt lat="45.47854" lon="10.3729283"><ele>139.0</ele><time>2026-05-01T07:28:31.48Z</time></trkpt><trkpt lat="45.4786467" lon="10.3729883"><ele>139.0</ele><time>2026-05-01T07:28:32.48Z</time></trkpt><trkpt lat="45.4787333" lon="10.3730317"><ele>139.0</ele><time>2026-05-01T07:28:33.48Z</time></trkpt><trkpt lat="45.4787983" lon="10.3730683"><ele>139.33333333333334</ele><time>2026-05-01T07:28:34.48Z</time></trkpt><trkpt lat="45.4789033" lon="10.3731117"><ele>139.66666666666669</ele><time>2026-05-01T07:28:36.48Z</time></trkpt><trkpt lat="45.47897" lon="10.3731517"><ele>140.0</ele><time>2026-05-01T07:28:38.48Z</time></trkpt><trkpt lat="45.4790483" lon="10.3732017"><ele>140.33333333333334</ele><time>2026-05-01T07:28:41.48Z</time></trkpt><trkpt lat="45.4790833" lon="10.373285"><ele>140.66666666666666</ele><time>2026-05-01T07:28:43.48Z</time></trkpt><trkpt lat="45.4790483" lon="10.3734117"><ele>141.0</ele><time>2026-05-01T07:28:45.481Z</time></trkpt><trkpt lat="45.478975" lon="10.3735567"><ele>141.0</ele><time>2026-05-01T07:28:47.48Z</time></trkpt><trkpt lat="45.4789417" lon="10.3736383"><ele>141.0</ele><time>2026-05-01T07:28:48.48Z</time></trkpt><trkpt lat="45.4789017" lon="10.3737533"><ele>141.0</ele><time>2026-05-01T07:28:49.48Z</time></trkpt><trkpt lat="45.4788533" lon="10.373875"><ele>141.0</ele><time>2026-05-01T07:28:50.48Z</time></trkpt><trkpt lat="45.4788133" lon="10.373985"><ele>141.0</ele><time>2026-05-01T07:28:51.48Z</time></trkpt><trkpt lat="45.47878" lon="10.37408"><ele>141.0</ele><time>2026-05-01T07:28:52.48Z</time></trkpt><trkpt lat="45.47875" lon="10.37416"><ele>140.85714285714286</ele><time>2026-05-01T07:28:53.481Z</time></trkpt><trkpt lat="45.4787183" lon="10.374245"><ele>140.71428571428572</ele><time>2026-05-01T07:28:54.48Z</time></trkpt><trkpt lat="45.4786867" lon="10.3743317"><ele>140.57142857142856</ele><time>2026-05-01T07:28:55.48Z</time></trkpt><trkpt lat="45.4786533" lon="10.37441"><ele>140.42857142857144</ele><time>2026-05-01T07:28:56.48Z</time></trkpt><trkpt lat="45.4786183" lon="10.3744983"><ele>140.28571428571428</ele><time>2026-05-01T07:28:57.48Z</time></trkpt><trkpt lat="45.47858" lon="10.3745917"><ele>140.14285714285714</ele><time>2026-05-01T07:28:58.48Z</time></trkpt><trkpt lat="45.47854" lon="10.374685"><ele>140.0</ele><time>2026-05-01T07:28:59.48Z</time></trkpt><trkpt lat="45.4785033" lon="10.3747783"><ele>140.0</ele><time>2026-05-01T07:29:00.48Z</time></trkpt><trkpt lat="45.4784667" lon="10.37487"><ele>140.0</ele><time>2026-05-01T07:29:01.48Z</time></trkpt><trkpt lat="45.478435" lon="10.37495"><ele>140.0</ele><time>2026-05-01T07:29:02.48Z</time></trkpt><trkpt lat="45.4783867" lon="10.375075"><ele>140.0</ele><time>2026-05-01T07:29:04.48Z</time></trkpt><trkpt lat="45.4783517" lon="10.37517"><ele>140.0</ele><time>2026-05-01T07:29:06.48Z</time></trkpt><trkpt lat="45.47831" lon="10.3752883"><ele>140.0</ele><time>2026-05-01T07:29:08.48Z</time></trkpt><trkpt lat="45.4782583" lon="10.37537"><ele>140.0</ele><time>2026-05-01T07:29:46.48Z</time></trkpt><trkpt lat="45.4781767" lon="10.3755283"><ele>140.0</ele><time>2026-05-01T07:29:48.48Z</time></trkpt><trkpt lat="45.47812" lon="10.375655"><ele>140.0</ele><time>2026-05-01T07:29:49.48Z</time></trkpt><trkpt lat="45.4780517" lon="10.37581"><ele>140.0</ele><time>2026-05-01T07:29:50.48Z</time></trkpt><trkpt lat="45.4779683" lon="10.3759867"><ele>140.33333333333331</ele><time>2026-05-01T07:29:51.48Z</time></trkpt><trkpt lat="45.4778817" lon="10.376185"><ele>140.66666666666666</ele><time>2026-05-01T07:29:52.48Z</time></trkpt><trkpt lat="45.4777933" lon="10.3764233"><ele>141.0</ele><time>2026-05-01T07:29:53.481Z</time></trkpt><trkpt lat="45.4776967" lon="10.3766767"><ele>139.0</ele><time>2026-05-01T07:29:54.48Z</time></trkpt><trkpt lat="45.4775867" lon="10.376965"><ele>137.0</ele><time>2026-05-01T07:29:55.48Z</time></trkpt><trkpt lat="45.477475" lon="10.3772483"><ele>135.0</ele><time>2026-05-01T07:29:56.48Z</time></trkpt><trkpt lat="45.4773633" lon="10.3775233"><ele>133.0</ele><time>2026-05-01T07:29:57.48Z</time></trkpt><trkpt lat="45.477265" lon="10.3777783"><ele>131.0</ele><time>2026-05-01T07:29:58.48Z</time></trkpt><trkpt lat="45.4771767" lon="10.3780117"><ele>133.66666666666666</ele><time>2026-05-01T07:29:59.48Z</time></trkpt><trkpt lat="45.4770883" lon="10.37824"><ele>136.33333333333334</ele><time>2026-05-01T07:30:00.48Z</time></trkpt><trkpt lat="45.4769967" lon="10.37847"><ele>139.0</ele><time>2026-05-01T07:30:01.48Z</time></trkpt><trkpt lat="45.476905" lon="10.378685"><ele>137.33333333333334</ele><time>2026-05-01T07:30:02.48Z</time></trkpt><trkpt lat="45.4768217" lon="10.3788883"><ele>135.66666666666666</ele><time>2026-05-01T07:30:03.481Z</time></trkpt><trkpt lat="45.476745" lon="10.379075"><ele>134.0</ele><time>2026-05-01T07:30:04.481Z</time></trkpt><trkpt lat="45.47667" lon="10.379245"><ele>134.0</ele><time>2026-05-01T07:30:05.48Z</time></trkpt><trkpt lat="45.4765917" lon="10.379415"><ele>134.0</ele><time>2026-05-01T07:30:06.48Z</time></trkpt><trkpt lat="45.4765033" lon="10.3795817"><ele>134.0</ele><time>2026-05-01T07:30:07.48Z</time></trkpt><trkpt lat="45.4764183" lon="10.3797517"><ele>134.0</ele><time>2026-05-01T07:30:08.48Z</time></trkpt><trkpt lat="45.4763333" lon="10.3799383"><ele>134.75</ele><time>2026-05-01T07:30:09.48Z</time></trkpt><trkpt lat="45.4762567" lon="10.3801183"><ele>135.5</ele><time>2026-05-01T07:30:10.48Z</time></trkpt><trkpt lat="45.4761867" lon="10.3803033"><ele>136.25</ele><time>2026-05-01T07:30:11.48Z</time></trkpt><trkpt lat="45.4761183" lon="10.38048"><ele>137.0</ele><time>2026-05-01T07:30:12.48Z</time></trkpt><trkpt lat="45.4760533" lon="10.3806483"><ele>137.0</ele><time>2026-05-01T07:30:13.48Z</time></trkpt><trkpt lat="45.4759917" lon="10.3808133"><ele>137.0</ele><time>2026-05-01T07:30:14.48Z</time></trkpt><trkpt lat="45.4759267" lon="10.380985"><ele>137.0</ele><time>2026-05-01T07:30:15.48Z</time></trkpt><trkpt lat="45.47586" lon="10.3811483"><ele>137.0</ele><time>2026-05-01T07:30:16.48Z</time></trkpt><trkpt lat="45.475795" lon="10.3813117"><ele>135.5</ele><time>2026-05-01T07:30:17.48Z</time></trkpt><trkpt lat="45.475725" lon="10.3814767"><ele>134.0</ele><time>2026-05-01T07:30:18.48Z</time></trkpt><trkpt lat="45.47566" lon="10.3816383"><ele>132.5</ele><time>2026-05-01T07:30:19.481Z</time></trkpt><trkpt lat="45.4755983" lon="10.3817867"><ele>131.0</ele><time>2026-05-01T07:30:20.48Z</time></trkpt><trkpt lat="45.4755383" lon="10.38193"><ele>131.0</ele><time>2026-05-01T07:30:21.48Z</time></trkpt><trkpt lat="45.47549" lon="10.3820667"><ele>131.0</ele><time>2026-05-01T07:30:22.48Z</time></trkpt><trkpt lat="45.475445" lon="10.38219"><ele>131.0</ele><time>2026-05-01T07:30:23.48Z</time></trkpt><trkpt lat="45.4753933" lon="10.3823167"><ele>131.0</ele><time>2026-05-01T07:30:24.48Z</time></trkpt><trkpt lat="45.4753483" lon="10.3824333"><ele>131.0</ele><time>2026-05-01T07:30:25.48Z</time></trkpt><trkpt lat="45.4753117" lon="10.3825567"><ele>132.2</ele><time>2026-05-01T07:30:26.48Z</time></trkpt><trkpt lat="45.4752783" lon="10.3826667"><ele>133.39999999999998</ele><time>2026-05-01T07:30:27.48Z</time></trkpt><trkpt lat="45.4752417" lon="10.3827917"><ele>134.6</ele><time>2026-05-01T07:30:28.48Z</time></trkpt><trkpt lat="45.4751933" lon="10.3829433"><ele>135.79999999999998</ele><time>2026-05-01T07:30:29.48Z</time></trkpt><trkpt lat="45.4751333" lon="10.3831117"><ele>137.0</ele><time>2026-05-01T07:30:30.48Z</time></trkpt><trkpt lat="45.4750733" lon="10.383285"><ele>137.0</ele><time>2026-05-01T07:30:31.48Z</time></trkpt><trkpt lat="45.4749933" lon="10.3834833"><ele>137.0</ele><time>2026-05-01T07:30:32.48Z</time></trkpt><trkpt lat="45.4749133" lon="10.38367"><ele>137.0</ele><time>2026-05-01T07:30:33.48Z</time></trkpt><trkpt lat="45.47484" lon="10.3838367"><ele>137.0</ele><time>2026-05-01T07:30:34.48Z</time></trkpt><trkpt lat="45.474765" lon="10.3840167"><ele>137.0</ele><time>2026-05-01T07:30:35.48Z</time></trkpt><trkpt lat="45.4746917" lon="10.384195"><ele>137.0</ele><time>2026-05-01T07:30:36.48Z</time></trkpt><trkpt lat="45.4746217" lon="10.3843767"><ele>137.0</ele><time>2026-05-01T07:30:37.48Z</time></trkpt><trkpt lat="45.4745583" lon="10.384545"><ele>137.0</ele><time>2026-05-01T07:30:38.48Z</time></trkpt><trkpt lat="45.4744967" lon="10.3847083"><ele>137.0</ele><time>2026-05-01T07:30:39.48Z</time></trkpt><trkpt lat="45.474435" lon="10.3848667"><ele>137.0</ele><time>2026-05-01T07:30:40.48Z</time></trkpt><trkpt lat="45.4743617" lon="10.3850217"><ele>137.0</ele><time>2026-05-01T07:30:41.48Z</time></trkpt><trkpt lat="45.4742917" lon="10.38517"><ele>137.0</ele><time>2026-05-01T07:30:42.48Z</time></trkpt><trkpt lat="45.4742183" lon="10.385325"><ele>137.0</ele><time>2026-05-01T07:30:43.48Z</time></trkpt><trkpt lat="45.4741517" lon="10.3854533"><ele>137.0</ele><time>2026-05-01T07:30:44.48Z</time></trkpt><trkpt lat="45.4740933" lon="10.3855683"><ele>137.0</ele><time>2026-05-01T07:30:45.48Z</time></trkpt><trkpt lat="45.4740483" lon="10.38567"><ele>137.0</ele><time>2026-05-01T07:30:46.48Z</time></trkpt><trkpt lat="45.4740067" lon="10.3857683"><ele>137.2</ele><time>2026-05-01T07:30:47.481Z</time></trkpt><trkpt lat="45.4739617" lon="10.38588"><ele>137.39999999999998</ele><time>2026-05-01T07:30:48.48Z</time></trkpt><trkpt lat="45.473915" lon="10.3859983"><ele>137.60000000000002</ele><time>2026-05-01T07:30:49.48Z</time></trkpt><trkpt lat="45.473865" lon="10.3861133"><ele>137.8</ele><time>2026-05-01T07:30:50.48Z</time></trkpt><trkpt lat="45.4738167" lon="10.3862333"><ele>138.0</ele><time>2026-05-01T07:30:51.48Z</time></trkpt><trkpt lat="45.4737667" lon="10.386355"><ele>138.0</ele><time>2026-05-01T07:30:52.48Z</time></trkpt><trkpt lat="45.4737083" lon="10.3864933"><ele>138.0</ele><time>2026-05-01T07:30:53.481Z</time></trkpt><trkpt lat="45.4736583" lon="10.3866333"><ele>138.0</ele><time>2026-05-01T07:30:54.48Z</time></trkpt><trkpt lat="45.4736083" lon="10.3867517"><ele>138.0</ele><time>2026-05-01T07:30:55.48Z</time></trkpt><trkpt lat="45.4735667" lon="10.3868483"><ele>138.0</ele><time>2026-05-01T07:30:56.48Z</time></trkpt><trkpt lat="45.4735217" lon="10.3869483"><ele>138.0</ele><time>2026-05-01T07:30:58.48Z</time></trkpt><trkpt lat="45.4734733" lon="10.3870183"><ele>138.0</ele><time>2026-05-01T07:31:00.48Z</time></trkpt><trkpt lat="45.4734017" lon="10.3871833"><ele>138.0</ele><time>2026-05-01T07:31:02.48Z</time></trkpt><trkpt lat="45.4733433" lon="10.3873217"><ele>138.0</ele><time>2026-05-01T07:31:03.48Z</time></trkpt><trkpt lat="45.47326" lon="10.387495"><ele>138.0</ele><time>2026-05-01T07:31:04.48Z</time></trkpt><trkpt lat="45.4731783" lon="10.3876833"><ele>138.0</ele><time>2026-05-01T07:31:05.48Z</time></trkpt><trkpt lat="45.47311" lon="10.3878683"><ele>138.0</ele><time>2026-05-01T07:31:06.48Z</time></trkpt><trkpt lat="45.4730617" lon="10.3880217"><ele>138.0</ele><time>2026-05-01T07:31:07.48Z</time></trkpt><trkpt lat="45.4730317" lon="10.3881233"><ele>137.83333333333334</ele><time>2026-05-01T07:31:08.48Z</time></trkpt><trkpt lat="45.472995" lon="10.3882683"><ele>137.66666666666666</ele><time>2026-05-01T07:31:10.48Z</time></trkpt><trkpt lat="45.4729783" lon="10.3883683"><ele>137.5</ele><time>2026-05-01T07:31:11.481Z</time></trkpt><trkpt lat="45.4729683" lon="10.3884817"><ele>137.33333333333331</ele><time>2026-05-01T07:31:12.48Z</time></trkpt><trkpt lat="45.4729633" lon="10.3886083"><ele>137.16666666666666</ele><time>2026-05-01T07:31:13.48Z</time></trkpt><trkpt lat="45.472965" lon="10.388745"><ele>137.0</ele><time>2026-05-01T07:31:14.48Z</time></trkpt><trkpt lat="45.472985" lon="10.3888683"><ele>137.6</ele><time>2026-05-01T07:31:15.48Z</time></trkpt><trkpt lat="45.4730167" lon="10.3889667"><ele>138.2</ele><time>2026-05-01T07:31:16.48Z</time></trkpt><trkpt lat="45.4730817" lon="10.389035"><ele>138.8</ele><time>2026-05-01T07:31:17.48Z</time></trkpt><trkpt lat="45.4731817" lon="10.3890967"><ele>139.4</ele><time>2026-05-01T07:31:18.481Z</time></trkpt><trkpt lat="45.4733083" lon="10.38914"><ele>140.0</ele><time>2026-05-01T07:31:19.48Z</time></trkpt><trkpt lat="45.4734417" lon="10.389175"><ele>140.0</ele><time>2026-05-01T07:31:20.48Z</time></trkpt><trkpt lat="45.47357" lon="10.3891967"><ele>140.0</ele><time>2026-05-01T07:31:21.48Z</time></trkpt><trkpt lat="45.4736883" lon="10.3892217"><ele>140.0</ele><time>2026-05-01T07:31:22.48Z</time></trkpt><trkpt lat="45.4738017" lon="10.3892667"><ele>140.0</ele><time>2026-05-01T07:31:23.481Z</time></trkpt><trkpt lat="45.4739133" lon="10.3893067"><ele>141.0</ele><time>2026-05-01T07:31:24.48Z</time></trkpt><trkpt lat="45.474035" lon="10.3893617"><ele>142.0</ele><time>2026-05-01T07:31:25.48Z</time></trkpt><trkpt lat="45.4741717" lon="10.389405"><ele>143.0</ele><time>2026-05-01T07:31:26.48Z</time></trkpt><trkpt lat="45.47431" lon="10.3894617"><ele>144.0</ele><time>2026-05-01T07:31:27.48Z</time></trkpt><trkpt lat="45.4744533" lon="10.3895483"><ele>144.0</ele><time>2026-05-01T07:31:28.48Z</time></trkpt><trkpt lat="45.4746033" lon="10.389645"><ele>144.0</ele><time>2026-05-01T07:31:29.48Z</time></trkpt><trkpt lat="45.4747467" lon="10.3897467"><ele>144.0</ele><time>2026-05-01T07:31:30.48Z</time></trkpt><trkpt lat="45.4749" lon="10.389845"><ele>142.33333333333334</ele><time>2026-05-01T07:31:31.48Z</time></trkpt><trkpt lat="45.4750483" lon="10.3899433"><ele>140.66666666666669</ele><time>2026-05-01T07:31:32.48Z</time></trkpt><trkpt lat="45.4752017" lon="10.3900417"><ele>139.0</ele><time>2026-05-01T07:31:33.48Z</time></trkpt><trkpt lat="45.4753533" lon="10.3901417"><ele>138.75</ele><time>2026-05-01T07:31:34.48Z</time></trkpt><trkpt lat="45.4754967" lon="10.390235"><ele>138.5</ele><time>2026-05-01T07:31:35.48Z</time></trkpt><trkpt lat="45.4756217" lon="10.39032"><ele>138.25</ele><time>2026-05-01T07:31:36.48Z</time></trkpt><trkpt lat="45.47573" lon="10.3903967"><ele>138.0</ele><time>2026-05-01T07:31:37.48Z</time></trkpt><trkpt lat="45.4758183" lon="10.3904517"><ele>138.0</ele><time>2026-05-01T07:31:38.48Z</time></trkpt><trkpt lat="45.4758833" lon="10.390495"><ele>138.0</ele><time>2026-05-01T07:31:39.48Z</time></trkpt><trkpt lat="45.4759417" lon="10.3905367"><ele>138.0</ele><time>2026-05-01T07:31:40.48Z</time></trkpt><trkpt lat="45.4760067" lon="10.3905883"><ele>138.0</ele><time>2026-05-01T07:31:41.48Z</time></trkpt><trkpt lat="45.4760817" lon="10.39064"><ele>138.0</ele><time>2026-05-01T07:31:42.48Z</time></trkpt><trkpt lat="45.4761783" lon="10.3906917"><ele>138.0</ele><time>2026-05-01T07:31:43.48Z</time></trkpt><trkpt lat="45.4762917" lon="10.3907267"><ele>138.75</ele><time>2026-05-01T07:31:44.481Z</time></trkpt><trkpt lat="45.4764083" lon="10.39078"><ele>139.5</ele><time>2026-05-01T07:31:45.481Z</time></trkpt><trkpt lat="45.4765383" lon="10.39081"><ele>140.25</ele><time>2026-05-01T07:31:46.48Z</time></trkpt><trkpt lat="45.47668" lon="10.3908617"><ele>141.0</ele><time>2026-05-01T07:31:47.48Z</time></trkpt><trkpt lat="45.4768183" lon="10.390905"><ele>141.0</ele><time>2026-05-01T07:31:48.48Z</time></trkpt><trkpt lat="45.4769633" lon="10.3909633"><ele>141.0</ele><time>2026-05-01T07:31:49.48Z</time></trkpt><trkpt lat="45.47711" lon="10.3910233"><ele>141.0</ele><time>2026-05-01T07:31:50.48Z</time></trkpt><trkpt lat="45.47726" lon="10.391075"><ele>140.66666666666666</ele><time>2026-05-01T07:31:51.48Z</time></trkpt><trkpt lat="45.4774083" lon="10.3911383"><ele>140.33333333333331</ele><time>2026-05-01T07:31:52.48Z</time></trkpt><trkpt lat="45.477565" lon="10.3911883"><ele>140.0</ele><time>2026-05-01T07:31:53.48Z</time></trkpt><trkpt lat="45.4777167" lon="10.3912317"><ele>140.0</ele><time>2026-05-01T07:31:54.48Z</time></trkpt><trkpt lat="45.4778717" lon="10.3912717"><ele>140.0</ele><time>2026-05-01T07:31:55.48Z</time></trkpt><trkpt lat="45.4780167" lon="10.39132"><ele>140.0</ele><time>2026-05-01T07:31:56.48Z</time></trkpt><trkpt lat="45.478155" lon="10.3913683"><ele>140.0</ele><time>2026-05-01T07:31:57.48Z</time></trkpt><trkpt lat="45.4782833" lon="10.3914083"><ele>140.0</ele><time>2026-05-01T07:31:58.48Z</time></trkpt><trkpt lat="45.4784033" lon="10.3914233"><ele>140.0</ele><time>2026-05-01T07:31:59.48Z</time></trkpt><trkpt lat="45.4785033" lon="10.3914283"><ele>140.0</ele><time>2026-05-01T07:32:00.48Z</time></trkpt><trkpt lat="45.478585" lon="10.39146"><ele>140.0</ele><time>2026-05-01T07:32:01.48Z</time></trkpt><trkpt lat="45.4786683" lon="10.3914983"><ele>140.0</ele><time>2026-05-01T07:32:02.48Z</time></trkpt><trkpt lat="45.4787567" lon="10.3915667"><ele>140.5</ele><time>2026-05-01T07:32:03.481Z</time></trkpt><trkpt lat="45.4788517" lon="10.391625"><ele>141.0</ele><time>2026-05-01T07:32:04.48Z</time></trkpt><trkpt lat="45.4789633" lon="10.3916567"><ele>141.5</ele><time>2026-05-01T07:32:05.48Z</time></trkpt><trkpt lat="45.4790867" lon="10.391655"><ele>142.0</ele><time>2026-05-01T07:32:06.48Z</time></trkpt><trkpt lat="45.4792233" lon="10.39165"><ele>142.0</ele><time>2026-05-01T07:32:07.48Z</time></trkpt><trkpt lat="45.4793683" lon="10.3916633"><ele>142.0</ele><time>2026-05-01T07:32:08.48Z</time></trkpt><trkpt lat="45.4795117" lon="10.39168"><ele>142.0</ele><time>2026-05-01T07:32:09.48Z</time></trkpt><trkpt lat="45.4796767" lon="10.3916917"><ele>142.0</ele><time>2026-05-01T07:32:10.48Z</time></trkpt><trkpt lat="45.4798483" lon="10.391725"><ele>142.0</ele><time>2026-05-01T07:32:11.48Z</time></trkpt><trkpt lat="45.4800317" lon="10.3917417"><ele>142.0</ele><time>2026-05-01T07:32:12.48Z</time></trkpt><trkpt lat="45.4802117" lon="10.391765"><ele>142.0</ele><time>2026-05-01T07:32:13.48Z</time></trkpt><trkpt lat="45.4804" lon="10.3917883"><ele>142.0</ele><time>2026-05-01T07:32:14.48Z</time></trkpt><trkpt lat="45.4805917" lon="10.39181"><ele>142.0</ele><time>2026-05-01T07:32:15.48Z</time></trkpt><trkpt lat="45.4807633" lon="10.3918483"><ele>142.0</ele><time>2026-05-01T07:32:16.48Z</time></trkpt><trkpt lat="45.4809283" lon="10.39189"><ele>142.0</ele><time>2026-05-01T07:32:17.481Z</time></trkpt><trkpt lat="45.4810783" lon="10.3919383"><ele>142.0</ele><time>2026-05-01T07:32:18.48Z</time></trkpt><trkpt lat="45.4812233" lon="10.3920183"><ele>142.0</ele><time>2026-05-01T07:32:19.48Z</time></trkpt><trkpt lat="45.4813717" lon="10.3921067"><ele>142.0</ele><time>2026-05-01T07:32:20.48Z</time></trkpt><trkpt lat="45.4815167" lon="10.3921867"><ele>142.0</ele><time>2026-05-01T07:32:21.48Z</time></trkpt><trkpt lat="45.4816617" lon="10.3922667"><ele>142.0</ele><time>2026-05-01T07:32:22.48Z</time></trkpt><trkpt lat="45.4818133" lon="10.3923417"><ele>142.0</ele><time>2026-05-01T07:32:23.48Z</time></trkpt><trkpt lat="45.4819617" lon="10.392415"><ele>142.0</ele><time>2026-05-01T07:32:24.48Z</time></trkpt><trkpt lat="45.482125" lon="10.3924783"><ele>142.0</ele><time>2026-05-01T07:32:25.48Z</time></trkpt><trkpt lat="45.48229" lon="10.3925283"><ele>142.0</ele><time>2026-05-01T07:32:26.48Z</time></trkpt><trkpt lat="45.4824533" lon="10.3925867"><ele>142.0</ele><time>2026-05-01T07:32:27.48Z</time></trkpt><trkpt lat="45.4826083" lon="10.3926333"><ele>142.0</ele><time>2026-05-01T07:32:28.48Z</time></trkpt><trkpt lat="45.482765" lon="10.3926833"><ele>142.0</ele><time>2026-05-01T07:32:29.48Z</time></trkpt><trkpt lat="45.482915" lon="10.3927467"><ele>142.0</ele><time>2026-05-01T07:32:30.48Z</time></trkpt><trkpt lat="45.48307" lon="10.392805"><ele>142.33333333333334</ele><time>2026-05-01T07:32:31.48Z</time></trkpt><trkpt lat="45.4832317" lon="10.39287"><ele>142.66666666666666</ele><time>2026-05-01T07:32:32.48Z</time></trkpt><trkpt lat="45.483385" lon="10.3929383"><ele>143.0</ele><time>2026-05-01T07:32:33.48Z</time></trkpt><trkpt lat="45.483535" lon="10.3929933"><ele>142.75</ele><time>2026-05-01T07:32:34.48Z</time></trkpt><trkpt lat="45.4836717" lon="10.3930433"><ele>142.5</ele><time>2026-05-01T07:32:35.48Z</time></trkpt><trkpt lat="45.4837933" lon="10.393095"><ele>142.25</ele><time>2026-05-01T07:32:36.48Z</time></trkpt><trkpt lat="45.4839" lon="10.393185"><ele>142.0</ele><time>2026-05-01T07:32:37.48Z</time></trkpt><trkpt lat="45.4839733" lon="10.3932733"><ele>142.33333333333334</ele><time>2026-05-01T07:32:38.48Z</time></trkpt><trkpt lat="45.4840367" lon="10.3933717"><ele>142.66666666666669</ele><time>2026-05-01T07:32:39.48Z</time></trkpt><trkpt lat="45.484105" lon="10.393435"><ele>143.0</ele><time>2026-05-01T07:32:40.48Z</time></trkpt><trkpt lat="45.4841733" lon="10.393445"><ele>143.33333333333334</ele><time>2026-05-01T07:32:41.48Z</time></trkpt><trkpt lat="45.484245" lon="10.3934067"><ele>143.66666666666666</ele><time>2026-05-01T07:32:42.48Z</time></trkpt><trkpt lat="45.4843367" lon="10.39333"><ele>144.0</ele><time>2026-05-01T07:32:43.48Z</time></trkpt><trkpt lat="45.4844583" lon="10.3932683"><ele>144.66666666666666</ele><time>2026-05-01T07:32:44.48Z</time></trkpt><trkpt lat="45.484605" lon="10.3932633"><ele>145.33333333333331</ele><time>2026-05-01T07:32:45.48Z</time></trkpt><trkpt lat="45.48476" lon="10.3932967"><ele>146.0</ele><time>2026-05-01T07:32:46.48Z</time></trkpt><trkpt lat="45.4849217" lon="10.3933417"><ele>146.0</ele><time>2026-05-01T07:32:47.48Z</time></trkpt><trkpt lat="45.4850817" lon="10.3933983"><ele>146.0</ele><time>2026-05-01T07:32:48.48Z</time></trkpt><trkpt lat="45.4852483" lon="10.3934383"><ele>146.0</ele><time>2026-05-01T07:32:49.48Z</time></trkpt><trkpt lat="45.485415" lon="10.3934883"><ele>146.0</ele><time>2026-05-01T07:32:50.48Z</time></trkpt><trkpt lat="45.4855883" lon="10.39355"><ele>146.0</ele><time>2026-05-01T07:32:51.48Z</time></trkpt><trkpt lat="45.4857733" lon="10.3936"><ele>146.0</ele><time>2026-05-01T07:32:52.481Z</time></trkpt><trkpt lat="45.4859517" lon="10.3936617"><ele>146.0</ele><time>2026-05-01T07:32:53.48Z</time></trkpt><trkpt lat="45.48613" lon="10.3937217"><ele>146.0</ele><time>2026-05-01T07:32:54.48Z</time></trkpt><trkpt lat="45.486305" lon="10.39376"><ele>146.0</ele><time>2026-05-01T07:32:55.48Z</time></trkpt><trkpt lat="45.4864717" lon="10.39382"><ele>145.66666666666666</ele><time>2026-05-01T07:32:56.48Z</time></trkpt><trkpt lat="45.4866383" lon="10.3938833"><ele>145.33333333333334</ele><time>2026-05-01T07:32:57.48Z</time></trkpt><trkpt lat="45.4867917" lon="10.3939367"><ele>145.0</ele><time>2026-05-01T07:32:58.48Z</time></trkpt><trkpt lat="45.486935" lon="10.3939917"><ele>145.0</ele><time>2026-05-01T07:32:59.48Z</time></trkpt><trkpt lat="45.48708" lon="10.394035"><ele>145.0</ele><time>2026-05-01T07:33:00.48Z</time></trkpt><trkpt lat="45.4872233" lon="10.3940667"><ele>145.0</ele><time>2026-05-01T07:33:01.48Z</time></trkpt><trkpt lat="45.487365" lon="10.3940933"><ele>145.0</ele><time>2026-05-01T07:33:02.48Z</time></trkpt><trkpt lat="45.4875133" lon="10.39413"><ele>145.33333333333334</ele><time>2026-05-01T07:33:03.48Z</time></trkpt><trkpt lat="45.48767" lon="10.3941833"><ele>145.66666666666666</ele><time>2026-05-01T07:33:04.48Z</time></trkpt><trkpt lat="45.4878333" lon="10.3942317"><ele>146.0</ele><time>2026-05-01T07:33:05.48Z</time></trkpt><trkpt lat="45.4879917" lon="10.3943067"><ele>146.66666666666666</ele><time>2026-05-01T07:33:06.48Z</time></trkpt><trkpt lat="45.4881617" lon="10.3943883"><ele>147.33333333333334</ele><time>2026-05-01T07:33:07.48Z</time></trkpt><trkpt lat="45.4883367" lon="10.3944717"><ele>148.0</ele><time>2026-05-01T07:33:08.48Z</time></trkpt><trkpt lat="45.4885167" lon="10.3945433"><ele>148.0</ele><time>2026-05-01T07:33:09.48Z</time></trkpt><trkpt lat="45.4887033" lon="10.3946083"><ele>148.0</ele><time>2026-05-01T07:33:10.48Z</time></trkpt><trkpt lat="45.48889" lon="10.3946733"><ele>148.0</ele><time>2026-05-01T07:33:11.48Z</time></trkpt><trkpt lat="45.48907" lon="10.39473"><ele>147.75</ele><time>2026-05-01T07:33:12.48Z</time></trkpt><trkpt lat="45.4892183" lon="10.3947933"><ele>147.5</ele><time>2026-05-01T07:33:13.48Z</time></trkpt><trkpt lat="45.489335" lon="10.3948367"><ele>147.25</ele><time>2026-05-01T07:33:14.48Z</time></trkpt><trkpt lat="45.4894133" lon="10.3948667"><ele>147.0</ele><time>2026-05-01T07:33:15.48Z</time></trkpt><trkpt lat="45.4895117" lon="10.3949"><ele>147.0</ele><time>2026-05-01T07:33:17.481Z</time></trkpt><trkpt lat="45.48955" lon="10.3950033"><ele>147.0</ele><time>2026-05-01T07:33:20.48Z</time></trkpt><trkpt lat="45.4895117" lon="10.395145"><ele>147.0</ele><time>2026-05-01T07:33:22.48Z</time></trkpt><trkpt lat="45.4894717" lon="10.39526"><ele>147.0</ele><time>2026-05-01T07:33:23.48Z</time></trkpt><trkpt lat="45.4894283" lon="10.3953867"><ele>147.0</ele><time>2026-05-01T07:33:24.481Z</time></trkpt><trkpt lat="45.489385" lon="10.395525"><ele>147.2</ele><time>2026-05-01T07:33:25.48Z</time></trkpt><trkpt lat="45.4893433" lon="10.3956617"><ele>147.39999999999998</ele><time>2026-05-01T07:33:26.48Z</time></trkpt><trkpt lat="45.4893017" lon="10.3957967"><ele>147.60000000000002</ele><time>2026-05-01T07:33:27.48Z</time></trkpt><trkpt lat="45.4892567" lon="10.3959183"><ele>147.8</ele><time>2026-05-01T07:33:28.48Z</time></trkpt><trkpt lat="45.4892167" lon="10.3960367"><ele>148.0</ele><time>2026-05-01T07:33:29.48Z</time></trkpt><trkpt lat="45.4891767" lon="10.3961633"><ele>148.0</ele><time>2026-05-01T07:33:30.48Z</time></trkpt><trkpt lat="45.4891417" lon="10.39629"><ele>148.0</ele><time>2026-05-01T07:33:31.48Z</time></trkpt><trkpt lat="45.4891117" lon="10.396405"><ele>148.0</ele><time>2026-05-01T07:33:32.48Z</time></trkpt><trkpt lat="45.4890917" lon="10.3965067"><ele>148.0</ele><time>2026-05-01T07:33:33.48Z</time></trkpt><trkpt lat="45.48909" lon="10.396655"><ele>148.0</ele><time>2026-05-01T07:33:35.48Z</time></trkpt><trkpt lat="45.4891483" lon="10.3967483"><ele>148.0</ele><time>2026-05-01T07:33:37.48Z</time></trkpt><trkpt lat="45.4892" lon="10.39687"><ele>147.66666666666669</ele><time>2026-05-01T07:33:39.48Z</time></trkpt><trkpt lat="45.4892167" lon="10.396965"><ele>147.33333333333334</ele><time>2026-05-01T07:33:40.48Z</time></trkpt><trkpt lat="45.4892483" lon="10.397065"><ele>147.0</ele><time>2026-05-01T07:33:41.48Z</time></trkpt><trkpt lat="45.489295" lon="10.39716"><ele>146.66666666666666</ele><time>2026-05-01T07:33:42.48Z</time></trkpt><trkpt lat="45.489355" lon="10.3972583"><ele>146.33333333333331</ele><time>2026-05-01T07:33:43.48Z</time></trkpt><trkpt lat="45.489415" lon="10.3973767"><ele>146.0</ele><time>2026-05-01T07:33:44.48Z</time></trkpt><trkpt lat="45.4894667" lon="10.3975017"><ele>146.0</ele><time>2026-05-01T07:33:45.48Z</time></trkpt><trkpt lat="45.4895167" lon="10.3976267"><ele>146.0</ele><time>2026-05-01T07:33:46.48Z</time></trkpt><trkpt lat="45.48956" lon="10.3977433"><ele>146.0</ele><time>2026-05-01T07:33:47.48Z</time></trkpt><trkpt lat="45.4896033" lon="10.39786"><ele>146.0</ele><time>2026-05-01T07:33:48.48Z</time></trkpt><trkpt lat="45.489645" lon="10.3979683"><ele>146.0</ele><time>2026-05-01T07:33:49.48Z</time></trkpt><trkpt lat="45.4896833" lon="10.39807"><ele>145.66666666666666</ele><time>2026-05-01T07:33:50.48Z</time></trkpt><trkpt lat="45.4897217" lon="10.3981583"><ele>145.33333333333331</ele><time>2026-05-01T07:33:51.48Z</time></trkpt><trkpt lat="45.4897567" lon="10.3982417"><ele>145.0</ele><time>2026-05-01T07:33:52.48Z</time></trkpt><trkpt lat="45.489795" lon="10.3983383"><ele>144.66666666666666</ele><time>2026-05-01T07:33:53.48Z</time></trkpt><trkpt lat="45.4898417" lon="10.3984567"><ele>144.33333333333334</ele><time>2026-05-01T07:33:54.48Z</time></trkpt><trkpt lat="45.489895" lon="10.3985833"><ele>144.0</ele><time>2026-05-01T07:33:55.48Z</time></trkpt><trkpt lat="45.48995" lon="10.3987133"><ele>144.0</ele><time>2026-05-01T07:33:56.48Z</time></trkpt><trkpt lat="45.4900083" lon="10.3988333"><ele>144.0</ele><time>2026-05-01T07:33:57.48Z</time></trkpt><trkpt lat="45.4900517" lon="10.3989633"><ele>144.0</ele><time>2026-05-01T07:33:58.481Z</time></trkpt><trkpt lat="45.49009" lon="10.3990967"><ele>144.0</ele><time>2026-05-01T07:33:59.48Z</time></trkpt><trkpt lat="45.49012" lon="10.3992267"><ele>144.0</ele><time>2026-05-01T07:34:00.48Z</time></trkpt><trkpt lat="45.49015" lon="10.3993617"><ele>143.8</ele><time>2026-05-01T07:34:01.48Z</time></trkpt><trkpt lat="45.4901683" lon="10.399505"><ele>143.60000000000002</ele><time>2026-05-01T07:34:02.48Z</time></trkpt><trkpt lat="45.490175" lon="10.39966"><ele>143.4</ele><time>2026-05-01T07:34:03.48Z</time></trkpt><trkpt lat="45.49018" lon="10.3998183"><ele>143.20000000000002</ele><time>2026-05-01T07:34:04.48Z</time></trkpt><trkpt lat="45.4901883" lon="10.39998"><ele>143.0</ele><time>2026-05-01T07:34:05.48Z</time></trkpt><trkpt lat="45.4901867" lon="10.4001317"><ele>142.83333333333331</ele><time>2026-05-01T07:34:06.48Z</time></trkpt><trkpt lat="45.4901867" lon="10.4002667"><ele>142.66666666666666</ele><time>2026-05-01T07:34:07.48Z</time></trkpt><trkpt lat="45.4901917" lon="10.4003733"><ele>142.5</ele><time>2026-05-01T07:34:08.48Z</time></trkpt><trkpt lat="45.49024" lon="10.40053"><ele>142.33333333333334</ele><time>2026-05-01T07:34:10.48Z</time></trkpt><trkpt lat="45.4902933" lon="10.4005867"><ele>142.16666666666669</ele><time>2026-05-01T07:34:11.48Z</time></trkpt><trkpt lat="45.4903733" lon="10.40062"><ele>142.0</ele><time>2026-05-01T07:34:12.48Z</time></trkpt><trkpt lat="45.4904783" lon="10.40064"><ele>142.5</ele><time>2026-05-01T07:34:13.48Z</time></trkpt><trkpt lat="45.4905983" lon="10.4006567"><ele>143.0</ele><time>2026-05-01T07:34:14.48Z</time></trkpt><trkpt lat="45.4907267" lon="10.4006917"><ele>143.5</ele><time>2026-05-01T07:34:15.48Z</time></trkpt><trkpt lat="45.4908667" lon="10.4007233"><ele>144.0</ele><time>2026-05-01T07:34:16.48Z</time></trkpt><trkpt lat="45.49101" lon="10.40075"><ele>144.0</ele><time>2026-05-01T07:34:17.48Z</time></trkpt><trkpt lat="45.49116" lon="10.4007783"><ele>144.0</ele><time>2026-05-01T07:34:18.48Z</time></trkpt><trkpt lat="45.4913017" lon="10.4008217"><ele>144.0</ele><time>2026-05-01T07:34:19.48Z</time></trkpt><trkpt lat="45.4914367" lon="10.4008683"><ele>144.0</ele><time>2026-05-01T07:34:20.48Z</time></trkpt><trkpt lat="45.4915717" lon="10.400915"><ele>144.25</ele><time>2026-05-01T07:34:21.481Z</time></trkpt><trkpt lat="45.4917133" lon="10.4009483"><ele>144.5</ele><time>2026-05-01T07:34:22.48Z</time></trkpt><trkpt lat="45.4918567" lon="10.4009667"><ele>144.75</ele><time>2026-05-01T07:34:23.48Z</time></trkpt><trkpt lat="45.4919967" lon="10.4009867"><ele>145.0</ele><time>2026-05-01T07:34:24.48Z</time></trkpt><trkpt lat="45.4921267" lon="10.401015"><ele>145.0</ele><time>2026-05-01T07:34:25.48Z</time></trkpt><trkpt lat="45.49225" lon="10.4010433"><ele>145.0</ele><time>2026-05-01T07:34:26.48Z</time></trkpt><trkpt lat="45.49237" lon="10.4010817"><ele>145.0</ele><time>2026-05-01T07:34:27.48Z</time></trkpt><trkpt lat="45.4924983" lon="10.4011267"><ele>145.0</ele><time>2026-05-01T07:34:28.48Z</time></trkpt><trkpt lat="45.4926233" lon="10.4011667"><ele>145.0</ele><time>2026-05-01T07:34:29.48Z</time></trkpt><trkpt lat="45.4927533" lon="10.4011967"><ele>145.0</ele><time>2026-05-01T07:34:30.48Z</time></trkpt><trkpt lat="45.4928917" lon="10.4012083"><ele>145.0</ele><time>2026-05-01T07:34:31.48Z</time></trkpt><trkpt lat="45.4930283" lon="10.4011733"><ele>145.0</ele><time>2026-05-01T07:34:32.48Z</time></trkpt><trkpt lat="45.4931617" lon="10.4011367"><ele>146.0</ele><time>2026-05-01T07:34:33.48Z</time></trkpt><trkpt lat="45.4933017" lon="10.4011183"><ele>147.0</ele><time>2026-05-01T07:34:34.48Z</time></trkpt><trkpt lat="45.4934667" lon="10.40112"><ele>148.0</ele><time>2026-05-01T07:34:35.48Z</time></trkpt><trkpt lat="45.4936417" lon="10.4011233"><ele>148.66666666666669</ele><time>2026-05-01T07:34:36.48Z</time></trkpt><trkpt lat="45.4938217" lon="10.4011117"><ele>149.33333333333334</ele><time>2026-05-01T07:34:37.48Z</time></trkpt><trkpt lat="45.4939933" lon="10.4010933"><ele>150.0</ele><time>2026-05-01T07:34:38.48Z</time></trkpt><trkpt lat="45.494145" lon="10.4010617"><ele>150.0</ele><time>2026-05-01T07:34:39.48Z</time></trkpt><trkpt lat="45.4942933" lon="10.4010367"><ele>150.0</ele><time>2026-05-01T07:34:40.48Z</time></trkpt><trkpt lat="45.4944267" lon="10.4010317"><ele>150.0</ele><time>2026-05-01T07:34:41.48Z</time></trkpt><trkpt lat="45.4945533" lon="10.4010417"><ele>150.0</ele><time>2026-05-01T07:34:42.48Z</time></trkpt><trkpt lat="45.4946633" lon="10.401055"><ele>150.0</ele><time>2026-05-01T07:34:43.48Z</time></trkpt><trkpt lat="45.4947667" lon="10.4010667"><ele>150.0</ele><time>2026-05-01T07:34:44.48Z</time></trkpt><trkpt lat="45.49487" lon="10.4010717"><ele>150.0</ele><time>2026-05-01T07:34:45.48Z</time></trkpt><trkpt lat="45.4949767" lon="10.4010683"><ele>150.0</ele><time>2026-05-01T07:34:46.48Z</time></trkpt><trkpt lat="45.4950967" lon="10.4010683"><ele>150.0</ele><time>2026-05-01T07:34:47.48Z</time></trkpt><trkpt lat="45.49523" lon="10.4010783"><ele>150.0</ele><time>2026-05-01T07:34:48.48Z</time></trkpt><trkpt lat="45.495355" lon="10.40108"><ele>150.0</ele><time>2026-05-01T07:34:49.48Z</time></trkpt><trkpt lat="45.4954683" lon="10.4010683"><ele>150.0</ele><time>2026-05-01T07:34:50.48Z</time></trkpt><trkpt lat="45.4955683" lon="10.40102"><ele>150.0</ele><time>2026-05-01T07:34:51.48Z</time></trkpt><trkpt lat="45.495665" lon="10.4009533"><ele>149.4</ele><time>2026-05-01T07:34:52.48Z</time></trkpt><trkpt lat="45.49576" lon="10.4008883"><ele>148.8</ele><time>2026-05-01T07:34:53.48Z</time></trkpt><trkpt lat="45.4958467" lon="10.4008367"><ele>148.2</ele><time>2026-05-01T07:34:54.48Z</time></trkpt><trkpt lat="45.4959367" lon="10.4008283"><ele>147.6</ele><time>2026-05-01T07:34:55.48Z</time></trkpt><trkpt lat="45.4960367" lon="10.40083"><ele>147.0</ele><time>2026-05-01T07:34:56.48Z</time></trkpt><trkpt lat="45.4961383" lon="10.4008417"><ele>147.0</ele><time>2026-05-01T07:34:57.48Z</time></trkpt><trkpt lat="45.4962417" lon="10.400845"><ele>147.0</ele><time>2026-05-01T07:34:58.48Z</time></trkpt><trkpt lat="45.4963383" lon="10.4008483"><ele>147.0</ele><time>2026-05-01T07:34:59.48Z</time></trkpt><trkpt lat="45.4964283" lon="10.40084"><ele>147.0</ele><time>2026-05-01T07:35:00.48Z</time></trkpt><trkpt lat="45.4964983" lon="10.4007967"><ele>147.0</ele><time>2026-05-01T07:35:01.48Z</time></trkpt><trkpt lat="45.4965567" lon="10.4007433"><ele>147.0</ele><time>2026-05-01T07:35:02.48Z</time></trkpt><trkpt lat="45.4966067" lon="10.4006783"><ele>147.2</ele><time>2026-05-01T07:35:03.48Z</time></trkpt><trkpt lat="45.49666" lon="10.40062"><ele>147.39999999999998</ele><time>2026-05-01T07:35:04.48Z</time></trkpt><trkpt lat="45.4967567" lon="10.4005567"><ele>147.60000000000002</ele><time>2026-05-01T07:35:06.48Z</time></trkpt><trkpt lat="45.4968517" lon="10.40056"><ele>147.8</ele><time>2026-05-01T07:35:08.48Z</time></trkpt><trkpt lat="45.496735" lon="10.40059"><ele>148.0</ele><time>2026-05-01T07:35:21.48Z</time></trkpt><trkpt lat="45.4966633" lon="10.400635"><ele>148.0</ele><time>2026-05-01T07:35:22.48Z</time></trkpt><trkpt lat="45.49658" lon="10.4007083"><ele>148.0</ele><time>2026-05-01T07:35:23.48Z</time></trkpt><trkpt lat="45.4964983" lon="10.4007817"><ele>148.0</ele><time>2026-05-01T07:35:24.48Z</time></trkpt><trkpt lat="45.496415" lon="10.40084"><ele>148.0</ele><time>2026-05-01T07:35:25.48Z</time></trkpt><trkpt lat="45.4963317" lon="10.4008667"><ele>148.0</ele><time>2026-05-01T07:35:26.48Z</time></trkpt><trkpt lat="45.49625" lon="10.4008767"><ele>147.83333333333334</ele><time>2026-05-01T07:35:27.48Z</time></trkpt><trkpt lat="45.4961717" lon="10.4008783"><ele>147.66666666666669</ele><time>2026-05-01T07:35:28.48Z</time></trkpt><trkpt lat="45.496105" lon="10.4008667"><ele>147.5</ele><time>2026-05-01T07:35:29.481Z</time></trkpt><trkpt lat="45.4960133" lon="10.4008067"><ele>147.33333333333334</ele><time>2026-05-01T07:35:31.48Z</time></trkpt><trkpt lat="45.495995" lon="10.4006717"><ele>147.16666666666666</ele><time>2026-05-01T07:35:33.48Z</time></trkpt><trkpt lat="45.4960067" lon="10.400565"><ele>147.0</ele><time>2026-05-01T07:35:34.48Z</time></trkpt><trkpt lat="45.4960217" lon="10.4004433"><ele>147.0</ele><time>2026-05-01T07:35:35.48Z</time></trkpt><trkpt lat="45.496035" lon="10.400305"><ele>147.0</ele><time>2026-05-01T07:35:36.48Z</time></trkpt><trkpt lat="45.496045" lon="10.40016"><ele>147.0</ele><time>2026-05-01T07:35:37.48Z</time></trkpt><trkpt lat="45.4960567" lon="10.4000317"><ele>147.0</ele><time>2026-05-01T07:35:38.48Z</time></trkpt><trkpt lat="45.4960583" lon="10.3999383"><ele>147.0</ele><time>2026-05-01T07:35:39.48Z</time></trkpt><trkpt lat="45.4960617" lon="10.4000467"><ele>147.0</ele><time>2026-05-01T07:36:04.48Z</time></trkpt><trkpt lat="45.4960467" lon="10.400195"><ele>147.0</ele><time>2026-05-01T07:36:06.48Z</time></trkpt><trkpt lat="45.4960317" lon="10.4003217"><ele>147.0</ele><time>2026-05-01T07:36:08.48Z</time></trkpt><trkpt lat="45.4960183" lon="10.4004467"><ele>147.0</ele><time>2026-05-01T07:36:10.48Z</time></trkpt><trkpt lat="45.4960067" lon="10.4005967"><ele>147.0</ele><time>2026-05-01T07:36:12.48Z</time></trkpt><trkpt lat="45.4960033" lon="10.400755"><ele>147.0</ele><time>2026-05-01T07:36:14.48Z</time></trkpt><trkpt lat="45.4960467" lon="10.4008417"><ele>147.0</ele><time>2026-05-01T07:36:16.48Z</time></trkpt><trkpt lat="45.4961517" lon="10.400865"><ele>147.0</ele><time>2026-05-01T07:36:18.48Z</time></trkpt><trkpt lat="45.49623" lon="10.40086"><ele>147.0</ele><time>2026-05-01T07:36:19.48Z</time></trkpt><trkpt lat="45.4963183" lon="10.4008583"><ele>147.0</ele><time>2026-05-01T07:36:20.48Z</time></trkpt><trkpt lat="45.4963967" lon="10.400845"><ele>147.0</ele><time>2026-05-01T07:36:21.48Z</time></trkpt><trkpt lat="45.4964633" lon="10.40082"><ele>147.0</ele><time>2026-05-01T07:36:22.481Z</time></trkpt><trkpt lat="45.4965217" lon="10.4007717"><ele>147.16666666666666</ele><time>2026-05-01T07:36:23.48Z</time></trkpt><trkpt lat="45.4965783" lon="10.400705"><ele>147.33333333333334</ele><time>2026-05-01T07:36:24.48Z</time></trkpt><trkpt lat="45.496635" lon="10.4006417"><ele>147.5</ele><time>2026-05-01T07:36:25.48Z</time></trkpt><trkpt lat="45.4966917" lon="10.4005933"><ele>147.66666666666669</ele><time>2026-05-01T07:36:26.48Z</time></trkpt><trkpt lat="45.4967883" lon="10.40056"><ele>147.83333333333334</ele><time>2026-05-01T07:36:28.48Z</time></trkpt><trkpt lat="45.4968733" lon="10.400565"><ele>148.0</ele><time>2026-05-01T07:36:30.48Z</time></trkpt><trkpt lat="45.496945" lon="10.4005817"><ele>148.0</ele><time>2026-05-01T07:36:33.48Z</time></trkpt><trkpt lat="45.4970483" lon="10.40062"><ele>148.0</ele><time>2026-05-01T07:36:56.48Z</time></trkpt><trkpt lat="45.497175" lon="10.40068"><ele>148.0</ele><time>2026-05-01T07:36:58.48Z</time></trkpt><trkpt lat="45.4972533" lon="10.4007217"><ele>148.0</ele><time>2026-05-01T07:36:59.48Z</time></trkpt><trkpt lat="45.4973483" lon="10.4007683"><ele>148.0</ele><time>2026-05-01T07:37:00.48Z</time></trkpt><trkpt lat="45.4974433" lon="10.40081"><ele>148.0</ele><time>2026-05-01T07:37:01.48Z</time></trkpt><trkpt lat="45.4975683" lon="10.4008433"><ele>148.0</ele><time>2026-05-01T07:37:02.48Z</time></trkpt><trkpt lat="45.4976917" lon="10.4008683"><ele>148.0</ele><time>2026-05-01T07:37:03.48Z</time></trkpt><trkpt lat="45.497825" lon="10.400885"><ele>148.0</ele><time>2026-05-01T07:37:04.48Z</time></trkpt><trkpt lat="45.4979567" lon="10.4009"><ele>148.0</ele><time>2026-05-01T07:37:05.48Z</time></trkpt><trkpt lat="45.4980733" lon="10.400915"><ele>148.0</ele><time>2026-05-01T07:37:06.48Z</time></trkpt><trkpt lat="45.4981817" lon="10.4009417"><ele>148.0</ele><time>2026-05-01T07:37:07.48Z</time></trkpt><trkpt lat="45.49828" lon="10.40096"><ele>148.0</ele><time>2026-05-01T07:37:08.481Z</time></trkpt><trkpt lat="45.498355" lon="10.4009767"><ele>148.0</ele><time>2026-05-01T07:37:09.48Z</time></trkpt><trkpt lat="45.4984217" lon="10.4009783"><ele>148.0</ele><time>2026-05-01T07:37:10.48Z</time></trkpt><trkpt lat="45.4984883" lon="10.4009983"><ele>148.0</ele><time>2026-05-01T07:37:12.48Z</time></trkpt><trkpt lat="45.4985383" lon="10.4009017"><ele>148.0</ele><time>2026-05-01T07:37:17.48Z</time></trkpt><trkpt lat="45.498545" lon="10.4008117"><ele>148.0</ele><time>2026-05-01T07:37:19.48Z</time></trkpt><trkpt lat="45.4985617" lon="10.4006683"><ele>148.0</ele><time>2026-05-01T07:37:21.48Z</time></trkpt><trkpt lat="45.4985733" lon="10.4005367"><ele>148.0</ele><time>2026-05-01T07:37:22.48Z</time></trkpt><trkpt lat="45.4985917" lon="10.4003783"><ele>148.75</ele><time>2026-05-01T07:37:23.48Z</time></trkpt><trkpt lat="45.4986117" lon="10.4002"><ele>149.5</ele><time>2026-05-01T07:37:24.48Z</time></trkpt><trkpt lat="45.4986417" lon="10.4000033"><ele>150.25</ele><time>2026-05-01T07:37:25.48Z</time></trkpt><trkpt lat="45.498675" lon="10.3997733"><ele>151.0</ele><time>2026-05-01T07:37:26.48Z</time></trkpt><trkpt lat="45.4987017" lon="10.3995383"><ele>151.0</ele><time>2026-05-01T07:37:27.48Z</time></trkpt><trkpt lat="45.498735" lon="10.39929"><ele>151.0</ele><time>2026-05-01T07:37:28.48Z</time></trkpt><trkpt lat="45.4987683" lon="10.3990117"><ele>151.0</ele><time>2026-05-01T07:37:29.48Z</time></trkpt><trkpt lat="45.498805" lon="10.3987167"><ele>151.33333333333334</ele><time>2026-05-01T07:37:30.48Z</time></trkpt><trkpt lat="45.4988483" lon="10.3984267"><ele>151.66666666666666</ele><time>2026-05-01T07:37:31.48Z</time></trkpt><trkpt lat="45.4988833" lon="10.3981583"><ele>152.0</ele><time>2026-05-01T07:37:32.48Z</time></trkpt><trkpt lat="45.4989167" lon="10.3979183"><ele>152.4</ele><time>2026-05-01T07:37:33.48Z</time></trkpt><trkpt lat="45.498945" lon="10.397715"><ele>152.79999999999998</ele><time>2026-05-01T07:37:34.48Z</time></trkpt><trkpt lat="45.4989667" lon="10.3975383"><ele>153.2</ele><time>2026-05-01T07:37:35.48Z</time></trkpt><trkpt lat="45.498985" lon="10.3974"><ele>153.6</ele><time>2026-05-01T07:37:36.48Z</time></trkpt><trkpt lat="45.4989967" lon="10.39731"><ele>154.0</ele><time>2026-05-01T07:37:37.48Z</time></trkpt><trkpt lat="45.4990267" lon="10.3971783"><ele>154.0</ele><time>2026-05-01T07:38:27.48Z</time></trkpt><trkpt lat="45.4991133" lon="10.3970617"><ele>154.0</ele><time>2026-05-01T07:38:29.48Z</time></trkpt><trkpt lat="45.49918" lon="10.3970433"><ele>154.0</ele><time>2026-05-01T07:38:30.48Z</time></trkpt><trkpt lat="45.4992683" lon="10.3970733"><ele>154.0</ele><time>2026-05-01T07:38:31.48Z</time></trkpt><trkpt lat="45.499375" lon="10.3971217"><ele>154.0</ele><time>2026-05-01T07:38:32.481Z</time></trkpt><trkpt lat="45.4995117" lon="10.3971733"><ele>153.66666666666669</ele><time>2026-05-01T07:38:33.48Z</time></trkpt><trkpt lat="45.499665" lon="10.3972267"><ele>153.33333333333334</ele><time>2026-05-01T07:38:34.48Z</time></trkpt><trkpt lat="45.499845" lon="10.39729"><ele>153.0</ele><time>2026-05-01T07:38:35.48Z</time></trkpt><trkpt lat="45.5000517" lon="10.3973583"><ele>153.0</ele><time>2026-05-01T07:38:36.48Z</time></trkpt><trkpt lat="45.5002767" lon="10.39743"><ele>153.0</ele><time>2026-05-01T07:38:37.481Z</time></trkpt><trkpt lat="45.5005017" lon="10.3975083"><ele>153.5</ele><time>2026-05-01T07:38:38.48Z</time></trkpt><trkpt lat="45.500745" lon="10.3975933"><ele>154.0</ele><time>2026-05-01T07:38:39.48Z</time></trkpt><trkpt lat="45.5009883" lon="10.3976733"><ele>154.0</ele><time>2026-05-01T07:38:40.48Z</time></trkpt><trkpt lat="45.50123" lon="10.3977417"><ele>154.0</ele><time>2026-05-01T07:38:41.48Z</time></trkpt><trkpt lat="45.5014733" lon="10.39779"><ele>154.5</ele><time>2026-05-01T07:38:42.481Z</time></trkpt><trkpt lat="45.5017167" lon="10.3978083"><ele>155.0</ele><time>2026-05-01T07:38:43.48Z</time></trkpt><trkpt lat="45.5019583" lon="10.3977983"><ele>154.0</ele><time>2026-05-01T07:38:44.48Z</time></trkpt><trkpt lat="45.5021967" lon="10.3977717"><ele>153.0</ele><time>2026-05-01T07:38:45.48Z</time></trkpt><trkpt lat="45.5024317" lon="10.397715"><ele>153.0</ele><time>2026-05-01T07:38:46.48Z</time></trkpt><trkpt lat="45.502675" lon="10.397655"><ele>153.0</ele><time>2026-05-01T07:38:47.48Z</time></trkpt><trkpt lat="45.50291" lon="10.3975883"><ele>153.5</ele><time>2026-05-01T07:38:48.48Z</time></trkpt><trkpt lat="45.5031433" lon="10.3975233"><ele>154.0</ele><time>2026-05-01T07:38:49.48Z</time></trkpt><trkpt lat="45.503385" lon="10.3974583"><ele>154.0</ele><time>2026-05-01T07:38:50.48Z</time></trkpt><trkpt lat="45.5036183" lon="10.3974017"><ele>154.0</ele><time>2026-05-01T07:38:51.48Z</time></trkpt><trkpt lat="45.50384" lon="10.3973467"><ele>154.5</ele><time>2026-05-01T07:38:52.48Z</time></trkpt><trkpt lat="45.5040583" lon="10.3972983"><ele>155.0</ele><time>2026-05-01T07:38:53.48Z</time></trkpt><trkpt lat="45.5042867" lon="10.39726"><ele>155.0</ele><time>2026-05-01T07:38:54.48Z</time></trkpt><trkpt lat="45.5044983" lon="10.3972217"><ele>155.0</ele><time>2026-05-01T07:38:55.48Z</time></trkpt><trkpt lat="45.5046983" lon="10.3971883"><ele>155.0</ele><time>2026-05-01T07:38:56.48Z</time></trkpt><trkpt lat="45.5048767" lon="10.3971633"><ele>155.75</ele><time>2026-05-01T07:38:57.48Z</time></trkpt><trkpt lat="45.505035" lon="10.3971367"><ele>156.5</ele><time>2026-05-01T07:38:58.48Z</time></trkpt><trkpt lat="45.5051633" lon="10.39713"><ele>157.25</ele><time>2026-05-01T07:38:59.48Z</time></trkpt><trkpt lat="45.5052617" lon="10.3971117"><ele>158.0</ele><time>2026-05-01T07:39:00.48Z</time></trkpt><trkpt lat="45.5053283" lon="10.397095"><ele>158.0</ele><time>2026-05-01T07:39:01.48Z</time></trkpt><trkpt lat="45.50541" lon="10.3970917"><ele>158.0</ele><time>2026-05-01T07:39:03.48Z</time></trkpt><trkpt lat="45.5054867" lon="10.397085"><ele>158.0</ele><time>2026-05-01T07:39:06.48Z</time></trkpt><trkpt lat="45.5055767" lon="10.3970767"><ele>158.0</ele><time>2026-05-01T07:39:09.48Z</time></trkpt><trkpt lat="45.5056617" lon="10.3970817"><ele>158.0</ele><time>2026-05-01T07:39:12.48Z</time></trkpt><trkpt lat="45.505725" lon="10.3970783"><ele>158.0</ele><time>2026-05-01T07:39:16.48Z</time></trkpt><trkpt lat="45.5057933" lon="10.397095"><ele>158.4</ele><time>2026-05-01T07:39:21.48Z</time></trkpt><trkpt lat="45.5059017" lon="10.3970817"><ele>158.8</ele><time>2026-05-01T07:41:19.48Z</time></trkpt><trkpt lat="45.5060367" lon="10.3970683"><ele>159.2</ele><time>2026-05-01T07:41:21.48Z</time></trkpt><trkpt lat="45.5061283" lon="10.3970683"><ele>159.6</ele><time>2026-05-01T07:41:22.48Z</time></trkpt><trkpt lat="45.5062333" lon="10.3970783"><ele>160.0</ele><time>2026-05-01T07:41:23.48Z</time></trkpt><trkpt lat="45.5063483" lon="10.3970867"><ele>160.0</ele><time>2026-05-01T07:41:24.48Z</time></trkpt><trkpt lat="45.506475" lon="10.397115"><ele>160.0</ele><time>2026-05-01T07:41:25.48Z</time></trkpt><trkpt lat="45.5066117" lon="10.3971433"><ele>160.0</ele><time>2026-05-01T07:41:26.48Z</time></trkpt><trkpt lat="45.506765" lon="10.39717"><ele>160.0</ele><time>2026-05-01T07:41:27.48Z</time></trkpt><trkpt lat="45.5069233" lon="10.3971967"><ele>158.66666666666669</ele><time>2026-05-01T07:41:28.48Z</time></trkpt><trkpt lat="45.5071" lon="10.3972283"><ele>157.33333333333334</ele><time>2026-05-01T07:41:29.48Z</time></trkpt><trkpt lat="45.5072717" lon="10.3972567"><ele>156.0</ele><time>2026-05-01T07:41:30.48Z</time></trkpt><trkpt lat="45.5074433" lon="10.3972533"><ele>156.0</ele><time>2026-05-01T07:41:31.48Z</time></trkpt><trkpt lat="45.507615" lon="10.39723"><ele>156.0</ele><time>2026-05-01T07:41:32.48Z</time></trkpt><trkpt lat="45.5077817" lon="10.3971633"><ele>156.0</ele><time>2026-05-01T07:41:33.48Z</time></trkpt><trkpt lat="45.5079517" lon="10.3970617"><ele>157.33333333333334</ele><time>2026-05-01T07:41:34.48Z</time></trkpt><trkpt lat="45.508115" lon="10.3969333"><ele>158.66666666666669</ele><time>2026-05-01T07:41:35.48Z</time></trkpt><trkpt lat="45.5082717" lon="10.396795"><ele>160.0</ele><time>2026-05-01T07:41:36.48Z</time></trkpt><trkpt lat="45.5084217" lon="10.3966433"><ele>160.0</ele><time>2026-05-01T07:41:37.48Z</time></trkpt><trkpt lat="45.5085717" lon="10.3964983"><ele>160.0</ele><time>2026-05-01T07:41:38.48Z</time></trkpt><trkpt lat="45.5087267" lon="10.3963533"><ele>160.0</ele><time>2026-05-01T07:41:39.48Z</time></trkpt><trkpt lat="45.5088683" lon="10.3962183"><ele>160.66666666666669</ele><time>2026-05-01T07:41:40.48Z</time></trkpt><trkpt lat="45.5090033" lon="10.3960833"><ele>161.33333333333334</ele><time>2026-05-01T07:41:41.48Z</time></trkpt><trkpt lat="45.509125" lon="10.3959567"><ele>162.0</ele><time>2026-05-01T07:41:42.48Z</time></trkpt><trkpt lat="45.50924" lon="10.3958433"><ele>162.0</ele><time>2026-05-01T07:41:43.48Z</time></trkpt><trkpt lat="45.5093467" lon="10.395745"><ele>162.0</ele><time>2026-05-01T07:41:44.48Z</time></trkpt><trkpt lat="45.5094483" lon="10.3956833"><ele>162.0</ele><time>2026-05-01T07:41:45.48Z</time></trkpt><trkpt lat="45.5095467" lon="10.39565"><ele>162.0</ele><time>2026-05-01T07:41:46.48Z</time></trkpt><trkpt lat="45.5096333" lon="10.3956467"><ele>162.0</ele><time>2026-05-01T07:41:47.48Z</time></trkpt><trkpt lat="45.5096967" lon="10.395665"><ele>162.16666666666666</ele><time>2026-05-01T07:41:48.48Z</time></trkpt><trkpt lat="45.5097667" lon="10.39577"><ele>162.33333333333334</ele><time>2026-05-01T07:41:50.48Z</time></trkpt><trkpt lat="45.5097883" lon="10.395855"><ele>162.5</ele><time>2026-05-01T07:41:51.48Z</time></trkpt><trkpt lat="45.5098033" lon="10.3959517"><ele>162.66666666666669</ele><time>2026-05-01T07:41:52.48Z</time></trkpt><trkpt lat="45.5098183" lon="10.396065"><ele>162.83333333333334</ele><time>2026-05-01T07:41:53.48Z</time></trkpt><trkpt lat="45.5098367" lon="10.3962033"><ele>163.0</ele><time>2026-05-01T07:41:54.48Z</time></trkpt><trkpt lat="45.5098483" lon="10.396355"><ele>162.60000000000002</ele><time>2026-05-01T07:41:55.48Z</time></trkpt><trkpt lat="45.5098633" lon="10.3965167"><ele>162.20000000000002</ele><time>2026-05-01T07:41:56.48Z</time></trkpt><trkpt lat="45.5098717" lon="10.3966633"><ele>161.8</ele><time>2026-05-01T07:41:57.48Z</time></trkpt><trkpt lat="45.5098817" lon="10.3968"><ele>161.4</ele><time>2026-05-01T07:41:58.48Z</time></trkpt><trkpt lat="45.5098883" lon="10.3969217"><ele>161.0</ele><time>2026-05-01T07:41:59.48Z</time></trkpt><trkpt lat="45.50989" lon="10.397045"><ele>161.0</ele><time>2026-05-01T07:42:00.48Z</time></trkpt><trkpt lat="45.5099" lon="10.3971583"><ele>161.0</ele><time>2026-05-01T07:42:01.48Z</time></trkpt><trkpt lat="45.5099117" lon="10.3972633"><ele>161.0</ele><time>2026-05-01T07:42:02.48Z</time></trkpt><trkpt lat="45.5099217" lon="10.3973633"><ele>161.0</ele><time>2026-05-01T07:42:03.48Z</time></trkpt><trkpt lat="45.5099333" lon="10.3974667"><ele>161.0</ele><time>2026-05-01T07:42:04.48Z</time></trkpt><trkpt lat="45.5099567" lon="10.3975667"><ele>161.0</ele><time>2026-05-01T07:42:05.48Z</time></trkpt><trkpt lat="45.5100017" lon="10.3976617"><ele>160.8</ele><time>2026-05-01T07:42:06.48Z</time></trkpt><trkpt lat="45.51006" lon="10.3977433"><ele>160.60000000000002</ele><time>2026-05-01T07:42:07.48Z</time></trkpt><trkpt lat="45.5101367" lon="10.3978"><ele>160.4</ele><time>2026-05-01T07:42:08.48Z</time></trkpt><trkpt lat="45.5102367" lon="10.3978317"><ele>160.2</ele><time>2026-05-01T07:42:09.48Z</time></trkpt><trkpt lat="45.5103333" lon="10.397855"><ele>160.0</ele><time>2026-05-01T07:42:10.48Z</time></trkpt><trkpt lat="45.5104283" lon="10.397875"><ele>160.0</ele><time>2026-05-01T07:42:11.48Z</time></trkpt><trkpt lat="45.5105183" lon="10.3979"><ele>160.0</ele><time>2026-05-01T07:42:12.48Z</time></trkpt><trkpt lat="45.5106033" lon="10.3979217"><ele>160.0</ele><time>2026-05-01T07:42:13.48Z</time></trkpt><trkpt lat="45.51069" lon="10.3979433"><ele>160.0</ele><time>2026-05-01T07:42:14.48Z</time></trkpt><trkpt lat="45.51077" lon="10.39798"><ele>160.0</ele><time>2026-05-01T07:42:15.48Z</time></trkpt><trkpt lat="45.5108417" lon="10.39803"><ele>160.0</ele><time>2026-05-01T07:42:16.48Z</time></trkpt><trkpt lat="45.5108917" lon="10.3981183"><ele>158.66666666666669</ele><time>2026-05-01T07:42:17.48Z</time></trkpt><trkpt lat="45.5109167" lon="10.398225"><ele>157.33333333333334</ele><time>2026-05-01T07:42:18.48Z</time></trkpt><trkpt lat="45.5109133" lon="10.3983333"><ele>156.0</ele><time>2026-05-01T07:42:19.48Z</time></trkpt><trkpt lat="45.51088" lon="10.3984433"><ele>154.66666666666666</ele><time>2026-05-01T07:42:20.48Z</time></trkpt><trkpt lat="45.5108333" lon="10.398555"><ele>153.33333333333331</ele><time>2026-05-01T07:42:21.48Z</time></trkpt><trkpt lat="45.5107867" lon="10.3986817"><ele>152.0</ele><time>2026-05-01T07:42:22.48Z</time></trkpt><trkpt lat="45.51075" lon="10.3988133"><ele>151.6</ele><time>2026-05-01T07:42:23.48Z</time></trkpt><trkpt lat="45.5107183" lon="10.3989417"><ele>151.2</ele><time>2026-05-01T07:42:24.48Z</time></trkpt><trkpt lat="45.51071" lon="10.3990683"><ele>150.8</ele><time>2026-05-01T07:42:25.48Z</time></trkpt><trkpt lat="45.5107283" lon="10.3991967"><ele>150.4</ele><time>2026-05-01T07:42:26.481Z</time></trkpt><trkpt lat="45.5107767" lon="10.399325"><ele>150.0</ele><time>2026-05-01T07:42:27.48Z</time></trkpt><trkpt lat="45.5108417" lon="10.3994467"><ele>150.0</ele><time>2026-05-01T07:42:28.48Z</time></trkpt><trkpt lat="45.5109" lon="10.3995717"><ele>150.0</ele><time>2026-05-01T07:42:29.48Z</time></trkpt><trkpt lat="45.510965" lon="10.3996983"><ele>150.0</ele><time>2026-05-01T07:42:30.481Z</time></trkpt><trkpt lat="45.511025" lon="10.3998433"><ele>150.0</ele><time>2026-05-01T07:42:31.48Z</time></trkpt><trkpt lat="45.5110917" lon="10.4"><ele>150.5</ele><time>2026-05-01T07:42:32.48Z</time></trkpt><trkpt lat="45.5111533" lon="10.400165"><ele>151.0</ele><time>2026-05-01T07:42:33.48Z</time></trkpt><trkpt lat="45.5111967" lon="10.40034"><ele>151.5</ele><time>2026-05-01T07:42:34.48Z</time></trkpt><trkpt lat="45.511235" lon="10.4005283"><ele>152.0</ele><time>2026-05-01T07:42:35.48Z</time></trkpt><trkpt lat="45.51128" lon="10.4007133"><ele>152.0</ele><time>2026-05-01T07:42:36.48Z</time></trkpt><trkpt lat="45.5113033" lon="10.4009033"><ele>152.0</ele><time>2026-05-01T07:42:37.48Z</time></trkpt><trkpt lat="45.5113283" lon="10.4010883"><ele>152.0</ele><time>2026-05-01T07:42:38.48Z</time></trkpt><trkpt lat="45.5113567" lon="10.4012767"><ele>152.0</ele><time>2026-05-01T07:42:39.48Z</time></trkpt><trkpt lat="45.5113783" lon="10.4014633"><ele>152.5</ele><time>2026-05-01T07:42:40.48Z</time></trkpt><trkpt lat="45.5114017" lon="10.4016517"><ele>153.0</ele><time>2026-05-01T07:42:41.48Z</time></trkpt><trkpt lat="45.51141" lon="10.40184"><ele>153.5</ele><time>2026-05-01T07:42:42.48Z</time></trkpt><trkpt lat="45.511415" lon="10.40202"><ele>154.0</ele><time>2026-05-01T07:42:43.48Z</time></trkpt><trkpt lat="45.5114167" lon="10.40218"><ele>154.2</ele><time>2026-05-01T07:42:44.481Z</time></trkpt><trkpt lat="45.51142" lon="10.4023317"><ele>154.4</ele><time>2026-05-01T07:42:45.48Z</time></trkpt><trkpt lat="45.51142" lon="10.4024867"><ele>154.6</ele><time>2026-05-01T07:42:46.48Z</time></trkpt><trkpt lat="45.51142" lon="10.402635"><ele>154.8</ele><time>2026-05-01T07:42:47.48Z</time></trkpt><trkpt lat="45.51142" lon="10.402775"><ele>155.0</ele><time>2026-05-01T07:42:48.48Z</time></trkpt><trkpt lat="45.5114217" lon="10.4028967"><ele>155.33333333333331</ele><time>2026-05-01T07:42:49.48Z</time></trkpt><trkpt lat="45.511425" lon="10.4030117"><ele>155.66666666666666</ele><time>2026-05-01T07:42:50.48Z</time></trkpt><trkpt lat="45.51143" lon="10.4031067"><ele>156.0</ele><time>2026-05-01T07:42:51.48Z</time></trkpt><trkpt lat="45.5114367" lon="10.40323"><ele>156.33333333333334</ele><time>2026-05-01T07:42:53.48Z</time></trkpt><trkpt lat="45.5114283" lon="10.403365"><ele>156.66666666666669</ele><time>2026-05-01T07:42:55.481Z</time></trkpt><trkpt lat="45.5114167" lon="10.403455"><ele>157.0</ele><time>2026-05-01T07:42:56.48Z</time></trkpt><trkpt lat="45.5113967" lon="10.4035667"><ele>157.0</ele><time>2026-05-01T07:42:57.48Z</time></trkpt><trkpt lat="45.5113767" lon="10.4036733"><ele>157.0</ele><time>2026-05-01T07:42:58.48Z</time></trkpt><trkpt lat="45.5113683" lon="10.4037733"><ele>157.0</ele><time>2026-05-01T07:42:59.48Z</time></trkpt><trkpt lat="45.5113917" lon="10.4038633"><ele>157.0</ele><time>2026-05-01T07:43:00.48Z</time></trkpt><trkpt lat="45.5115017" lon="10.4039267"><ele>157.0</ele><time>2026-05-01T07:43:02.48Z</time></trkpt><trkpt lat="45.5115617" lon="10.40389"><ele>157.0</ele><time>2026-05-01T07:43:03.48Z</time></trkpt><trkpt lat="45.51161" lon="10.403815"><ele>157.0</ele><time>2026-05-01T07:43:04.481Z</time></trkpt><trkpt lat="45.511615" lon="10.40372"><ele>157.0</ele><time>2026-05-01T07:43:05.48Z</time></trkpt><trkpt lat="45.5115867" lon="10.4036117"><ele>157.0</ele><time>2026-05-01T07:43:06.48Z</time></trkpt><trkpt lat="45.511535" lon="10.4034883"><ele>157.0</ele><time>2026-05-01T07:43:07.481Z</time></trkpt><trkpt lat="45.5115" lon="10.40339"><ele>157.0</ele><time>2026-05-01T07:43:08.48Z</time></trkpt><trkpt lat="45.5115" lon="10.4032917"><ele>157.0</ele><time>2026-05-01T07:43:10.48Z</time></trkpt><trkpt lat="45.5115667" lon="10.4033067"><ele>157.0</ele><time>2026-05-01T07:43:12.481Z</time></trkpt><trkpt lat="45.51171" lon="10.4033467"><ele>157.0</ele><time>2026-05-01T07:43:14.48Z</time></trkpt><trkpt lat="45.5117983" lon="10.403375"><ele>157.0</ele><time>2026-05-01T07:43:15.48Z</time></trkpt><trkpt lat="45.5118917" lon="10.4034017"><ele>157.0</ele><time>2026-05-01T07:43:16.48Z</time></trkpt><trkpt lat="45.5119917" lon="10.4034217"><ele>157.0</ele><time>2026-05-01T07:43:17.48Z</time></trkpt><trkpt lat="45.5121017" lon="10.403435"><ele>156.5</ele><time>2026-05-01T07:43:18.48Z</time></trkpt><trkpt lat="45.5122217" lon="10.4034533"><ele>156.0</ele><time>2026-05-01T07:43:19.48Z</time></trkpt><trkpt lat="45.5123317" lon="10.40347"><ele>155.5</ele><time>2026-05-01T07:43:20.48Z</time></trkpt><trkpt lat="45.5124467" lon="10.4034917"><ele>155.0</ele><time>2026-05-01T07:43:21.48Z</time></trkpt><trkpt lat="45.5125617" lon="10.4035117"><ele>155.0</ele><time>2026-05-01T07:43:22.48Z</time></trkpt><trkpt lat="45.5126733" lon="10.4035383"><ele>155.0</ele><time>2026-05-01T07:43:23.48Z</time></trkpt><trkpt lat="45.5127783" lon="10.4035583"><ele>155.0</ele><time>2026-05-01T07:43:24.48Z</time></trkpt><trkpt lat="45.512885" lon="10.403575"><ele>155.0</ele><time>2026-05-01T07:43:25.48Z</time></trkpt><trkpt lat="45.5129967" lon="10.4035967"><ele>155.0</ele><time>2026-05-01T07:43:26.48Z</time></trkpt><trkpt lat="45.5131117" lon="10.4036167"><ele>155.5</ele><time>2026-05-01T07:43:27.48Z</time></trkpt><trkpt lat="45.513225" lon="10.40364"><ele>156.0</ele><time>2026-05-01T07:43:28.48Z</time></trkpt><trkpt lat="45.51334" lon="10.4036683"><ele>156.5</ele><time>2026-05-01T07:43:29.48Z</time></trkpt><trkpt lat="45.5134517" lon="10.4037"><ele>157.0</ele><time>2026-05-01T07:43:30.48Z</time></trkpt><trkpt lat="45.513565" lon="10.4037333"><ele>157.0</ele><time>2026-05-01T07:43:31.48Z</time></trkpt><trkpt lat="45.513675" lon="10.4037783"><ele>157.0</ele><time>2026-05-01T07:43:32.48Z</time></trkpt><trkpt lat="45.513785" lon="10.4038233"><ele>157.0</ele><time>2026-05-01T07:43:33.48Z</time></trkpt><trkpt lat="45.5139017" lon="10.403865"><ele>157.0</ele><time>2026-05-01T07:43:34.48Z</time></trkpt><trkpt lat="45.5140133" lon="10.4038933"><ele>156.75</ele><time>2026-05-01T07:43:35.48Z</time></trkpt><trkpt lat="45.514135" lon="10.4039117"><ele>156.5</ele><time>2026-05-01T07:43:36.48Z</time></trkpt><trkpt lat="45.514245" lon="10.403925"><ele>156.25</ele><time>2026-05-01T07:43:37.48Z</time></trkpt><trkpt lat="45.514355" lon="10.40393"><ele>156.0</ele><time>2026-05-01T07:43:38.48Z</time></trkpt><trkpt lat="45.5144683" lon="10.40394"><ele>155.8</ele><time>2026-05-01T07:43:39.48Z</time></trkpt><trkpt lat="45.5145767" lon="10.4039633"><ele>155.6</ele><time>2026-05-01T07:43:40.481Z</time></trkpt><trkpt lat="45.514675" lon="10.4040017"><ele>155.4</ele><time>2026-05-01T07:43:41.48Z</time></trkpt><trkpt lat="45.5147583" lon="10.4040517"><ele>155.2</ele><time>2026-05-01T07:43:42.48Z</time></trkpt><trkpt lat="45.5148283" lon="10.4041217"><ele>155.0</ele><time>2026-05-01T07:43:43.48Z</time></trkpt><trkpt lat="45.5149033" lon="10.4042017"><ele>155.0</ele><time>2026-05-01T07:43:44.48Z</time></trkpt><trkpt lat="45.51499" lon="10.4042933"><ele>155.0</ele><time>2026-05-01T07:43:45.48Z</time></trkpt><trkpt lat="45.5150817" lon="10.404375"><ele>155.0</ele><time>2026-05-01T07:43:46.48Z</time></trkpt><trkpt lat="45.5151783" lon="10.4044583"><ele>155.0</ele><time>2026-05-01T07:43:47.481Z</time></trkpt><trkpt lat="45.51528" lon="10.4045483"><ele>155.0</ele><time>2026-05-01T07:43:48.48Z</time></trkpt><trkpt lat="45.515375" lon="10.4046433"><ele>154.75</ele><time>2026-05-01T07:43:49.48Z</time></trkpt><trkpt lat="45.5154717" lon="10.404735"><ele>154.5</ele><time>2026-05-01T07:43:50.48Z</time></trkpt><trkpt lat="45.51557" lon="10.40482"><ele>154.25</ele><time>2026-05-01T07:43:51.48Z</time></trkpt><trkpt lat="45.5156683" lon="10.4049067"><ele>154.0</ele><time>2026-05-01T07:43:52.48Z</time></trkpt><trkpt lat="45.515765" lon="10.404995"><ele>154.0</ele><time>2026-05-01T07:43:53.48Z</time></trkpt><trkpt lat="45.5158633" lon="10.4050817"><ele>154.0</ele><time>2026-05-01T07:43:54.48Z</time></trkpt><trkpt lat="45.5159633" lon="10.4051667"><ele>154.0</ele><time>2026-05-01T07:43:55.48Z</time></trkpt><trkpt lat="45.5160533" lon="10.4052533"><ele>154.0</ele><time>2026-05-01T07:43:56.48Z</time></trkpt><trkpt lat="45.5161283" lon="10.4053333"><ele>154.0</ele><time>2026-05-01T07:43:57.48Z</time></trkpt><trkpt lat="45.5162133" lon="10.405405"><ele>154.2</ele><time>2026-05-01T07:43:58.48Z</time></trkpt><trkpt lat="45.5163033" lon="10.4054667"><ele>154.4</ele><time>2026-05-01T07:43:59.48Z</time></trkpt><trkpt lat="45.5164017" lon="10.40551"><ele>154.6</ele><time>2026-05-01T07:44:00.48Z</time></trkpt><trkpt lat="45.51652" lon="10.4055433"><ele>154.8</ele><time>2026-05-01T07:44:01.48Z</time></trkpt><trkpt lat="45.5166333" lon="10.4055567"><ele>155.0</ele><time>2026-05-01T07:44:02.48Z</time></trkpt><trkpt lat="45.5167417" lon="10.40556"><ele>155.2</ele><time>2026-05-01T07:44:03.48Z</time></trkpt><trkpt lat="45.516845" lon="10.4055667"><ele>155.4</ele><time>2026-05-01T07:44:04.48Z</time></trkpt><trkpt lat="45.51693" lon="10.40558"><ele>155.6</ele><time>2026-05-01T07:44:05.48Z</time></trkpt><trkpt lat="45.5170333" lon="10.40561"><ele>155.8</ele><time>2026-05-01T07:44:06.48Z</time></trkpt><trkpt lat="45.5171233" lon="10.4056517"><ele>156.0</ele><time>2026-05-01T07:44:07.48Z</time></trkpt><trkpt lat="45.51721" lon="10.40571"><ele>156.0</ele><time>2026-05-01T07:44:08.48Z</time></trkpt><trkpt lat="45.5172867" lon="10.4057617"><ele>156.0</ele><time>2026-05-01T07:44:09.48Z</time></trkpt><trkpt lat="45.5173483" lon="10.4058117"><ele>156.0</ele><time>2026-05-01T07:44:10.48Z</time></trkpt><trkpt lat="45.5174283" lon="10.4059033"><ele>156.0</ele><time>2026-05-01T07:44:12.48Z</time></trkpt><trkpt lat="45.517435" lon="10.4059933"><ele>156.0</ele><time>2026-05-01T07:44:14.48Z</time></trkpt><trkpt lat="45.5173983" lon="10.406105"><ele>156.0</ele><time>2026-05-01T07:44:16.48Z</time></trkpt><trkpt lat="45.5173983" lon="10.4063117"><ele>156.0</ele><time>2026-05-01T07:44:18.48Z</time></trkpt><trkpt lat="45.5173933" lon="10.4064217"><ele>156.0</ele><time>2026-05-01T07:44:19.48Z</time></trkpt><trkpt lat="45.5173883" lon="10.4065233"><ele>156.0</ele><time>2026-05-01T07:44:21.48Z</time></trkpt><trkpt lat="45.51741" lon="10.4066633"><ele>156.0</ele><time>2026-05-01T07:44:27.48Z</time></trkpt><trkpt lat="45.5174267" lon="10.4067833"><ele>156.0</ele><time>2026-05-01T07:44:28.48Z</time></trkpt><trkpt lat="45.51744" lon="10.406935"><ele>156.0</ele><time>2026-05-01T07:44:29.48Z</time></trkpt><trkpt lat="45.5174333" lon="10.4070967"><ele>156.4</ele><time>2026-05-01T07:44:30.481Z</time></trkpt><trkpt lat="45.517395" lon="10.4072417"><ele>156.8</ele><time>2026-05-01T07:44:31.48Z</time></trkpt><trkpt lat="45.5173333" lon="10.4073767"><ele>157.20000000000002</ele><time>2026-05-01T07:44:32.48Z</time></trkpt><trkpt lat="45.517245" lon="10.4074833"><ele>157.6</ele><time>2026-05-01T07:44:33.481Z</time></trkpt><trkpt lat="45.5171583" lon="10.40755"><ele>158.0</ele><time>2026-05-01T07:44:34.48Z</time></trkpt><trkpt lat="45.517085" lon="10.4076"><ele>158.20000000000002</ele><time>2026-05-01T07:44:35.48Z</time></trkpt><trkpt lat="45.5170233" lon="10.4077483"><ele>158.4</ele><time>2026-05-01T07:44:37.48Z</time></trkpt><trkpt lat="45.5170283" lon="10.40785"><ele>158.60000000000002</ele><time>2026-05-01T07:44:38.48Z</time></trkpt><trkpt lat="45.5170633" lon="10.40797"><ele>158.8</ele><time>2026-05-01T07:44:39.48Z</time></trkpt><trkpt lat="45.517115" lon="10.40811"><ele>159.0</ele><time>2026-05-01T07:44:40.48Z</time></trkpt><trkpt lat="45.517185" lon="10.4083"><ele>159.0</ele><time>2026-05-01T07:44:41.48Z</time></trkpt><trkpt lat="45.5172383" lon="10.4084917"><ele>159.0</ele><time>2026-05-01T07:44:42.48Z</time></trkpt><trkpt lat="45.5172817" lon="10.40866"><ele>159.0</ele><time>2026-05-01T07:44:43.481Z</time></trkpt><trkpt lat="45.5173167" lon="10.4088017"><ele>159.0</ele><time>2026-05-01T07:44:44.48Z</time></trkpt><trkpt lat="45.517345" lon="10.4089133"><ele>160.8</ele><time>2026-05-01T07:44:45.48Z</time></trkpt><trkpt lat="45.5173567" lon="10.4090067"><ele>162.60000000000002</ele><time>2026-05-01T07:44:46.48Z</time></trkpt><trkpt lat="45.517305" lon="10.40915"><ele>164.4</ele><time>2026-05-01T07:44:48.48Z</time></trkpt><trkpt lat="45.517235" lon="10.4091833"><ele>166.20000000000002</ele><time>2026-05-01T07:44:49.48Z</time></trkpt><trkpt lat="45.51714" lon="10.4091967"><ele>168.0</ele><time>2026-05-01T07:44:50.48Z</time></trkpt><trkpt lat="45.5170317" lon="10.4092017"><ele>170.0</ele><time>2026-05-01T07:44:51.48Z</time></trkpt><trkpt lat="45.5169067" lon="10.4092017"><ele>172.0</ele><time>2026-05-01T07:44:52.48Z</time></trkpt><trkpt lat="45.5167817" lon="10.4092233"><ele>174.0</ele><time>2026-05-01T07:44:53.48Z</time></trkpt><trkpt lat="45.5166517" lon="10.409265"><ele>176.0</ele><time>2026-05-01T07:44:54.48Z</time></trkpt><trkpt lat="45.5165283" lon="10.4093133"><ele>176.0</ele><time>2026-05-01T07:44:55.48Z</time></trkpt><trkpt lat="45.516425" lon="10.4093533"><ele>176.0</ele><time>2026-05-01T07:44:56.48Z</time></trkpt><trkpt lat="45.5163367" lon="10.4094017"><ele>176.0</ele><time>2026-05-01T07:44:57.481Z</time></trkpt><trkpt lat="45.5162633" lon="10.4094583"><ele>176.0</ele><time>2026-05-01T07:44:58.48Z</time></trkpt><trkpt lat="45.516195" lon="10.409515"><ele>176.0</ele><time>2026-05-01T07:44:59.48Z</time></trkpt><trkpt lat="45.5161467" lon="10.40959"><ele>176.0</ele><time>2026-05-01T07:45:00.48Z</time></trkpt><trkpt lat="45.5161083" lon="10.4096833"><ele>178.0</ele><time>2026-05-01T07:45:01.48Z</time></trkpt><trkpt lat="45.51608" lon="10.4097983"><ele>180.0</ele><time>2026-05-01T07:45:02.48Z</time></trkpt><trkpt lat="45.51606" lon="10.4099283"><ele>182.0</ele><time>2026-05-01T07:45:03.48Z</time></trkpt><trkpt lat="45.5160483" lon="10.4100583"><ele>184.0</ele><time>2026-05-01T07:45:04.48Z</time></trkpt><trkpt lat="45.5160333" lon="10.4101967"><ele>186.0</ele><time>2026-05-01T07:45:05.48Z</time></trkpt><trkpt lat="45.516015" lon="10.410325"><ele>186.0</ele><time>2026-05-01T07:45:06.48Z</time></trkpt><trkpt lat="45.516005" lon="10.4104533"><ele>186.0</ele><time>2026-05-01T07:45:07.481Z</time></trkpt><trkpt lat="45.5159983" lon="10.4105733"><ele>186.0</ele><time>2026-05-01T07:45:08.48Z</time></trkpt><trkpt lat="45.515985" lon="10.4106683"><ele>186.0</ele><time>2026-05-01T07:45:09.48Z</time></trkpt><trkpt lat="45.51599" lon="10.41079"><ele>186.0</ele><time>2026-05-01T07:45:11.48Z</time></trkpt><trkpt lat="45.5160517" lon="10.4109233"><ele>186.0</ele><time>2026-05-01T07:45:13.48Z</time></trkpt><trkpt lat="45.5161133" lon="10.4109817"><ele>186.75</ele><time>2026-05-01T07:45:14.48Z</time></trkpt><trkpt lat="45.5162217" lon="10.4110233"><ele>187.5</ele><time>2026-05-01T07:45:15.48Z</time></trkpt><trkpt lat="45.5163383" lon="10.41105"><ele>188.25</ele><time>2026-05-01T07:45:16.48Z</time></trkpt><trkpt lat="45.5164783" lon="10.4110567"><ele>189.0</ele><time>2026-05-01T07:45:17.48Z</time></trkpt><trkpt lat="45.5166367" lon="10.411055"><ele>189.0</ele><time>2026-05-01T07:45:18.48Z</time></trkpt><trkpt lat="45.51679" lon="10.4110483"><ele>189.0</ele><time>2026-05-01T07:45:19.48Z</time></trkpt><trkpt lat="45.516935" lon="10.4110483"><ele>189.0</ele><time>2026-05-01T07:45:20.48Z</time></trkpt><trkpt lat="45.5170683" lon="10.4110467"><ele>189.0</ele><time>2026-05-01T07:45:21.48Z</time></trkpt><trkpt lat="45.5171833" lon="10.4110567"><ele>189.0</ele><time>2026-05-01T07:45:22.48Z</time></trkpt><trkpt lat="45.517285" lon="10.41106"><ele>189.0</ele><time>2026-05-01T07:45:23.48Z</time></trkpt><trkpt lat="45.5173683" lon="10.4110733"><ele>189.0</ele><time>2026-05-01T07:45:24.48Z</time></trkpt><trkpt lat="45.5174433" lon="10.4110983"><ele>189.0</ele><time>2026-05-01T07:45:25.48Z</time></trkpt><trkpt lat="45.517515" lon="10.411145"><ele>189.0</ele><time>2026-05-01T07:45:26.481Z</time></trkpt><trkpt lat="45.51758" lon="10.411195"><ele>189.0</ele><time>2026-05-01T07:45:27.48Z</time></trkpt><trkpt lat="45.51764" lon="10.411275"><ele>189.2</ele><time>2026-05-01T07:45:28.48Z</time></trkpt><trkpt lat="45.5177233" lon="10.4113717"><ele>189.39999999999998</ele><time>2026-05-01T07:45:29.48Z</time></trkpt><trkpt lat="45.517805" lon="10.4114767"><ele>189.6</ele><time>2026-05-01T07:45:30.48Z</time></trkpt><trkpt lat="45.517885" lon="10.411555"><ele>189.8</ele><time>2026-05-01T07:45:31.481Z</time></trkpt><trkpt lat="45.5179683" lon="10.41162"><ele>190.0</ele><time>2026-05-01T07:45:32.48Z</time></trkpt><trkpt lat="45.518025" lon="10.4116983"><ele>190.14285714285714</ele><time>2026-05-01T07:45:33.48Z</time></trkpt><trkpt lat="45.5180783" lon="10.4117833"><ele>190.28571428571428</ele><time>2026-05-01T07:45:34.48Z</time></trkpt><trkpt lat="45.5181183" lon="10.4118683"><ele>190.42857142857144</ele><time>2026-05-01T07:45:35.48Z</time></trkpt><trkpt lat="45.518155" lon="10.411945"><ele>190.57142857142856</ele><time>2026-05-01T07:45:36.48Z</time></trkpt><trkpt lat="45.518195" lon="10.41203"><ele>190.7142857142857</ele><time>2026-05-01T07:45:37.48Z</time></trkpt><trkpt lat="45.51822" lon="10.412125"><ele>190.85714285714286</ele><time>2026-05-01T07:45:38.48Z</time></trkpt><trkpt lat="45.5182483" lon="10.4122217"><ele>191.0</ele><time>2026-05-01T07:45:39.48Z</time></trkpt><trkpt lat="45.5182633" lon="10.4123183"><ele>191.0</ele><time>2026-05-01T07:45:40.48Z</time></trkpt><trkpt lat="45.5182933" lon="10.4124167"><ele>191.0</ele><time>2026-05-01T07:45:41.48Z</time></trkpt><trkpt lat="45.51831" lon="10.4125183"><ele>191.0</ele><time>2026-05-01T07:45:42.48Z</time></trkpt><trkpt lat="45.51835" lon="10.412665"><ele>191.0</ele><time>2026-05-01T07:45:44.48Z</time></trkpt><trkpt lat="45.5184333" lon="10.4127217"><ele>191.0</ele><time>2026-05-01T07:45:46.48Z</time></trkpt><trkpt lat="45.5185133" lon="10.41269"><ele>191.0</ele><time>2026-05-01T07:45:47.48Z</time></trkpt><trkpt lat="45.5186033" lon="10.41264"><ele>191.0</ele><time>2026-05-01T07:45:48.48Z</time></trkpt><trkpt lat="45.51871" lon="10.4125817"><ele>191.0</ele><time>2026-05-01T07:45:49.48Z</time></trkpt><trkpt lat="45.5188167" lon="10.4125233"><ele>191.0</ele><time>2026-05-01T07:45:50.48Z</time></trkpt><trkpt lat="45.51892" lon="10.41246"><ele>191.0</ele><time>2026-05-01T07:45:51.48Z</time></trkpt><trkpt lat="45.5190183" lon="10.4123933"><ele>190.66666666666666</ele><time>2026-05-01T07:45:52.48Z</time></trkpt><trkpt lat="45.5191" lon="10.4123167"><ele>190.33333333333331</ele><time>2026-05-01T07:45:53.48Z</time></trkpt><trkpt lat="45.519165" lon="10.4122367"><ele>190.0</ele><time>2026-05-01T07:45:54.48Z</time></trkpt><trkpt lat="45.5192183" lon="10.412155"><ele>189.66666666666666</ele><time>2026-05-01T07:45:55.48Z</time></trkpt><trkpt lat="45.519265" lon="10.4120683"><ele>189.33333333333334</ele><time>2026-05-01T07:45:56.48Z</time></trkpt><trkpt lat="45.51931" lon="10.41199"><ele>189.0</ele><time>2026-05-01T07:45:57.48Z</time></trkpt><trkpt lat="45.519355" lon="10.41191"><ele>188.6</ele><time>2026-05-01T07:45:58.48Z</time></trkpt><trkpt lat="45.5193983" lon="10.41183"><ele>188.2</ele><time>2026-05-01T07:45:59.48Z</time></trkpt><trkpt lat="45.5194733" lon="10.41169"><ele>187.79999999999998</ele><time>2026-05-01T07:46:01.48Z</time></trkpt><trkpt lat="45.5195467" lon="10.4115933"><ele>187.39999999999998</ele><time>2026-05-01T07:46:03.48Z</time></trkpt><trkpt lat="45.5196267" lon="10.4115917"><ele>187.0</ele><time>2026-05-01T07:46:05.48Z</time></trkpt><trkpt lat="45.5196983" lon="10.4117417"><ele>187.83333333333334</ele><time>2026-05-01T07:46:07.48Z</time></trkpt><trkpt lat="45.5197267" lon="10.4118633"><ele>188.66666666666669</ele><time>2026-05-01T07:46:08.48Z</time></trkpt><trkpt lat="45.5197417" lon="10.4119917"><ele>189.5</ele><time>2026-05-01T07:46:09.48Z</time></trkpt><trkpt lat="45.519745" lon="10.4121083"><ele>190.33333333333334</ele><time>2026-05-01T07:46:10.48Z</time></trkpt><trkpt lat="45.5197467" lon="10.4122"><ele>191.16666666666666</ele><time>2026-05-01T07:46:11.48Z</time></trkpt><trkpt lat="45.51979" lon="10.4123517"><ele>192.0</ele><time>2026-05-01T07:46:13.48Z</time></trkpt><trkpt lat="45.5199017" lon="10.4123783"><ele>192.0</ele><time>2026-05-01T07:46:15.48Z</time></trkpt><trkpt lat="45.5199767" lon="10.4123767"><ele>192.0</ele><time>2026-05-01T07:46:16.48Z</time></trkpt><trkpt lat="45.520055" lon="10.41239"><ele>192.0</ele><time>2026-05-01T07:46:17.48Z</time></trkpt><trkpt lat="45.5201267" lon="10.4124367"><ele>192.0</ele><time>2026-05-01T07:46:18.48Z</time></trkpt><trkpt lat="45.5201833" lon="10.4125217"><ele>192.0</ele><time>2026-05-01T07:46:19.48Z</time></trkpt><trkpt lat="45.52024" lon="10.4126317"><ele>192.0</ele><time>2026-05-01T07:46:20.48Z</time></trkpt><trkpt lat="45.52028" lon="10.412775"><ele>192.0</ele><time>2026-05-01T07:46:21.48Z</time></trkpt><trkpt lat="45.5203183" lon="10.41292"><ele>192.0</ele><time>2026-05-01T07:46:22.48Z</time></trkpt><trkpt lat="45.5203783" lon="10.4130567"><ele>192.0</ele><time>2026-05-01T07:46:23.48Z</time></trkpt><trkpt lat="45.5204567" lon="10.413215"><ele>192.0</ele><time>2026-05-01T07:46:24.48Z</time></trkpt><trkpt lat="45.5205483" lon="10.4133817"><ele>191.5</ele><time>2026-05-01T07:46:25.48Z</time></trkpt><trkpt lat="45.520655" lon="10.4135517"><ele>191.0</ele><time>2026-05-01T07:46:26.48Z</time></trkpt><trkpt lat="45.5207567" lon="10.4137183"><ele>190.5</ele><time>2026-05-01T07:46:27.48Z</time></trkpt><trkpt lat="45.52084" lon="10.41386"><ele>190.0</ele><time>2026-05-01T07:46:28.48Z</time></trkpt><trkpt lat="45.52091" lon="10.4139733"><ele>191.2</ele><time>2026-05-01T07:46:29.48Z</time></trkpt><trkpt lat="45.5209567" lon="10.4140533"><ele>192.4</ele><time>2026-05-01T07:46:30.48Z</time></trkpt><trkpt lat="45.52097" lon="10.4141917"><ele>193.60000000000002</ele><time>2026-05-01T07:46:32.48Z</time></trkpt><trkpt lat="45.520935" lon="10.414295"><ele>194.8</ele><time>2026-05-01T07:46:33.48Z</time></trkpt><trkpt lat="45.520875" lon="10.414415"><ele>196.0</ele><time>2026-05-01T07:46:34.48Z</time></trkpt><trkpt lat="45.5207833" lon="10.41455"><ele>196.33333333333331</ele><time>2026-05-01T07:46:35.48Z</time></trkpt><trkpt lat="45.5206617" lon="10.4147317"><ele>196.66666666666669</ele><time>2026-05-01T07:46:36.48Z</time></trkpt><trkpt lat="45.520515" lon="10.4149333"><ele>197.0</ele><time>2026-05-01T07:46:37.48Z</time></trkpt><trkpt lat="45.5203783" lon="10.4151217"><ele>197.0</ele><time>2026-05-01T07:46:38.48Z</time></trkpt><trkpt lat="45.5202617" lon="10.4152833"><ele>197.0</ele><time>2026-05-01T07:46:39.48Z</time></trkpt><trkpt lat="45.5201633" lon="10.4154417"><ele>197.0</ele><time>2026-05-01T07:46:40.48Z</time></trkpt><trkpt lat="45.5200633" lon="10.4155967"><ele>196.75</ele><time>2026-05-01T07:46:41.48Z</time></trkpt><trkpt lat="45.5199667" lon="10.4157533"><ele>196.5</ele><time>2026-05-01T07:46:42.48Z</time></trkpt><trkpt lat="45.5198783" lon="10.415905"><ele>196.25</ele><time>2026-05-01T07:46:43.48Z</time></trkpt><trkpt lat="45.5198" lon="10.41604"><ele>196.0</ele><time>2026-05-01T07:46:44.48Z</time></trkpt><trkpt lat="45.5197267" lon="10.416155"><ele>196.0</ele><time>2026-05-01T07:46:45.48Z</time></trkpt><trkpt lat="45.5196733" lon="10.4162417"><ele>196.0</ele><time>2026-05-01T07:46:46.48Z</time></trkpt><trkpt lat="45.51963" lon="10.4163717"><ele>196.0</ele><time>2026-05-01T07:46:48.48Z</time></trkpt><trkpt lat="45.519675" lon="10.416525"><ele>196.0</ele><time>2026-05-01T07:46:50.481Z</time></trkpt><trkpt lat="45.519725" lon="10.4166033"><ele>196.0</ele><time>2026-05-01T07:46:51.48Z</time></trkpt><trkpt lat="45.5197933" lon="10.41672"><ele>196.0</ele><time>2026-05-01T07:46:53.48Z</time></trkpt><trkpt lat="45.5197733" lon="10.416825"><ele>196.0</ele><time>2026-05-01T07:47:00.48Z</time></trkpt><trkpt lat="45.5197333" lon="10.4169017"><ele>196.0</ele><time>2026-05-01T07:47:01.48Z</time></trkpt><trkpt lat="45.519665" lon="10.41701"><ele>196.0</ele><time>2026-05-01T07:47:02.481Z</time></trkpt><trkpt lat="45.5195767" lon="10.4171417"><ele>196.0</ele><time>2026-05-01T07:47:03.48Z</time></trkpt><trkpt lat="45.5194867" lon="10.4172733"><ele>196.0</ele><time>2026-05-01T07:47:04.48Z</time></trkpt><trkpt lat="45.5194117" lon="10.41738"><ele>196.0</ele><time>2026-05-01T07:47:05.48Z</time></trkpt><trkpt lat="45.5193517" lon="10.4174717"><ele>196.0</ele><time>2026-05-01T07:47:06.481Z</time></trkpt><trkpt lat="45.51929" lon="10.4175583"><ele>196.0</ele><time>2026-05-01T07:47:08.48Z</time></trkpt><trkpt lat="45.519315" lon="10.4176533"><ele>196.0</ele><time>2026-05-01T07:47:11.48Z</time></trkpt><trkpt lat="45.5194083" lon="10.4177583"><ele>196.0</ele><time>2026-05-01T07:47:13.48Z</time></trkpt><trkpt lat="45.5194817" lon="10.41781"><ele>196.0</ele><time>2026-05-01T07:47:14.48Z</time></trkpt><trkpt lat="45.5195667" lon="10.4178617"><ele>196.0</ele><time>2026-05-01T07:47:15.48Z</time></trkpt><trkpt lat="45.5196633" lon="10.4179367"><ele>196.0</ele><time>2026-05-01T07:47:16.48Z</time></trkpt><trkpt lat="45.5197483" lon="10.41803"><ele>196.0</ele><time>2026-05-01T07:47:17.48Z</time></trkpt><trkpt lat="45.5198417" lon="10.418135"><ele>196.8</ele><time>2026-05-01T07:47:18.48Z</time></trkpt><trkpt lat="45.5199317" lon="10.418255"><ele>197.60000000000002</ele><time>2026-05-01T07:47:19.481Z</time></trkpt><trkpt lat="45.52001" lon="10.41837"><ele>198.4</ele><time>2026-05-01T07:47:20.481Z</time></trkpt><trkpt lat="45.52008" lon="10.4184833"><ele>199.2</ele><time>2026-05-01T07:47:21.48Z</time></trkpt><trkpt lat="45.5201433" lon="10.418595"><ele>200.0</ele><time>2026-05-01T07:47:22.48Z</time></trkpt><trkpt lat="45.5202017" lon="10.4187167"><ele>200.2</ele><time>2026-05-01T07:47:23.48Z</time></trkpt><trkpt lat="45.5202433" lon="10.4188583"><ele>200.4</ele><time>2026-05-01T07:47:24.481Z</time></trkpt><trkpt lat="45.52028" lon="10.419015"><ele>200.60000000000002</ele><time>2026-05-01T07:47:25.481Z</time></trkpt><trkpt lat="45.5203083" lon="10.41917"><ele>200.8</ele><time>2026-05-01T07:47:26.48Z</time></trkpt><trkpt lat="45.520345" lon="10.41931"><ele>201.0</ele><time>2026-05-01T07:47:27.48Z</time></trkpt><trkpt lat="45.5203833" lon="10.4194467"><ele>200.83333333333334</ele><time>2026-05-01T07:47:28.48Z</time></trkpt><trkpt lat="45.5204283" lon="10.4195717"><ele>200.66666666666669</ele><time>2026-05-01T07:47:29.48Z</time></trkpt><trkpt lat="45.520465" lon="10.4196817"><ele>200.5</ele><time>2026-05-01T07:47:30.48Z</time></trkpt><trkpt lat="45.5205233" lon="10.419785"><ele>200.33333333333334</ele><time>2026-05-01T07:47:31.48Z</time></trkpt><trkpt lat="45.5205667" lon="10.4198767"><ele>200.16666666666669</ele><time>2026-05-01T07:47:32.48Z</time></trkpt><trkpt lat="45.5206233" lon="10.4199717"><ele>200.0</ele><time>2026-05-01T07:47:33.48Z</time></trkpt><trkpt lat="45.5206833" lon="10.42007"><ele>199.83333333333334</ele><time>2026-05-01T07:47:34.481Z</time></trkpt><trkpt lat="45.5207517" lon="10.4201517"><ele>199.66666666666669</ele><time>2026-05-01T07:47:35.48Z</time></trkpt><trkpt lat="45.5208017" lon="10.4202417"><ele>199.5</ele><time>2026-05-01T07:47:36.48Z</time></trkpt><trkpt lat="45.520805" lon="10.4203983"><ele>199.33333333333331</ele><time>2026-05-01T07:47:38.48Z</time></trkpt><trkpt lat="45.5207667" lon="10.420475"><ele>199.16666666666666</ele><time>2026-05-01T07:47:39.48Z</time></trkpt><trkpt lat="45.5207183" lon="10.4205533"><ele>199.0</ele><time>2026-05-01T07:47:40.48Z</time></trkpt><trkpt lat="45.52067" lon="10.4206117"><ele>198.25</ele><time>2026-05-01T07:47:41.48Z</time></trkpt><trkpt lat="45.5206467" lon="10.42074"><ele>197.5</ele><time>2026-05-01T07:47:42.48Z</time></trkpt><trkpt lat="45.52064" lon="10.4208817"><ele>196.75</ele><time>2026-05-01T07:47:43.48Z</time></trkpt><trkpt lat="45.5206633" lon="10.4210567"><ele>196.0</ele><time>2026-05-01T07:47:44.48Z</time></trkpt><trkpt lat="45.5207033" lon="10.421255"><ele>195.0</ele><time>2026-05-01T07:47:45.48Z</time></trkpt><trkpt lat="45.520755" lon="10.4214583"><ele>194.0</ele><time>2026-05-01T07:47:46.481Z</time></trkpt><trkpt lat="45.5208233" lon="10.4216517"><ele>193.0</ele><time>2026-05-01T07:47:47.48Z</time></trkpt><trkpt lat="45.520905" lon="10.4218183"><ele>192.0</ele><time>2026-05-01T07:47:48.48Z</time></trkpt><trkpt lat="45.520975" lon="10.4219633"><ele>192.0</ele><time>2026-05-01T07:47:49.48Z</time></trkpt><trkpt lat="45.521025" lon="10.4221033"><ele>192.0</ele><time>2026-05-01T07:47:50.48Z</time></trkpt><trkpt lat="45.5210283" lon="10.4222517"><ele>192.0</ele><time>2026-05-01T07:47:51.48Z</time></trkpt><trkpt lat="45.521005" lon="10.4224067"><ele>192.0</ele><time>2026-05-01T07:47:52.481Z</time></trkpt><trkpt lat="45.5209833" lon="10.4225667"><ele>192.0</ele><time>2026-05-01T07:47:53.48Z</time></trkpt><trkpt lat="45.5209867" lon="10.422745"><ele>191.75</ele><time>2026-05-01T07:47:54.48Z</time></trkpt><trkpt lat="45.521005" lon="10.422945"><ele>191.5</ele><time>2026-05-01T07:47:55.48Z</time></trkpt><trkpt lat="45.52103" lon="10.4231483"><ele>191.25</ele><time>2026-05-01T07:47:56.48Z</time></trkpt><trkpt lat="45.5210533" lon="10.423365"><ele>191.0</ele><time>2026-05-01T07:47:57.48Z</time></trkpt><trkpt lat="45.5210617" lon="10.423595"><ele>190.66666666666666</ele><time>2026-05-01T07:47:58.48Z</time></trkpt><trkpt lat="45.5210617" lon="10.42384"><ele>190.33333333333334</ele><time>2026-05-01T07:47:59.48Z</time></trkpt><trkpt lat="45.52104" lon="10.4240967"><ele>190.0</ele><time>2026-05-01T07:48:00.48Z</time></trkpt><trkpt lat="45.521" lon="10.4243567"><ele>190.0</ele><time>2026-05-01T07:48:01.481Z</time></trkpt><trkpt lat="45.5209717" lon="10.4246217"><ele>190.0</ele><time>2026-05-01T07:48:02.48Z</time></trkpt><trkpt lat="45.520945" lon="10.4248817"><ele>190.0</ele><time>2026-05-01T07:48:03.48Z</time></trkpt><trkpt lat="45.5209283" lon="10.4251317"><ele>190.0</ele><time>2026-05-01T07:48:04.48Z</time></trkpt><trkpt lat="45.520895" lon="10.4253617"><ele>190.0</ele><time>2026-05-01T07:48:05.48Z</time></trkpt><trkpt lat="45.520865" lon="10.42558"><ele>190.0</ele><time>2026-05-01T07:48:06.48Z</time></trkpt><trkpt lat="45.5208333" lon="10.425795"><ele>190.25</ele><time>2026-05-01T07:48:07.48Z</time></trkpt><trkpt lat="45.5208167" lon="10.4259983"><ele>190.5</ele><time>2026-05-01T07:48:08.48Z</time></trkpt><trkpt lat="45.5208117" lon="10.4262067"><ele>190.75</ele><time>2026-05-01T07:48:09.481Z</time></trkpt><trkpt lat="45.5208033" lon="10.4264233"><ele>191.0</ele><time>2026-05-01T07:48:10.48Z</time></trkpt><trkpt lat="45.5208083" lon="10.4266383"><ele>190.0</ele><time>2026-05-01T07:48:11.481Z</time></trkpt><trkpt lat="45.520815" lon="10.426855"><ele>189.0</ele><time>2026-05-01T07:48:12.48Z</time></trkpt><trkpt lat="45.52082" lon="10.4270717"><ele>188.0</ele><time>2026-05-01T07:48:13.48Z</time></trkpt><trkpt lat="45.5208267" lon="10.4272917"><ele>187.66666666666666</ele><time>2026-05-01T07:48:14.481Z</time></trkpt><trkpt lat="45.5208267" lon="10.4275067"><ele>187.33333333333334</ele><time>2026-05-01T07:48:15.48Z</time></trkpt><trkpt lat="45.52083" lon="10.4277167"><ele>187.0</ele><time>2026-05-01T07:48:16.48Z</time></trkpt><trkpt lat="45.520845" lon="10.42794"><ele>187.0</ele><time>2026-05-01T07:48:17.48Z</time></trkpt><trkpt lat="45.520875" lon="10.4281433"><ele>187.0</ele><time>2026-05-01T07:48:18.48Z</time></trkpt><trkpt lat="45.52091" lon="10.42835"><ele>187.0</ele><time>2026-05-01T07:48:19.48Z</time></trkpt><trkpt lat="45.5209533" lon="10.4285533"><ele>187.0</ele><time>2026-05-01T07:48:20.481Z</time></trkpt><trkpt lat="45.5209983" lon="10.4287567"><ele>186.5</ele><time>2026-05-01T07:48:21.48Z</time></trkpt><trkpt lat="45.521045" lon="10.428955"><ele>186.0</ele><time>2026-05-01T07:48:22.48Z</time></trkpt><trkpt lat="45.521085" lon="10.4291633"><ele>185.5</ele><time>2026-05-01T07:48:23.48Z</time></trkpt><trkpt lat="45.52111" lon="10.429375"><ele>185.0</ele><time>2026-05-01T07:48:24.48Z</time></trkpt><trkpt lat="45.5211367" lon="10.4295867"><ele>185.33333333333331</ele><time>2026-05-01T07:48:25.48Z</time></trkpt><trkpt lat="45.52116" lon="10.4298"><ele>185.66666666666666</ele><time>2026-05-01T07:48:26.48Z</time></trkpt><trkpt lat="45.52118" lon="10.4300133"><ele>186.0</ele><time>2026-05-01T07:48:27.481Z</time></trkpt><trkpt lat="45.5211983" lon="10.4302233"><ele>186.0</ele><time>2026-05-01T07:48:28.48Z</time></trkpt><trkpt lat="45.521215" lon="10.43044"><ele>186.0</ele><time>2026-05-01T07:48:29.48Z</time></trkpt><trkpt lat="45.521235" lon="10.4306483"><ele>186.0</ele><time>2026-05-01T07:48:30.481Z</time></trkpt><trkpt lat="45.5212567" lon="10.4308517"><ele>186.0</ele><time>2026-05-01T07:48:31.48Z</time></trkpt><trkpt lat="45.5212783" lon="10.4310533"><ele>187.25</ele><time>2026-05-01T07:48:32.481Z</time></trkpt><trkpt lat="45.521285" lon="10.4312583"><ele>188.5</ele><time>2026-05-01T07:48:33.48Z</time></trkpt><trkpt lat="45.5212967" lon="10.4314633"><ele>189.75</ele><time>2026-05-01T07:48:34.48Z</time></trkpt><trkpt lat="45.521315" lon="10.4316433"><ele>191.0</ele><time>2026-05-01T07:48:35.48Z</time></trkpt><trkpt lat="45.52134" lon="10.4318083"><ele>191.0</ele><time>2026-05-01T07:48:36.48Z</time></trkpt><trkpt lat="45.5213683" lon="10.43196"><ele>191.0</ele><time>2026-05-01T07:48:37.48Z</time></trkpt><trkpt lat="45.5214067" lon="10.4321017"><ele>191.0</ele><time>2026-05-01T07:48:38.48Z</time></trkpt><trkpt lat="45.5214383" lon="10.4322267"><ele>191.0</ele><time>2026-05-01T07:48:39.48Z</time></trkpt><trkpt lat="45.5214633" lon="10.4323317"><ele>191.0</ele><time>2026-05-01T07:48:40.481Z</time></trkpt><trkpt lat="45.5214983" lon="10.4324233"><ele>191.33333333333331</ele><time>2026-05-01T07:48:41.481Z</time></trkpt><trkpt lat="45.5215517" lon="10.43249"><ele>191.66666666666666</ele><time>2026-05-01T07:48:42.48Z</time></trkpt><trkpt lat="45.52161" lon="10.4325383"><ele>192.0</ele><time>2026-05-01T07:48:43.48Z</time></trkpt><trkpt lat="45.5216867" lon="10.432565"><ele>192.33333333333331</ele><time>2026-05-01T07:48:44.481Z</time></trkpt><trkpt lat="45.5217867" lon="10.4325667"><ele>192.66666666666666</ele><time>2026-05-01T07:48:45.48Z</time></trkpt><trkpt lat="45.5218767" lon="10.43257"><ele>193.0</ele><time>2026-05-01T07:48:46.48Z</time></trkpt><trkpt lat="45.5219483" lon="10.43258"><ele>193.0</ele><time>2026-05-01T07:48:47.48Z</time></trkpt><trkpt lat="45.52203" lon="10.4326833"><ele>193.0</ele><time>2026-05-01T07:48:49.48Z</time></trkpt><trkpt lat="45.522065" lon="10.43278"><ele>193.0</ele><time>2026-05-01T07:48:50.481Z</time></trkpt><trkpt lat="45.5220917" lon="10.4329217"><ele>193.0</ele><time>2026-05-01T07:48:51.48Z</time></trkpt><trkpt lat="45.5221317" lon="10.4331117"><ele>193.0</ele><time>2026-05-01T07:48:52.48Z</time></trkpt><trkpt lat="45.5221733" lon="10.4333117"><ele>193.60000000000002</ele><time>2026-05-01T07:48:53.48Z</time></trkpt><trkpt lat="45.522215" lon="10.4334617"><ele>194.20000000000002</ele><time>2026-05-01T07:48:54.48Z</time></trkpt><trkpt lat="45.522245" lon="10.4335733"><ele>194.8</ele><time>2026-05-01T07:48:55.48Z</time></trkpt><trkpt lat="45.5222533" lon="10.4336733"><ele>195.4</ele><time>2026-05-01T07:48:56.48Z</time></trkpt><trkpt lat="45.5221983" lon="10.4338267"><ele>196.0</ele><time>2026-05-01T07:48:58.48Z</time></trkpt><trkpt lat="45.5221267" lon="10.4338967"><ele>196.0</ele><time>2026-05-01T07:48:59.48Z</time></trkpt><trkpt lat="45.5220117" lon="10.4339583"><ele>196.0</ele><time>2026-05-01T07:49:00.48Z</time></trkpt><trkpt lat="45.5218567" lon="10.4340433"><ele>196.0</ele><time>2026-05-01T07:49:01.48Z</time></trkpt><trkpt lat="45.521705" lon="10.43414"><ele>196.0</ele><time>2026-05-01T07:49:02.48Z</time></trkpt><trkpt lat="45.5215783" lon="10.43427"><ele>196.0</ele><time>2026-05-01T07:49:03.48Z</time></trkpt><trkpt lat="45.5214583" lon="10.4344017"><ele>196.0</ele><time>2026-05-01T07:49:04.48Z</time></trkpt><trkpt lat="45.521355" lon="10.4345283"><ele>196.0</ele><time>2026-05-01T07:49:05.48Z</time></trkpt><trkpt lat="45.5212633" lon="10.434645"><ele>195.75</ele><time>2026-05-01T07:49:06.48Z</time></trkpt><trkpt lat="45.521175" lon="10.4347717"><ele>195.5</ele><time>2026-05-01T07:49:07.48Z</time></trkpt><trkpt lat="45.5210917" lon="10.4349017"><ele>195.25</ele><time>2026-05-01T07:49:08.48Z</time></trkpt><trkpt lat="45.5210183" lon="10.4350083"><ele>195.0</ele><time>2026-05-01T07:49:09.481Z</time></trkpt><trkpt lat="45.5209317" lon="10.4351"><ele>195.0</ele><time>2026-05-01T07:49:10.48Z</time></trkpt><trkpt lat="45.52084" lon="10.435175"><ele>195.0</ele><time>2026-05-01T07:49:11.48Z</time></trkpt><trkpt lat="45.5207383" lon="10.4352533"><ele>195.0</ele><time>2026-05-01T07:49:12.48Z</time></trkpt><trkpt lat="45.5206417" lon="10.4353083"><ele>195.0</ele><time>2026-05-01T07:49:13.48Z</time></trkpt><trkpt lat="45.5205583" lon="10.43537"><ele>195.0</ele><time>2026-05-01T07:49:14.48Z</time></trkpt><trkpt lat="45.52049" lon="10.435445"><ele>194.6</ele><time>2026-05-01T07:49:15.481Z</time></trkpt><trkpt lat="45.5204333" lon="10.43553"><ele>194.2</ele><time>2026-05-01T07:49:16.48Z</time></trkpt><trkpt lat="45.520385" lon="10.43563"><ele>193.8</ele><time>2026-05-01T07:49:17.48Z</time></trkpt><trkpt lat="45.520335" lon="10.435765"><ele>193.4</ele><time>2026-05-01T07:49:18.48Z</time></trkpt><trkpt lat="45.520285" lon="10.4359317"><ele>193.0</ele><time>2026-05-01T07:49:19.48Z</time></trkpt><trkpt lat="45.5202433" lon="10.4361017"><ele>192.60000000000002</ele><time>2026-05-01T07:49:20.481Z</time></trkpt><trkpt lat="45.5202033" lon="10.436265"><ele>192.20000000000002</ele><time>2026-05-01T07:49:21.48Z</time></trkpt><trkpt lat="45.5201683" lon="10.4364217"><ele>191.8</ele><time>2026-05-01T07:49:22.48Z</time></trkpt><trkpt lat="45.520135" lon="10.436555"><ele>191.4</ele><time>2026-05-01T07:49:23.48Z</time></trkpt><trkpt lat="45.5201117" lon="10.43665"><ele>191.0</ele><time>2026-05-01T07:49:24.48Z</time></trkpt><trkpt lat="45.52005" lon="10.436755"><ele>191.0</ele><time>2026-05-01T07:49:26.48Z</time></trkpt><trkpt lat="45.5199267" lon="10.436715"><ele>191.0</ele><time>2026-05-01T07:49:28.48Z</time></trkpt><trkpt lat="45.51984" lon="10.4366817"><ele>191.0</ele><time>2026-05-01T07:49:29.48Z</time></trkpt><trkpt lat="45.51976" lon="10.43669"><ele>191.0</ele><time>2026-05-01T07:49:30.48Z</time></trkpt><trkpt lat="45.5196867" lon="10.4367283"><ele>191.0</ele><time>2026-05-01T07:49:31.48Z</time></trkpt><trkpt lat="45.519605" lon="10.4367933"><ele>190.5</ele><time>2026-05-01T07:49:32.48Z</time></trkpt><trkpt lat="45.5195133" lon="10.4368817"><ele>190.0</ele><time>2026-05-01T07:49:33.48Z</time></trkpt><trkpt lat="45.5194033" lon="10.4369667"><ele>189.5</ele><time>2026-05-01T07:49:34.48Z</time></trkpt><trkpt lat="45.5192867" lon="10.4370583"><ele>189.0</ele><time>2026-05-01T07:49:35.48Z</time></trkpt><trkpt lat="45.51917" lon="10.43716"><ele>189.0</ele><time>2026-05-01T07:49:36.48Z</time></trkpt><trkpt lat="45.5190517" lon="10.437255"><ele>189.0</ele><time>2026-05-01T07:49:37.48Z</time></trkpt><trkpt lat="45.518945" lon="10.4373433"><ele>189.0</ele><time>2026-05-01T07:49:38.48Z</time></trkpt><trkpt lat="45.518845" lon="10.4374267"><ele>189.0</ele><time>2026-05-01T07:49:39.48Z</time></trkpt><trkpt lat="45.5187483" lon="10.4375033"><ele>189.5</ele><time>2026-05-01T07:49:40.481Z</time></trkpt><trkpt lat="45.5186483" lon="10.4375817"><ele>190.0</ele><time>2026-05-01T07:49:41.48Z</time></trkpt><trkpt lat="45.518545" lon="10.4376533"><ele>190.5</ele><time>2026-05-01T07:49:42.48Z</time></trkpt><trkpt lat="45.5184417" lon="10.43774"><ele>191.0</ele><time>2026-05-01T07:49:43.48Z</time></trkpt><trkpt lat="45.5183467" lon="10.4378233"><ele>191.0</ele><time>2026-05-01T07:49:44.48Z</time></trkpt><trkpt lat="45.5182567" lon="10.4379167"><ele>191.0</ele><time>2026-05-01T07:49:45.481Z</time></trkpt><trkpt lat="45.5181683" lon="10.43801"><ele>191.0</ele><time>2026-05-01T07:49:46.48Z</time></trkpt><trkpt lat="45.5180683" lon="10.4380967"><ele>191.0</ele><time>2026-05-01T07:49:47.48Z</time></trkpt><trkpt lat="45.517995" lon="10.43818"><ele>191.0</ele><time>2026-05-01T07:49:48.48Z</time></trkpt><trkpt lat="45.5179317" lon="10.43825"><ele>191.0</ele><time>2026-05-01T07:49:49.48Z</time></trkpt><trkpt lat="45.51789" lon="10.43832"><ele>191.0</ele><time>2026-05-01T07:49:50.48Z</time></trkpt><trkpt lat="45.5178383" lon="10.4384333"><ele>191.0</ele><time>2026-05-01T07:49:52.48Z</time></trkpt><trkpt lat="45.517845" lon="10.43865"><ele>191.0</ele><time>2026-05-01T07:49:54.48Z</time></trkpt><trkpt lat="45.51788" lon="10.4388067"><ele>191.0</ele><time>2026-05-01T07:49:55.48Z</time></trkpt><trkpt lat="45.5179333" lon="10.4390017"><ele>190.33333333333331</ele><time>2026-05-01T07:49:56.48Z</time></trkpt><trkpt lat="45.5179933" lon="10.4391933"><ele>189.66666666666666</ele><time>2026-05-01T07:49:57.48Z</time></trkpt><trkpt lat="45.5180717" lon="10.43938"><ele>189.0</ele><time>2026-05-01T07:49:58.48Z</time></trkpt><trkpt lat="45.518165" lon="10.4395667"><ele>188.0</ele><time>2026-05-01T07:49:59.48Z</time></trkpt><trkpt lat="45.5182183" lon="10.4397433"><ele>187.0</ele><time>2026-05-01T07:50:00.48Z</time></trkpt><trkpt lat="45.5182683" lon="10.4399117"><ele>186.0</ele><time>2026-05-01T07:50:01.48Z</time></trkpt><trkpt lat="45.5182967" lon="10.4400767"><ele>185.0</ele><time>2026-05-01T07:50:02.48Z</time></trkpt><trkpt lat="45.5183067" lon="10.4402583"><ele>185.0</ele><time>2026-05-01T07:50:03.48Z</time></trkpt><trkpt lat="45.5183017" lon="10.44044"><ele>185.0</ele><time>2026-05-01T07:50:04.481Z</time></trkpt><trkpt lat="45.518295" lon="10.440635"><ele>185.0</ele><time>2026-05-01T07:50:05.48Z</time></trkpt><trkpt lat="45.518295" lon="10.4408333"><ele>185.0</ele><time>2026-05-01T07:50:06.48Z</time></trkpt><trkpt lat="45.5183233" lon="10.4410467"><ele>185.0</ele><time>2026-05-01T07:50:07.48Z</time></trkpt><trkpt lat="45.5183667" lon="10.4412483"><ele>185.0</ele><time>2026-05-01T07:50:08.48Z</time></trkpt><trkpt lat="45.5184033" lon="10.4414517"><ele>185.0</ele><time>2026-05-01T07:50:09.48Z</time></trkpt><trkpt lat="45.5184317" lon="10.44166"><ele>185.0</ele><time>2026-05-01T07:50:10.48Z</time></trkpt><trkpt lat="45.5184417" lon="10.44188"><ele>185.0</ele><time>2026-05-01T07:50:11.48Z</time></trkpt><trkpt lat="45.5184367" lon="10.4421083"><ele>185.0</ele><time>2026-05-01T07:50:12.48Z</time></trkpt><trkpt lat="45.5184217" lon="10.4423433"><ele>185.0</ele><time>2026-05-01T07:50:13.48Z</time></trkpt><trkpt lat="45.5184017" lon="10.4425733"><ele>185.75</ele><time>2026-05-01T07:50:14.48Z</time></trkpt><trkpt lat="45.5183717" lon="10.4427867"><ele>186.5</ele><time>2026-05-01T07:50:15.48Z</time></trkpt><trkpt lat="45.5183383" lon="10.4429817"><ele>187.25</ele><time>2026-05-01T07:50:16.48Z</time></trkpt><trkpt lat="45.518305" lon="10.4431483"><ele>188.0</ele><time>2026-05-01T07:50:17.48Z</time></trkpt><trkpt lat="45.5182867" lon="10.4432617"><ele>187.8</ele><time>2026-05-01T07:50:18.48Z</time></trkpt><trkpt lat="45.5182217" lon="10.4433633"><ele>187.60000000000002</ele><time>2026-05-01T07:50:20.48Z</time></trkpt><trkpt lat="45.5181583" lon="10.4433667"><ele>187.39999999999998</ele><time>2026-05-01T07:50:21.48Z</time></trkpt><trkpt lat="45.5180683" lon="10.443345"><ele>187.2</ele><time>2026-05-01T07:50:22.48Z</time></trkpt><trkpt lat="45.51795" lon="10.443305"><ele>187.0</ele><time>2026-05-01T07:50:23.481Z</time></trkpt><trkpt lat="45.51781" lon="10.443255"><ele>187.0</ele><time>2026-05-01T07:50:24.48Z</time></trkpt><trkpt lat="45.517665" lon="10.4432033"><ele>187.0</ele><time>2026-05-01T07:50:25.48Z</time></trkpt><trkpt lat="45.5175083" lon="10.443145"><ele>187.0</ele><time>2026-05-01T07:50:26.48Z</time></trkpt><trkpt lat="45.5173517" lon="10.4430817"><ele>187.0</ele><time>2026-05-01T07:50:27.48Z</time></trkpt><trkpt lat="45.5171833" lon="10.4429967"><ele>187.0</ele><time>2026-05-01T07:50:28.48Z</time></trkpt><trkpt lat="45.51701" lon="10.4429267"><ele>187.0</ele><time>2026-05-01T07:50:29.48Z</time></trkpt><trkpt lat="45.5168567" lon="10.4428417"><ele>186.25</ele><time>2026-05-01T07:50:30.48Z</time></trkpt><trkpt lat="45.5167" lon="10.4427733"><ele>185.5</ele><time>2026-05-01T07:50:31.48Z</time></trkpt><trkpt lat="45.516565" lon="10.4427033"><ele>184.75</ele><time>2026-05-01T07:50:32.48Z</time></trkpt><trkpt lat="45.5164517" lon="10.4426467"><ele>184.0</ele><time>2026-05-01T07:50:33.48Z</time></trkpt><trkpt lat="45.5163517" lon="10.4426333"><ele>184.0</ele><time>2026-05-01T07:50:34.48Z</time></trkpt><trkpt lat="45.516265" lon="10.4426583"><ele>184.0</ele><time>2026-05-01T07:50:35.48Z</time></trkpt><trkpt lat="45.5161883" lon="10.4427333"><ele>184.0</ele><time>2026-05-01T07:50:36.48Z</time></trkpt><trkpt lat="45.5161233" lon="10.4428533"><ele>184.0</ele><time>2026-05-01T07:50:37.479Z</time></trkpt><trkpt lat="45.5160867" lon="10.4430133"><ele>184.0</ele><time>2026-05-01T07:50:38.48Z</time></trkpt><trkpt lat="45.5160517" lon="10.4431917"><ele>183.5</ele><time>2026-05-01T07:50:39.48Z</time></trkpt><trkpt lat="45.5160033" lon="10.4433617"><ele>183.0</ele><time>2026-05-01T07:50:40.48Z</time></trkpt><trkpt lat="45.51594" lon="10.4435133"><ele>182.5</ele><time>2026-05-01T07:50:41.48Z</time></trkpt><trkpt lat="45.51588" lon="10.443645"><ele>182.0</ele><time>2026-05-01T07:50:42.48Z</time></trkpt><trkpt lat="45.51583" lon="10.4437883"><ele>182.0</ele><time>2026-05-01T07:50:43.48Z</time></trkpt><trkpt lat="45.5157817" lon="10.4439333"><ele>182.0</ele><time>2026-05-01T07:50:44.48Z</time></trkpt><trkpt lat="45.51573" lon="10.44409"><ele>182.0</ele><time>2026-05-01T07:50:45.48Z</time></trkpt><trkpt lat="45.5156883" lon="10.4442667"><ele>182.0</ele><time>2026-05-01T07:50:46.48Z</time></trkpt><trkpt lat="45.5156533" lon="10.4444433"><ele>182.0</ele><time>2026-05-01T07:50:47.48Z</time></trkpt><trkpt lat="45.515625" lon="10.4446233"><ele>182.0</ele><time>2026-05-01T07:50:48.48Z</time></trkpt><trkpt lat="45.5155817" lon="10.4448267"><ele>182.0</ele><time>2026-05-01T07:50:49.48Z</time></trkpt><trkpt lat="45.5155417" lon="10.4450117"><ele>182.0</ele><time>2026-05-01T07:50:50.48Z</time></trkpt><trkpt lat="45.51551" lon="10.4451917"><ele>182.0</ele><time>2026-05-01T07:50:51.48Z</time></trkpt><trkpt lat="45.5154717" lon="10.4453583"><ele>182.0</ele><time>2026-05-01T07:50:52.48Z</time></trkpt><trkpt lat="45.5154383" lon="10.4455083"><ele>182.0</ele><time>2026-05-01T07:50:53.48Z</time></trkpt><trkpt lat="45.5154067" lon="10.4456467"><ele>182.0</ele><time>2026-05-01T07:50:54.48Z</time></trkpt><trkpt lat="45.51537" lon="10.4458017"><ele>182.0</ele><time>2026-05-01T07:50:55.48Z</time></trkpt><trkpt lat="45.5153183" lon="10.4459617"><ele>182.0</ele><time>2026-05-01T07:50:56.48Z</time></trkpt><trkpt lat="45.5152517" lon="10.4461333"><ele>182.0</ele><time>2026-05-01T07:50:57.48Z</time></trkpt><trkpt lat="45.5151917" lon="10.4463017"><ele>182.0</ele><time>2026-05-01T07:50:58.48Z</time></trkpt><trkpt lat="45.515125" lon="10.4464833"><ele>182.0</ele><time>2026-05-01T07:50:59.48Z</time></trkpt><trkpt lat="45.5150583" lon="10.44667"><ele>182.0</ele><time>2026-05-01T07:51:00.48Z</time></trkpt><trkpt lat="45.515005" lon="10.44685"><ele>182.0</ele><time>2026-05-01T07:51:01.48Z</time></trkpt><trkpt lat="45.5149517" lon="10.4470317"><ele>182.0</ele><time>2026-05-01T07:51:02.48Z</time></trkpt><trkpt lat="45.5149017" lon="10.4472117"><ele>182.0</ele><time>2026-05-01T07:51:03.48Z</time></trkpt><trkpt lat="45.5148533" lon="10.4473867"><ele>182.0</ele><time>2026-05-01T07:51:04.48Z</time></trkpt><trkpt lat="45.5148017" lon="10.447565"><ele>182.0</ele><time>2026-05-01T07:51:05.48Z</time></trkpt><trkpt lat="45.51476" lon="10.447735"><ele>182.0</ele><time>2026-05-01T07:51:06.48Z</time></trkpt><trkpt lat="45.5147183" lon="10.44789"><ele>182.2</ele><time>2026-05-01T07:51:07.48Z</time></trkpt><trkpt lat="45.51468" lon="10.44804"><ele>182.39999999999998</ele><time>2026-05-01T07:51:08.48Z</time></trkpt><trkpt lat="45.51464" lon="10.4481883"><ele>182.60000000000002</ele><time>2026-05-01T07:51:09.48Z</time></trkpt><trkpt lat="45.5146083" lon="10.448325"><ele>182.8</ele><time>2026-05-01T07:51:10.48Z</time></trkpt><trkpt lat="45.5145767" lon="10.44846"><ele>183.0</ele><time>2026-05-01T07:51:11.48Z</time></trkpt><trkpt lat="45.5145467" lon="10.4485817"><ele>183.0</ele><time>2026-05-01T07:51:12.48Z</time></trkpt><trkpt lat="45.5145167" lon="10.4486983"><ele>183.0</ele><time>2026-05-01T07:51:13.48Z</time></trkpt><trkpt lat="45.5144933" lon="10.4488083"><ele>183.0</ele><time>2026-05-01T07:51:14.48Z</time></trkpt><trkpt lat="45.5144717" lon="10.448915"><ele>183.0</ele><time>2026-05-01T07:51:15.48Z</time></trkpt><trkpt lat="45.5144533" lon="10.449015"><ele>183.0</ele><time>2026-05-01T07:51:16.48Z</time></trkpt><trkpt lat="45.5144317" lon="10.4491183"><ele>183.0</ele><time>2026-05-01T07:51:17.48Z</time></trkpt><trkpt lat="45.51441" lon="10.4492167"><ele>183.0</ele><time>2026-05-01T07:51:18.48Z</time></trkpt><trkpt lat="45.51439" lon="10.4493067"><ele>183.0</ele><time>2026-05-01T07:51:19.48Z</time></trkpt><trkpt lat="45.51436" lon="10.4494467"><ele>183.0</ele><time>2026-05-01T07:51:21.48Z</time></trkpt><trkpt lat="45.5143233" lon="10.449535"><ele>183.0</ele><time>2026-05-01T07:51:24.48Z</time></trkpt><trkpt lat="45.51429" lon="10.4496933"><ele>183.0</ele><time>2026-05-01T07:51:43.48Z</time></trkpt><trkpt lat="45.5142667" lon="10.4497883"><ele>183.0</ele><time>2026-05-01T07:51:44.48Z</time></trkpt><trkpt lat="45.5142433" lon="10.4498933"><ele>183.33333333333334</ele><time>2026-05-01T07:51:45.48Z</time></trkpt><trkpt lat="45.5142133" lon="10.4500133"><ele>183.66666666666666</ele><time>2026-05-01T07:51:46.481Z</time></trkpt><trkpt lat="45.5141917" lon="10.4501367"><ele>184.0</ele><time>2026-05-01T07:51:47.48Z</time></trkpt><trkpt lat="45.5141667" lon="10.4502517"><ele>184.33333333333331</ele><time>2026-05-01T07:51:48.48Z</time></trkpt><trkpt lat="45.5141433" lon="10.4503683"><ele>184.66666666666666</ele><time>2026-05-01T07:51:49.48Z</time></trkpt><trkpt lat="45.5141183" lon="10.4504833"><ele>185.0</ele><time>2026-05-01T07:51:50.48Z</time></trkpt><trkpt lat="45.5140917" lon="10.4506033"><ele>185.0</ele><time>2026-05-01T07:51:51.48Z</time></trkpt><trkpt lat="45.5140683" lon="10.450715"><ele>185.0</ele><time>2026-05-01T07:51:52.48Z</time></trkpt><trkpt lat="45.5140533" lon="10.4508367"><ele>185.0</ele><time>2026-05-01T07:51:53.48Z</time></trkpt><trkpt lat="45.5140367" lon="10.4509583"><ele>185.0</ele><time>2026-05-01T07:51:54.48Z</time></trkpt><trkpt lat="45.51402" lon="10.4510733"><ele>185.0</ele><time>2026-05-01T07:51:55.48Z</time></trkpt><trkpt lat="45.514" lon="10.4511833"><ele>185.0</ele><time>2026-05-01T07:51:56.48Z</time></trkpt><trkpt lat="45.5139833" lon="10.4513017"><ele>185.2</ele><time>2026-05-01T07:51:57.48Z</time></trkpt><trkpt lat="45.5139633" lon="10.4514233"><ele>185.4</ele><time>2026-05-01T07:51:58.48Z</time></trkpt><trkpt lat="45.51394" lon="10.4515517"><ele>185.60000000000002</ele><time>2026-05-01T07:51:59.48Z</time></trkpt><trkpt lat="45.513915" lon="10.4516883"><ele>185.8</ele><time>2026-05-01T07:52:00.48Z</time></trkpt><trkpt lat="45.5138967" lon="10.4518317"><ele>186.0</ele><time>2026-05-01T07:52:01.48Z</time></trkpt><trkpt lat="45.5138717" lon="10.45198"><ele>186.0</ele><time>2026-05-01T07:52:02.481Z</time></trkpt><trkpt lat="45.5138433" lon="10.452125"><ele>186.0</ele><time>2026-05-01T07:52:03.48Z</time></trkpt><trkpt lat="45.5138133" lon="10.4522683"><ele>186.0</ele><time>2026-05-01T07:52:04.48Z</time></trkpt><trkpt lat="45.5137867" lon="10.4524233"><ele>186.0</ele><time>2026-05-01T07:52:05.48Z</time></trkpt><trkpt lat="45.513755" lon="10.4525917"><ele>186.0</ele><time>2026-05-01T07:52:06.48Z</time></trkpt><trkpt lat="45.513725" lon="10.4527717"><ele>185.5</ele><time>2026-05-01T07:52:07.48Z</time></trkpt><trkpt lat="45.513695" lon="10.4529483"><ele>185.0</ele><time>2026-05-01T07:52:08.48Z</time></trkpt><trkpt lat="45.513665" lon="10.453125"><ele>184.5</ele><time>2026-05-01T07:52:09.48Z</time></trkpt><trkpt lat="45.51363" lon="10.4533067"><ele>184.0</ele><time>2026-05-01T07:52:10.48Z</time></trkpt><trkpt lat="45.5135983" lon="10.4534933"><ele>184.0</ele><time>2026-05-01T07:52:11.48Z</time></trkpt><trkpt lat="45.51357" lon="10.453685"><ele>184.0</ele><time>2026-05-01T07:52:12.48Z</time></trkpt><trkpt lat="45.5135417" lon="10.4538783"><ele>184.0</ele><time>2026-05-01T07:52:13.48Z</time></trkpt><trkpt lat="45.5135133" lon="10.4540583"><ele>184.0</ele><time>2026-05-01T07:52:14.48Z</time></trkpt><trkpt lat="45.5134883" lon="10.4542317"><ele>184.0</ele><time>2026-05-01T07:52:15.48Z</time></trkpt><trkpt lat="45.5134733" lon="10.45439"><ele>184.0</ele><time>2026-05-01T07:52:16.48Z</time></trkpt><trkpt lat="45.5134517" lon="10.45454"><ele>184.0</ele><time>2026-05-01T07:52:17.48Z</time></trkpt><trkpt lat="45.5134267" lon="10.4546683"><ele>184.0</ele><time>2026-05-01T07:52:18.481Z</time></trkpt><trkpt lat="45.513405" lon="10.4547883"><ele>184.0</ele><time>2026-05-01T07:52:19.48Z</time></trkpt><trkpt lat="45.5133833" lon="10.4548883"><ele>184.16666666666669</ele><time>2026-05-01T07:52:20.48Z</time></trkpt><trkpt lat="45.5133567" lon="10.45498"><ele>184.33333333333334</ele><time>2026-05-01T07:52:21.48Z</time></trkpt><trkpt lat="45.5133117" lon="10.4550683"><ele>184.5</ele><time>2026-05-01T07:52:22.48Z</time></trkpt><trkpt lat="45.5132483" lon="10.4551267"><ele>184.66666666666666</ele><time>2026-05-01T07:52:23.48Z</time></trkpt><trkpt lat="45.513165" lon="10.45517"><ele>184.83333333333331</ele><time>2026-05-01T07:52:24.48Z</time></trkpt><trkpt lat="45.513055" lon="10.4551983"><ele>185.0</ele><time>2026-05-01T07:52:25.48Z</time></trkpt><trkpt lat="45.512915" lon="10.4551767"><ele>184.75</ele><time>2026-05-01T07:52:26.48Z</time></trkpt><trkpt lat="45.5127683" lon="10.4551583"><ele>184.5</ele><time>2026-05-01T07:52:27.48Z</time></trkpt><trkpt lat="45.5126367" lon="10.4551717"><ele>184.25</ele><time>2026-05-01T07:52:28.48Z</time></trkpt><trkpt lat="45.512525" lon="10.4552083"><ele>184.0</ele><time>2026-05-01T07:52:29.48Z</time></trkpt><trkpt lat="45.512425" lon="10.45527"><ele>184.0</ele><time>2026-05-01T07:52:30.48Z</time></trkpt><trkpt lat="45.5123217" lon="10.455345"><ele>184.0</ele><time>2026-05-01T07:52:31.48Z</time></trkpt><trkpt lat="45.51222" lon="10.45542"><ele>184.0</ele><time>2026-05-01T07:52:32.481Z</time></trkpt><trkpt lat="45.5121167" lon="10.4555117"><ele>184.0</ele><time>2026-05-01T07:52:33.48Z</time></trkpt><trkpt lat="45.5120133" lon="10.4556183"><ele>184.25</ele><time>2026-05-01T07:52:34.48Z</time></trkpt><trkpt lat="45.5119067" lon="10.4557417"><ele>184.5</ele><time>2026-05-01T07:52:35.48Z</time></trkpt><trkpt lat="45.5118017" lon="10.4558633"><ele>184.75</ele><time>2026-05-01T07:52:36.48Z</time></trkpt><trkpt lat="45.5117" lon="10.45599"><ele>185.0</ele><time>2026-05-01T07:52:37.48Z</time></trkpt><trkpt lat="45.5116033" lon="10.456125"><ele>185.0</ele><time>2026-05-01T07:52:38.48Z</time></trkpt><trkpt lat="45.5115217" lon="10.456245"><ele>185.0</ele><time>2026-05-01T07:52:39.48Z</time></trkpt><trkpt lat="45.5114417" lon="10.4563483"><ele>185.0</ele><time>2026-05-01T07:52:40.48Z</time></trkpt><trkpt lat="45.5113633" lon="10.4564567"><ele>185.0</ele><time>2026-05-01T07:52:41.48Z</time></trkpt><trkpt lat="45.51128" lon="10.456565"><ele>185.0</ele><time>2026-05-01T07:52:42.48Z</time></trkpt><trkpt lat="45.5111933" lon="10.456665"><ele>185.0</ele><time>2026-05-01T07:52:43.48Z</time></trkpt><trkpt lat="45.5111117" lon="10.45677"><ele>185.0</ele><time>2026-05-01T07:52:44.48Z</time></trkpt><trkpt lat="45.5110317" lon="10.4568633"><ele>185.0</ele><time>2026-05-01T07:52:45.48Z</time></trkpt><trkpt lat="45.51095" lon="10.4569567"><ele>185.0</ele><time>2026-05-01T07:52:46.48Z</time></trkpt><trkpt lat="45.5108683" lon="10.457045"><ele>185.0</ele><time>2026-05-01T07:52:47.48Z</time></trkpt><trkpt lat="45.5107917" lon="10.4571417"><ele>185.0</ele><time>2026-05-01T07:52:48.48Z</time></trkpt><trkpt lat="45.51071" lon="10.4572533"><ele>185.0</ele><time>2026-05-01T07:52:49.48Z</time></trkpt><trkpt lat="45.5106183" lon="10.4573633"><ele>185.0</ele><time>2026-05-01T07:52:50.481Z</time></trkpt><trkpt lat="45.5105233" lon="10.45749"><ele>185.0</ele><time>2026-05-01T07:52:51.48Z</time></trkpt><trkpt lat="45.510425" lon="10.4576267"><ele>184.75</ele><time>2026-05-01T07:52:52.48Z</time></trkpt><trkpt lat="45.5103233" lon="10.45777"><ele>184.5</ele><time>2026-05-01T07:52:53.48Z</time></trkpt><trkpt lat="45.5102283" lon="10.4579133"><ele>184.25</ele><time>2026-05-01T07:52:54.48Z</time></trkpt><trkpt lat="45.5101317" lon="10.4580783"><ele>184.0</ele><time>2026-05-01T07:52:55.48Z</time></trkpt><trkpt lat="45.5100417" lon="10.4582317"><ele>184.0</ele><time>2026-05-01T07:52:56.48Z</time></trkpt><trkpt lat="45.5099567" lon="10.458375"><ele>184.0</ele><time>2026-05-01T07:52:57.481Z</time></trkpt><trkpt lat="45.509865" lon="10.4585383"><ele>184.0</ele><time>2026-05-01T07:52:58.48Z</time></trkpt><trkpt lat="45.5097717" lon="10.458695"><ele>184.0</ele><time>2026-05-01T07:52:59.48Z</time></trkpt><trkpt lat="45.5096667" lon="10.45886"><ele>183.33333333333334</ele><time>2026-05-01T07:53:00.481Z</time></trkpt><trkpt lat="45.5095733" lon="10.459045"><ele>182.66666666666666</ele><time>2026-05-01T07:53:01.48Z</time></trkpt><trkpt lat="45.50947" lon="10.459225"><ele>182.0</ele><time>2026-05-01T07:53:02.48Z</time></trkpt><trkpt lat="45.509365" lon="10.4594217"><ele>182.66666666666666</ele><time>2026-05-01T07:53:03.48Z</time></trkpt><trkpt lat="45.5092683" lon="10.4596283"><ele>183.33333333333334</ele><time>2026-05-01T07:53:04.48Z</time></trkpt><trkpt lat="45.509165" lon="10.4598333"><ele>184.0</ele><time>2026-05-01T07:53:05.48Z</time></trkpt><trkpt lat="45.5090583" lon="10.4600367"><ele>184.0</ele><time>2026-05-01T07:53:06.48Z</time></trkpt><trkpt lat="45.5089583" lon="10.4602417"><ele>184.0</ele><time>2026-05-01T07:53:07.48Z</time></trkpt><trkpt lat="45.50885" lon="10.4604467"><ele>184.0</ele><time>2026-05-01T07:53:08.48Z</time></trkpt><trkpt lat="45.5087417" lon="10.46064"><ele>184.0</ele><time>2026-05-01T07:53:09.48Z</time></trkpt><trkpt lat="45.5086267" lon="10.4608183"><ele>184.0</ele><time>2026-05-01T07:53:10.48Z</time></trkpt><trkpt lat="45.5085167" lon="10.4609917"><ele>184.0</ele><time>2026-05-01T07:53:11.48Z</time></trkpt><trkpt lat="45.508415" lon="10.461145"><ele>184.0</ele><time>2026-05-01T07:53:12.481Z</time></trkpt><trkpt lat="45.5083267" lon="10.4612817"><ele>184.0</ele><time>2026-05-01T07:53:13.48Z</time></trkpt><trkpt lat="45.5082517" lon="10.461415"><ele>184.0</ele><time>2026-05-01T07:53:14.48Z</time></trkpt><trkpt lat="45.508205" lon="10.4615733"><ele>184.0</ele><time>2026-05-01T07:53:15.48Z</time></trkpt><trkpt lat="45.5081867" lon="10.4617633"><ele>184.66666666666669</ele><time>2026-05-01T07:53:16.48Z</time></trkpt><trkpt lat="45.50819" lon="10.461975"><ele>185.33333333333334</ele><time>2026-05-01T07:53:17.48Z</time></trkpt><trkpt lat="45.50821" lon="10.4622033"><ele>186.0</ele><time>2026-05-01T07:53:18.48Z</time></trkpt><trkpt lat="45.5082367" lon="10.4624417"><ele>186.66666666666666</ele><time>2026-05-01T07:53:19.48Z</time></trkpt><trkpt lat="45.5082683" lon="10.4626917"><ele>187.33333333333331</ele><time>2026-05-01T07:53:20.48Z</time></trkpt><trkpt lat="45.5082883" lon="10.4629383"><ele>188.0</ele><time>2026-05-01T07:53:21.48Z</time></trkpt><trkpt lat="45.508305" lon="10.4631617"><ele>188.0</ele><time>2026-05-01T07:53:22.48Z</time></trkpt><trkpt lat="45.508325" lon="10.4633433"><ele>188.0</ele><time>2026-05-01T07:53:23.481Z</time></trkpt><trkpt lat="45.508335" lon="10.463475"><ele>188.0</ele><time>2026-05-01T07:53:24.48Z</time></trkpt><trkpt lat="45.5083333" lon="10.4635783"><ele>188.0</ele><time>2026-05-01T07:53:25.481Z</time></trkpt><trkpt lat="45.508265" lon="10.4637267"><ele>188.0</ele><time>2026-05-01T07:53:27.48Z</time></trkpt><trkpt lat="45.508185" lon="10.46377"><ele>188.0</ele><time>2026-05-01T07:53:28.48Z</time></trkpt><trkpt lat="45.5080683" lon="10.46378"><ele>188.0</ele><time>2026-05-01T07:53:29.48Z</time></trkpt><trkpt lat="45.5079333" lon="10.46377"><ele>188.0</ele><time>2026-05-01T07:53:30.48Z</time></trkpt><trkpt lat="45.5077683" lon="10.4637617"><ele>188.0</ele><time>2026-05-01T07:53:31.48Z</time></trkpt><trkpt lat="45.5076" lon="10.463775"><ele>187.0</ele><time>2026-05-01T07:53:32.48Z</time></trkpt><trkpt lat="45.5074383" lon="10.4637883"><ele>186.0</ele><time>2026-05-01T07:53:33.48Z</time></trkpt><trkpt lat="45.50729" lon="10.4638"><ele>185.0</ele><time>2026-05-01T07:53:34.48Z</time></trkpt><trkpt lat="45.5071517" lon="10.4638083"><ele>184.0</ele><time>2026-05-01T07:53:35.48Z</time></trkpt><trkpt lat="45.5070317" lon="10.4637967"><ele>183.66666666666669</ele><time>2026-05-01T07:53:36.481Z</time></trkpt><trkpt lat="45.5069367" lon="10.4637417"><ele>183.33333333333334</ele><time>2026-05-01T07:53:37.48Z</time></trkpt><trkpt lat="45.5068617" lon="10.4636817"><ele>183.0</ele><time>2026-05-01T07:53:38.48Z</time></trkpt><trkpt lat="45.5067917" lon="10.4636417"><ele>182.66666666666666</ele><time>2026-05-01T07:53:39.48Z</time></trkpt><trkpt lat="45.506715" lon="10.463635"><ele>182.33333333333331</ele><time>2026-05-01T07:53:40.48Z</time></trkpt><trkpt lat="45.5066533" lon="10.4636767"><ele>182.0</ele><time>2026-05-01T07:53:41.48Z</time></trkpt><trkpt lat="45.5066083" lon="10.4637583"><ele>182.0</ele><time>2026-05-01T07:53:42.48Z</time></trkpt><trkpt lat="45.5066" lon="10.4638667"><ele>182.0</ele><time>2026-05-01T07:53:43.48Z</time></trkpt><trkpt lat="45.5066283" lon="10.4640017"><ele>182.0</ele><time>2026-05-01T07:53:44.48Z</time></trkpt><trkpt lat="45.5066983" lon="10.4641583"><ele>182.0</ele><time>2026-05-01T07:53:45.48Z</time></trkpt><trkpt lat="45.5067467" lon="10.4643217"><ele>182.0</ele><time>2026-05-01T07:53:46.48Z</time></trkpt><trkpt lat="45.5067533" lon="10.4645083"><ele>182.33333333333331</ele><time>2026-05-01T07:53:47.48Z</time></trkpt><trkpt lat="45.50674" lon="10.4647217"><ele>182.66666666666666</ele><time>2026-05-01T07:53:48.48Z</time></trkpt><trkpt lat="45.5067217" lon="10.4649367"><ele>183.0</ele><time>2026-05-01T07:53:49.48Z</time></trkpt><trkpt lat="45.5067033" lon="10.465155"><ele>183.0</ele><time>2026-05-01T07:53:50.48Z</time></trkpt><trkpt lat="45.506685" lon="10.4653867"><ele>183.0</ele><time>2026-05-01T07:53:51.48Z</time></trkpt><trkpt lat="45.5066717" lon="10.4656183"><ele>183.0</ele><time>2026-05-01T07:53:52.48Z</time></trkpt><trkpt lat="45.5066617" lon="10.4658683"><ele>183.0</ele><time>2026-05-01T07:53:53.48Z</time></trkpt><trkpt lat="45.5066717" lon="10.466125"><ele>183.0</ele><time>2026-05-01T07:53:54.48Z</time></trkpt><trkpt lat="45.5066967" lon="10.4663867"><ele>183.0</ele><time>2026-05-01T07:53:55.48Z</time></trkpt><trkpt lat="45.506735" lon="10.46665"><ele>183.0</ele><time>2026-05-01T07:53:56.48Z</time></trkpt><trkpt lat="45.506775" lon="10.4669167"><ele>183.0</ele><time>2026-05-01T07:53:57.48Z</time></trkpt><trkpt lat="45.5068183" lon="10.4671933"><ele>183.0</ele><time>2026-05-01T07:53:58.48Z</time></trkpt><trkpt lat="45.50686" lon="10.467465"><ele>183.0</ele><time>2026-05-01T07:53:59.48Z</time></trkpt><trkpt lat="45.5069067" lon="10.4677217"><ele>183.0</ele><time>2026-05-01T07:54:00.48Z</time></trkpt><trkpt lat="45.5069483" lon="10.4679567"><ele>183.0</ele><time>2026-05-01T07:54:01.48Z</time></trkpt><trkpt lat="45.5069817" lon="10.46818"><ele>184.0</ele><time>2026-05-01T07:54:02.48Z</time></trkpt><trkpt lat="45.507015" lon="10.4683917"><ele>185.0</ele><time>2026-05-01T07:54:03.48Z</time></trkpt><trkpt lat="45.507045" lon="10.468605"><ele>186.0</ele><time>2026-05-01T07:54:04.48Z</time></trkpt><trkpt lat="45.5070717" lon="10.4688233"><ele>187.33333333333334</ele><time>2026-05-01T07:54:05.48Z</time></trkpt><trkpt lat="45.5070967" lon="10.4690433"><ele>188.66666666666669</ele><time>2026-05-01T07:54:06.48Z</time></trkpt><trkpt lat="45.5071033" lon="10.4692633"><ele>190.0</ele><time>2026-05-01T07:54:07.48Z</time></trkpt><trkpt lat="45.5070867" lon="10.4694867"><ele>189.66666666666669</ele><time>2026-05-01T07:54:08.48Z</time></trkpt><trkpt lat="45.50707" lon="10.469725"><ele>189.33333333333334</ele><time>2026-05-01T07:54:09.48Z</time></trkpt><trkpt lat="45.50704" lon="10.4699617"><ele>189.0</ele><time>2026-05-01T07:54:10.48Z</time></trkpt><trkpt lat="45.5070033" lon="10.47019"><ele>189.0</ele><time>2026-05-01T07:54:11.48Z</time></trkpt><trkpt lat="45.5069567" lon="10.47042"><ele>189.0</ele><time>2026-05-01T07:54:12.48Z</time></trkpt><trkpt lat="45.5069083" lon="10.47066"><ele>189.0</ele><time>2026-05-01T07:54:13.48Z</time></trkpt><trkpt lat="45.50686" lon="10.4709"><ele>189.66666666666666</ele><time>2026-05-01T07:54:14.48Z</time></trkpt><trkpt lat="45.5068017" lon="10.4711317"><ele>190.33333333333331</ele><time>2026-05-01T07:54:15.48Z</time></trkpt><trkpt lat="45.5067383" lon="10.4713617"><ele>191.0</ele><time>2026-05-01T07:54:16.48Z</time></trkpt><trkpt lat="45.50668" lon="10.4716017"><ele>191.66666666666666</ele><time>2026-05-01T07:54:17.48Z</time></trkpt><trkpt lat="45.5066383" lon="10.4718583"><ele>192.33333333333331</ele><time>2026-05-01T07:54:18.48Z</time></trkpt><trkpt lat="45.5066083" lon="10.4721167"><ele>193.0</ele><time>2026-05-01T07:54:19.48Z</time></trkpt><trkpt lat="45.5065833" lon="10.4723717"><ele>193.66666666666666</ele><time>2026-05-01T07:54:20.48Z</time></trkpt><trkpt lat="45.5065483" lon="10.4726267"><ele>194.33333333333331</ele><time>2026-05-01T07:54:21.48Z</time></trkpt><trkpt lat="45.506515" lon="10.47288"><ele>195.0</ele><time>2026-05-01T07:54:22.48Z</time></trkpt><trkpt lat="45.50649" lon="10.4731267"><ele>195.0</ele><time>2026-05-01T07:54:23.48Z</time></trkpt><trkpt lat="45.50646" lon="10.4733517"><ele>195.0</ele><time>2026-05-01T07:54:24.48Z</time></trkpt><trkpt lat="45.5064333" lon="10.473565"><ele>195.0</ele><time>2026-05-01T07:54:25.48Z</time></trkpt><trkpt lat="45.5064117" lon="10.47376"><ele>194.75</ele><time>2026-05-01T07:54:26.481Z</time></trkpt><trkpt lat="45.5063967" lon="10.4739483"><ele>194.5</ele><time>2026-05-01T07:54:27.48Z</time></trkpt><trkpt lat="45.5063767" lon="10.4741233"><ele>194.25</ele><time>2026-05-01T07:54:28.48Z</time></trkpt><trkpt lat="45.506345" lon="10.47429"><ele>194.0</ele><time>2026-05-01T07:54:29.48Z</time></trkpt><trkpt lat="45.5063167" lon="10.4744417"><ele>194.00000000000003</ele><time>2026-05-01T07:54:30.48Z</time></trkpt><trkpt lat="45.5062967" lon="10.47459"><ele>194.0</ele><time>2026-05-01T07:54:31.481Z</time></trkpt><trkpt lat="45.5062733" lon="10.47472"><ele>194.0</ele><time>2026-05-01T07:54:32.48Z</time></trkpt><trkpt lat="45.5062567" lon="10.47483"><ele>194.0</ele><time>2026-05-01T07:54:33.48Z</time></trkpt><trkpt lat="45.50624" lon="10.47496"><ele>194.00000000000003</ele><time>2026-05-01T07:54:35.48Z</time></trkpt><trkpt lat="45.5062917" lon="10.4750133"><ele>194.0</ele><time>2026-05-01T07:54:37.48Z</time></trkpt><trkpt lat="45.5064" lon="10.4751133"><ele>194.00000000000003</ele><time>2026-05-01T07:54:39.48Z</time></trkpt><trkpt lat="45.5064683" lon="10.4751767"><ele>194.0</ele><time>2026-05-01T07:54:40.48Z</time></trkpt><trkpt lat="45.5065333" lon="10.475235"><ele>194.0</ele><time>2026-05-01T07:54:41.48Z</time></trkpt><trkpt lat="45.5066167" lon="10.4752967"><ele>194.0</ele><time>2026-05-01T07:54:43.48Z</time></trkpt><trkpt lat="45.5067" lon="10.4753517"><ele>194.00000000000003</ele><time>2026-05-01T07:54:53.48Z</time></trkpt><trkpt lat="45.5067867" lon="10.4754"><ele>194.0</ele><time>2026-05-01T07:54:54.48Z</time></trkpt><trkpt lat="45.5068967" lon="10.4754683"><ele>194.25</ele><time>2026-05-01T07:54:55.48Z</time></trkpt><trkpt lat="45.5070217" lon="10.4755667"><ele>194.5</ele><time>2026-05-01T07:54:56.48Z</time></trkpt><trkpt lat="45.5071567" lon="10.4756617"><ele>194.75</ele><time>2026-05-01T07:54:57.48Z</time></trkpt><trkpt lat="45.5072867" lon="10.4757733"><ele>195.0</ele><time>2026-05-01T07:54:58.481Z</time></trkpt><trkpt lat="45.507415" lon="10.47591"><ele>195.33333333333331</ele><time>2026-05-01T07:54:59.48Z</time></trkpt><trkpt lat="45.5075567" lon="10.47604"><ele>195.66666666666666</ele><time>2026-05-01T07:55:00.48Z</time></trkpt><trkpt lat="45.5077067" lon="10.4761617"><ele>196.0</ele><time>2026-05-01T07:55:01.48Z</time></trkpt><trkpt lat="45.5078683" lon="10.4762733"><ele>197.33333333333331</ele><time>2026-05-01T07:55:02.48Z</time></trkpt><trkpt lat="45.5080517" lon="10.4763683"><ele>198.66666666666669</ele><time>2026-05-01T07:55:03.48Z</time></trkpt><trkpt lat="45.5082383" lon="10.476435"><ele>200.0</ele><time>2026-05-01T07:55:04.48Z</time></trkpt><trkpt lat="45.50842" lon="10.476485"><ele>200.0</ele><time>2026-05-01T07:55:05.481Z</time></trkpt><trkpt lat="45.5085833" lon="10.476525"><ele>200.0</ele><time>2026-05-01T07:55:06.48Z</time></trkpt><trkpt lat="45.5087383" lon="10.47657"><ele>200.0</ele><time>2026-05-01T07:55:07.48Z</time></trkpt><trkpt lat="45.5088917" lon="10.4766083"><ele>200.66666666666669</ele><time>2026-05-01T07:55:08.48Z</time></trkpt><trkpt lat="45.50905" lon="10.4766367"><ele>201.33333333333331</ele><time>2026-05-01T07:55:09.48Z</time></trkpt><trkpt lat="45.5092017" lon="10.4766783"><ele>202.0</ele><time>2026-05-01T07:55:10.48Z</time></trkpt><trkpt lat="45.5093583" lon="10.476735"><ele>202.0</ele><time>2026-05-01T07:55:11.48Z</time></trkpt><trkpt lat="45.5095" lon="10.4768183"><ele>202.0</ele><time>2026-05-01T07:55:12.48Z</time></trkpt><trkpt lat="45.5096383" lon="10.4769"><ele>202.0</ele><time>2026-05-01T07:55:13.48Z</time></trkpt><trkpt lat="45.5097833" lon="10.477005"><ele>203.66666666666666</ele><time>2026-05-01T07:55:14.48Z</time></trkpt><trkpt lat="45.5099167" lon="10.47712"><ele>205.33333333333331</ele><time>2026-05-01T07:55:15.481Z</time></trkpt><trkpt lat="45.5100417" lon="10.477245"><ele>207.0</ele><time>2026-05-01T07:55:16.48Z</time></trkpt><trkpt lat="45.5101383" lon="10.4774017"><ele>207.0</ele><time>2026-05-01T07:55:17.48Z</time></trkpt><trkpt lat="45.5102133" lon="10.4775633"><ele>207.0</ele><time>2026-05-01T07:55:18.48Z</time></trkpt><trkpt lat="45.5102833" lon="10.4777083"><ele>207.0</ele><time>2026-05-01T07:55:19.48Z</time></trkpt><trkpt lat="45.5103483" lon="10.4778367"><ele>207.0</ele><time>2026-05-01T07:55:20.48Z</time></trkpt><trkpt lat="45.51042" lon="10.4779467"><ele>207.5</ele><time>2026-05-01T07:55:21.48Z</time></trkpt><trkpt lat="45.5104983" lon="10.4780367"><ele>208.0</ele><time>2026-05-01T07:55:22.48Z</time></trkpt><trkpt lat="45.51057" lon="10.47812"><ele>208.5</ele><time>2026-05-01T07:55:23.48Z</time></trkpt><trkpt lat="45.5106283" lon="10.4782017"><ele>209.0</ele><time>2026-05-01T07:55:24.48Z</time></trkpt><trkpt lat="45.5106783" lon="10.4782833"><ele>209.5</ele><time>2026-05-01T07:55:25.48Z</time></trkpt><trkpt lat="45.5107233" lon="10.4783667"><ele>210.0</ele><time>2026-05-01T07:55:26.481Z</time></trkpt><trkpt lat="45.5107617" lon="10.4784383"><ele>210.0</ele><time>2026-05-01T07:55:27.48Z</time></trkpt><trkpt lat="45.51084" lon="10.4785383"><ele>210.0</ele><time>2026-05-01T07:55:29.48Z</time></trkpt><trkpt lat="45.5109267" lon="10.4785667"><ele>210.0</ele><time>2026-05-01T07:55:31.48Z</time></trkpt><trkpt lat="45.511025" lon="10.478555"><ele>210.0</ele><time>2026-05-01T07:55:33.48Z</time></trkpt><trkpt lat="45.5111267" lon="10.47854"><ele>210.0</ele><time>2026-05-01T07:55:35.48Z</time></trkpt><trkpt lat="45.5112167" lon="10.4785867"><ele>211.0</ele><time>2026-05-01T07:55:37.48Z</time></trkpt><trkpt lat="45.5112417" lon="10.47873"><ele>212.0</ele><time>2026-05-01T07:55:39.48Z</time></trkpt><trkpt lat="45.5112383" lon="10.4788533"><ele>213.0</ele><time>2026-05-01T07:55:40.48Z</time></trkpt><trkpt lat="45.511225" lon="10.4789883"><ele>214.0</ele><time>2026-05-01T07:55:41.48Z</time></trkpt><trkpt lat="45.5112183" lon="10.4791283"><ele>215.0</ele><time>2026-05-01T07:55:42.48Z</time></trkpt><trkpt lat="45.51122" lon="10.4792817"><ele>215.0</ele><time>2026-05-01T07:55:43.48Z</time></trkpt><trkpt lat="45.5112317" lon="10.4794483"><ele>215.0</ele><time>2026-05-01T07:55:44.48Z</time></trkpt><trkpt lat="45.51125" lon="10.4796083"><ele>215.0</ele><time>2026-05-01T07:55:45.48Z</time></trkpt><trkpt lat="45.5112767" lon="10.479765"><ele>215.0</ele><time>2026-05-01T07:55:46.48Z</time></trkpt><trkpt lat="45.5113083" lon="10.4799033"><ele>215.0</ele><time>2026-05-01T07:55:47.48Z</time></trkpt><trkpt lat="45.5113517" lon="10.4800383"><ele>215.75</ele><time>2026-05-01T07:55:48.48Z</time></trkpt><trkpt lat="45.5114033" lon="10.480165"><ele>216.5</ele><time>2026-05-01T07:55:49.48Z</time></trkpt><trkpt lat="45.5114617" lon="10.4802967"><ele>217.25</ele><time>2026-05-01T07:55:50.48Z</time></trkpt><trkpt lat="45.5115333" lon="10.4804467"><ele>218.0</ele><time>2026-05-01T07:55:51.481Z</time></trkpt><trkpt lat="45.511615" lon="10.4805983"><ele>218.0</ele><time>2026-05-01T07:55:52.48Z</time></trkpt><trkpt lat="45.511695" lon="10.4807283"><ele>218.0</ele><time>2026-05-01T07:55:53.481Z</time></trkpt><trkpt lat="45.5117833" lon="10.4808633"><ele>218.0</ele><time>2026-05-01T07:55:54.48Z</time></trkpt><trkpt lat="45.5118783" lon="10.4809933"><ele>218.0</ele><time>2026-05-01T07:55:55.48Z</time></trkpt><trkpt lat="45.5119817" lon="10.481105"><ele>216.5</ele><time>2026-05-01T07:55:56.48Z</time></trkpt><trkpt lat="45.5120833" lon="10.4811733"><ele>215.0</ele><time>2026-05-01T07:55:57.48Z</time></trkpt><trkpt lat="45.5121867" lon="10.4812433"><ele>213.5</ele><time>2026-05-01T07:55:58.48Z</time></trkpt><trkpt lat="45.512305" lon="10.4813117"><ele>212.0</ele><time>2026-05-01T07:55:59.48Z</time></trkpt><trkpt lat="45.5124333" lon="10.481375"><ele>212.0</ele><time>2026-05-01T07:56:00.48Z</time></trkpt><trkpt lat="45.51255" lon="10.4814167"><ele>212.0</ele><time>2026-05-01T07:56:01.48Z</time></trkpt><trkpt lat="45.5126533" lon="10.4814483"><ele>212.0</ele><time>2026-05-01T07:56:02.48Z</time></trkpt><trkpt lat="45.5127533" lon="10.4814967"><ele>212.0</ele><time>2026-05-01T07:56:03.48Z</time></trkpt><trkpt lat="45.5128483" lon="10.48154"><ele>212.0</ele><time>2026-05-01T07:56:04.481Z</time></trkpt><trkpt lat="45.5129417" lon="10.48159"><ele>213.2</ele><time>2026-05-01T07:56:05.48Z</time></trkpt><trkpt lat="45.5130283" lon="10.4816483"><ele>214.39999999999998</ele><time>2026-05-01T07:56:06.48Z</time></trkpt><trkpt lat="45.51312" lon="10.481705"><ele>215.60000000000002</ele><time>2026-05-01T07:56:07.48Z</time></trkpt><trkpt lat="45.5132217" lon="10.4817567"><ele>216.8</ele><time>2026-05-01T07:56:08.481Z</time></trkpt><trkpt lat="45.5133133" lon="10.4818"><ele>218.0</ele><time>2026-05-01T07:56:09.48Z</time></trkpt><trkpt lat="45.5133867" lon="10.481835"><ele>218.00000000000003</ele><time>2026-05-01T07:56:10.48Z</time></trkpt><trkpt lat="45.5134517" lon="10.4818667"><ele>218.0</ele><time>2026-05-01T07:56:11.48Z</time></trkpt><trkpt lat="45.513515" lon="10.4818933"><ele>218.0</ele><time>2026-05-01T07:56:12.48Z</time></trkpt><trkpt lat="45.5136217" lon="10.4819317"><ele>218.0</ele><time>2026-05-01T07:56:14.48Z</time></trkpt><trkpt lat="45.5137067" lon="10.481965"><ele>218.00000000000003</ele><time>2026-05-01T07:56:16.48Z</time></trkpt><trkpt lat="45.513765" lon="10.4820667"><ele>218.0</ele><time>2026-05-01T07:56:18.48Z</time></trkpt><trkpt lat="45.5137683" lon="10.4821583"><ele>216.8</ele><time>2026-05-01T07:56:19.48Z</time></trkpt><trkpt lat="45.5137467" lon="10.4822667"><ele>215.60000000000002</ele><time>2026-05-01T07:56:20.48Z</time></trkpt><trkpt lat="45.5137217" lon="10.48239"><ele>214.39999999999998</ele><time>2026-05-01T07:56:21.48Z</time></trkpt><trkpt lat="45.5136917" lon="10.4825267"><ele>213.2</ele><time>2026-05-01T07:56:22.48Z</time></trkpt><trkpt lat="45.5136633" lon="10.48267"><ele>212.0</ele><time>2026-05-01T07:56:23.48Z</time></trkpt><trkpt lat="45.513635" lon="10.4828117"><ele>211.50000000000003</ele><time>2026-05-01T07:56:24.48Z</time></trkpt><trkpt lat="45.5136283" lon="10.482945"><ele>211.0</ele><time>2026-05-01T07:56:25.48Z</time></trkpt><trkpt lat="45.5136267" lon="10.4830583"><ele>210.5</ele><time>2026-05-01T07:56:26.48Z</time></trkpt><trkpt lat="45.5136433" lon="10.483155"><ele>210.0</ele><time>2026-05-01T07:56:27.48Z</time></trkpt><trkpt lat="45.51368" lon="10.483235"><ele>209.50000000000003</ele><time>2026-05-01T07:56:28.481Z</time></trkpt><trkpt lat="45.5137433" lon="10.4833"><ele>209.0</ele><time>2026-05-01T07:56:29.48Z</time></trkpt><trkpt lat="45.5138333" lon="10.483365"><ele>209.0</ele><time>2026-05-01T07:56:30.48Z</time></trkpt><trkpt lat="45.5139367" lon="10.4834317"><ele>209.0</ele><time>2026-05-01T07:56:31.48Z</time></trkpt><trkpt lat="45.514035" lon="10.4834783"><ele>209.0</ele><time>2026-05-01T07:56:32.48Z</time></trkpt><trkpt lat="45.5141117" lon="10.48352"><ele>209.0</ele><time>2026-05-01T07:56:33.48Z</time></trkpt><trkpt lat="45.5142" lon="10.483565"><ele>209.0</ele><time>2026-05-01T07:56:35.48Z</time></trkpt><trkpt lat="45.514135" lon="10.483475"><ele>209.0</ele><time>2026-05-01T07:59:39.483Z</time></trkpt><trkpt lat="45.51399" lon="10.4834033"><ele>209.0</ele><time>2026-05-01T07:59:41.483Z</time></trkpt><trkpt lat="45.5138967" lon="10.483355"><ele>209.0</ele><time>2026-05-01T07:59:42.483Z</time></trkpt><trkpt lat="45.513805" lon="10.4833"><ele>209.0</ele><time>2026-05-01T07:59:43.483Z</time></trkpt><trkpt lat="45.51372" lon="10.4832433"><ele>209.0</ele><time>2026-05-01T07:59:44.483Z</time></trkpt><trkpt lat="45.5136633" lon="10.483185"><ele>209.0</ele><time>2026-05-01T07:59:45.483Z</time></trkpt><trkpt lat="45.5136117" lon="10.4830533"><ele>209.0</ele><time>2026-05-01T07:59:47.483Z</time></trkpt><trkpt lat="45.51362" lon="10.4829"><ele>209.0</ele><time>2026-05-01T07:59:49.483Z</time></trkpt><trkpt lat="45.5136383" lon="10.4827883"><ele>209.0</ele><time>2026-05-01T07:59:50.483Z</time></trkpt><trkpt lat="45.5136567" lon="10.4826567"><ele>209.0</ele><time>2026-05-01T07:59:51.483Z</time></trkpt><trkpt lat="45.5136817" lon="10.4825033"><ele>209.0</ele><time>2026-05-01T07:59:52.483Z</time></trkpt><trkpt lat="45.513715" lon="10.4823617"><ele>209.0</ele><time>2026-05-01T07:59:53.483Z</time></trkpt><trkpt lat="45.51374" lon="10.4822383"><ele>209.0</ele><time>2026-05-01T07:59:54.483Z</time></trkpt><trkpt lat="45.5137633" lon="10.482135"><ele>209.0</ele><time>2026-05-01T07:59:55.483Z</time></trkpt><trkpt lat="45.5138233" lon="10.482025"><ele>209.0</ele><time>2026-05-01T07:59:57.484Z</time></trkpt><trkpt lat="45.5138667" lon="10.48192"><ele>211.50000000000003</ele><time>2026-05-01T07:59:59.483Z</time></trkpt><trkpt lat="45.5139117" lon="10.481795"><ele>214.0</ele><time>2026-05-01T08:00:01.483Z</time></trkpt><trkpt lat="45.5139683" lon="10.4817317"><ele>216.5</ele><time>2026-05-01T08:00:03.483Z</time></trkpt><trkpt lat="45.5140367" lon="10.48171"><ele>219.0</ele><time>2026-05-01T08:00:04.483Z</time></trkpt><trkpt lat="45.5141117" lon="10.4816667"><ele>221.50000000000003</ele><time>2026-05-01T08:00:05.483Z</time></trkpt><trkpt lat="45.5141967" lon="10.4816167"><ele>224.0</ele><time>2026-05-01T08:00:06.483Z</time></trkpt><trkpt lat="45.5142867" lon="10.48158"><ele>224.0</ele><time>2026-05-01T08:00:07.483Z</time></trkpt><trkpt lat="45.5143967" lon="10.4815517"><ele>224.0</ele><time>2026-05-01T08:00:08.483Z</time></trkpt><trkpt lat="45.514525" lon="10.4815267"><ele>224.0</ele><time>2026-05-01T08:00:09.484Z</time></trkpt><trkpt lat="45.5146633" lon="10.4814967"><ele>224.0</ele><time>2026-05-01T08:00:10.483Z</time></trkpt><trkpt lat="45.5148183" lon="10.4814533"><ele>224.25</ele><time>2026-05-01T08:00:11.483Z</time></trkpt><trkpt lat="45.5149633" lon="10.481415"><ele>224.5</ele><time>2026-05-01T08:00:12.483Z</time></trkpt><trkpt lat="45.515115" lon="10.4813883"><ele>224.75</ele><time>2026-05-01T08:00:13.483Z</time></trkpt><trkpt lat="45.5152567" lon="10.4813833"><ele>225.0</ele><time>2026-05-01T08:00:14.483Z</time></trkpt><trkpt lat="45.5154033" lon="10.4813967"><ele>225.66666666666669</ele><time>2026-05-01T08:00:15.483Z</time></trkpt><trkpt lat="45.515555" lon="10.4814167"><ele>226.33333333333334</ele><time>2026-05-01T08:00:16.483Z</time></trkpt><trkpt lat="45.5157183" lon="10.4814617"><ele>227.0</ele><time>2026-05-01T08:00:17.483Z</time></trkpt><trkpt lat="45.515875" lon="10.4815217"><ele>227.0</ele><time>2026-05-01T08:00:18.483Z</time></trkpt><trkpt lat="45.5160333" lon="10.4815783"><ele>227.0</ele><time>2026-05-01T08:00:19.484Z</time></trkpt><trkpt lat="45.516185" lon="10.4816183"><ele>227.0</ele><time>2026-05-01T08:00:20.484Z</time></trkpt><trkpt lat="45.5163333" lon="10.4816583"><ele>228.5</ele><time>2026-05-01T08:00:21.484Z</time></trkpt><trkpt lat="45.5164683" lon="10.4817133"><ele>230.0</ele><time>2026-05-01T08:00:22.483Z</time></trkpt><trkpt lat="45.5166117" lon="10.4817817"><ele>231.5</ele><time>2026-05-01T08:00:23.483Z</time></trkpt><trkpt lat="45.516755" lon="10.48184"><ele>233.0</ele><time>2026-05-01T08:00:24.483Z</time></trkpt><trkpt lat="45.516885" lon="10.4819"><ele>233.0</ele><time>2026-05-01T08:00:25.483Z</time></trkpt><trkpt lat="45.517015" lon="10.4819617"><ele>233.0</ele><time>2026-05-01T08:00:26.483Z</time></trkpt><trkpt lat="45.5171467" lon="10.482015"><ele>233.0</ele><time>2026-05-01T08:00:27.483Z</time></trkpt><trkpt lat="45.5172633" lon="10.482065"><ele>233.0</ele><time>2026-05-01T08:00:28.483Z</time></trkpt><trkpt lat="45.5173767" lon="10.4821167"><ele>231.83333333333334</ele><time>2026-05-01T08:00:29.483Z</time></trkpt><trkpt lat="45.5174717" lon="10.4821683"><ele>230.66666666666669</ele><time>2026-05-01T08:00:30.483Z</time></trkpt><trkpt lat="45.5175567" lon="10.48222"><ele>229.5</ele><time>2026-05-01T08:00:31.483Z</time></trkpt><trkpt lat="45.51763" lon="10.4822533"><ele>228.33333333333331</ele><time>2026-05-01T08:00:32.483Z</time></trkpt><trkpt lat="45.5177267" lon="10.4822333"><ele>227.16666666666666</ele><time>2026-05-01T08:00:34.484Z</time></trkpt><trkpt lat="45.51778" lon="10.482185"><ele>226.0</ele><time>2026-05-01T08:00:35.483Z</time></trkpt><trkpt lat="45.5178517" lon="10.4821167"><ele>229.75</ele><time>2026-05-01T08:00:36.483Z</time></trkpt><trkpt lat="45.5179433" lon="10.482055"><ele>233.5</ele><time>2026-05-01T08:00:37.483Z</time></trkpt><trkpt lat="45.5180533" lon="10.4820033"><ele>237.25</ele><time>2026-05-01T08:00:38.483Z</time></trkpt><trkpt lat="45.518175" lon="10.4819767"><ele>241.0</ele><time>2026-05-01T08:00:39.483Z</time></trkpt><trkpt lat="45.5182967" lon="10.4819583"><ele>241.0</ele><time>2026-05-01T08:00:40.483Z</time></trkpt><trkpt lat="45.518415" lon="10.4819533"><ele>241.00000000000003</ele><time>2026-05-01T08:00:41.484Z</time></trkpt><trkpt lat="45.5185183" lon="10.48196"><ele>241.00000000000003</ele><time>2026-05-01T08:00:42.483Z</time></trkpt><trkpt lat="45.5186083" lon="10.4819567"><ele>241.0</ele><time>2026-05-01T08:00:43.483Z</time></trkpt><trkpt lat="45.5186983" lon="10.48197"><ele>241.0</ele><time>2026-05-01T08:00:44.483Z</time></trkpt><trkpt lat="45.51877" lon="10.4819833"><ele>240.99999999999997</ele><time>2026-05-01T08:00:45.483Z</time></trkpt><trkpt lat="45.51884" lon="10.4819967"><ele>241.0</ele><time>2026-05-01T08:00:46.483Z</time></trkpt><trkpt lat="45.5189433" lon="10.4819767"><ele>241.0</ele><time>2026-05-01T08:00:48.483Z</time></trkpt><trkpt lat="45.5190017" lon="10.4818483"><ele>241.0</ele><time>2026-05-01T08:00:50.483Z</time></trkpt><trkpt lat="45.5190183" lon="10.481745"><ele>240.99999999999997</ele><time>2026-05-01T08:00:51.483Z</time></trkpt><trkpt lat="45.5190233" lon="10.48164"><ele>241.0</ele><time>2026-05-01T08:00:52.483Z</time></trkpt><trkpt lat="45.5190417" lon="10.4814967"><ele>241.0</ele><time>2026-05-01T08:00:54.483Z</time></trkpt><trkpt lat="45.5191233" lon="10.4814467"><ele>241.00000000000003</ele><time>2026-05-01T08:00:57.483Z</time></trkpt><trkpt lat="45.5191867" lon="10.48149"><ele>241.00000000000003</ele><time>2026-05-01T08:00:59.483Z</time></trkpt><trkpt lat="45.5192617" lon="10.4815417"><ele>241.0</ele><time>2026-05-01T08:01:02.483Z</time></trkpt><trkpt lat="45.51935" lon="10.481595"><ele>241.0</ele><time>2026-05-01T08:01:05.483Z</time></trkpt><trkpt lat="45.51946" lon="10.481675"><ele>240.99999999999997</ele><time>2026-05-01T08:01:07.483Z</time></trkpt><trkpt lat="45.519525" lon="10.48172"><ele>241.0</ele><time>2026-05-01T08:01:08.483Z</time></trkpt><trkpt lat="45.519595" lon="10.4817617"><ele>241.0</ele><time>2026-05-01T08:01:09.483Z</time></trkpt><trkpt lat="45.5196633" lon="10.4818017"><ele>241.0</ele><time>2026-05-01T08:01:10.483Z</time></trkpt><trkpt lat="45.5197383" lon="10.4818517"><ele>240.99999999999997</ele><time>2026-05-01T08:01:11.483Z</time></trkpt><trkpt lat="45.519805" lon="10.4819067"><ele>241.0</ele><time>2026-05-01T08:01:12.483Z</time></trkpt><trkpt lat="45.519875" lon="10.4819567"><ele>242.49999999999997</ele><time>2026-05-01T08:01:13.483Z</time></trkpt><trkpt lat="45.5199383" lon="10.481995"><ele>244.0</ele><time>2026-05-01T08:01:14.483Z</time></trkpt><trkpt lat="45.5200033" lon="10.4820283"><ele>245.5</ele><time>2026-05-01T08:01:15.483Z</time></trkpt><trkpt lat="45.5201267" lon="10.4820783"><ele>247.0</ele><time>2026-05-01T08:01:17.483Z</time></trkpt><trkpt lat="45.5201983" lon="10.48209"><ele>248.49999999999997</ele><time>2026-05-01T08:01:18.483Z</time></trkpt><trkpt lat="45.5202667" lon="10.4820883"><ele>250.0</ele><time>2026-05-01T08:01:19.484Z</time></trkpt><trkpt lat="45.5203367" lon="10.48207"><ele>250.83333333333331</ele><time>2026-05-01T08:01:20.483Z</time></trkpt><trkpt lat="45.5204033" lon="10.4820333"><ele>251.66666666666666</ele><time>2026-05-01T08:01:21.483Z</time></trkpt><trkpt lat="45.5204717" lon="10.482005"><ele>252.5</ele><time>2026-05-01T08:01:22.483Z</time></trkpt><trkpt lat="45.5206033" lon="10.4819683"><ele>253.33333333333331</ele><time>2026-05-01T08:01:24.483Z</time></trkpt><trkpt lat="45.5206817" lon="10.48197"><ele>254.16666666666666</ele><time>2026-05-01T08:01:25.483Z</time></trkpt><trkpt lat="45.5207583" lon="10.4819967"><ele>255.0</ele><time>2026-05-01T08:01:26.483Z</time></trkpt><trkpt lat="45.52084" lon="10.482035"><ele>255.0</ele><time>2026-05-01T08:01:27.483Z</time></trkpt><trkpt lat="45.5209233" lon="10.4820767"><ele>255.0</ele><time>2026-05-01T08:01:28.483Z</time></trkpt><trkpt lat="45.5210067" lon="10.482115"><ele>255.0</ele><time>2026-05-01T08:01:29.483Z</time></trkpt><trkpt lat="45.5210883" lon="10.4821533"><ele>255.0</ele><time>2026-05-01T08:01:30.483Z</time></trkpt><trkpt lat="45.5211767" lon="10.4822017"><ele>255.0</ele><time>2026-05-01T08:01:31.483Z</time></trkpt><trkpt lat="45.5212567" lon="10.4822583"><ele>255.0</ele><time>2026-05-01T08:01:32.483Z</time></trkpt><trkpt lat="45.5213433" lon="10.48231"><ele>254.33333333333334</ele><time>2026-05-01T08:01:33.484Z</time></trkpt><trkpt lat="45.5214317" lon="10.4823683"><ele>253.66666666666669</ele><time>2026-05-01T08:01:34.483Z</time></trkpt><trkpt lat="45.5215083" lon="10.482405"><ele>253.0</ele><time>2026-05-01T08:01:35.483Z</time></trkpt><trkpt lat="45.5215767" lon="10.4824267"><ele>252.33333333333334</ele><time>2026-05-01T08:01:36.483Z</time></trkpt><trkpt lat="45.5216483" lon="10.4824383"><ele>251.66666666666669</ele><time>2026-05-01T08:01:37.483Z</time></trkpt><trkpt lat="45.5217267" lon="10.4824533"><ele>251.0</ele><time>2026-05-01T08:01:38.483Z</time></trkpt><trkpt lat="45.5218033" lon="10.4824733"><ele>251.00000000000003</ele><time>2026-05-01T08:01:39.483Z</time></trkpt><trkpt lat="45.5218767" lon="10.48251"><ele>251.0</ele><time>2026-05-01T08:01:40.483Z</time></trkpt><trkpt lat="45.5219417" lon="10.4825617"><ele>251.0</ele><time>2026-05-01T08:01:41.483Z</time></trkpt><trkpt lat="45.5220167" lon="10.48262"><ele>251.0</ele><time>2026-05-01T08:01:42.483Z</time></trkpt><trkpt lat="45.5221017" lon="10.4826767"><ele>251.00000000000003</ele><time>2026-05-01T08:01:43.483Z</time></trkpt><trkpt lat="45.5221733" lon="10.4827383"><ele>251.0</ele><time>2026-05-01T08:01:44.483Z</time></trkpt><trkpt lat="45.5222483" lon="10.4827933"><ele>251.00000000000003</ele><time>2026-05-01T08:01:45.483Z</time></trkpt><trkpt lat="45.522325" lon="10.482845"><ele>251.0</ele><time>2026-05-01T08:01:46.483Z</time></trkpt><trkpt lat="45.5224" lon="10.48289"><ele>251.0</ele><time>2026-05-01T08:01:47.483Z</time></trkpt><trkpt lat="45.5224683" lon="10.4829233"><ele>251.0</ele><time>2026-05-01T08:01:48.483Z</time></trkpt><trkpt lat="45.5225383" lon="10.4829517"><ele>251.00000000000003</ele><time>2026-05-01T08:01:49.483Z</time></trkpt><trkpt lat="45.5226117" lon="10.4829767"><ele>251.0</ele><time>2026-05-01T08:01:50.483Z</time></trkpt><trkpt lat="45.5226767" lon="10.4830133"><ele>251.00000000000003</ele><time>2026-05-01T08:01:51.483Z</time></trkpt><trkpt lat="45.5227417" lon="10.4830517"><ele>251.0</ele><time>2026-05-01T08:01:52.483Z</time></trkpt><trkpt lat="45.52281" lon="10.483075"><ele>251.0</ele><time>2026-05-01T08:01:53.484Z</time></trkpt><trkpt lat="45.5228717" lon="10.4831067"><ele>251.0</ele><time>2026-05-01T08:01:54.483Z</time></trkpt><trkpt lat="45.5229333" lon="10.4831617"><ele>251.00000000000003</ele><time>2026-05-01T08:01:55.483Z</time></trkpt><trkpt lat="45.5229883" lon="10.48322"><ele>251.0</ele><time>2026-05-01T08:01:56.483Z</time></trkpt><trkpt lat="45.52305" lon="10.4833383"><ele>251.0</ele><time>2026-05-01T08:01:58.483Z</time></trkpt><trkpt lat="45.5229567" lon="10.4833117"><ele>251.00000000000003</ele><time>2026-05-01T08:04:36.483Z</time></trkpt><trkpt lat="45.5228867" lon="10.4832583"><ele>251.00000000000003</ele><time>2026-05-01T08:04:38.483Z</time></trkpt><trkpt lat="45.5228017" lon="10.4832033"><ele>251.0</ele><time>2026-05-01T08:04:40.483Z</time></trkpt><trkpt lat="45.5227167" lon="10.4831433"><ele>251.0</ele><time>2026-05-01T08:04:42.483Z</time></trkpt><trkpt lat="45.522625" lon="10.48309"><ele>251.0</ele><time>2026-05-01T08:04:44.483Z</time></trkpt><trkpt lat="45.52253" lon="10.4830183"><ele>251.00000000000003</ele><time>2026-05-01T08:04:46.483Z</time></trkpt><trkpt lat="45.52241" lon="10.4829317"><ele>251.00000000000003</ele><time>2026-05-01T08:04:48.483Z</time></trkpt><trkpt lat="45.5223383" lon="10.4828833"><ele>251.0</ele><time>2026-05-01T08:04:49.483Z</time></trkpt><trkpt lat="45.5222633" lon="10.48283"><ele>251.0</ele><time>2026-05-01T08:04:50.483Z</time></trkpt><trkpt lat="45.5222" lon="10.4827883"><ele>251.00000000000003</ele><time>2026-05-01T08:04:51.483Z</time></trkpt><trkpt lat="45.5221333" lon="10.48275"><ele>251.0</ele><time>2026-05-01T08:04:52.483Z</time></trkpt><trkpt lat="45.5220633" lon="10.4827"><ele>251.0</ele><time>2026-05-01T08:04:53.483Z</time></trkpt><trkpt lat="45.5220033" lon="10.4826567"><ele>251.0</ele><time>2026-05-01T08:04:54.483Z</time></trkpt><trkpt lat="45.521915" lon="10.4825867"><ele>251.00000000000003</ele><time>2026-05-01T08:04:56.483Z</time></trkpt><trkpt lat="45.52182" lon="10.4825267"><ele>251.0</ele><time>2026-05-01T08:05:13.483Z</time></trkpt><trkpt lat="45.5217" lon="10.48251"><ele>250.99999999999997</ele><time>2026-05-01T08:05:15.483Z</time></trkpt><trkpt lat="45.5216267" lon="10.48251"><ele>251.0</ele><time>2026-05-01T08:05:16.483Z</time></trkpt><trkpt lat="45.52156" lon="10.482505"><ele>250.99999999999997</ele><time>2026-05-01T08:05:17.483Z</time></trkpt><trkpt lat="45.5214933" lon="10.4824883"><ele>250.99999999999997</ele><time>2026-05-01T08:05:18.483Z</time></trkpt><trkpt lat="45.5214267" lon="10.4824567"><ele>251.0</ele><time>2026-05-01T08:05:19.483Z</time></trkpt><trkpt lat="45.52136" lon="10.482415"><ele>250.99999999999997</ele><time>2026-05-01T08:05:20.483Z</time></trkpt><trkpt lat="45.52129" lon="10.4823617"><ele>250.99999999999997</ele><time>2026-05-01T08:05:21.483Z</time></trkpt><trkpt lat="45.5212167" lon="10.4823083"><ele>251.66666666666669</ele><time>2026-05-01T08:05:22.483Z</time></trkpt><trkpt lat="45.5211367" lon="10.4822483"><ele>252.33333333333334</ele><time>2026-05-01T08:05:23.483Z</time></trkpt><trkpt lat="45.5210617" lon="10.482185"><ele>253.0</ele><time>2026-05-01T08:05:24.483Z</time></trkpt><trkpt lat="45.5209833" lon="10.482135"><ele>253.66666666666669</ele><time>2026-05-01T08:05:25.483Z</time></trkpt><trkpt lat="45.5209133" lon="10.4820933"><ele>254.33333333333334</ele><time>2026-05-01T08:05:26.483Z</time></trkpt><trkpt lat="45.5208433" lon="10.4820583"><ele>255.0</ele><time>2026-05-01T08:05:27.483Z</time></trkpt><trkpt lat="45.5207783" lon="10.4820333"><ele>255.0</ele><time>2026-05-01T08:05:28.483Z</time></trkpt><trkpt lat="45.520715" lon="10.482005"><ele>255.0</ele><time>2026-05-01T08:05:29.483Z</time></trkpt><trkpt lat="45.5206517" lon="10.481985"><ele>255.0</ele><time>2026-05-01T08:05:30.484Z</time></trkpt><trkpt lat="45.520535" lon="10.4819583"><ele>255.0</ele><time>2026-05-01T08:05:32.483Z</time></trkpt><trkpt lat="45.520415" lon="10.481975"><ele>255.0</ele><time>2026-05-01T08:05:34.483Z</time></trkpt><trkpt lat="45.520295" lon="10.48203"><ele>254.16666666666666</ele><time>2026-05-01T08:05:36.483Z</time></trkpt><trkpt lat="45.520175" lon="10.48207"><ele>253.33333333333331</ele><time>2026-05-01T08:05:38.483Z</time></trkpt><trkpt lat="45.520105" lon="10.4820567"><ele>252.5</ele><time>2026-05-01T08:05:39.483Z</time></trkpt><trkpt lat="45.5200317" lon="10.4820267"><ele>251.66666666666666</ele><time>2026-05-01T08:05:40.483Z</time></trkpt><trkpt lat="45.5199533" lon="10.4819917"><ele>250.83333333333331</ele><time>2026-05-01T08:05:41.483Z</time></trkpt><trkpt lat="45.5198767" lon="10.481955"><ele>250.0</ele><time>2026-05-01T08:05:42.483Z</time></trkpt><trkpt lat="45.519805" lon="10.4819117"><ele>249.99999999999997</ele><time>2026-05-01T08:05:43.483Z</time></trkpt><trkpt lat="45.51973" lon="10.4818567"><ele>250.0</ele><time>2026-05-01T08:05:44.484Z</time></trkpt><trkpt lat="45.51965" lon="10.4818067"><ele>250.0</ele><time>2026-05-01T08:05:45.483Z</time></trkpt><trkpt lat="45.5195767" lon="10.4817567"><ele>250.0</ele><time>2026-05-01T08:05:46.483Z</time></trkpt><trkpt lat="45.5195117" lon="10.48171"><ele>249.99999999999997</ele><time>2026-05-01T08:05:47.483Z</time></trkpt><trkpt lat="45.5194483" lon="10.4816667"><ele>250.0</ele><time>2026-05-01T08:05:48.483Z</time></trkpt><trkpt lat="45.5193567" lon="10.4815883"><ele>248.49999999999997</ele><time>2026-05-01T08:05:50.483Z</time></trkpt><trkpt lat="45.5192583" lon="10.4815317"><ele>247.0</ele><time>2026-05-01T08:06:08.483Z</time></trkpt><trkpt lat="45.519205" lon="10.4814683"><ele>245.5</ele><time>2026-05-01T08:06:11.483Z</time></trkpt><trkpt lat="45.5191417" lon="10.4814283"><ele>244.0</ele><time>2026-05-01T08:06:19.483Z</time></trkpt><trkpt lat="45.5190817" lon="10.4814667"><ele>242.49999999999997</ele><time>2026-05-01T08:06:22.483Z</time></trkpt><trkpt lat="45.5191617" lon="10.4814883"><ele>241.0</ele><time>2026-05-01T08:06:49.483Z</time></trkpt><trkpt lat="45.519255" lon="10.4815333"><ele>241.0</ele><time>2026-05-01T08:06:51.483Z</time></trkpt><trkpt lat="45.5193633" lon="10.4816083"><ele>241.00000000000003</ele><time>2026-05-01T08:06:53.483Z</time></trkpt><trkpt lat="45.5194367" lon="10.48166"><ele>241.00000000000003</ele><time>2026-05-01T08:06:54.483Z</time></trkpt><trkpt lat="45.5195217" lon="10.4817183"><ele>241.0</ele><time>2026-05-01T08:06:55.483Z</time></trkpt><trkpt lat="45.51961" lon="10.4817683"><ele>241.0</ele><time>2026-05-01T08:06:56.483Z</time></trkpt><trkpt lat="45.5196933" lon="10.4818217"><ele>242.8</ele><time>2026-05-01T08:06:57.483Z</time></trkpt><trkpt lat="45.519775" lon="10.481875"><ele>244.60000000000002</ele><time>2026-05-01T08:06:58.483Z</time></trkpt><trkpt lat="45.5198567" lon="10.4819317"><ele>246.4</ele><time>2026-05-01T08:06:59.483Z</time></trkpt><trkpt lat="45.5199483" lon="10.4819883"><ele>248.2</ele><time>2026-05-01T08:07:00.483Z</time></trkpt><trkpt lat="45.5200433" lon="10.4820317"><ele>250.0</ele><time>2026-05-01T08:07:01.483Z</time></trkpt><trkpt lat="45.5201283" lon="10.4820617"><ele>250.0</ele><time>2026-05-01T08:07:02.483Z</time></trkpt><trkpt lat="45.5201983" lon="10.4820767"><ele>250.0</ele><time>2026-05-01T08:07:03.483Z</time></trkpt><trkpt lat="45.520275" lon="10.4820733"><ele>250.0</ele><time>2026-05-01T08:07:04.483Z</time></trkpt><trkpt lat="45.5203467" lon="10.4820567"><ele>250.0</ele><time>2026-05-01T08:07:05.483Z</time></trkpt><trkpt lat="45.52042" lon="10.4820267"><ele>250.0</ele><time>2026-05-01T08:07:06.483Z</time></trkpt><trkpt lat="45.5204883" lon="10.4819933"><ele>250.0</ele><time>2026-05-01T08:07:07.483Z</time></trkpt><trkpt lat="45.520555" lon="10.4819733"><ele>250.0</ele><time>2026-05-01T08:07:08.483Z</time></trkpt><trkpt lat="45.520625" lon="10.481975"><ele>249.2</ele><time>2026-05-01T08:07:09.483Z</time></trkpt><trkpt lat="45.5207033" lon="10.4820017"><ele>248.4</ele><time>2026-05-01T08:07:10.483Z</time></trkpt><trkpt lat="45.5207833" lon="10.48204"><ele>247.60000000000002</ele><time>2026-05-01T08:07:11.483Z</time></trkpt><trkpt lat="45.5208783" lon="10.482075"><ele>246.8</ele><time>2026-05-01T08:07:12.483Z</time></trkpt><trkpt lat="45.5209717" lon="10.48212"><ele>246.0</ele><time>2026-05-01T08:07:13.483Z</time></trkpt><trkpt lat="45.52106" lon="10.4821533"><ele>246.0</ele><time>2026-05-01T08:07:14.483Z</time></trkpt><trkpt lat="45.5211517" lon="10.4821967"><ele>246.00000000000003</ele><time>2026-05-01T08:07:15.483Z</time></trkpt><trkpt lat="45.52124" lon="10.4822633"><ele>246.00000000000003</ele><time>2026-05-01T08:07:16.483Z</time></trkpt><trkpt lat="45.5213317" lon="10.4823167"><ele>246.0</ele><time>2026-05-01T08:07:17.483Z</time></trkpt><trkpt lat="45.5214217" lon="10.4823633"><ele>246.0</ele><time>2026-05-01T08:07:18.483Z</time></trkpt><trkpt lat="45.52151" lon="10.482415"><ele>246.71428571428575</ele><time>2026-05-01T08:07:19.483Z</time></trkpt><trkpt lat="45.5215783" lon="10.4824617"><ele>247.42857142857144</ele><time>2026-05-01T08:07:20.483Z</time></trkpt><trkpt lat="45.52165" lon="10.4824783"><ele>248.14285714285714</ele><time>2026-05-01T08:07:21.483Z</time></trkpt><trkpt lat="45.52173" lon="10.482485"><ele>248.85714285714286</ele><time>2026-05-01T08:07:22.483Z</time></trkpt><trkpt lat="45.5218117" lon="10.4825017"><ele>249.57142857142856</ele><time>2026-05-01T08:07:23.483Z</time></trkpt><trkpt lat="45.5218783" lon="10.482525"><ele>250.28571428571425</ele><time>2026-05-01T08:07:24.483Z</time></trkpt><trkpt lat="45.52194" lon="10.4825683"><ele>250.99999999999997</ele><time>2026-05-01T08:07:25.483Z</time></trkpt><trkpt lat="45.5220117" lon="10.4826183"><ele>253.33333333333334</ele><time>2026-05-01T08:07:26.483Z</time></trkpt><trkpt lat="45.5220883" lon="10.4826833"><ele>255.66666666666669</ele><time>2026-05-01T08:07:27.483Z</time></trkpt><trkpt lat="45.522165" lon="10.482735"><ele>258.0</ele><time>2026-05-01T08:07:28.483Z</time></trkpt><trkpt lat="45.5222367" lon="10.4827833"><ele>260.3333333333333</ele><time>2026-05-01T08:07:29.483Z</time></trkpt><trkpt lat="45.5223167" lon="10.4828267"><ele>262.66666666666663</ele><time>2026-05-01T08:07:30.483Z</time></trkpt><trkpt lat="45.522405" lon="10.4828617"><ele>265.0</ele><time>2026-05-01T08:07:31.483Z</time></trkpt><trkpt lat="45.5224917" lon="10.4829017"><ele>264.5</ele><time>2026-05-01T08:07:32.483Z</time></trkpt><trkpt lat="45.5225867" lon="10.4829667"><ele>264.0</ele><time>2026-05-01T08:07:33.483Z</time></trkpt><trkpt lat="45.5226783" lon="10.48303"><ele>263.5</ele><time>2026-05-01T08:07:34.483Z</time></trkpt><trkpt lat="45.5227583" lon="10.483085"><ele>263.0</ele><time>2026-05-01T08:07:35.483Z</time></trkpt><trkpt lat="45.522825" lon="10.4831283"><ele>262.5</ele><time>2026-05-01T08:07:36.483Z</time></trkpt><trkpt lat="45.5228917" lon="10.4831683"><ele>262.0</ele><time>2026-05-01T08:07:37.483Z</time></trkpt><trkpt lat="45.52296" lon="10.4832383"><ele>262.0</ele><time>2026-05-01T08:07:38.483Z</time></trkpt><trkpt lat="45.5230217" lon="10.483315"><ele>262.0</ele><time>2026-05-01T08:07:39.483Z</time></trkpt><trkpt lat="45.5230583" lon="10.4833983"><ele>262.0</ele><time>2026-05-01T08:07:40.484Z</time></trkpt><trkpt lat="45.52312" lon="10.4835"><ele>262.0</ele><time>2026-05-01T08:07:42.483Z</time></trkpt><trkpt lat="45.52317" lon="10.4836333"><ele>262.0</ele><time>2026-05-01T08:07:44.483Z</time></trkpt><trkpt lat="45.5232533" lon="10.4837417"><ele>260.57142857142856</ele><time>2026-05-01T08:07:46.483Z</time></trkpt><trkpt lat="45.5233167" lon="10.4837817"><ele>259.14285714285717</ele><time>2026-05-01T08:07:47.483Z</time></trkpt><trkpt lat="45.5233933" lon="10.4838067"><ele>257.7142857142857</ele><time>2026-05-01T08:07:48.483Z</time></trkpt><trkpt lat="45.5234633" lon="10.4838317"><ele>256.2857142857143</ele><time>2026-05-01T08:07:49.483Z</time></trkpt><trkpt lat="45.52353" lon="10.4838583"><ele>254.85714285714286</ele><time>2026-05-01T08:07:50.483Z</time></trkpt><trkpt lat="45.5235933" lon="10.4838867"><ele>253.42857142857144</ele><time>2026-05-01T08:07:51.483Z</time></trkpt><trkpt lat="45.5236567" lon="10.4839117"><ele>252.0</ele><time>2026-05-01T08:07:52.483Z</time></trkpt><trkpt lat="45.523715" lon="10.48395"><ele>253.39999999999998</ele><time>2026-05-01T08:07:53.483Z</time></trkpt><trkpt lat="45.5237983" lon="10.4839983"><ele>254.79999999999998</ele><time>2026-05-01T08:07:55.484Z</time></trkpt><trkpt lat="45.5238783" lon="10.4839967"><ele>256.2</ele><time>2026-05-01T08:07:57.483Z</time></trkpt><trkpt lat="45.5239833" lon="10.4839933"><ele>257.59999999999997</ele><time>2026-05-01T08:07:59.483Z</time></trkpt><trkpt lat="45.5240467" lon="10.4839983"><ele>259.0</ele><time>2026-05-01T08:08:00.483Z</time></trkpt><trkpt lat="45.52416" lon="10.4839933"><ele>259.0</ele><time>2026-05-01T08:08:02.483Z</time></trkpt><trkpt lat="45.5242867" lon="10.4839767"><ele>259.0</ele><time>2026-05-01T08:08:04.483Z</time></trkpt><trkpt lat="45.524425" lon="10.483965"><ele>259.0</ele><time>2026-05-01T08:08:06.483Z</time></trkpt><trkpt lat="45.5245683" lon="10.4839733"><ele>259.0</ele><time>2026-05-01T08:08:08.483Z</time></trkpt><trkpt lat="45.5246633" lon="10.4839817"><ele>260.3333333333333</ele><time>2026-05-01T08:08:09.483Z</time></trkpt><trkpt lat="45.524755" lon="10.483995"><ele>261.66666666666663</ele><time>2026-05-01T08:08:10.483Z</time></trkpt><trkpt lat="45.5248467" lon="10.4840117"><ele>263.0</ele><time>2026-05-01T08:08:11.483Z</time></trkpt><trkpt lat="45.524905" lon="10.4840567"><ele>264.3333333333333</ele><time>2026-05-01T08:08:12.483Z</time></trkpt><trkpt lat="45.52496" lon="10.484105"><ele>265.6666666666667</ele><time>2026-05-01T08:08:13.483Z</time></trkpt><trkpt lat="45.525055" lon="10.4842017"><ele>267.0</ele><time>2026-05-01T08:08:15.483Z</time></trkpt><trkpt lat="45.5251117" lon="10.484335"><ele>267.0</ele><time>2026-05-01T08:08:17.483Z</time></trkpt><trkpt lat="45.5251233" lon="10.484425"><ele>267.0</ele><time>2026-05-01T08:08:18.483Z</time></trkpt><trkpt lat="45.525125" lon="10.48458"><ele>267.0</ele><time>2026-05-01T08:08:20.483Z</time></trkpt><trkpt lat="45.5250983" lon="10.484725"><ele>267.0</ele><time>2026-05-01T08:08:22.483Z</time></trkpt><trkpt lat="45.5250817" lon="10.4848717"><ele>267.0</ele><time>2026-05-01T08:08:24.483Z</time></trkpt><trkpt lat="45.5251217" lon="10.485005"><ele>266.8571428571429</ele><time>2026-05-01T08:08:26.483Z</time></trkpt><trkpt lat="45.52516" lon="10.4850867"><ele>266.7142857142857</ele><time>2026-05-01T08:08:27.483Z</time></trkpt><trkpt lat="45.5252067" lon="10.4851533"><ele>266.57142857142856</ele><time>2026-05-01T08:08:28.483Z</time></trkpt><trkpt lat="45.52526" lon="10.4852117"><ele>266.42857142857144</ele><time>2026-05-01T08:08:29.483Z</time></trkpt><trkpt lat="45.5253167" lon="10.4852667"><ele>266.2857142857143</ele><time>2026-05-01T08:08:30.483Z</time></trkpt><trkpt lat="45.5253717" lon="10.4853433"><ele>266.14285714285717</ele><time>2026-05-01T08:08:31.483Z</time></trkpt><trkpt lat="45.525425" lon="10.48543"><ele>266.0</ele><time>2026-05-01T08:08:32.484Z</time></trkpt><trkpt lat="45.525485" lon="10.4855133"><ele>266.0</ele><time>2026-05-01T08:08:33.483Z</time></trkpt><trkpt lat="45.5255583" lon="10.4855867"><ele>266.0</ele><time>2026-05-01T08:08:34.483Z</time></trkpt><trkpt lat="45.5256233" lon="10.48564"><ele>266.0</ele><time>2026-05-01T08:08:35.483Z</time></trkpt><trkpt lat="45.5256833" lon="10.485685"><ele>266.0</ele><time>2026-05-01T08:08:36.483Z</time></trkpt><trkpt lat="45.52583" lon="10.48576"><ele>266.0</ele><time>2026-05-01T08:08:38.483Z</time></trkpt><trkpt lat="45.525935" lon="10.4858117"><ele>266.0</ele><time>2026-05-01T08:08:39.483Z</time></trkpt><trkpt lat="45.52605" lon="10.4858683"><ele>266.0</ele><time>2026-05-01T08:08:40.483Z</time></trkpt><trkpt lat="45.5261683" lon="10.4859267"><ele>266.0</ele><time>2026-05-01T08:08:41.483Z</time></trkpt><trkpt lat="45.5262933" lon="10.4860083"><ele>266.0</ele><time>2026-05-01T08:08:42.483Z</time></trkpt><trkpt lat="45.5263967" lon="10.4860783"><ele>267.2</ele><time>2026-05-01T08:08:43.483Z</time></trkpt><trkpt lat="45.5264783" lon="10.4861433"><ele>268.40000000000003</ele><time>2026-05-01T08:08:44.483Z</time></trkpt><trkpt lat="45.52655" lon="10.4861817"><ele>269.6</ele><time>2026-05-01T08:08:45.483Z</time></trkpt><trkpt lat="45.5266117" lon="10.4862417"><ele>270.8</ele><time>2026-05-01T08:08:46.483Z</time></trkpt><trkpt lat="45.5266967" lon="10.486365"><ele>272.0</ele><time>2026-05-01T08:08:48.483Z</time></trkpt><trkpt lat="45.5267667" lon="10.48652"><ele>272.0</ele><time>2026-05-01T08:08:50.483Z</time></trkpt><trkpt lat="45.52681" lon="10.486595"><ele>272.0</ele><time>2026-05-01T08:08:51.483Z</time></trkpt><trkpt lat="45.5269083" lon="10.4866967"><ele>272.0</ele><time>2026-05-01T08:08:53.483Z</time></trkpt><trkpt lat="45.5269733" lon="10.4867417"><ele>272.0</ele><time>2026-05-01T08:08:54.483Z</time></trkpt><trkpt lat="45.5270633" lon="10.4868067"><ele>272.0</ele><time>2026-05-01T08:08:56.483Z</time></trkpt><trkpt lat="45.5271717" lon="10.4868583"><ele>273.71428571428567</ele><time>2026-05-01T08:08:58.483Z</time></trkpt><trkpt lat="45.5272367" lon="10.48688"><ele>275.42857142857144</ele><time>2026-05-01T08:08:59.483Z</time></trkpt><trkpt lat="45.5273017" lon="10.4868983"><ele>277.1428571428571</ele><time>2026-05-01T08:09:00.483Z</time></trkpt><trkpt lat="45.527375" lon="10.4869117"><ele>278.85714285714283</ele><time>2026-05-01T08:09:01.483Z</time></trkpt><trkpt lat="45.5274517" lon="10.4869133"><ele>280.57142857142856</ele><time>2026-05-01T08:09:02.483Z</time></trkpt><trkpt lat="45.5275183" lon="10.48687"><ele>282.2857142857143</ele><time>2026-05-01T08:09:04.483Z</time></trkpt><trkpt lat="45.5275983" lon="10.4868517"><ele>284.0</ele><time>2026-05-01T08:09:06.483Z</time></trkpt><trkpt lat="45.527685" lon="10.4868683"><ele>284.0</ele><time>2026-05-01T08:09:34.483Z</time></trkpt><trkpt lat="45.5277417" lon="10.4867867"><ele>284.0</ele><time>2026-05-01T08:09:36.483Z</time></trkpt><trkpt lat="45.5277917" lon="10.48673"><ele>284.0</ele><time>2026-05-01T08:09:37.483Z</time></trkpt><trkpt lat="45.5278817" lon="10.4866117"><ele>284.0</ele><time>2026-05-01T08:09:39.483Z</time></trkpt><trkpt lat="45.5279383" lon="10.4864983"><ele>284.0</ele><time>2026-05-01T08:09:41.483Z</time></trkpt><trkpt lat="45.5279967" lon="10.4864017"><ele>283.6666666666667</ele><time>2026-05-01T08:09:43.483Z</time></trkpt><trkpt lat="45.5280617" lon="10.486325"><ele>283.33333333333337</ele><time>2026-05-01T08:09:45.483Z</time></trkpt><trkpt lat="45.5281067" lon="10.4862317"><ele>283.0</ele><time>2026-05-01T08:09:47.483Z</time></trkpt><trkpt lat="45.5281733" lon="10.486115"><ele>282.6666666666667</ele><time>2026-05-01T08:09:49.483Z</time></trkpt><trkpt lat="45.5282083" lon="10.4860067"><ele>282.3333333333333</ele><time>2026-05-01T08:09:51.483Z</time></trkpt><trkpt lat="45.5282583" lon="10.4858983"><ele>282.0</ele><time>2026-05-01T08:10:13.483Z</time></trkpt><trkpt lat="45.5283117" lon="10.48578"><ele>282.5</ele><time>2026-05-01T08:10:15.483Z</time></trkpt><trkpt lat="45.5283833" lon="10.4856933"><ele>283.0</ele><time>2026-05-01T08:10:17.483Z</time></trkpt><trkpt lat="45.5284617" lon="10.4856583"><ele>283.5</ele><time>2026-05-01T08:10:19.483Z</time></trkpt><trkpt lat="45.5285467" lon="10.48563"><ele>284.0</ele><time>2026-05-01T08:10:21.483Z</time></trkpt><trkpt lat="45.5286317" lon="10.485595"><ele>284.5</ele><time>2026-05-01T08:10:23.483Z</time></trkpt><trkpt lat="45.5287133" lon="10.4855833"><ele>285.0</ele><time>2026-05-01T08:10:25.483Z</time></trkpt><trkpt lat="45.5287933" lon="10.4855733"><ele>285.0</ele><time>2026-05-01T08:10:27.484Z</time></trkpt><trkpt lat="45.5289" lon="10.4855467"><ele>285.0</ele><time>2026-05-01T08:10:29.483Z</time></trkpt><trkpt lat="45.5289583" lon="10.4855117"><ele>285.0</ele><time>2026-05-01T08:10:30.483Z</time></trkpt><trkpt lat="45.5290417" lon="10.4854367"><ele>285.0</ele><time>2026-05-01T08:10:32.483Z</time></trkpt><trkpt lat="45.529115" lon="10.48535"><ele>285.0</ele><time>2026-05-01T08:10:34.483Z</time></trkpt><trkpt lat="45.529165" lon="10.4852667"><ele>285.0</ele><time>2026-05-01T08:10:36.483Z</time></trkpt><trkpt lat="45.5291967" lon="10.4851767"><ele>287.6666666666667</ele><time>2026-05-01T08:10:38.483Z</time></trkpt><trkpt lat="45.5292633" lon="10.48506"><ele>290.3333333333333</ele><time>2026-05-01T08:10:40.483Z</time></trkpt><trkpt lat="45.52931" lon="10.4849633"><ele>293.0</ele><time>2026-05-01T08:10:42.484Z</time></trkpt><trkpt lat="45.52935" lon="10.4848733"><ele>295.66666666666663</ele><time>2026-05-01T08:10:46.483Z</time></trkpt><trkpt lat="45.5293733" lon="10.4847783"><ele>298.3333333333333</ele><time>2026-05-01T08:10:49.483Z</time></trkpt><trkpt lat="45.52941" lon="10.4846667"><ele>301.0</ele><time>2026-05-01T08:10:56.484Z</time></trkpt><trkpt lat="45.5294867" lon="10.4846417"><ele>301.0</ele><time>2026-05-01T08:10:59.483Z</time></trkpt><trkpt lat="45.5295517" lon="10.48463"><ele>301.0</ele><time>2026-05-01T08:11:01.483Z</time></trkpt><trkpt lat="45.5296267" lon="10.4846133"><ele>301.0</ele><time>2026-05-01T08:11:03.483Z</time></trkpt><trkpt lat="45.5297133" lon="10.4846083"><ele>301.0</ele><time>2026-05-01T08:11:05.483Z</time></trkpt><trkpt lat="45.5298017" lon="10.4846183"><ele>301.0</ele><time>2026-05-01T08:11:07.483Z</time></trkpt><trkpt lat="45.5299" lon="10.48465"><ele>301.0</ele><time>2026-05-01T08:11:09.483Z</time></trkpt><trkpt lat="45.5299667" lon="10.48469"><ele>299.66666666666663</ele><time>2026-05-01T08:11:11.483Z</time></trkpt><trkpt lat="45.53003" lon="10.48472"><ele>298.3333333333333</ele><time>2026-05-01T08:11:13.483Z</time></trkpt><trkpt lat="45.53009" lon="10.4846817"><ele>297.0</ele><time>2026-05-01T08:11:15.483Z</time></trkpt><trkpt lat="45.530165" lon="10.4846283"><ele>295.6666666666667</ele><time>2026-05-01T08:11:18.483Z</time></trkpt><trkpt lat="45.5302733" lon="10.4846733"><ele>294.33333333333337</ele><time>2026-05-01T08:11:23.483Z</time></trkpt><trkpt lat="45.530345" lon="10.4847233"><ele>293.0</ele><time>2026-05-01T08:11:25.483Z</time></trkpt><trkpt lat="45.53042" lon="10.4847283"><ele>291.4</ele><time>2026-05-01T08:11:27.483Z</time></trkpt><trkpt lat="45.530515" lon="10.4847417"><ele>289.8</ele><time>2026-05-01T08:11:30.483Z</time></trkpt><trkpt lat="45.5306217" lon="10.48475"><ele>288.2</ele><time>2026-05-01T08:11:32.483Z</time></trkpt><trkpt lat="45.530695" lon="10.4847517"><ele>286.6</ele><time>2026-05-01T08:11:34.483Z</time></trkpt><trkpt lat="45.5308233" lon="10.484775"><ele>285.0</ele><time>2026-05-01T08:11:36.483Z</time></trkpt><trkpt lat="45.5308967" lon="10.4847917"><ele>285.0</ele><time>2026-05-01T08:11:37.483Z</time></trkpt><trkpt lat="45.5309583" lon="10.4848133"><ele>285.0</ele><time>2026-05-01T08:11:38.483Z</time></trkpt><trkpt lat="45.5310317" lon="10.4848383"><ele>285.0</ele><time>2026-05-01T08:11:39.483Z</time></trkpt><trkpt lat="45.5310967" lon="10.4848617"><ele>285.0</ele><time>2026-05-01T08:11:40.483Z</time></trkpt><trkpt lat="45.5311633" lon="10.4848917"><ele>285.0</ele><time>2026-05-01T08:11:41.483Z</time></trkpt><trkpt lat="45.5312417" lon="10.48493"><ele>285.0</ele><time>2026-05-01T08:11:42.483Z</time></trkpt><trkpt lat="45.531345" lon="10.48497"><ele>286.6</ele><time>2026-05-01T08:11:44.483Z</time></trkpt><trkpt lat="45.5314633" lon="10.4850383"><ele>288.2</ele><time>2026-05-01T08:11:46.483Z</time></trkpt><trkpt lat="45.5315717" lon="10.4851183"><ele>289.8</ele><time>2026-05-01T08:11:48.483Z</time></trkpt><trkpt lat="45.5316283" lon="10.4851717"><ele>291.4</ele><time>2026-05-01T08:11:49.483Z</time></trkpt><trkpt lat="45.53169" lon="10.4852167"><ele>293.0</ele><time>2026-05-01T08:11:50.483Z</time></trkpt><trkpt lat="45.53178" lon="10.4853283"><ele>293.0</ele><time>2026-05-01T08:11:52.483Z</time></trkpt><trkpt lat="45.531845" lon="10.4853867"><ele>293.0</ele><time>2026-05-01T08:11:53.483Z</time></trkpt><trkpt lat="45.53196" lon="10.4854833"><ele>293.0</ele><time>2026-05-01T08:11:55.483Z</time></trkpt><trkpt lat="45.5320267" lon="10.485535"><ele>293.0</ele><time>2026-05-01T08:11:56.483Z</time></trkpt><trkpt lat="45.532085" lon="10.4855717"><ele>293.0</ele><time>2026-05-01T08:11:57.483Z</time></trkpt><trkpt lat="45.5321783" lon="10.4855967"><ele>293.0</ele><time>2026-05-01T08:11:59.483Z</time></trkpt><trkpt lat="45.5322867" lon="10.4856533"><ele>293.2</ele><time>2026-05-01T08:12:01.483Z</time></trkpt><trkpt lat="45.5323483" lon="10.4856917"><ele>293.4</ele><time>2026-05-01T08:12:02.483Z</time></trkpt><trkpt lat="45.5324633" lon="10.4857517"><ele>293.59999999999997</ele><time>2026-05-01T08:12:04.483Z</time></trkpt><trkpt lat="45.5325367" lon="10.48576"><ele>293.8</ele><time>2026-05-01T08:12:05.483Z</time></trkpt><trkpt lat="45.53262" lon="10.4857617"><ele>294.0</ele><time>2026-05-01T08:12:07.483Z</time></trkpt><trkpt lat="45.5327433" lon="10.48581"><ele>294.0</ele><time>2026-05-01T08:12:09.483Z</time></trkpt><trkpt lat="45.532835" lon="10.4858633"><ele>294.0</ele><time>2026-05-01T08:12:10.483Z</time></trkpt><trkpt lat="45.5329233" lon="10.4859217"><ele>294.0</ele><time>2026-05-01T08:12:11.483Z</time></trkpt><trkpt lat="45.5330117" lon="10.485975"><ele>294.0</ele><time>2026-05-01T08:12:12.483Z</time></trkpt><trkpt lat="45.5330983" lon="10.4860267"><ele>294.0</ele><time>2026-05-01T08:12:13.483Z</time></trkpt><trkpt lat="45.5331933" lon="10.4860783"><ele>293.4</ele><time>2026-05-01T08:12:14.484Z</time></trkpt><trkpt lat="45.53326" lon="10.4861183"><ele>292.79999999999995</ele><time>2026-05-01T08:12:15.483Z</time></trkpt><trkpt lat="45.5333667" lon="10.48618"><ele>292.20000000000005</ele><time>2026-05-01T08:12:17.483Z</time></trkpt><trkpt lat="45.53343" lon="10.48619"><ele>291.6</ele><time>2026-05-01T08:12:18.483Z</time></trkpt><trkpt lat="45.5335383" lon="10.486235"><ele>291.0</ele><time>2026-05-01T08:12:20.483Z</time></trkpt><trkpt lat="45.533655" lon="10.4862817"><ele>292.8</ele><time>2026-05-01T08:12:22.483Z</time></trkpt><trkpt lat="45.533755" lon="10.4863183"><ele>294.6</ele><time>2026-05-01T08:12:24.483Z</time></trkpt><trkpt lat="45.5338283" lon="10.486345"><ele>296.4</ele><time>2026-05-01T08:12:26.483Z</time></trkpt><trkpt lat="45.5339" lon="10.4863517"><ele>298.2</ele><time>2026-05-01T08:12:28.483Z</time></trkpt><trkpt lat="45.533975" lon="10.4863067"><ele>300.0</ele><time>2026-05-01T08:12:30.483Z</time></trkpt><trkpt lat="45.534105" lon="10.4862883"><ele>300.0</ele><time>2026-05-01T08:13:04.483Z</time></trkpt><trkpt lat="45.53415" lon="10.4863767"><ele>300.0</ele><time>2026-05-01T08:13:06.483Z</time></trkpt><trkpt lat="45.5342067" lon="10.4865033"><ele>300.0</ele><time>2026-05-01T08:13:08.483Z</time></trkpt><trkpt lat="45.5342867" lon="10.486605"><ele>300.0</ele><time>2026-05-01T08:13:10.483Z</time></trkpt><trkpt lat="45.534395" lon="10.4866633"><ele>300.0</ele><time>2026-05-01T08:13:12.483Z</time></trkpt><trkpt lat="45.5344783" lon="10.486705"><ele>303.6</ele><time>2026-05-01T08:13:14.483Z</time></trkpt><trkpt lat="45.5345717" lon="10.48675"><ele>307.2</ele><time>2026-05-01T08:13:16.483Z</time></trkpt><trkpt lat="45.5346583" lon="10.4867783"><ele>310.8</ele><time>2026-05-01T08:13:18.483Z</time></trkpt><trkpt lat="45.53475" lon="10.4867917"><ele>314.4</ele><time>2026-05-01T08:13:20.483Z</time></trkpt><trkpt lat="45.534835" lon="10.486805"><ele>318.0</ele><time>2026-05-01T08:13:22.483Z</time></trkpt><trkpt lat="45.5349233" lon="10.4868167"><ele>318.0</ele><time>2026-05-01T08:13:24.483Z</time></trkpt><trkpt lat="45.53506" lon="10.48682"><ele>318.0</ele><time>2026-05-01T08:13:43.483Z</time></trkpt><trkpt lat="45.5351383" lon="10.486815"><ele>318.0</ele><time>2026-05-01T08:13:46.483Z</time></trkpt><trkpt lat="45.535215" lon="10.4868383"><ele>318.0</ele><time>2026-05-01T08:13:48.483Z</time></trkpt><trkpt lat="45.5352833" lon="10.486865"><ele>318.0</ele><time>2026-05-01T08:13:50.483Z</time></trkpt><trkpt lat="45.535355" lon="10.4868767"><ele>318.0</ele><time>2026-05-01T08:13:52.483Z</time></trkpt><trkpt lat="45.5354283" lon="10.4868783"><ele>320.1666666666667</ele><time>2026-05-01T08:13:54.484Z</time></trkpt><trkpt lat="45.53552" lon="10.4869017"><ele>322.3333333333333</ele><time>2026-05-01T08:13:57.483Z</time></trkpt><trkpt lat="45.5355917" lon="10.4868917"><ele>324.5</ele><time>2026-05-01T08:13:59.483Z</time></trkpt><trkpt lat="45.5356983" lon="10.4868717"><ele>326.66666666666663</ele><time>2026-05-01T08:14:01.483Z</time></trkpt><trkpt lat="45.5357833" lon="10.4868533"><ele>328.8333333333333</ele><time>2026-05-01T08:14:03.483Z</time></trkpt><trkpt lat="45.5358583" lon="10.486865"><ele>331.0</ele><time>2026-05-01T08:14:05.483Z</time></trkpt><trkpt lat="45.5359317" lon="10.4868867"><ele>331.0</ele><time>2026-05-01T08:14:08.484Z</time></trkpt><trkpt lat="45.53603" lon="10.4869233"><ele>331.0</ele><time>2026-05-01T08:14:11.483Z</time></trkpt><trkpt lat="45.5361083" lon="10.4869633"><ele>331.0</ele><time>2026-05-01T08:14:13.483Z</time></trkpt><trkpt lat="45.5361733" lon="10.48703"><ele>331.0</ele><time>2026-05-01T08:14:15.483Z</time></trkpt><trkpt lat="45.5362433" lon="10.4871433"><ele>331.0</ele><time>2026-05-01T08:14:17.483Z</time></trkpt><trkpt lat="45.536305" lon="10.4872783"><ele>331.66666666666663</ele><time>2026-05-01T08:14:19.483Z</time></trkpt><trkpt lat="45.5363467" lon="10.487375"><ele>332.3333333333333</ele><time>2026-05-01T08:14:22.483Z</time></trkpt><trkpt lat="45.5363833" lon="10.4874817"><ele>333.0</ele><time>2026-05-01T08:14:46.483Z</time></trkpt><trkpt lat="45.5364117" lon="10.48738"><ele>333.6666666666667</ele><time>2026-05-01T08:14:53.483Z</time></trkpt><trkpt lat="45.536365" lon="10.4872733"><ele>334.33333333333337</ele><time>2026-05-01T08:14:56.483Z</time></trkpt><trkpt lat="45.536345" lon="10.4871867"><ele>335.0</ele><time>2026-05-01T08:14:58.483Z</time></trkpt><trkpt lat="45.53631" lon="10.487085"><ele>335.33333333333337</ele><time>2026-05-01T08:15:00.484Z</time></trkpt><trkpt lat="45.53629" lon="10.4869967"><ele>335.6666666666667</ele><time>2026-05-01T08:15:14.483Z</time></trkpt><trkpt lat="45.5363167" lon="10.4868733"><ele>336.0</ele><time>2026-05-01T08:15:17.483Z</time></trkpt><trkpt lat="45.5363517" lon="10.4867967"><ele>336.3333333333333</ele><time>2026-05-01T08:15:19.484Z</time></trkpt><trkpt lat="45.5364017" lon="10.4867267"><ele>336.66666666666663</ele><time>2026-05-01T08:15:21.483Z</time></trkpt><trkpt lat="45.5364517" lon="10.4866467"><ele>337.0</ele><time>2026-05-01T08:15:23.484Z</time></trkpt><trkpt lat="45.5365317" lon="10.486585"><ele>337.0</ele><time>2026-05-01T08:15:27.483Z</time></trkpt><trkpt lat="45.536595" lon="10.4865233"><ele>337.0</ele><time>2026-05-01T08:15:29.483Z</time></trkpt><trkpt lat="45.5366583" lon="10.4864883"><ele>337.0</ele><time>2026-05-01T08:15:32.483Z</time></trkpt><trkpt lat="45.536735" lon="10.4864917"><ele>337.0</ele><time>2026-05-01T08:15:34.483Z</time></trkpt><trkpt lat="45.5368233" lon="10.4864833"><ele>337.0</ele><time>2026-05-01T08:15:36.483Z</time></trkpt><trkpt lat="45.536895" lon="10.4864717"><ele>337.0</ele><time>2026-05-01T08:15:38.484Z</time></trkpt><trkpt lat="45.53698" lon="10.48646"><ele>335.6</ele><time>2026-05-01T08:15:40.484Z</time></trkpt><trkpt lat="45.5370717" lon="10.4863783"><ele>334.20000000000005</ele><time>2026-05-01T08:15:42.483Z</time></trkpt><trkpt lat="45.5371317" lon="10.4862333"><ele>332.8</ele><time>2026-05-01T08:15:44.483Z</time></trkpt><trkpt lat="45.537165" lon="10.48611"><ele>331.4</ele><time>2026-05-01T08:15:46.483Z</time></trkpt><trkpt lat="45.537205" lon="10.486"><ele>330.0</ele><time>2026-05-01T08:15:49.483Z</time></trkpt><trkpt lat="45.5372683" lon="10.4859283"><ele>329.5</ele><time>2026-05-01T08:15:51.484Z</time></trkpt><trkpt lat="45.5373183" lon="10.485845"><ele>329.0</ele><time>2026-05-01T08:15:53.483Z</time></trkpt><trkpt lat="45.5373483" lon="10.4857067"><ele>328.5</ele><time>2026-05-01T08:15:55.483Z</time></trkpt><trkpt lat="45.5373667" lon="10.485565"><ele>328.0</ele><time>2026-05-01T08:15:57.483Z</time></trkpt><trkpt lat="45.5374" lon="10.4854867"><ele>327.5</ele><time>2026-05-01T08:15:59.483Z</time></trkpt><trkpt lat="45.5374733" lon="10.4855633"><ele>327.0</ele><time>2026-05-01T08:16:02.484Z</time></trkpt><trkpt lat="45.5375517" lon="10.4856917"><ele>327.0</ele><time>2026-05-01T08:16:04.484Z</time></trkpt><trkpt lat="45.53762" lon="10.4858233"><ele>327.0</ele><time>2026-05-01T08:16:06.483Z</time></trkpt><trkpt lat="45.5376817" lon="10.4859283"><ele>327.0</ele><time>2026-05-01T08:16:08.483Z</time></trkpt><trkpt lat="45.5377567" lon="10.4860583"><ele>327.0</ele><time>2026-05-01T08:16:10.483Z</time></trkpt><trkpt lat="45.53779" lon="10.4861683"><ele>327.0</ele><time>2026-05-01T08:16:12.483Z</time></trkpt><trkpt lat="45.5378333" lon="10.4862983"><ele>327.5</ele><time>2026-05-01T08:16:14.483Z</time></trkpt><trkpt lat="45.53788" lon="10.4863783"><ele>328.0</ele><time>2026-05-01T08:16:16.483Z</time></trkpt><trkpt lat="45.53794" lon="10.4864167"><ele>328.5</ele><time>2026-05-01T08:16:19.483Z</time></trkpt><trkpt lat="45.5380183" lon="10.4864217"><ele>329.0</ele><time>2026-05-01T08:16:21.483Z</time></trkpt><trkpt lat="45.5381033" lon="10.4864483"><ele>329.5</ele><time>2026-05-01T08:16:23.483Z</time></trkpt><trkpt lat="45.5381983" lon="10.486535"><ele>330.0</ele><time>2026-05-01T08:16:25.483Z</time></trkpt><trkpt lat="45.5382567" lon="10.4865967"><ele>327.1666666666667</ele><time>2026-05-01T08:16:26.484Z</time></trkpt><trkpt lat="45.5383117" lon="10.4866533"><ele>324.3333333333333</ele><time>2026-05-01T08:16:27.484Z</time></trkpt><trkpt lat="45.538365" lon="10.48672"><ele>321.5</ele><time>2026-05-01T08:16:28.483Z</time></trkpt><trkpt lat="45.5384133" lon="10.48679"><ele>318.66666666666663</ele><time>2026-05-01T08:16:29.483Z</time></trkpt><trkpt lat="45.53846" lon="10.486855"><ele>315.8333333333333</ele><time>2026-05-01T08:16:30.483Z</time></trkpt><trkpt lat="45.5385567" lon="10.486965"><ele>313.0</ele><time>2026-05-01T08:16:32.483Z</time></trkpt><trkpt lat="45.5386267" lon="10.4870833"><ele>311.8</ele><time>2026-05-01T08:16:34.483Z</time></trkpt><trkpt lat="45.5386717" lon="10.4871533"><ele>310.6</ele><time>2026-05-01T08:16:35.484Z</time></trkpt><trkpt lat="45.538715" lon="10.48723"><ele>309.4</ele><time>2026-05-01T08:16:36.483Z</time></trkpt><trkpt lat="45.5387767" lon="10.487325"><ele>308.2</ele><time>2026-05-01T08:16:37.483Z</time></trkpt><trkpt lat="45.5388467" lon="10.4874433"><ele>307.0</ele><time>2026-05-01T08:16:38.484Z</time></trkpt><trkpt lat="45.538915" lon="10.48758"><ele>306.0</ele><time>2026-05-01T08:16:39.483Z</time></trkpt><trkpt lat="45.53897" lon="10.4877133"><ele>305.0</ele><time>2026-05-01T08:16:40.483Z</time></trkpt><trkpt lat="45.5390067" lon="10.4878467"><ele>304.0</ele><time>2026-05-01T08:16:41.483Z</time></trkpt><trkpt lat="45.5390467" lon="10.4879933"><ele>303.0</ele><time>2026-05-01T08:16:42.483Z</time></trkpt><trkpt lat="45.5390867" lon="10.48814"><ele>302.0</ele><time>2026-05-01T08:16:43.483Z</time></trkpt><trkpt lat="45.5391217" lon="10.4882967"><ele>301.75</ele><time>2026-05-01T08:16:44.483Z</time></trkpt><trkpt lat="45.539175" lon="10.48845"><ele>301.5</ele><time>2026-05-01T08:16:45.483Z</time></trkpt><trkpt lat="45.5392483" lon="10.4886067"><ele>301.25</ele><time>2026-05-01T08:16:46.483Z</time></trkpt><trkpt lat="45.53934" lon="10.48873"><ele>301.0</ele><time>2026-05-01T08:16:47.483Z</time></trkpt><trkpt lat="45.5394383" lon="10.4888283"><ele>301.0</ele><time>2026-05-01T08:16:48.483Z</time></trkpt><trkpt lat="45.53955" lon="10.4888967"><ele>301.0</ele><time>2026-05-01T08:16:49.483Z</time></trkpt><trkpt lat="45.5396567" lon="10.488955"><ele>301.0</ele><time>2026-05-01T08:16:50.482Z</time></trkpt><trkpt lat="45.5397567" lon="10.489"><ele>301.0</ele><time>2026-05-01T08:16:51.482Z</time></trkpt><trkpt lat="45.5398533" lon="10.48904"><ele>301.0</ele><time>2026-05-01T08:16:52.482Z</time></trkpt><trkpt lat="45.5399483" lon="10.4890683"><ele>300.0</ele><time>2026-05-01T08:16:53.482Z</time></trkpt><trkpt lat="45.5400283" lon="10.4890983"><ele>299.0</ele><time>2026-05-01T08:16:54.482Z</time></trkpt><trkpt lat="45.54013" lon="10.4891383"><ele>298.0</ele><time>2026-05-01T08:16:56.482Z</time></trkpt><trkpt lat="45.5401483" lon="10.4892383"><ele>297.0</ele><time>2026-05-01T08:16:58.483Z</time></trkpt><trkpt lat="45.540115" lon="10.4894033"><ele>296.0</ele><time>2026-05-01T08:17:00.482Z</time></trkpt><trkpt lat="45.5400867" lon="10.4895217"><ele>296.8</ele><time>2026-05-01T08:17:01.482Z</time></trkpt><trkpt lat="45.540065" lon="10.489675"><ele>297.6</ele><time>2026-05-01T08:17:02.482Z</time></trkpt><trkpt lat="45.540045" lon="10.4898267"><ele>298.4</ele><time>2026-05-01T08:17:03.482Z</time></trkpt><trkpt lat="45.5400117" lon="10.4899467"><ele>299.2</ele><time>2026-05-01T08:17:04.482Z</time></trkpt><trkpt lat="45.5399667" lon="10.4900633"><ele>300.0</ele><time>2026-05-01T08:17:05.482Z</time></trkpt><trkpt lat="45.5399083" lon="10.4901783"><ele>300.0</ele><time>2026-05-01T08:17:06.482Z</time></trkpt><trkpt lat="45.5398417" lon="10.4902967"><ele>300.0</ele><time>2026-05-01T08:17:07.482Z</time></trkpt><trkpt lat="45.5397767" lon="10.4904117"><ele>300.0</ele><time>2026-05-01T08:17:08.482Z</time></trkpt><trkpt lat="45.5397183" lon="10.490515"><ele>300.0</ele><time>2026-05-01T08:17:09.482Z</time></trkpt><trkpt lat="45.53967" lon="10.490605"><ele>300.0</ele><time>2026-05-01T08:17:10.482Z</time></trkpt><trkpt lat="45.539635" lon="10.49069"><ele>300.1666666666667</ele><time>2026-05-01T08:17:11.482Z</time></trkpt><trkpt lat="45.53961" lon="10.49083"><ele>300.3333333333333</ele><time>2026-05-01T08:17:13.483Z</time></trkpt><trkpt lat="45.5396867" lon="10.49093"><ele>300.5</ele><time>2026-05-01T08:17:15.482Z</time></trkpt><trkpt lat="45.5397533" lon="10.4909717"><ele>300.66666666666663</ele><time>2026-05-01T08:17:16.482Z</time></trkpt><trkpt lat="45.5398183" lon="10.491025"><ele>300.8333333333333</ele><time>2026-05-01T08:17:17.482Z</time></trkpt><trkpt lat="45.539895" lon="10.4910717"><ele>301.0</ele><time>2026-05-01T08:17:18.482Z</time></trkpt><trkpt lat="45.5399617" lon="10.491135"><ele>301.0</ele><time>2026-05-01T08:17:19.482Z</time></trkpt><trkpt lat="45.5400333" lon="10.4912017"><ele>301.0</ele><time>2026-05-01T08:17:20.482Z</time></trkpt><trkpt lat="45.5401033" lon="10.49126"><ele>301.0</ele><time>2026-05-01T08:17:21.482Z</time></trkpt><trkpt lat="45.54017" lon="10.491315"><ele>301.0</ele><time>2026-05-01T08:17:22.482Z</time></trkpt><trkpt lat="45.54023" lon="10.491365"><ele>301.0</ele><time>2026-05-01T08:17:23.482Z</time></trkpt><trkpt lat="45.5402817" lon="10.4914183"><ele>301.0</ele><time>2026-05-01T08:17:24.482Z</time></trkpt><trkpt lat="45.5403217" lon="10.4914933"><ele>301.0</ele><time>2026-05-01T08:17:25.482Z</time></trkpt><trkpt lat="45.5403433" lon="10.49158"><ele>299.5</ele><time>2026-05-01T08:17:26.482Z</time></trkpt><trkpt lat="45.5403433" lon="10.49167"><ele>298.0</ele><time>2026-05-01T08:17:27.482Z</time></trkpt><trkpt lat="45.540335" lon="10.4918317"><ele>296.5</ele><time>2026-05-01T08:17:29.482Z</time></trkpt><trkpt lat="45.5403117" lon="10.4919167"><ele>295.0</ele><time>2026-05-01T08:17:31.483Z</time></trkpt><trkpt lat="45.54024" lon="10.4919533"><ele>293.5</ele><time>2026-05-01T08:17:36.482Z</time></trkpt><trkpt lat="45.5401917" lon="10.4920167"><ele>292.0</ele><time>2026-05-01T08:17:42.483Z</time></trkpt><trkpt lat="45.5403267" lon="10.492"><ele>291.6</ele><time>2026-05-01T08:36:31.48Z</time></trkpt><trkpt lat="45.5404083" lon="10.49199"><ele>291.2</ele><time>2026-05-01T08:36:42.48Z</time></trkpt><trkpt lat="45.540525" lon="10.492"><ele>290.8</ele><time>2026-05-01T08:36:44.48Z</time></trkpt><trkpt lat="45.5406167" lon="10.4920083"><ele>290.4</ele><time>2026-05-01T08:36:45.48Z</time></trkpt><trkpt lat="45.5407183" lon="10.49203"><ele>290.0</ele><time>2026-05-01T08:36:46.48Z</time></trkpt><trkpt lat="45.5408417" lon="10.4920517"><ele>290.0</ele><time>2026-05-01T08:36:47.48Z</time></trkpt><trkpt lat="45.5409683" lon="10.4920683"><ele>290.0</ele><time>2026-05-01T08:36:48.48Z</time></trkpt><trkpt lat="45.5410767" lon="10.4920833"><ele>290.0</ele><time>2026-05-01T08:36:49.48Z</time></trkpt><trkpt lat="45.541175" lon="10.492095"><ele>290.0</ele><time>2026-05-01T08:36:50.48Z</time></trkpt><trkpt lat="45.5412717" lon="10.4921"><ele>290.0</ele><time>2026-05-01T08:36:51.48Z</time></trkpt><trkpt lat="45.5413483" lon="10.4921217"><ele>289.6666666666667</ele><time>2026-05-01T08:36:52.48Z</time></trkpt><trkpt lat="45.54141" lon="10.4921517"><ele>289.33333333333337</ele><time>2026-05-01T08:36:53.48Z</time></trkpt><trkpt lat="45.5415033" lon="10.4922117"><ele>289.0</ele><time>2026-05-01T08:36:55.48Z</time></trkpt><trkpt lat="45.5415917" lon="10.4921817"><ele>288.6666666666667</ele><time>2026-05-01T08:36:57.481Z</time></trkpt><trkpt lat="45.5416567" lon="10.492125"><ele>288.3333333333333</ele><time>2026-05-01T08:36:59.48Z</time></trkpt><trkpt lat="45.54173" lon="10.4920617"><ele>288.0</ele><time>2026-05-01T08:37:01.48Z</time></trkpt><trkpt lat="45.5418383" lon="10.4919733"><ele>288.0</ele><time>2026-05-01T08:37:03.48Z</time></trkpt><trkpt lat="45.5418917" lon="10.491925"><ele>288.0</ele><time>2026-05-01T08:37:04.48Z</time></trkpt><trkpt lat="45.5419983" lon="10.4918517"><ele>288.0</ele><time>2026-05-01T08:37:06.48Z</time></trkpt><trkpt lat="45.54209" lon="10.4918333"><ele>288.0</ele><time>2026-05-01T08:37:08.48Z</time></trkpt><trkpt lat="45.5422167" lon="10.4918033"><ele>288.0</ele><time>2026-05-01T08:37:10.48Z</time></trkpt><trkpt lat="45.54228" lon="10.49179"><ele>288.0</ele><time>2026-05-01T08:37:11.48Z</time></trkpt><trkpt lat="45.5423433" lon="10.49179"><ele>288.0</ele><time>2026-05-01T08:37:12.48Z</time></trkpt><trkpt lat="45.542465" lon="10.4918"><ele>288.0</ele><time>2026-05-01T08:37:14.48Z</time></trkpt><trkpt lat="45.5426067" lon="10.4918033"><ele>288.0</ele><time>2026-05-01T08:37:16.48Z</time></trkpt><trkpt lat="45.5426933" lon="10.4918033"><ele>288.0</ele><time>2026-05-01T08:37:17.481Z</time></trkpt><trkpt lat="45.5427767" lon="10.4918133"><ele>288.0</ele><time>2026-05-01T08:37:18.48Z</time></trkpt><trkpt lat="45.5428483" lon="10.4918383"><ele>288.0</ele><time>2026-05-01T08:37:19.48Z</time></trkpt><trkpt lat="45.54292" lon="10.4918717"><ele>288.0</ele><time>2026-05-01T08:37:20.481Z</time></trkpt><trkpt lat="45.5429933" lon="10.491885"><ele>288.0</ele><time>2026-05-01T08:37:21.48Z</time></trkpt><trkpt lat="45.54307" lon="10.4918733"><ele>288.0</ele><time>2026-05-01T08:37:22.48Z</time></trkpt><trkpt lat="45.5431667" lon="10.491825"><ele>288.0</ele><time>2026-05-01T08:37:23.48Z</time></trkpt><trkpt lat="45.5432583" lon="10.491775"><ele>286.6666666666667</ele><time>2026-05-01T08:37:24.48Z</time></trkpt><trkpt lat="45.54334" lon="10.4917233"><ele>285.3333333333333</ele><time>2026-05-01T08:37:25.481Z</time></trkpt><trkpt lat="45.543395" lon="10.4916767"><ele>284.0</ele><time>2026-05-01T08:37:26.48Z</time></trkpt><trkpt lat="45.5434533" lon="10.4916167"><ele>282.66666666666663</ele><time>2026-05-01T08:37:28.48Z</time></trkpt><trkpt lat="45.5434967" lon="10.4915367"><ele>281.3333333333333</ele><time>2026-05-01T08:37:32.48Z</time></trkpt><trkpt lat="45.5435667" lon="10.491445"><ele>280.0</ele><time>2026-05-01T08:37:35.48Z</time></trkpt><trkpt lat="45.5436667" lon="10.491385"><ele>280.0</ele><time>2026-05-01T08:37:37.48Z</time></trkpt><trkpt lat="45.543725" lon="10.4913417"><ele>280.0</ele><time>2026-05-01T08:37:38.48Z</time></trkpt><trkpt lat="45.5437833" lon="10.4912967"><ele>280.0</ele><time>2026-05-01T08:37:39.48Z</time></trkpt><trkpt lat="45.5438783" lon="10.491215"><ele>280.0</ele><time>2026-05-01T08:37:41.481Z</time></trkpt><trkpt lat="45.5439433" lon="10.49117"><ele>280.0</ele><time>2026-05-01T08:37:43.48Z</time></trkpt><trkpt lat="45.5440067" lon="10.4911583"><ele>280.0</ele><time>2026-05-01T08:37:47.48Z</time></trkpt><trkpt lat="45.5440883" lon="10.4911033"><ele>280.0</ele><time>2026-05-01T08:37:50.48Z</time></trkpt><trkpt lat="45.5441533" lon="10.4911333"><ele>280.0</ele><time>2026-05-01T08:37:52.48Z</time></trkpt><trkpt lat="45.544215" lon="10.4911567"><ele>280.0</ele><time>2026-05-01T08:37:54.48Z</time></trkpt><trkpt lat="45.5442717" lon="10.4912133"><ele>280.0</ele><time>2026-05-01T08:37:56.48Z</time></trkpt><trkpt lat="45.544325" lon="10.4912833"><ele>280.0</ele><time>2026-05-01T08:37:58.48Z</time></trkpt><trkpt lat="45.5444" lon="10.4913283"><ele>280.0</ele><time>2026-05-01T08:38:00.48Z</time></trkpt><trkpt lat="45.5444617" lon="10.4913883"><ele>280.0</ele><time>2026-05-01T08:38:02.48Z</time></trkpt><trkpt lat="45.5445217" lon="10.4914233"><ele>277.6</ele><time>2026-05-01T08:38:04.48Z</time></trkpt><trkpt lat="45.5446083" lon="10.49145"><ele>275.2</ele><time>2026-05-01T08:38:06.48Z</time></trkpt><trkpt lat="45.54472" lon="10.4915133"><ele>272.8</ele><time>2026-05-01T08:38:08.48Z</time></trkpt><trkpt lat="45.5448233" lon="10.4915333"><ele>270.4</ele><time>2026-05-01T08:38:10.48Z</time></trkpt><trkpt lat="45.5448967" lon="10.49148"><ele>268.0</ele><time>2026-05-01T08:38:12.48Z</time></trkpt><trkpt lat="45.544965" lon="10.4914367"><ele>268.0</ele><time>2026-05-01T08:38:14.48Z</time></trkpt><trkpt lat="45.5450433" lon="10.4914333"><ele>268.0</ele><time>2026-05-01T08:38:16.479Z</time></trkpt><trkpt lat="45.5451483" lon="10.49148"><ele>268.0</ele><time>2026-05-01T08:38:18.479Z</time></trkpt><trkpt lat="45.54521" lon="10.4915083"><ele>268.0</ele><time>2026-05-01T08:38:19.479Z</time></trkpt><trkpt lat="45.5452833" lon="10.4915367"><ele>268.0</ele><time>2026-05-01T08:38:20.479Z</time></trkpt><trkpt lat="45.54537" lon="10.49158"><ele>268.0</ele><time>2026-05-01T08:38:21.479Z</time></trkpt><trkpt lat="45.54547" lon="10.49163"><ele>267.5</ele><time>2026-05-01T08:38:22.48Z</time></trkpt><trkpt lat="45.5455867" lon="10.49169"><ele>267.0</ele><time>2026-05-01T08:38:23.479Z</time></trkpt><trkpt lat="45.545705" lon="10.4917517"><ele>266.5</ele><time>2026-05-01T08:38:24.48Z</time></trkpt><trkpt lat="45.5458217" lon="10.4918083"><ele>266.0</ele><time>2026-05-01T08:38:25.479Z</time></trkpt><trkpt lat="45.5459333" lon="10.4918517"><ele>266.0</ele><time>2026-05-01T08:38:26.479Z</time></trkpt><trkpt lat="45.5460233" lon="10.491895"><ele>266.0</ele><time>2026-05-01T08:38:27.48Z</time></trkpt><trkpt lat="45.546085" lon="10.49193"><ele>266.0</ele><time>2026-05-01T08:38:28.479Z</time></trkpt><trkpt lat="45.5461567" lon="10.4919483"><ele>266.0</ele><time>2026-05-01T08:38:30.479Z</time></trkpt><trkpt lat="45.54624" lon="10.4918867"><ele>266.0</ele><time>2026-05-01T08:38:33.48Z</time></trkpt><trkpt lat="45.5463267" lon="10.4917483"><ele>266.6666666666667</ele><time>2026-05-01T08:38:35.48Z</time></trkpt><trkpt lat="45.5463717" lon="10.4916833"><ele>267.33333333333337</ele><time>2026-05-01T08:38:36.479Z</time></trkpt><trkpt lat="45.5464233" lon="10.4916083"><ele>268.0</ele><time>2026-05-01T08:38:38.479Z</time></trkpt><trkpt lat="45.5464717" lon="10.4915367"><ele>268.6666666666667</ele><time>2026-05-01T08:38:41.479Z</time></trkpt><trkpt lat="45.5465233" lon="10.49144"><ele>269.3333333333333</ele><time>2026-05-01T08:38:49.479Z</time></trkpt><trkpt lat="45.5465783" lon="10.4913317"><ele>270.0</ele><time>2026-05-01T08:38:51.479Z</time></trkpt><trkpt lat="45.5466217" lon="10.49123"><ele>270.0</ele><time>2026-05-01T08:38:53.479Z</time></trkpt><trkpt lat="45.5466717" lon="10.491155"><ele>270.0</ele><time>2026-05-01T08:38:55.479Z</time></trkpt><trkpt lat="45.546725" lon="10.4910867"><ele>270.0</ele><time>2026-05-01T08:38:57.48Z</time></trkpt><trkpt lat="45.5468167" lon="10.4910033"><ele>270.0</ele><time>2026-05-01T08:38:59.479Z</time></trkpt><trkpt lat="45.546875" lon="10.4909433"><ele>270.0</ele><time>2026-05-01T08:39:00.479Z</time></trkpt><trkpt lat="45.5469383" lon="10.4908717"><ele>270.0</ele><time>2026-05-01T08:39:01.48Z</time></trkpt><trkpt lat="45.5469933" lon="10.4908117"><ele>270.0</ele><time>2026-05-01T08:39:02.479Z</time></trkpt><trkpt lat="45.5470367" lon="10.49074"><ele>270.0</ele><time>2026-05-01T08:39:03.48Z</time></trkpt><trkpt lat="45.54708" lon="10.4906567"><ele>270.0</ele><time>2026-05-01T08:39:04.479Z</time></trkpt><trkpt lat="45.5471333" lon="10.4905583"><ele>270.0</ele><time>2026-05-01T08:39:05.479Z</time></trkpt><trkpt lat="45.547175" lon="10.490465"><ele>270.0</ele><time>2026-05-01T08:39:06.479Z</time></trkpt><trkpt lat="45.5472317" lon="10.4902917"><ele>270.0</ele><time>2026-05-01T08:39:08.479Z</time></trkpt><trkpt lat="45.547295" lon="10.4901483"><ele>270.6666666666667</ele><time>2026-05-01T08:39:10.479Z</time></trkpt><trkpt lat="45.5473367" lon="10.4900517"><ele>271.3333333333333</ele><time>2026-05-01T08:39:11.479Z</time></trkpt><trkpt lat="45.5473683" lon="10.48997"><ele>272.0</ele><time>2026-05-01T08:39:12.479Z</time></trkpt><trkpt lat="45.54741" lon="10.4898733"><ele>272.66666666666663</ele><time>2026-05-01T08:39:13.479Z</time></trkpt><trkpt lat="45.54747" lon="10.4897733"><ele>273.3333333333333</ele><time>2026-05-01T08:39:14.479Z</time></trkpt><trkpt lat="45.5475183" lon="10.4896817"><ele>274.0</ele><time>2026-05-01T08:39:15.479Z</time></trkpt><trkpt lat="45.5475667" lon="10.4895917"><ele>274.0</ele><time>2026-05-01T08:39:16.479Z</time></trkpt><trkpt lat="45.5476033" lon="10.48951"><ele>274.0</ele><time>2026-05-01T08:39:17.479Z</time></trkpt><trkpt lat="45.54767" lon="10.4893533"><ele>274.0</ele><time>2026-05-01T08:39:19.479Z</time></trkpt><trkpt lat="45.5477167" lon="10.4892767"><ele>274.0</ele><time>2026-05-01T08:39:20.48Z</time></trkpt><trkpt lat="45.5477567" lon="10.4892"><ele>274.0</ele><time>2026-05-01T08:39:21.479Z</time></trkpt><trkpt lat="45.5477933" lon="10.4891183"><ele>274.0</ele><time>2026-05-01T08:39:22.479Z</time></trkpt><trkpt lat="45.5478383" lon="10.4890317"><ele>274.0</ele><time>2026-05-01T08:39:23.479Z</time></trkpt><trkpt lat="45.547875" lon="10.4889333"><ele>274.0</ele><time>2026-05-01T08:39:24.479Z</time></trkpt><trkpt lat="45.5479117" lon="10.4888267"><ele>274.0</ele><time>2026-05-01T08:39:25.479Z</time></trkpt><trkpt lat="45.5479417" lon="10.4887183"><ele>274.0</ele><time>2026-05-01T08:39:26.48Z</time></trkpt><trkpt lat="45.5479717" lon="10.4886017"><ele>274.0</ele><time>2026-05-01T08:39:27.479Z</time></trkpt><trkpt lat="45.5479967" lon="10.488485"><ele>274.0</ele><time>2026-05-01T08:39:28.48Z</time></trkpt><trkpt lat="45.548025" lon="10.4883733"><ele>271.66666666666663</ele><time>2026-05-01T08:39:29.479Z</time></trkpt><trkpt lat="45.5480517" lon="10.4882717"><ele>269.3333333333333</ele><time>2026-05-01T08:39:30.479Z</time></trkpt><trkpt lat="45.5480817" lon="10.4881667"><ele>267.0</ele><time>2026-05-01T08:39:31.479Z</time></trkpt><trkpt lat="45.5481133" lon="10.4880483"><ele>264.6666666666667</ele><time>2026-05-01T08:39:32.479Z</time></trkpt><trkpt lat="45.5481367" lon="10.4879167"><ele>262.33333333333337</ele><time>2026-05-01T08:39:33.479Z</time></trkpt><trkpt lat="45.5481583" lon="10.48779"><ele>260.0</ele><time>2026-05-01T08:39:34.479Z</time></trkpt><trkpt lat="45.54818" lon="10.4876583"><ele>260.0</ele><time>2026-05-01T08:39:35.479Z</time></trkpt><trkpt lat="45.5482" lon="10.487535"><ele>260.0</ele><time>2026-05-01T08:39:36.479Z</time></trkpt><trkpt lat="45.5482267" lon="10.487405"><ele>260.0</ele><time>2026-05-01T08:39:37.479Z</time></trkpt><trkpt lat="45.548255" lon="10.4872783"><ele>260.0</ele><time>2026-05-01T08:39:38.479Z</time></trkpt><trkpt lat="45.5482783" lon="10.48716"><ele>260.0</ele><time>2026-05-01T08:39:39.479Z</time></trkpt><trkpt lat="45.5483117" lon="10.4870417"><ele>261.8</ele><time>2026-05-01T08:39:40.479Z</time></trkpt><trkpt lat="45.54835" lon="10.4869117"><ele>263.6</ele><time>2026-05-01T08:39:41.479Z</time></trkpt><trkpt lat="45.54839" lon="10.486775"><ele>265.4</ele><time>2026-05-01T08:39:42.479Z</time></trkpt><trkpt lat="45.54843" lon="10.4866267"><ele>267.2</ele><time>2026-05-01T08:39:43.479Z</time></trkpt><trkpt lat="45.5484633" lon="10.4864767"><ele>269.0</ele><time>2026-05-01T08:39:44.479Z</time></trkpt><trkpt lat="45.548505" lon="10.4863317"><ele>271.75</ele><time>2026-05-01T08:39:45.48Z</time></trkpt><trkpt lat="45.54856" lon="10.486185"><ele>274.5</ele><time>2026-05-01T08:39:46.479Z</time></trkpt><trkpt lat="45.5486217" lon="10.4860383"><ele>277.25</ele><time>2026-05-01T08:39:47.479Z</time></trkpt><trkpt lat="45.5486917" lon="10.4859017"><ele>280.0</ele><time>2026-05-01T08:39:48.479Z</time></trkpt><trkpt lat="45.5487533" lon="10.4857867"><ele>277.3333333333333</ele><time>2026-05-01T08:39:49.48Z</time></trkpt><trkpt lat="45.5488117" lon="10.4856883"><ele>274.66666666666663</ele><time>2026-05-01T08:39:50.479Z</time></trkpt><trkpt lat="45.5488717" lon="10.485595"><ele>272.0</ele><time>2026-05-01T08:39:51.479Z</time></trkpt><trkpt lat="45.548915" lon="10.485485"><ele>269.3333333333333</ele><time>2026-05-01T08:39:52.479Z</time></trkpt><trkpt lat="45.548965" lon="10.4853617"><ele>266.6666666666667</ele><time>2026-05-01T08:39:53.479Z</time></trkpt><trkpt lat="45.5490083" lon="10.4852633"><ele>264.0</ele><time>2026-05-01T08:39:54.479Z</time></trkpt><trkpt lat="45.5490467" lon="10.48516"><ele>264.0</ele><time>2026-05-01T08:39:55.48Z</time></trkpt><trkpt lat="45.5490817" lon="10.4850617"><ele>264.0</ele><time>2026-05-01T08:39:56.479Z</time></trkpt><trkpt lat="45.5491117" lon="10.48498"><ele>264.0</ele><time>2026-05-01T08:39:57.48Z</time></trkpt><trkpt lat="45.5491583" lon="10.4848333"><ele>264.0</ele><time>2026-05-01T08:39:59.479Z</time></trkpt><trkpt lat="45.549185" lon="10.4847433"><ele>264.0</ele><time>2026-05-01T08:40:01.479Z</time></trkpt><trkpt lat="45.5492317" lon="10.4848583"><ele>264.0</ele><time>2026-05-01T08:40:05.479Z</time></trkpt><trkpt lat="45.54924" lon="10.4849933"><ele>264.0</ele><time>2026-05-01T08:40:07.479Z</time></trkpt><trkpt lat="45.5493267" lon="10.4851067"><ele>264.0</ele><time>2026-05-01T08:40:09.479Z</time></trkpt><trkpt lat="45.549425" lon="10.4851433"><ele>264.0</ele><time>2026-05-01T08:40:11.479Z</time></trkpt><trkpt lat="45.5495183" lon="10.4850983"><ele>264.0</ele><time>2026-05-01T08:40:13.479Z</time></trkpt><trkpt lat="45.549575" lon="10.48505"><ele>264.0</ele><time>2026-05-01T08:40:14.479Z</time></trkpt><trkpt lat="45.549645" lon="10.4849867"><ele>263.59999999999997</ele><time>2026-05-01T08:40:15.479Z</time></trkpt><trkpt lat="45.5497183" lon="10.4849167"><ele>263.2</ele><time>2026-05-01T08:40:16.48Z</time></trkpt><trkpt lat="45.549815" lon="10.4848383"><ele>262.79999999999995</ele><time>2026-05-01T08:40:17.479Z</time></trkpt><trkpt lat="45.5499167" lon="10.484735"><ele>262.4</ele><time>2026-05-01T08:40:18.479Z</time></trkpt><trkpt lat="45.5500067" lon="10.484615"><ele>262.0</ele><time>2026-05-01T08:40:19.479Z</time></trkpt><trkpt lat="45.5500967" lon="10.4845033"><ele>262.0</ele><time>2026-05-01T08:40:20.48Z</time></trkpt><trkpt lat="45.55021" lon="10.484405"><ele>262.0</ele><time>2026-05-01T08:40:21.479Z</time></trkpt><trkpt lat="45.5503317" lon="10.484315"><ele>262.0</ele><time>2026-05-01T08:40:22.479Z</time></trkpt><trkpt lat="45.5504567" lon="10.4842367"><ele>262.0</ele><time>2026-05-01T08:40:23.479Z</time></trkpt><trkpt lat="45.5505667" lon="10.4841717"><ele>261.0</ele><time>2026-05-01T08:40:24.479Z</time></trkpt><trkpt lat="45.5506683" lon="10.4841217"><ele>260.0</ele><time>2026-05-01T08:40:25.479Z</time></trkpt><trkpt lat="45.5507517" lon="10.4840983"><ele>259.0</ele><time>2026-05-01T08:40:26.479Z</time></trkpt><trkpt lat="45.5508383" lon="10.4841183"><ele>258.0</ele><time>2026-05-01T08:40:27.479Z</time></trkpt><trkpt lat="45.550945" lon="10.4841783"><ele>257.0</ele><time>2026-05-01T08:40:28.479Z</time></trkpt><trkpt lat="45.55107" lon="10.4842567"><ele>259.0</ele><time>2026-05-01T08:40:29.479Z</time></trkpt><trkpt lat="45.55121" lon="10.48433"><ele>261.0</ele><time>2026-05-01T08:40:30.479Z</time></trkpt><trkpt lat="45.5513567" lon="10.4843883"><ele>263.0</ele><time>2026-05-01T08:40:31.479Z</time></trkpt><trkpt lat="45.551485" lon="10.4844333"><ele>265.0</ele><time>2026-05-01T08:40:32.479Z</time></trkpt><trkpt lat="45.5515983" lon="10.4844767"><ele>265.0</ele><time>2026-05-01T08:40:33.479Z</time></trkpt><trkpt lat="45.55171" lon="10.4845233"><ele>265.0</ele><time>2026-05-01T08:40:34.479Z</time></trkpt><trkpt lat="45.55182" lon="10.4845683"><ele>265.0</ele><time>2026-05-01T08:40:35.479Z</time></trkpt><trkpt lat="45.5519417" lon="10.48464"><ele>265.0</ele><time>2026-05-01T08:40:36.48Z</time></trkpt><trkpt lat="45.5520633" lon="10.4847167"><ele>264.25</ele><time>2026-05-01T08:40:37.479Z</time></trkpt><trkpt lat="45.552185" lon="10.484795"><ele>263.5</ele><time>2026-05-01T08:40:38.479Z</time></trkpt><trkpt lat="45.5523" lon="10.4848617"><ele>262.75</ele><time>2026-05-01T08:40:39.479Z</time></trkpt><trkpt lat="45.5524117" lon="10.4849067"><ele>262.0</ele><time>2026-05-01T08:40:40.479Z</time></trkpt><trkpt lat="45.5525133" lon="10.4849517"><ele>262.0</ele><time>2026-05-01T08:40:41.479Z</time></trkpt><trkpt lat="45.5525933" lon="10.4849717"><ele>262.0</ele><time>2026-05-01T08:40:42.479Z</time></trkpt><trkpt lat="45.5526917" lon="10.4849167"><ele>262.0</ele><time>2026-05-01T08:40:44.479Z</time></trkpt><trkpt lat="45.5527383" lon="10.48481"><ele>262.0</ele><time>2026-05-01T08:40:46.48Z</time></trkpt><trkpt lat="45.5527833" lon="10.4847467"><ele>262.0</ele><time>2026-05-01T08:40:48.479Z</time></trkpt><trkpt lat="45.552915" lon="10.48477"><ele>263.0</ele><time>2026-05-01T08:40:50.479Z</time></trkpt><trkpt lat="45.5530233" lon="10.4848017"><ele>264.0</ele><time>2026-05-01T08:40:51.479Z</time></trkpt><trkpt lat="45.553135" lon="10.4848517"><ele>265.0</ele><time>2026-05-01T08:40:52.479Z</time></trkpt><trkpt lat="45.553235" lon="10.484895"><ele>266.0</ele><time>2026-05-01T08:40:53.479Z</time></trkpt><trkpt lat="45.5533167" lon="10.484965"><ele>267.0</ele><time>2026-05-01T08:40:54.48Z</time></trkpt><trkpt lat="45.5533917" lon="10.4850567"><ele>267.0</ele><time>2026-05-01T08:40:55.479Z</time></trkpt><trkpt lat="45.553455" lon="10.4851483"><ele>267.0</ele><time>2026-05-01T08:40:56.48Z</time></trkpt><trkpt lat="45.553515" lon="10.4852617"><ele>267.0</ele><time>2026-05-01T08:40:57.479Z</time></trkpt><trkpt lat="45.55356" lon="10.485375"><ele>267.0</ele><time>2026-05-01T08:40:58.479Z</time></trkpt><trkpt lat="45.5536083" lon="10.4855117"><ele>267.0</ele><time>2026-05-01T08:40:59.479Z</time></trkpt><trkpt lat="45.553655" lon="10.4856417"><ele>267.0</ele><time>2026-05-01T08:41:00.479Z</time></trkpt><trkpt lat="45.5537067" lon="10.4857683"><ele>267.0</ele><time>2026-05-01T08:41:01.479Z</time></trkpt><trkpt lat="45.5537517" lon="10.4859083"><ele>267.0</ele><time>2026-05-01T08:41:02.479Z</time></trkpt><trkpt lat="45.5537917" lon="10.4860383"><ele>267.0</ele><time>2026-05-01T08:41:03.479Z</time></trkpt><trkpt lat="45.5538267" lon="10.4861717"><ele>267.0</ele><time>2026-05-01T08:41:04.479Z</time></trkpt><trkpt lat="45.553865" lon="10.4862917"><ele>267.0</ele><time>2026-05-01T08:41:05.479Z</time></trkpt><trkpt lat="45.5539067" lon="10.486415"><ele>267.0</ele><time>2026-05-01T08:41:06.479Z</time></trkpt><trkpt lat="45.55396" lon="10.4865383"><ele>267.0</ele><time>2026-05-01T08:41:07.479Z</time></trkpt><trkpt lat="45.554015" lon="10.4866617"><ele>267.0</ele><time>2026-05-01T08:41:08.479Z</time></trkpt><trkpt lat="45.55406" lon="10.4867683"><ele>267.0</ele><time>2026-05-01T08:41:09.479Z</time></trkpt><trkpt lat="45.5541" lon="10.486855"><ele>267.0</ele><time>2026-05-01T08:41:10.479Z</time></trkpt><trkpt lat="45.5541683" lon="10.4869617"><ele>267.0</ele><time>2026-05-01T08:41:12.479Z</time></trkpt><trkpt lat="45.5542217" lon="10.4870233"><ele>267.0</ele><time>2026-05-01T08:41:13.479Z</time></trkpt><trkpt lat="45.554285" lon="10.4870933"><ele>267.0</ele><time>2026-05-01T08:41:14.479Z</time></trkpt><trkpt lat="45.55437" lon="10.4871783"><ele>267.0</ele><time>2026-05-01T08:41:15.479Z</time></trkpt><trkpt lat="45.5544567" lon="10.48727"><ele>267.5</ele><time>2026-05-01T08:41:16.479Z</time></trkpt><trkpt lat="45.5545417" lon="10.487375"><ele>268.0</ele><time>2026-05-01T08:41:17.479Z</time></trkpt><trkpt lat="45.55464" lon="10.4874867"><ele>268.5</ele><time>2026-05-01T08:41:18.48Z</time></trkpt><trkpt lat="45.5547367" lon="10.487605"><ele>269.0</ele><time>2026-05-01T08:41:19.479Z</time></trkpt><trkpt lat="45.5548183" lon="10.4877383"><ele>269.0</ele><time>2026-05-01T08:41:20.479Z</time></trkpt><trkpt lat="45.554885" lon="10.487885"><ele>269.0</ele><time>2026-05-01T08:41:21.479Z</time></trkpt><trkpt lat="45.554945" lon="10.48803"><ele>269.0</ele><time>2026-05-01T08:41:22.479Z</time></trkpt><trkpt lat="45.554995" lon="10.4881467"><ele>269.0</ele><time>2026-05-01T08:41:23.479Z</time></trkpt><trkpt lat="45.5550417" lon="10.4882633"><ele>269.0</ele><time>2026-05-01T08:41:24.479Z</time></trkpt><trkpt lat="45.55509" lon="10.4883517"><ele>267.83333333333337</ele><time>2026-05-01T08:41:25.479Z</time></trkpt><trkpt lat="45.5551383" lon="10.48841"><ele>266.6666666666667</ele><time>2026-05-01T08:41:27.479Z</time></trkpt><trkpt lat="45.5551683" lon="10.488525"><ele>265.5</ele><time>2026-05-01T08:42:25.479Z</time></trkpt><trkpt lat="45.5552017" lon="10.4886317"><ele>264.3333333333333</ele><time>2026-05-01T08:42:26.479Z</time></trkpt><trkpt lat="45.5552367" lon="10.4887633"><ele>263.16666666666663</ele><time>2026-05-01T08:42:27.479Z</time></trkpt><trkpt lat="45.5552667" lon="10.4888833"><ele>262.0</ele><time>2026-05-01T08:42:28.479Z</time></trkpt><trkpt lat="45.5552967" lon="10.48899"><ele>262.4</ele><time>2026-05-01T08:42:29.479Z</time></trkpt><trkpt lat="45.55532" lon="10.4891133"><ele>262.79999999999995</ele><time>2026-05-01T08:42:30.479Z</time></trkpt><trkpt lat="45.5553367" lon="10.4892567"><ele>263.2</ele><time>2026-05-01T08:42:31.479Z</time></trkpt><trkpt lat="45.55536" lon="10.4894117"><ele>263.59999999999997</ele><time>2026-05-01T08:42:32.479Z</time></trkpt><trkpt lat="45.5553733" lon="10.489545"><ele>264.0</ele><time>2026-05-01T08:42:33.479Z</time></trkpt><trkpt lat="45.5553783" lon="10.4896717"><ele>264.6666666666667</ele><time>2026-05-01T08:42:34.48Z</time></trkpt><trkpt lat="45.5553767" lon="10.4897867"><ele>265.3333333333333</ele><time>2026-05-01T08:42:35.479Z</time></trkpt><trkpt lat="45.5553583" lon="10.4899017"><ele>266.0</ele><time>2026-05-01T08:42:36.479Z</time></trkpt><trkpt lat="45.5553333" lon="10.4899983"><ele>266.66666666666663</ele><time>2026-05-01T08:42:37.479Z</time></trkpt><trkpt lat="45.5553217" lon="10.4900883"><ele>267.3333333333333</ele><time>2026-05-01T08:42:38.479Z</time></trkpt><trkpt lat="45.5553833" lon="10.49024"><ele>268.0</ele><time>2026-05-01T08:42:40.479Z</time></trkpt><trkpt lat="45.5554617" lon="10.4903067"><ele>268.0</ele><time>2026-05-01T08:42:41.479Z</time></trkpt><trkpt lat="45.555555" lon="10.49037"><ele>268.0</ele><time>2026-05-01T08:42:42.479Z</time></trkpt><trkpt lat="45.55567" lon="10.490445"><ele>268.0</ele><time>2026-05-01T08:42:43.479Z</time></trkpt><trkpt lat="45.5557767" lon="10.490525"><ele>268.0</ele><time>2026-05-01T08:42:44.48Z</time></trkpt><trkpt lat="45.5558683" lon="10.49062"><ele>267.2</ele><time>2026-05-01T08:42:45.479Z</time></trkpt><trkpt lat="45.55594" lon="10.4907217"><ele>266.4</ele><time>2026-05-01T08:42:46.479Z</time></trkpt><trkpt lat="45.5560033" lon="10.49083"><ele>265.59999999999997</ele><time>2026-05-01T08:42:47.479Z</time></trkpt><trkpt lat="45.5560517" lon="10.4909417"><ele>264.8</ele><time>2026-05-01T08:42:48.479Z</time></trkpt><trkpt lat="45.5560933" lon="10.49105"><ele>264.0</ele><time>2026-05-01T08:42:49.479Z</time></trkpt><trkpt lat="45.5561317" lon="10.491145"><ele>264.0</ele><time>2026-05-01T08:42:50.479Z</time></trkpt><trkpt lat="45.5561583" lon="10.4912417"><ele>264.0</ele><time>2026-05-01T08:42:51.479Z</time></trkpt><trkpt lat="45.556175" lon="10.4913317"><ele>264.0</ele><time>2026-05-01T08:42:52.48Z</time></trkpt><trkpt lat="45.55623" lon="10.4914533"><ele>264.0</ele><time>2026-05-01T08:42:54.479Z</time></trkpt><trkpt lat="45.55636" lon="10.4914917"><ele>264.0</ele><time>2026-05-01T08:42:56.48Z</time></trkpt><trkpt lat="45.55646" lon="10.49152"><ele>264.5</ele><time>2026-05-01T08:42:57.48Z</time></trkpt><trkpt lat="45.556555" lon="10.4915583"><ele>265.0</ele><time>2026-05-01T08:42:58.48Z</time></trkpt><trkpt lat="45.5566483" lon="10.4915817"><ele>265.5</ele><time>2026-05-01T08:42:59.479Z</time></trkpt><trkpt lat="45.5567333" lon="10.49156"><ele>266.0</ele><time>2026-05-01T08:43:00.479Z</time></trkpt><trkpt lat="45.556795" lon="10.4914983"><ele>266.5</ele><time>2026-05-01T08:43:01.479Z</time></trkpt><trkpt lat="45.5568467" lon="10.491405"><ele>267.0</ele><time>2026-05-01T08:43:02.479Z</time></trkpt><trkpt lat="45.5568767" lon="10.4912833"><ele>267.4</ele><time>2026-05-01T08:43:03.479Z</time></trkpt><trkpt lat="45.5569117" lon="10.49114"><ele>267.79999999999995</ele><time>2026-05-01T08:43:04.48Z</time></trkpt><trkpt lat="45.5569533" lon="10.4910117"><ele>268.2</ele><time>2026-05-01T08:43:05.479Z</time></trkpt><trkpt lat="45.55699" lon="10.4909"><ele>268.59999999999997</ele><time>2026-05-01T08:43:06.479Z</time></trkpt><trkpt lat="45.5570183" lon="10.4907967"><ele>269.0</ele><time>2026-05-01T08:43:07.479Z</time></trkpt><trkpt lat="45.5570333" lon="10.49067"><ele>269.33333333333337</ele><time>2026-05-01T08:43:08.479Z</time></trkpt><trkpt lat="45.557055" lon="10.4905333"><ele>269.6666666666667</ele><time>2026-05-01T08:43:09.479Z</time></trkpt><trkpt lat="45.557075" lon="10.4904083"><ele>270.0</ele><time>2026-05-01T08:43:10.479Z</time></trkpt><trkpt lat="45.5570867" lon="10.4902983"><ele>270.3333333333333</ele><time>2026-05-01T08:43:11.479Z</time></trkpt><trkpt lat="45.5570967" lon="10.4902067"><ele>270.66666666666663</ele><time>2026-05-01T08:43:12.479Z</time></trkpt><trkpt lat="45.557125" lon="10.4901133"><ele>271.0</ele><time>2026-05-01T08:43:13.479Z</time></trkpt><trkpt lat="45.5571717" lon="10.4900317"><ele>271.0</ele><time>2026-05-01T08:43:14.479Z</time></trkpt><trkpt lat="45.557275" lon="10.4899283"><ele>271.0</ele><time>2026-05-01T08:43:16.479Z</time></trkpt><trkpt lat="45.5573467" lon="10.489905"><ele>271.0</ele><time>2026-05-01T08:43:17.479Z</time></trkpt><trkpt lat="45.5574217" lon="10.4899"><ele>271.0</ele><time>2026-05-01T08:43:18.479Z</time></trkpt><trkpt lat="45.5575083" lon="10.4899117"><ele>271.0</ele><time>2026-05-01T08:43:19.479Z</time></trkpt><trkpt lat="45.5576067" lon="10.489925"><ele>271.0</ele><time>2026-05-01T08:43:20.479Z</time></trkpt><trkpt lat="45.5577" lon="10.4899483"><ele>271.0</ele><time>2026-05-01T08:43:21.479Z</time></trkpt><trkpt lat="45.557785" lon="10.4899683"><ele>271.0</ele><time>2026-05-01T08:43:22.479Z</time></trkpt><trkpt lat="45.5578667" lon="10.4899883"><ele>271.0</ele><time>2026-05-01T08:43:23.479Z</time></trkpt><trkpt lat="45.5579717" lon="10.4899983"><ele>271.0</ele><time>2026-05-01T08:43:25.479Z</time></trkpt><trkpt lat="45.55805" lon="10.4899983"><ele>271.0</ele><time>2026-05-01T08:43:28.48Z</time></trkpt><trkpt lat="45.55814" lon="10.49001"><ele>271.16666666666663</ele><time>2026-05-01T08:43:31.479Z</time></trkpt><trkpt lat="45.55821" lon="10.4900217"><ele>271.3333333333333</ele><time>2026-05-01T08:43:33.479Z</time></trkpt><trkpt lat="45.5583183" lon="10.4900583"><ele>271.5</ele><time>2026-05-01T08:43:35.479Z</time></trkpt><trkpt lat="45.558395" lon="10.4900933"><ele>271.6666666666667</ele><time>2026-05-01T08:43:36.479Z</time></trkpt><trkpt lat="45.55848" lon="10.490135"><ele>271.83333333333337</ele><time>2026-05-01T08:43:37.479Z</time></trkpt><trkpt lat="45.55857" lon="10.4901767"><ele>272.0</ele><time>2026-05-01T08:43:38.479Z</time></trkpt><trkpt lat="45.5586567" lon="10.4902067"><ele>273.0</ele><time>2026-05-01T08:43:39.479Z</time></trkpt><trkpt lat="45.5587383" lon="10.4902317"><ele>274.0</ele><time>2026-05-01T08:43:40.48Z</time></trkpt><trkpt lat="45.5588167" lon="10.4902467"><ele>275.0</ele><time>2026-05-01T08:43:41.479Z</time></trkpt><trkpt lat="45.55888" lon="10.49025"><ele>276.0</ele><time>2026-05-01T08:43:42.479Z</time></trkpt><trkpt lat="45.558975" lon="10.4901933"><ele>277.0</ele><time>2026-05-01T08:43:44.479Z</time></trkpt><trkpt lat="45.55902" lon="10.4900583"><ele>278.0</ele><time>2026-05-01T08:43:46.48Z</time></trkpt><trkpt lat="45.5590167" lon="10.4899467"><ele>278.0</ele><time>2026-05-01T08:43:47.479Z</time></trkpt><trkpt lat="45.5590233" lon="10.4898333"><ele>278.0</ele><time>2026-05-01T08:43:48.479Z</time></trkpt><trkpt lat="45.55904" lon="10.4897383"><ele>278.0</ele><time>2026-05-01T08:43:49.479Z</time></trkpt><trkpt lat="45.559065" lon="10.48961"><ele>278.0</ele><time>2026-05-01T08:43:51.479Z</time></trkpt><trkpt lat="45.5590983" lon="10.4894983"><ele>278.0</ele><time>2026-05-01T08:43:54.479Z</time></trkpt><trkpt lat="45.55916" lon="10.4894467"><ele>278.0</ele><time>2026-05-01T08:44:10.479Z</time></trkpt><trkpt lat="45.55924" lon="10.48951"><ele>278.0</ele><time>2026-05-01T08:44:12.479Z</time></trkpt><trkpt lat="45.5592983" lon="10.48957"><ele>278.0</ele><time>2026-05-01T08:44:13.479Z</time></trkpt><trkpt lat="45.5593717" lon="10.4896383"><ele>278.0</ele><time>2026-05-01T08:44:14.479Z</time></trkpt><trkpt lat="45.5594417" lon="10.4897033"><ele>278.0</ele><time>2026-05-01T08:44:15.479Z</time></trkpt><trkpt lat="45.5595" lon="10.4897517"><ele>278.0</ele><time>2026-05-01T08:44:16.479Z</time></trkpt><trkpt lat="45.55958" lon="10.4898317"><ele>278.0</ele><time>2026-05-01T08:44:18.479Z</time></trkpt><trkpt lat="45.5596683" lon="10.4897683"><ele>280.6</ele><time>2026-05-01T08:44:21.48Z</time></trkpt><trkpt lat="45.5597317" lon="10.48969"><ele>283.20000000000005</ele><time>2026-05-01T08:44:23.479Z</time></trkpt><trkpt lat="45.5598217" lon="10.4896933"><ele>285.8</ele><time>2026-05-01T08:44:25.479Z</time></trkpt><trkpt lat="45.5598867" lon="10.48971"><ele>288.40000000000003</ele><time>2026-05-01T08:44:26.479Z</time></trkpt><trkpt lat="45.55998" lon="10.4897917"><ele>291.0</ele><time>2026-05-01T08:44:28.479Z</time></trkpt><trkpt lat="45.5600683" lon="10.48991"><ele>291.0</ele><time>2026-05-01T08:44:30.479Z</time></trkpt><trkpt lat="45.5601267" lon="10.489975"><ele>291.0</ele><time>2026-05-01T08:44:31.479Z</time></trkpt><trkpt lat="45.56018" lon="10.490035"><ele>291.0</ele><time>2026-05-01T08:44:32.479Z</time></trkpt><trkpt lat="45.5602367" lon="10.4900933"><ele>291.0</ele><time>2026-05-01T08:44:33.479Z</time></trkpt><trkpt lat="45.560355" lon="10.49018"><ele>291.0</ele><time>2026-05-01T08:44:35.479Z</time></trkpt><trkpt lat="45.560435" lon="10.4902183"><ele>291.0</ele><time>2026-05-01T08:44:36.479Z</time></trkpt><trkpt lat="45.560505" lon="10.49024"><ele>290.5</ele><time>2026-05-01T08:44:37.479Z</time></trkpt><trkpt lat="45.5605717" lon="10.4902733"><ele>290.0</ele><time>2026-05-01T08:44:38.479Z</time></trkpt><trkpt lat="45.560635" lon="10.4903183"><ele>289.5</ele><time>2026-05-01T08:44:39.479Z</time></trkpt><trkpt lat="45.56071" lon="10.4903617"><ele>289.0</ele><time>2026-05-01T08:44:40.479Z</time></trkpt><trkpt lat="45.56078" lon="10.49041"><ele>288.5</ele><time>2026-05-01T08:44:41.48Z</time></trkpt><trkpt lat="45.5608533" lon="10.4904433"><ele>288.0</ele><time>2026-05-01T08:44:42.479Z</time></trkpt><trkpt lat="45.5609233" lon="10.49048"><ele>288.0</ele><time>2026-05-01T08:44:43.479Z</time></trkpt><trkpt lat="45.5609917" lon="10.4905083"><ele>288.0</ele><time>2026-05-01T08:44:44.479Z</time></trkpt><trkpt lat="45.561105" lon="10.4905533"><ele>288.0</ele><time>2026-05-01T08:44:46.479Z</time></trkpt><trkpt lat="45.5611733" lon="10.4905483"><ele>288.0</ele><time>2026-05-01T08:44:47.479Z</time></trkpt><trkpt lat="45.5612533" lon="10.490545"><ele>288.0</ele><time>2026-05-01T08:44:48.479Z</time></trkpt><trkpt lat="45.56135" lon="10.4905533"><ele>288.0</ele><time>2026-05-01T08:44:49.479Z</time></trkpt><trkpt lat="45.56144" lon="10.4905717"><ele>288.8333333333333</ele><time>2026-05-01T08:44:50.479Z</time></trkpt><trkpt lat="45.5615267" lon="10.4905717"><ele>289.6666666666667</ele><time>2026-05-01T08:44:51.479Z</time></trkpt><trkpt lat="45.5616017" lon="10.4905767"><ele>290.5</ele><time>2026-05-01T08:44:52.479Z</time></trkpt><trkpt lat="45.5616767" lon="10.4905483"><ele>291.33333333333337</ele><time>2026-05-01T08:44:53.479Z</time></trkpt><trkpt lat="45.5617517" lon="10.4905017"><ele>292.1666666666667</ele><time>2026-05-01T08:44:54.479Z</time></trkpt><trkpt lat="45.5618167" lon="10.4904333"><ele>293.0</ele><time>2026-05-01T08:44:55.479Z</time></trkpt><trkpt lat="45.5618883" lon="10.4903733"><ele>293.57142857142856</ele><time>2026-05-01T08:44:56.479Z</time></trkpt><trkpt lat="45.5619583" lon="10.49032"><ele>294.1428571428571</ele><time>2026-05-01T08:44:57.479Z</time></trkpt><trkpt lat="45.562015" lon="10.49028"><ele>294.7142857142857</ele><time>2026-05-01T08:44:58.479Z</time></trkpt><trkpt lat="45.5620817" lon="10.49024"><ele>295.2857142857143</ele><time>2026-05-01T08:44:59.479Z</time></trkpt><trkpt lat="45.562135" lon="10.4901867"><ele>295.8571428571429</ele><time>2026-05-01T08:45:00.479Z</time></trkpt><trkpt lat="45.5621917" lon="10.490115"><ele>296.42857142857144</ele><time>2026-05-01T08:45:01.479Z</time></trkpt><trkpt lat="45.5622483" lon="10.4900433"><ele>297.0</ele><time>2026-05-01T08:45:02.479Z</time></trkpt><trkpt lat="45.5623033" lon="10.4899733"><ele>297.0</ele><time>2026-05-01T08:45:03.479Z</time></trkpt><trkpt lat="45.56235" lon="10.48991"><ele>297.0</ele><time>2026-05-01T08:45:04.479Z</time></trkpt><trkpt lat="45.56241" lon="10.4898583"><ele>297.0</ele><time>2026-05-01T08:45:05.48Z</time></trkpt><trkpt lat="45.5624983" lon="10.4897733"><ele>297.0</ele><time>2026-05-01T08:45:07.48Z</time></trkpt><trkpt lat="45.5625583" lon="10.4896117"><ele>297.0</ele><time>2026-05-01T08:45:09.479Z</time></trkpt><trkpt lat="45.56258" lon="10.4894317"><ele>298.1666666666667</ele><time>2026-05-01T08:45:11.479Z</time></trkpt><trkpt lat="45.5626" lon="10.4893367"><ele>299.3333333333333</ele><time>2026-05-01T08:45:12.479Z</time></trkpt><trkpt lat="45.5626233" lon="10.4892367"><ele>300.5</ele><time>2026-05-01T08:45:13.479Z</time></trkpt><trkpt lat="45.5626517" lon="10.4891283"><ele>301.66666666666663</ele><time>2026-05-01T08:45:14.48Z</time></trkpt><trkpt lat="45.5626733" lon="10.489015"><ele>302.8333333333333</ele><time>2026-05-01T08:45:15.479Z</time></trkpt><trkpt lat="45.5627" lon="10.4889"><ele>304.0</ele><time>2026-05-01T08:45:16.479Z</time></trkpt><trkpt lat="45.5627267" lon="10.4887867"><ele>305.5</ele><time>2026-05-01T08:45:17.479Z</time></trkpt><trkpt lat="45.562745" lon="10.4886883"><ele>307.0</ele><time>2026-05-01T08:45:18.479Z</time></trkpt><trkpt lat="45.5627917" lon="10.48854"><ele>308.5</ele><time>2026-05-01T08:45:20.479Z</time></trkpt><trkpt lat="45.562815" lon="10.4884333"><ele>310.0</ele><time>2026-05-01T08:45:22.479Z</time></trkpt><trkpt lat="45.5628583" lon="10.488335"><ele>311.5</ele><time>2026-05-01T08:45:24.479Z</time></trkpt><trkpt lat="45.56289" lon="10.4882333"><ele>313.0</ele><time>2026-05-01T08:45:26.479Z</time></trkpt><trkpt lat="45.5629233" lon="10.4881283"><ele>309.8</ele><time>2026-05-01T08:45:29.479Z</time></trkpt><trkpt lat="45.5629467" lon="10.48804"><ele>306.6</ele><time>2026-05-01T08:45:31.479Z</time></trkpt><trkpt lat="45.56299" lon="10.487925"><ele>303.4</ele><time>2026-05-01T08:45:33.479Z</time></trkpt><trkpt lat="45.5630367" lon="10.48779"><ele>300.2</ele><time>2026-05-01T08:45:35.479Z</time></trkpt><trkpt lat="45.5630733" lon="10.4877167"><ele>297.0</ele><time>2026-05-01T08:45:36.479Z</time></trkpt><trkpt lat="45.5631383" lon="10.487565"><ele>297.0</ele><time>2026-05-01T08:45:38.479Z</time></trkpt><trkpt lat="45.56316" lon="10.48748"><ele>297.0</ele><time>2026-05-01T08:45:39.479Z</time></trkpt><trkpt lat="45.5631933" lon="10.4873933"><ele>297.0</ele><time>2026-05-01T08:45:40.479Z</time></trkpt><trkpt lat="45.5632317" lon="10.4872967"><ele>297.0</ele><time>2026-05-01T08:45:41.479Z</time></trkpt><trkpt lat="45.5632767" lon="10.4872067"><ele>297.0</ele><time>2026-05-01T08:45:42.479Z</time></trkpt><trkpt lat="45.5633233" lon="10.4871283"><ele>297.0</ele><time>2026-05-01T08:45:43.479Z</time></trkpt><trkpt lat="45.5633717" lon="10.487045"><ele>297.0</ele><time>2026-05-01T08:45:44.479Z</time></trkpt><trkpt lat="45.5634333" lon="10.4869783"><ele>297.6666666666667</ele><time>2026-05-01T08:45:45.479Z</time></trkpt><trkpt lat="45.563495" lon="10.486915"><ele>298.3333333333333</ele><time>2026-05-01T08:45:46.479Z</time></trkpt><trkpt lat="45.56358" lon="10.48686"><ele>299.0</ele><time>2026-05-01T08:45:47.479Z</time></trkpt><trkpt lat="45.5636533" lon="10.48683"><ele>299.66666666666663</ele><time>2026-05-01T08:45:48.479Z</time></trkpt><trkpt lat="45.5637467" lon="10.4868"><ele>300.3333333333333</ele><time>2026-05-01T08:45:49.479Z</time></trkpt><trkpt lat="45.5638517" lon="10.4867667"><ele>301.0</ele><time>2026-05-01T08:45:50.479Z</time></trkpt><trkpt lat="45.5639417" lon="10.4867383"><ele>301.0</ele><time>2026-05-01T08:45:51.479Z</time></trkpt><trkpt lat="45.56404" lon="10.4867067"><ele>301.0</ele><time>2026-05-01T08:45:52.479Z</time></trkpt><trkpt lat="45.5641217" lon="10.4866867"><ele>301.0</ele><time>2026-05-01T08:45:53.479Z</time></trkpt><trkpt lat="45.5642267" lon="10.4866717"><ele>301.0</ele><time>2026-05-01T08:45:54.479Z</time></trkpt><trkpt lat="45.56433" lon="10.48666"><ele>301.0</ele><time>2026-05-01T08:45:55.479Z</time></trkpt><trkpt lat="45.5644167" lon="10.4866483"><ele>301.0</ele><time>2026-05-01T08:45:56.479Z</time></trkpt><trkpt lat="45.564485" lon="10.4866283"><ele>301.0</ele><time>2026-05-01T08:45:57.479Z</time></trkpt><trkpt lat="45.5646017" lon="10.4866183"><ele>301.0</ele><time>2026-05-01T08:45:59.479Z</time></trkpt><trkpt lat="45.5646917" lon="10.4865933"><ele>301.0</ele><time>2026-05-01T08:46:01.479Z</time></trkpt><trkpt lat="45.5647467" lon="10.4864883"><ele>301.0</ele><time>2026-05-01T08:46:13.479Z</time></trkpt><trkpt lat="45.56478" lon="10.4863567"><ele>304.40000000000003</ele><time>2026-05-01T08:46:15.479Z</time></trkpt><trkpt lat="45.5648383" lon="10.4862167"><ele>307.8</ele><time>2026-05-01T08:46:17.479Z</time></trkpt><trkpt lat="45.5648933" lon="10.486085"><ele>311.20000000000005</ele><time>2026-05-01T08:46:19.479Z</time></trkpt><trkpt lat="45.56493" lon="10.48597"><ele>314.6</ele><time>2026-05-01T08:46:21.479Z</time></trkpt><trkpt lat="45.5649817" lon="10.48588"><ele>318.0</ele><time>2026-05-01T08:46:23.479Z</time></trkpt><trkpt lat="45.565035" lon="10.4858167"><ele>318.0</ele><time>2026-05-01T08:46:25.479Z</time></trkpt><trkpt lat="45.565095" lon="10.48574"><ele>318.0</ele><time>2026-05-01T08:46:27.479Z</time></trkpt><trkpt lat="45.565155" lon="10.4856917"><ele>318.0</ele><time>2026-05-01T08:46:29.479Z</time></trkpt><trkpt lat="45.5652317" lon="10.4856283"><ele>318.0</ele><time>2026-05-01T08:46:32.479Z</time></trkpt><trkpt lat="45.5653067" lon="10.4855517"><ele>318.0</ele><time>2026-05-01T08:46:35.479Z</time></trkpt><trkpt lat="45.5653933" lon="10.4855183"><ele>318.0</ele><time>2026-05-01T08:46:37.479Z</time></trkpt><trkpt lat="45.5654983" lon="10.4855"><ele>317.6</ele><time>2026-05-01T08:46:39.48Z</time></trkpt><trkpt lat="45.5655767" lon="10.4854567"><ele>317.20000000000005</ele><time>2026-05-01T08:46:41.479Z</time></trkpt><trkpt lat="45.5656683" lon="10.4854383"><ele>316.8</ele><time>2026-05-01T08:46:43.479Z</time></trkpt><trkpt lat="45.5657433" lon="10.4853967"><ele>316.40000000000003</ele><time>2026-05-01T08:46:45.479Z</time></trkpt><trkpt lat="45.56583" lon="10.4853333"><ele>316.0</ele><time>2026-05-01T08:46:47.479Z</time></trkpt><trkpt lat="45.5659233" lon="10.4852817"><ele>319.8</ele><time>2026-05-01T08:46:49.479Z</time></trkpt><trkpt lat="45.5660367" lon="10.4852567"><ele>323.6</ele><time>2026-05-01T08:46:51.479Z</time></trkpt><trkpt lat="45.56616" lon="10.48526"><ele>327.4</ele><time>2026-05-01T08:46:53.479Z</time></trkpt><trkpt lat="45.5662267" lon="10.485255"><ele>331.2</ele><time>2026-05-01T08:46:54.479Z</time></trkpt><trkpt lat="45.5663433" lon="10.48525"><ele>335.0</ele><time>2026-05-01T08:46:56.479Z</time></trkpt><trkpt lat="45.566465" lon="10.4852283"><ele>335.0</ele><time>2026-05-01T08:46:58.479Z</time></trkpt><trkpt lat="45.5665583" lon="10.48519"><ele>335.0</ele><time>2026-05-01T08:47:00.48Z</time></trkpt><trkpt lat="45.5666167" lon="10.48515"><ele>335.0</ele><time>2026-05-01T08:47:02.479Z</time></trkpt><trkpt lat="45.5667" lon="10.48509"><ele>335.0</ele><time>2026-05-01T08:47:23.479Z</time></trkpt><trkpt lat="45.56681" lon="10.485055"><ele>335.0</ele><time>2026-05-01T08:47:25.48Z</time></trkpt><trkpt lat="45.566895" lon="10.4850417"><ele>335.0</ele><time>2026-05-01T08:47:26.479Z</time></trkpt><trkpt lat="45.5669883" lon="10.4849967"><ele>335.0</ele><time>2026-05-01T08:47:27.479Z</time></trkpt><trkpt lat="45.5670883" lon="10.484945"><ele>335.0</ele><time>2026-05-01T08:47:28.479Z</time></trkpt><trkpt lat="45.56719" lon="10.4848917"><ele>335.0</ele><time>2026-05-01T08:47:29.479Z</time></trkpt><trkpt lat="45.567285" lon="10.4848467"><ele>335.0</ele><time>2026-05-01T08:47:30.479Z</time></trkpt><trkpt lat="45.567375" lon="10.484795"><ele>334.83333333333337</ele><time>2026-05-01T08:47:31.479Z</time></trkpt><trkpt lat="45.56746" lon="10.4847433"><ele>334.6666666666667</ele><time>2026-05-01T08:47:32.479Z</time></trkpt><trkpt lat="45.56754" lon="10.48468"><ele>334.5</ele><time>2026-05-01T08:47:33.479Z</time></trkpt><trkpt lat="45.5676183" lon="10.4846117"><ele>334.3333333333333</ele><time>2026-05-01T08:47:34.479Z</time></trkpt><trkpt lat="45.56768" lon="10.4845483"><ele>334.16666666666663</ele><time>2026-05-01T08:47:35.479Z</time></trkpt><trkpt lat="45.5677417" lon="10.4844817"><ele>334.0</ele><time>2026-05-01T08:47:36.479Z</time></trkpt><trkpt lat="45.5678283" lon="10.4843567"><ele>335.4</ele><time>2026-05-01T08:47:38.479Z</time></trkpt><trkpt lat="45.5679017" lon="10.48425"><ele>336.79999999999995</ele><time>2026-05-01T08:47:40.479Z</time></trkpt><trkpt lat="45.567975" lon="10.4842233"><ele>338.20000000000005</ele><time>2026-05-01T08:47:44.479Z</time></trkpt><trkpt lat="45.5680283" lon="10.4843067"><ele>339.6</ele><time>2026-05-01T08:47:46.479Z</time></trkpt><trkpt lat="45.568095" lon="10.484475"><ele>341.0</ele><time>2026-05-01T08:47:48.479Z</time></trkpt><trkpt lat="45.568125" lon="10.4845733"><ele>340.6</ele><time>2026-05-01T08:47:49.48Z</time></trkpt><trkpt lat="45.5681567" lon="10.4846783"><ele>340.20000000000005</ele><time>2026-05-01T08:47:50.479Z</time></trkpt><trkpt lat="45.5681767" lon="10.4847867"><ele>339.79999999999995</ele><time>2026-05-01T08:47:51.48Z</time></trkpt><trkpt lat="45.56819" lon="10.4848833"><ele>339.4</ele><time>2026-05-01T08:47:52.479Z</time></trkpt><trkpt lat="45.5682267" lon="10.4850567"><ele>339.0</ele><time>2026-05-01T08:47:54.479Z</time></trkpt><trkpt lat="45.5682533" lon="10.48521"><ele>339.0</ele><time>2026-05-01T08:47:56.479Z</time></trkpt><trkpt lat="45.5682817" lon="10.4853667"><ele>339.0</ele><time>2026-05-01T08:47:58.48Z</time></trkpt><trkpt lat="45.568325" lon="10.48552"><ele>339.0</ele><time>2026-05-01T08:48:00.479Z</time></trkpt><trkpt lat="45.5683817" lon="10.4856717"><ele>339.0</ele><time>2026-05-01T08:48:02.48Z</time></trkpt><trkpt lat="45.56844" lon="10.4858417"><ele>338.1666666666667</ele><time>2026-05-01T08:48:04.479Z</time></trkpt><trkpt lat="45.5684617" lon="10.485935"><ele>337.3333333333333</ele><time>2026-05-01T08:48:05.479Z</time></trkpt><trkpt lat="45.5684933" lon="10.4860233"><ele>336.5</ele><time>2026-05-01T08:48:06.479Z</time></trkpt><trkpt lat="45.5685283" lon="10.4861133"><ele>335.66666666666663</ele><time>2026-05-01T08:48:07.479Z</time></trkpt><trkpt lat="45.5685617" lon="10.4862067"><ele>334.8333333333333</ele><time>2026-05-01T08:48:08.479Z</time></trkpt><trkpt lat="45.5686233" lon="10.4863717"><ele>334.0</ele><time>2026-05-01T08:48:10.479Z</time></trkpt><trkpt lat="45.56866" lon="10.4864617"><ele>334.0</ele><time>2026-05-01T08:48:11.479Z</time></trkpt><trkpt lat="45.5687" lon="10.486555"><ele>334.0</ele><time>2026-05-01T08:48:12.479Z</time></trkpt><trkpt lat="45.5687467" lon="10.48663"><ele>334.0</ele><time>2026-05-01T08:48:13.479Z</time></trkpt><trkpt lat="45.5688" lon="10.4867033"><ele>334.0</ele><time>2026-05-01T08:48:14.479Z</time></trkpt><trkpt lat="45.5688483" lon="10.48685"><ele>334.0</ele><time>2026-05-01T08:48:16.479Z</time></trkpt><trkpt lat="45.5689" lon="10.4870067"><ele>331.6</ele><time>2026-05-01T08:48:18.48Z</time></trkpt><trkpt lat="45.5689683" lon="10.487125"><ele>329.2</ele><time>2026-05-01T08:48:20.479Z</time></trkpt><trkpt lat="45.5690483" lon="10.4871717"><ele>326.8</ele><time>2026-05-01T08:48:22.479Z</time></trkpt><trkpt lat="45.569135" lon="10.4872233"><ele>324.40000000000003</ele><time>2026-05-01T08:48:24.479Z</time></trkpt><trkpt lat="45.569195" lon="10.487285"><ele>322.0</ele><time>2026-05-01T08:48:26.479Z</time></trkpt><trkpt lat="45.5692983" lon="10.487355"><ele>322.0</ele><time>2026-05-01T08:48:32.48Z</time></trkpt><trkpt lat="45.5693683" lon="10.48741"><ele>322.0</ele><time>2026-05-01T08:48:35.479Z</time></trkpt><trkpt lat="45.5694467" lon="10.487455"><ele>322.0</ele><time>2026-05-01T08:48:38.48Z</time></trkpt><trkpt lat="45.569525" lon="10.48749"><ele>322.0</ele><time>2026-05-01T08:48:40.479Z</time></trkpt><trkpt lat="45.5696117" lon="10.4875433"><ele>322.0</ele><time>2026-05-01T08:48:42.479Z</time></trkpt><trkpt lat="45.5697083" lon="10.4875933"><ele>322.0</ele><time>2026-05-01T08:48:44.479Z</time></trkpt><trkpt lat="45.56982" lon="10.487665"><ele>322.0</ele><time>2026-05-01T08:48:46.479Z</time></trkpt><trkpt lat="45.5699033" lon="10.4877817"><ele>322.0</ele><time>2026-05-01T08:48:48.479Z</time></trkpt><trkpt lat="45.56997" lon="10.4879383"><ele>322.0</ele><time>2026-05-01T08:48:50.479Z</time></trkpt><trkpt lat="45.570025" lon="10.4880767"><ele>322.0</ele><time>2026-05-01T08:48:52.479Z</time></trkpt><trkpt lat="45.57008" lon="10.4881867"><ele>322.0</ele><time>2026-05-01T08:48:54.479Z</time></trkpt><trkpt lat="45.5701167" lon="10.4882633"><ele>322.0</ele><time>2026-05-01T08:48:56.479Z</time></trkpt><trkpt lat="45.5701683" lon="10.4883567"><ele>322.0</ele><time>2026-05-01T08:48:58.479Z</time></trkpt><trkpt lat="45.57022" lon="10.4884267"><ele>322.0</ele><time>2026-05-01T08:49:00.479Z</time></trkpt><trkpt lat="45.5703017" lon="10.4885083"><ele>322.0</ele><time>2026-05-01T08:49:02.479Z</time></trkpt><trkpt lat="45.570415" lon="10.4885717"><ele>322.0</ele><time>2026-05-01T08:49:04.479Z</time></trkpt><trkpt lat="45.5704833" lon="10.4885833"><ele>322.0</ele><time>2026-05-01T08:49:05.48Z</time></trkpt><trkpt lat="45.5705567" lon="10.488595"><ele>322.0</ele><time>2026-05-01T08:49:06.479Z</time></trkpt><trkpt lat="45.5706217" lon="10.48862"><ele>322.0</ele><time>2026-05-01T08:49:07.479Z</time></trkpt><trkpt lat="45.570685" lon="10.4886533"><ele>322.0</ele><time>2026-05-01T08:49:08.479Z</time></trkpt><trkpt lat="45.570745" lon="10.488685"><ele>322.0</ele><time>2026-05-01T08:49:09.479Z</time></trkpt><trkpt lat="45.5708633" lon="10.4887267"><ele>322.0</ele><time>2026-05-01T08:49:11.479Z</time></trkpt><trkpt lat="45.570955" lon="10.4887783"><ele>322.0</ele><time>2026-05-01T08:49:13.479Z</time></trkpt><trkpt lat="45.5710283" lon="10.4888367"><ele>322.0</ele><time>2026-05-01T08:49:15.479Z</time></trkpt><trkpt lat="45.5711183" lon="10.4889"><ele>322.0</ele><time>2026-05-01T08:49:17.479Z</time></trkpt><trkpt lat="45.5711933" lon="10.488955"><ele>322.0</ele><time>2026-05-01T08:49:19.479Z</time></trkpt><trkpt lat="45.5712667" lon="10.48903"><ele>322.0</ele><time>2026-05-01T08:49:21.479Z</time></trkpt><trkpt lat="45.571315" lon="10.4891033"><ele>322.0</ele><time>2026-05-01T08:49:22.479Z</time></trkpt><trkpt lat="45.57136" lon="10.4891667"><ele>323.6</ele><time>2026-05-01T08:49:23.479Z</time></trkpt><trkpt lat="45.5714067" lon="10.4892417"><ele>325.20000000000005</ele><time>2026-05-01T08:49:24.479Z</time></trkpt><trkpt lat="45.5714817" lon="10.4893767"><ele>326.8</ele><time>2026-05-01T08:49:26.48Z</time></trkpt><trkpt lat="45.5715233" lon="10.4894633"><ele>328.4</ele><time>2026-05-01T08:49:27.48Z</time></trkpt><trkpt lat="45.5715767" lon="10.48956"><ele>330.0</ele><time>2026-05-01T08:49:28.479Z</time></trkpt><trkpt lat="45.5716383" lon="10.48968"><ele>326.6</ele><time>2026-05-01T08:49:29.479Z</time></trkpt><trkpt lat="45.5717033" lon="10.4898067"><ele>323.2</ele><time>2026-05-01T08:49:30.479Z</time></trkpt><trkpt lat="45.5717733" lon="10.4899317"><ele>319.8</ele><time>2026-05-01T08:49:31.479Z</time></trkpt><trkpt lat="45.5718383" lon="10.4900283"><ele>316.4</ele><time>2026-05-01T08:49:32.479Z</time></trkpt><trkpt lat="45.57189" lon="10.4901067"><ele>313.0</ele><time>2026-05-01T08:49:33.479Z</time></trkpt><trkpt lat="45.5719633" lon="10.490205"><ele>313.0</ele><time>2026-05-01T08:49:35.479Z</time></trkpt><trkpt lat="45.572015" lon="10.4902633"><ele>313.0</ele><time>2026-05-01T08:49:37.479Z</time></trkpt><trkpt lat="45.5720967" lon="10.4901917"><ele>313.0</ele><time>2026-05-01T08:49:40.479Z</time></trkpt><trkpt lat="45.5721267" lon="10.4900983"><ele>313.0</ele><time>2026-05-01T08:49:41.479Z</time></trkpt><trkpt lat="45.5721667" lon="10.4899883"><ele>313.0</ele><time>2026-05-01T08:49:42.479Z</time></trkpt><trkpt lat="45.5722033" lon="10.48988"><ele>313.0</ele><time>2026-05-01T08:49:43.48Z</time></trkpt><trkpt lat="45.5722583" lon="10.4897833"><ele>313.3333333333333</ele><time>2026-05-01T08:49:44.48Z</time></trkpt><trkpt lat="45.57232" lon="10.4897017"><ele>313.66666666666663</ele><time>2026-05-01T08:49:45.479Z</time></trkpt><trkpt lat="45.5723767" lon="10.489635"><ele>314.0</ele><time>2026-05-01T08:49:46.479Z</time></trkpt><trkpt lat="45.5724417" lon="10.4895783"><ele>314.3333333333333</ele><time>2026-05-01T08:49:47.479Z</time></trkpt><trkpt lat="45.5725083" lon="10.4895383"><ele>314.6666666666667</ele><time>2026-05-01T08:49:48.479Z</time></trkpt><trkpt lat="45.572585" lon="10.48951"><ele>315.0</ele><time>2026-05-01T08:49:49.479Z</time></trkpt><trkpt lat="45.5726583" lon="10.4894867"><ele>316.0</ele><time>2026-05-01T08:49:50.479Z</time></trkpt><trkpt lat="45.5727383" lon="10.4894533"><ele>317.0</ele><time>2026-05-01T08:49:51.479Z</time></trkpt><trkpt lat="45.5727967" lon="10.4893917"><ele>318.0</ele><time>2026-05-01T08:49:52.479Z</time></trkpt><trkpt lat="45.57287" lon="10.4893"><ele>319.0</ele><time>2026-05-01T08:49:53.48Z</time></trkpt><trkpt lat="45.5729367" lon="10.48922"><ele>320.0</ele><time>2026-05-01T08:49:54.479Z</time></trkpt><trkpt lat="45.5730133" lon="10.4891583"><ele>321.0</ele><time>2026-05-01T08:49:55.479Z</time></trkpt><trkpt lat="45.573085" lon="10.48912"><ele>321.0</ele><time>2026-05-01T08:49:56.479Z</time></trkpt><trkpt lat="45.5731667" lon="10.4891067"><ele>321.0</ele><time>2026-05-01T08:49:57.479Z</time></trkpt><trkpt lat="45.5732417" lon="10.4891"><ele>321.0</ele><time>2026-05-01T08:49:58.479Z</time></trkpt><trkpt lat="45.5733233" lon="10.4891117"><ele>321.0</ele><time>2026-05-01T08:49:59.479Z</time></trkpt><trkpt lat="45.5734033" lon="10.48915"><ele>321.0</ele><time>2026-05-01T08:50:00.479Z</time></trkpt><trkpt lat="45.573475" lon="10.4891867"><ele>321.0</ele><time>2026-05-01T08:50:01.479Z</time></trkpt><trkpt lat="45.5735483" lon="10.489225"><ele>321.0</ele><time>2026-05-01T08:50:02.479Z</time></trkpt><trkpt lat="45.5736367" lon="10.48928"><ele>321.0</ele><time>2026-05-01T08:50:03.479Z</time></trkpt><trkpt lat="45.5737567" lon="10.4893333"><ele>321.0</ele><time>2026-05-01T08:50:04.479Z</time></trkpt><trkpt lat="45.573885" lon="10.4893833"><ele>321.0</ele><time>2026-05-01T08:50:05.479Z</time></trkpt><trkpt lat="45.5740083" lon="10.4894467"><ele>321.4</ele><time>2026-05-01T08:50:06.479Z</time></trkpt><trkpt lat="45.5741333" lon="10.4894967"><ele>321.8</ele><time>2026-05-01T08:50:07.479Z</time></trkpt><trkpt lat="45.5742383" lon="10.4895367"><ele>322.2</ele><time>2026-05-01T08:50:08.479Z</time></trkpt><trkpt lat="45.5743217" lon="10.4895567"><ele>322.59999999999997</ele><time>2026-05-01T08:50:09.479Z</time></trkpt><trkpt lat="45.574385" lon="10.489575"><ele>323.0</ele><time>2026-05-01T08:50:10.479Z</time></trkpt><trkpt lat="45.5744517" lon="10.4896417"><ele>321.2</ele><time>2026-05-01T08:50:12.479Z</time></trkpt><trkpt lat="45.574465" lon="10.4898067"><ele>319.4</ele><time>2026-05-01T08:50:14.479Z</time></trkpt><trkpt lat="45.5744483" lon="10.4899283"><ele>317.59999999999997</ele><time>2026-05-01T08:50:15.479Z</time></trkpt><trkpt lat="45.5744467" lon="10.49007"><ele>315.79999999999995</ele><time>2026-05-01T08:50:16.479Z</time></trkpt><trkpt lat="45.5744483" lon="10.4902067"><ele>314.0</ele><time>2026-05-01T08:50:17.479Z</time></trkpt><trkpt lat="45.5744517" lon="10.4903483"><ele>313.4</ele><time>2026-05-01T08:50:18.48Z</time></trkpt><trkpt lat="45.5744517" lon="10.4904867"><ele>312.79999999999995</ele><time>2026-05-01T08:50:19.479Z</time></trkpt><trkpt lat="45.5744517" lon="10.49063"><ele>312.20000000000005</ele><time>2026-05-01T08:50:20.479Z</time></trkpt><trkpt lat="45.5744367" lon="10.49076"><ele>311.6</ele><time>2026-05-01T08:50:21.479Z</time></trkpt><trkpt lat="45.5744083" lon="10.4909017"><ele>311.0</ele><time>2026-05-01T08:50:22.479Z</time></trkpt><trkpt lat="45.5743717" lon="10.4910533"><ele>311.0</ele><time>2026-05-01T08:50:23.479Z</time></trkpt><trkpt lat="45.5743467" lon="10.4912283"><ele>311.0</ele><time>2026-05-01T08:50:24.479Z</time></trkpt><trkpt lat="45.5743417" lon="10.49142"><ele>311.0</ele><time>2026-05-01T08:50:25.479Z</time></trkpt><trkpt lat="45.574355" lon="10.4916033"><ele>311.0</ele><time>2026-05-01T08:50:26.479Z</time></trkpt><trkpt lat="45.5743667" lon="10.4917467"><ele>311.0</ele><time>2026-05-01T08:50:27.479Z</time></trkpt><trkpt lat="45.57438" lon="10.49186"><ele>311.0</ele><time>2026-05-01T08:50:28.479Z</time></trkpt><trkpt lat="45.5744117" lon="10.4919683"><ele>311.0</ele><time>2026-05-01T08:50:30.479Z</time></trkpt><trkpt lat="45.5744" lon="10.4920783"><ele>311.0</ele><time>2026-05-01T08:50:52.48Z</time></trkpt><trkpt lat="45.5744083" lon="10.4922217"><ele>311.0</ele><time>2026-05-01T08:50:54.479Z</time></trkpt><trkpt lat="45.5744567" lon="10.4923283"><ele>311.0</ele><time>2026-05-01T08:50:56.479Z</time></trkpt><trkpt lat="45.57457" lon="10.4924283"><ele>311.33333333333337</ele><time>2026-05-01T08:50:58.479Z</time></trkpt><trkpt lat="45.5747" lon="10.4924583"><ele>311.6666666666667</ele><time>2026-05-01T08:51:00.479Z</time></trkpt><trkpt lat="45.5747667" lon="10.49244"><ele>312.0</ele><time>2026-05-01T08:51:01.479Z</time></trkpt><trkpt lat="45.5748433" lon="10.4924233"><ele>312.3333333333333</ele><time>2026-05-01T08:51:02.479Z</time></trkpt><trkpt lat="45.57491" lon="10.4924117"><ele>312.66666666666663</ele><time>2026-05-01T08:51:03.479Z</time></trkpt><trkpt lat="45.5749967" lon="10.4923883"><ele>313.0</ele><time>2026-05-01T08:51:05.479Z</time></trkpt><trkpt lat="45.5750783" lon="10.4923367"><ele>313.0</ele><time>2026-05-01T08:51:07.479Z</time></trkpt><trkpt lat="45.57517" lon="10.4922433"><ele>313.0</ele><time>2026-05-01T08:51:09.479Z</time></trkpt><trkpt lat="45.5752433" lon="10.4921167"><ele>313.0</ele><time>2026-05-01T08:51:11.479Z</time></trkpt><trkpt lat="45.5753133" lon="10.4920067"><ele>313.0</ele><time>2026-05-01T08:51:13.479Z</time></trkpt><trkpt lat="45.575425" lon="10.49196"><ele>313.0</ele><time>2026-05-01T08:51:15.48Z</time></trkpt><trkpt lat="45.5755133" lon="10.491955"><ele>313.6</ele><time>2026-05-01T08:51:16.479Z</time></trkpt><trkpt lat="45.5756183" lon="10.4919517"><ele>314.20000000000005</ele><time>2026-05-01T08:51:17.479Z</time></trkpt><trkpt lat="45.5757267" lon="10.4919417"><ele>314.8</ele><time>2026-05-01T08:51:18.479Z</time></trkpt><trkpt lat="45.5758233" lon="10.4919233"><ele>315.40000000000003</ele><time>2026-05-01T08:51:19.479Z</time></trkpt><trkpt lat="45.5759133" lon="10.4919083"><ele>316.0</ele><time>2026-05-01T08:51:20.479Z</time></trkpt><trkpt lat="45.575995" lon="10.4918783"><ele>316.0</ele><time>2026-05-01T08:51:21.479Z</time></trkpt><trkpt lat="45.5760667" lon="10.4918383"><ele>316.0</ele><time>2026-05-01T08:51:22.479Z</time></trkpt><trkpt lat="45.57612" lon="10.49179"><ele>316.0</ele><time>2026-05-01T08:51:23.479Z</time></trkpt><trkpt lat="45.5761667" lon="10.49172"><ele>316.0</ele><time>2026-05-01T08:51:24.479Z</time></trkpt><trkpt lat="45.5761967" lon="10.4916233"><ele>316.0</ele><time>2026-05-01T08:51:25.479Z</time></trkpt><trkpt lat="45.5762233" lon="10.49153"><ele>316.0</ele><time>2026-05-01T08:51:26.479Z</time></trkpt><trkpt lat="45.57626" lon="10.4913567"><ele>317.20000000000005</ele><time>2026-05-01T08:51:28.479Z</time></trkpt><trkpt lat="45.576285" lon="10.491185"><ele>318.40000000000003</ele><time>2026-05-01T08:51:30.479Z</time></trkpt><trkpt lat="45.57631" lon="10.4910817"><ele>319.6</ele><time>2026-05-01T08:51:31.479Z</time></trkpt><trkpt lat="45.5763667" lon="10.4909"><ele>320.8</ele><time>2026-05-01T08:51:33.479Z</time></trkpt><trkpt lat="45.576405" lon="10.490825"><ele>322.0</ele><time>2026-05-01T08:51:34.479Z</time></trkpt><trkpt lat="45.576475" lon="10.4907783"><ele>322.0</ele><time>2026-05-01T08:51:36.479Z</time></trkpt><trkpt lat="45.5766033" lon="10.4907883"><ele>322.0</ele><time>2026-05-01T08:51:38.479Z</time></trkpt><trkpt lat="45.576705" lon="10.4908217"><ele>322.0</ele><time>2026-05-01T08:51:39.479Z</time></trkpt><trkpt lat="45.5768183" lon="10.4908817"><ele>322.0</ele><time>2026-05-01T08:51:40.479Z</time></trkpt><trkpt lat="45.576935" lon="10.49093"><ele>323.0</ele><time>2026-05-01T08:51:41.479Z</time></trkpt><trkpt lat="45.57704" lon="10.4909767"><ele>324.0</ele><time>2026-05-01T08:51:42.479Z</time></trkpt><trkpt lat="45.5771333" lon="10.4910217"><ele>325.0</ele><time>2026-05-01T08:51:43.479Z</time></trkpt><trkpt lat="45.5772133" lon="10.4910783"><ele>326.0</ele><time>2026-05-01T08:51:44.479Z</time></trkpt><trkpt lat="45.5772817" lon="10.49112"><ele>327.0</ele><time>2026-05-01T08:51:45.479Z</time></trkpt><trkpt lat="45.577395" lon="10.4911683"><ele>327.0</ele><time>2026-05-01T08:51:47.479Z</time></trkpt><trkpt lat="45.5774583" lon="10.49117"><ele>327.0</ele><time>2026-05-01T08:51:48.479Z</time></trkpt><trkpt lat="45.5775267" lon="10.4911683"><ele>327.0</ele><time>2026-05-01T08:51:49.479Z</time></trkpt><trkpt lat="45.5776067" lon="10.4911667"><ele>327.0</ele><time>2026-05-01T08:51:50.48Z</time></trkpt><trkpt lat="45.5776933" lon="10.4911717"><ele>327.0</ele><time>2026-05-01T08:51:51.479Z</time></trkpt><trkpt lat="45.5777833" lon="10.4911867"><ele>327.0</ele><time>2026-05-01T08:51:52.479Z</time></trkpt><trkpt lat="45.57787" lon="10.4912267"><ele>325.3333333333333</ele><time>2026-05-01T08:51:53.479Z</time></trkpt><trkpt lat="45.5779583" lon="10.4912783"><ele>323.6666666666667</ele><time>2026-05-01T08:51:54.479Z</time></trkpt><trkpt lat="45.5780483" lon="10.4913267"><ele>322.0</ele><time>2026-05-01T08:51:55.479Z</time></trkpt><trkpt lat="45.5781233" lon="10.49135"><ele>320.33333333333337</ele><time>2026-05-01T08:51:56.48Z</time></trkpt><trkpt lat="45.5781967" lon="10.491355"><ele>318.6666666666667</ele><time>2026-05-01T08:51:57.48Z</time></trkpt><trkpt lat="45.57827" lon="10.4913467"><ele>317.0</ele><time>2026-05-01T08:51:58.479Z</time></trkpt><trkpt lat="45.5783433" lon="10.4913333"><ele>317.0</ele><time>2026-05-01T08:51:59.479Z</time></trkpt><trkpt lat="45.5784267" lon="10.4913133"><ele>317.0</ele><time>2026-05-01T08:52:00.479Z</time></trkpt><trkpt lat="45.5785033" lon="10.491275"><ele>317.0</ele><time>2026-05-01T08:52:01.479Z</time></trkpt><trkpt lat="45.5786183" lon="10.4912417"><ele>317.0</ele><time>2026-05-01T08:52:03.479Z</time></trkpt><trkpt lat="45.5786983" lon="10.4913367"><ele>317.0</ele><time>2026-05-01T08:52:05.479Z</time></trkpt><trkpt lat="45.57875" lon="10.49142"><ele>317.8</ele><time>2026-05-01T08:52:06.479Z</time></trkpt><trkpt lat="45.5788117" lon="10.4915067"><ele>318.6</ele><time>2026-05-01T08:52:07.479Z</time></trkpt><trkpt lat="45.5788917" lon="10.4915817"><ele>319.40000000000003</ele><time>2026-05-01T08:52:08.479Z</time></trkpt><trkpt lat="45.578975" lon="10.4916483"><ele>320.2</ele><time>2026-05-01T08:52:09.479Z</time></trkpt><trkpt lat="45.5790667" lon="10.4917417"><ele>321.0</ele><time>2026-05-01T08:52:10.479Z</time></trkpt><trkpt lat="45.5791717" lon="10.491855"><ele>321.0</ele><time>2026-05-01T08:52:11.479Z</time></trkpt><trkpt lat="45.5792733" lon="10.4919817"><ele>321.0</ele><time>2026-05-01T08:52:12.48Z</time></trkpt><trkpt lat="45.5793817" lon="10.4921167"><ele>321.0</ele><time>2026-05-01T08:52:13.479Z</time></trkpt><trkpt lat="45.5794833" lon="10.4922483"><ele>321.0</ele><time>2026-05-01T08:52:14.479Z</time></trkpt><trkpt lat="45.5795817" lon="10.492365"><ele>322.1666666666667</ele><time>2026-05-01T08:52:15.479Z</time></trkpt><trkpt lat="45.5796583" lon="10.4924767"><ele>323.3333333333333</ele><time>2026-05-01T08:52:16.479Z</time></trkpt><trkpt lat="45.5797233" lon="10.4925767"><ele>324.5</ele><time>2026-05-01T08:52:17.479Z</time></trkpt><trkpt lat="45.5797833" lon="10.4926517"><ele>325.66666666666663</ele><time>2026-05-01T08:52:18.479Z</time></trkpt><trkpt lat="45.57983" lon="10.49273"><ele>326.8333333333333</ele><time>2026-05-01T08:52:19.479Z</time></trkpt><trkpt lat="45.5798733" lon="10.492805"><ele>328.0</ele><time>2026-05-01T08:52:20.479Z</time></trkpt><trkpt lat="45.5799583" lon="10.4928883"><ele>328.0</ele><time>2026-05-01T08:52:22.479Z</time></trkpt><trkpt lat="45.5800667" lon="10.49288"><ele>328.0</ele><time>2026-05-01T08:52:24.479Z</time></trkpt><trkpt lat="45.580125" lon="10.4928383"><ele>328.0</ele><time>2026-05-01T08:52:25.48Z</time></trkpt><trkpt lat="45.5801833" lon="10.4927883"><ele>328.0</ele><time>2026-05-01T08:52:26.479Z</time></trkpt><trkpt lat="45.5802483" lon="10.492735"><ele>328.0</ele><time>2026-05-01T08:52:27.479Z</time></trkpt><trkpt lat="45.5803067" lon="10.4926833"><ele>328.0</ele><time>2026-05-01T08:52:28.479Z</time></trkpt><trkpt lat="45.5803983" lon="10.4925883"><ele>328.0</ele><time>2026-05-01T08:52:30.479Z</time></trkpt><trkpt lat="45.5804767" lon="10.49246"><ele>328.0</ele><time>2026-05-01T08:52:32.479Z</time></trkpt><trkpt lat="45.5805333" lon="10.4923733"><ele>328.0</ele><time>2026-05-01T08:52:34.479Z</time></trkpt><trkpt lat="45.5804633" lon="10.4924767"><ele>328.0</ele><time>2026-05-01T08:53:18.479Z</time></trkpt><trkpt lat="45.5803933" lon="10.4925633"><ele>328.0</ele><time>2026-05-01T08:53:21.479Z</time></trkpt><trkpt lat="45.5803467" lon="10.492635"><ele>327.99999999999994</ele><time>2026-05-01T08:53:23.479Z</time></trkpt><trkpt lat="45.580285" lon="10.4926983"><ele>328.0</ele><time>2026-05-01T08:53:26.479Z</time></trkpt><trkpt lat="45.5802267" lon="10.4927467"><ele>328.0</ele><time>2026-05-01T08:53:28.479Z</time></trkpt><trkpt lat="45.5801517" lon="10.4928033"><ele>328.0</ele><time>2026-05-01T08:53:30.479Z</time></trkpt><trkpt lat="45.5800983" lon="10.492855"><ele>328.0</ele><time>2026-05-01T08:53:32.479Z</time></trkpt><trkpt lat="45.5800167" lon="10.4928883"><ele>327.99999999999994</ele><time>2026-05-01T08:53:35.479Z</time></trkpt><trkpt lat="45.579955" lon="10.492915"><ele>328.0</ele><time>2026-05-01T08:53:38.479Z</time></trkpt><trkpt lat="45.5799467" lon="10.4930317"><ele>327.85714285714283</ele><time>2026-05-01T08:53:42.479Z</time></trkpt><trkpt lat="45.5799583" lon="10.4931233"><ele>327.7142857142857</ele><time>2026-05-01T08:53:44.479Z</time></trkpt><trkpt lat="45.5799717" lon="10.4932283"><ele>327.57142857142856</ele><time>2026-05-01T08:53:46.48Z</time></trkpt><trkpt lat="45.5799667" lon="10.4933417"><ele>327.42857142857144</ele><time>2026-05-01T08:53:48.479Z</time></trkpt><trkpt lat="45.579955" lon="10.4934633"><ele>327.2857142857143</ele><time>2026-05-01T08:53:50.48Z</time></trkpt><trkpt lat="45.5799517" lon="10.4935583"><ele>327.1428571428571</ele><time>2026-05-01T08:53:52.479Z</time></trkpt><trkpt lat="45.5799617" lon="10.4936483"><ele>327.0</ele><time>2026-05-01T08:53:54.479Z</time></trkpt><trkpt lat="45.5799717" lon="10.49374"><ele>326.0</ele><time>2026-05-01T08:53:56.48Z</time></trkpt><trkpt lat="45.5799717" lon="10.493845"><ele>325.0</ele><time>2026-05-01T08:53:59.479Z</time></trkpt><trkpt lat="45.5799717" lon="10.4939567"><ele>324.0</ele><time>2026-05-01T08:54:01.479Z</time></trkpt><trkpt lat="45.579985" lon="10.4940833"><ele>323.0</ele><time>2026-05-01T08:54:03.479Z</time></trkpt><trkpt lat="45.5799967" lon="10.4942383"><ele>322.0</ele><time>2026-05-01T08:54:05.479Z</time></trkpt><trkpt lat="45.5800133" lon="10.4943267"><ele>321.0</ele><time>2026-05-01T08:54:06.479Z</time></trkpt><trkpt lat="45.5800183" lon="10.4944183"><ele>321.0</ele><time>2026-05-01T08:54:07.479Z</time></trkpt><trkpt lat="45.5800233" lon="10.4945083"><ele>321.0</ele><time>2026-05-01T08:54:08.479Z</time></trkpt><trkpt lat="45.580025" lon="10.4946"><ele>321.0</ele><time>2026-05-01T08:54:09.479Z</time></trkpt><trkpt lat="45.5800317" lon="10.49475"><ele>321.0</ele><time>2026-05-01T08:54:11.479Z</time></trkpt><trkpt lat="45.5800333" lon="10.4948733"><ele>321.0</ele><time>2026-05-01T08:54:13.479Z</time></trkpt><trkpt lat="45.579985" lon="10.4949933"><ele>321.0</ele><time>2026-05-01T08:54:15.479Z</time></trkpt><trkpt lat="45.5799267" lon="10.4950983"><ele>319.1666666666667</ele><time>2026-05-01T08:54:17.479Z</time></trkpt><trkpt lat="45.579895" lon="10.4952367"><ele>317.3333333333333</ele><time>2026-05-01T08:54:19.479Z</time></trkpt><trkpt lat="45.57989" lon="10.4953733"><ele>315.5</ele><time>2026-05-01T08:54:21.479Z</time></trkpt><trkpt lat="45.5798717" lon="10.4954667"><ele>313.66666666666663</ele><time>2026-05-01T08:54:24.479Z</time></trkpt><trkpt lat="45.5798917" lon="10.495335"><ele>311.8333333333333</ele><time>2026-05-01T08:54:31.479Z</time></trkpt><trkpt lat="45.5798933" lon="10.4952083"><ele>310.0</ele><time>2026-05-01T08:54:33.479Z</time></trkpt><trkpt lat="45.5799283" lon="10.4951017"><ele>310.0</ele><time>2026-05-01T08:54:35.479Z</time></trkpt><trkpt lat="45.5800167" lon="10.4951183"><ele>310.0</ele><time>2026-05-01T08:54:38.479Z</time></trkpt><trkpt lat="45.5801233" lon="10.49522"><ele>310.0</ele><time>2026-05-01T08:54:40.479Z</time></trkpt><trkpt lat="45.5801917" lon="10.4952983"><ele>310.0</ele><time>2026-05-01T08:54:41.479Z</time></trkpt><trkpt lat="45.5802667" lon="10.4953783"><ele>310.0</ele><time>2026-05-01T08:54:42.479Z</time></trkpt><trkpt lat="45.5803383" lon="10.4954583"><ele>310.0</ele><time>2026-05-01T08:54:43.479Z</time></trkpt><trkpt lat="45.5804133" lon="10.4955233"><ele>310.0</ele><time>2026-05-01T08:54:44.479Z</time></trkpt><trkpt lat="45.5804833" lon="10.49559"><ele>310.0</ele><time>2026-05-01T08:54:45.48Z</time></trkpt><trkpt lat="45.5805633" lon="10.4956683"><ele>310.0</ele><time>2026-05-01T08:54:46.479Z</time></trkpt><trkpt lat="45.5806467" lon="10.4957433"><ele>310.0</ele><time>2026-05-01T08:54:47.479Z</time></trkpt><trkpt lat="45.5807417" lon="10.4958217"><ele>310.0</ele><time>2026-05-01T08:54:48.479Z</time></trkpt><trkpt lat="45.5808267" lon="10.4959"><ele>310.0</ele><time>2026-05-01T08:54:49.479Z</time></trkpt><trkpt lat="45.5809083" lon="10.4959717"><ele>310.0</ele><time>2026-05-01T08:54:50.479Z</time></trkpt><trkpt lat="45.5809817" lon="10.4960517"><ele>310.0</ele><time>2026-05-01T08:54:51.479Z</time></trkpt><trkpt lat="45.5810567" lon="10.496115"><ele>310.0</ele><time>2026-05-01T08:54:52.479Z</time></trkpt><trkpt lat="45.5811333" lon="10.4961583"><ele>311.16666666666663</ele><time>2026-05-01T08:54:53.479Z</time></trkpt><trkpt lat="45.58121" lon="10.496185"><ele>312.3333333333333</ele><time>2026-05-01T08:54:54.479Z</time></trkpt><trkpt lat="45.581325" lon="10.4962083"><ele>313.5</ele><time>2026-05-01T08:54:56.479Z</time></trkpt><trkpt lat="45.5814117" lon="10.496205"><ele>314.6666666666667</ele><time>2026-05-01T08:54:58.479Z</time></trkpt><trkpt lat="45.5814867" lon="10.496225"><ele>315.83333333333337</ele><time>2026-05-01T08:55:00.479Z</time></trkpt><trkpt lat="45.581575" lon="10.496255"><ele>317.0</ele><time>2026-05-01T08:55:02.479Z</time></trkpt><trkpt lat="45.5816633" lon="10.49628"><ele>313.2857142857143</ele><time>2026-05-01T08:55:04.48Z</time></trkpt><trkpt lat="45.58176" lon="10.4963083"><ele>309.57142857142856</ele><time>2026-05-01T08:55:06.479Z</time></trkpt><trkpt lat="45.581825" lon="10.4963217"><ele>305.85714285714283</ele><time>2026-05-01T08:55:07.479Z</time></trkpt><trkpt lat="45.5818883" lon="10.496335"><ele>302.1428571428571</ele><time>2026-05-01T08:55:08.479Z</time></trkpt><trkpt lat="45.5819533" lon="10.4963483"><ele>298.4285714285714</ele><time>2026-05-01T08:55:09.479Z</time></trkpt><trkpt lat="45.5820317" lon="10.496355"><ele>294.7142857142857</ele><time>2026-05-01T08:55:10.479Z</time></trkpt><trkpt lat="45.5821017" lon="10.4963617"><ele>291.0</ele><time>2026-05-01T08:55:11.479Z</time></trkpt><trkpt lat="45.5821683" lon="10.496365"><ele>291.0</ele><time>2026-05-01T08:55:12.479Z</time></trkpt><trkpt lat="45.5822833" lon="10.4964017"><ele>291.0</ele><time>2026-05-01T08:55:14.479Z</time></trkpt><trkpt lat="45.582395" lon="10.4964533"><ele>291.0</ele><time>2026-05-01T08:55:16.479Z</time></trkpt><trkpt lat="45.5825233" lon="10.4964567"><ele>291.0</ele><time>2026-05-01T08:55:18.479Z</time></trkpt><trkpt lat="45.582595" lon="10.4964583"><ele>291.0</ele><time>2026-05-01T08:55:19.479Z</time></trkpt><trkpt lat="45.58271" lon="10.4964833"><ele>291.0</ele><time>2026-05-01T08:55:21.479Z</time></trkpt><trkpt lat="45.5828017" lon="10.4965767"><ele>291.0</ele><time>2026-05-01T08:55:23.479Z</time></trkpt><trkpt lat="45.5828517" lon="10.4966367"><ele>291.0</ele><time>2026-05-01T08:55:24.479Z</time></trkpt><trkpt lat="45.58291" lon="10.4966933"><ele>291.0</ele><time>2026-05-01T08:55:25.479Z</time></trkpt><trkpt lat="45.58297" lon="10.4967433"><ele>291.0</ele><time>2026-05-01T08:55:26.479Z</time></trkpt><trkpt lat="45.58303" lon="10.4967967"><ele>291.0</ele><time>2026-05-01T08:55:27.479Z</time></trkpt><trkpt lat="45.5830883" lon="10.4968417"><ele>291.6</ele><time>2026-05-01T08:55:28.479Z</time></trkpt><trkpt lat="45.5831933" lon="10.4969383"><ele>292.20000000000005</ele><time>2026-05-01T08:55:30.479Z</time></trkpt><trkpt lat="45.5832767" lon="10.4970817"><ele>292.79999999999995</ele><time>2026-05-01T08:55:32.479Z</time></trkpt><trkpt lat="45.58331" lon="10.4971933"><ele>293.4</ele><time>2026-05-01T08:55:33.479Z</time></trkpt><trkpt lat="45.5833333" lon="10.4973317"><ele>294.0</ele><time>2026-05-01T08:55:34.479Z</time></trkpt><trkpt lat="45.583335" lon="10.4974983"><ele>292.8333333333333</ele><time>2026-05-01T08:55:35.479Z</time></trkpt><trkpt lat="45.5833283" lon="10.497645"><ele>291.6666666666667</ele><time>2026-05-01T08:55:36.479Z</time></trkpt><trkpt lat="45.5833083" lon="10.4977667"><ele>290.5</ele><time>2026-05-01T08:55:37.479Z</time></trkpt><trkpt lat="45.5832767" lon="10.49787"><ele>289.33333333333337</ele><time>2026-05-01T08:55:38.479Z</time></trkpt><trkpt lat="45.5832267" lon="10.49795"><ele>288.1666666666667</ele><time>2026-05-01T08:55:39.479Z</time></trkpt><trkpt lat="45.5831467" lon="10.4980117"><ele>287.0</ele><time>2026-05-01T08:55:40.48Z</time></trkpt><trkpt lat="45.5830567" lon="10.49807"><ele>287.0</ele><time>2026-05-01T08:55:41.479Z</time></trkpt><trkpt lat="45.5829833" lon="10.4981333"><ele>287.0</ele><time>2026-05-01T08:55:42.479Z</time></trkpt><trkpt lat="45.58293" lon="10.4982067"><ele>287.0</ele><time>2026-05-01T08:55:43.479Z</time></trkpt><trkpt lat="45.582885" lon="10.4982867"><ele>287.0</ele><time>2026-05-01T08:55:44.479Z</time></trkpt><trkpt lat="45.5828317" lon="10.4983717"><ele>287.0</ele><time>2026-05-01T08:55:45.479Z</time></trkpt><trkpt lat="45.58279" lon="10.498455"><ele>287.0</ele><time>2026-05-01T08:55:46.479Z</time></trkpt><trkpt lat="45.5827417" lon="10.498525"><ele>285.83333333333337</ele><time>2026-05-01T08:55:47.479Z</time></trkpt><trkpt lat="45.5826983" lon="10.4985933"><ele>284.6666666666667</ele><time>2026-05-01T08:55:48.479Z</time></trkpt><trkpt lat="45.5826633" lon="10.4986967"><ele>283.5</ele><time>2026-05-01T08:55:49.479Z</time></trkpt><trkpt lat="45.5826383" lon="10.4988217"><ele>282.3333333333333</ele><time>2026-05-01T08:55:50.479Z</time></trkpt><trkpt lat="45.582625" lon="10.4989483"><ele>281.16666666666663</ele><time>2026-05-01T08:55:51.479Z</time></trkpt><trkpt lat="45.58262" lon="10.4990717"><ele>280.0</ele><time>2026-05-01T08:55:52.479Z</time></trkpt><trkpt lat="45.58262" lon="10.49919"><ele>279.3333333333333</ele><time>2026-05-01T08:55:53.479Z</time></trkpt><trkpt lat="45.5826333" lon="10.499305"><ele>278.66666666666663</ele><time>2026-05-01T08:55:54.479Z</time></trkpt><trkpt lat="45.58264" lon="10.4994183"><ele>278.0</ele><time>2026-05-01T08:55:55.479Z</time></trkpt><trkpt lat="45.5826517" lon="10.4995183"><ele>277.3333333333333</ele><time>2026-05-01T08:55:56.479Z</time></trkpt><trkpt lat="45.5826533" lon="10.4996367"><ele>276.6666666666667</ele><time>2026-05-01T08:55:57.479Z</time></trkpt><trkpt lat="45.5826633" lon="10.4997667"><ele>276.0</ele><time>2026-05-01T08:55:58.479Z</time></trkpt><trkpt lat="45.5826817" lon="10.49989"><ele>275.3333333333333</ele><time>2026-05-01T08:55:59.479Z</time></trkpt><trkpt lat="45.582705" lon="10.5000117"><ele>274.6666666666667</ele><time>2026-05-01T08:56:00.48Z</time></trkpt><trkpt lat="45.5827233" lon="10.500115"><ele>274.0</ele><time>2026-05-01T08:56:01.479Z</time></trkpt><trkpt lat="45.58274" lon="10.5002217"><ele>273.33333333333337</ele><time>2026-05-01T08:56:02.479Z</time></trkpt><trkpt lat="45.58276" lon="10.5003283"><ele>272.6666666666667</ele><time>2026-05-01T08:56:03.479Z</time></trkpt><trkpt lat="45.5827833" lon="10.5004267"><ele>272.0</ele><time>2026-05-01T08:56:04.479Z</time></trkpt><trkpt lat="45.5828117" lon="10.5005117"><ele>273.1666666666667</ele><time>2026-05-01T08:56:05.479Z</time></trkpt><trkpt lat="45.5828517" lon="10.5005983"><ele>274.33333333333337</ele><time>2026-05-01T08:56:06.479Z</time></trkpt><trkpt lat="45.5828967" lon="10.5006867"><ele>275.5</ele><time>2026-05-01T08:56:07.479Z</time></trkpt><trkpt lat="45.5829467" lon="10.500775"><ele>276.6666666666667</ele><time>2026-05-01T08:56:08.479Z</time></trkpt><trkpt lat="45.5830017" lon="10.50086"><ele>277.8333333333333</ele><time>2026-05-01T08:56:09.479Z</time></trkpt><trkpt lat="45.58307" lon="10.50094"><ele>279.0</ele><time>2026-05-01T08:56:10.479Z</time></trkpt><trkpt lat="45.5831467" lon="10.5010133"><ele>279.0</ele><time>2026-05-01T08:56:11.479Z</time></trkpt><trkpt lat="45.5832367" lon="10.5010733"><ele>279.0</ele><time>2026-05-01T08:56:12.479Z</time></trkpt><trkpt lat="45.58333" lon="10.5011317"><ele>279.0</ele><time>2026-05-01T08:56:13.479Z</time></trkpt><trkpt lat="45.5834133" lon="10.5011733"><ele>279.0</ele><time>2026-05-01T08:56:14.479Z</time></trkpt><trkpt lat="45.583495" lon="10.5012267"><ele>279.0</ele><time>2026-05-01T08:56:15.479Z</time></trkpt><trkpt lat="45.58357" lon="10.5013"><ele>278.3333333333333</ele><time>2026-05-01T08:56:16.479Z</time></trkpt><trkpt lat="45.5836317" lon="10.5013917"><ele>277.6666666666667</ele><time>2026-05-01T08:56:17.479Z</time></trkpt><trkpt lat="45.5836783" lon="10.5015067"><ele>277.0</ele><time>2026-05-01T08:56:18.479Z</time></trkpt><trkpt lat="45.583715" lon="10.5016083"><ele>276.33333333333337</ele><time>2026-05-01T08:56:19.479Z</time></trkpt><trkpt lat="45.5837517" lon="10.5017167"><ele>275.6666666666667</ele><time>2026-05-01T08:56:20.479Z</time></trkpt><trkpt lat="45.58378" lon="10.5018067"><ele>275.0</ele><time>2026-05-01T08:56:21.479Z</time></trkpt><trkpt lat="45.583835" lon="10.5019367"><ele>275.0</ele><time>2026-05-01T08:56:23.479Z</time></trkpt><trkpt lat="45.5838617" lon="10.502045"><ele>275.0</ele><time>2026-05-01T08:56:25.48Z</time></trkpt><trkpt lat="45.5838617" lon="10.50215"><ele>275.0</ele><time>2026-05-01T08:56:28.479Z</time></trkpt><trkpt lat="45.5838433" lon="10.5022617"><ele>275.0</ele><time>2026-05-01T08:56:30.479Z</time></trkpt><trkpt lat="45.5838183" lon="10.50237"><ele>275.0</ele><time>2026-05-01T08:56:32.479Z</time></trkpt><trkpt lat="45.5838067" lon="10.5024867"><ele>275.0</ele><time>2026-05-01T08:56:35.479Z</time></trkpt><trkpt lat="45.5838467" lon="10.5026017"><ele>274.6666666666667</ele><time>2026-05-01T08:56:38.479Z</time></trkpt><trkpt lat="45.5838883" lon="10.5026717"><ele>274.33333333333337</ele><time>2026-05-01T08:56:40.479Z</time></trkpt><trkpt lat="45.5839767" lon="10.5027867"><ele>274.0</ele><time>2026-05-01T08:56:49.479Z</time></trkpt><trkpt lat="45.58403" lon="10.5028417"><ele>273.6666666666667</ele><time>2026-05-01T08:56:52.479Z</time></trkpt><trkpt lat="45.5841133" lon="10.5028733"><ele>273.3333333333333</ele><time>2026-05-01T08:56:55.479Z</time></trkpt><trkpt lat="45.58419" lon="10.5029"><ele>273.0</ele><time>2026-05-01T08:56:57.479Z</time></trkpt><trkpt lat="45.5842767" lon="10.50292"><ele>271.1666666666667</ele><time>2026-05-01T08:56:59.48Z</time></trkpt><trkpt lat="45.58435" lon="10.50293"><ele>269.3333333333333</ele><time>2026-05-01T08:57:02.479Z</time></trkpt><trkpt lat="45.584415" lon="10.5029417"><ele>267.5</ele><time>2026-05-01T08:57:05.479Z</time></trkpt><trkpt lat="45.5844983" lon="10.5029817"><ele>265.66666666666663</ele><time>2026-05-01T08:57:07.479Z</time></trkpt><trkpt lat="45.5845883" lon="10.50302"><ele>263.8333333333333</ele><time>2026-05-01T08:57:09.479Z</time></trkpt><trkpt lat="45.5846867" lon="10.5030467"><ele>262.0</ele><time>2026-05-01T08:57:11.48Z</time></trkpt><trkpt lat="45.5847967" lon="10.5030967"><ele>261.8</ele><time>2026-05-01T08:57:13.479Z</time></trkpt><trkpt lat="45.5849017" lon="10.5031683"><ele>261.6</ele><time>2026-05-01T08:57:15.479Z</time></trkpt><trkpt lat="45.5849583" lon="10.5032167"><ele>261.40000000000003</ele><time>2026-05-01T08:57:16.479Z</time></trkpt><trkpt lat="45.585055" lon="10.503315"><ele>261.2</ele><time>2026-05-01T08:57:18.479Z</time></trkpt><trkpt lat="45.58513" lon="10.50338"><ele>261.0</ele><time>2026-05-01T08:57:20.479Z</time></trkpt><trkpt lat="45.5852" lon="10.5033517"><ele>261.0</ele><time>2026-05-01T08:57:23.479Z</time></trkpt><trkpt lat="45.58526" lon="10.5032183"><ele>261.0</ele><time>2026-05-01T08:57:25.479Z</time></trkpt><trkpt lat="45.5852917" lon="10.5031267"><ele>261.0</ele><time>2026-05-01T08:57:26.479Z</time></trkpt><trkpt lat="45.5853067" lon="10.5030167"><ele>261.0</ele><time>2026-05-01T08:57:27.479Z</time></trkpt><trkpt lat="45.5853317" lon="10.50289"><ele>261.0</ele><time>2026-05-01T08:57:28.479Z</time></trkpt><trkpt lat="45.5853533" lon="10.5027617"><ele>261.0</ele><time>2026-05-01T08:57:29.479Z</time></trkpt><trkpt lat="45.5853767" lon="10.5026517"><ele>261.40000000000003</ele><time>2026-05-01T08:57:30.479Z</time></trkpt><trkpt lat="45.5854017" lon="10.5025667"><ele>261.8</ele><time>2026-05-01T08:57:31.479Z</time></trkpt><trkpt lat="45.5854367" lon="10.502445"><ele>262.20000000000005</ele><time>2026-05-01T08:57:33.479Z</time></trkpt><trkpt lat="45.5854783" lon="10.502305"><ele>262.6</ele><time>2026-05-01T08:57:35.479Z</time></trkpt><trkpt lat="45.5855067" lon="10.50217"><ele>263.0</ele><time>2026-05-01T08:57:37.479Z</time></trkpt><trkpt lat="45.585535" lon="10.5020417"><ele>263.0</ele><time>2026-05-01T08:57:39.479Z</time></trkpt><trkpt lat="45.58557" lon="10.5019233"><ele>263.0</ele><time>2026-05-01T08:57:41.479Z</time></trkpt><trkpt lat="45.5855933" lon="10.501835"><ele>263.0</ele><time>2026-05-01T08:57:42.479Z</time></trkpt><trkpt lat="45.5856267" lon="10.5017167"><ele>263.0</ele><time>2026-05-01T08:57:43.48Z</time></trkpt><trkpt lat="45.5856683" lon="10.5015983"><ele>263.0</ele><time>2026-05-01T08:57:44.479Z</time></trkpt><trkpt lat="45.5857383" lon="10.5014717"><ele>263.0</ele><time>2026-05-01T08:57:45.479Z</time></trkpt><trkpt lat="45.5858067" lon="10.5013867"><ele>263.0</ele><time>2026-05-01T08:57:46.48Z</time></trkpt><trkpt lat="45.58588" lon="10.5013183"><ele>263.0</ele><time>2026-05-01T08:57:47.48Z</time></trkpt><trkpt lat="45.585975" lon="10.5012767"><ele>263.0</ele><time>2026-05-01T08:57:49.479Z</time></trkpt><trkpt lat="45.5860683" lon="10.5011667"><ele>263.0</ele><time>2026-05-01T08:57:58.479Z</time></trkpt><trkpt lat="45.5861267" lon="10.5010983"><ele>264.5</ele><time>2026-05-01T08:57:59.479Z</time></trkpt><trkpt lat="45.586185" lon="10.5010317"><ele>266.0</ele><time>2026-05-01T08:58:00.479Z</time></trkpt><trkpt lat="45.5862417" lon="10.5009583"><ele>267.5</ele><time>2026-05-01T08:58:01.479Z</time></trkpt><trkpt lat="45.5863" lon="10.50087"><ele>269.0</ele><time>2026-05-01T08:58:02.479Z</time></trkpt><trkpt lat="45.5863733" lon="10.5007667"><ele>270.5</ele><time>2026-05-01T08:58:03.479Z</time></trkpt><trkpt lat="45.5864567" lon="10.50067"><ele>272.0</ele><time>2026-05-01T08:58:04.479Z</time></trkpt><trkpt lat="45.5865283" lon="10.5006067"><ele>272.0</ele><time>2026-05-01T08:58:05.479Z</time></trkpt><trkpt lat="45.5865917" lon="10.5005617"><ele>272.0</ele><time>2026-05-01T08:58:06.479Z</time></trkpt><trkpt lat="45.586655" lon="10.5005333"><ele>272.0</ele><time>2026-05-01T08:58:08.479Z</time></trkpt><trkpt lat="45.5867317" lon="10.5005267"><ele>272.0</ele><time>2026-05-01T08:58:12.479Z</time></trkpt><trkpt lat="45.5867933" lon="10.5004983"><ele>272.0</ele><time>2026-05-01T08:58:15.479Z</time></trkpt><trkpt lat="45.5869017" lon="10.5004717"><ele>272.0</ele><time>2026-05-01T08:58:18.479Z</time></trkpt><trkpt lat="45.5870083" lon="10.5004417"><ele>275.5</ele><time>2026-05-01T08:58:20.479Z</time></trkpt><trkpt lat="45.5871" lon="10.50041"><ele>279.0</ele><time>2026-05-01T08:58:22.479Z</time></trkpt><trkpt lat="45.587185" lon="10.500375"><ele>282.5</ele><time>2026-05-01T08:58:24.479Z</time></trkpt><trkpt lat="45.58726" lon="10.50035"><ele>286.0</ele><time>2026-05-01T08:58:27.479Z</time></trkpt><trkpt lat="45.5873317" lon="10.5003333"><ele>289.5</ele><time>2026-05-01T08:58:30.479Z</time></trkpt><trkpt lat="45.58742" lon="10.5003167"><ele>293.0</ele><time>2026-05-01T08:58:33.479Z</time></trkpt><trkpt lat="45.5875" lon="10.500275"><ele>293.0</ele><time>2026-05-01T08:58:36.479Z</time></trkpt><trkpt lat="45.5875683" lon="10.5002317"><ele>293.0</ele><time>2026-05-01T08:58:44.479Z</time></trkpt><trkpt lat="45.58763" lon="10.5001533"><ele>293.0</ele><time>2026-05-01T08:58:46.479Z</time></trkpt><trkpt lat="45.5877133" lon="10.5000583"><ele>293.0</ele><time>2026-05-01T08:58:48.479Z</time></trkpt><trkpt lat="45.587785" lon="10.5000083"><ele>293.0</ele><time>2026-05-01T08:58:50.479Z</time></trkpt><trkpt lat="45.587845" lon="10.49996"><ele>293.0</ele><time>2026-05-01T08:58:53.479Z</time></trkpt><trkpt lat="45.5879283" lon="10.5"><ele>291.5</ele><time>2026-05-01T08:58:55.479Z</time></trkpt><trkpt lat="45.5879883" lon="10.500065"><ele>290.0</ele><time>2026-05-01T08:58:56.479Z</time></trkpt><trkpt lat="45.58806" lon="10.500145"><ele>288.5</ele><time>2026-05-01T08:58:57.479Z</time></trkpt><trkpt lat="45.58813" lon="10.5002267"><ele>287.0</ele><time>2026-05-01T08:58:58.479Z</time></trkpt><trkpt lat="45.588195" lon="10.5003017"><ele>285.5</ele><time>2026-05-01T08:58:59.479Z</time></trkpt><trkpt lat="45.5882333" lon="10.5003767"><ele>284.0</ele><time>2026-05-01T08:59:00.479Z</time></trkpt><trkpt lat="45.5882717" lon="10.50051"><ele>283.59999999999997</ele><time>2026-05-01T08:59:02.479Z</time></trkpt><trkpt lat="45.5881967" lon="10.5005933"><ele>283.2</ele><time>2026-05-01T08:59:04.479Z</time></trkpt><trkpt lat="45.5881067" lon="10.5006583"><ele>282.79999999999995</ele><time>2026-05-01T08:59:06.479Z</time></trkpt><trkpt lat="45.588025" lon="10.5007417"><ele>282.4</ele><time>2026-05-01T08:59:08.479Z</time></trkpt><trkpt lat="45.5879367" lon="10.5008267"><ele>282.0</ele><time>2026-05-01T08:59:10.479Z</time></trkpt><trkpt lat="45.5878733" lon="10.50091"><ele>281.5</ele><time>2026-05-01T08:59:12.479Z</time></trkpt><trkpt lat="45.5878217" lon="10.500965"><ele>281.0</ele><time>2026-05-01T08:59:15.479Z</time></trkpt><trkpt lat="45.58773" lon="10.500985"><ele>280.5</ele><time>2026-05-01T08:59:18.479Z</time></trkpt><trkpt lat="45.58766" lon="10.501"><ele>280.0</ele><time>2026-05-01T08:59:20.479Z</time></trkpt><trkpt lat="45.5875983" lon="10.501025"><ele>279.5</ele><time>2026-05-01T08:59:22.479Z</time></trkpt><trkpt lat="45.587555" lon="10.501115"><ele>279.0</ele><time>2026-05-01T08:59:26.479Z</time></trkpt><trkpt lat="45.587555" lon="10.501265"><ele>277.6666666666667</ele><time>2026-05-01T08:59:29.48Z</time></trkpt><trkpt lat="45.5875733" lon="10.50136"><ele>276.3333333333333</ele><time>2026-05-01T08:59:31.479Z</time></trkpt><trkpt lat="45.5876283" lon="10.5014117"><ele>275.0</ele><time>2026-05-01T08:59:34.479Z</time></trkpt><trkpt lat="45.587715" lon="10.5013967"><ele>273.66666666666663</ele><time>2026-05-01T08:59:37.479Z</time></trkpt><trkpt lat="45.5877167" lon="10.5015133"><ele>272.3333333333333</ele><time>2026-05-01T08:59:41.479Z</time></trkpt><trkpt lat="45.5876433" lon="10.501585"><ele>271.0</ele><time>2026-05-01T08:59:43.479Z</time></trkpt><trkpt lat="45.5875467" lon="10.50167"><ele>271.0</ele><time>2026-05-01T08:59:45.479Z</time></trkpt><trkpt lat="45.587485" lon="10.5017517"><ele>271.0</ele><time>2026-05-01T08:59:47.479Z</time></trkpt><trkpt lat="45.587465" lon="10.501845"><ele>271.0</ele><time>2026-05-01T08:59:49.48Z</time></trkpt><trkpt lat="45.5874267" lon="10.50192"><ele>271.0</ele><time>2026-05-01T08:59:51.479Z</time></trkpt><trkpt lat="45.5873717" lon="10.5019917"><ele>271.0</ele><time>2026-05-01T08:59:53.479Z</time></trkpt><trkpt lat="45.5873183" lon="10.5020567"><ele>271.0</ele><time>2026-05-01T08:59:55.479Z</time></trkpt><trkpt lat="45.5872517" lon="10.502105"><ele>271.0</ele><time>2026-05-01T08:59:57.479Z</time></trkpt><trkpt lat="45.58717" lon="10.5021267"><ele>267.0</ele><time>2026-05-01T08:59:59.479Z</time></trkpt><trkpt lat="45.5870783" lon="10.502115"><ele>263.0</ele><time>2026-05-01T09:00:01.479Z</time></trkpt><trkpt lat="45.586985" lon="10.5021617"><ele>259.0</ele><time>2026-05-01T09:00:03.479Z</time></trkpt><trkpt lat="45.5869333" lon="10.5022367"><ele>255.0</ele><time>2026-05-01T09:00:05.479Z</time></trkpt><trkpt lat="45.58697" lon="10.5023567"><ele>251.0</ele><time>2026-05-01T09:00:07.479Z</time></trkpt><trkpt lat="45.5870533" lon="10.5024733"><ele>251.0</ele><time>2026-05-01T09:00:09.479Z</time></trkpt><trkpt lat="45.5871517" lon="10.50252"><ele>251.0</ele><time>2026-05-01T09:00:11.479Z</time></trkpt><trkpt lat="45.5872583" lon="10.50254"><ele>251.0</ele><time>2026-05-01T09:00:13.479Z</time></trkpt><trkpt lat="45.5873867" lon="10.502515"><ele>251.0</ele><time>2026-05-01T09:00:15.479Z</time></trkpt><trkpt lat="45.5875117" lon="10.5024933"><ele>251.0</ele><time>2026-05-01T09:00:17.479Z</time></trkpt><trkpt lat="45.5875783" lon="10.5024817"><ele>251.00000000000003</ele><time>2026-05-01T09:00:18.479Z</time></trkpt><trkpt lat="45.58769" lon="10.5024433"><ele>251.00000000000003</ele><time>2026-05-01T09:00:20.479Z</time></trkpt><trkpt lat="45.5877883" lon="10.50243"><ele>251.0</ele><time>2026-05-01T09:00:22.479Z</time></trkpt><trkpt lat="45.5878833" lon="10.50246"><ele>251.0</ele><time>2026-05-01T09:00:24.479Z</time></trkpt><trkpt lat="45.5879617" lon="10.502535"><ele>249.83333333333334</ele><time>2026-05-01T09:00:26.479Z</time></trkpt><trkpt lat="45.588" lon="10.50264"><ele>248.66666666666669</ele><time>2026-05-01T09:00:28.479Z</time></trkpt><trkpt lat="45.58803" lon="10.5027383"><ele>247.5</ele><time>2026-05-01T09:00:30.479Z</time></trkpt><trkpt lat="45.588125" lon="10.5028267"><ele>246.33333333333331</ele><time>2026-05-01T09:00:32.479Z</time></trkpt><trkpt lat="45.5881967" lon="10.50288"><ele>245.16666666666666</ele><time>2026-05-01T09:00:33.479Z</time></trkpt><trkpt lat="45.5882833" lon="10.502935"><ele>244.0</ele><time>2026-05-01T09:00:34.48Z</time></trkpt><trkpt lat="45.58838" lon="10.5029967"><ele>241.0</ele><time>2026-05-01T09:00:35.479Z</time></trkpt><trkpt lat="45.5884617" lon="10.5030367"><ele>237.99999999999997</ele><time>2026-05-01T09:00:36.479Z</time></trkpt><trkpt lat="45.58856" lon="10.50308"><ele>234.99999999999997</ele><time>2026-05-01T09:00:37.479Z</time></trkpt><trkpt lat="45.588665" lon="10.5031133"><ele>232.0</ele><time>2026-05-01T09:00:38.479Z</time></trkpt><trkpt lat="45.58877" lon="10.5031467"><ele>229.0</ele><time>2026-05-01T09:00:39.479Z</time></trkpt><trkpt lat="45.5888783" lon="10.503205"><ele>227.79999999999998</ele><time>2026-05-01T09:00:40.479Z</time></trkpt><trkpt lat="45.588965" lon="10.5032817"><ele>226.59999999999997</ele><time>2026-05-01T09:00:41.479Z</time></trkpt><trkpt lat="45.5890417" lon="10.5033883"><ele>225.4</ele><time>2026-05-01T09:00:42.479Z</time></trkpt><trkpt lat="45.5891017" lon="10.503515"><ele>224.2</ele><time>2026-05-01T09:00:43.479Z</time></trkpt><trkpt lat="45.589165" lon="10.503645"><ele>223.0</ele><time>2026-05-01T09:00:44.479Z</time></trkpt><trkpt lat="45.5892183" lon="10.5037583"><ele>220.49999999999997</ele><time>2026-05-01T09:00:45.479Z</time></trkpt><trkpt lat="45.589285" lon="10.5038283"><ele>218.0</ele><time>2026-05-01T09:00:46.479Z</time></trkpt><trkpt lat="45.589355" lon="10.5038667"><ele>215.5</ele><time>2026-05-01T09:00:47.479Z</time></trkpt><trkpt lat="45.5894367" lon="10.5038733"><ele>213.0</ele><time>2026-05-01T09:00:48.479Z</time></trkpt><trkpt lat="45.5895217" lon="10.5038517"><ele>210.49999999999997</ele><time>2026-05-01T09:00:49.479Z</time></trkpt><trkpt lat="45.5895983" lon="10.5038233"><ele>208.0</ele><time>2026-05-01T09:00:50.479Z</time></trkpt><trkpt lat="45.589685" lon="10.5037733"><ele>208.0</ele><time>2026-05-01T09:00:51.479Z</time></trkpt><trkpt lat="45.5897733" lon="10.5037283"><ele>208.0</ele><time>2026-05-01T09:00:52.479Z</time></trkpt><trkpt lat="45.589875" lon="10.503705"><ele>208.0</ele><time>2026-05-01T09:00:53.479Z</time></trkpt><trkpt lat="45.5899867" lon="10.5036933"><ele>208.0</ele><time>2026-05-01T09:00:54.479Z</time></trkpt><trkpt lat="45.5900967" lon="10.5036867"><ele>208.0</ele><time>2026-05-01T09:00:55.479Z</time></trkpt><trkpt lat="45.5901917" lon="10.5036833"><ele>208.0</ele><time>2026-05-01T09:00:56.479Z</time></trkpt><trkpt lat="45.5902717" lon="10.503665"><ele>208.0</ele><time>2026-05-01T09:00:57.479Z</time></trkpt><trkpt lat="45.59036" lon="10.50365"><ele>208.0</ele><time>2026-05-01T09:00:58.479Z</time></trkpt><trkpt lat="45.5904617" lon="10.503635"><ele>208.0</ele><time>2026-05-01T09:00:59.479Z</time></trkpt><trkpt lat="45.590565" lon="10.5036267"><ele>208.0</ele><time>2026-05-01T09:01:00.479Z</time></trkpt><trkpt lat="45.5906817" lon="10.5036317"><ele>204.0</ele><time>2026-05-01T09:01:01.479Z</time></trkpt><trkpt lat="45.5908" lon="10.5036517"><ele>200.0</ele><time>2026-05-01T09:01:02.48Z</time></trkpt><trkpt lat="45.5909067" lon="10.5036933"><ele>196.0</ele><time>2026-05-01T09:01:03.479Z</time></trkpt><trkpt lat="45.5910233" lon="10.50372"><ele>192.0</ele><time>2026-05-01T09:01:04.479Z</time></trkpt><trkpt lat="45.591145" lon="10.5037517"><ele>187.75</ele><time>2026-05-01T09:01:05.479Z</time></trkpt><trkpt lat="45.591275" lon="10.50379"><ele>183.5</ele><time>2026-05-01T09:01:06.479Z</time></trkpt><trkpt lat="45.5914117" lon="10.5038433"><ele>179.25</ele><time>2026-05-01T09:01:07.479Z</time></trkpt><trkpt lat="45.5915367" lon="10.503905"><ele>175.0</ele><time>2026-05-01T09:01:08.479Z</time></trkpt><trkpt lat="45.5916617" lon="10.503965"><ele>175.0</ele><time>2026-05-01T09:01:09.48Z</time></trkpt><trkpt lat="45.5917717" lon="10.50402"><ele>175.0</ele><time>2026-05-01T09:01:10.479Z</time></trkpt><trkpt lat="45.5918717" lon="10.5040633"><ele>175.0</ele><time>2026-05-01T09:01:11.479Z</time></trkpt><trkpt lat="45.5919533" lon="10.5041"><ele>175.0</ele><time>2026-05-01T09:01:12.479Z</time></trkpt><trkpt lat="45.5920433" lon="10.5041233"><ele>175.0</ele><time>2026-05-01T09:01:13.479Z</time></trkpt><trkpt lat="45.5921233" lon="10.5041517"><ele>174.42857142857142</ele><time>2026-05-01T09:01:14.479Z</time></trkpt><trkpt lat="45.59219" lon="10.504185"><ele>173.85714285714286</ele><time>2026-05-01T09:01:15.479Z</time></trkpt><trkpt lat="45.592235" lon="10.504255"><ele>173.28571428571428</ele><time>2026-05-01T09:01:16.479Z</time></trkpt><trkpt lat="45.5922667" lon="10.5043367"><ele>172.71428571428572</ele><time>2026-05-01T09:01:17.479Z</time></trkpt><trkpt lat="45.5922867" lon="10.5044267"><ele>172.14285714285714</ele><time>2026-05-01T09:01:18.479Z</time></trkpt><trkpt lat="45.5922967" lon="10.5045233"><ele>171.57142857142856</ele><time>2026-05-01T09:01:19.479Z</time></trkpt><trkpt lat="45.5923" lon="10.5046283"><ele>171.0</ele><time>2026-05-01T09:01:20.479Z</time></trkpt><trkpt lat="45.5922933" lon="10.5047533"><ele>170.4</ele><time>2026-05-01T09:01:21.479Z</time></trkpt><trkpt lat="45.592275" lon="10.5048933"><ele>169.8</ele><time>2026-05-01T09:01:22.479Z</time></trkpt><trkpt lat="45.592265" lon="10.5050517"><ele>169.20000000000002</ele><time>2026-05-01T09:01:23.479Z</time></trkpt><trkpt lat="45.5922583" lon="10.5052083"><ele>168.60000000000002</ele><time>2026-05-01T09:01:24.479Z</time></trkpt><trkpt lat="45.5922417" lon="10.5053533"><ele>168.0</ele><time>2026-05-01T09:01:25.479Z</time></trkpt><trkpt lat="45.5922383" lon="10.5054967"><ele>167.33333333333334</ele><time>2026-05-01T09:01:26.48Z</time></trkpt><trkpt lat="45.592235" lon="10.5056183"><ele>166.66666666666666</ele><time>2026-05-01T09:01:27.479Z</time></trkpt><trkpt lat="45.5922417" lon="10.50573"><ele>166.0</ele><time>2026-05-01T09:01:28.479Z</time></trkpt><trkpt lat="45.592245" lon="10.5058333"><ele>165.33333333333331</ele><time>2026-05-01T09:01:29.479Z</time></trkpt><trkpt lat="45.592285" lon="10.5059783"><ele>164.66666666666666</ele><time>2026-05-01T09:01:31.479Z</time></trkpt><trkpt lat="45.5923367" lon="10.5060833"><ele>164.0</ele><time>2026-05-01T09:01:33.479Z</time></trkpt><trkpt lat="45.5924183" lon="10.50612"><ele>164.0</ele><time>2026-05-01T09:01:40.479Z</time></trkpt><trkpt lat="45.5925033" lon="10.5060483"><ele>164.0</ele><time>2026-05-01T09:01:42.479Z</time></trkpt><trkpt lat="45.5925483" lon="10.5059483"><ele>164.0</ele><time>2026-05-01T09:01:43.479Z</time></trkpt><trkpt lat="45.592615" lon="10.5058167"><ele>164.0</ele><time>2026-05-01T09:01:44.48Z</time></trkpt><trkpt lat="45.5926983" lon="10.50566"><ele>164.0</ele><time>2026-05-01T09:01:45.479Z</time></trkpt><trkpt lat="45.5927883" lon="10.5054867"><ele>165.0</ele><time>2026-05-01T09:01:46.479Z</time></trkpt><trkpt lat="45.5928883" lon="10.5052967"><ele>166.0</ele><time>2026-05-01T09:01:47.48Z</time></trkpt><trkpt lat="45.5929917" lon="10.50512"><ele>167.0</ele><time>2026-05-01T09:01:48.479Z</time></trkpt><trkpt lat="45.5930933" lon="10.5049617"><ele>167.0</ele><time>2026-05-01T09:01:49.479Z</time></trkpt><trkpt lat="45.5931817" lon="10.504835"><ele>167.0</ele><time>2026-05-01T09:01:50.479Z</time></trkpt><trkpt lat="45.5932717" lon="10.50472"><ele>167.0</ele><time>2026-05-01T09:01:51.479Z</time></trkpt><trkpt lat="45.5933533" lon="10.504635"><ele>167.0</ele><time>2026-05-01T09:01:52.479Z</time></trkpt><trkpt lat="45.5934117" lon="10.5045517"><ele>167.0</ele><time>2026-05-01T09:01:53.479Z</time></trkpt><trkpt lat="45.5934333" lon="10.5043667"><ele>167.6</ele><time>2026-05-01T09:01:55.479Z</time></trkpt><trkpt lat="45.5934167" lon="10.504245"><ele>168.2</ele><time>2026-05-01T09:01:56.479Z</time></trkpt><trkpt lat="45.5933967" lon="10.5040983"><ele>168.8</ele><time>2026-05-01T09:01:57.479Z</time></trkpt><trkpt lat="45.59338" lon="10.50394"><ele>169.4</ele><time>2026-05-01T09:01:58.479Z</time></trkpt><trkpt lat="45.5933633" lon="10.5037717"><ele>170.0</ele><time>2026-05-01T09:01:59.479Z</time></trkpt><trkpt lat="45.5933367" lon="10.5036183"><ele>171.16666666666666</ele><time>2026-05-01T09:02:00.479Z</time></trkpt><trkpt lat="45.5933183" lon="10.5034783"><ele>172.33333333333331</ele><time>2026-05-01T09:02:01.48Z</time></trkpt><trkpt lat="45.5933083" lon="10.503365"><ele>173.5</ele><time>2026-05-01T09:02:02.479Z</time></trkpt><trkpt lat="45.5933133" lon="10.503255"><ele>174.66666666666666</ele><time>2026-05-01T09:02:03.479Z</time></trkpt><trkpt lat="45.5933333" lon="10.5031567"><ele>175.83333333333334</ele><time>2026-05-01T09:02:04.479Z</time></trkpt><trkpt lat="45.593385" lon="10.5030767"><ele>177.0</ele><time>2026-05-01T09:02:05.479Z</time></trkpt><trkpt lat="45.5934483" lon="10.5029967"><ele>179.39999999999998</ele><time>2026-05-01T09:02:06.479Z</time></trkpt><trkpt lat="45.5934983" lon="10.502885"><ele>181.79999999999998</ele><time>2026-05-01T09:02:07.48Z</time></trkpt><trkpt lat="45.59352" lon="10.5027367"><ele>184.2</ele><time>2026-05-01T09:02:08.479Z</time></trkpt><trkpt lat="45.5935183" lon="10.50257"><ele>186.6</ele><time>2026-05-01T09:02:09.479Z</time></trkpt><trkpt lat="45.5935067" lon="10.5024167"><ele>189.0</ele><time>2026-05-01T09:02:10.479Z</time></trkpt><trkpt lat="45.59349" lon="10.5022933"><ele>189.0</ele><time>2026-05-01T09:02:11.479Z</time></trkpt><trkpt lat="45.59348" lon="10.502145"><ele>189.0</ele><time>2026-05-01T09:02:13.479Z</time></trkpt><trkpt lat="45.5935233" lon="10.502075"><ele>189.0</ele><time>2026-05-01T09:02:15.479Z</time></trkpt><trkpt lat="45.59361" lon="10.5020983"><ele>189.0</ele><time>2026-05-01T09:02:17.479Z</time></trkpt><trkpt lat="45.5937183" lon="10.5021517"><ele>189.0</ele><time>2026-05-01T09:02:19.479Z</time></trkpt><trkpt lat="45.5937817" lon="10.5021517"><ele>189.0</ele><time>2026-05-01T09:02:20.479Z</time></trkpt><trkpt lat="45.593895" lon="10.5021283"><ele>188.0</ele><time>2026-05-01T09:02:22.479Z</time></trkpt><trkpt lat="45.5939733" lon="10.5020817"><ele>187.0</ele><time>2026-05-01T09:02:23.479Z</time></trkpt><trkpt lat="45.594055" lon="10.50204"><ele>186.0</ele><time>2026-05-01T09:02:24.479Z</time></trkpt><trkpt lat="45.594145" lon="10.502"><ele>185.0</ele><time>2026-05-01T09:02:25.479Z</time></trkpt><trkpt lat="45.5942467" lon="10.50196"><ele>184.0</ele><time>2026-05-01T09:02:26.479Z</time></trkpt><trkpt lat="45.5943467" lon="10.5019367"><ele>186.16666666666669</ele><time>2026-05-01T09:02:27.479Z</time></trkpt><trkpt lat="45.594445" lon="10.50191"><ele>188.33333333333334</ele><time>2026-05-01T09:02:28.479Z</time></trkpt><trkpt lat="45.5945283" lon="10.501895"><ele>190.5</ele><time>2026-05-01T09:02:29.479Z</time></trkpt><trkpt lat="45.5946017" lon="10.5018883"><ele>192.66666666666669</ele><time>2026-05-01T09:02:30.479Z</time></trkpt><trkpt lat="45.5946683" lon="10.5018833"><ele>194.83333333333334</ele><time>2026-05-01T09:02:31.479Z</time></trkpt><trkpt lat="45.5947833" lon="10.5018617"><ele>197.0</ele><time>2026-05-01T09:02:33.479Z</time></trkpt><trkpt lat="45.5948967" lon="10.501835"><ele>197.2</ele><time>2026-05-01T09:02:35.479Z</time></trkpt><trkpt lat="45.5950183" lon="10.5018217"><ele>197.39999999999998</ele><time>2026-05-01T09:02:37.479Z</time></trkpt><trkpt lat="45.59513" lon="10.50182"><ele>197.60000000000002</ele><time>2026-05-01T09:02:39.479Z</time></trkpt><trkpt lat="45.5952267" lon="10.501815"><ele>197.8</ele><time>2026-05-01T09:02:41.48Z</time></trkpt><trkpt lat="45.595325" lon="10.5018"><ele>198.0</ele><time>2026-05-01T09:02:43.479Z</time></trkpt><trkpt lat="45.5954283" lon="10.5017883"><ele>198.0</ele><time>2026-05-01T09:02:45.479Z</time></trkpt><trkpt lat="45.59553" lon="10.5017717"><ele>198.0</ele><time>2026-05-01T09:02:47.479Z</time></trkpt><trkpt lat="45.5956267" lon="10.5017633"><ele>198.0</ele><time>2026-05-01T09:02:49.479Z</time></trkpt><trkpt lat="45.595725" lon="10.5017667"><ele>198.0</ele><time>2026-05-01T09:02:51.479Z</time></trkpt><trkpt lat="45.595795" lon="10.50177"><ele>198.0</ele><time>2026-05-01T09:02:53.479Z</time></trkpt><trkpt lat="45.5958667" lon="10.5017333"><ele>198.0</ele><time>2026-05-01T09:02:56.479Z</time></trkpt><trkpt lat="45.5958917" lon="10.5016267"><ele>198.0</ele><time>2026-05-01T09:02:59.479Z</time></trkpt><trkpt lat="45.5959017" lon="10.50151"><ele>198.0</ele><time>2026-05-01T09:03:01.479Z</time></trkpt><trkpt lat="45.5958967" lon="10.501315"><ele>198.0</ele><time>2026-05-01T09:03:03.479Z</time></trkpt><trkpt lat="45.59589" lon="10.5012017"><ele>198.0</ele><time>2026-05-01T09:03:04.479Z</time></trkpt><trkpt lat="45.595885" lon="10.5010733"><ele>198.0</ele><time>2026-05-01T09:03:05.479Z</time></trkpt><trkpt lat="45.5958867" lon="10.500935"><ele>202.0</ele><time>2026-05-01T09:03:06.479Z</time></trkpt><trkpt lat="45.5958817" lon="10.5007883"><ele>206.0</ele><time>2026-05-01T09:03:07.479Z</time></trkpt><trkpt lat="45.5958767" lon="10.5006383"><ele>210.0</ele><time>2026-05-01T09:03:08.479Z</time></trkpt><trkpt lat="45.59587" lon="10.5004867"><ele>214.0</ele><time>2026-05-01T09:03:09.479Z</time></trkpt><trkpt lat="45.5958583" lon="10.5003317"><ele>218.0</ele><time>2026-05-01T09:03:10.479Z</time></trkpt><trkpt lat="45.5958567" lon="10.50018"><ele>220.16666666666669</ele><time>2026-05-01T09:03:11.479Z</time></trkpt><trkpt lat="45.5958617" lon="10.50004"><ele>222.33333333333334</ele><time>2026-05-01T09:03:12.479Z</time></trkpt><trkpt lat="45.5958817" lon="10.4999167"><ele>224.5</ele><time>2026-05-01T09:03:13.48Z</time></trkpt><trkpt lat="45.5959117" lon="10.4998017"><ele>226.66666666666669</ele><time>2026-05-01T09:03:14.479Z</time></trkpt><trkpt lat="45.5959417" lon="10.4996883"><ele>228.83333333333334</ele><time>2026-05-01T09:03:15.479Z</time></trkpt><trkpt lat="45.5959867" lon="10.49958"><ele>231.0</ele><time>2026-05-01T09:03:16.479Z</time></trkpt><trkpt lat="45.5960383" lon="10.4994617"><ele>233.16666666666666</ele><time>2026-05-01T09:03:17.479Z</time></trkpt><trkpt lat="45.5961017" lon="10.499365"><ele>235.33333333333331</ele><time>2026-05-01T09:03:18.479Z</time></trkpt><trkpt lat="45.5961617" lon="10.4992733"><ele>237.5</ele><time>2026-05-01T09:03:19.48Z</time></trkpt><trkpt lat="45.5962183" lon="10.499175"><ele>239.66666666666666</ele><time>2026-05-01T09:03:20.479Z</time></trkpt><trkpt lat="45.5962717" lon="10.4990783"><ele>241.83333333333331</ele><time>2026-05-01T09:03:21.479Z</time></trkpt><trkpt lat="45.59632" lon="10.4989983"><ele>244.0</ele><time>2026-05-01T09:03:22.479Z</time></trkpt><trkpt lat="45.5963633" lon="10.4988567"><ele>246.16666666666666</ele><time>2026-05-01T09:03:24.48Z</time></trkpt><trkpt lat="45.596365" lon="10.49874"><ele>248.33333333333331</ele><time>2026-05-01T09:03:26.479Z</time></trkpt><trkpt lat="45.596375" lon="10.4986483"><ele>250.5</ele><time>2026-05-01T09:03:28.479Z</time></trkpt><trkpt lat="45.5964117" lon="10.4985383"><ele>252.66666666666669</ele><time>2026-05-01T09:03:31.479Z</time></trkpt><trkpt lat="45.59647" lon="10.498465"><ele>254.83333333333334</ele><time>2026-05-01T09:03:33.479Z</time></trkpt><trkpt lat="45.5965283" lon="10.4983583"><ele>257.0</ele><time>2026-05-01T09:03:35.479Z</time></trkpt><trkpt lat="45.5965967" lon="10.49821"><ele>257.0</ele><time>2026-05-01T09:03:37.479Z</time></trkpt><trkpt lat="45.5966367" lon="10.4981233"><ele>257.0</ele><time>2026-05-01T09:03:38.479Z</time></trkpt><trkpt lat="45.59668" lon="10.49804"><ele>257.0</ele><time>2026-05-01T09:03:39.479Z</time></trkpt><trkpt lat="45.5967617" lon="10.4979233"><ele>257.0</ele><time>2026-05-01T09:03:41.479Z</time></trkpt><trkpt lat="45.5968483" lon="10.4978217"><ele>257.0</ele><time>2026-05-01T09:03:43.48Z</time></trkpt><trkpt lat="45.59689" lon="10.49775"><ele>257.0</ele><time>2026-05-01T09:03:45.479Z</time></trkpt><trkpt lat="45.596925" lon="10.497555"><ele>259.6666666666667</ele><time>2026-05-01T09:04:08.479Z</time></trkpt><trkpt lat="45.5969383" lon="10.4974417"><ele>262.33333333333337</ele><time>2026-05-01T09:04:25.479Z</time></trkpt><trkpt lat="45.596925" lon="10.497345"><ele>265.0</ele><time>2026-05-01T09:04:28.479Z</time></trkpt><trkpt lat="45.5968983" lon="10.4972417"><ele>267.6666666666667</ele><time>2026-05-01T09:04:31.479Z</time></trkpt><trkpt lat="45.5968333" lon="10.4971233"><ele>270.3333333333333</ele><time>2026-05-01T09:05:09.48Z</time></trkpt><trkpt lat="45.5967717" lon="10.4970433"><ele>273.0</ele><time>2026-05-01T09:05:17.479Z</time></trkpt><trkpt lat="45.5967433" lon="10.496935"><ele>277.1666666666667</ele><time>2026-05-01T09:05:20.48Z</time></trkpt><trkpt lat="45.596695" lon="10.4968267"><ele>281.3333333333333</ele><time>2026-05-01T09:05:23.479Z</time></trkpt><trkpt lat="45.5966367" lon="10.496745"><ele>285.5</ele><time>2026-05-01T09:05:26.479Z</time></trkpt><trkpt lat="45.5965667" lon="10.4966933"><ele>289.66666666666663</ele><time>2026-05-01T09:05:28.479Z</time></trkpt><trkpt lat="45.59648" lon="10.4967067"><ele>293.8333333333333</ele><time>2026-05-01T09:05:30.479Z</time></trkpt><trkpt lat="45.596395" lon="10.4967667"><ele>298.0</ele><time>2026-05-01T09:05:32.479Z</time></trkpt><trkpt lat="45.5962733" lon="10.4967733"><ele>298.0</ele><time>2026-05-01T09:06:01.479Z</time></trkpt><trkpt lat="45.5961967" lon="10.496735"><ele>298.0</ele><time>2026-05-01T09:06:04.479Z</time></trkpt><trkpt lat="45.5961633" lon="10.4966417"><ele>298.0</ele><time>2026-05-01T09:06:07.48Z</time></trkpt><trkpt lat="45.5961883" lon="10.4965483"><ele>298.0</ele><time>2026-05-01T09:06:10.479Z</time></trkpt><trkpt lat="45.5960983" lon="10.49652"><ele>298.0</ele><time>2026-05-01T09:06:13.479Z</time></trkpt><trkpt lat="45.5959833" lon="10.4965367"><ele>298.0</ele><time>2026-05-01T09:06:15.479Z</time></trkpt><trkpt lat="45.5958767" lon="10.4965617"><ele>300.6</ele><time>2026-05-01T09:06:17.479Z</time></trkpt><trkpt lat="45.595755" lon="10.4965783"><ele>303.20000000000005</ele><time>2026-05-01T09:06:19.479Z</time></trkpt><trkpt lat="45.5956467" lon="10.4966083"><ele>305.8</ele><time>2026-05-01T09:06:21.48Z</time></trkpt><trkpt lat="45.5955733" lon="10.4966433"><ele>308.40000000000003</ele><time>2026-05-01T09:06:23.479Z</time></trkpt><trkpt lat="45.5955033" lon="10.496665"><ele>311.0</ele><time>2026-05-01T09:06:26.479Z</time></trkpt><trkpt lat="45.59547" lon="10.49655"><ele>311.0</ele><time>2026-05-01T09:06:29.48Z</time></trkpt><trkpt lat="45.5954817" lon="10.4964117"><ele>311.0</ele><time>2026-05-01T09:06:31.479Z</time></trkpt><trkpt lat="45.5955083" lon="10.4963067"><ele>311.0</ele><time>2026-05-01T09:06:33.479Z</time></trkpt><trkpt lat="45.595475" lon="10.4961817"><ele>311.0</ele><time>2026-05-01T09:06:36.48Z</time></trkpt><trkpt lat="45.595415" lon="10.4960583"><ele>311.0</ele><time>2026-05-01T09:21:34.477Z</time></trkpt><trkpt lat="45.595435" lon="10.4959467"><ele>314.83333333333337</ele><time>2026-05-01T09:21:36.477Z</time></trkpt><trkpt lat="45.5954333" lon="10.4958433"><ele>318.6666666666667</ele><time>2026-05-01T09:21:38.477Z</time></trkpt><trkpt lat="45.595405" lon="10.495755"><ele>322.5</ele><time>2026-05-01T09:21:40.478Z</time></trkpt><trkpt lat="45.595345" lon="10.4956917"><ele>326.3333333333333</ele><time>2026-05-01T09:21:42.477Z</time></trkpt><trkpt lat="45.5952283" lon="10.4956633"><ele>330.16666666666663</ele><time>2026-05-01T09:21:44.478Z</time></trkpt><trkpt lat="45.5951467" lon="10.4956567"><ele>334.0</ele><time>2026-05-01T09:21:45.477Z</time></trkpt><trkpt lat="45.5950617" lon="10.4956467"><ele>334.66666666666663</ele><time>2026-05-01T09:21:46.477Z</time></trkpt><trkpt lat="45.5949683" lon="10.4956433"><ele>335.3333333333333</ele><time>2026-05-01T09:21:47.477Z</time></trkpt><trkpt lat="45.594895" lon="10.49564"><ele>336.0</ele><time>2026-05-01T09:21:48.477Z</time></trkpt><trkpt lat="45.59482" lon="10.49564"><ele>336.6666666666667</ele><time>2026-05-01T09:21:49.477Z</time></trkpt><trkpt lat="45.594755" lon="10.4956533"><ele>337.33333333333337</ele><time>2026-05-01T09:21:50.477Z</time></trkpt><trkpt lat="45.5946567" lon="10.4956583"><ele>338.0</ele><time>2026-05-01T09:21:52.477Z</time></trkpt><trkpt lat="45.594585" lon="10.4956183"><ele>338.0</ele><time>2026-05-01T09:21:54.477Z</time></trkpt><trkpt lat="45.59454" lon="10.4955283"><ele>338.0</ele><time>2026-05-01T09:21:56.477Z</time></trkpt><trkpt lat="45.594495" lon="10.4954583"><ele>338.0</ele><time>2026-05-01T09:21:58.477Z</time></trkpt><trkpt lat="45.59441" lon="10.4953833"><ele>338.0</ele><time>2026-05-01T09:22:00.477Z</time></trkpt><trkpt lat="45.594335" lon="10.4952833"><ele>338.0</ele><time>2026-05-01T09:22:02.477Z</time></trkpt><trkpt lat="45.594335" lon="10.49514"><ele>338.0</ele><time>2026-05-01T09:22:04.477Z</time></trkpt><trkpt lat="45.59436" lon="10.4950567"><ele>339.33333333333337</ele><time>2026-05-01T09:22:05.477Z</time></trkpt><trkpt lat="45.5944017" lon="10.4949783"><ele>340.6666666666667</ele><time>2026-05-01T09:22:06.477Z</time></trkpt><trkpt lat="45.5944633" lon="10.4948917"><ele>342.0</ele><time>2026-05-01T09:22:07.477Z</time></trkpt><trkpt lat="45.5945333" lon="10.49481"><ele>343.3333333333333</ele><time>2026-05-01T09:22:08.477Z</time></trkpt><trkpt lat="45.5946067" lon="10.494725"><ele>344.66666666666663</ele><time>2026-05-01T09:22:09.478Z</time></trkpt><trkpt lat="45.594685" lon="10.494625"><ele>346.0</ele><time>2026-05-01T09:22:10.477Z</time></trkpt><trkpt lat="45.59476" lon="10.49452"><ele>346.0</ele><time>2026-05-01T09:22:11.478Z</time></trkpt><trkpt lat="45.5948267" lon="10.49444"><ele>346.0</ele><time>2026-05-01T09:22:12.477Z</time></trkpt><trkpt lat="45.5948817" lon="10.494375"><ele>346.0</ele><time>2026-05-01T09:22:13.477Z</time></trkpt><trkpt lat="45.5949417" lon="10.494325"><ele>346.0</ele><time>2026-05-01T09:22:14.477Z</time></trkpt><trkpt lat="45.595005" lon="10.4942917"><ele>346.0</ele><time>2026-05-01T09:22:15.477Z</time></trkpt><trkpt lat="45.5950783" lon="10.49429"><ele>346.0</ele><time>2026-05-01T09:22:16.477Z</time></trkpt><trkpt lat="45.59516" lon="10.494305"><ele>346.0</ele><time>2026-05-01T09:22:17.477Z</time></trkpt><trkpt lat="45.595255" lon="10.494325"><ele>346.0</ele><time>2026-05-01T09:22:18.477Z</time></trkpt><trkpt lat="45.595355" lon="10.4943383"><ele>346.0</ele><time>2026-05-01T09:22:19.477Z</time></trkpt><trkpt lat="45.5954417" lon="10.4943467"><ele>346.0</ele><time>2026-05-01T09:22:20.478Z</time></trkpt><trkpt lat="45.59551" lon="10.4943433"><ele>346.0</ele><time>2026-05-01T09:22:21.477Z</time></trkpt><trkpt lat="45.5955867" lon="10.4943417"><ele>346.0</ele><time>2026-05-01T09:22:22.477Z</time></trkpt><trkpt lat="45.59566" lon="10.4943317"><ele>346.1428571428571</ele><time>2026-05-01T09:22:23.477Z</time></trkpt><trkpt lat="45.5957433" lon="10.4943183"><ele>346.28571428571433</ele><time>2026-05-01T09:22:24.477Z</time></trkpt><trkpt lat="45.5958167" lon="10.4943067"><ele>346.42857142857144</ele><time>2026-05-01T09:22:25.477Z</time></trkpt><trkpt lat="45.5958883" lon="10.4942867"><ele>346.57142857142856</ele><time>2026-05-01T09:22:26.477Z</time></trkpt><trkpt lat="45.59596" lon="10.494265"><ele>346.71428571428567</ele><time>2026-05-01T09:22:27.477Z</time></trkpt><trkpt lat="45.59603" lon="10.4942383"><ele>346.8571428571429</ele><time>2026-05-01T09:22:28.477Z</time></trkpt><trkpt lat="45.5960917" lon="10.4942033"><ele>347.0</ele><time>2026-05-01T09:22:29.477Z</time></trkpt><trkpt lat="45.596155" lon="10.4941733"><ele>346.8571428571429</ele><time>2026-05-01T09:22:30.477Z</time></trkpt><trkpt lat="45.5962167" lon="10.4941533"><ele>346.71428571428567</ele><time>2026-05-01T09:22:31.477Z</time></trkpt><trkpt lat="45.5962833" lon="10.4941517"><ele>346.57142857142856</ele><time>2026-05-01T09:22:32.477Z</time></trkpt><trkpt lat="45.5963583" lon="10.4941667"><ele>346.42857142857144</ele><time>2026-05-01T09:22:33.477Z</time></trkpt><trkpt lat="45.59644" lon="10.494185"><ele>346.28571428571433</ele><time>2026-05-01T09:22:34.477Z</time></trkpt><trkpt lat="45.596515" lon="10.4942133"><ele>346.1428571428571</ele><time>2026-05-01T09:22:35.477Z</time></trkpt><trkpt lat="45.5965817" lon="10.494245"><ele>346.0</ele><time>2026-05-01T09:22:36.477Z</time></trkpt><trkpt lat="45.5966467" lon="10.49427"><ele>346.0</ele><time>2026-05-01T09:22:37.477Z</time></trkpt><trkpt lat="45.59671" lon="10.4942917"><ele>346.0</ele><time>2026-05-01T09:22:38.477Z</time></trkpt><trkpt lat="45.596775" lon="10.4943267"><ele>346.0</ele><time>2026-05-01T09:22:39.478Z</time></trkpt><trkpt lat="45.5968433" lon="10.4943617"><ele>346.0</ele><time>2026-05-01T09:22:40.477Z</time></trkpt><trkpt lat="45.5969067" lon="10.4943983"><ele>346.0</ele><time>2026-05-01T09:22:41.477Z</time></trkpt><trkpt lat="45.596965" lon="10.4944367"><ele>346.0</ele><time>2026-05-01T09:22:42.477Z</time></trkpt><trkpt lat="45.597025" lon="10.4944733"><ele>346.0</ele><time>2026-05-01T09:22:43.477Z</time></trkpt><trkpt lat="45.5971317" lon="10.4945083"><ele>345.8</ele><time>2026-05-01T09:22:45.477Z</time></trkpt><trkpt lat="45.5972383" lon="10.4945017"><ele>345.6</ele><time>2026-05-01T09:22:47.477Z</time></trkpt><trkpt lat="45.597365" lon="10.4944267"><ele>345.4</ele><time>2026-05-01T09:22:49.477Z</time></trkpt><trkpt lat="45.59743" lon="10.494355"><ele>345.2</ele><time>2026-05-01T09:22:50.477Z</time></trkpt><trkpt lat="45.5975033" lon="10.4942833"><ele>345.0</ele><time>2026-05-01T09:22:51.477Z</time></trkpt><trkpt lat="45.5975717" lon="10.4942133"><ele>345.0</ele><time>2026-05-01T09:22:52.477Z</time></trkpt><trkpt lat="45.597635" lon="10.4941533"><ele>345.0</ele><time>2026-05-01T09:22:53.477Z</time></trkpt><trkpt lat="45.5976917" lon="10.4940967"><ele>345.0</ele><time>2026-05-01T09:22:54.477Z</time></trkpt><trkpt lat="45.5977417" lon="10.4940333"><ele>345.0</ele><time>2026-05-01T09:22:55.477Z</time></trkpt><trkpt lat="45.5977883" lon="10.4939683"><ele>345.0</ele><time>2026-05-01T09:22:56.477Z</time></trkpt><trkpt lat="45.5978783" lon="10.4938667"><ele>345.0</ele><time>2026-05-01T09:22:58.477Z</time></trkpt><trkpt lat="45.5979733" lon="10.4937867"><ele>344.1666666666667</ele><time>2026-05-01T09:23:00.477Z</time></trkpt><trkpt lat="45.59809" lon="10.4937667"><ele>343.3333333333333</ele><time>2026-05-01T09:23:02.477Z</time></trkpt><trkpt lat="45.598155" lon="10.4937667"><ele>342.5</ele><time>2026-05-01T09:23:03.477Z</time></trkpt><trkpt lat="45.5982433" lon="10.4937867"><ele>341.66666666666663</ele><time>2026-05-01T09:23:05.478Z</time></trkpt><trkpt lat="45.5983217" lon="10.4938183"><ele>340.8333333333333</ele><time>2026-05-01T09:23:07.477Z</time></trkpt><trkpt lat="45.5983917" lon="10.49386"><ele>340.0</ele><time>2026-05-01T09:23:09.477Z</time></trkpt><trkpt lat="45.5984667" lon="10.49391"><ele>340.0</ele><time>2026-05-01T09:23:11.477Z</time></trkpt><trkpt lat="45.59854" lon="10.4939583"><ele>340.0</ele><time>2026-05-01T09:23:13.477Z</time></trkpt><trkpt lat="45.5986467" lon="10.4939883"><ele>340.0</ele><time>2026-05-01T09:23:15.478Z</time></trkpt><trkpt lat="45.5987583" lon="10.49398"><ele>340.0</ele><time>2026-05-01T09:23:17.478Z</time></trkpt><trkpt lat="45.598855" lon="10.4939117"><ele>340.0</ele><time>2026-05-01T09:23:19.477Z</time></trkpt><trkpt lat="45.5989167" lon="10.4937867"><ele>337.8</ele><time>2026-05-01T09:23:21.477Z</time></trkpt><trkpt lat="45.59893" lon="10.49363"><ele>335.6</ele><time>2026-05-01T09:23:23.477Z</time></trkpt><trkpt lat="45.5989167" lon="10.4934733"><ele>333.4</ele><time>2026-05-01T09:23:25.477Z</time></trkpt><trkpt lat="45.59892" lon="10.4933333"><ele>331.2</ele><time>2026-05-01T09:23:27.477Z</time></trkpt><trkpt lat="45.5989883" lon="10.4932867"><ele>329.0</ele><time>2026-05-01T09:23:30.477Z</time></trkpt><trkpt lat="45.5990633" lon="10.4933083"><ele>329.0</ele><time>2026-05-01T09:23:41.478Z</time></trkpt><trkpt lat="45.5991217" lon="10.493345"><ele>329.0</ele><time>2026-05-01T09:23:42.477Z</time></trkpt><trkpt lat="45.5991883" lon="10.4933867"><ele>329.0</ele><time>2026-05-01T09:23:43.477Z</time></trkpt><trkpt lat="45.5992533" lon="10.49344"><ele>329.0</ele><time>2026-05-01T09:23:44.477Z</time></trkpt><trkpt lat="45.5993167" lon="10.493505"><ele>329.0</ele><time>2026-05-01T09:23:45.477Z</time></trkpt><trkpt lat="45.599375" lon="10.4935733"><ele>329.0</ele><time>2026-05-01T09:23:46.477Z</time></trkpt><trkpt lat="45.599425" lon="10.4936283"><ele>329.0</ele><time>2026-05-01T09:23:47.477Z</time></trkpt><trkpt lat="45.599525" lon="10.493675"><ele>329.4</ele><time>2026-05-01T09:23:49.477Z</time></trkpt><trkpt lat="45.5996133" lon="10.4937317"><ele>329.79999999999995</ele><time>2026-05-01T09:23:51.477Z</time></trkpt><trkpt lat="45.599705" lon="10.493785"><ele>330.20000000000005</ele><time>2026-05-01T09:23:53.477Z</time></trkpt><trkpt lat="45.599785" lon="10.4938733"><ele>330.6</ele><time>2026-05-01T09:23:55.477Z</time></trkpt><trkpt lat="45.59986" lon="10.4939983"><ele>331.0</ele><time>2026-05-01T09:23:57.477Z</time></trkpt><trkpt lat="45.5999267" lon="10.4940667"><ele>331.0</ele><time>2026-05-01T09:23:59.477Z</time></trkpt><trkpt lat="45.600005" lon="10.49404"><ele>331.0</ele><time>2026-05-01T09:24:01.477Z</time></trkpt><trkpt lat="45.60009" lon="10.4940117"><ele>331.0</ele><time>2026-05-01T09:24:03.477Z</time></trkpt><trkpt lat="45.60015" lon="10.4940417"><ele>331.0</ele><time>2026-05-01T09:24:05.477Z</time></trkpt><trkpt lat="45.6002233" lon="10.4940917"><ele>331.0</ele><time>2026-05-01T09:24:07.477Z</time></trkpt><trkpt lat="45.6003083" lon="10.4941167"><ele>331.0</ele><time>2026-05-01T09:24:09.478Z</time></trkpt><trkpt lat="45.600415" lon="10.4941033"><ele>331.0</ele><time>2026-05-01T09:24:11.478Z</time></trkpt><trkpt lat="45.600535" lon="10.494085"><ele>331.0</ele><time>2026-05-01T09:24:13.477Z</time></trkpt><trkpt lat="45.6006133" lon="10.494085"><ele>331.0</ele><time>2026-05-01T09:24:14.477Z</time></trkpt><trkpt lat="45.6007067" lon="10.4940817"><ele>331.0</ele><time>2026-05-01T09:24:15.477Z</time></trkpt><trkpt lat="45.6007817" lon="10.494085"><ele>331.0</ele><time>2026-05-01T09:24:16.477Z</time></trkpt><trkpt lat="45.600915" lon="10.4940767"><ele>331.0</ele><time>2026-05-01T09:24:18.477Z</time></trkpt><trkpt lat="45.60098" lon="10.4940667"><ele>331.0</ele><time>2026-05-01T09:24:19.477Z</time></trkpt><trkpt lat="45.6010517" lon="10.49407"><ele>331.0</ele><time>2026-05-01T09:24:22.477Z</time></trkpt><trkpt lat="45.60114" lon="10.4940017"><ele>331.0</ele><time>2026-05-01T09:24:25.477Z</time></trkpt><trkpt lat="45.601225" lon="10.4938533"><ele>331.0</ele><time>2026-05-01T09:24:27.477Z</time></trkpt><trkpt lat="45.6012733" lon="10.4937433"><ele>329.4</ele><time>2026-05-01T09:24:28.477Z</time></trkpt><trkpt lat="45.6013267" lon="10.4936317"><ele>327.8</ele><time>2026-05-01T09:24:29.477Z</time></trkpt><trkpt lat="45.6013867" lon="10.4935183"><ele>326.2</ele><time>2026-05-01T09:24:30.477Z</time></trkpt><trkpt lat="45.60146" lon="10.4934083"><ele>324.59999999999997</ele><time>2026-05-01T09:24:31.477Z</time></trkpt><trkpt lat="45.6015283" lon="10.4933183"><ele>323.0</ele><time>2026-05-01T09:24:32.477Z</time></trkpt><trkpt lat="45.6015917" lon="10.4932467"><ele>323.0</ele><time>2026-05-01T09:24:33.477Z</time></trkpt><trkpt lat="45.6016567" lon="10.4931867"><ele>323.0</ele><time>2026-05-01T09:24:34.477Z</time></trkpt><trkpt lat="45.6017167" lon="10.4931383"><ele>323.0</ele><time>2026-05-01T09:24:35.477Z</time></trkpt><trkpt lat="45.601815" lon="10.4930933"><ele>323.0</ele><time>2026-05-01T09:24:37.477Z</time></trkpt><trkpt lat="45.601945" lon="10.4930833"><ele>323.0</ele><time>2026-05-01T09:24:47.477Z</time></trkpt><trkpt lat="45.6020233" lon="10.4930233"><ele>320.2</ele><time>2026-05-01T09:24:50.477Z</time></trkpt><trkpt lat="45.6020833" lon="10.4929817"><ele>317.4</ele><time>2026-05-01T09:24:52.477Z</time></trkpt><trkpt lat="45.6021517" lon="10.4929367"><ele>314.59999999999997</ele><time>2026-05-01T09:24:54.477Z</time></trkpt><trkpt lat="45.6022367" lon="10.4928667"><ele>311.79999999999995</ele><time>2026-05-01T09:24:56.477Z</time></trkpt><trkpt lat="45.60234" lon="10.4928"><ele>309.0</ele><time>2026-05-01T09:24:58.477Z</time></trkpt><trkpt lat="45.6024417" lon="10.4927317"><ele>309.0</ele><time>2026-05-01T09:25:00.477Z</time></trkpt><trkpt lat="45.602535" lon="10.492655"><ele>309.0</ele><time>2026-05-01T09:25:02.477Z</time></trkpt><trkpt lat="45.6026433" lon="10.4925967"><ele>309.0</ele><time>2026-05-01T09:25:04.477Z</time></trkpt><trkpt lat="45.602735" lon="10.4925667"><ele>309.0</ele><time>2026-05-01T09:25:06.477Z</time></trkpt><trkpt lat="45.6028067" lon="10.492505"><ele>309.0</ele><time>2026-05-01T09:25:08.477Z</time></trkpt><trkpt lat="45.6028817" lon="10.4923933"><ele>306.8</ele><time>2026-05-01T09:25:10.477Z</time></trkpt><trkpt lat="45.6029067" lon="10.4923083"><ele>304.59999999999997</ele><time>2026-05-01T09:25:11.477Z</time></trkpt><trkpt lat="45.602935" lon="10.4921517"><ele>302.4</ele><time>2026-05-01T09:25:13.477Z</time></trkpt><trkpt lat="45.6029" lon="10.491955"><ele>300.2</ele><time>2026-05-01T09:25:15.478Z</time></trkpt><trkpt lat="45.6028767" lon="10.4918183"><ele>298.0</ele><time>2026-05-01T09:25:16.477Z</time></trkpt><trkpt lat="45.6028567" lon="10.4916567"><ele>297.5</ele><time>2026-05-01T09:25:17.477Z</time></trkpt><trkpt lat="45.6028483" lon="10.4915183"><ele>297.0</ele><time>2026-05-01T09:25:18.477Z</time></trkpt><trkpt lat="45.6028517" lon="10.4913867"><ele>296.5</ele><time>2026-05-01T09:25:19.477Z</time></trkpt><trkpt lat="45.6028517" lon="10.49127"><ele>296.0</ele><time>2026-05-01T09:25:20.477Z</time></trkpt><trkpt lat="45.60285" lon="10.491165"><ele>295.5</ele><time>2026-05-01T09:25:21.477Z</time></trkpt><trkpt lat="45.6028383" lon="10.491065"><ele>295.0</ele><time>2026-05-01T09:25:22.477Z</time></trkpt><trkpt lat="45.6028233" lon="10.490975"><ele>295.0</ele><time>2026-05-01T09:25:23.477Z</time></trkpt><trkpt lat="45.6027733" lon="10.490865"><ele>295.0</ele><time>2026-05-01T09:25:25.477Z</time></trkpt><trkpt lat="45.602695" lon="10.4908133"><ele>295.0</ele><time>2026-05-01T09:25:27.477Z</time></trkpt><trkpt lat="45.6026117" lon="10.490835"><ele>295.0</ele><time>2026-05-01T09:25:28.477Z</time></trkpt><trkpt lat="45.6025067" lon="10.49087"><ele>295.0</ele><time>2026-05-01T09:25:29.477Z</time></trkpt><trkpt lat="45.60242" lon="10.490905"><ele>295.0</ele><time>2026-05-01T09:25:30.478Z</time></trkpt><trkpt lat="45.6023317" lon="10.4909217"><ele>295.0</ele><time>2026-05-01T09:25:31.477Z</time></trkpt><trkpt lat="45.60225" lon="10.4909367"><ele>295.0</ele><time>2026-05-01T09:25:32.477Z</time></trkpt><trkpt lat="45.6021767" lon="10.490935"><ele>295.0</ele><time>2026-05-01T09:25:33.477Z</time></trkpt><trkpt lat="45.602075" lon="10.4908783"><ele>295.0</ele><time>2026-05-01T09:25:35.477Z</time></trkpt><trkpt lat="45.6020167" lon="10.49082"><ele>295.0</ele><time>2026-05-01T09:25:36.477Z</time></trkpt><trkpt lat="45.6019517" lon="10.49076"><ele>296.16666666666663</ele><time>2026-05-01T09:25:37.477Z</time></trkpt><trkpt lat="45.601895" lon="10.4907067"><ele>297.3333333333333</ele><time>2026-05-01T09:25:38.477Z</time></trkpt><trkpt lat="45.6018383" lon="10.490635"><ele>298.5</ele><time>2026-05-01T09:25:39.477Z</time></trkpt><trkpt lat="45.6017683" lon="10.49054"><ele>299.6666666666667</ele><time>2026-05-01T09:25:41.477Z</time></trkpt><trkpt lat="45.6017483" lon="10.4904483"><ele>300.83333333333337</ele><time>2026-05-01T09:25:54.477Z</time></trkpt><trkpt lat="45.60168" lon="10.4903783"><ele>302.0</ele><time>2026-05-01T09:25:57.477Z</time></trkpt><trkpt lat="45.60162" lon="10.490345"><ele>299.5</ele><time>2026-05-01T09:25:59.477Z</time></trkpt><trkpt lat="45.6015433" lon="10.4902933"><ele>297.0</ele><time>2026-05-01T09:26:02.477Z</time></trkpt><trkpt lat="45.601465" lon="10.490235"><ele>294.5</ele><time>2026-05-01T09:26:05.477Z</time></trkpt><trkpt lat="45.6014067" lon="10.490165"><ele>292.0</ele><time>2026-05-01T09:26:17.478Z</time></trkpt><trkpt lat="45.6014717" lon="10.4901967"><ele>289.5</ele><time>2026-05-01T09:26:19.477Z</time></trkpt><trkpt lat="45.601585" lon="10.490255"><ele>287.0</ele><time>2026-05-01T09:26:21.477Z</time></trkpt><trkpt lat="45.6016567" lon="10.490295"><ele>287.0</ele><time>2026-05-01T09:26:22.477Z</time></trkpt><trkpt lat="45.6017117" lon="10.4903417"><ele>287.0</ele><time>2026-05-01T09:26:23.477Z</time></trkpt><trkpt lat="45.6017667" lon="10.490415"><ele>287.0</ele><time>2026-05-01T09:26:25.477Z</time></trkpt><trkpt lat="45.6017117" lon="10.490505"><ele>287.0</ele><time>2026-05-01T09:26:29.477Z</time></trkpt><trkpt lat="45.60165" lon="10.4906017"><ele>287.0</ele><time>2026-05-01T09:26:31.477Z</time></trkpt><trkpt lat="45.6015883" lon="10.4907117"><ele>287.0</ele><time>2026-05-01T09:26:33.477Z</time></trkpt><trkpt lat="45.6015317" lon="10.49077"><ele>290.0</ele><time>2026-05-01T09:26:35.477Z</time></trkpt><trkpt lat="45.601465" lon="10.490765"><ele>293.0</ele><time>2026-05-01T09:26:37.477Z</time></trkpt><trkpt lat="45.6013517" lon="10.490715"><ele>296.0</ele><time>2026-05-01T09:26:39.478Z</time></trkpt><trkpt lat="45.6012467" lon="10.4906467"><ele>299.0</ele><time>2026-05-01T09:26:41.477Z</time></trkpt><trkpt lat="45.6011333" lon="10.4905633"><ele>302.0</ele><time>2026-05-01T09:26:43.477Z</time></trkpt><trkpt lat="45.601075" lon="10.490515"><ele>302.4</ele><time>2026-05-01T09:26:44.477Z</time></trkpt><trkpt lat="45.6009967" lon="10.490455"><ele>302.79999999999995</ele><time>2026-05-01T09:26:45.477Z</time></trkpt><trkpt lat="45.60093" lon="10.4903967"><ele>303.2</ele><time>2026-05-01T09:26:46.477Z</time></trkpt><trkpt lat="45.600875" lon="10.490325"><ele>303.59999999999997</ele><time>2026-05-01T09:26:47.477Z</time></trkpt><trkpt lat="45.6008283" lon="10.49024"><ele>304.0</ele><time>2026-05-01T09:26:48.477Z</time></trkpt><trkpt lat="45.6007733" lon="10.4900667"><ele>304.0</ele><time>2026-05-01T09:26:50.477Z</time></trkpt><trkpt lat="45.6007367" lon="10.48996"><ele>304.0</ele><time>2026-05-01T09:26:51.477Z</time></trkpt><trkpt lat="45.600665" lon="10.4898133"><ele>304.0</ele><time>2026-05-01T09:26:53.477Z</time></trkpt><trkpt lat="45.6006233" lon="10.4897217"><ele>304.0</ele><time>2026-05-01T09:26:54.477Z</time></trkpt><trkpt lat="45.6005683" lon="10.4896367"><ele>304.0</ele><time>2026-05-01T09:26:55.477Z</time></trkpt><trkpt lat="45.600515" lon="10.4895783"><ele>304.0</ele><time>2026-05-01T09:26:56.477Z</time></trkpt><trkpt lat="45.600445" lon="10.489505"><ele>305.16666666666663</ele><time>2026-05-01T09:26:58.477Z</time></trkpt><trkpt lat="45.6003833" lon="10.489435"><ele>306.3333333333333</ele><time>2026-05-01T09:27:00.477Z</time></trkpt><trkpt lat="45.600325" lon="10.489495"><ele>307.5</ele><time>2026-05-01T09:27:03.477Z</time></trkpt><trkpt lat="45.6003" lon="10.4896"><ele>308.6666666666667</ele><time>2026-05-01T09:27:05.477Z</time></trkpt><trkpt lat="45.6002733" lon="10.48971"><ele>309.83333333333337</ele><time>2026-05-01T09:27:07.478Z</time></trkpt><trkpt lat="45.6002683" lon="10.4898117"><ele>311.0</ele><time>2026-05-01T09:27:09.477Z</time></trkpt><trkpt lat="45.6002617" lon="10.489945"><ele>313.0</ele><time>2026-05-01T09:27:11.478Z</time></trkpt><trkpt lat="45.6002667" lon="10.49006"><ele>315.0</ele><time>2026-05-01T09:27:13.477Z</time></trkpt><trkpt lat="45.6002667" lon="10.4901883"><ele>317.0</ele><time>2026-05-01T09:27:16.476Z</time></trkpt><trkpt lat="45.6002417" lon="10.4903117"><ele>319.0</ele><time>2026-05-01T09:27:18.476Z</time></trkpt><trkpt lat="45.6002117" lon="10.4904383"><ele>321.0</ele><time>2026-05-01T09:27:20.476Z</time></trkpt><trkpt lat="45.6002117" lon="10.4905583"><ele>323.0</ele><time>2026-05-01T09:27:22.476Z</time></trkpt><trkpt lat="45.60025" lon="10.490665"><ele>322.4</ele><time>2026-05-01T09:27:24.477Z</time></trkpt><trkpt lat="45.60032" lon="10.4907817"><ele>321.79999999999995</ele><time>2026-05-01T09:27:26.476Z</time></trkpt><trkpt lat="45.600405" lon="10.490885"><ele>321.2</ele><time>2026-05-01T09:27:28.476Z</time></trkpt><trkpt lat="45.6004733" lon="10.4910067"><ele>320.6</ele><time>2026-05-01T09:27:30.476Z</time></trkpt><trkpt lat="45.60052" lon="10.4910767"><ele>320.0</ele><time>2026-05-01T09:27:31.476Z</time></trkpt><trkpt lat="45.6005633" lon="10.491145"><ele>320.0</ele><time>2026-05-01T09:27:32.476Z</time></trkpt><trkpt lat="45.600615" lon="10.491215"><ele>320.0</ele><time>2026-05-01T09:27:33.476Z</time></trkpt><trkpt lat="45.6006617" lon="10.4912917"><ele>320.0</ele><time>2026-05-01T09:27:34.476Z</time></trkpt><trkpt lat="45.6007083" lon="10.4913617"><ele>320.0</ele><time>2026-05-01T09:27:35.476Z</time></trkpt><trkpt lat="45.6007817" lon="10.4914933"><ele>320.0</ele><time>2026-05-01T09:27:37.476Z</time></trkpt><trkpt lat="45.600815" lon="10.4916067"><ele>320.0</ele><time>2026-05-01T09:27:39.476Z</time></trkpt><trkpt lat="45.6008383" lon="10.4917"><ele>322.0</ele><time>2026-05-01T09:27:41.476Z</time></trkpt><trkpt lat="45.600875" lon="10.4918"><ele>324.0</ele><time>2026-05-01T09:27:43.476Z</time></trkpt><trkpt lat="45.600915" lon="10.4918883"><ele>326.0</ele><time>2026-05-01T09:27:45.476Z</time></trkpt><trkpt lat="45.6009467" lon="10.491995"><ele>328.0</ele><time>2026-05-01T09:27:47.476Z</time></trkpt><trkpt lat="45.6009683" lon="10.492135"><ele>330.0</ele><time>2026-05-01T09:27:49.476Z</time></trkpt><trkpt lat="45.6010017" lon="10.4922533"><ele>332.0</ele><time>2026-05-01T09:27:51.476Z</time></trkpt><trkpt lat="45.6010633" lon="10.492445"><ele>332.6</ele><time>2026-05-01T09:27:59.476Z</time></trkpt><trkpt lat="45.6010017" lon="10.4925433"><ele>333.20000000000005</ele><time>2026-05-01T09:28:01.476Z</time></trkpt><trkpt lat="45.6009083" lon="10.4926467"><ele>333.8</ele><time>2026-05-01T09:28:03.476Z</time></trkpt><trkpt lat="45.600845" lon="10.4927217"><ele>334.4</ele><time>2026-05-01T09:28:05.476Z</time></trkpt><trkpt lat="45.6007717" lon="10.4927783"><ele>335.0</ele><time>2026-05-01T09:28:07.476Z</time></trkpt><trkpt lat="45.60068" lon="10.49282"><ele>334.99999999999994</ele><time>2026-05-01T09:28:09.476Z</time></trkpt><trkpt lat="45.6006117" lon="10.4928583"><ele>335.0</ele><time>2026-05-01T09:28:11.476Z</time></trkpt><trkpt lat="45.6005483" lon="10.4929383"><ele>335.0</ele><time>2026-05-01T09:28:14.476Z</time></trkpt><trkpt lat="45.600545" lon="10.4930333"><ele>335.0</ele><time>2026-05-01T09:28:16.476Z</time></trkpt><trkpt lat="45.6005467" lon="10.4931383"><ele>335.0</ele><time>2026-05-01T09:28:18.476Z</time></trkpt><trkpt lat="45.6005367" lon="10.493235"><ele>334.99999999999994</ele><time>2026-05-01T09:28:20.476Z</time></trkpt><trkpt lat="45.600535" lon="10.4933517"><ele>335.0</ele><time>2026-05-01T09:29:05.476Z</time></trkpt><trkpt lat="45.6005317" lon="10.49323"><ele>335.0</ele><time>2026-05-01T09:29:09.476Z</time></trkpt><trkpt lat="45.60054" lon="10.4931317"><ele>335.0</ele><time>2026-05-01T09:29:12.476Z</time></trkpt><trkpt lat="45.6005767" lon="10.492985"><ele>335.0</ele><time>2026-05-01T09:29:14.476Z</time></trkpt><trkpt lat="45.60063" lon="10.492845"><ele>335.0</ele><time>2026-05-01T09:29:16.476Z</time></trkpt><trkpt lat="45.60067" lon="10.4927133"><ele>335.0</ele><time>2026-05-01T09:29:18.476Z</time></trkpt><trkpt lat="45.6006933" lon="10.4925717"><ele>335.0</ele><time>2026-05-01T09:29:20.476Z</time></trkpt><trkpt lat="45.600705" lon="10.4924283"><ele>335.0</ele><time>2026-05-01T09:29:22.476Z</time></trkpt><trkpt lat="45.600685" lon="10.4923217"><ele>335.0</ele><time>2026-05-01T09:29:24.476Z</time></trkpt><trkpt lat="45.6006483" lon="10.492225"><ele>335.0</ele><time>2026-05-01T09:29:26.476Z</time></trkpt><trkpt lat="45.6006117" lon="10.492145"><ele>335.0</ele><time>2026-05-01T09:29:28.476Z</time></trkpt><trkpt lat="45.60058" lon="10.4920517"><ele>335.0</ele><time>2026-05-01T09:29:30.476Z</time></trkpt><trkpt lat="45.6005367" lon="10.4919733"><ele>334.5</ele><time>2026-05-01T09:29:32.476Z</time></trkpt><trkpt lat="45.6004633" lon="10.4919017"><ele>334.0</ele><time>2026-05-01T09:29:35.476Z</time></trkpt><trkpt lat="45.60039" lon="10.4918433"><ele>333.5</ele><time>2026-05-01T09:29:38.476Z</time></trkpt><trkpt lat="45.6003217" lon="10.4918067"><ele>333.0</ele><time>2026-05-01T09:29:41.476Z</time></trkpt><trkpt lat="45.6002367" lon="10.4917967"><ele>332.5</ele><time>2026-05-01T09:29:43.476Z</time></trkpt><trkpt lat="45.60016" lon="10.4918017"><ele>332.0</ele><time>2026-05-01T09:29:46.476Z</time></trkpt><trkpt lat="45.6000917" lon="10.4918183"><ele>334.5</ele><time>2026-05-01T09:29:49.476Z</time></trkpt><trkpt lat="45.6000017" lon="10.4917717"><ele>337.0</ele><time>2026-05-01T09:29:52.476Z</time></trkpt><trkpt lat="45.5999433" lon="10.4917333"><ele>339.5</ele><time>2026-05-01T09:29:54.476Z</time></trkpt><trkpt lat="45.5998717" lon="10.4917017"><ele>342.0</ele><time>2026-05-01T09:29:57.476Z</time></trkpt><trkpt lat="45.5998083" lon="10.4916817"><ele>344.5</ele><time>2026-05-01T09:30:00.476Z</time></trkpt><trkpt lat="45.5997683" lon="10.4915417"><ele>347.0</ele><time>2026-05-01T09:30:16.476Z</time></trkpt><trkpt lat="45.5998417" lon="10.4915233"><ele>347.0</ele><time>2026-05-01T09:30:37.476Z</time></trkpt><trkpt lat="45.5999217" lon="10.491435"><ele>347.0</ele><time>2026-05-01T09:30:47.476Z</time></trkpt><trkpt lat="45.6000033" lon="10.4914383"><ele>347.0</ele><time>2026-05-01T09:30:49.476Z</time></trkpt><trkpt lat="45.6000817" lon="10.4914467"><ele>347.0</ele><time>2026-05-01T09:30:51.476Z</time></trkpt><trkpt lat="45.600155" lon="10.4914567"><ele>347.0</ele><time>2026-05-01T09:30:53.476Z</time></trkpt><trkpt lat="45.6002333" lon="10.4915017"><ele>347.0</ele><time>2026-05-01T09:30:56.476Z</time></trkpt><trkpt lat="45.6002833" lon="10.4915583"><ele>344.5</ele><time>2026-05-01T09:30:58.476Z</time></trkpt><trkpt lat="45.600335" lon="10.4916333"><ele>342.0</ele><time>2026-05-01T09:31:00.476Z</time></trkpt><trkpt lat="45.6003767" lon="10.4917133"><ele>339.5</ele><time>2026-05-01T09:31:02.477Z</time></trkpt><trkpt lat="45.6004283" lon="10.4917983"><ele>337.0</ele><time>2026-05-01T09:31:04.476Z</time></trkpt><trkpt lat="45.6004783" lon="10.491865"><ele>334.5</ele><time>2026-05-01T09:31:06.476Z</time></trkpt><trkpt lat="45.6005367" lon="10.491965"><ele>332.0</ele><time>2026-05-01T09:31:09.476Z</time></trkpt><trkpt lat="45.6006767" lon="10.4920433"><ele>332.0</ele><time>2026-05-01T09:31:18.476Z</time></trkpt><trkpt lat="45.6007533" lon="10.492025"><ele>332.0</ele><time>2026-05-01T09:31:21.476Z</time></trkpt><trkpt lat="45.600835" lon="10.491975"><ele>332.0</ele><time>2026-05-01T09:31:24.476Z</time></trkpt><trkpt lat="45.600925" lon="10.4919517"><ele>332.0</ele><time>2026-05-01T09:31:30.476Z</time></trkpt><trkpt lat="45.600965" lon="10.491875"><ele>332.0</ele><time>2026-05-01T09:31:34.477Z</time></trkpt><trkpt lat="45.6009517" lon="10.491735"><ele>332.0</ele><time>2026-05-01T09:31:37.476Z</time></trkpt><trkpt lat="45.6009" lon="10.491625"><ele>332.0</ele><time>2026-05-01T09:31:39.476Z</time></trkpt><trkpt lat="45.6008217" lon="10.4915167"><ele>332.0</ele><time>2026-05-01T09:31:41.476Z</time></trkpt><trkpt lat="45.600755" lon="10.4914517"><ele>332.0</ele><time>2026-05-01T09:31:43.476Z</time></trkpt><trkpt lat="45.6006933" lon="10.4913967"><ele>332.0</ele><time>2026-05-01T09:31:45.476Z</time></trkpt><trkpt lat="45.6006167" lon="10.4913183"><ele>332.0</ele><time>2026-05-01T09:31:47.476Z</time></trkpt><trkpt lat="45.600535" lon="10.4912583"><ele>332.0</ele><time>2026-05-01T09:31:49.476Z</time></trkpt><trkpt lat="45.60044" lon="10.491185"><ele>330.0</ele><time>2026-05-01T09:31:51.477Z</time></trkpt><trkpt lat="45.600375" lon="10.4911283"><ele>328.0</ele><time>2026-05-01T09:31:53.476Z</time></trkpt><trkpt lat="45.6003383" lon="10.49104"><ele>326.0</ele><time>2026-05-01T09:31:55.476Z</time></trkpt><trkpt lat="45.6003367" lon="10.4909267"><ele>324.0</ele><time>2026-05-01T09:31:57.476Z</time></trkpt><trkpt lat="45.6003383" lon="10.49079"><ele>322.0</ele><time>2026-05-01T09:31:59.477Z</time></trkpt><trkpt lat="45.6003567" lon="10.49068"><ele>320.0</ele><time>2026-05-01T09:32:01.476Z</time></trkpt><trkpt lat="45.6003783" lon="10.49059"><ele>320.0</ele><time>2026-05-01T09:32:03.476Z</time></trkpt><trkpt lat="45.600375" lon="10.4904967"><ele>320.0</ele><time>2026-05-01T09:32:05.476Z</time></trkpt><trkpt lat="45.600365" lon="10.4903683"><ele>320.0</ele><time>2026-05-01T09:32:07.476Z</time></trkpt><trkpt lat="45.60038" lon="10.49024"><ele>320.0</ele><time>2026-05-01T09:32:09.476Z</time></trkpt><trkpt lat="45.6003967" lon="10.4901083"><ele>320.0</ele><time>2026-05-01T09:32:11.476Z</time></trkpt><trkpt lat="45.600425" lon="10.4899883"><ele>320.0</ele><time>2026-05-01T09:32:13.476Z</time></trkpt><trkpt lat="45.6004367" lon="10.48988"><ele>317.7142857142857</ele><time>2026-05-01T09:32:15.476Z</time></trkpt><trkpt lat="45.60044" lon="10.4897883"><ele>315.42857142857144</ele><time>2026-05-01T09:32:17.476Z</time></trkpt><trkpt lat="45.60046" lon="10.4896783"><ele>313.1428571428571</ele><time>2026-05-01T09:32:20.476Z</time></trkpt><trkpt lat="45.6005017" lon="10.4895667"><ele>310.8571428571429</ele><time>2026-05-01T09:32:23.477Z</time></trkpt><trkpt lat="45.600555" lon="10.4894983"><ele>308.5714285714286</ele><time>2026-05-01T09:32:25.476Z</time></trkpt><trkpt lat="45.6006033" lon="10.48944"><ele>306.2857142857143</ele><time>2026-05-01T09:32:27.476Z</time></trkpt><trkpt lat="45.6006467" lon="10.48934"><ele>304.0</ele><time>2026-05-01T09:32:30.476Z</time></trkpt><trkpt lat="45.6006333" lon="10.4892317"><ele>301.2</ele><time>2026-05-01T09:32:32.476Z</time></trkpt><trkpt lat="45.6005633" lon="10.4890567"><ele>298.4</ele><time>2026-05-01T09:32:34.476Z</time></trkpt><trkpt lat="45.6005183" lon="10.4889633"><ele>295.6</ele><time>2026-05-01T09:32:35.476Z</time></trkpt><trkpt lat="45.6004967" lon="10.4888783"><ele>292.8</ele><time>2026-05-01T09:32:36.476Z</time></trkpt><trkpt lat="45.6004467" lon="10.4887183"><ele>290.0</ele><time>2026-05-01T09:32:38.476Z</time></trkpt><trkpt lat="45.6004117" lon="10.4886383"><ele>291.5</ele><time>2026-05-01T09:32:39.476Z</time></trkpt><trkpt lat="45.6003767" lon="10.488545"><ele>293.0</ele><time>2026-05-01T09:32:40.476Z</time></trkpt><trkpt lat="45.6003383" lon="10.4884433"><ele>294.5</ele><time>2026-05-01T09:32:41.476Z</time></trkpt><trkpt lat="45.6002983" lon="10.4883467"><ele>296.0</ele><time>2026-05-01T09:32:42.477Z</time></trkpt><trkpt lat="45.6002567" lon="10.4882533"><ele>297.5</ele><time>2026-05-01T09:32:43.476Z</time></trkpt><trkpt lat="45.6001567" lon="10.4881383"><ele>299.0</ele><time>2026-05-01T09:32:45.476Z</time></trkpt><trkpt lat="45.6000817" lon="10.488075"><ele>299.0</ele><time>2026-05-01T09:32:46.476Z</time></trkpt><trkpt lat="45.599995" lon="10.48799"><ele>299.0</ele><time>2026-05-01T09:32:47.476Z</time></trkpt><trkpt lat="45.5998983" lon="10.487905"><ele>299.0</ele><time>2026-05-01T09:32:48.476Z</time></trkpt><trkpt lat="45.599805" lon="10.4878233"><ele>299.0</ele><time>2026-05-01T09:32:49.476Z</time></trkpt><trkpt lat="45.599715" lon="10.4877233"><ele>299.0</ele><time>2026-05-01T09:32:50.476Z</time></trkpt><trkpt lat="45.5996333" lon="10.487625"><ele>298.6666666666667</ele><time>2026-05-01T09:32:51.476Z</time></trkpt><trkpt lat="45.5995617" lon="10.4875233"><ele>298.33333333333337</ele><time>2026-05-01T09:32:52.476Z</time></trkpt><trkpt lat="45.5994883" lon="10.487435"><ele>298.0</ele><time>2026-05-01T09:32:53.476Z</time></trkpt><trkpt lat="45.599425" lon="10.4873783"><ele>297.6666666666667</ele><time>2026-05-01T09:32:54.476Z</time></trkpt><trkpt lat="45.59937" lon="10.48732"><ele>297.3333333333333</ele><time>2026-05-01T09:32:55.476Z</time></trkpt><trkpt lat="45.5993433" lon="10.4872067"><ele>297.0</ele><time>2026-05-01T09:33:00.476Z</time></trkpt><trkpt lat="45.5993467" lon="10.4870867"><ele>295.2</ele><time>2026-05-01T09:33:02.476Z</time></trkpt><trkpt lat="45.5994017" lon="10.486915"><ele>293.4</ele><time>2026-05-01T09:33:04.476Z</time></trkpt><trkpt lat="45.599455" lon="10.4868183"><ele>291.6</ele><time>2026-05-01T09:33:05.476Z</time></trkpt><trkpt lat="45.5994983" lon="10.4866967"><ele>289.8</ele><time>2026-05-01T09:33:06.476Z</time></trkpt><trkpt lat="45.599535" lon="10.4865533"><ele>288.0</ele><time>2026-05-01T09:33:07.476Z</time></trkpt><trkpt lat="45.5995667" lon="10.4863967"><ele>286.6666666666667</ele><time>2026-05-01T09:33:08.476Z</time></trkpt><trkpt lat="45.5996" lon="10.4862633"><ele>285.3333333333333</ele><time>2026-05-01T09:33:09.476Z</time></trkpt><trkpt lat="45.5996267" lon="10.4861583"><ele>284.0</ele><time>2026-05-01T09:33:10.476Z</time></trkpt><trkpt lat="45.5996617" lon="10.4860417"><ele>282.66666666666663</ele><time>2026-05-01T09:33:12.476Z</time></trkpt><trkpt lat="45.5996367" lon="10.4859067"><ele>281.3333333333333</ele><time>2026-05-01T09:33:15.476Z</time></trkpt><trkpt lat="45.5996667" lon="10.4858233"><ele>280.0</ele><time>2026-05-01T09:33:17.477Z</time></trkpt><trkpt lat="45.59976" lon="10.4857567"><ele>279.5</ele><time>2026-05-01T09:33:19.476Z</time></trkpt><trkpt lat="45.59982" lon="10.4857283"><ele>279.0</ele><time>2026-05-01T09:33:20.476Z</time></trkpt><trkpt lat="45.5999233" lon="10.4856917"><ele>278.5</ele><time>2026-05-01T09:33:22.476Z</time></trkpt><trkpt lat="45.5999933" lon="10.4856867"><ele>278.0</ele><time>2026-05-01T09:33:24.476Z</time></trkpt><trkpt lat="45.6000433" lon="10.4857433"><ele>277.5</ele><time>2026-05-01T09:33:27.476Z</time></trkpt><trkpt lat="45.6000833" lon="10.4858183"><ele>277.0</ele><time>2026-05-01T09:33:29.476Z</time></trkpt><trkpt lat="45.6001667" lon="10.4858717"><ele>277.0</ele><time>2026-05-01T09:33:32.476Z</time></trkpt><trkpt lat="45.600245" lon="10.485945"><ele>277.0</ele><time>2026-05-01T09:33:34.477Z</time></trkpt><trkpt lat="45.6003567" lon="10.4860483"><ele>277.0</ele><time>2026-05-01T09:33:36.476Z</time></trkpt><trkpt lat="45.600425" lon="10.4861083"><ele>277.0</ele><time>2026-05-01T09:33:37.476Z</time></trkpt><trkpt lat="45.60049" lon="10.48618"><ele>277.0</ele><time>2026-05-01T09:33:38.476Z</time></trkpt><trkpt lat="45.6005517" lon="10.48626"><ele>277.6</ele><time>2026-05-01T09:33:39.476Z</time></trkpt><trkpt lat="45.600605" lon="10.4863417"><ele>278.2</ele><time>2026-05-01T09:33:40.476Z</time></trkpt><trkpt lat="45.6006467" lon="10.4864283"><ele>278.8</ele><time>2026-05-01T09:33:41.476Z</time></trkpt><trkpt lat="45.6006833" lon="10.4865117"><ele>279.4</ele><time>2026-05-01T09:33:42.476Z</time></trkpt><trkpt lat="45.6007483" lon="10.4866617"><ele>280.0</ele><time>2026-05-01T09:33:44.476Z</time></trkpt><trkpt lat="45.600805" lon="10.4868067"><ele>280.0</ele><time>2026-05-01T09:33:46.476Z</time></trkpt><trkpt lat="45.60084" lon="10.486885"><ele>280.0</ele><time>2026-05-01T09:33:47.476Z</time></trkpt><trkpt lat="45.6008767" lon="10.486975"><ele>280.0</ele><time>2026-05-01T09:33:48.476Z</time></trkpt><trkpt lat="45.6009267" lon="10.487075"><ele>280.0</ele><time>2026-05-01T09:33:49.476Z</time></trkpt><trkpt lat="45.6009717" lon="10.4871783"><ele>280.0</ele><time>2026-05-01T09:33:50.476Z</time></trkpt><trkpt lat="45.6010167" lon="10.48728"><ele>280.0</ele><time>2026-05-01T09:33:51.476Z</time></trkpt><trkpt lat="45.60106" lon="10.4873767"><ele>279.66666666666663</ele><time>2026-05-01T09:33:52.476Z</time></trkpt><trkpt lat="45.6011" lon="10.4874717"><ele>279.3333333333333</ele><time>2026-05-01T09:33:53.476Z</time></trkpt><trkpt lat="45.601135" lon="10.4875533"><ele>279.0</ele><time>2026-05-01T09:33:54.476Z</time></trkpt><trkpt lat="45.6012083" lon="10.487675"><ele>278.6666666666667</ele><time>2026-05-01T09:33:56.476Z</time></trkpt><trkpt lat="45.601275" lon="10.487735"><ele>278.33333333333337</ele><time>2026-05-01T09:33:58.476Z</time></trkpt><trkpt lat="45.6013583" lon="10.4877417"><ele>278.0</ele><time>2026-05-01T09:34:01.476Z</time></trkpt><trkpt lat="45.601445" lon="10.4877467"><ele>275.8</ele><time>2026-05-01T09:34:04.476Z</time></trkpt><trkpt lat="45.6015217" lon="10.4877267"><ele>273.6</ele><time>2026-05-01T09:34:06.476Z</time></trkpt><trkpt lat="45.601585" lon="10.4876517"><ele>271.4</ele><time>2026-05-01T09:34:08.476Z</time></trkpt><trkpt lat="45.601655" lon="10.4875083"><ele>269.2</ele><time>2026-05-01T09:34:10.476Z</time></trkpt><trkpt lat="45.6016983" lon="10.4873983"><ele>267.0</ele><time>2026-05-01T09:34:12.477Z</time></trkpt><trkpt lat="45.6017867" lon="10.4873067"><ele>267.0</ele><time>2026-05-01T09:34:21.476Z</time></trkpt><trkpt lat="45.6018517" lon="10.4872433"><ele>267.0</ele><time>2026-05-01T09:34:23.476Z</time></trkpt><trkpt lat="45.6018933" lon="10.4871717"><ele>267.0</ele><time>2026-05-01T09:34:25.476Z</time></trkpt><trkpt lat="45.601965" lon="10.4871183"><ele>267.0</ele><time>2026-05-01T09:34:34.477Z</time></trkpt><trkpt lat="45.60201" lon="10.4870383"><ele>267.0</ele><time>2026-05-01T09:34:36.476Z</time></trkpt><trkpt lat="45.6020367" lon="10.4869267"><ele>267.0</ele><time>2026-05-01T09:34:38.476Z</time></trkpt><trkpt lat="45.6020283" lon="10.48679"><ele>268.25</ele><time>2026-05-01T09:34:40.476Z</time></trkpt><trkpt lat="45.6019733" lon="10.4866367"><ele>269.5</ele><time>2026-05-01T09:34:42.476Z</time></trkpt><trkpt lat="45.60193" lon="10.4865533"><ele>270.75</ele><time>2026-05-01T09:34:43.476Z</time></trkpt><trkpt lat="45.601845" lon="10.48641"><ele>272.0</ele><time>2026-05-01T09:34:45.476Z</time></trkpt><trkpt lat="45.6017583" lon="10.4862633"><ele>271.0</ele><time>2026-05-01T09:34:47.476Z</time></trkpt><trkpt lat="45.601725" lon="10.4861767"><ele>270.0</ele><time>2026-05-01T09:34:48.476Z</time></trkpt><trkpt lat="45.6016983" lon="10.4860817"><ele>269.0</ele><time>2026-05-01T09:34:49.476Z</time></trkpt><trkpt lat="45.6016667" lon="10.4859817"><ele>268.0</ele><time>2026-05-01T09:34:50.476Z</time></trkpt><trkpt lat="45.60164" lon="10.4858733"><ele>267.0</ele><time>2026-05-01T09:34:51.476Z</time></trkpt><trkpt lat="45.6016133" lon="10.4857517"><ele>266.0</ele><time>2026-05-01T09:34:52.476Z</time></trkpt><trkpt lat="45.6015867" lon="10.4856233"><ele>266.0</ele><time>2026-05-01T09:34:53.476Z</time></trkpt><trkpt lat="45.6015767" lon="10.48549"><ele>266.0</ele><time>2026-05-01T09:34:54.476Z</time></trkpt><trkpt lat="45.60157" lon="10.48536"><ele>266.0</ele><time>2026-05-01T09:34:55.476Z</time></trkpt><trkpt lat="45.6015783" lon="10.485235"><ele>266.0</ele><time>2026-05-01T09:34:56.477Z</time></trkpt><trkpt lat="45.6015867" lon="10.4851133"><ele>266.0</ele><time>2026-05-01T09:34:57.477Z</time></trkpt><trkpt lat="45.6016017" lon="10.4849967"><ele>266.0</ele><time>2026-05-01T09:34:58.476Z</time></trkpt><trkpt lat="45.601635" lon="10.48489"><ele>265.0</ele><time>2026-05-01T09:34:59.476Z</time></trkpt><trkpt lat="45.6016683" lon="10.484745"><ele>264.0</ele><time>2026-05-01T09:35:00.476Z</time></trkpt><trkpt lat="45.6017017" lon="10.4846083"><ele>263.0</ele><time>2026-05-01T09:35:01.476Z</time></trkpt><trkpt lat="45.6017383" lon="10.4844767"><ele>262.0</ele><time>2026-05-01T09:35:02.476Z</time></trkpt><trkpt lat="45.6017717" lon="10.484355"><ele>261.0</ele><time>2026-05-01T09:35:03.476Z</time></trkpt><trkpt lat="45.601795" lon="10.4842283"><ele>261.0</ele><time>2026-05-01T09:35:04.476Z</time></trkpt><trkpt lat="45.60182" lon="10.4841067"><ele>261.0</ele><time>2026-05-01T09:35:05.476Z</time></trkpt><trkpt lat="45.60184" lon="10.4839883"><ele>261.0</ele><time>2026-05-01T09:35:06.476Z</time></trkpt><trkpt lat="45.6018567" lon="10.4838817"><ele>261.0</ele><time>2026-05-01T09:35:07.476Z</time></trkpt><trkpt lat="45.6018633" lon="10.48379"><ele>261.0</ele><time>2026-05-01T09:35:08.477Z</time></trkpt><trkpt lat="45.601915" lon="10.4836317"><ele>261.0</ele><time>2026-05-01T09:35:10.476Z</time></trkpt><trkpt lat="45.6019583" lon="10.483555"><ele>259.3333333333333</ele><time>2026-05-01T09:35:11.476Z</time></trkpt><trkpt lat="45.60201" lon="10.4834867"><ele>257.6666666666667</ele><time>2026-05-01T09:35:12.476Z</time></trkpt><trkpt lat="45.60206" lon="10.4834233"><ele>256.0</ele><time>2026-05-01T09:35:13.476Z</time></trkpt><trkpt lat="45.6021567" lon="10.483295"><ele>254.33333333333334</ele><time>2026-05-01T09:35:15.476Z</time></trkpt><trkpt lat="45.602205" lon="10.4831983"><ele>252.66666666666669</ele><time>2026-05-01T09:35:16.476Z</time></trkpt><trkpt lat="45.6022517" lon="10.4831183"><ele>251.0</ele><time>2026-05-01T09:35:17.476Z</time></trkpt><trkpt lat="45.6022967" lon="10.4830333"><ele>251.00000000000003</ele><time>2026-05-01T09:35:18.476Z</time></trkpt><trkpt lat="45.6023433" lon="10.4829717"><ele>251.0</ele><time>2026-05-01T09:35:19.476Z</time></trkpt><trkpt lat="45.6023967" lon="10.482915"><ele>251.0</ele><time>2026-05-01T09:35:20.476Z</time></trkpt><trkpt lat="45.6024933" lon="10.4828183"><ele>251.0</ele><time>2026-05-01T09:35:22.476Z</time></trkpt><trkpt lat="45.6025483" lon="10.482745"><ele>251.00000000000003</ele><time>2026-05-01T09:35:24.476Z</time></trkpt><trkpt lat="45.6025983" lon="10.4826633"><ele>251.0</ele><time>2026-05-01T09:35:32.476Z</time></trkpt><trkpt lat="45.6026483" lon="10.4825983"><ele>251.60000000000002</ele><time>2026-05-01T09:35:33.476Z</time></trkpt><trkpt lat="45.6027133" lon="10.482515"><ele>252.20000000000002</ele><time>2026-05-01T09:35:34.476Z</time></trkpt><trkpt lat="45.6027717" lon="10.48243"><ele>252.79999999999998</ele><time>2026-05-01T09:35:35.476Z</time></trkpt><trkpt lat="45.6028233" lon="10.4823217"><ele>253.39999999999998</ele><time>2026-05-01T09:35:36.476Z</time></trkpt><trkpt lat="45.602875" lon="10.4821933"><ele>254.0</ele><time>2026-05-01T09:35:37.476Z</time></trkpt><trkpt lat="45.6029167" lon="10.4820417"><ele>251.6</ele><time>2026-05-01T09:35:38.476Z</time></trkpt><trkpt lat="45.6029533" lon="10.481895"><ele>249.2</ele><time>2026-05-01T09:35:39.476Z</time></trkpt><trkpt lat="45.60299" lon="10.481765"><ele>246.79999999999998</ele><time>2026-05-01T09:35:40.476Z</time></trkpt><trkpt lat="45.6030317" lon="10.4816283"><ele>244.39999999999998</ele><time>2026-05-01T09:35:41.476Z</time></trkpt><trkpt lat="45.6030717" lon="10.4814917"><ele>242.0</ele><time>2026-05-01T09:35:42.476Z</time></trkpt><trkpt lat="45.6031083" lon="10.4813783"><ele>241.6</ele><time>2026-05-01T09:35:43.476Z</time></trkpt><trkpt lat="45.6031467" lon="10.481255"><ele>241.2</ele><time>2026-05-01T09:35:44.476Z</time></trkpt><trkpt lat="45.6032017" lon="10.4811283"><ele>240.8</ele><time>2026-05-01T09:35:45.476Z</time></trkpt><trkpt lat="45.6032717" lon="10.4809933"><ele>240.4</ele><time>2026-05-01T09:35:46.476Z</time></trkpt><trkpt lat="45.603355" lon="10.48085"><ele>240.0</ele><time>2026-05-01T09:35:47.476Z</time></trkpt><trkpt lat="45.6034433" lon="10.4807133"><ele>240.0</ele><time>2026-05-01T09:35:48.476Z</time></trkpt><trkpt lat="45.6035383" lon="10.4805833"><ele>240.0</ele><time>2026-05-01T09:35:49.476Z</time></trkpt><trkpt lat="45.6036383" lon="10.4804683"><ele>240.0</ele><time>2026-05-01T09:35:50.476Z</time></trkpt><trkpt lat="45.60373" lon="10.4803533"><ele>240.0</ele><time>2026-05-01T09:35:51.476Z</time></trkpt><trkpt lat="45.603825" lon="10.4802567"><ele>240.0</ele><time>2026-05-01T09:35:52.476Z</time></trkpt><trkpt lat="45.6039117" lon="10.4801717"><ele>240.0</ele><time>2026-05-01T09:35:53.476Z</time></trkpt><trkpt lat="45.6039967" lon="10.4800817"><ele>240.0</ele><time>2026-05-01T09:35:54.476Z</time></trkpt><trkpt lat="45.6040733" lon="10.47999"><ele>240.0</ele><time>2026-05-01T09:35:55.477Z</time></trkpt><trkpt lat="45.60414" lon="10.47991"><ele>240.0</ele><time>2026-05-01T09:35:56.477Z</time></trkpt><trkpt lat="45.6041783" lon="10.4798133"><ele>240.0</ele><time>2026-05-01T09:35:57.476Z</time></trkpt><trkpt lat="45.6042083" lon="10.479725"><ele>240.0</ele><time>2026-05-01T09:35:58.476Z</time></trkpt><trkpt lat="45.6042483" lon="10.4796517"><ele>240.0</ele><time>2026-05-01T09:35:59.476Z</time></trkpt><trkpt lat="45.604305" lon="10.47957"><ele>240.0</ele><time>2026-05-01T09:36:00.476Z</time></trkpt><trkpt lat="45.6043733" lon="10.4794933"><ele>240.0</ele><time>2026-05-01T09:36:01.476Z</time></trkpt><trkpt lat="45.6044317" lon="10.4794083"><ele>240.0</ele><time>2026-05-01T09:36:02.476Z</time></trkpt><trkpt lat="45.6045" lon="10.47931"><ele>241.2</ele><time>2026-05-01T09:36:04.476Z</time></trkpt><trkpt lat="45.6044233" lon="10.479285"><ele>242.4</ele><time>2026-05-01T09:36:09.476Z</time></trkpt><trkpt lat="45.6043367" lon="10.479295"><ele>243.60000000000002</ele><time>2026-05-01T09:36:11.476Z</time></trkpt><trkpt lat="45.604235" lon="10.479265"><ele>244.8</ele><time>2026-05-01T09:36:13.476Z</time></trkpt><trkpt lat="45.6041817" lon="10.4791317"><ele>246.0</ele><time>2026-05-01T09:36:15.476Z</time></trkpt><trkpt lat="45.6041683" lon="10.4789533"><ele>246.0</ele><time>2026-05-01T09:36:17.476Z</time></trkpt><trkpt lat="45.604145" lon="10.478795"><ele>246.00000000000003</ele><time>2026-05-01T09:36:19.476Z</time></trkpt><trkpt lat="45.604105" lon="10.4787067"><ele>246.00000000000003</ele><time>2026-05-01T09:36:21.476Z</time></trkpt><trkpt lat="45.6040333" lon="10.4786583"><ele>246.0</ele><time>2026-05-01T09:36:23.476Z</time></trkpt><trkpt lat="45.60394" lon="10.4786"><ele>246.0</ele><time>2026-05-01T09:36:25.476Z</time></trkpt><trkpt lat="45.60383" lon="10.4785767"><ele>247.0</ele><time>2026-05-01T09:36:27.476Z</time></trkpt><trkpt lat="45.60371" lon="10.4786"><ele>248.0</ele><time>2026-05-01T09:36:29.476Z</time></trkpt><trkpt lat="45.60364" lon="10.4786083"><ele>249.0</ele><time>2026-05-01T09:36:30.476Z</time></trkpt><trkpt lat="45.60355" lon="10.47862"><ele>250.0</ele><time>2026-05-01T09:36:31.476Z</time></trkpt><trkpt lat="45.6034717" lon="10.47864"><ele>251.0</ele><time>2026-05-01T09:36:32.476Z</time></trkpt><trkpt lat="45.6034" lon="10.4786567"><ele>252.0</ele><time>2026-05-01T09:36:33.477Z</time></trkpt><trkpt lat="45.6033067" lon="10.4786617"><ele>254.66666666666666</ele><time>2026-05-01T09:36:34.476Z</time></trkpt><trkpt lat="45.6032183" lon="10.47867"><ele>257.3333333333333</ele><time>2026-05-01T09:36:35.476Z</time></trkpt><trkpt lat="45.6031317" lon="10.4786617"><ele>260.0</ele><time>2026-05-01T09:36:36.476Z</time></trkpt><trkpt lat="45.6030517" lon="10.4786517"><ele>262.66666666666663</ele><time>2026-05-01T09:36:37.476Z</time></trkpt><trkpt lat="45.6029667" lon="10.4786533"><ele>265.3333333333333</ele><time>2026-05-01T09:36:38.476Z</time></trkpt><trkpt lat="45.6028633" lon="10.4786383"><ele>268.0</ele><time>2026-05-01T09:36:39.477Z</time></trkpt><trkpt lat="45.60277" lon="10.47864"><ele>270.5</ele><time>2026-05-01T09:36:40.476Z</time></trkpt><trkpt lat="45.6026833" lon="10.4786483"><ele>273.0</ele><time>2026-05-01T09:36:41.476Z</time></trkpt><trkpt lat="45.6026033" lon="10.4786583"><ele>275.5</ele><time>2026-05-01T09:36:42.476Z</time></trkpt><trkpt lat="45.60253" lon="10.4786533"><ele>278.0</ele><time>2026-05-01T09:36:43.476Z</time></trkpt><trkpt lat="45.6024367" lon="10.4786667"><ele>280.5</ele><time>2026-05-01T09:36:45.476Z</time></trkpt><trkpt lat="45.6023533" lon="10.4786683"><ele>283.0</ele><time>2026-05-01T09:36:48.476Z</time></trkpt><trkpt lat="45.6022433" lon="10.478585"><ele>283.0</ele><time>2026-05-01T09:36:50.477Z</time></trkpt><trkpt lat="45.6021783" lon="10.4785183"><ele>283.0</ele><time>2026-05-01T09:36:51.476Z</time></trkpt><trkpt lat="45.6021167" lon="10.4784617"><ele>283.0</ele><time>2026-05-01T09:36:52.476Z</time></trkpt><trkpt lat="45.6020483" lon="10.47843"><ele>283.0</ele><time>2026-05-01T09:36:53.476Z</time></trkpt><trkpt lat="45.6019833" lon="10.478415"><ele>283.0</ele><time>2026-05-01T09:36:54.476Z</time></trkpt><trkpt lat="45.6019083" lon="10.4784217"><ele>283.0</ele><time>2026-05-01T09:36:55.476Z</time></trkpt><trkpt lat="45.601825" lon="10.47843"><ele>284.16666666666663</ele><time>2026-05-01T09:36:56.476Z</time></trkpt><trkpt lat="45.6017383" lon="10.478435"><ele>285.3333333333333</ele><time>2026-05-01T09:36:57.476Z</time></trkpt><trkpt lat="45.60166" lon="10.4784367"><ele>286.5</ele><time>2026-05-01T09:36:58.476Z</time></trkpt><trkpt lat="45.6015933" lon="10.4784217"><ele>287.6666666666667</ele><time>2026-05-01T09:36:59.476Z</time></trkpt><trkpt lat="45.601495" lon="10.4783883"><ele>288.83333333333337</ele><time>2026-05-01T09:37:01.476Z</time></trkpt><trkpt lat="45.6014317" lon="10.4783583"><ele>290.0</ele><time>2026-05-01T09:37:04.476Z</time></trkpt><trkpt lat="45.6013383" lon="10.4783417"><ele>290.0</ele><time>2026-05-01T09:37:07.476Z</time></trkpt><trkpt lat="45.601285" lon="10.47829"><ele>290.0</ele><time>2026-05-01T09:37:09.476Z</time></trkpt><trkpt lat="45.601235" lon="10.4782233"><ele>290.0</ele><time>2026-05-01T09:37:11.476Z</time></trkpt><trkpt lat="45.6011583" lon="10.4781467"><ele>290.0</ele><time>2026-05-01T09:37:13.476Z</time></trkpt><trkpt lat="45.6011083" lon="10.478085"><ele>290.0</ele><time>2026-05-01T09:37:14.476Z</time></trkpt><trkpt lat="45.6010517" lon="10.47803"><ele>290.0</ele><time>2026-05-01T09:37:15.477Z</time></trkpt><trkpt lat="45.6009933" lon="10.47798"><ele>290.0</ele><time>2026-05-01T09:37:16.476Z</time></trkpt><trkpt lat="45.6009383" lon="10.4779267"><ele>289.0</ele><time>2026-05-01T09:37:17.476Z</time></trkpt><trkpt lat="45.600845" lon="10.4778283"><ele>288.0</ele><time>2026-05-01T09:37:19.476Z</time></trkpt><trkpt lat="45.6007733" lon="10.4777467"><ele>287.0</ele><time>2026-05-01T09:37:21.476Z</time></trkpt><trkpt lat="45.60073" lon="10.4776767"><ele>286.0</ele><time>2026-05-01T09:37:23.476Z</time></trkpt><trkpt lat="45.6008067" lon="10.4776017"><ele>285.0</ele><time>2026-05-01T09:37:28.477Z</time></trkpt><trkpt lat="45.60088" lon="10.4776"><ele>284.0</ele><time>2026-05-01T09:37:30.476Z</time></trkpt><trkpt lat="45.6009467" lon="10.4776167"><ele>284.0</ele><time>2026-05-01T09:37:32.476Z</time></trkpt><trkpt lat="45.6010217" lon="10.4776833"><ele>284.0</ele><time>2026-05-01T09:37:34.476Z</time></trkpt><trkpt lat="45.6010733" lon="10.47775"><ele>284.0</ele><time>2026-05-01T09:37:36.476Z</time></trkpt><trkpt lat="45.60115" lon="10.477785"><ele>284.0</ele><time>2026-05-01T09:37:39.476Z</time></trkpt><trkpt lat="45.6012183" lon="10.4777883"><ele>284.0</ele><time>2026-05-01T09:37:41.477Z</time></trkpt><trkpt lat="45.6013" lon="10.4778183"><ele>284.0</ele><time>2026-05-01T09:37:43.476Z</time></trkpt><trkpt lat="45.6014" lon="10.4778383"><ele>282.6666666666667</ele><time>2026-05-01T09:37:45.476Z</time></trkpt><trkpt lat="45.601485" lon="10.47785"><ele>281.33333333333337</ele><time>2026-05-01T09:37:47.476Z</time></trkpt><trkpt lat="45.6015883" lon="10.4778217"><ele>280.0</ele><time>2026-05-01T09:37:49.476Z</time></trkpt><trkpt lat="45.6016617" lon="10.4778017"><ele>278.6666666666667</ele><time>2026-05-01T09:37:50.476Z</time></trkpt><trkpt lat="45.6017317" lon="10.4777783"><ele>277.3333333333333</ele><time>2026-05-01T09:37:51.476Z</time></trkpt><trkpt lat="45.601795" lon="10.4777633"><ele>276.0</ele><time>2026-05-01T09:37:52.476Z</time></trkpt><trkpt lat="45.6018633" lon="10.4777517"><ele>275.2</ele><time>2026-05-01T09:37:53.476Z</time></trkpt><trkpt lat="45.602" lon="10.4777267"><ele>274.40000000000003</ele><time>2026-05-01T09:37:55.476Z</time></trkpt><trkpt lat="45.6021283" lon="10.4777017"><ele>273.6</ele><time>2026-05-01T09:37:57.476Z</time></trkpt><trkpt lat="45.602195" lon="10.4776883"><ele>272.8</ele><time>2026-05-01T09:37:58.476Z</time></trkpt><trkpt lat="45.6022567" lon="10.4776533"><ele>272.0</ele><time>2026-05-01T09:37:59.476Z</time></trkpt><trkpt lat="45.6023233" lon="10.4776183"><ele>272.0</ele><time>2026-05-01T09:38:00.476Z</time></trkpt><trkpt lat="45.6024033" lon="10.4775733"><ele>272.0</ele><time>2026-05-01T09:38:01.476Z</time></trkpt><trkpt lat="45.6025083" lon="10.47753"><ele>272.0</ele><time>2026-05-01T09:38:02.477Z</time></trkpt><trkpt lat="45.6026183" lon="10.4774867"><ele>272.0</ele><time>2026-05-01T09:38:03.476Z</time></trkpt><trkpt lat="45.6026933" lon="10.47745"><ele>272.0</ele><time>2026-05-01T09:38:04.476Z</time></trkpt><trkpt lat="45.6027867" lon="10.4774033"><ele>270.4</ele><time>2026-05-01T09:38:05.477Z</time></trkpt><trkpt lat="45.6029217" lon="10.4773333"><ele>268.79999999999995</ele><time>2026-05-01T09:38:07.476Z</time></trkpt><trkpt lat="45.6030083" lon="10.4773117"><ele>267.2</ele><time>2026-05-01T09:38:08.476Z</time></trkpt><trkpt lat="45.60309" lon="10.47732"><ele>265.59999999999997</ele><time>2026-05-01T09:38:09.476Z</time></trkpt><trkpt lat="45.6031617" lon="10.4773267"><ele>264.0</ele><time>2026-05-01T09:38:10.476Z</time></trkpt><trkpt lat="45.6032267" lon="10.477345"><ele>264.0</ele><time>2026-05-01T09:38:11.476Z</time></trkpt><trkpt lat="45.6033217" lon="10.4774067"><ele>264.0</ele><time>2026-05-01T09:38:13.476Z</time></trkpt><trkpt lat="45.6034483" lon="10.477465"><ele>264.0</ele><time>2026-05-01T09:38:15.476Z</time></trkpt><trkpt lat="45.6035133" lon="10.47748"><ele>264.0</ele><time>2026-05-01T09:38:16.476Z</time></trkpt><trkpt lat="45.6035867" lon="10.4774817"><ele>264.0</ele><time>2026-05-01T09:38:17.476Z</time></trkpt><trkpt lat="45.6036533" lon="10.4774633"><ele>264.0</ele><time>2026-05-01T09:38:18.476Z</time></trkpt><trkpt lat="45.6037633" lon="10.4773717"><ele>263.5</ele><time>2026-05-01T09:38:20.476Z</time></trkpt><trkpt lat="45.6038117" lon="10.4773083"><ele>263.0</ele><time>2026-05-01T09:38:21.476Z</time></trkpt><trkpt lat="45.60386" lon="10.47725"><ele>262.5</ele><time>2026-05-01T09:38:22.476Z</time></trkpt><trkpt lat="45.6039267" lon="10.4771717"><ele>262.0</ele><time>2026-05-01T09:38:24.476Z</time></trkpt><trkpt lat="45.6039933" lon="10.4770817"><ele>261.5</ele><time>2026-05-01T09:38:26.476Z</time></trkpt><trkpt lat="45.6040867" lon="10.4769383"><ele>261.0</ele><time>2026-05-01T09:38:28.476Z</time></trkpt><trkpt lat="45.6041467" lon="10.47686"><ele>262.40000000000003</ele><time>2026-05-01T09:38:29.477Z</time></trkpt><trkpt lat="45.6041933" lon="10.47678"><ele>263.8</ele><time>2026-05-01T09:38:30.476Z</time></trkpt><trkpt lat="45.6042533" lon="10.4766717"><ele>265.20000000000005</ele><time>2026-05-01T09:38:32.476Z</time></trkpt><trkpt lat="45.6043117" lon="10.4765983"><ele>266.6</ele><time>2026-05-01T09:38:34.476Z</time></trkpt><trkpt lat="45.6043917" lon="10.47645"><ele>268.0</ele><time>2026-05-01T09:38:36.476Z</time></trkpt><trkpt lat="45.60444" lon="10.4763417"><ele>269.0</ele><time>2026-05-01T09:38:37.476Z</time></trkpt><trkpt lat="45.60449" lon="10.4762217"><ele>270.0</ele><time>2026-05-01T09:38:38.477Z</time></trkpt><trkpt lat="45.6045233" lon="10.4760867"><ele>271.0</ele><time>2026-05-01T09:38:39.476Z</time></trkpt><trkpt lat="45.6045783" lon="10.4759517"><ele>272.0</ele><time>2026-05-01T09:38:40.476Z</time></trkpt><trkpt lat="45.6046383" lon="10.4758067"><ele>273.0</ele><time>2026-05-01T09:38:41.476Z</time></trkpt><trkpt lat="45.6046983" lon="10.4756783"><ele>273.0</ele><time>2026-05-01T09:38:42.476Z</time></trkpt><trkpt lat="45.6047467" lon="10.4755533"><ele>273.0</ele><time>2026-05-01T09:38:43.476Z</time></trkpt><trkpt lat="45.604785" lon="10.47546"><ele>273.0</ele><time>2026-05-01T09:38:44.476Z</time></trkpt><trkpt lat="45.6047933" lon="10.475325"><ele>273.0</ele><time>2026-05-01T09:38:46.476Z</time></trkpt><trkpt lat="45.6047317" lon="10.4751833"><ele>273.0</ele><time>2026-05-01T09:38:48.476Z</time></trkpt><trkpt lat="45.6046767" lon="10.4750833"><ele>273.3333333333333</ele><time>2026-05-01T09:38:49.476Z</time></trkpt><trkpt lat="45.6046133" lon="10.47497"><ele>273.6666666666667</ele><time>2026-05-01T09:38:50.476Z</time></trkpt><trkpt lat="45.604555" lon="10.4748717"><ele>274.0</ele><time>2026-05-01T09:38:51.476Z</time></trkpt><trkpt lat="45.6044917" lon="10.47475"><ele>274.33333333333337</ele><time>2026-05-01T09:38:53.476Z</time></trkpt><trkpt lat="45.6044867" lon="10.474655"><ele>274.6666666666667</ele><time>2026-05-01T09:38:56.476Z</time></trkpt><trkpt lat="45.60446" lon="10.4747383"><ele>275.0</ele><time>2026-05-01T09:39:25.477Z</time></trkpt><trkpt lat="45.6044183" lon="10.4748083"><ele>277.2</ele><time>2026-05-01T09:39:28.476Z</time></trkpt><trkpt lat="45.604345" lon="10.474795"><ele>279.4</ele><time>2026-05-01T09:39:30.476Z</time></trkpt><trkpt lat="45.604275" lon="10.4747483"><ele>281.6</ele><time>2026-05-01T09:39:32.476Z</time></trkpt><trkpt lat="45.6042" lon="10.474665"><ele>283.8</ele><time>2026-05-01T09:39:39.476Z</time></trkpt><trkpt lat="45.604115" lon="10.4745983"><ele>286.0</ele><time>2026-05-01T09:39:41.476Z</time></trkpt><trkpt lat="45.604" lon="10.474525"><ele>287.8</ele><time>2026-05-01T09:39:43.476Z</time></trkpt><trkpt lat="45.60388" lon="10.4744717"><ele>289.6</ele><time>2026-05-01T09:39:45.476Z</time></trkpt><trkpt lat="45.603815" lon="10.47445"><ele>291.4</ele><time>2026-05-01T09:39:46.476Z</time></trkpt><trkpt lat="45.6037217" lon="10.4744017"><ele>293.2</ele><time>2026-05-01T09:39:48.476Z</time></trkpt><trkpt lat="45.6036417" lon="10.474355"><ele>295.0</ele><time>2026-05-01T09:39:50.476Z</time></trkpt><trkpt lat="45.6035633" lon="10.4743883"><ele>296.16666666666663</ele><time>2026-05-01T09:39:53.476Z</time></trkpt><trkpt lat="45.603505" lon="10.47446"><ele>297.3333333333333</ele><time>2026-05-01T09:39:55.476Z</time></trkpt><trkpt lat="45.6034217" lon="10.4745083"><ele>298.5</ele><time>2026-05-01T09:39:57.476Z</time></trkpt><trkpt lat="45.6033517" lon="10.4745433"><ele>299.6666666666667</ele><time>2026-05-01T09:39:58.476Z</time></trkpt><trkpt lat="45.6032767" lon="10.474585"><ele>300.83333333333337</ele><time>2026-05-01T09:39:59.476Z</time></trkpt><trkpt lat="45.6032033" lon="10.4746233"><ele>302.0</ele><time>2026-05-01T09:40:00.476Z</time></trkpt><trkpt lat="45.6031317" lon="10.474655"><ele>302.0</ele><time>2026-05-01T09:40:01.476Z</time></trkpt><trkpt lat="45.6030583" lon="10.4746783"><ele>302.0</ele><time>2026-05-01T09:40:02.476Z</time></trkpt><trkpt lat="45.6029817" lon="10.474695"><ele>302.0</ele><time>2026-05-01T09:40:03.477Z</time></trkpt><trkpt lat="45.6029083" lon="10.474705"><ele>302.0</ele><time>2026-05-01T09:40:04.476Z</time></trkpt><trkpt lat="45.60284" lon="10.4747183"><ele>302.0</ele><time>2026-05-01T09:40:05.477Z</time></trkpt><trkpt lat="45.6027433" lon="10.474765"><ele>302.0</ele><time>2026-05-01T09:40:07.476Z</time></trkpt><trkpt lat="45.602655" lon="10.4747917"><ele>303.83333333333337</ele><time>2026-05-01T09:40:09.476Z</time></trkpt><trkpt lat="45.6025717" lon="10.4747617"><ele>305.6666666666667</ele><time>2026-05-01T09:40:12.477Z</time></trkpt><trkpt lat="45.60253" lon="10.474655"><ele>307.5</ele><time>2026-05-01T09:40:15.476Z</time></trkpt><trkpt lat="45.6024767" lon="10.4745667"><ele>309.3333333333333</ele><time>2026-05-01T09:40:17.476Z</time></trkpt><trkpt lat="45.6024333" lon="10.474485"><ele>311.16666666666663</ele><time>2026-05-01T09:40:19.476Z</time></trkpt><trkpt lat="45.602445" lon="10.474385"><ele>313.0</ele><time>2026-05-01T09:40:21.476Z</time></trkpt><trkpt lat="45.6024983" lon="10.4743367"><ele>315.5</ele><time>2026-05-01T09:40:23.476Z</time></trkpt><trkpt lat="45.6025767" lon="10.4743083"><ele>318.0</ele><time>2026-05-01T09:40:26.476Z</time></trkpt><trkpt lat="45.6026033" lon="10.474225"><ele>320.5</ele><time>2026-05-01T09:40:29.476Z</time></trkpt><trkpt lat="45.6025267" lon="10.4742767"><ele>323.0</ele><time>2026-05-01T09:40:35.476Z</time></trkpt><trkpt lat="45.6024383" lon="10.4743283"><ele>325.5</ele><time>2026-05-01T09:40:37.476Z</time></trkpt><trkpt lat="45.6023617" lon="10.4744017"><ele>328.0</ele><time>2026-05-01T09:40:39.476Z</time></trkpt><trkpt lat="45.60232" lon="10.4744883"><ele>328.0</ele><time>2026-05-01T09:40:41.476Z</time></trkpt><trkpt lat="45.6023317" lon="10.4745883"><ele>328.0</ele><time>2026-05-01T09:40:43.476Z</time></trkpt><trkpt lat="45.6023683" lon="10.4746983"><ele>328.0</ele><time>2026-05-01T09:40:45.476Z</time></trkpt><trkpt lat="45.60239" lon="10.4747983"><ele>328.0</ele><time>2026-05-01T09:40:47.476Z</time></trkpt><trkpt lat="45.602415" lon="10.4748867"><ele>328.0</ele><time>2026-05-01T09:40:49.476Z</time></trkpt><trkpt lat="45.6024" lon="10.4750383"><ele>328.0</ele><time>2026-05-01T09:40:52.476Z</time></trkpt><trkpt lat="45.6023717" lon="10.4751767"><ele>325.5</ele><time>2026-05-01T09:40:54.476Z</time></trkpt><trkpt lat="45.6023217" lon="10.4752567"><ele>323.0</ele><time>2026-05-01T09:40:56.476Z</time></trkpt><trkpt lat="45.602235" lon="10.475315"><ele>320.5</ele><time>2026-05-01T09:40:58.477Z</time></trkpt><trkpt lat="45.6021717" lon="10.4753517"><ele>318.0</ele><time>2026-05-01T09:40:59.476Z</time></trkpt><trkpt lat="45.60209" lon="10.4753967"><ele>315.5</ele><time>2026-05-01T09:41:00.476Z</time></trkpt><trkpt lat="45.6020217" lon="10.4754467"><ele>313.0</ele><time>2026-05-01T09:41:01.476Z</time></trkpt><trkpt lat="45.6019517" lon="10.475485"><ele>311.6</ele><time>2026-05-01T09:41:02.476Z</time></trkpt><trkpt lat="45.60183" lon="10.4755167"><ele>310.20000000000005</ele><time>2026-05-01T09:41:04.476Z</time></trkpt><trkpt lat="45.6017367" lon="10.47553"><ele>308.8</ele><time>2026-05-01T09:41:05.477Z</time></trkpt><trkpt lat="45.6016267" lon="10.47553"><ele>307.40000000000003</ele><time>2026-05-01T09:41:06.476Z</time></trkpt><trkpt lat="45.6015417" lon="10.4755233"><ele>306.0</ele><time>2026-05-01T09:41:07.476Z</time></trkpt><trkpt lat="45.6014533" lon="10.4755233"><ele>306.0</ele><time>2026-05-01T09:41:08.476Z</time></trkpt><trkpt lat="45.60137" lon="10.4755333"><ele>306.0</ele><time>2026-05-01T09:41:09.476Z</time></trkpt><trkpt lat="45.6012917" lon="10.4755533"><ele>306.0</ele><time>2026-05-01T09:41:10.476Z</time></trkpt><trkpt lat="45.6012083" lon="10.475585"><ele>306.0</ele><time>2026-05-01T09:41:11.476Z</time></trkpt><trkpt lat="45.60112" lon="10.4756117"><ele>306.0</ele><time>2026-05-01T09:41:12.476Z</time></trkpt><trkpt lat="45.6010317" lon="10.4756567"><ele>306.0</ele><time>2026-05-01T09:41:13.476Z</time></trkpt><trkpt lat="45.6009617" lon="10.4757033"><ele>307.6666666666667</ele><time>2026-05-01T09:41:14.476Z</time></trkpt><trkpt lat="45.6009" lon="10.47575"><ele>309.3333333333333</ele><time>2026-05-01T09:41:15.476Z</time></trkpt><trkpt lat="45.6007833" lon="10.4758083"><ele>311.0</ele><time>2026-05-01T09:41:17.476Z</time></trkpt><trkpt lat="45.60072" lon="10.475835"><ele>312.66666666666663</ele><time>2026-05-01T09:41:18.476Z</time></trkpt><trkpt lat="45.6006483" lon="10.4758567"><ele>314.3333333333333</ele><time>2026-05-01T09:41:19.476Z</time></trkpt><trkpt lat="45.60058" lon="10.4758917"><ele>316.0</ele><time>2026-05-01T09:41:20.476Z</time></trkpt><trkpt lat="45.6005067" lon="10.4759017"><ele>316.0</ele><time>2026-05-01T09:41:21.476Z</time></trkpt><trkpt lat="45.6004133" lon="10.475875"><ele>316.0</ele><time>2026-05-01T09:41:23.476Z</time></trkpt><trkpt lat="45.6003" lon="10.4758567"><ele>316.0</ele><time>2026-05-01T09:41:25.477Z</time></trkpt><trkpt lat="45.6001733" lon="10.4758533"><ele>316.0</ele><time>2026-05-01T09:41:27.476Z</time></trkpt><trkpt lat="45.60011" lon="10.4758567"><ele>316.0</ele><time>2026-05-01T09:41:28.476Z</time></trkpt><trkpt lat="45.5999983" lon="10.4758467"><ele>318.5</ele><time>2026-05-01T09:41:30.476Z</time></trkpt><trkpt lat="45.599885" lon="10.4758033"><ele>321.0</ele><time>2026-05-01T09:41:32.476Z</time></trkpt><trkpt lat="45.5998083" lon="10.475775"><ele>323.5</ele><time>2026-05-01T09:41:33.476Z</time></trkpt><trkpt lat="45.5997467" lon="10.47575"><ele>326.0</ele><time>2026-05-01T09:41:34.476Z</time></trkpt><trkpt lat="45.5996417" lon="10.475735"><ele>328.5</ele><time>2026-05-01T09:41:36.476Z</time></trkpt><trkpt lat="45.5995667" lon="10.4757517"><ele>331.0</ele><time>2026-05-01T09:41:38.476Z</time></trkpt><trkpt lat="45.5994667" lon="10.4757883"><ele>331.4</ele><time>2026-05-01T09:41:44.476Z</time></trkpt><trkpt lat="45.5993367" lon="10.47577"><ele>331.8</ele><time>2026-05-01T09:41:46.477Z</time></trkpt><trkpt lat="45.5992383" lon="10.4757467"><ele>332.2</ele><time>2026-05-01T09:41:47.476Z</time></trkpt><trkpt lat="45.5991517" lon="10.4757433"><ele>332.59999999999997</ele><time>2026-05-01T09:41:48.476Z</time></trkpt><trkpt lat="45.5990583" lon="10.47574"><ele>333.0</ele><time>2026-05-01T09:41:49.476Z</time></trkpt><trkpt lat="45.5989683" lon="10.47572"><ele>333.0</ele><time>2026-05-01T09:41:50.476Z</time></trkpt><trkpt lat="45.5988917" lon="10.475695"><ele>333.0</ele><time>2026-05-01T09:41:51.476Z</time></trkpt><trkpt lat="45.5988267" lon="10.475675"><ele>333.0</ele><time>2026-05-01T09:41:52.476Z</time></trkpt><trkpt lat="45.5987633" lon="10.4756533"><ele>333.0</ele><time>2026-05-01T09:41:53.476Z</time></trkpt><trkpt lat="45.5986333" lon="10.4756067"><ele>333.0</ele><time>2026-05-01T09:41:55.476Z</time></trkpt><trkpt lat="45.598565" lon="10.4755783"><ele>333.0</ele><time>2026-05-01T09:41:56.477Z</time></trkpt><trkpt lat="45.5985" lon="10.4755483"><ele>334.0</ele><time>2026-05-01T09:41:57.476Z</time></trkpt><trkpt lat="45.5984333" lon="10.4755217"><ele>335.0</ele><time>2026-05-01T09:41:58.476Z</time></trkpt><trkpt lat="45.5983717" lon="10.4754933"><ele>336.0</ele><time>2026-05-01T09:41:59.476Z</time></trkpt><trkpt lat="45.598295" lon="10.4754767"><ele>337.0</ele><time>2026-05-01T09:42:00.476Z</time></trkpt><trkpt lat="45.5982267" lon="10.4754667"><ele>338.0</ele><time>2026-05-01T09:42:01.476Z</time></trkpt><trkpt lat="45.5981133" lon="10.4754533"><ele>339.0</ele><time>2026-05-01T09:42:03.476Z</time></trkpt><trkpt lat="45.5980467" lon="10.4754483"><ele>339.0</ele><time>2026-05-01T09:42:06.476Z</time></trkpt><trkpt lat="45.5979817" lon="10.4754983"><ele>339.0</ele><time>2026-05-01T09:42:09.476Z</time></trkpt><trkpt lat="45.5978767" lon="10.4755467"><ele>339.0</ele><time>2026-05-01T09:42:24.477Z</time></trkpt><trkpt lat="45.5978083" lon="10.4755383"><ele>339.0</ele><time>2026-05-01T09:42:27.476Z</time></trkpt><trkpt lat="45.597715" lon="10.4755383"><ele>339.0</ele><time>2026-05-01T09:42:29.476Z</time></trkpt><trkpt lat="45.5976183" lon="10.4755467"><ele>339.0</ele><time>2026-05-01T09:42:31.476Z</time></trkpt><trkpt lat="45.597545" lon="10.4755733"><ele>342.5</ele><time>2026-05-01T09:42:33.476Z</time></trkpt><trkpt lat="45.59746" lon="10.4756117"><ele>346.0</ele><time>2026-05-01T09:42:35.476Z</time></trkpt><trkpt lat="45.5974083" lon="10.4756667"><ele>349.5</ele><time>2026-05-01T09:42:37.476Z</time></trkpt><trkpt lat="45.59728" lon="10.4757683"><ele>353.0</ele><time>2026-05-01T09:42:51.476Z</time></trkpt><trkpt lat="45.597215" lon="10.4757533"><ele>356.5</ele><time>2026-05-01T09:42:54.477Z</time></trkpt><trkpt lat="45.597155" lon="10.4756767"><ele>360.0</ele><time>2026-05-01T09:42:57.476Z</time></trkpt><trkpt lat="45.5971167" lon="10.4755717"><ele>360.3333333333333</ele><time>2026-05-01T09:43:00.476Z</time></trkpt><trkpt lat="45.5971167" lon="10.47543"><ele>360.6666666666667</ele><time>2026-05-01T09:43:02.476Z</time></trkpt><trkpt lat="45.597135" lon="10.4752867"><ele>361.0</ele><time>2026-05-01T09:43:04.476Z</time></trkpt><trkpt lat="45.5971583" lon="10.4751717"><ele>361.33333333333337</ele><time>2026-05-01T09:43:06.477Z</time></trkpt><trkpt lat="45.5971833" lon="10.47506"><ele>361.6666666666667</ele><time>2026-05-01T09:43:08.476Z</time></trkpt><trkpt lat="45.5971783" lon="10.4749533"><ele>362.0</ele><time>2026-05-01T09:43:10.476Z</time></trkpt><trkpt lat="45.59717" lon="10.4748633"><ele>362.0</ele><time>2026-05-01T09:43:12.476Z</time></trkpt><trkpt lat="45.59719" lon="10.474735"><ele>362.0</ele><time>2026-05-01T09:43:15.476Z</time></trkpt><trkpt lat="45.5972267" lon="10.4746083"><ele>362.0</ele><time>2026-05-01T09:43:17.476Z</time></trkpt><trkpt lat="45.59727" lon="10.4745117"><ele>362.0</ele><time>2026-05-01T09:43:19.476Z</time></trkpt><trkpt lat="45.5972383" lon="10.4744233"><ele>362.0</ele><time>2026-05-01T09:43:25.476Z</time></trkpt><trkpt lat="45.5973067" lon="10.4742983"><ele>362.0</ele><time>2026-05-01T09:43:35.476Z</time></trkpt><trkpt lat="45.5973683" lon="10.4742417"><ele>364.8</ele><time>2026-05-01T09:43:36.476Z</time></trkpt><trkpt lat="45.59745" lon="10.4741917"><ele>367.6</ele><time>2026-05-01T09:43:37.476Z</time></trkpt><trkpt lat="45.5975483" lon="10.474145"><ele>370.40000000000003</ele><time>2026-05-01T09:43:38.476Z</time></trkpt><trkpt lat="45.597645" lon="10.4741117"><ele>373.20000000000005</ele><time>2026-05-01T09:43:39.476Z</time></trkpt><trkpt lat="45.5977267" lon="10.47409"><ele>376.0</ele><time>2026-05-01T09:43:40.476Z</time></trkpt><trkpt lat="45.597805" lon="10.4740833"><ele>378.3333333333333</ele><time>2026-05-01T09:43:41.476Z</time></trkpt><trkpt lat="45.5978817" lon="10.474095"><ele>380.66666666666663</ele><time>2026-05-01T09:43:42.476Z</time></trkpt><trkpt lat="45.5979617" lon="10.4741067"><ele>383.0</ele><time>2026-05-01T09:43:43.476Z</time></trkpt><trkpt lat="45.5980383" lon="10.4741133"><ele>385.3333333333333</ele><time>2026-05-01T09:43:44.476Z</time></trkpt><trkpt lat="45.5981067" lon="10.474115"><ele>387.6666666666667</ele><time>2026-05-01T09:43:45.476Z</time></trkpt><trkpt lat="45.598185" lon="10.4741117"><ele>390.0</ele><time>2026-05-01T09:43:46.476Z</time></trkpt><trkpt lat="45.59826" lon="10.4741117"><ele>390.0</ele><time>2026-05-01T09:43:47.476Z</time></trkpt><trkpt lat="45.5983417" lon="10.4740917"><ele>390.0</ele><time>2026-05-01T09:43:48.476Z</time></trkpt><trkpt lat="45.59843" lon="10.4740617"><ele>390.0</ele><time>2026-05-01T09:43:49.476Z</time></trkpt><trkpt lat="45.5985133" lon="10.4740317"><ele>390.0</ele><time>2026-05-01T09:43:50.476Z</time></trkpt><trkpt lat="45.598595" lon="10.4740067"><ele>390.0</ele><time>2026-05-01T09:43:51.476Z</time></trkpt><trkpt lat="45.5986683" lon="10.473985"><ele>390.0</ele><time>2026-05-01T09:43:52.477Z</time></trkpt><trkpt lat="45.598765" lon="10.4739267"><ele>391.3333333333333</ele><time>2026-05-01T09:43:54.476Z</time></trkpt><trkpt lat="45.5988" lon="10.47385"><ele>392.66666666666663</ele><time>2026-05-01T09:43:57.476Z</time></trkpt><trkpt lat="45.59887" lon="10.4738817"><ele>394.0</ele><time>2026-05-01T09:44:17.476Z</time></trkpt><trkpt lat="45.5989533" lon="10.4738933"><ele>395.3333333333333</ele><time>2026-05-01T09:44:19.476Z</time></trkpt><trkpt lat="45.5990617" lon="10.473865"><ele>396.66666666666663</ele><time>2026-05-01T09:44:21.476Z</time></trkpt><trkpt lat="45.5991317" lon="10.4738483"><ele>398.0</ele><time>2026-05-01T09:44:22.476Z</time></trkpt><trkpt lat="45.59921" lon="10.4738283"><ele>397.99999999999994</ele><time>2026-05-01T09:44:23.476Z</time></trkpt><trkpt lat="45.5993017" lon="10.4738183"><ele>398.0</ele><time>2026-05-01T09:44:24.476Z</time></trkpt><trkpt lat="45.5993867" lon="10.4738"><ele>398.0</ele><time>2026-05-01T09:44:25.476Z</time></trkpt><trkpt lat="45.5994717" lon="10.4737967"><ele>398.0</ele><time>2026-05-01T09:44:26.476Z</time></trkpt><trkpt lat="45.59954" lon="10.473785"><ele>397.99999999999994</ele><time>2026-05-01T09:44:27.476Z</time></trkpt><trkpt lat="45.5996083" lon="10.47377"><ele>398.0</ele><time>2026-05-01T09:44:28.476Z</time></trkpt><trkpt lat="45.5997367" lon="10.4737583"><ele>398.71428571428567</ele><time>2026-05-01T09:44:30.476Z</time></trkpt><trkpt lat="45.5998017" lon="10.4737867"><ele>399.42857142857144</ele><time>2026-05-01T09:44:31.476Z</time></trkpt><trkpt lat="45.5998783" lon="10.4738"><ele>400.1428571428571</ele><time>2026-05-01T09:44:32.477Z</time></trkpt><trkpt lat="45.5999583" lon="10.4738"><ele>400.85714285714283</ele><time>2026-05-01T09:44:33.476Z</time></trkpt><trkpt lat="45.6000283" lon="10.4737833"><ele>401.57142857142856</ele><time>2026-05-01T09:44:34.476Z</time></trkpt><trkpt lat="45.6001067" lon="10.4737583"><ele>402.2857142857143</ele><time>2026-05-01T09:44:35.476Z</time></trkpt><trkpt lat="45.60017" lon="10.47371"><ele>403.0</ele><time>2026-05-01T09:44:36.476Z</time></trkpt><trkpt lat="45.60026" lon="10.473595"><ele>407.79999999999995</ele><time>2026-05-01T09:44:38.476Z</time></trkpt><trkpt lat="45.6003067" lon="10.47353"><ele>412.6</ele><time>2026-05-01T09:44:39.476Z</time></trkpt><trkpt lat="45.6004017" lon="10.4734483"><ele>417.40000000000003</ele><time>2026-05-01T09:44:41.476Z</time></trkpt><trkpt lat="45.6005017" lon="10.4733967"><ele>422.20000000000005</ele><time>2026-05-01T09:44:43.476Z</time></trkpt><trkpt lat="45.6006067" lon="10.4733633"><ele>427.0</ele><time>2026-05-01T09:44:45.476Z</time></trkpt><trkpt lat="45.6007267" lon="10.4732983"><ele>427.0</ele><time>2026-05-01T09:44:47.476Z</time></trkpt><trkpt lat="45.6007933" lon="10.47324"><ele>427.00000000000006</ele><time>2026-05-01T09:44:48.476Z</time></trkpt><trkpt lat="45.6008683" lon="10.4731533"><ele>427.00000000000006</ele><time>2026-05-01T09:44:49.476Z</time></trkpt><trkpt lat="45.6009467" lon="10.4730667"><ele>427.0</ele><time>2026-05-01T09:44:50.476Z</time></trkpt><trkpt lat="45.6010233" lon="10.4729867"><ele>427.0</ele><time>2026-05-01T09:44:51.476Z</time></trkpt><trkpt lat="45.6010967" lon="10.4729117"><ele>426.83333333333337</ele><time>2026-05-01T09:44:52.476Z</time></trkpt><trkpt lat="45.601155" lon="10.472835"><ele>426.6666666666667</ele><time>2026-05-01T09:44:53.476Z</time></trkpt><trkpt lat="45.6012167" lon="10.4727567"><ele>426.5</ele><time>2026-05-01T09:44:54.477Z</time></trkpt><trkpt lat="45.6012667" lon="10.4726767"><ele>426.33333333333337</ele><time>2026-05-01T09:44:55.476Z</time></trkpt><trkpt lat="45.601315" lon="10.4725917"><ele>426.1666666666667</ele><time>2026-05-01T09:44:56.476Z</time></trkpt><trkpt lat="45.6013617" lon="10.4725083"><ele>426.0</ele><time>2026-05-01T09:44:57.476Z</time></trkpt><trkpt lat="45.6013917" lon="10.472415"><ele>426.0</ele><time>2026-05-01T09:44:58.476Z</time></trkpt><trkpt lat="45.60142" lon="10.4723183"><ele>426.0</ele><time>2026-05-01T09:44:59.476Z</time></trkpt><trkpt lat="45.601435" lon="10.4722283"><ele>426.0</ele><time>2026-05-01T09:45:00.476Z</time></trkpt><trkpt lat="45.6014733" lon="10.4720983"><ele>426.0</ele><time>2026-05-01T09:45:02.476Z</time></trkpt><trkpt lat="45.6015167" lon="10.472005"><ele>426.0</ele><time>2026-05-01T09:45:04.476Z</time></trkpt><trkpt lat="45.6015967" lon="10.4719433"><ele>426.0</ele><time>2026-05-01T09:45:06.476Z</time></trkpt><trkpt lat="45.6016967" lon="10.4718983"><ele>421.4</ele><time>2026-05-01T09:45:08.476Z</time></trkpt><trkpt lat="45.601775" lon="10.4718117"><ele>416.8</ele><time>2026-05-01T09:45:10.476Z</time></trkpt><trkpt lat="45.601855" lon="10.4716733"><ele>412.2</ele><time>2026-05-01T09:45:12.476Z</time></trkpt><trkpt lat="45.6019067" lon="10.47162"><ele>407.59999999999997</ele><time>2026-05-01T09:45:13.476Z</time></trkpt><trkpt lat="45.6019583" lon="10.4715667"><ele>403.0</ele><time>2026-05-01T09:45:14.476Z</time></trkpt><trkpt lat="45.602015" lon="10.47145"><ele>403.00000000000006</ele><time>2026-05-01T09:45:16.476Z</time></trkpt><trkpt lat="45.6020483" lon="10.4713417"><ele>403.0</ele><time>2026-05-01T09:45:18.477Z</time></trkpt><trkpt lat="45.60204" lon="10.47124"><ele>403.0</ele><time>2026-05-01T09:45:20.476Z</time></trkpt><trkpt lat="45.60202" lon="10.4711333"><ele>403.0</ele><time>2026-05-01T09:45:22.476Z</time></trkpt><trkpt lat="45.6020383" lon="10.4710283"><ele>403.00000000000006</ele><time>2026-05-01T09:45:24.476Z</time></trkpt><trkpt lat="45.60207" lon="10.470895"><ele>403.0</ele><time>2026-05-01T09:45:26.476Z</time></trkpt><trkpt lat="45.6020883" lon="10.470745"><ele>404.83333333333337</ele><time>2026-05-01T09:45:28.476Z</time></trkpt><trkpt lat="45.6020833" lon="10.4706533"><ele>406.6666666666667</ele><time>2026-05-01T09:45:29.476Z</time></trkpt><trkpt lat="45.6020767" lon="10.470555"><ele>408.5</ele><time>2026-05-01T09:45:30.477Z</time></trkpt><trkpt lat="45.60206" lon="10.4703783"><ele>410.33333333333337</ele><time>2026-05-01T09:45:32.476Z</time></trkpt><trkpt lat="45.6020533" lon="10.4702767"><ele>412.1666666666667</ele><time>2026-05-01T09:45:33.476Z</time></trkpt><trkpt lat="45.6020367" lon="10.470145"><ele>414.0</ele><time>2026-05-01T09:45:34.476Z</time></trkpt><trkpt lat="45.6020267" lon="10.4699833"><ele>416.6</ele><time>2026-05-01T09:45:35.476Z</time></trkpt><trkpt lat="45.602035" lon="10.4698533"><ele>419.2</ele><time>2026-05-01T09:45:36.476Z</time></trkpt><trkpt lat="45.6020617" lon="10.46975"><ele>421.80000000000007</ele><time>2026-05-01T09:45:37.476Z</time></trkpt><trkpt lat="45.602095" lon="10.46967"><ele>424.40000000000003</ele><time>2026-05-01T09:45:38.476Z</time></trkpt><trkpt lat="45.6021883" lon="10.4695767"><ele>427.0</ele><time>2026-05-01T09:45:40.476Z</time></trkpt><trkpt lat="45.6022867" lon="10.4695283"><ele>430.0</ele><time>2026-05-01T09:45:42.476Z</time></trkpt><trkpt lat="45.602385" lon="10.4694717"><ele>433.00000000000006</ele><time>2026-05-01T09:45:44.476Z</time></trkpt><trkpt lat="45.6024833" lon="10.4693783"><ele>436.00000000000006</ele><time>2026-05-01T09:45:46.476Z</time></trkpt><trkpt lat="45.602545" lon="10.4692783"><ele>439.0</ele><time>2026-05-01T09:45:48.476Z</time></trkpt><trkpt lat="45.6025767" lon="10.4691567"><ele>442.0</ele><time>2026-05-01T09:45:50.476Z</time></trkpt><trkpt lat="45.6025833" lon="10.4690533"><ele>442.0</ele><time>2026-05-01T09:45:52.476Z</time></trkpt><trkpt lat="45.6025633" lon="10.46895"><ele>442.00000000000006</ele><time>2026-05-01T09:45:54.476Z</time></trkpt><trkpt lat="45.6025483" lon="10.4688183"><ele>442.00000000000006</ele><time>2026-05-01T09:45:56.476Z</time></trkpt><trkpt lat="45.602515" lon="10.4686867"><ele>442.0</ele><time>2026-05-01T09:45:58.476Z</time></trkpt><trkpt lat="45.6024467" lon="10.4685317"><ele>442.0</ele><time>2026-05-01T09:46:00.476Z</time></trkpt><trkpt lat="45.6024117" lon="10.468445"><ele>441.40000000000003</ele><time>2026-05-01T09:46:01.476Z</time></trkpt><trkpt lat="45.6023733" lon="10.4683283"><ele>440.80000000000007</ele><time>2026-05-01T09:46:03.476Z</time></trkpt><trkpt lat="45.60233" lon="10.4682133"><ele>440.2</ele><time>2026-05-01T09:46:28.476Z</time></trkpt><trkpt lat="45.602245" lon="10.4681417"><ele>439.6</ele><time>2026-05-01T09:46:31.476Z</time></trkpt><trkpt lat="45.6021667" lon="10.4680767"><ele>439.0</ele><time>2026-05-01T09:46:33.477Z</time></trkpt><trkpt lat="45.6020883" lon="10.467975"><ele>434.50000000000006</ele><time>2026-05-01T09:46:35.476Z</time></trkpt><trkpt lat="45.6020417" lon="10.4679083"><ele>430.0</ele><time>2026-05-01T09:46:36.476Z</time></trkpt><trkpt lat="45.6019583" lon="10.4677767"><ele>425.5</ele><time>2026-05-01T09:46:38.476Z</time></trkpt><trkpt lat="45.6019167" lon="10.4677067"><ele>421.0</ele><time>2026-05-01T09:46:39.476Z</time></trkpt><trkpt lat="45.601875" lon="10.4676367"><ele>416.50000000000006</ele><time>2026-05-01T09:46:40.476Z</time></trkpt><trkpt lat="45.6018033" lon="10.467495"><ele>412.0</ele><time>2026-05-01T09:46:42.476Z</time></trkpt><trkpt lat="45.6017617" lon="10.4673667"><ele>421.25</ele><time>2026-05-01T09:46:44.477Z</time></trkpt><trkpt lat="45.6017183" lon="10.467145"><ele>430.5</ele><time>2026-05-01T09:46:52.476Z</time></trkpt><trkpt lat="45.60167" lon="10.4670767"><ele>439.75</ele><time>2026-05-01T09:46:55.476Z</time></trkpt><trkpt lat="45.6015733" lon="10.46694"><ele>449.0</ele><time>2026-05-01T09:50:37.476Z</time></trkpt><trkpt lat="45.601655" lon="10.4669833"><ele>448.99999999999994</ele><time>2026-05-01T09:55:18.477Z</time></trkpt><trkpt lat="45.6016567" lon="10.467125"><ele>449.0</ele><time>2026-05-01T10:04:20.477Z</time></trkpt><trkpt lat="45.6017483" lon="10.4671067"><ele>449.0</ele><time>2026-05-01T10:11:56.476Z</time></trkpt><trkpt lat="45.6017733" lon="10.4672083"><ele>449.0</ele><time>2026-05-01T10:12:52.475Z</time></trkpt><trkpt lat="45.6018033" lon="10.46732"><ele>448.99999999999994</ele><time>2026-05-01T10:12:55.475Z</time></trkpt><trkpt lat="45.601825" lon="10.467415"><ele>449.0</ele><time>2026-05-01T10:12:57.475Z</time></trkpt><trkpt lat="45.60185" lon="10.4675533"><ele>447.3333333333333</ele><time>2026-05-01T10:13:00.475Z</time></trkpt><trkpt lat="45.6018883" lon="10.4676583"><ele>445.66666666666663</ele><time>2026-05-01T10:13:02.475Z</time></trkpt><trkpt lat="45.6019133" lon="10.4677483"><ele>444.0</ele><time>2026-05-01T10:13:04.475Z</time></trkpt><trkpt lat="45.6019683" lon="10.4678083"><ele>442.33333333333337</ele><time>2026-05-01T10:13:06.475Z</time></trkpt><trkpt lat="45.6020367" lon="10.467885"><ele>440.6666666666667</ele><time>2026-05-01T10:13:08.475Z</time></trkpt><trkpt lat="45.602095" lon="10.4679383"><ele>439.0</ele><time>2026-05-01T10:13:10.475Z</time></trkpt><trkpt lat="45.60216" lon="10.468055"><ele>439.0</ele><time>2026-05-01T10:13:13.475Z</time></trkpt><trkpt lat="45.602215" lon="10.4681533"><ele>439.0</ele><time>2026-05-01T10:13:15.475Z</time></trkpt><trkpt lat="45.60226" lon="10.4682567"><ele>439.0</ele><time>2026-05-01T10:13:17.475Z</time></trkpt><trkpt lat="45.60232" lon="10.4683583"><ele>439.0</ele><time>2026-05-01T10:13:19.475Z</time></trkpt><trkpt lat="45.6023733" lon="10.46845"><ele>439.0</ele><time>2026-05-01T10:13:21.475Z</time></trkpt><trkpt lat="45.602425" lon="10.4685733"><ele>439.0</ele><time>2026-05-01T10:13:23.475Z</time></trkpt><trkpt lat="45.602475" lon="10.4687067"><ele>439.0</ele><time>2026-05-01T10:13:25.475Z</time></trkpt><trkpt lat="45.6025267" lon="10.4688433"><ele>439.0</ele><time>2026-05-01T10:13:27.475Z</time></trkpt><trkpt lat="45.6025633" lon="10.4689817"><ele>439.0</ele><time>2026-05-01T10:13:29.475Z</time></trkpt><trkpt lat="45.6025733" lon="10.469075"><ele>439.0</ele><time>2026-05-01T10:13:31.475Z</time></trkpt><trkpt lat="45.6025633" lon="10.46918"><ele>439.42857142857144</ele><time>2026-05-01T10:13:34.475Z</time></trkpt><trkpt lat="45.6025133" lon="10.4692433"><ele>439.85714285714283</ele><time>2026-05-01T10:13:36.475Z</time></trkpt><trkpt lat="45.6024617" lon="10.4692983"><ele>440.28571428571433</ele><time>2026-05-01T10:13:38.475Z</time></trkpt><trkpt lat="45.6024067" lon="10.4693533"><ele>440.7142857142857</ele><time>2026-05-01T10:13:40.475Z</time></trkpt><trkpt lat="45.60235" lon="10.46941"><ele>441.14285714285717</ele><time>2026-05-01T10:13:42.475Z</time></trkpt><trkpt lat="45.6022833" lon="10.4694717"><ele>441.5714285714286</ele><time>2026-05-01T10:13:44.475Z</time></trkpt><trkpt lat="45.6022217" lon="10.4695783"><ele>442.0</ele><time>2026-05-01T10:13:46.475Z</time></trkpt><trkpt lat="45.6021983" lon="10.4696967"><ele>439.50000000000006</ele><time>2026-05-01T10:13:48.475Z</time></trkpt><trkpt lat="45.6021983" lon="10.4698133"><ele>437.0</ele><time>2026-05-01T10:13:50.475Z</time></trkpt><trkpt lat="45.6022083" lon="10.4699133"><ele>434.5</ele><time>2026-05-01T10:13:52.475Z</time></trkpt><trkpt lat="45.6022083" lon="10.4700067"><ele>432.0</ele><time>2026-05-01T10:13:54.475Z</time></trkpt><trkpt lat="45.6022083" lon="10.4700983"><ele>429.50000000000006</ele><time>2026-05-01T10:13:56.475Z</time></trkpt><trkpt lat="45.6021717" lon="10.4702233"><ele>427.0</ele><time>2026-05-01T10:13:59.475Z</time></trkpt><trkpt lat="45.6021417" lon="10.4703333"><ele>424.83333333333337</ele><time>2026-05-01T10:14:01.475Z</time></trkpt><trkpt lat="45.60213" lon="10.4704667"><ele>422.6666666666667</ele><time>2026-05-01T10:14:03.475Z</time></trkpt><trkpt lat="45.6021417" lon="10.4705967"><ele>420.5</ele><time>2026-05-01T10:14:05.475Z</time></trkpt><trkpt lat="45.6021817" lon="10.4707367"><ele>418.33333333333337</ele><time>2026-05-01T10:14:07.475Z</time></trkpt><trkpt lat="45.6022133" lon="10.47085"><ele>416.1666666666667</ele><time>2026-05-01T10:14:09.475Z</time></trkpt><trkpt lat="45.602225" lon="10.4709417"><ele>414.0</ele><time>2026-05-01T10:14:11.475Z</time></trkpt><trkpt lat="45.602165" lon="10.4711783"><ele>414.0</ele><time>2026-05-01T10:14:26.475Z</time></trkpt><trkpt lat="45.6021417" lon="10.4712717"><ele>414.0</ele><time>2026-05-01T10:14:28.475Z</time></trkpt><trkpt lat="45.6020983" lon="10.471395"><ele>414.0</ele><time>2026-05-01T10:14:30.475Z</time></trkpt><trkpt lat="45.6020317" lon="10.471485"><ele>414.0</ele><time>2026-05-01T10:14:32.475Z</time></trkpt><trkpt lat="45.6019517" lon="10.47155"><ele>414.0</ele><time>2026-05-01T10:14:34.475Z</time></trkpt><trkpt lat="45.60188" lon="10.4716083"><ele>414.0</ele><time>2026-05-01T10:14:36.475Z</time></trkpt><trkpt lat="45.6017917" lon="10.47166"><ele>416.4</ele><time>2026-05-01T10:14:38.475Z</time></trkpt><trkpt lat="45.6017033" lon="10.4717217"><ele>418.79999999999995</ele><time>2026-05-01T10:14:40.475Z</time></trkpt><trkpt lat="45.601625" lon="10.4718217"><ele>421.20000000000005</ele><time>2026-05-01T10:14:42.475Z</time></trkpt><trkpt lat="45.6015733" lon="10.4719467"><ele>423.6</ele><time>2026-05-01T10:14:44.475Z</time></trkpt><trkpt lat="45.6015183" lon="10.472085"><ele>426.0</ele><time>2026-05-01T10:14:46.475Z</time></trkpt><trkpt lat="45.601505" lon="10.4722317"><ele>426.0</ele><time>2026-05-01T10:14:48.475Z</time></trkpt><trkpt lat="45.6014767" lon="10.4723417"><ele>426.0</ele><time>2026-05-01T10:14:50.475Z</time></trkpt><trkpt lat="45.6014317" lon="10.472405"><ele>426.0</ele><time>2026-05-01T10:14:52.475Z</time></trkpt><trkpt lat="45.601375" lon="10.4724633"><ele>426.0</ele><time>2026-05-01T10:14:54.475Z</time></trkpt><trkpt lat="45.60129" lon="10.4725767"><ele>426.0</ele><time>2026-05-01T10:14:56.475Z</time></trkpt><trkpt lat="45.6012317" lon="10.4726517"><ele>426.0</ele><time>2026-05-01T10:14:57.475Z</time></trkpt><trkpt lat="45.6011617" lon="10.4727317"><ele>426.1666666666667</ele><time>2026-05-01T10:14:58.475Z</time></trkpt><trkpt lat="45.6010917" lon="10.4728033"><ele>426.33333333333337</ele><time>2026-05-01T10:14:59.475Z</time></trkpt><trkpt lat="45.6010217" lon="10.47287"><ele>426.5</ele><time>2026-05-01T10:15:00.475Z</time></trkpt><trkpt lat="45.6009683" lon="10.4729267"><ele>426.6666666666667</ele><time>2026-05-01T10:15:01.475Z</time></trkpt><trkpt lat="45.6008633" lon="10.4730217"><ele>426.83333333333337</ele><time>2026-05-01T10:15:03.475Z</time></trkpt><trkpt lat="45.6008017" lon="10.47306"><ele>427.0</ele><time>2026-05-01T10:15:04.475Z</time></trkpt><trkpt lat="45.60074" lon="10.473085"><ele>427.0</ele><time>2026-05-01T10:15:05.475Z</time></trkpt><trkpt lat="45.600615" lon="10.473135"><ele>427.0</ele><time>2026-05-01T10:15:07.475Z</time></trkpt><trkpt lat="45.6005067" lon="10.473225"><ele>427.0</ele><time>2026-05-01T10:15:09.475Z</time></trkpt><trkpt lat="45.6004483" lon="10.4733367"><ele>427.0</ele><time>2026-05-01T10:15:11.475Z</time></trkpt><trkpt lat="45.600385" lon="10.47346"><ele>429.8</ele><time>2026-05-01T10:15:13.475Z</time></trkpt><trkpt lat="45.600315" lon="10.4735617"><ele>432.6</ele><time>2026-05-01T10:15:15.475Z</time></trkpt><trkpt lat="45.6002367" lon="10.4736367"><ele>435.40000000000003</ele><time>2026-05-01T10:15:17.475Z</time></trkpt><trkpt lat="45.6001467" lon="10.4736517"><ele>438.20000000000005</ele><time>2026-05-01T10:15:20.475Z</time></trkpt><trkpt lat="45.6000833" lon="10.473635"><ele>441.0</ele><time>2026-05-01T10:15:22.475Z</time></trkpt><trkpt lat="45.59998" lon="10.473645"><ele>441.0</ele><time>2026-05-01T10:15:25.475Z</time></trkpt><trkpt lat="45.5998717" lon="10.473705"><ele>441.0</ele><time>2026-05-01T10:15:27.475Z</time></trkpt><trkpt lat="45.599755" lon="10.4737583"><ele>441.0</ele><time>2026-05-01T10:15:29.475Z</time></trkpt><trkpt lat="45.5996317" lon="10.4737767"><ele>441.0</ele><time>2026-05-01T10:15:31.475Z</time></trkpt><trkpt lat="45.5995633" lon="10.4737833"><ele>441.0</ele><time>2026-05-01T10:15:32.475Z</time></trkpt><trkpt lat="45.5994933" lon="10.47379"><ele>432.4</ele><time>2026-05-01T10:15:33.475Z</time></trkpt><trkpt lat="45.5994283" lon="10.4737817"><ele>423.8</ele><time>2026-05-01T10:15:34.475Z</time></trkpt><trkpt lat="45.5993183" lon="10.4737917"><ele>415.2</ele><time>2026-05-01T10:15:36.475Z</time></trkpt><trkpt lat="45.5992083" lon="10.4738083"><ele>406.59999999999997</ele><time>2026-05-01T10:15:38.475Z</time></trkpt><trkpt lat="45.5990967" lon="10.473815"><ele>398.0</ele><time>2026-05-01T10:15:40.476Z</time></trkpt><trkpt lat="45.5990167" lon="10.4738483"><ele>397.99999999999994</ele><time>2026-05-01T10:15:42.475Z</time></trkpt><trkpt lat="45.5989617" lon="10.4737933"><ele>398.0</ele><time>2026-05-01T10:16:01.475Z</time></trkpt><trkpt lat="45.5989067" lon="10.4737467"><ele>398.0</ele><time>2026-05-01T10:16:02.475Z</time></trkpt><trkpt lat="45.598825" lon="10.4737083"><ele>398.0</ele><time>2026-05-01T10:16:03.475Z</time></trkpt><trkpt lat="45.59874" lon="10.4736633"><ele>397.99999999999994</ele><time>2026-05-01T10:16:04.475Z</time></trkpt><trkpt lat="45.5986583" lon="10.473635"><ele>398.0</ele><time>2026-05-01T10:16:05.475Z</time></trkpt><trkpt lat="45.598575" lon="10.473595"><ele>400.79999999999995</ele><time>2026-05-01T10:16:07.475Z</time></trkpt><trkpt lat="45.5985283" lon="10.4735217"><ele>403.6</ele><time>2026-05-01T10:16:26.475Z</time></trkpt><trkpt lat="45.5984667" lon="10.4733883"><ele>406.4</ele><time>2026-05-01T10:16:28.475Z</time></trkpt><trkpt lat="45.5984367" lon="10.473265"><ele>409.20000000000005</ele><time>2026-05-01T10:16:30.475Z</time></trkpt><trkpt lat="45.598385" lon="10.4731233"><ele>412.0</ele><time>2026-05-01T10:16:32.475Z</time></trkpt><trkpt lat="45.598355" lon="10.4729633"><ele>414.1666666666667</ele><time>2026-05-01T10:16:34.475Z</time></trkpt><trkpt lat="45.598345" lon="10.4728683"><ele>416.33333333333337</ele><time>2026-05-01T10:16:35.475Z</time></trkpt><trkpt lat="45.5983433" lon="10.4727683"><ele>418.5</ele><time>2026-05-01T10:16:36.475Z</time></trkpt><trkpt lat="45.59835" lon="10.4726717"><ele>420.66666666666663</ele><time>2026-05-01T10:16:37.475Z</time></trkpt><trkpt lat="45.5983617" lon="10.4725817"><ele>422.8333333333333</ele><time>2026-05-01T10:16:38.475Z</time></trkpt><trkpt lat="45.59838" lon="10.4724433"><ele>425.0</ele><time>2026-05-01T10:16:40.475Z</time></trkpt><trkpt lat="45.5983767" lon="10.4722917"><ele>425.0</ele><time>2026-05-01T10:16:42.475Z</time></trkpt><trkpt lat="45.5984067" lon="10.472135"><ele>425.0</ele><time>2026-05-01T10:16:44.475Z</time></trkpt><trkpt lat="45.5984667" lon="10.47199"><ele>425.0</ele><time>2026-05-01T10:16:46.475Z</time></trkpt><trkpt lat="45.5985533" lon="10.471875"><ele>425.0</ele><time>2026-05-01T10:16:48.475Z</time></trkpt><trkpt lat="45.59864" lon="10.4717683"><ele>426.99999999999994</ele><time>2026-05-01T10:16:50.476Z</time></trkpt><trkpt lat="45.59868" lon="10.4716833"><ele>429.0</ele><time>2026-05-01T10:16:51.475Z</time></trkpt><trkpt lat="45.5987067" lon="10.4716017"><ele>431.0</ele><time>2026-05-01T10:16:52.475Z</time></trkpt><trkpt lat="45.5987217" lon="10.4714267"><ele>433.0</ele><time>2026-05-01T10:16:54.475Z</time></trkpt><trkpt lat="45.5987067" lon="10.471325"><ele>434.99999999999994</ele><time>2026-05-01T10:16:55.475Z</time></trkpt><trkpt lat="45.5986683" lon="10.4712217"><ele>437.0</ele><time>2026-05-01T10:16:56.475Z</time></trkpt><trkpt lat="45.5986333" lon="10.4711317"><ele>436.99999999999994</ele><time>2026-05-01T10:16:57.475Z</time></trkpt><trkpt lat="45.5986033" lon="10.471035"><ele>437.0</ele><time>2026-05-01T10:16:58.475Z</time></trkpt><trkpt lat="45.598575" lon="10.4709367"><ele>437.0</ele><time>2026-05-01T10:16:59.475Z</time></trkpt><trkpt lat="45.5985517" lon="10.47083"><ele>437.0</ele><time>2026-05-01T10:17:00.475Z</time></trkpt><trkpt lat="45.5985367" lon="10.470735"><ele>436.99999999999994</ele><time>2026-05-01T10:17:01.475Z</time></trkpt><trkpt lat="45.59853" lon="10.4705983"><ele>437.0</ele><time>2026-05-01T10:17:03.475Z</time></trkpt><trkpt lat="45.5984783" lon="10.47052"><ele>438.8</ele><time>2026-05-01T10:17:14.475Z</time></trkpt><trkpt lat="45.5984733" lon="10.4703667"><ele>440.6</ele><time>2026-05-01T10:17:16.475Z</time></trkpt><trkpt lat="45.5984783" lon="10.4702567"><ele>442.40000000000003</ele><time>2026-05-01T10:17:17.475Z</time></trkpt><trkpt lat="45.598475" lon="10.47012"><ele>444.20000000000005</ele><time>2026-05-01T10:17:18.475Z</time></trkpt><trkpt lat="45.598465" lon="10.4699633"><ele>446.0</ele><time>2026-05-01T10:17:19.475Z</time></trkpt><trkpt lat="45.598455" lon="10.4697833"><ele>447.20000000000005</ele><time>2026-05-01T10:17:20.475Z</time></trkpt><trkpt lat="45.5984333" lon="10.4695883"><ele>448.40000000000003</ele><time>2026-05-01T10:17:21.475Z</time></trkpt><trkpt lat="45.598415" lon="10.4694233"><ele>449.6</ele><time>2026-05-01T10:17:22.475Z</time></trkpt><trkpt lat="45.5984017" lon="10.4692833"><ele>450.8</ele><time>2026-05-01T10:17:23.475Z</time></trkpt><trkpt lat="45.5983917" lon="10.469155"><ele>452.0</ele><time>2026-05-01T10:17:24.475Z</time></trkpt><trkpt lat="45.5983967" lon="10.469025"><ele>451.99999999999994</ele><time>2026-05-01T10:17:25.476Z</time></trkpt><trkpt lat="45.59841" lon="10.468885"><ele>452.0</ele><time>2026-05-01T10:17:26.476Z</time></trkpt><trkpt lat="45.5984233" lon="10.4687617"><ele>452.0</ele><time>2026-05-01T10:17:27.475Z</time></trkpt><trkpt lat="45.5984517" lon="10.4686683"><ele>452.0</ele><time>2026-05-01T10:17:28.475Z</time></trkpt><trkpt lat="45.59851" lon="10.4685883"><ele>451.99999999999994</ele><time>2026-05-01T10:17:29.475Z</time></trkpt><trkpt lat="45.59857" lon="10.4685"><ele>452.0</ele><time>2026-05-01T10:17:30.475Z</time></trkpt><trkpt lat="45.598635" lon="10.4684117"><ele>455.16666666666663</ele><time>2026-05-01T10:17:31.476Z</time></trkpt><trkpt lat="45.598695" lon="10.4683383"><ele>458.3333333333333</ele><time>2026-05-01T10:17:32.475Z</time></trkpt><trkpt lat="45.5987517" lon="10.4682867"><ele>461.5</ele><time>2026-05-01T10:17:34.476Z</time></trkpt><trkpt lat="45.5988367" lon="10.4682467"><ele>464.66666666666663</ele><time>2026-05-01T10:17:47.475Z</time></trkpt><trkpt lat="45.5989267" lon="10.4682233"><ele>467.8333333333333</ele><time>2026-05-01T10:17:49.475Z</time></trkpt><trkpt lat="45.5989933" lon="10.4682167"><ele>471.0</ele><time>2026-05-01T10:17:50.475Z</time></trkpt><trkpt lat="45.59906" lon="10.46821"><ele>471.0</ele><time>2026-05-01T10:17:51.475Z</time></trkpt><trkpt lat="45.5991817" lon="10.4681833"><ele>471.0</ele><time>2026-05-01T10:17:53.474Z</time></trkpt><trkpt lat="45.5992783" lon="10.4680883"><ele>471.0</ele><time>2026-05-01T10:17:55.475Z</time></trkpt><trkpt lat="45.59935" lon="10.467955"><ele>471.0</ele><time>2026-05-01T10:17:57.476Z</time></trkpt><trkpt lat="45.599385" lon="10.46783"><ele>473.0</ele><time>2026-05-01T10:17:59.475Z</time></trkpt><trkpt lat="45.5994133" lon="10.4676533"><ele>475.0</ele><time>2026-05-01T10:18:09.475Z</time></trkpt><trkpt lat="45.59949" lon="10.4675617"><ele>477.0</ele><time>2026-05-01T10:18:11.475Z</time></trkpt><trkpt lat="45.59955" lon="10.4674983"><ele>479.0</ele><time>2026-05-01T10:18:12.475Z</time></trkpt><trkpt lat="45.5996133" lon="10.467445"><ele>481.0</ele><time>2026-05-01T10:18:13.475Z</time></trkpt><trkpt lat="45.5996717" lon="10.4673983"><ele>483.0</ele><time>2026-05-01T10:18:14.475Z</time></trkpt><trkpt lat="45.5997383" lon="10.4672917"><ele>483.0</ele><time>2026-05-01T10:18:16.475Z</time></trkpt><trkpt lat="45.5997933" lon="10.4671617"><ele>482.99999999999994</ele><time>2026-05-01T10:18:18.475Z</time></trkpt><trkpt lat="45.5998267" lon="10.4670367"><ele>482.99999999999994</ele><time>2026-05-01T10:18:20.475Z</time></trkpt><trkpt lat="45.5998433" lon="10.4669033"><ele>483.0</ele><time>2026-05-01T10:18:22.475Z</time></trkpt><trkpt lat="45.5998267" lon="10.4667667"><ele>483.0</ele><time>2026-05-01T10:18:24.475Z</time></trkpt><trkpt lat="45.599795" lon="10.46663"><ele>481.59999999999997</ele><time>2026-05-01T10:18:26.475Z</time></trkpt><trkpt lat="45.599765" lon="10.4664967"><ele>480.19999999999993</ele><time>2026-05-01T10:18:28.475Z</time></trkpt><trkpt lat="45.599735" lon="10.466415"><ele>478.8</ele><time>2026-05-01T10:18:29.475Z</time></trkpt><trkpt lat="45.5997" lon="10.4663217"><ele>477.4</ele><time>2026-05-01T10:18:30.475Z</time></trkpt><trkpt lat="45.59963" lon="10.46615"><ele>476.0</ele><time>2026-05-01T10:18:32.475Z</time></trkpt><trkpt lat="45.5995883" lon="10.4660517"><ele>474.66666666666663</ele><time>2026-05-01T10:18:33.475Z</time></trkpt><trkpt lat="45.5995517" lon="10.46595"><ele>473.3333333333333</ele><time>2026-05-01T10:18:34.475Z</time></trkpt><trkpt lat="45.599505" lon="10.4658467"><ele>472.0</ele><time>2026-05-01T10:18:35.475Z</time></trkpt><trkpt lat="45.599465" lon="10.4657483"><ele>470.66666666666663</ele><time>2026-05-01T10:18:36.475Z</time></trkpt><trkpt lat="45.5994117" lon="10.4656167"><ele>469.3333333333333</ele><time>2026-05-01T10:18:38.475Z</time></trkpt><trkpt lat="45.5993967" lon="10.465525"><ele>468.0</ele><time>2026-05-01T10:18:40.475Z</time></trkpt><trkpt lat="45.5994667" lon="10.4656633"><ele>468.0</ele><time>2026-05-01T10:19:29.475Z</time></trkpt><trkpt lat="45.5995" lon="10.4657433"><ele>468.00000000000006</ele><time>2026-05-01T10:19:30.475Z</time></trkpt><trkpt lat="45.5995317" lon="10.4658333"><ele>468.0</ele><time>2026-05-01T10:19:31.475Z</time></trkpt><trkpt lat="45.599565" lon="10.4659267"><ele>468.0</ele><time>2026-05-01T10:19:32.475Z</time></trkpt><trkpt lat="45.5995983" lon="10.4660233"><ele>468.00000000000006</ele><time>2026-05-01T10:19:33.475Z</time></trkpt><trkpt lat="45.5996333" lon="10.4661233"><ele>468.0</ele><time>2026-05-01T10:19:34.475Z</time></trkpt><trkpt lat="45.5996683" lon="10.46622"><ele>468.0</ele><time>2026-05-01T10:19:35.475Z</time></trkpt><trkpt lat="45.5997067" lon="10.4663083"><ele>469.3333333333333</ele><time>2026-05-01T10:19:36.475Z</time></trkpt><trkpt lat="45.5997483" lon="10.4663883"><ele>470.66666666666663</ele><time>2026-05-01T10:19:37.475Z</time></trkpt><trkpt lat="45.5998" lon="10.4665183"><ele>472.0</ele><time>2026-05-01T10:19:39.475Z</time></trkpt><trkpt lat="45.5998317" lon="10.4666533"><ele>473.3333333333333</ele><time>2026-05-01T10:19:41.475Z</time></trkpt><trkpt lat="45.5998467" lon="10.46678"><ele>474.66666666666663</ele><time>2026-05-01T10:19:43.475Z</time></trkpt><trkpt lat="45.5998533" lon="10.4668867"><ele>476.0</ele><time>2026-05-01T10:19:45.475Z</time></trkpt><trkpt lat="45.599855" lon="10.4670167"><ele>475.99999999999994</ele><time>2026-05-01T10:19:48.475Z</time></trkpt><trkpt lat="45.599825" lon="10.46711"><ele>476.0</ele><time>2026-05-01T10:19:50.475Z</time></trkpt><trkpt lat="45.5997433" lon="10.467255"><ele>476.0</ele><time>2026-05-01T10:19:52.475Z</time></trkpt><trkpt lat="45.59968" lon="10.4673483"><ele>476.0</ele><time>2026-05-01T10:19:53.475Z</time></trkpt><trkpt lat="45.5996217" lon="10.467425"><ele>475.99999999999994</ele><time>2026-05-01T10:19:54.475Z</time></trkpt><trkpt lat="45.5995767" lon="10.467495"><ele>476.0</ele><time>2026-05-01T10:19:55.475Z</time></trkpt><trkpt lat="45.5995217" lon="10.4676433"><ele>475.0</ele><time>2026-05-01T10:19:57.475Z</time></trkpt><trkpt lat="45.5994833" lon="10.4677333"><ele>474.0</ele><time>2026-05-01T10:19:58.476Z</time></trkpt><trkpt lat="45.599445" lon="10.4678217"><ele>473.0</ele><time>2026-05-01T10:19:59.475Z</time></trkpt><trkpt lat="45.59938" lon="10.4679483"><ele>472.0</ele><time>2026-05-01T10:20:01.475Z</time></trkpt><trkpt lat="45.5992833" lon="10.4680467"><ele>471.0</ele><time>2026-05-01T10:20:03.475Z</time></trkpt><trkpt lat="45.5992167" lon="10.4680983"><ele>471.0</ele><time>2026-05-01T10:20:04.475Z</time></trkpt><trkpt lat="45.59914" lon="10.46814"><ele>471.0</ele><time>2026-05-01T10:20:05.475Z</time></trkpt><trkpt lat="45.5990533" lon="10.4681733"><ele>471.0</ele><time>2026-05-01T10:20:06.475Z</time></trkpt><trkpt lat="45.5989733" lon="10.4681967"><ele>471.0</ele><time>2026-05-01T10:20:07.475Z</time></trkpt><trkpt lat="45.5989117" lon="10.4682267"><ele>471.0</ele><time>2026-05-01T10:20:08.475Z</time></trkpt><trkpt lat="45.5988383" lon="10.46827"><ele>471.0</ele><time>2026-05-01T10:20:10.475Z</time></trkpt><trkpt lat="45.5988967" lon="10.46833"><ele>471.0</ele><time>2026-05-01T10:20:15.475Z</time></trkpt><trkpt lat="45.599" lon="10.4683183"><ele>471.0</ele><time>2026-05-01T10:20:17.475Z</time></trkpt><trkpt lat="45.5990833" lon="10.4683217"><ele>471.0</ele><time>2026-05-01T10:20:18.475Z</time></trkpt><trkpt lat="45.5991783" lon="10.4683367"><ele>471.0</ele><time>2026-05-01T10:20:19.475Z</time></trkpt><trkpt lat="45.5992683" lon="10.4683617"><ele>471.0</ele><time>2026-05-01T10:20:20.475Z</time></trkpt><trkpt lat="45.59935" lon="10.4683983"><ele>471.0</ele><time>2026-05-01T10:20:21.475Z</time></trkpt><trkpt lat="45.5994267" lon="10.4684467"><ele>471.0</ele><time>2026-05-01T10:20:22.475Z</time></trkpt><trkpt lat="45.5994933" lon="10.4684717"><ele>471.0</ele><time>2026-05-01T10:20:23.475Z</time></trkpt><trkpt lat="45.5995583" lon="10.4684817"><ele>471.0</ele><time>2026-05-01T10:20:24.475Z</time></trkpt><trkpt lat="45.5996717" lon="10.468445"><ele>471.0</ele><time>2026-05-01T10:20:26.475Z</time></trkpt><trkpt lat="45.59972" lon="10.4683867"><ele>471.0</ele><time>2026-05-01T10:20:27.475Z</time></trkpt><trkpt lat="45.59979" lon="10.4682767"><ele>473.4</ele><time>2026-05-01T10:20:29.475Z</time></trkpt><trkpt lat="45.599845" lon="10.46818"><ele>475.8</ele><time>2026-05-01T10:20:31.475Z</time></trkpt><trkpt lat="45.599915" lon="10.4680483"><ele>478.19999999999993</ele><time>2026-05-01T10:20:33.475Z</time></trkpt><trkpt lat="45.6" lon="10.4678983"><ele>480.59999999999997</ele><time>2026-05-01T10:20:35.475Z</time></trkpt><trkpt lat="45.6000417" lon="10.467795"><ele>483.0</ele><time>2026-05-01T10:20:36.475Z</time></trkpt><trkpt lat="45.6000767" lon="10.4677083"><ele>483.0</ele><time>2026-05-01T10:20:37.475Z</time></trkpt><trkpt lat="45.600105" lon="10.4676233"><ele>483.0</ele><time>2026-05-01T10:20:38.476Z</time></trkpt><trkpt lat="45.600125" lon="10.467535"><ele>483.0</ele><time>2026-05-01T10:20:39.475Z</time></trkpt><trkpt lat="45.6001667" lon="10.467435"><ele>483.0</ele><time>2026-05-01T10:20:41.475Z</time></trkpt><trkpt lat="45.6002267" lon="10.4673883"><ele>483.0</ele><time>2026-05-01T10:20:44.475Z</time></trkpt><trkpt lat="45.6002717" lon="10.467505"><ele>483.0</ele><time>2026-05-01T10:20:46.475Z</time></trkpt><trkpt lat="45.6003" lon="10.4676067"><ele>483.0</ele><time>2026-05-01T10:20:47.475Z</time></trkpt><trkpt lat="45.6003133" lon="10.4677217"><ele>483.0</ele><time>2026-05-01T10:20:48.475Z</time></trkpt><trkpt lat="45.600315" lon="10.4678533"><ele>483.0</ele><time>2026-05-01T10:20:49.475Z</time></trkpt><trkpt lat="45.6002967" lon="10.4679867"><ele>483.0</ele><time>2026-05-01T10:20:50.475Z</time></trkpt><trkpt lat="45.6002867" lon="10.4680983"><ele>483.0</ele><time>2026-05-01T10:20:51.475Z</time></trkpt><trkpt lat="45.6002817" lon="10.4682"><ele>483.0</ele><time>2026-05-01T10:20:52.475Z</time></trkpt><trkpt lat="45.6002833" lon="10.4682933"><ele>485.0</ele><time>2026-05-01T10:20:53.475Z</time></trkpt><trkpt lat="45.6003" lon="10.468385"><ele>487.0</ele><time>2026-05-01T10:20:54.475Z</time></trkpt><trkpt lat="45.600305" lon="10.4684933"><ele>489.0</ele><time>2026-05-01T10:20:55.475Z</time></trkpt><trkpt lat="45.6003083" lon="10.468605"><ele>491.0</ele><time>2026-05-01T10:20:56.475Z</time></trkpt><trkpt lat="45.6003167" lon="10.4687183"><ele>493.0</ele><time>2026-05-01T10:20:57.475Z</time></trkpt><trkpt lat="45.6003233" lon="10.46882"><ele>495.0</ele><time>2026-05-01T10:20:58.475Z</time></trkpt><trkpt lat="45.60033" lon="10.46891"><ele>497.0</ele><time>2026-05-01T10:20:59.475Z</time></trkpt><trkpt lat="45.6003433" lon="10.46907"><ele>501.0</ele><time>2026-05-01T10:21:01.475Z</time></trkpt><trkpt lat="45.6002617" lon="10.469205"><ele>505.00000000000006</ele><time>2026-05-01T10:21:03.475Z</time></trkpt><trkpt lat="45.6001633" lon="10.4692933"><ele>509.00000000000006</ele><time>2026-05-01T10:21:04.475Z</time></trkpt><trkpt lat="45.60006" lon="10.4693833"><ele>513.0</ele><time>2026-05-01T10:21:05.475Z</time></trkpt><trkpt lat="45.599985" lon="10.4694233"><ele>517.0</ele><time>2026-05-01T10:21:06.475Z</time></trkpt><trkpt lat="45.5999233" lon="10.4694833"><ele>517.0</ele><time>2026-05-01T10:21:07.475Z</time></trkpt><trkpt lat="45.5998617" lon="10.4695517"><ele>517.0</ele><time>2026-05-01T10:21:08.475Z</time></trkpt><trkpt lat="45.5998083" lon="10.4696217"><ele>517.0</ele><time>2026-05-01T10:21:09.475Z</time></trkpt><trkpt lat="45.599765" lon="10.4697"><ele>517.0</ele><time>2026-05-01T10:21:10.475Z</time></trkpt><trkpt lat="45.5997267" lon="10.46978"><ele>517.0</ele><time>2026-05-01T10:21:11.475Z</time></trkpt><trkpt lat="45.5997083" lon="10.46991"><ele>517.0</ele><time>2026-05-01T10:21:13.475Z</time></trkpt><trkpt lat="45.5998033" lon="10.4698433"><ele>520.1666666666667</ele><time>2026-05-01T10:21:19.475Z</time></trkpt><trkpt lat="45.59988" lon="10.4697917"><ele>523.3333333333334</ele><time>2026-05-01T10:21:20.475Z</time></trkpt><trkpt lat="45.599955" lon="10.469745"><ele>526.5</ele><time>2026-05-01T10:21:21.475Z</time></trkpt><trkpt lat="45.600035" lon="10.46972"><ele>529.6666666666666</ele><time>2026-05-01T10:21:22.476Z</time></trkpt><trkpt lat="45.60011" lon="10.469705"><ele>532.8333333333333</ele><time>2026-05-01T10:21:23.475Z</time></trkpt><trkpt lat="45.600175" lon="10.4696917"><ele>536.0</ele><time>2026-05-01T10:21:24.475Z</time></trkpt><trkpt lat="45.60024" lon="10.469665"><ele>536.0</ele><time>2026-05-01T10:21:25.475Z</time></trkpt><trkpt lat="45.6003" lon="10.4696333"><ele>536.0</ele><time>2026-05-01T10:21:26.476Z</time></trkpt><trkpt lat="45.6003817" lon="10.46957"><ele>536.0</ele><time>2026-05-01T10:21:28.476Z</time></trkpt><trkpt lat="45.6004333" lon="10.4695067"><ele>536.0</ele><time>2026-05-01T10:22:34.475Z</time></trkpt><trkpt lat="45.60051" lon="10.4694317"><ele>536.0</ele><time>2026-05-01T10:22:35.475Z</time></trkpt><trkpt lat="45.6005583" lon="10.4693367"><ele>536.0</ele><time>2026-05-01T10:23:06.475Z</time></trkpt><trkpt lat="45.6005183" lon="10.4694567"><ele>536.0</ele><time>2026-05-01T10:23:15.475Z</time></trkpt><trkpt lat="45.6004467" lon="10.4695633"><ele>536.0</ele><time>2026-05-01T10:23:17.475Z</time></trkpt><trkpt lat="45.6003917" lon="10.4696117"><ele>536.0</ele><time>2026-05-01T10:23:18.476Z</time></trkpt><trkpt lat="45.6003233" lon="10.4696517"><ele>536.0</ele><time>2026-05-01T10:23:19.475Z</time></trkpt><trkpt lat="45.6002517" lon="10.4696867"><ele>536.0</ele><time>2026-05-01T10:23:20.475Z</time></trkpt><trkpt lat="45.6001617" lon="10.469725"><ele>536.0</ele><time>2026-05-01T10:23:21.476Z</time></trkpt><trkpt lat="45.60008" lon="10.46976"><ele>536.0</ele><time>2026-05-01T10:23:22.475Z</time></trkpt><trkpt lat="45.6000167" lon="10.4697967"><ele>536.0</ele><time>2026-05-01T10:23:23.475Z</time></trkpt><trkpt lat="45.5999217" lon="10.46988"><ele>536.0</ele><time>2026-05-01T10:23:25.475Z</time></trkpt><trkpt lat="45.5998567" lon="10.469985"><ele>536.0</ele><time>2026-05-01T10:23:27.475Z</time></trkpt><trkpt lat="45.5998083" lon="10.4700467"><ele>536.0</ele><time>2026-05-01T10:23:29.475Z</time></trkpt><trkpt lat="45.5997433" lon="10.4700333"><ele>536.0</ele><time>2026-05-01T10:23:31.475Z</time></trkpt><trkpt lat="45.59969" lon="10.4699417"><ele>536.0</ele><time>2026-05-01T10:23:33.475Z</time></trkpt><trkpt lat="45.59968" lon="10.4698133"><ele>536.0</ele><time>2026-05-01T10:23:35.475Z</time></trkpt><trkpt lat="45.599725" lon="10.46969"><ele>536.0</ele><time>2026-05-01T10:23:37.475Z</time></trkpt><trkpt lat="45.5998233" lon="10.46962"><ele>536.0</ele><time>2026-05-01T10:23:39.475Z</time></trkpt><trkpt lat="45.5998933" lon="10.4695917"><ele>536.0</ele><time>2026-05-01T10:23:40.475Z</time></trkpt><trkpt lat="45.5999633" lon="10.4695433"><ele>536.0</ele><time>2026-05-01T10:23:41.475Z</time></trkpt><trkpt lat="45.6000267" lon="10.4694967"><ele>531.25</ele><time>2026-05-01T10:23:42.475Z</time></trkpt><trkpt lat="45.600135" lon="10.4694367"><ele>526.5</ele><time>2026-05-01T10:23:44.475Z</time></trkpt><trkpt lat="45.6001967" lon="10.4693217"><ele>521.75</ele><time>2026-05-01T10:23:46.475Z</time></trkpt><trkpt lat="45.6002367" lon="10.469155"><ele>517.0</ele><time>2026-05-01T10:23:48.476Z</time></trkpt><trkpt lat="45.600225" lon="10.4689667"><ele>517.0</ele><time>2026-05-01T10:23:50.475Z</time></trkpt><trkpt lat="45.6002167" lon="10.4688567"><ele>517.0</ele><time>2026-05-01T10:23:51.475Z</time></trkpt><trkpt lat="45.6002083" lon="10.4687433"><ele>517.0</ele><time>2026-05-01T10:23:52.475Z</time></trkpt><trkpt lat="45.6002" lon="10.4686283"><ele>517.0</ele><time>2026-05-01T10:23:53.475Z</time></trkpt><trkpt lat="45.600195" lon="10.4685283"><ele>517.0</ele><time>2026-05-01T10:23:54.475Z</time></trkpt><trkpt lat="45.6001967" lon="10.4683583"><ele>517.0</ele><time>2026-05-01T10:23:56.475Z</time></trkpt><trkpt lat="45.60024" lon="10.4681983"><ele>515.8333333333334</ele><time>2026-05-01T10:23:58.475Z</time></trkpt><trkpt lat="45.6003" lon="10.4680433"><ele>514.6666666666667</ele><time>2026-05-01T10:24:00.476Z</time></trkpt><trkpt lat="45.6003317" lon="10.4679583"><ele>513.5</ele><time>2026-05-01T10:24:01.475Z</time></trkpt><trkpt lat="45.6003567" lon="10.467865"><ele>512.3333333333334</ele><time>2026-05-01T10:24:02.475Z</time></trkpt><trkpt lat="45.6003767" lon="10.46777"><ele>511.1666666666667</ele><time>2026-05-01T10:24:03.475Z</time></trkpt><trkpt lat="45.60037" lon="10.46767"><ele>510.0</ele><time>2026-05-01T10:24:04.475Z</time></trkpt><trkpt lat="45.6003533" lon="10.4675783"><ele>505.5</ele><time>2026-05-01T10:24:05.475Z</time></trkpt><trkpt lat="45.60032" lon="10.46743"><ele>501.0</ele><time>2026-05-01T10:24:07.475Z</time></trkpt><trkpt lat="45.60021" lon="10.4673817"><ele>496.5</ele><time>2026-05-01T10:24:20.475Z</time></trkpt><trkpt lat="45.60017" lon="10.4674717"><ele>492.0</ele><time>2026-05-01T10:24:22.475Z</time></trkpt><trkpt lat="45.6001367" lon="10.4675533"><ele>487.5</ele><time>2026-05-01T10:24:23.475Z</time></trkpt><trkpt lat="45.60009" lon="10.4676433"><ele>483.0</ele><time>2026-05-01T10:24:24.475Z</time></trkpt><trkpt lat="45.6000383" lon="10.4677167"><ele>483.0</ele><time>2026-05-01T10:24:25.475Z</time></trkpt><trkpt lat="45.5999717" lon="10.4677867"><ele>483.0</ele><time>2026-05-01T10:24:26.475Z</time></trkpt><trkpt lat="45.5999" lon="10.4678433"><ele>483.0</ele><time>2026-05-01T10:24:27.475Z</time></trkpt><trkpt lat="45.599845" lon="10.4679"><ele>483.0</ele><time>2026-05-01T10:24:28.475Z</time></trkpt><trkpt lat="45.599775" lon="10.46803"><ele>483.0</ele><time>2026-05-01T10:24:30.475Z</time></trkpt><trkpt lat="45.599745" lon="10.4681267"><ele>483.0</ele><time>2026-05-01T10:24:31.475Z</time></trkpt><trkpt lat="45.5997133" lon="10.4682167"><ele>480.59999999999997</ele><time>2026-05-01T10:24:32.475Z</time></trkpt><trkpt lat="45.5996517" lon="10.4683583"><ele>478.19999999999993</ele><time>2026-05-01T10:24:34.475Z</time></trkpt><trkpt lat="45.59958" lon="10.4684467"><ele>475.8</ele><time>2026-05-01T10:24:36.475Z</time></trkpt><trkpt lat="45.59948" lon="10.468465"><ele>473.4</ele><time>2026-05-01T10:24:38.475Z</time></trkpt><trkpt lat="45.599415" lon="10.4684433"><ele>471.0</ele><time>2026-05-01T10:24:39.475Z</time></trkpt><trkpt lat="45.5993367" lon="10.46841"><ele>471.0</ele><time>2026-05-01T10:24:40.475Z</time></trkpt><trkpt lat="45.5992467" lon="10.4683833"><ele>471.0</ele><time>2026-05-01T10:24:41.475Z</time></trkpt><trkpt lat="45.599155" lon="10.46836"><ele>471.0</ele><time>2026-05-01T10:24:42.475Z</time></trkpt><trkpt lat="45.5990767" lon="10.4683533"><ele>471.0</ele><time>2026-05-01T10:24:43.475Z</time></trkpt><trkpt lat="45.5990117" lon="10.46835"><ele>471.0</ele><time>2026-05-01T10:24:44.475Z</time></trkpt><trkpt lat="45.5989483" lon="10.4683467"><ele>471.0</ele><time>2026-05-01T10:24:45.476Z</time></trkpt><trkpt lat="45.598875" lon="10.4683383"><ele>471.0</ele><time>2026-05-01T10:24:46.476Z</time></trkpt><trkpt lat="45.5988117" lon="10.4683333"><ele>471.0</ele><time>2026-05-01T10:24:47.475Z</time></trkpt><trkpt lat="45.5987483" lon="10.4683367"><ele>471.0</ele><time>2026-05-01T10:24:48.475Z</time></trkpt><trkpt lat="45.5986467" lon="10.4683917"><ele>471.0</ele><time>2026-05-01T10:24:50.476Z</time></trkpt><trkpt lat="45.5985517" lon="10.4684817"><ele>471.0</ele><time>2026-05-01T10:24:52.475Z</time></trkpt><trkpt lat="45.5984667" lon="10.4685583"><ele>467.20000000000005</ele><time>2026-05-01T10:24:54.475Z</time></trkpt><trkpt lat="45.5984133" lon="10.4686517"><ele>463.40000000000003</ele><time>2026-05-01T10:24:56.475Z</time></trkpt><trkpt lat="45.5983867" lon="10.46877"><ele>459.6</ele><time>2026-05-01T10:24:58.475Z</time></trkpt><trkpt lat="45.5983767" lon="10.468915"><ele>455.8</ele><time>2026-05-01T10:25:00.475Z</time></trkpt><trkpt lat="45.5983967" lon="10.46906"><ele>452.0</ele><time>2026-05-01T10:25:02.475Z</time></trkpt><trkpt lat="45.598415" lon="10.469215"><ele>452.0</ele><time>2026-05-01T10:25:04.475Z</time></trkpt><trkpt lat="45.598445" lon="10.4693817"><ele>452.00000000000006</ele><time>2026-05-01T10:25:06.475Z</time></trkpt><trkpt lat="45.5984567" lon="10.4695583"><ele>452.00000000000006</ele><time>2026-05-01T10:25:08.475Z</time></trkpt><trkpt lat="45.59846" lon="10.4696633"><ele>452.0</ele><time>2026-05-01T10:25:09.475Z</time></trkpt><trkpt lat="45.59846" lon="10.4697583"><ele>452.0</ele><time>2026-05-01T10:25:10.475Z</time></trkpt><trkpt lat="45.5984567" lon="10.4698617"><ele>450.99999999999994</ele><time>2026-05-01T10:25:11.475Z</time></trkpt><trkpt lat="45.5984633" lon="10.4699667"><ele>450.0</ele><time>2026-05-01T10:25:12.475Z</time></trkpt><trkpt lat="45.5984733" lon="10.4700817"><ele>449.0</ele><time>2026-05-01T10:25:13.475Z</time></trkpt><trkpt lat="45.5984817" lon="10.4701967"><ele>448.0</ele><time>2026-05-01T10:25:14.475Z</time></trkpt><trkpt lat="45.5984883" lon="10.4703067"><ele>446.99999999999994</ele><time>2026-05-01T10:25:15.476Z</time></trkpt><trkpt lat="45.598485" lon="10.470415"><ele>446.0</ele><time>2026-05-01T10:25:16.475Z</time></trkpt><trkpt lat="45.5984983" lon="10.4705167"><ele>444.7142857142857</ele><time>2026-05-01T10:25:17.475Z</time></trkpt><trkpt lat="45.5985233" lon="10.47062"><ele>443.42857142857144</ele><time>2026-05-01T10:25:18.475Z</time></trkpt><trkpt lat="45.598555" lon="10.470715"><ele>442.1428571428571</ele><time>2026-05-01T10:25:19.475Z</time></trkpt><trkpt lat="45.59859" lon="10.4707933"><ele>440.8571428571429</ele><time>2026-05-01T10:25:20.475Z</time></trkpt><trkpt lat="45.5986167" lon="10.47089"><ele>439.5714285714286</ele><time>2026-05-01T10:25:21.475Z</time></trkpt><trkpt lat="45.5986417" lon="10.470985"><ele>438.2857142857143</ele><time>2026-05-01T10:25:22.475Z</time></trkpt><trkpt lat="45.598665" lon="10.4710833"><ele>437.0</ele><time>2026-05-01T10:25:23.475Z</time></trkpt><trkpt lat="45.59869" lon="10.4711783"><ele>435.0</ele><time>2026-05-01T10:25:24.475Z</time></trkpt><trkpt lat="45.598715" lon="10.4712667"><ele>433.00000000000006</ele><time>2026-05-01T10:25:25.476Z</time></trkpt><trkpt lat="45.5987367" lon="10.4714267"><ele>431.00000000000006</ele><time>2026-05-01T10:25:27.475Z</time></trkpt><trkpt lat="45.5987" lon="10.4715817"><ele>429.0</ele><time>2026-05-01T10:25:29.475Z</time></trkpt><trkpt lat="45.598635" lon="10.47171"><ele>427.0</ele><time>2026-05-01T10:25:31.475Z</time></trkpt><trkpt lat="45.5985917" lon="10.4717833"><ele>427.00000000000006</ele><time>2026-05-01T10:25:32.475Z</time></trkpt><trkpt lat="45.5985517" lon="10.4718683"><ele>427.0</ele><time>2026-05-01T10:25:33.475Z</time></trkpt><trkpt lat="45.5985133" lon="10.4719533"><ele>427.0</ele><time>2026-05-01T10:25:34.475Z</time></trkpt><trkpt lat="45.59847" lon="10.4720983"><ele>427.0</ele><time>2026-05-01T10:25:36.475Z</time></trkpt><trkpt lat="45.5984417" lon="10.4722067"><ele>427.00000000000006</ele><time>2026-05-01T10:25:38.475Z</time></trkpt><trkpt lat="45.5984217" lon="10.472325"><ele>427.0</ele><time>2026-05-01T10:25:40.475Z</time></trkpt><trkpt lat="45.598395" lon="10.4724817"><ele>426.7142857142857</ele><time>2026-05-01T10:25:42.475Z</time></trkpt><trkpt lat="45.5983733" lon="10.4725817"><ele>426.42857142857144</ele><time>2026-05-01T10:25:43.475Z</time></trkpt><trkpt lat="45.5983533" lon="10.4726917"><ele>426.1428571428571</ele><time>2026-05-01T10:25:44.475Z</time></trkpt><trkpt lat="45.5983383" lon="10.4728"><ele>425.8571428571429</ele><time>2026-05-01T10:25:45.475Z</time></trkpt><trkpt lat="45.598335" lon="10.472905"><ele>425.57142857142856</ele><time>2026-05-01T10:25:46.475Z</time></trkpt><trkpt lat="45.5983483" lon="10.473"><ele>425.2857142857143</ele><time>2026-05-01T10:25:47.475Z</time></trkpt><trkpt lat="45.59837" lon="10.473085"><ele>425.0</ele><time>2026-05-01T10:25:48.475Z</time></trkpt><trkpt lat="45.5984283" lon="10.4732267"><ele>426.49999999999994</ele><time>2026-05-01T10:25:50.475Z</time></trkpt><trkpt lat="45.59846" lon="10.473305"><ele>428.0</ele><time>2026-05-01T10:25:51.475Z</time></trkpt><trkpt lat="45.5984933" lon="10.4733883"><ele>429.5</ele><time>2026-05-01T10:25:52.475Z</time></trkpt><trkpt lat="45.5985233" lon="10.4734767"><ele>431.0</ele><time>2026-05-01T10:25:53.475Z</time></trkpt><trkpt lat="45.5985667" lon="10.47356"><ele>432.49999999999994</ele><time>2026-05-01T10:25:54.475Z</time></trkpt><trkpt lat="45.5986233" lon="10.4736217"><ele>434.0</ele><time>2026-05-01T10:25:55.475Z</time></trkpt><trkpt lat="45.5987183" lon="10.473715"><ele>427.99999999999994</ele><time>2026-05-01T10:25:57.475Z</time></trkpt><trkpt lat="45.59879" lon="10.4737833"><ele>422.0</ele><time>2026-05-01T10:25:59.475Z</time></trkpt><trkpt lat="45.5988533" lon="10.473835"><ele>416.0</ele><time>2026-05-01T10:26:01.475Z</time></trkpt><trkpt lat="45.5989183" lon="10.4738917"><ele>410.0</ele><time>2026-05-01T10:26:05.476Z</time></trkpt><trkpt lat="45.5988417" lon="10.4739633"><ele>403.99999999999994</ele><time>2026-05-01T10:26:09.476Z</time></trkpt><trkpt lat="45.5987617" lon="10.4739967"><ele>398.0</ele><time>2026-05-01T10:26:11.477Z</time></trkpt><trkpt lat="45.59869" lon="10.47403"><ele>397.99999999999994</ele><time>2026-05-01T10:26:13.476Z</time></trkpt><trkpt lat="45.5986233" lon="10.4740583"><ele>398.0</ele><time>2026-05-01T10:26:35.476Z</time></trkpt><trkpt lat="45.5985583" lon="10.4740717"><ele>398.0</ele><time>2026-05-01T10:26:47.476Z</time></trkpt><trkpt lat="45.5986183" lon="10.47404"><ele>398.0</ele><time>2026-05-01T10:26:49.476Z</time></trkpt><trkpt lat="45.59872" lon="10.4740033"><ele>397.99999999999994</ele><time>2026-05-01T10:26:51.476Z</time></trkpt><trkpt lat="45.5988083" lon="10.47398"><ele>398.0</ele><time>2026-05-01T10:26:53.476Z</time></trkpt><trkpt lat="45.59886" lon="10.4738783"><ele>397.99999999999994</ele><time>2026-05-01T10:26:56.476Z</time></trkpt><trkpt lat="45.5988167" lon="10.4737817"><ele>398.0</ele><time>2026-05-01T10:26:58.476Z</time></trkpt><trkpt lat="45.5987533" lon="10.4737233"><ele>398.0</ele><time>2026-05-01T10:26:59.476Z</time></trkpt><trkpt lat="45.5986633" lon="10.4736583"><ele>398.0</ele><time>2026-05-01T10:27:00.476Z</time></trkpt><trkpt lat="45.5985833" lon="10.473585"><ele>397.99999999999994</ele><time>2026-05-01T10:27:01.476Z</time></trkpt><trkpt lat="45.5985183" lon="10.4735183"><ele>398.0</ele><time>2026-05-01T10:27:02.476Z</time></trkpt><trkpt lat="45.59847" lon="10.4734217"><ele>400.3333333333333</ele><time>2026-05-01T10:27:03.476Z</time></trkpt><trkpt lat="45.59843" lon="10.47332"><ele>402.66666666666663</ele><time>2026-05-01T10:27:04.476Z</time></trkpt><trkpt lat="45.5983917" lon="10.4732217"><ele>405.0</ele><time>2026-05-01T10:27:05.476Z</time></trkpt><trkpt lat="45.5983583" lon="10.473115"><ele>407.33333333333337</ele><time>2026-05-01T10:27:06.476Z</time></trkpt><trkpt lat="45.59834" lon="10.4730133"><ele>409.6666666666667</ele><time>2026-05-01T10:27:07.476Z</time></trkpt><trkpt lat="45.5983333" lon="10.472895"><ele>412.0</ele><time>2026-05-01T10:27:08.476Z</time></trkpt><trkpt lat="45.59834" lon="10.47277"><ele>414.1666666666667</ele><time>2026-05-01T10:27:09.476Z</time></trkpt><trkpt lat="45.5983483" lon="10.4726283"><ele>416.33333333333337</ele><time>2026-05-01T10:27:10.476Z</time></trkpt><trkpt lat="45.598365" lon="10.4724817"><ele>418.5</ele><time>2026-05-01T10:27:11.476Z</time></trkpt><trkpt lat="45.5983717" lon="10.4723583"><ele>420.66666666666663</ele><time>2026-05-01T10:27:12.476Z</time></trkpt><trkpt lat="45.5983783" lon="10.47225"><ele>422.8333333333333</ele><time>2026-05-01T10:27:13.476Z</time></trkpt><trkpt lat="45.5984" lon="10.472155"><ele>425.0</ele><time>2026-05-01T10:27:14.477Z</time></trkpt><trkpt lat="45.59843" lon="10.472075"><ele>425.3333333333333</ele><time>2026-05-01T10:27:15.476Z</time></trkpt><trkpt lat="45.59851" lon="10.4719317"><ele>425.66666666666663</ele><time>2026-05-01T10:27:17.476Z</time></trkpt><trkpt lat="45.5985617" lon="10.4718617"><ele>426.0</ele><time>2026-05-01T10:27:18.476Z</time></trkpt><trkpt lat="45.5986083" lon="10.4717933"><ele>426.33333333333337</ele><time>2026-05-01T10:27:19.476Z</time></trkpt><trkpt lat="45.5986433" lon="10.4717183"><ele>426.6666666666667</ele><time>2026-05-01T10:27:20.476Z</time></trkpt><trkpt lat="45.5986783" lon="10.4716267"><ele>427.0</ele><time>2026-05-01T10:27:21.476Z</time></trkpt><trkpt lat="45.5986883" lon="10.4715367"><ele>427.00000000000006</ele><time>2026-05-01T10:27:22.476Z</time></trkpt><trkpt lat="45.5986483" lon="10.4713583"><ele>427.0</ele><time>2026-05-01T10:27:24.476Z</time></trkpt><trkpt lat="45.598635" lon="10.47126"><ele>427.0</ele><time>2026-05-01T10:27:25.476Z</time></trkpt><trkpt lat="45.5986133" lon="10.4711533"><ele>427.0</ele><time>2026-05-01T10:27:26.476Z</time></trkpt><trkpt lat="45.5985983" lon="10.47106"><ele>427.00000000000006</ele><time>2026-05-01T10:27:27.476Z</time></trkpt><trkpt lat="45.5985833" lon="10.4709533"><ele>427.0</ele><time>2026-05-01T10:27:28.476Z</time></trkpt><trkpt lat="45.5985733" lon="10.4708417"><ele>428.6666666666667</ele><time>2026-05-01T10:27:29.476Z</time></trkpt><trkpt lat="45.5985667" lon="10.47071"><ele>430.33333333333337</ele><time>2026-05-01T10:27:30.476Z</time></trkpt><trkpt lat="45.59855" lon="10.47057"><ele>432.0</ele><time>2026-05-01T10:27:31.476Z</time></trkpt><trkpt lat="45.598545" lon="10.4704583"><ele>433.66666666666663</ele><time>2026-05-01T10:27:32.476Z</time></trkpt><trkpt lat="45.5985483" lon="10.470355"><ele>435.3333333333333</ele><time>2026-05-01T10:27:33.476Z</time></trkpt><trkpt lat="45.5985483" lon="10.4702217"><ele>437.0</ele><time>2026-05-01T10:27:34.476Z</time></trkpt><trkpt lat="45.5985517" lon="10.470085"><ele>439.25</ele><time>2026-05-01T10:27:35.477Z</time></trkpt><trkpt lat="45.5985367" lon="10.46993"><ele>441.5</ele><time>2026-05-01T10:27:36.476Z</time></trkpt><trkpt lat="45.5985117" lon="10.4697483"><ele>443.75</ele><time>2026-05-01T10:27:37.476Z</time></trkpt><trkpt lat="45.5984767" lon="10.469535"><ele>446.0</ele><time>2026-05-01T10:27:38.476Z</time></trkpt><trkpt lat="45.598445" lon="10.4693583"><ele>446.16666666666663</ele><time>2026-05-01T10:27:39.476Z</time></trkpt><trkpt lat="45.59842" lon="10.4692"><ele>446.3333333333333</ele><time>2026-05-01T10:27:40.476Z</time></trkpt><trkpt lat="45.5983867" lon="10.4690617"><ele>446.5</ele><time>2026-05-01T10:27:41.476Z</time></trkpt><trkpt lat="45.5983767" lon="10.46895"><ele>446.66666666666663</ele><time>2026-05-01T10:27:42.476Z</time></trkpt><trkpt lat="45.598375" lon="10.4688517"><ele>446.8333333333333</ele><time>2026-05-01T10:27:43.476Z</time></trkpt><trkpt lat="45.59839" lon="10.46876"><ele>447.0</ele><time>2026-05-01T10:27:44.476Z</time></trkpt><trkpt lat="45.59842" lon="10.4686783"><ele>447.0</ele><time>2026-05-01T10:27:45.476Z</time></trkpt><trkpt lat="45.5984717" lon="10.4686"><ele>447.00000000000006</ele><time>2026-05-01T10:27:46.476Z</time></trkpt><trkpt lat="45.5985317" lon="10.4685267"><ele>447.00000000000006</ele><time>2026-05-01T10:27:47.476Z</time></trkpt><trkpt lat="45.5986067" lon="10.4684533"><ele>447.0</ele><time>2026-05-01T10:27:48.476Z</time></trkpt><trkpt lat="45.5986833" lon="10.46839"><ele>447.0</ele><time>2026-05-01T10:27:49.476Z</time></trkpt><trkpt lat="45.5987967" lon="10.46833"><ele>451.8</ele><time>2026-05-01T10:27:51.476Z</time></trkpt><trkpt lat="45.59892" lon="10.4683267"><ele>456.6</ele><time>2026-05-01T10:27:53.476Z</time></trkpt><trkpt lat="45.5989933" lon="10.4683483"><ele>461.40000000000003</ele><time>2026-05-01T10:27:54.477Z</time></trkpt><trkpt lat="45.5990817" lon="10.4683717"><ele>466.20000000000005</ele><time>2026-05-01T10:27:55.476Z</time></trkpt><trkpt lat="45.5991717" lon="10.4683833"><ele>471.0</ele><time>2026-05-01T10:27:56.476Z</time></trkpt><trkpt lat="45.5992633" lon="10.46841"><ele>471.0</ele><time>2026-05-01T10:27:57.476Z</time></trkpt><trkpt lat="45.5993433" lon="10.4684417"><ele>471.0</ele><time>2026-05-01T10:27:58.476Z</time></trkpt><trkpt lat="45.5994067" lon="10.4684817"><ele>471.0</ele><time>2026-05-01T10:27:59.476Z</time></trkpt><trkpt lat="45.5994833" lon="10.468525"><ele>471.0</ele><time>2026-05-01T10:28:01.476Z</time></trkpt><trkpt lat="45.59953" lon="10.4684367"><ele>471.0</ele><time>2026-05-01T10:28:09.476Z</time></trkpt><trkpt lat="45.5995917" lon="10.4683733"><ele>471.0</ele><time>2026-05-01T10:28:11.476Z</time></trkpt><trkpt lat="45.599665" lon="10.468285"><ele>471.0</ele><time>2026-05-01T10:28:14.476Z</time></trkpt><trkpt lat="45.5995883" lon="10.4683633"><ele>471.0</ele><time>2026-05-01T10:28:32.476Z</time></trkpt><trkpt lat="45.5994867" lon="10.468405"><ele>471.0</ele><time>2026-05-01T10:28:34.476Z</time></trkpt><trkpt lat="45.5994183" lon="10.4683833"><ele>471.0</ele><time>2026-05-01T10:28:35.476Z</time></trkpt><trkpt lat="45.5993417" lon="10.4683517"><ele>471.0</ele><time>2026-05-01T10:28:36.476Z</time></trkpt><trkpt lat="45.5992667" lon="10.4683283"><ele>471.0</ele><time>2026-05-01T10:28:37.477Z</time></trkpt><trkpt lat="45.5991883" lon="10.4683217"><ele>471.0</ele><time>2026-05-01T10:28:38.476Z</time></trkpt><trkpt lat="45.5991167" lon="10.4683383"><ele>471.0</ele><time>2026-05-01T10:28:39.476Z</time></trkpt><trkpt lat="45.59905" lon="10.46835"><ele>471.0</ele><time>2026-05-01T10:28:40.477Z</time></trkpt><trkpt lat="45.5989233" lon="10.46833"><ele>471.0</ele><time>2026-05-01T10:28:42.476Z</time></trkpt><trkpt lat="45.598825" lon="10.46835"><ele>471.0</ele><time>2026-05-01T10:28:44.476Z</time></trkpt><trkpt lat="45.59873" lon="10.4683917"><ele>471.0</ele><time>2026-05-01T10:28:46.476Z</time></trkpt><trkpt lat="45.5986717" lon="10.46844"><ele>471.0</ele><time>2026-05-01T10:28:48.476Z</time></trkpt><trkpt lat="45.598605" lon="10.4684917"><ele>471.0</ele><time>2026-05-01T10:29:04.476Z</time></trkpt><trkpt lat="45.5985067" lon="10.4685633"><ele>471.0</ele><time>2026-05-01T10:29:06.477Z</time></trkpt><trkpt lat="45.598455" lon="10.4686217"><ele>471.0</ele><time>2026-05-01T10:29:07.476Z</time></trkpt><trkpt lat="45.5983933" lon="10.468715"><ele>471.0</ele><time>2026-05-01T10:29:09.476Z</time></trkpt><trkpt lat="45.598325" lon="10.4686383"><ele>467.0</ele><time>2026-05-01T10:29:15.477Z</time></trkpt><trkpt lat="45.598305" lon="10.46853"><ele>463.0</ele><time>2026-05-01T10:29:17.476Z</time></trkpt><trkpt lat="45.59829" lon="10.468415"><ele>459.0</ele><time>2026-05-01T10:29:19.476Z</time></trkpt><trkpt lat="45.5982933" lon="10.4682833"><ele>455.0</ele><time>2026-05-01T10:29:21.476Z</time></trkpt><trkpt lat="45.598315" lon="10.4681667"><ele>451.0</ele><time>2026-05-01T10:29:23.476Z</time></trkpt><trkpt lat="45.59836" lon="10.4680883"><ele>447.0</ele><time>2026-05-01T10:29:25.476Z</time></trkpt><trkpt lat="45.5984233" lon="10.4679633"><ele>444.0</ele><time>2026-05-01T10:29:27.476Z</time></trkpt><trkpt lat="45.5984867" lon="10.4678617"><ele>441.0</ele><time>2026-05-01T10:29:29.476Z</time></trkpt><trkpt lat="45.5985083" lon="10.4677583"><ele>438.0</ele><time>2026-05-01T10:29:31.476Z</time></trkpt><trkpt lat="45.598495" lon="10.4676433"><ele>435.0</ele><time>2026-05-01T10:29:33.476Z</time></trkpt><trkpt lat="45.5985083" lon="10.4675417"><ele>432.0</ele><time>2026-05-01T10:29:35.476Z</time></trkpt><trkpt lat="45.598545" lon="10.467435"><ele>429.0</ele><time>2026-05-01T10:29:38.476Z</time></trkpt><trkpt lat="45.5986033" lon="10.4673533"><ele>429.0</ele><time>2026-05-01T10:29:40.476Z</time></trkpt><trkpt lat="45.5986517" lon="10.4672417"><ele>429.0</ele><time>2026-05-01T10:29:42.476Z</time></trkpt><trkpt lat="45.5987167" lon="10.46714"><ele>429.0</ele><time>2026-05-01T10:29:44.476Z</time></trkpt><trkpt lat="45.59879" lon="10.4670583"><ele>429.0</ele><time>2026-05-01T10:29:46.476Z</time></trkpt><trkpt lat="45.598875" lon="10.4670383"><ele>429.0</ele><time>2026-05-01T10:29:48.476Z</time></trkpt><trkpt lat="45.598935" lon="10.4670683"><ele>429.0</ele><time>2026-05-01T10:29:50.476Z</time></trkpt><trkpt lat="45.5990367" lon="10.46707"><ele>430.1666666666667</ele><time>2026-05-01T10:29:52.476Z</time></trkpt><trkpt lat="45.5991183" lon="10.4670017"><ele>431.33333333333337</ele><time>2026-05-01T10:29:54.476Z</time></trkpt><trkpt lat="45.59917" lon="10.4668683"><ele>432.5</ele><time>2026-05-01T10:29:56.476Z</time></trkpt><trkpt lat="45.599185" lon="10.4667733"><ele>433.6666666666667</ele><time>2026-05-01T10:29:57.476Z</time></trkpt><trkpt lat="45.5991917" lon="10.4666633"><ele>434.83333333333337</ele><time>2026-05-01T10:29:58.476Z</time></trkpt><trkpt lat="45.5991983" lon="10.46656"><ele>436.0</ele><time>2026-05-01T10:29:59.476Z</time></trkpt><trkpt lat="45.5992" lon="10.46647"><ele>436.0</ele><time>2026-05-01T10:30:00.477Z</time></trkpt><trkpt lat="45.5991883" lon="10.4663367"><ele>436.0</ele><time>2026-05-01T10:30:02.476Z</time></trkpt><trkpt lat="45.5991433" lon="10.46617"><ele>436.0</ele><time>2026-05-01T10:30:04.476Z</time></trkpt><trkpt lat="45.599115" lon="10.4660667"><ele>436.0</ele><time>2026-05-01T10:30:05.476Z</time></trkpt><trkpt lat="45.59908" lon="10.46595"><ele>436.0</ele><time>2026-05-01T10:30:06.476Z</time></trkpt><trkpt lat="45.5990283" lon="10.4657983"><ele>435.6666666666667</ele><time>2026-05-01T10:30:08.476Z</time></trkpt><trkpt lat="45.5989917" lon="10.4657067"><ele>435.33333333333337</ele><time>2026-05-01T10:30:09.476Z</time></trkpt><trkpt lat="45.598955" lon="10.4656133"><ele>435.0</ele><time>2026-05-01T10:30:10.476Z</time></trkpt><trkpt lat="45.59892" lon="10.4655133"><ele>434.66666666666663</ele><time>2026-05-01T10:30:11.476Z</time></trkpt><trkpt lat="45.5988883" lon="10.4654167"><ele>434.3333333333333</ele><time>2026-05-01T10:30:12.476Z</time></trkpt><trkpt lat="45.5988517" lon="10.4652783"><ele>434.0</ele><time>2026-05-01T10:30:13.476Z</time></trkpt><trkpt lat="45.5988133" lon="10.4651617"><ele>432.66666666666663</ele><time>2026-05-01T10:30:14.476Z</time></trkpt><trkpt lat="45.598775" lon="10.4650517"><ele>431.3333333333333</ele><time>2026-05-01T10:30:15.476Z</time></trkpt><trkpt lat="45.5987433" lon="10.4649517"><ele>430.0</ele><time>2026-05-01T10:30:16.477Z</time></trkpt><trkpt lat="45.5987067" lon="10.46486"><ele>428.66666666666663</ele><time>2026-05-01T10:30:17.476Z</time></trkpt><trkpt lat="45.59867" lon="10.4647533"><ele>427.3333333333333</ele><time>2026-05-01T10:30:19.476Z</time></trkpt><trkpt lat="45.598695" lon="10.4646517"><ele>426.0</ele><time>2026-05-01T10:30:25.476Z</time></trkpt><trkpt lat="45.5986783" lon="10.4645083"><ele>420.0</ele><time>2026-05-01T10:31:31.476Z</time></trkpt><trkpt lat="45.5987083" lon="10.4643883"><ele>414.0</ele><time>2026-05-01T10:31:34.477Z</time></trkpt><trkpt lat="45.5986433" lon="10.4643383"><ele>408.0</ele><time>2026-05-01T10:31:37.476Z</time></trkpt><trkpt lat="45.598535" lon="10.4643667"><ele>402.0</ele><time>2026-05-01T10:31:39.477Z</time></trkpt><trkpt lat="45.5984333" lon="10.464385"><ele>396.0</ele><time>2026-05-01T10:31:41.476Z</time></trkpt><trkpt lat="45.5983567" lon="10.46442"><ele>395.0</ele><time>2026-05-01T10:31:43.476Z</time></trkpt><trkpt lat="45.5982867" lon="10.4644683"><ele>394.0</ele><time>2026-05-01T10:31:45.476Z</time></trkpt><trkpt lat="45.5982217" lon="10.4644917"><ele>393.0</ele><time>2026-05-01T10:31:47.476Z</time></trkpt><trkpt lat="45.5981267" lon="10.46444"><ele>392.0</ele><time>2026-05-01T10:31:50.476Z</time></trkpt><trkpt lat="45.5980367" lon="10.4644"><ele>391.0</ele><time>2026-05-01T10:31:52.476Z</time></trkpt><trkpt lat="45.5979683" lon="10.464355"><ele>390.0</ele><time>2026-05-01T10:31:54.476Z</time></trkpt><trkpt lat="45.5978867" lon="10.4642633"><ele>387.8333333333333</ele><time>2026-05-01T10:31:56.476Z</time></trkpt><trkpt lat="45.59783" lon="10.46421"><ele>385.6666666666667</ele><time>2026-05-01T10:31:57.476Z</time></trkpt><trkpt lat="45.59777" lon="10.4641633"><ele>383.5</ele><time>2026-05-01T10:31:58.476Z</time></trkpt><trkpt lat="45.59765" lon="10.46413"><ele>381.33333333333337</ele><time>2026-05-01T10:32:00.476Z</time></trkpt><trkpt lat="45.5975817" lon="10.464105"><ele>379.1666666666667</ele><time>2026-05-01T10:32:01.476Z</time></trkpt><trkpt lat="45.597465" lon="10.4640667"><ele>377.0</ele><time>2026-05-01T10:32:03.476Z</time></trkpt><trkpt lat="45.5974033" lon="10.46404"><ele>377.0</ele><time>2026-05-01T10:32:04.477Z</time></trkpt><trkpt lat="45.5973" lon="10.464"><ele>377.0</ele><time>2026-05-01T10:32:06.476Z</time></trkpt><trkpt lat="45.5972683" lon="10.4640833"><ele>377.0</ele><time>2026-05-01T10:32:10.476Z</time></trkpt><trkpt lat="45.59725" lon="10.4641717"><ele>377.0</ele><time>2026-05-01T10:32:14.476Z</time></trkpt><trkpt lat="45.59727" lon="10.4643067"><ele>377.0</ele><time>2026-05-01T10:32:18.476Z</time></trkpt><trkpt lat="45.5972833" lon="10.464425"><ele>377.0</ele><time>2026-05-01T10:32:20.476Z</time></trkpt><trkpt lat="45.5973067" lon="10.46453"><ele>377.0</ele><time>2026-05-01T10:32:22.476Z</time></trkpt><trkpt lat="45.597355" lon="10.4646117"><ele>377.0</ele><time>2026-05-01T10:32:24.476Z</time></trkpt><trkpt lat="45.5974017" lon="10.4647183"><ele>377.0</ele><time>2026-05-01T10:32:26.476Z</time></trkpt><trkpt lat="45.597425" lon="10.4648433"><ele>377.0</ele><time>2026-05-01T10:32:28.476Z</time></trkpt><trkpt lat="45.5974533" lon="10.4649717"><ele>377.0</ele><time>2026-05-01T10:32:30.477Z</time></trkpt><trkpt lat="45.5974883" lon="10.465095"><ele>377.0</ele><time>2026-05-01T10:32:32.476Z</time></trkpt><trkpt lat="45.5975117" lon="10.4652017"><ele>375.6666666666667</ele><time>2026-05-01T10:32:34.476Z</time></trkpt><trkpt lat="45.59751" lon="10.4653"><ele>374.33333333333337</ele><time>2026-05-01T10:32:36.476Z</time></trkpt><trkpt lat="45.59746" lon="10.4653817"><ele>373.0</ele><time>2026-05-01T10:32:39.476Z</time></trkpt><trkpt lat="45.5973833" lon="10.465415"><ele>371.6666666666667</ele><time>2026-05-01T10:32:42.477Z</time></trkpt><trkpt lat="45.5972983" lon="10.465355"><ele>370.3333333333333</ele><time>2026-05-01T10:32:46.476Z</time></trkpt><trkpt lat="45.597225" lon="10.465285"><ele>369.0</ele><time>2026-05-01T10:32:48.476Z</time></trkpt><trkpt lat="45.5971333" lon="10.4652117"><ele>369.0</ele><time>2026-05-01T10:32:50.476Z</time></trkpt><trkpt lat="45.597065" lon="10.4651717"><ele>369.0</ele><time>2026-05-01T10:32:51.476Z</time></trkpt><trkpt lat="45.597005" lon="10.4651233"><ele>369.0</ele><time>2026-05-01T10:32:52.476Z</time></trkpt><trkpt lat="45.5968883" lon="10.46504"><ele>369.0</ele><time>2026-05-01T10:32:54.476Z</time></trkpt><trkpt lat="45.5968233" lon="10.4649983"><ele>369.0</ele><time>2026-05-01T10:32:55.476Z</time></trkpt><trkpt lat="45.5967583" lon="10.4649717"><ele>369.0</ele><time>2026-05-01T10:32:56.476Z</time></trkpt><trkpt lat="45.5966933" lon="10.46495"><ele>365.0</ele><time>2026-05-01T10:32:57.476Z</time></trkpt><trkpt lat="45.5966167" lon="10.4649333"><ele>361.0</ele><time>2026-05-01T10:32:58.476Z</time></trkpt><trkpt lat="45.5965233" lon="10.4649217"><ele>357.0</ele><time>2026-05-01T10:32:59.476Z</time></trkpt><trkpt lat="45.5964417" lon="10.4649117"><ele>353.0</ele><time>2026-05-01T10:33:00.476Z</time></trkpt><trkpt lat="45.5963783" lon="10.46489"><ele>349.0</ele><time>2026-05-01T10:33:01.476Z</time></trkpt><trkpt lat="45.596315" lon="10.4648567"><ele>345.0</ele><time>2026-05-01T10:33:02.476Z</time></trkpt><trkpt lat="45.5962567" lon="10.4648183"><ele>345.0</ele><time>2026-05-01T10:33:03.476Z</time></trkpt><trkpt lat="45.5961967" lon="10.46479"><ele>345.0</ele><time>2026-05-01T10:33:04.476Z</time></trkpt><trkpt lat="45.5960767" lon="10.4647633"><ele>345.0</ele><time>2026-05-01T10:33:06.476Z</time></trkpt><trkpt lat="45.5960067" lon="10.464755"><ele>345.0</ele><time>2026-05-01T10:33:07.476Z</time></trkpt><trkpt lat="45.5959267" lon="10.46475"><ele>345.0</ele><time>2026-05-01T10:33:08.476Z</time></trkpt><trkpt lat="45.59584" lon="10.4647583"><ele>345.0</ele><time>2026-05-01T10:33:09.476Z</time></trkpt><trkpt lat="45.5957617" lon="10.4647633"><ele>341.1666666666667</ele><time>2026-05-01T10:33:10.476Z</time></trkpt><trkpt lat="45.595685" lon="10.4647533"><ele>337.3333333333333</ele><time>2026-05-01T10:33:11.476Z</time></trkpt><trkpt lat="45.59561" lon="10.4647367"><ele>333.5</ele><time>2026-05-01T10:33:12.476Z</time></trkpt><trkpt lat="45.59554" lon="10.46471"><ele>329.66666666666663</ele><time>2026-05-01T10:33:13.476Z</time></trkpt><trkpt lat="45.5954683" lon="10.4646867"><ele>325.8333333333333</ele><time>2026-05-01T10:33:14.476Z</time></trkpt><trkpt lat="45.5953583" lon="10.4646167"><ele>322.0</ele><time>2026-05-01T10:33:16.476Z</time></trkpt><trkpt lat="45.5953" lon="10.4644933"><ele>319.8</ele><time>2026-05-01T10:33:18.476Z</time></trkpt><trkpt lat="45.59527" lon="10.464385"><ele>317.6</ele><time>2026-05-01T10:33:20.476Z</time></trkpt><trkpt lat="45.5952067" lon="10.4643283"><ele>315.40000000000003</ele><time>2026-05-01T10:33:22.476Z</time></trkpt><trkpt lat="45.59512" lon="10.464275"><ele>313.20000000000005</ele><time>2026-05-01T10:33:24.476Z</time></trkpt><trkpt lat="45.5949933" lon="10.4642183"><ele>311.0</ele><time>2026-05-01T10:33:26.476Z</time></trkpt><trkpt lat="45.5949233" lon="10.46419"><ele>311.0</ele><time>2026-05-01T10:33:27.477Z</time></trkpt><trkpt lat="45.5948067" lon="10.46416"><ele>311.0</ele><time>2026-05-01T10:33:29.476Z</time></trkpt><trkpt lat="45.594725" lon="10.4640867"><ele>311.0</ele><time>2026-05-01T10:33:31.476Z</time></trkpt><trkpt lat="45.5946433" lon="10.4639617"><ele>311.0</ele><time>2026-05-01T10:33:33.476Z</time></trkpt><trkpt lat="45.5946033" lon="10.46388"><ele>311.0</ele><time>2026-05-01T10:33:34.476Z</time></trkpt><trkpt lat="45.59456" lon="10.4638017"><ele>313.5</ele><time>2026-05-01T10:33:35.476Z</time></trkpt><trkpt lat="45.59451" lon="10.4637317"><ele>316.0</ele><time>2026-05-01T10:33:36.476Z</time></trkpt><trkpt lat="45.5944667" lon="10.463665"><ele>318.5</ele><time>2026-05-01T10:33:37.476Z</time></trkpt><trkpt lat="45.5944217" lon="10.4635983"><ele>321.0</ele><time>2026-05-01T10:33:38.477Z</time></trkpt><trkpt lat="45.5943433" lon="10.463475"><ele>323.5</ele><time>2026-05-01T10:33:40.476Z</time></trkpt><trkpt lat="45.5942767" lon="10.46334"><ele>326.0</ele><time>2026-05-01T10:33:42.476Z</time></trkpt><trkpt lat="45.5942233" lon="10.4632333"><ele>320.6666666666667</ele><time>2026-05-01T10:33:44.476Z</time></trkpt><trkpt lat="45.5941717" lon="10.463075"><ele>315.33333333333337</ele><time>2026-05-01T10:33:46.476Z</time></trkpt><trkpt lat="45.594135" lon="10.4629883"><ele>310.0</ele><time>2026-05-01T10:33:47.476Z</time></trkpt><trkpt lat="45.5941033" lon="10.4629"><ele>304.6666666666667</ele><time>2026-05-01T10:33:48.476Z</time></trkpt><trkpt lat="45.5940717" lon="10.4628033"><ele>299.3333333333333</ele><time>2026-05-01T10:33:49.476Z</time></trkpt><trkpt lat="45.5940583" lon="10.4627017"><ele>294.0</ele><time>2026-05-01T10:33:50.476Z</time></trkpt><trkpt lat="45.594045" lon="10.46258"><ele>294.0</ele><time>2026-05-01T10:33:51.476Z</time></trkpt><trkpt lat="45.59402" lon="10.4624417"><ele>294.0</ele><time>2026-05-01T10:33:52.476Z</time></trkpt><trkpt lat="45.5940033" lon="10.462295"><ele>294.0</ele><time>2026-05-01T10:33:53.476Z</time></trkpt><trkpt lat="45.5939833" lon="10.4621633"><ele>294.0</ele><time>2026-05-01T10:33:54.476Z</time></trkpt><trkpt lat="45.5939483" lon="10.4620417"><ele>294.0</ele><time>2026-05-01T10:33:55.476Z</time></trkpt><trkpt lat="45.5939183" lon="10.461935"><ele>293.1666666666667</ele><time>2026-05-01T10:33:56.476Z</time></trkpt><trkpt lat="45.5938917" lon="10.461825"><ele>292.3333333333333</ele><time>2026-05-01T10:33:57.477Z</time></trkpt><trkpt lat="45.59387" lon="10.4617233"><ele>291.5</ele><time>2026-05-01T10:33:58.476Z</time></trkpt><trkpt lat="45.5938583" lon="10.4616283"><ele>290.66666666666663</ele><time>2026-05-01T10:33:59.476Z</time></trkpt><trkpt lat="45.5938483" lon="10.4615283"><ele>289.8333333333333</ele><time>2026-05-01T10:34:00.476Z</time></trkpt><trkpt lat="45.5938417" lon="10.4614133"><ele>289.0</ele><time>2026-05-01T10:34:01.476Z</time></trkpt><trkpt lat="45.5938367" lon="10.4613017"><ele>285.2</ele><time>2026-05-01T10:34:02.476Z</time></trkpt><trkpt lat="45.593835" lon="10.4612067"><ele>281.4</ele><time>2026-05-01T10:34:03.476Z</time></trkpt><trkpt lat="45.5938767" lon="10.4610517"><ele>277.6</ele><time>2026-05-01T10:34:05.477Z</time></trkpt><trkpt lat="45.5939517" lon="10.4609"><ele>273.8</ele><time>2026-05-01T10:34:07.476Z</time></trkpt><trkpt lat="45.5940017" lon="10.4608283"><ele>270.0</ele><time>2026-05-01T10:34:08.476Z</time></trkpt><trkpt lat="45.59409" lon="10.4607283"><ele>270.0</ele><time>2026-05-01T10:34:10.476Z</time></trkpt><trkpt lat="45.5941767" lon="10.460655"><ele>270.0</ele><time>2026-05-01T10:34:12.476Z</time></trkpt><trkpt lat="45.5942717" lon="10.460615"><ele>270.0</ele><time>2026-05-01T10:34:14.476Z</time></trkpt><trkpt lat="45.594335" lon="10.4605683"><ele>270.0</ele><time>2026-05-01T10:34:16.476Z</time></trkpt><trkpt lat="45.59434" lon="10.4604767"><ele>270.0</ele><time>2026-05-01T10:34:18.476Z</time></trkpt><trkpt lat="45.5942033" lon="10.4602917"><ele>265.4</ele><time>2026-05-01T10:34:26.476Z</time></trkpt><trkpt lat="45.5940933" lon="10.4602267"><ele>260.8</ele><time>2026-05-01T10:34:28.476Z</time></trkpt><trkpt lat="45.5940133" lon="10.460175"><ele>256.2</ele><time>2026-05-01T10:34:29.476Z</time></trkpt><trkpt lat="45.593915" lon="10.4601367"><ele>251.6</ele><time>2026-05-01T10:34:30.476Z</time></trkpt><trkpt lat="45.5938217" lon="10.460125"><ele>247.0</ele><time>2026-05-01T10:34:31.476Z</time></trkpt><trkpt lat="45.5937317" lon="10.46014"><ele>246.66666666666666</ele><time>2026-05-01T10:34:32.476Z</time></trkpt><trkpt lat="45.5936517" lon="10.460195"><ele>246.33333333333331</ele><time>2026-05-01T10:34:33.476Z</time></trkpt><trkpt lat="45.5935767" lon="10.4602767"><ele>246.0</ele><time>2026-05-01T10:34:34.476Z</time></trkpt><trkpt lat="45.5935067" lon="10.46034"><ele>245.66666666666669</ele><time>2026-05-01T10:34:35.476Z</time></trkpt><trkpt lat="45.593435" lon="10.4603483"><ele>245.33333333333334</ele><time>2026-05-01T10:34:36.476Z</time></trkpt><trkpt lat="45.5933683" lon="10.460315"><ele>245.0</ele><time>2026-05-01T10:34:37.476Z</time></trkpt><trkpt lat="45.593285" lon="10.46015"><ele>245.0</ele><time>2026-05-01T10:34:39.476Z</time></trkpt><trkpt lat="45.5932617" lon="10.4600167"><ele>245.0</ele><time>2026-05-01T10:34:40.476Z</time></trkpt><trkpt lat="45.5932367" lon="10.459905"><ele>245.0</ele><time>2026-05-01T10:34:41.476Z</time></trkpt><trkpt lat="45.5931817" lon="10.4598083"><ele>245.0</ele><time>2026-05-01T10:34:42.476Z</time></trkpt><trkpt lat="45.593105" lon="10.45974"><ele>245.0</ele><time>2026-05-01T10:34:43.476Z</time></trkpt><trkpt lat="45.5930067" lon="10.4596883"><ele>245.0</ele><time>2026-05-01T10:34:44.476Z</time></trkpt><trkpt lat="45.5928917" lon="10.4596367"><ele>245.0</ele><time>2026-05-01T10:34:45.476Z</time></trkpt><trkpt lat="45.5927783" lon="10.4595767"><ele>245.0</ele><time>2026-05-01T10:34:46.476Z</time></trkpt><trkpt lat="45.592675" lon="10.4595183"><ele>245.0</ele><time>2026-05-01T10:34:47.477Z</time></trkpt><trkpt lat="45.5925817" lon="10.4594633"><ele>244.50000000000003</ele><time>2026-05-01T10:34:48.476Z</time></trkpt><trkpt lat="45.592495" lon="10.4594033"><ele>244.0</ele><time>2026-05-01T10:34:49.476Z</time></trkpt><trkpt lat="45.5924233" lon="10.45935"><ele>243.5</ele><time>2026-05-01T10:34:50.476Z</time></trkpt><trkpt lat="45.5923633" lon="10.4593"><ele>243.0</ele><time>2026-05-01T10:34:51.477Z</time></trkpt><trkpt lat="45.592355" lon="10.45919"><ele>242.50000000000003</ele><time>2026-05-01T10:34:53.476Z</time></trkpt><trkpt lat="45.592345" lon="10.4590917"><ele>242.0</ele><time>2026-05-01T10:34:55.476Z</time></trkpt><trkpt lat="45.5924633" lon="10.459035"><ele>242.0</ele><time>2026-05-01T10:34:57.476Z</time></trkpt><trkpt lat="45.5925367" lon="10.4590383"><ele>242.0</ele><time>2026-05-01T10:34:58.476Z</time></trkpt><trkpt lat="45.592645" lon="10.4590833"><ele>242.0</ele><time>2026-05-01T10:34:59.476Z</time></trkpt><trkpt lat="45.5927717" lon="10.459165"><ele>242.0</ele><time>2026-05-01T10:35:00.476Z</time></trkpt><trkpt lat="45.59289" lon="10.4592417"><ele>240.8</ele><time>2026-05-01T10:35:01.476Z</time></trkpt><trkpt lat="45.5929917" lon="10.4593067"><ele>239.6</ele><time>2026-05-01T10:35:02.476Z</time></trkpt><trkpt lat="45.5930867" lon="10.4593633"><ele>238.40000000000003</ele><time>2026-05-01T10:35:03.476Z</time></trkpt><trkpt lat="45.59318" lon="10.4594117"><ele>237.20000000000002</ele><time>2026-05-01T10:35:04.476Z</time></trkpt><trkpt lat="45.593275" lon="10.4594567"><ele>236.0</ele><time>2026-05-01T10:35:05.476Z</time></trkpt><trkpt lat="45.59337" lon="10.4595033"><ele>236.0</ele><time>2026-05-01T10:35:06.476Z</time></trkpt><trkpt lat="45.5934533" lon="10.4595383"><ele>236.00000000000003</ele><time>2026-05-01T10:35:07.477Z</time></trkpt><trkpt lat="45.5935417" lon="10.459515"><ele>236.00000000000003</ele><time>2026-05-01T10:35:08.476Z</time></trkpt><trkpt lat="45.593625" lon="10.459425"><ele>236.0</ele><time>2026-05-01T10:35:09.476Z</time></trkpt><trkpt lat="45.5936917" lon="10.4592817"><ele>236.0</ele><time>2026-05-01T10:35:10.476Z</time></trkpt><trkpt lat="45.59373" lon="10.4591017"><ele>235.25</ele><time>2026-05-01T10:35:11.476Z</time></trkpt><trkpt lat="45.5937667" lon="10.458935"><ele>234.5</ele><time>2026-05-01T10:35:12.476Z</time></trkpt><trkpt lat="45.5938317" lon="10.4587983"><ele>233.75</ele><time>2026-05-01T10:35:13.476Z</time></trkpt><trkpt lat="45.5939217" lon="10.4586733"><ele>233.0</ele><time>2026-05-01T10:35:14.476Z</time></trkpt><trkpt lat="45.5940183" lon="10.458555"><ele>233.0</ele><time>2026-05-01T10:35:15.477Z</time></trkpt><trkpt lat="45.594125" lon="10.4584267"><ele>233.0</ele><time>2026-05-01T10:35:16.476Z</time></trkpt><trkpt lat="45.59424" lon="10.4583033"><ele>233.0</ele><time>2026-05-01T10:35:17.476Z</time></trkpt><trkpt lat="45.5943383" lon="10.458185"><ele>233.0</ele><time>2026-05-01T10:35:18.476Z</time></trkpt><trkpt lat="45.5944367" lon="10.45807"><ele>232.25</ele><time>2026-05-01T10:35:19.476Z</time></trkpt><trkpt lat="45.594525" lon="10.4579267"><ele>231.5</ele><time>2026-05-01T10:35:20.476Z</time></trkpt><trkpt lat="45.59459" lon="10.457765"><ele>230.75</ele><time>2026-05-01T10:35:21.477Z</time></trkpt><trkpt lat="45.59464" lon="10.4576017"><ele>230.0</ele><time>2026-05-01T10:35:22.476Z</time></trkpt><trkpt lat="45.5946833" lon="10.4574367"><ele>230.0</ele><time>2026-05-01T10:35:23.476Z</time></trkpt><trkpt lat="45.5947233" lon="10.4572833"><ele>230.0</ele><time>2026-05-01T10:35:24.476Z</time></trkpt><trkpt lat="45.5947667" lon="10.45714"><ele>230.0</ele><time>2026-05-01T10:35:25.476Z</time></trkpt><trkpt lat="45.594805" lon="10.457"><ele>230.0</ele><time>2026-05-01T10:35:26.476Z</time></trkpt><trkpt lat="45.5948417" lon="10.4568567"><ele>230.0</ele><time>2026-05-01T10:35:27.476Z</time></trkpt><trkpt lat="45.5948867" lon="10.4567233"><ele>229.6</ele><time>2026-05-01T10:35:28.476Z</time></trkpt><trkpt lat="45.5949617" lon="10.45661"><ele>229.2</ele><time>2026-05-01T10:35:29.476Z</time></trkpt><trkpt lat="45.595045" lon="10.4565467"><ele>228.8</ele><time>2026-05-01T10:35:30.477Z</time></trkpt><trkpt lat="45.5951433" lon="10.45653"><ele>228.4</ele><time>2026-05-01T10:35:31.476Z</time></trkpt><trkpt lat="45.59525" lon="10.456545"><ele>228.0</ele><time>2026-05-01T10:35:32.476Z</time></trkpt><trkpt lat="45.5953683" lon="10.4565717"><ele>227.25</ele><time>2026-05-01T10:35:33.476Z</time></trkpt><trkpt lat="45.5954917" lon="10.4566017"><ele>226.5</ele><time>2026-05-01T10:35:34.476Z</time></trkpt><trkpt lat="45.5956233" lon="10.45663"><ele>225.75</ele><time>2026-05-01T10:35:35.476Z</time></trkpt><trkpt lat="45.595755" lon="10.456675"><ele>225.0</ele><time>2026-05-01T10:35:36.476Z</time></trkpt><trkpt lat="45.5958867" lon="10.4567183"><ele>225.0</ele><time>2026-05-01T10:35:37.476Z</time></trkpt><trkpt lat="45.59601" lon="10.45676"><ele>225.0</ele><time>2026-05-01T10:35:38.476Z</time></trkpt><trkpt lat="45.59613" lon="10.45682"><ele>225.0</ele><time>2026-05-01T10:35:39.476Z</time></trkpt><trkpt lat="45.5962467" lon="10.4568783"><ele>225.0</ele><time>2026-05-01T10:35:40.476Z</time></trkpt><trkpt lat="45.59637" lon="10.4569383"><ele>224.6</ele><time>2026-05-01T10:35:41.476Z</time></trkpt><trkpt lat="45.5964817" lon="10.456995"><ele>224.2</ele><time>2026-05-01T10:35:42.477Z</time></trkpt><trkpt lat="45.5965833" lon="10.4570417"><ele>223.8</ele><time>2026-05-01T10:35:43.476Z</time></trkpt><trkpt lat="45.596685" lon="10.45708"><ele>223.4</ele><time>2026-05-01T10:35:44.476Z</time></trkpt><trkpt lat="45.5967767" lon="10.45711"><ele>223.0</ele><time>2026-05-01T10:35:45.476Z</time></trkpt><trkpt lat="45.596875" lon="10.4571"><ele>223.0</ele><time>2026-05-01T10:35:46.476Z</time></trkpt><trkpt lat="45.5969767" lon="10.45704"><ele>223.0</ele><time>2026-05-01T10:35:47.476Z</time></trkpt><trkpt lat="45.597065" lon="10.4569333"><ele>223.0</ele><time>2026-05-01T10:35:48.476Z</time></trkpt><trkpt lat="45.5971567" lon="10.4568083"><ele>223.0</ele><time>2026-05-01T10:35:49.476Z</time></trkpt><trkpt lat="45.5972417" lon="10.45668"><ele>222.75</ele><time>2026-05-01T10:35:50.476Z</time></trkpt><trkpt lat="45.59734" lon="10.4565533"><ele>222.5</ele><time>2026-05-01T10:35:51.476Z</time></trkpt><trkpt lat="45.5974383" lon="10.4564383"><ele>222.25</ele><time>2026-05-01T10:35:52.476Z</time></trkpt><trkpt lat="45.5975483" lon="10.4563367"><ele>222.0</ele><time>2026-05-01T10:35:53.476Z</time></trkpt><trkpt lat="45.5976683" lon="10.45624"><ele>221.75</ele><time>2026-05-01T10:35:54.476Z</time></trkpt><trkpt lat="45.5977933" lon="10.4561483"><ele>221.5</ele><time>2026-05-01T10:35:55.476Z</time></trkpt><trkpt lat="45.5979267" lon="10.4560517"><ele>221.25</ele><time>2026-05-01T10:35:56.476Z</time></trkpt><trkpt lat="45.5980567" lon="10.4559517"><ele>221.0</ele><time>2026-05-01T10:35:57.476Z</time></trkpt><trkpt lat="45.5982033" lon="10.455895"><ele>220.66666666666669</ele><time>2026-05-01T10:35:58.476Z</time></trkpt><trkpt lat="45.5983267" lon="10.4557633"><ele>220.33333333333331</ele><time>2026-05-01T10:35:59.476Z</time></trkpt><trkpt lat="45.5984533" lon="10.4556483"><ele>220.0</ele><time>2026-05-01T10:36:00.476Z</time></trkpt><trkpt lat="45.5985867" lon="10.45556"><ele>220.25</ele><time>2026-05-01T10:36:01.476Z</time></trkpt><trkpt lat="45.5986983" lon="10.455495"><ele>220.5</ele><time>2026-05-01T10:36:02.476Z</time></trkpt><trkpt lat="45.5988067" lon="10.4554217"><ele>220.75</ele><time>2026-05-01T10:36:03.476Z</time></trkpt><trkpt lat="45.59891" lon="10.4553433"><ele>221.0</ele><time>2026-05-01T10:36:04.476Z</time></trkpt><trkpt lat="45.5990133" lon="10.4552817"><ele>221.0</ele><time>2026-05-01T10:36:05.476Z</time></trkpt><trkpt lat="45.5991133" lon="10.4552167"><ele>221.00000000000003</ele><time>2026-05-01T10:36:06.477Z</time></trkpt><trkpt lat="45.5992133" lon="10.4551517"><ele>221.00000000000003</ele><time>2026-05-01T10:36:07.476Z</time></trkpt><trkpt lat="45.5993083" lon="10.4551"><ele>221.0</ele><time>2026-05-01T10:36:08.476Z</time></trkpt><trkpt lat="45.5994067" lon="10.45504"><ele>221.0</ele><time>2026-05-01T10:36:09.476Z</time></trkpt><trkpt lat="45.5995033" lon="10.4549717"><ele>220.60000000000002</ele><time>2026-05-01T10:36:10.476Z</time></trkpt><trkpt lat="45.5995933" lon="10.4549133"><ele>220.20000000000002</ele><time>2026-05-01T10:36:11.476Z</time></trkpt><trkpt lat="45.5996933" lon="10.45485"><ele>219.79999999999998</ele><time>2026-05-01T10:36:12.476Z</time></trkpt><trkpt lat="45.5997967" lon="10.4547883"><ele>219.39999999999998</ele><time>2026-05-01T10:36:13.476Z</time></trkpt><trkpt lat="45.5999" lon="10.4547233"><ele>219.0</ele><time>2026-05-01T10:36:14.476Z</time></trkpt><trkpt lat="45.6000117" lon="10.454655"><ele>218.79999999999998</ele><time>2026-05-01T10:36:15.476Z</time></trkpt><trkpt lat="45.6001167" lon="10.4545883"><ele>218.59999999999997</ele><time>2026-05-01T10:36:16.476Z</time></trkpt><trkpt lat="45.6002167" lon="10.4545233"><ele>218.4</ele><time>2026-05-01T10:36:17.476Z</time></trkpt><trkpt lat="45.6003167" lon="10.4544567"><ele>218.2</ele><time>2026-05-01T10:36:18.476Z</time></trkpt><trkpt lat="45.6004083" lon="10.45439"><ele>218.0</ele><time>2026-05-01T10:36:19.476Z</time></trkpt><trkpt lat="45.6004983" lon="10.45433"><ele>217.4</ele><time>2026-05-01T10:36:20.476Z</time></trkpt><trkpt lat="45.6005933" lon="10.4542667"><ele>216.8</ele><time>2026-05-01T10:36:21.476Z</time></trkpt><trkpt lat="45.600685" lon="10.45421"><ele>216.2</ele><time>2026-05-01T10:36:22.476Z</time></trkpt><trkpt lat="45.6007733" lon="10.4541533"><ele>215.6</ele><time>2026-05-01T10:36:23.476Z</time></trkpt><trkpt lat="45.6008567" lon="10.4541017"><ele>215.0</ele><time>2026-05-01T10:36:24.476Z</time></trkpt><trkpt lat="45.60092" lon="10.4540483"><ele>215.00000000000003</ele><time>2026-05-01T10:36:25.477Z</time></trkpt><trkpt lat="45.6009917" lon="10.4539983"><ele>215.0</ele><time>2026-05-01T10:36:26.476Z</time></trkpt><trkpt lat="45.6010583" lon="10.4539533"><ele>215.0</ele><time>2026-05-01T10:36:27.476Z</time></trkpt><trkpt lat="45.6011167" lon="10.4539133"><ele>215.0</ele><time>2026-05-01T10:36:28.476Z</time></trkpt><trkpt lat="45.6012167" lon="10.45385"><ele>215.00000000000003</ele><time>2026-05-01T10:36:30.476Z</time></trkpt><trkpt lat="45.6012633" lon="10.45377"><ele>215.0</ele><time>2026-05-01T10:36:32.476Z</time></trkpt><trkpt lat="45.6012283" lon="10.4534933"><ele>214.5</ele><time>2026-05-01T11:33:20.467Z</time></trkpt><trkpt lat="45.6011933" lon="10.4533567"><ele>214.0</ele><time>2026-05-01T11:33:22.467Z</time></trkpt><trkpt lat="45.6011617" lon="10.453235"><ele>213.5</ele><time>2026-05-01T11:33:23.467Z</time></trkpt><trkpt lat="45.6011017" lon="10.4530833"><ele>213.0</ele><time>2026-05-01T11:33:24.467Z</time></trkpt><trkpt lat="45.60101" lon="10.45291"><ele>213.0</ele><time>2026-05-01T11:33:25.467Z</time></trkpt><trkpt lat="45.6008783" lon="10.4527017"><ele>213.0</ele><time>2026-05-01T11:33:26.467Z</time></trkpt><trkpt lat="45.600725" lon="10.4525"><ele>213.0</ele><time>2026-05-01T11:33:27.467Z</time></trkpt><trkpt lat="45.6005883" lon="10.4522983"><ele>213.33333333333331</ele><time>2026-05-01T11:33:28.467Z</time></trkpt><trkpt lat="45.6004483" lon="10.4520867"><ele>213.66666666666666</ele><time>2026-05-01T11:33:29.467Z</time></trkpt><trkpt lat="45.60032" lon="10.451865"><ele>214.0</ele><time>2026-05-01T11:33:30.467Z</time></trkpt><trkpt lat="45.60019" lon="10.4516733"><ele>213.33333333333331</ele><time>2026-05-01T11:33:31.467Z</time></trkpt><trkpt lat="45.600075" lon="10.4514917"><ele>212.66666666666669</ele><time>2026-05-01T11:33:32.467Z</time></trkpt><trkpt lat="45.5999667" lon="10.4513233"><ele>212.0</ele><time>2026-05-01T11:33:33.467Z</time></trkpt><trkpt lat="45.5998633" lon="10.4511683"><ele>211.75</ele><time>2026-05-01T11:33:34.467Z</time></trkpt><trkpt lat="45.59977" lon="10.45101"><ele>211.5</ele><time>2026-05-01T11:33:35.467Z</time></trkpt><trkpt lat="45.5996883" lon="10.4508683"><ele>211.25</ele><time>2026-05-01T11:33:36.467Z</time></trkpt><trkpt lat="45.59961" lon="10.4507417"><ele>211.0</ele><time>2026-05-01T11:33:37.467Z</time></trkpt><trkpt lat="45.5995333" lon="10.4506217"><ele>211.0</ele><time>2026-05-01T11:33:38.467Z</time></trkpt><trkpt lat="45.5994567" lon="10.4504933"><ele>211.0</ele><time>2026-05-01T11:33:39.467Z</time></trkpt><trkpt lat="45.59938" lon="10.45037"><ele>211.0</ele><time>2026-05-01T11:33:40.467Z</time></trkpt><trkpt lat="45.599305" lon="10.4502517"><ele>211.0</ele><time>2026-05-01T11:33:41.467Z</time></trkpt><trkpt lat="45.5992317" lon="10.4501317"><ele>210.8</ele><time>2026-05-01T11:33:42.467Z</time></trkpt><trkpt lat="45.599165" lon="10.4500183"><ele>210.60000000000002</ele><time>2026-05-01T11:33:43.468Z</time></trkpt><trkpt lat="45.5990883" lon="10.449915"><ele>210.4</ele><time>2026-05-01T11:33:44.467Z</time></trkpt><trkpt lat="45.5990217" lon="10.449805"><ele>210.2</ele><time>2026-05-01T11:33:45.467Z</time></trkpt><trkpt lat="45.59898" lon="10.4496867"><ele>210.0</ele><time>2026-05-01T11:33:46.467Z</time></trkpt><trkpt lat="45.5989567" lon="10.44958"><ele>209.83333333333334</ele><time>2026-05-01T11:33:47.467Z</time></trkpt><trkpt lat="45.5989333" lon="10.4494833"><ele>209.66666666666669</ele><time>2026-05-01T11:33:48.467Z</time></trkpt><trkpt lat="45.5988867" lon="10.4494133"><ele>209.5</ele><time>2026-05-01T11:33:49.467Z</time></trkpt><trkpt lat="45.5988133" lon="10.44936"><ele>209.33333333333334</ele><time>2026-05-01T11:33:50.467Z</time></trkpt><trkpt lat="45.59873" lon="10.4492867"><ele>209.16666666666669</ele><time>2026-05-01T11:33:51.467Z</time></trkpt><trkpt lat="45.598635" lon="10.4491833"><ele>209.0</ele><time>2026-05-01T11:33:52.468Z</time></trkpt><trkpt lat="45.5985317" lon="10.4490367"><ele>209.0</ele><time>2026-05-01T11:33:53.468Z</time></trkpt><trkpt lat="45.5984283" lon="10.448865"><ele>209.0</ele><time>2026-05-01T11:33:54.467Z</time></trkpt><trkpt lat="45.598325" lon="10.4486767"><ele>209.0</ele><time>2026-05-01T11:33:55.467Z</time></trkpt><trkpt lat="45.5982083" lon="10.44849"><ele>209.0</ele><time>2026-05-01T11:33:56.467Z</time></trkpt><trkpt lat="45.5980833" lon="10.448295"><ele>209.0</ele><time>2026-05-01T11:33:57.467Z</time></trkpt><trkpt lat="45.597955" lon="10.4481033"><ele>209.0</ele><time>2026-05-01T11:33:58.467Z</time></trkpt><trkpt lat="45.597835" lon="10.4479167"><ele>208.66666666666669</ele><time>2026-05-01T11:33:59.467Z</time></trkpt><trkpt lat="45.5977217" lon="10.4477467"><ele>208.33333333333331</ele><time>2026-05-01T11:34:00.468Z</time></trkpt><trkpt lat="45.5976133" lon="10.4475833"><ele>208.0</ele><time>2026-05-01T11:34:01.467Z</time></trkpt><trkpt lat="45.5975117" lon="10.447415"><ele>208.0</ele><time>2026-05-01T11:34:02.467Z</time></trkpt><trkpt lat="45.597405" lon="10.4472533"><ele>208.0</ele><time>2026-05-01T11:34:03.467Z</time></trkpt><trkpt lat="45.5972933" lon="10.4470867"><ele>208.0</ele><time>2026-05-01T11:34:04.467Z</time></trkpt><trkpt lat="45.597185" lon="10.4469133"><ele>208.0</ele><time>2026-05-01T11:34:05.467Z</time></trkpt><trkpt lat="45.5970833" lon="10.4467383"><ele>208.0</ele><time>2026-05-01T11:34:06.468Z</time></trkpt><trkpt lat="45.5969783" lon="10.4465583"><ele>208.0</ele><time>2026-05-01T11:34:07.467Z</time></trkpt><trkpt lat="45.5968733" lon="10.4463833"><ele>207.66666666666666</ele><time>2026-05-01T11:34:08.467Z</time></trkpt><trkpt lat="45.5967683" lon="10.446205"><ele>207.33333333333331</ele><time>2026-05-01T11:34:09.467Z</time></trkpt><trkpt lat="45.5966567" lon="10.446035"><ele>207.0</ele><time>2026-05-01T11:34:10.467Z</time></trkpt><trkpt lat="45.5965433" lon="10.4458667"><ele>207.0</ele><time>2026-05-01T11:34:11.467Z</time></trkpt><trkpt lat="45.5964467" lon="10.4456967"><ele>207.0</ele><time>2026-05-01T11:34:12.467Z</time></trkpt><trkpt lat="45.596345" lon="10.4455267"><ele>207.0</ele><time>2026-05-01T11:34:13.467Z</time></trkpt><trkpt lat="45.59625" lon="10.4453533"><ele>207.0</ele><time>2026-05-01T11:34:14.467Z</time></trkpt><trkpt lat="45.59614" lon="10.44519"><ele>207.0</ele><time>2026-05-01T11:34:15.467Z</time></trkpt><trkpt lat="45.59604" lon="10.4450283"><ele>207.0</ele><time>2026-05-01T11:34:16.467Z</time></trkpt><trkpt lat="45.595945" lon="10.4448683"><ele>207.0</ele><time>2026-05-01T11:34:17.467Z</time></trkpt><trkpt lat="45.59585" lon="10.4447133"><ele>207.0</ele><time>2026-05-01T11:34:18.467Z</time></trkpt><trkpt lat="45.5957517" lon="10.4445667"><ele>207.0</ele><time>2026-05-01T11:34:19.467Z</time></trkpt><trkpt lat="45.595655" lon="10.4444233"><ele>207.0</ele><time>2026-05-01T11:34:20.467Z</time></trkpt><trkpt lat="45.59557" lon="10.4443017"><ele>207.0</ele><time>2026-05-01T11:34:21.467Z</time></trkpt><trkpt lat="45.5954783" lon="10.4441917"><ele>207.0</ele><time>2026-05-01T11:34:22.467Z</time></trkpt><trkpt lat="45.5953983" lon="10.44409"><ele>207.0</ele><time>2026-05-01T11:34:23.467Z</time></trkpt><trkpt lat="45.5953317" lon="10.443985"><ele>207.0</ele><time>2026-05-01T11:34:24.467Z</time></trkpt><trkpt lat="45.5952933" lon="10.4438717"><ele>207.0</ele><time>2026-05-01T11:34:25.467Z</time></trkpt><trkpt lat="45.5952767" lon="10.4437633"><ele>206.66666666666666</ele><time>2026-05-01T11:34:26.467Z</time></trkpt><trkpt lat="45.59526" lon="10.44367"><ele>206.33333333333331</ele><time>2026-05-01T11:34:27.467Z</time></trkpt><trkpt lat="45.5952217" lon="10.443595"><ele>206.0</ele><time>2026-05-01T11:34:28.467Z</time></trkpt><trkpt lat="45.5951617" lon="10.44354"><ele>205.66666666666666</ele><time>2026-05-01T11:34:29.467Z</time></trkpt><trkpt lat="45.5951" lon="10.443485"><ele>205.33333333333331</ele><time>2026-05-01T11:34:30.467Z</time></trkpt><trkpt lat="45.5950217" lon="10.44342"><ele>205.0</ele><time>2026-05-01T11:34:31.467Z</time></trkpt><trkpt lat="45.59494" lon="10.44332"><ele>205.0</ele><time>2026-05-01T11:34:32.467Z</time></trkpt><trkpt lat="45.594855" lon="10.4432017"><ele>205.0</ele><time>2026-05-01T11:34:33.467Z</time></trkpt><trkpt lat="45.5947683" lon="10.4430733"><ele>205.0</ele><time>2026-05-01T11:34:34.467Z</time></trkpt><trkpt lat="45.5946783" lon="10.4429533"><ele>205.0</ele><time>2026-05-01T11:34:35.467Z</time></trkpt><trkpt lat="45.5945783" lon="10.4428517"><ele>205.0</ele><time>2026-05-01T11:34:36.467Z</time></trkpt><trkpt lat="45.59446" lon="10.4427583"><ele>205.0</ele><time>2026-05-01T11:34:37.467Z</time></trkpt><trkpt lat="45.594315" lon="10.44265"><ele>205.0</ele><time>2026-05-01T11:34:38.467Z</time></trkpt><trkpt lat="45.5941433" lon="10.44253"><ele>205.0</ele><time>2026-05-01T11:34:39.467Z</time></trkpt><trkpt lat="45.5939417" lon="10.4423933"><ele>205.0</ele><time>2026-05-01T11:34:40.467Z</time></trkpt><trkpt lat="45.593725" lon="10.4422383"><ele>204.0</ele><time>2026-05-01T11:34:41.467Z</time></trkpt><trkpt lat="45.5934983" lon="10.4420783"><ele>203.0</ele><time>2026-05-01T11:34:42.467Z</time></trkpt><trkpt lat="45.59327" lon="10.441925"><ele>203.0</ele><time>2026-05-01T11:34:43.467Z</time></trkpt><trkpt lat="45.5930567" lon="10.4417817"><ele>203.0</ele><time>2026-05-01T11:34:44.467Z</time></trkpt><trkpt lat="45.5928583" lon="10.4416467"><ele>203.33333333333334</ele><time>2026-05-01T11:34:45.467Z</time></trkpt><trkpt lat="45.59268" lon="10.4415233"><ele>203.66666666666669</ele><time>2026-05-01T11:34:46.467Z</time></trkpt><trkpt lat="45.5925" lon="10.44141"><ele>204.0</ele><time>2026-05-01T11:34:47.467Z</time></trkpt><trkpt lat="45.59233" lon="10.441305"><ele>203.33333333333331</ele><time>2026-05-01T11:34:48.467Z</time></trkpt><trkpt lat="45.5921817" lon="10.4411983"><ele>202.66666666666666</ele><time>2026-05-01T11:34:49.467Z</time></trkpt><trkpt lat="45.592035" lon="10.44111"><ele>202.0</ele><time>2026-05-01T11:34:50.467Z</time></trkpt><trkpt lat="45.591905" lon="10.4410217"><ele>202.0</ele><time>2026-05-01T11:34:51.467Z</time></trkpt><trkpt lat="45.591785" lon="10.4409517"><ele>202.0</ele><time>2026-05-01T11:34:52.467Z</time></trkpt><trkpt lat="45.591665" lon="10.4408683"><ele>202.0</ele><time>2026-05-01T11:34:53.467Z</time></trkpt><trkpt lat="45.59155" lon="10.4407917"><ele>202.0</ele><time>2026-05-01T11:34:54.467Z</time></trkpt><trkpt lat="45.5914467" lon="10.4407217"><ele>202.0</ele><time>2026-05-01T11:34:55.467Z</time></trkpt><trkpt lat="45.59137" lon="10.4406567"><ele>202.0</ele><time>2026-05-01T11:34:56.467Z</time></trkpt><trkpt lat="45.5913167" lon="10.4405817"><ele>202.0</ele><time>2026-05-01T11:34:57.467Z</time></trkpt><trkpt lat="45.5912617" lon="10.4404967"><ele>202.0</ele><time>2026-05-01T11:34:58.467Z</time></trkpt><trkpt lat="45.5911833" lon="10.4404233"><ele>202.0</ele><time>2026-05-01T11:34:59.467Z</time></trkpt><trkpt lat="45.59107" lon="10.4403617"><ele>201.66666666666666</ele><time>2026-05-01T11:35:00.467Z</time></trkpt><trkpt lat="45.59093" lon="10.4403033"><ele>201.33333333333331</ele><time>2026-05-01T11:35:01.467Z</time></trkpt><trkpt lat="45.5907733" lon="10.44022"><ele>201.0</ele><time>2026-05-01T11:35:02.467Z</time></trkpt><trkpt lat="45.5906117" lon="10.4401033"><ele>201.0</ele><time>2026-05-01T11:35:03.467Z</time></trkpt><trkpt lat="45.5904483" lon="10.439985"><ele>201.0</ele><time>2026-05-01T11:35:04.467Z</time></trkpt><trkpt lat="45.5902733" lon="10.439865"><ele>201.0</ele><time>2026-05-01T11:35:05.467Z</time></trkpt><trkpt lat="45.5900933" lon="10.4397383"><ele>201.0</ele><time>2026-05-01T11:35:06.467Z</time></trkpt><trkpt lat="45.5899083" lon="10.4396133"><ele>201.0</ele><time>2026-05-01T11:35:07.467Z</time></trkpt><trkpt lat="45.5897233" lon="10.4394783"><ele>201.0</ele><time>2026-05-01T11:35:08.467Z</time></trkpt><trkpt lat="45.5895217" lon="10.43935"><ele>201.66666666666669</ele><time>2026-05-01T11:35:09.467Z</time></trkpt><trkpt lat="45.5893317" lon="10.43922"><ele>202.33333333333334</ele><time>2026-05-01T11:35:10.467Z</time></trkpt><trkpt lat="45.58915" lon="10.4390967"><ele>203.0</ele><time>2026-05-01T11:35:11.467Z</time></trkpt><trkpt lat="45.5889683" lon="10.4389767"><ele>203.0</ele><time>2026-05-01T11:35:12.467Z</time></trkpt><trkpt lat="45.58879" lon="10.4388583"><ele>203.0</ele><time>2026-05-01T11:35:13.467Z</time></trkpt><trkpt lat="45.5886267" lon="10.438755"><ele>203.0</ele><time>2026-05-01T11:35:14.468Z</time></trkpt><trkpt lat="45.5884683" lon="10.4386533"><ele>202.66666666666669</ele><time>2026-05-01T11:35:15.467Z</time></trkpt><trkpt lat="45.5883167" lon="10.4385333"><ele>202.33333333333331</ele><time>2026-05-01T11:35:16.467Z</time></trkpt><trkpt lat="45.5881667" lon="10.438435"><ele>202.0</ele><time>2026-05-01T11:35:17.467Z</time></trkpt><trkpt lat="45.5880183" lon="10.4383317"><ele>202.0</ele><time>2026-05-01T11:35:18.467Z</time></trkpt><trkpt lat="45.5878667" lon="10.4382217"><ele>202.0</ele><time>2026-05-01T11:35:19.467Z</time></trkpt><trkpt lat="45.5877233" lon="10.4381217"><ele>202.0</ele><time>2026-05-01T11:35:20.467Z</time></trkpt><trkpt lat="45.587565" lon="10.4380233"><ele>201.33333333333331</ele><time>2026-05-01T11:35:21.467Z</time></trkpt><trkpt lat="45.5874017" lon="10.4379467"><ele>200.66666666666669</ele><time>2026-05-01T11:35:22.467Z</time></trkpt><trkpt lat="45.58723" lon="10.437885"><ele>200.0</ele><time>2026-05-01T11:35:23.467Z</time></trkpt><trkpt lat="45.5870517" lon="10.437845"><ele>200.33333333333334</ele><time>2026-05-01T11:35:24.467Z</time></trkpt><trkpt lat="45.5868717" lon="10.43781"><ele>200.66666666666669</ele><time>2026-05-01T11:35:25.467Z</time></trkpt><trkpt lat="45.5866867" lon="10.43778"><ele>201.0</ele><time>2026-05-01T11:35:26.467Z</time></trkpt><trkpt lat="45.5865067" lon="10.4377517"><ele>201.0</ele><time>2026-05-01T11:35:27.467Z</time></trkpt><trkpt lat="45.58634" lon="10.4377233"><ele>201.0</ele><time>2026-05-01T11:35:28.467Z</time></trkpt><trkpt lat="45.5861733" lon="10.4376967"><ele>201.0</ele><time>2026-05-01T11:35:29.467Z</time></trkpt><trkpt lat="45.5860083" lon="10.4376783"><ele>201.0</ele><time>2026-05-01T11:35:30.467Z</time></trkpt><trkpt lat="45.5858467" lon="10.437665"><ele>201.0</ele><time>2026-05-01T11:35:31.467Z</time></trkpt><trkpt lat="45.585705" lon="10.4376383"><ele>201.0</ele><time>2026-05-01T11:35:32.467Z</time></trkpt><trkpt lat="45.5855717" lon="10.4376117"><ele>201.0</ele><time>2026-05-01T11:35:33.467Z</time></trkpt><trkpt lat="45.5854267" lon="10.437625"><ele>201.0</ele><time>2026-05-01T11:35:34.466Z</time></trkpt><trkpt lat="45.585315" lon="10.4375983"><ele>201.0</ele><time>2026-05-01T11:35:35.466Z</time></trkpt><trkpt lat="45.5852167" lon="10.4375433"><ele>201.0</ele><time>2026-05-01T11:35:36.466Z</time></trkpt><trkpt lat="45.5851267" lon="10.4374817"><ele>201.0</ele><time>2026-05-01T11:35:37.466Z</time></trkpt><trkpt lat="45.5850733" lon="10.437375"><ele>201.0</ele><time>2026-05-01T11:35:38.466Z</time></trkpt><trkpt lat="45.5850317" lon="10.4372633"><ele>201.0</ele><time>2026-05-01T11:35:39.466Z</time></trkpt><trkpt lat="45.584995" lon="10.437125"><ele>201.0</ele><time>2026-05-01T11:35:40.466Z</time></trkpt><trkpt lat="45.5849567" lon="10.4369833"><ele>201.0</ele><time>2026-05-01T11:35:41.467Z</time></trkpt><trkpt lat="45.5849167" lon="10.4368567"><ele>201.0</ele><time>2026-05-01T11:35:42.466Z</time></trkpt><trkpt lat="45.58488" lon="10.4367733"><ele>201.0</ele><time>2026-05-01T11:35:43.466Z</time></trkpt><trkpt lat="45.5848517" lon="10.436675"><ele>201.0</ele><time>2026-05-01T11:35:45.466Z</time></trkpt><trkpt lat="45.58481" lon="10.4365867"><ele>201.0</ele><time>2026-05-01T11:35:47.466Z</time></trkpt><trkpt lat="45.58471" lon="10.4364867"><ele>201.0</ele><time>2026-05-01T11:35:49.466Z</time></trkpt><trkpt lat="45.5846433" lon="10.4364333"><ele>201.0</ele><time>2026-05-01T11:35:50.466Z</time></trkpt><trkpt lat="45.5845683" lon="10.436385"><ele>201.0</ele><time>2026-05-01T11:35:51.466Z</time></trkpt><trkpt lat="45.5844767" lon="10.4363533"><ele>202.0</ele><time>2026-05-01T11:35:52.466Z</time></trkpt><trkpt lat="45.5843683" lon="10.4363783"><ele>203.0</ele><time>2026-05-01T11:35:53.466Z</time></trkpt><trkpt lat="45.584235" lon="10.4364383"><ele>204.0</ele><time>2026-05-01T11:35:54.466Z</time></trkpt><trkpt lat="45.58409" lon="10.4365217"><ele>205.0</ele><time>2026-05-01T11:35:55.466Z</time></trkpt><trkpt lat="45.58395" lon="10.4365917"><ele>205.0</ele><time>2026-05-01T11:35:56.466Z</time></trkpt><trkpt lat="45.5838" lon="10.4366767"><ele>205.0</ele><time>2026-05-01T11:35:57.466Z</time></trkpt><trkpt lat="45.5836317" lon="10.4367733"><ele>205.0</ele><time>2026-05-01T11:35:58.466Z</time></trkpt><trkpt lat="45.5834617" lon="10.4368583"><ele>205.66666666666666</ele><time>2026-05-01T11:35:59.466Z</time></trkpt><trkpt lat="45.583295" lon="10.4369383"><ele>206.33333333333331</ele><time>2026-05-01T11:36:00.466Z</time></trkpt><trkpt lat="45.5831433" lon="10.4370067"><ele>207.0</ele><time>2026-05-01T11:36:01.466Z</time></trkpt><trkpt lat="45.5829933" lon="10.4370767"><ele>206.0</ele><time>2026-05-01T11:36:02.467Z</time></trkpt><trkpt lat="45.5828583" lon="10.4371417"><ele>205.0</ele><time>2026-05-01T11:36:03.466Z</time></trkpt><trkpt lat="45.582735" lon="10.4371783"><ele>204.0</ele><time>2026-05-01T11:36:04.466Z</time></trkpt><trkpt lat="45.5826067" lon="10.4372067"><ele>203.0</ele><time>2026-05-01T11:36:05.466Z</time></trkpt><trkpt lat="45.582465" lon="10.4372333"><ele>203.0</ele><time>2026-05-01T11:36:06.466Z</time></trkpt><trkpt lat="45.5823217" lon="10.4372633"><ele>203.0</ele><time>2026-05-01T11:36:07.466Z</time></trkpt><trkpt lat="45.5821833" lon="10.4372883"><ele>203.0</ele><time>2026-05-01T11:36:08.466Z</time></trkpt><trkpt lat="45.5820433" lon="10.4373233"><ele>203.0</ele><time>2026-05-01T11:36:09.466Z</time></trkpt><trkpt lat="45.5818933" lon="10.4373517"><ele>202.0</ele><time>2026-05-01T11:36:10.466Z</time></trkpt><trkpt lat="45.5817383" lon="10.4373617"><ele>201.0</ele><time>2026-05-01T11:36:11.466Z</time></trkpt><trkpt lat="45.5815717" lon="10.4373833"><ele>200.0</ele><time>2026-05-01T11:36:12.466Z</time></trkpt><trkpt lat="45.581405" lon="10.4373983"><ele>200.0</ele><time>2026-05-01T11:36:13.467Z</time></trkpt><trkpt lat="45.5812433" lon="10.4374"><ele>200.0</ele><time>2026-05-01T11:36:14.466Z</time></trkpt><trkpt lat="45.58109" lon="10.4373783"><ele>200.0</ele><time>2026-05-01T11:36:15.466Z</time></trkpt><trkpt lat="45.5809383" lon="10.4373583"><ele>200.0</ele><time>2026-05-01T11:36:16.466Z</time></trkpt><trkpt lat="45.5807967" lon="10.4373517"><ele>200.0</ele><time>2026-05-01T11:36:17.466Z</time></trkpt><trkpt lat="45.5806667" lon="10.4373433"><ele>200.0</ele><time>2026-05-01T11:36:18.466Z</time></trkpt><trkpt lat="45.5805417" lon="10.4373283"><ele>200.0</ele><time>2026-05-01T11:36:19.466Z</time></trkpt><trkpt lat="45.5804183" lon="10.4373117"><ele>199.8</ele><time>2026-05-01T11:36:20.466Z</time></trkpt><trkpt lat="45.5803067" lon="10.4373017"><ele>199.6</ele><time>2026-05-01T11:36:21.466Z</time></trkpt><trkpt lat="45.580205" lon="10.4373017"><ele>199.39999999999998</ele><time>2026-05-01T11:36:22.466Z</time></trkpt><trkpt lat="45.5801" lon="10.4372867"><ele>199.2</ele><time>2026-05-01T11:36:23.466Z</time></trkpt><trkpt lat="45.579995" lon="10.4372867"><ele>199.0</ele><time>2026-05-01T11:36:24.466Z</time></trkpt><trkpt lat="45.579885" lon="10.43728"><ele>199.0</ele><time>2026-05-01T11:36:25.466Z</time></trkpt><trkpt lat="45.5797667" lon="10.4372683"><ele>199.0</ele><time>2026-05-01T11:36:26.466Z</time></trkpt><trkpt lat="45.57965" lon="10.43726"><ele>199.0</ele><time>2026-05-01T11:36:27.466Z</time></trkpt><trkpt lat="45.5795383" lon="10.4372467"><ele>199.0</ele><time>2026-05-01T11:36:28.466Z</time></trkpt><trkpt lat="45.5794317" lon="10.4372383"><ele>198.5</ele><time>2026-05-01T11:36:29.466Z</time></trkpt><trkpt lat="45.5793133" lon="10.43723"><ele>198.0</ele><time>2026-05-01T11:36:30.466Z</time></trkpt><trkpt lat="45.5791967" lon="10.43722"><ele>197.5</ele><time>2026-05-01T11:36:31.467Z</time></trkpt><trkpt lat="45.5790767" lon="10.4372033"><ele>197.0</ele><time>2026-05-01T11:36:32.466Z</time></trkpt><trkpt lat="45.5789567" lon="10.437185"><ele>197.0</ele><time>2026-05-01T11:36:33.466Z</time></trkpt><trkpt lat="45.5788367" lon="10.43718"><ele>197.0</ele><time>2026-05-01T11:36:34.466Z</time></trkpt><trkpt lat="45.578715" lon="10.437175"><ele>197.0</ele><time>2026-05-01T11:36:35.466Z</time></trkpt><trkpt lat="45.5785867" lon="10.4371717"><ele>197.0</ele><time>2026-05-01T11:36:36.466Z</time></trkpt><trkpt lat="45.5784433" lon="10.4371683"><ele>197.33333333333334</ele><time>2026-05-01T11:36:37.466Z</time></trkpt><trkpt lat="45.5782833" lon="10.43716"><ele>197.66666666666669</ele><time>2026-05-01T11:36:38.466Z</time></trkpt><trkpt lat="45.5781267" lon="10.4371483"><ele>198.0</ele><time>2026-05-01T11:36:39.467Z</time></trkpt><trkpt lat="45.5779717" lon="10.4371317"><ele>199.0</ele><time>2026-05-01T11:36:40.466Z</time></trkpt><trkpt lat="45.5778183" lon="10.4371133"><ele>200.0</ele><time>2026-05-01T11:36:41.466Z</time></trkpt><trkpt lat="45.5776583" lon="10.437095"><ele>201.0</ele><time>2026-05-01T11:36:42.466Z</time></trkpt><trkpt lat="45.57749" lon="10.4370833"><ele>201.0</ele><time>2026-05-01T11:36:43.466Z</time></trkpt><trkpt lat="45.5773267" lon="10.437065"><ele>201.0</ele><time>2026-05-01T11:36:44.466Z</time></trkpt><trkpt lat="45.5771567" lon="10.4370367"><ele>201.0</ele><time>2026-05-01T11:36:45.466Z</time></trkpt><trkpt lat="45.5769933" lon="10.4370117"><ele>200.5</ele><time>2026-05-01T11:36:46.467Z</time></trkpt><trkpt lat="45.5768367" lon="10.4369983"><ele>200.0</ele><time>2026-05-01T11:36:47.466Z</time></trkpt><trkpt lat="45.5766867" lon="10.4369883"><ele>199.5</ele><time>2026-05-01T11:36:48.466Z</time></trkpt><trkpt lat="45.57655" lon="10.4369817"><ele>199.0</ele><time>2026-05-01T11:36:49.466Z</time></trkpt><trkpt lat="45.5764267" lon="10.4369733"><ele>199.0</ele><time>2026-05-01T11:36:50.466Z</time></trkpt><trkpt lat="45.576315" lon="10.4369717"><ele>199.0</ele><time>2026-05-01T11:36:51.466Z</time></trkpt><trkpt lat="45.5762183" lon="10.4369633"><ele>199.0</ele><time>2026-05-01T11:36:52.466Z</time></trkpt><trkpt lat="45.5761233" lon="10.43696"><ele>199.0</ele><time>2026-05-01T11:36:53.466Z</time></trkpt><trkpt lat="45.5760383" lon="10.4369583"><ele>199.0</ele><time>2026-05-01T11:36:54.466Z</time></trkpt><trkpt lat="45.5759617" lon="10.4369567"><ele>198.79999999999998</ele><time>2026-05-01T11:36:55.466Z</time></trkpt><trkpt lat="45.5758783" lon="10.436955"><ele>198.6</ele><time>2026-05-01T11:36:57.466Z</time></trkpt><trkpt lat="45.575775" lon="10.4369417"><ele>198.4</ele><time>2026-05-01T11:37:01.466Z</time></trkpt><trkpt lat="45.5756667" lon="10.4370133"><ele>198.2</ele><time>2026-05-01T11:37:03.466Z</time></trkpt><trkpt lat="45.5756483" lon="10.43711"><ele>198.0</ele><time>2026-05-01T11:37:04.466Z</time></trkpt><trkpt lat="45.5756683" lon="10.4372383"><ele>197.75</ele><time>2026-05-01T11:37:05.466Z</time></trkpt><trkpt lat="45.5756983" lon="10.437395"><ele>197.5</ele><time>2026-05-01T11:37:06.466Z</time></trkpt><trkpt lat="45.5757483" lon="10.4375683"><ele>197.25</ele><time>2026-05-01T11:37:07.466Z</time></trkpt><trkpt lat="45.5757933" lon="10.4377783"><ele>197.0</ele><time>2026-05-01T11:37:08.466Z</time></trkpt><trkpt lat="45.5758383" lon="10.438"><ele>196.66666666666669</ele><time>2026-05-01T11:37:09.466Z</time></trkpt><trkpt lat="45.57589" lon="10.4382367"><ele>196.33333333333331</ele><time>2026-05-01T11:37:10.466Z</time></trkpt><trkpt lat="45.5759483" lon="10.4384917"><ele>196.0</ele><time>2026-05-01T11:37:11.466Z</time></trkpt><trkpt lat="45.5760117" lon="10.4387583"><ele>196.0</ele><time>2026-05-01T11:37:12.466Z</time></trkpt><trkpt lat="45.5760867" lon="10.4390283"><ele>196.0</ele><time>2026-05-01T11:37:13.466Z</time></trkpt><trkpt lat="45.576165" lon="10.4392967"><ele>196.0</ele><time>2026-05-01T11:37:14.466Z</time></trkpt><trkpt lat="45.5762417" lon="10.439575"><ele>194.66666666666666</ele><time>2026-05-01T11:37:15.466Z</time></trkpt><trkpt lat="45.576325" lon="10.4398533"><ele>193.33333333333331</ele><time>2026-05-01T11:37:16.466Z</time></trkpt><trkpt lat="45.5764033" lon="10.4401333"><ele>192.0</ele><time>2026-05-01T11:37:17.466Z</time></trkpt><trkpt lat="45.5764817" lon="10.4404233"><ele>192.33333333333331</ele><time>2026-05-01T11:37:18.466Z</time></trkpt><trkpt lat="45.57656" lon="10.4406867"><ele>192.66666666666666</ele><time>2026-05-01T11:37:19.466Z</time></trkpt><trkpt lat="45.576635" lon="10.4409417"><ele>193.0</ele><time>2026-05-01T11:37:20.466Z</time></trkpt><trkpt lat="45.576705" lon="10.4411767"><ele>194.0</ele><time>2026-05-01T11:37:21.466Z</time></trkpt><trkpt lat="45.5767767" lon="10.4414017"><ele>195.0</ele><time>2026-05-01T11:37:22.466Z</time></trkpt><trkpt lat="45.5768367" lon="10.44161"><ele>196.0</ele><time>2026-05-01T11:37:23.466Z</time></trkpt><trkpt lat="45.5768833" lon="10.44179"><ele>196.0</ele><time>2026-05-01T11:37:24.466Z</time></trkpt><trkpt lat="45.5769183" lon="10.4419383"><ele>196.0</ele><time>2026-05-01T11:37:25.466Z</time></trkpt><trkpt lat="45.5769333" lon="10.4420733"><ele>196.0</ele><time>2026-05-01T11:37:26.466Z</time></trkpt><trkpt lat="45.5769267" lon="10.4421967"><ele>196.0</ele><time>2026-05-01T11:37:27.466Z</time></trkpt><trkpt lat="45.5768933" lon="10.4423133"><ele>196.0</ele><time>2026-05-01T11:37:28.466Z</time></trkpt><trkpt lat="45.5768417" lon="10.4424233"><ele>196.75</ele><time>2026-05-01T11:37:29.466Z</time></trkpt><trkpt lat="45.5767667" lon="10.4425217"><ele>197.5</ele><time>2026-05-01T11:37:30.466Z</time></trkpt><trkpt lat="45.57667" lon="10.4425983"><ele>198.25</ele><time>2026-05-01T11:37:31.466Z</time></trkpt><trkpt lat="45.5765667" lon="10.44269"><ele>199.0</ele><time>2026-05-01T11:37:32.466Z</time></trkpt><trkpt lat="45.5764617" lon="10.4427967"><ele>199.0</ele><time>2026-05-01T11:37:33.466Z</time></trkpt><trkpt lat="45.5763617" lon="10.4428833"><ele>199.0</ele><time>2026-05-01T11:37:34.466Z</time></trkpt><trkpt lat="45.5762633" lon="10.442935"><ele>199.0</ele><time>2026-05-01T11:37:35.466Z</time></trkpt><trkpt lat="45.5761767" lon="10.4429917"><ele>199.0</ele><time>2026-05-01T11:37:36.466Z</time></trkpt><trkpt lat="45.576125" lon="10.4430683"><ele>199.0</ele><time>2026-05-01T11:37:37.466Z</time></trkpt><trkpt lat="45.5760933" lon="10.4431617"><ele>199.49999999999997</ele><time>2026-05-01T11:37:38.466Z</time></trkpt><trkpt lat="45.5760833" lon="10.4432633"><ele>200.0</ele><time>2026-05-01T11:37:39.466Z</time></trkpt><trkpt lat="45.5760833" lon="10.443375"><ele>200.5</ele><time>2026-05-01T11:37:40.466Z</time></trkpt><trkpt lat="45.5760817" lon="10.4434933"><ele>201.0</ele><time>2026-05-01T11:37:41.466Z</time></trkpt><trkpt lat="45.5760583" lon="10.44361"><ele>201.49999999999997</ele><time>2026-05-01T11:37:42.466Z</time></trkpt><trkpt lat="45.5760283" lon="10.4437333"><ele>202.0</ele><time>2026-05-01T11:37:43.466Z</time></trkpt><trkpt lat="45.5759783" lon="10.4438717"><ele>202.0</ele><time>2026-05-01T11:37:44.466Z</time></trkpt><trkpt lat="45.5759167" lon="10.4440317"><ele>202.0</ele><time>2026-05-01T11:37:45.466Z</time></trkpt><trkpt lat="45.5758433" lon="10.4442117"><ele>202.0</ele><time>2026-05-01T11:37:46.466Z</time></trkpt><trkpt lat="45.5757667" lon="10.44441"><ele>202.0</ele><time>2026-05-01T11:37:47.466Z</time></trkpt><trkpt lat="45.57569" lon="10.4446317"><ele>202.0</ele><time>2026-05-01T11:37:48.466Z</time></trkpt><trkpt lat="45.5756117" lon="10.4448533"><ele>202.0</ele><time>2026-05-01T11:37:49.466Z</time></trkpt><trkpt lat="45.57551" lon="10.4450733"><ele>202.0</ele><time>2026-05-01T11:37:50.466Z</time></trkpt><trkpt lat="45.5753983" lon="10.4452967"><ele>203.33333333333331</ele><time>2026-05-01T11:37:51.466Z</time></trkpt><trkpt lat="45.5752883" lon="10.445535"><ele>204.66666666666669</ele><time>2026-05-01T11:37:52.466Z</time></trkpt><trkpt lat="45.5751667" lon="10.4457617"><ele>206.0</ele><time>2026-05-01T11:37:53.466Z</time></trkpt><trkpt lat="45.57504" lon="10.445985"><ele>206.0</ele><time>2026-05-01T11:37:54.466Z</time></trkpt><trkpt lat="45.5749117" lon="10.4462083"><ele>206.0</ele><time>2026-05-01T11:37:55.466Z</time></trkpt><trkpt lat="45.5747717" lon="10.446425"><ele>206.0</ele><time>2026-05-01T11:37:56.466Z</time></trkpt><trkpt lat="45.5746217" lon="10.4466233"><ele>207.0</ele><time>2026-05-01T11:37:57.466Z</time></trkpt><trkpt lat="45.574475" lon="10.44682"><ele>208.0</ele><time>2026-05-01T11:37:58.466Z</time></trkpt><trkpt lat="45.5743283" lon="10.447025"><ele>209.0</ele><time>2026-05-01T11:37:59.466Z</time></trkpt><trkpt lat="45.5741883" lon="10.44723"><ele>210.33333333333334</ele><time>2026-05-01T11:38:00.466Z</time></trkpt><trkpt lat="45.5740483" lon="10.44743"><ele>211.66666666666669</ele><time>2026-05-01T11:38:01.466Z</time></trkpt><trkpt lat="45.57391" lon="10.447625"><ele>213.0</ele><time>2026-05-01T11:38:02.466Z</time></trkpt><trkpt lat="45.5737783" lon="10.4478233"><ele>215.33333333333331</ele><time>2026-05-01T11:38:03.466Z</time></trkpt><trkpt lat="45.57366" lon="10.44803"><ele>217.66666666666666</ele><time>2026-05-01T11:38:04.466Z</time></trkpt><trkpt lat="45.57356" lon="10.448255"><ele>220.0</ele><time>2026-05-01T11:38:05.467Z</time></trkpt><trkpt lat="45.5734667" lon="10.4484983"><ele>220.0</ele><time>2026-05-01T11:38:06.466Z</time></trkpt><trkpt lat="45.5733833" lon="10.448745"><ele>220.0</ele><time>2026-05-01T11:38:07.466Z</time></trkpt><trkpt lat="45.5733167" lon="10.4489933"><ele>220.0</ele><time>2026-05-01T11:38:08.467Z</time></trkpt><trkpt lat="45.5732533" lon="10.4492433"><ele>220.66666666666666</ele><time>2026-05-01T11:38:09.466Z</time></trkpt><trkpt lat="45.57319" lon="10.4494867"><ele>221.33333333333331</ele><time>2026-05-01T11:38:10.466Z</time></trkpt><trkpt lat="45.57311" lon="10.4497117"><ele>222.0</ele><time>2026-05-01T11:38:11.466Z</time></trkpt><trkpt lat="45.573015" lon="10.4499333"><ele>222.0</ele><time>2026-05-01T11:38:12.466Z</time></trkpt><trkpt lat="45.5728967" lon="10.4501333"><ele>222.0</ele><time>2026-05-01T11:38:13.466Z</time></trkpt><trkpt lat="45.5727683" lon="10.4503183"><ele>222.0</ele><time>2026-05-01T11:38:14.466Z</time></trkpt><trkpt lat="45.572625" lon="10.4505"><ele>222.66666666666669</ele><time>2026-05-01T11:38:15.466Z</time></trkpt><trkpt lat="45.5724767" lon="10.45068"><ele>223.33333333333334</ele><time>2026-05-01T11:38:16.466Z</time></trkpt><trkpt lat="45.5723333" lon="10.45086"><ele>224.0</ele><time>2026-05-01T11:38:17.466Z</time></trkpt><trkpt lat="45.5721933" lon="10.45105"><ele>224.0</ele><time>2026-05-01T11:38:18.466Z</time></trkpt><trkpt lat="45.5720533" lon="10.4512317"><ele>224.0</ele><time>2026-05-01T11:38:19.466Z</time></trkpt><trkpt lat="45.571915" lon="10.4514167"><ele>224.0</ele><time>2026-05-01T11:38:20.466Z</time></trkpt><trkpt lat="45.5717817" lon="10.4516117"><ele>224.33333333333334</ele><time>2026-05-01T11:38:21.466Z</time></trkpt><trkpt lat="45.5716567" lon="10.4518083"><ele>224.66666666666669</ele><time>2026-05-01T11:38:22.466Z</time></trkpt><trkpt lat="45.5715333" lon="10.452025"><ele>225.0</ele><time>2026-05-01T11:38:23.466Z</time></trkpt><trkpt lat="45.57141" lon="10.4522367"><ele>225.0</ele><time>2026-05-01T11:38:24.466Z</time></trkpt><trkpt lat="45.571285" lon="10.4524383"><ele>225.0</ele><time>2026-05-01T11:38:25.466Z</time></trkpt><trkpt lat="45.5711567" lon="10.4526483"><ele>225.0</ele><time>2026-05-01T11:38:26.466Z</time></trkpt><trkpt lat="45.571035" lon="10.4528483"><ele>225.33333333333331</ele><time>2026-05-01T11:38:27.466Z</time></trkpt><trkpt lat="45.57091" lon="10.4530517"><ele>225.66666666666666</ele><time>2026-05-01T11:38:28.467Z</time></trkpt><trkpt lat="45.5707883" lon="10.4532133"><ele>226.0</ele><time>2026-05-01T11:38:29.466Z</time></trkpt><trkpt lat="45.57068" lon="10.4533317"><ele>226.0</ele><time>2026-05-01T11:38:30.466Z</time></trkpt><trkpt lat="45.57058" lon="10.4533833"><ele>226.0</ele><time>2026-05-01T11:38:31.466Z</time></trkpt><trkpt lat="45.5704667" lon="10.4533717"><ele>226.0</ele><time>2026-05-01T11:38:32.467Z</time></trkpt><trkpt lat="45.5703533" lon="10.45331"><ele>226.0</ele><time>2026-05-01T11:38:33.466Z</time></trkpt><trkpt lat="45.57022" lon="10.4532467"><ele>226.0</ele><time>2026-05-01T11:38:34.466Z</time></trkpt><trkpt lat="45.5700717" lon="10.4531783"><ele>226.0</ele><time>2026-05-01T11:38:35.466Z</time></trkpt><trkpt lat="45.569915" lon="10.4531117"><ele>226.0</ele><time>2026-05-01T11:38:36.466Z</time></trkpt><trkpt lat="45.5697383" lon="10.4530517"><ele>226.0</ele><time>2026-05-01T11:38:37.466Z</time></trkpt><trkpt lat="45.5695567" lon="10.4529783"><ele>226.0</ele><time>2026-05-01T11:38:38.466Z</time></trkpt><trkpt lat="45.56937" lon="10.45291"><ele>226.0</ele><time>2026-05-01T11:38:39.467Z</time></trkpt><trkpt lat="45.5691883" lon="10.452865"><ele>226.0</ele><time>2026-05-01T11:38:40.466Z</time></trkpt><trkpt lat="45.569" lon="10.4528467"><ele>226.0</ele><time>2026-05-01T11:38:41.466Z</time></trkpt><trkpt lat="45.56881" lon="10.4528383"><ele>226.0</ele><time>2026-05-01T11:38:42.466Z</time></trkpt><trkpt lat="45.5686217" lon="10.45281"><ele>226.33333333333331</ele><time>2026-05-01T11:38:43.466Z</time></trkpt><trkpt lat="45.5684383" lon="10.45277"><ele>226.66666666666669</ele><time>2026-05-01T11:38:44.466Z</time></trkpt><trkpt lat="45.56826" lon="10.4527283"><ele>227.0</ele><time>2026-05-01T11:38:45.466Z</time></trkpt><trkpt lat="45.56808" lon="10.452695"><ele>227.0</ele><time>2026-05-01T11:38:46.466Z</time></trkpt><trkpt lat="45.5679017" lon="10.4526667"><ele>227.0</ele><time>2026-05-01T11:38:47.466Z</time></trkpt><trkpt lat="45.5677333" lon="10.4526283"><ele>227.0</ele><time>2026-05-01T11:38:48.466Z</time></trkpt><trkpt lat="45.5675733" lon="10.4526033"><ele>227.25</ele><time>2026-05-01T11:38:49.466Z</time></trkpt><trkpt lat="45.56743" lon="10.4525717"><ele>227.5</ele><time>2026-05-01T11:38:50.466Z</time></trkpt><trkpt lat="45.5672883" lon="10.4525433"><ele>227.75</ele><time>2026-05-01T11:38:51.466Z</time></trkpt><trkpt lat="45.56715" lon="10.4525133"><ele>228.0</ele><time>2026-05-01T11:38:52.466Z</time></trkpt><trkpt lat="45.56702" lon="10.4524883"><ele>228.25</ele><time>2026-05-01T11:38:53.466Z</time></trkpt><trkpt lat="45.566895" lon="10.4524633"><ele>228.5</ele><time>2026-05-01T11:38:54.466Z</time></trkpt><trkpt lat="45.5667733" lon="10.4524433"><ele>228.75</ele><time>2026-05-01T11:38:55.466Z</time></trkpt><trkpt lat="45.56666" lon="10.452425"><ele>229.0</ele><time>2026-05-01T11:38:56.467Z</time></trkpt><trkpt lat="45.566555" lon="10.4524083"><ele>228.99999999999997</ele><time>2026-05-01T11:38:57.466Z</time></trkpt><trkpt lat="45.56646" lon="10.45239"><ele>229.0</ele><time>2026-05-01T11:38:58.466Z</time></trkpt><trkpt lat="45.5663683" lon="10.4524017"><ele>229.0</ele><time>2026-05-01T11:38:59.466Z</time></trkpt><trkpt lat="45.5662767" lon="10.4524483"><ele>229.0</ele><time>2026-05-01T11:39:00.466Z</time></trkpt><trkpt lat="45.56621" lon="10.4525317"><ele>228.99999999999997</ele><time>2026-05-01T11:39:01.466Z</time></trkpt><trkpt lat="45.5661733" lon="10.4526233"><ele>229.0</ele><time>2026-05-01T11:39:02.466Z</time></trkpt><trkpt lat="45.5661667" lon="10.452715"><ele>228.99999999999997</ele><time>2026-05-01T11:39:03.466Z</time></trkpt><trkpt lat="45.566185" lon="10.4528617"><ele>229.0</ele><time>2026-05-01T11:39:05.466Z</time></trkpt><trkpt lat="45.566195" lon="10.452955"><ele>229.0</ele><time>2026-05-01T11:39:06.466Z</time></trkpt><trkpt lat="45.5662033" lon="10.4530667"><ele>229.0</ele><time>2026-05-01T11:39:07.466Z</time></trkpt><trkpt lat="45.5662233" lon="10.4531867"><ele>228.99999999999997</ele><time>2026-05-01T11:39:08.466Z</time></trkpt><trkpt lat="45.56623" lon="10.4532867"><ele>229.0</ele><time>2026-05-01T11:39:09.466Z</time></trkpt><trkpt lat="45.566245" lon="10.4533983"><ele>228.99999999999997</ele><time>2026-05-01T11:39:11.466Z</time></trkpt><trkpt lat="45.5663017" lon="10.4533417"><ele>229.0</ele><time>2026-05-01T11:39:14.466Z</time></trkpt><trkpt lat="45.566295" lon="10.4531567"><ele>229.0</ele><time>2026-05-01T11:39:16.466Z</time></trkpt><trkpt lat="45.5662817" lon="10.4530283"><ele>229.0</ele><time>2026-05-01T11:39:17.466Z</time></trkpt><trkpt lat="45.56625" lon="10.4529183"><ele>228.99999999999997</ele><time>2026-05-01T11:39:18.466Z</time></trkpt><trkpt lat="45.5662117" lon="10.4528317"><ele>229.0</ele><time>2026-05-01T11:39:19.466Z</time></trkpt><trkpt lat="45.5661583" lon="10.4527517"><ele>229.0</ele><time>2026-05-01T11:39:20.466Z</time></trkpt><trkpt lat="45.5660933" lon="10.4526917"><ele>228.99999999999997</ele><time>2026-05-01T11:39:21.466Z</time></trkpt><trkpt lat="45.5660017" lon="10.45265"><ele>228.99999999999997</ele><time>2026-05-01T11:39:22.466Z</time></trkpt><trkpt lat="45.5659033" lon="10.452615"><ele>229.0</ele><time>2026-05-01T11:39:23.466Z</time></trkpt><trkpt lat="45.5657917" lon="10.4526233"><ele>229.0</ele><time>2026-05-01T11:39:24.466Z</time></trkpt><trkpt lat="45.5657017" lon="10.4526117"><ele>228.99999999999997</ele><time>2026-05-01T11:39:25.466Z</time></trkpt><trkpt lat="45.5656317" lon="10.4526167"><ele>229.0</ele><time>2026-05-01T11:39:26.466Z</time></trkpt><trkpt lat="45.5655817" lon="10.4525533"><ele>229.0</ele><time>2026-05-01T11:39:30.466Z</time></trkpt><trkpt lat="45.565605" lon="10.4524367"><ele>229.0</ele><time>2026-05-01T11:39:32.466Z</time></trkpt><trkpt lat="45.56557" lon="10.4523317"><ele>228.99999999999997</ele><time>2026-05-01T11:39:34.466Z</time></trkpt><trkpt lat="45.5654467" lon="10.4522483"><ele>229.0</ele><time>2026-05-01T11:39:36.466Z</time></trkpt><trkpt lat="45.5653483" lon="10.4522133"><ele>228.39999999999998</ele><time>2026-05-01T11:39:37.466Z</time></trkpt><trkpt lat="45.5652267" lon="10.4521833"><ele>227.79999999999998</ele><time>2026-05-01T11:39:38.467Z</time></trkpt><trkpt lat="45.5651033" lon="10.45216"><ele>227.20000000000002</ele><time>2026-05-01T11:39:39.466Z</time></trkpt><trkpt lat="45.5649967" lon="10.4521517"><ele>226.60000000000002</ele><time>2026-05-01T11:39:40.466Z</time></trkpt><trkpt lat="45.5649217" lon="10.452125"><ele>226.0</ele><time>2026-05-01T11:39:41.466Z</time></trkpt><trkpt lat="45.564825" lon="10.4520517"><ele>225.60000000000002</ele><time>2026-05-01T11:39:43.466Z</time></trkpt><trkpt lat="45.564815" lon="10.4518933"><ele>225.20000000000002</ele><time>2026-05-01T11:39:45.466Z</time></trkpt><trkpt lat="45.56483" lon="10.4517783"><ele>224.79999999999998</ele><time>2026-05-01T11:39:46.466Z</time></trkpt><trkpt lat="45.5648483" lon="10.4516683"><ele>224.39999999999998</ele><time>2026-05-01T11:39:47.466Z</time></trkpt><trkpt lat="45.5648633" lon="10.45158"><ele>224.0</ele><time>2026-05-01T11:39:48.466Z</time></trkpt><trkpt lat="45.5649017" lon="10.451415"><ele>223.2</ele><time>2026-05-01T11:39:50.466Z</time></trkpt><trkpt lat="45.5649233" lon="10.4512633"><ele>222.39999999999998</ele><time>2026-05-01T11:39:52.466Z</time></trkpt><trkpt lat="45.5649283" lon="10.45116"><ele>221.6</ele><time>2026-05-01T11:39:54.467Z</time></trkpt><trkpt lat="45.5648883" lon="10.4510883"><ele>220.8</ele><time>2026-05-01T11:39:57.466Z</time></trkpt><trkpt lat="45.5647783" lon="10.451095"><ele>220.0</ele><time>2026-05-01T11:40:00.466Z</time></trkpt><trkpt lat="45.5646683" lon="10.45106"><ele>220.0</ele><time>2026-05-01T11:40:02.466Z</time></trkpt><trkpt lat="45.564575" lon="10.450995"><ele>220.0</ele><time>2026-05-01T11:40:04.466Z</time></trkpt><trkpt lat="45.56452" lon="10.45094"><ele>220.0</ele><time>2026-05-01T11:40:06.466Z</time></trkpt><trkpt lat="45.564605" lon="10.4510467"><ele>220.0</ele><time>2026-05-01T11:40:15.466Z</time></trkpt><trkpt lat="45.56469" lon="10.45108"><ele>220.0</ele><time>2026-05-01T11:40:16.466Z</time></trkpt><trkpt lat="45.56477" lon="10.4510917"><ele>220.0</ele><time>2026-05-01T11:40:17.466Z</time></trkpt><trkpt lat="45.5648717" lon="10.451115"><ele>220.0</ele><time>2026-05-01T11:40:19.466Z</time></trkpt><trkpt lat="45.5648917" lon="10.4512317"><ele>220.0</ele><time>2026-05-01T11:40:22.466Z</time></trkpt><trkpt lat="45.5648817" lon="10.451405"><ele>220.0</ele><time>2026-05-01T11:40:24.466Z</time></trkpt><trkpt lat="45.5648717" lon="10.4515233"><ele>220.0</ele><time>2026-05-01T11:40:25.466Z</time></trkpt><trkpt lat="45.5648617" lon="10.4516517"><ele>220.66666666666666</ele><time>2026-05-01T11:40:26.466Z</time></trkpt><trkpt lat="45.56485" lon="10.4517883"><ele>221.33333333333331</ele><time>2026-05-01T11:40:27.466Z</time></trkpt><trkpt lat="45.564845" lon="10.4519117"><ele>222.0</ele><time>2026-05-01T11:40:28.466Z</time></trkpt><trkpt lat="45.564835" lon="10.4520633"><ele>222.66666666666669</ele><time>2026-05-01T11:40:30.466Z</time></trkpt><trkpt lat="45.5648867" lon="10.4521483"><ele>223.33333333333334</ele><time>2026-05-01T11:40:32.466Z</time></trkpt><trkpt lat="45.5649483" lon="10.45217"><ele>224.0</ele><time>2026-05-01T11:40:33.466Z</time></trkpt><trkpt lat="45.5650333" lon="10.4521933"><ele>224.39999999999998</ele><time>2026-05-01T11:40:34.466Z</time></trkpt><trkpt lat="45.565135" lon="10.4522167"><ele>224.79999999999998</ele><time>2026-05-01T11:40:35.466Z</time></trkpt><trkpt lat="45.565235" lon="10.452245"><ele>225.20000000000002</ele><time>2026-05-01T11:40:36.466Z</time></trkpt><trkpt lat="45.5653383" lon="10.452265"><ele>225.60000000000002</ele><time>2026-05-01T11:40:37.466Z</time></trkpt><trkpt lat="45.5654167" lon="10.4522917"><ele>226.0</ele><time>2026-05-01T11:40:38.466Z</time></trkpt><trkpt lat="45.56549" lon="10.45231"><ele>226.60000000000002</ele><time>2026-05-01T11:40:39.466Z</time></trkpt><trkpt lat="45.5655983" lon="10.45236"><ele>227.20000000000002</ele><time>2026-05-01T11:40:41.466Z</time></trkpt><trkpt lat="45.5656567" lon="10.4524683"><ele>227.79999999999998</ele><time>2026-05-01T11:40:43.466Z</time></trkpt><trkpt lat="45.5656467" lon="10.4526017"><ele>228.39999999999998</ele><time>2026-05-01T11:40:45.466Z</time></trkpt><trkpt lat="45.5656983" lon="10.4526567"><ele>229.0</ele><time>2026-05-01T11:40:47.466Z</time></trkpt><trkpt lat="45.5658433" lon="10.4526867"><ele>229.0</ele><time>2026-05-01T11:40:49.467Z</time></trkpt><trkpt lat="45.5659317" lon="10.45271"><ele>228.99999999999997</ele><time>2026-05-01T11:40:50.466Z</time></trkpt><trkpt lat="45.5660217" lon="10.4527467"><ele>228.99999999999997</ele><time>2026-05-01T11:40:51.466Z</time></trkpt><trkpt lat="45.5660883" lon="10.4527717"><ele>229.0</ele><time>2026-05-01T11:40:52.466Z</time></trkpt><trkpt lat="45.5661817" lon="10.4528083"><ele>229.0</ele><time>2026-05-01T11:40:54.466Z</time></trkpt><trkpt lat="45.5662283" lon="10.4529383"><ele>229.25</ele><time>2026-05-01T11:40:56.466Z</time></trkpt><trkpt lat="45.5662283" lon="10.4530667"><ele>229.5</ele><time>2026-05-01T11:40:57.466Z</time></trkpt><trkpt lat="45.5662417" lon="10.45323"><ele>229.75</ele><time>2026-05-01T11:40:58.466Z</time></trkpt><trkpt lat="45.56626" lon="10.453415"><ele>230.0</ele><time>2026-05-01T11:40:59.466Z</time></trkpt><trkpt lat="45.5662883" lon="10.4536067"><ele>230.2</ele><time>2026-05-01T11:41:00.466Z</time></trkpt><trkpt lat="45.56631" lon="10.4538017"><ele>230.4</ele><time>2026-05-01T11:41:01.466Z</time></trkpt><trkpt lat="45.5663267" lon="10.4539717"><ele>230.60000000000002</ele><time>2026-05-01T11:41:02.466Z</time></trkpt><trkpt lat="45.56634" lon="10.4541067"><ele>230.8</ele><time>2026-05-01T11:41:03.466Z</time></trkpt><trkpt lat="45.5663517" lon="10.454225"><ele>231.0</ele><time>2026-05-01T11:41:04.466Z</time></trkpt><trkpt lat="45.5663833" lon="10.4543933"><ele>231.0</ele><time>2026-05-01T11:41:06.466Z</time></trkpt><trkpt lat="45.56639" lon="10.45449"><ele>231.00000000000003</ele><time>2026-05-01T11:41:07.466Z</time></trkpt><trkpt lat="45.56639" lon="10.4546017"><ele>231.00000000000003</ele><time>2026-05-01T11:41:08.466Z</time></trkpt><trkpt lat="45.56639" lon="10.454745"><ele>231.0</ele><time>2026-05-01T11:41:09.466Z</time></trkpt><trkpt lat="45.566405" lon="10.454895"><ele>231.0</ele><time>2026-05-01T11:41:10.466Z</time></trkpt><trkpt lat="45.5664367" lon="10.4550683"><ele>231.25</ele><time>2026-05-01T11:41:11.466Z</time></trkpt><trkpt lat="45.5664733" lon="10.4552433"><ele>231.5</ele><time>2026-05-01T11:41:12.466Z</time></trkpt><trkpt lat="45.56652" lon="10.4554217"><ele>231.75</ele><time>2026-05-01T11:41:13.466Z</time></trkpt><trkpt lat="45.5665733" lon="10.45559"><ele>232.0</ele><time>2026-05-01T11:41:14.466Z</time></trkpt><trkpt lat="45.56663" lon="10.4557467"><ele>232.0</ele><time>2026-05-01T11:41:15.466Z</time></trkpt><trkpt lat="45.5666933" lon="10.455895"><ele>232.0</ele><time>2026-05-01T11:41:16.466Z</time></trkpt><trkpt lat="45.5667633" lon="10.45605"><ele>232.0</ele><time>2026-05-01T11:41:17.466Z</time></trkpt><trkpt lat="45.5668333" lon="10.45621"><ele>232.0</ele><time>2026-05-01T11:41:18.467Z</time></trkpt><trkpt lat="45.566905" lon="10.456385"><ele>232.25</ele><time>2026-05-01T11:41:19.466Z</time></trkpt><trkpt lat="45.566965" lon="10.45656"><ele>232.5</ele><time>2026-05-01T11:41:20.466Z</time></trkpt><trkpt lat="45.5670167" lon="10.45673"><ele>232.75</ele><time>2026-05-01T11:41:21.466Z</time></trkpt><trkpt lat="45.5670617" lon="10.4568833"><ele>233.0</ele><time>2026-05-01T11:41:22.466Z</time></trkpt><trkpt lat="45.5671" lon="10.4570317"><ele>233.4</ele><time>2026-05-01T11:41:23.466Z</time></trkpt><trkpt lat="45.567125" lon="10.457165"><ele>233.8</ele><time>2026-05-01T11:41:24.466Z</time></trkpt><trkpt lat="45.56712" lon="10.4572817"><ele>234.2</ele><time>2026-05-01T11:41:25.466Z</time></trkpt><trkpt lat="45.567095" lon="10.45739"><ele>234.6</ele><time>2026-05-01T11:41:26.466Z</time></trkpt><trkpt lat="45.5670483" lon="10.4575033"><ele>235.0</ele><time>2026-05-01T11:41:27.466Z</time></trkpt><trkpt lat="45.5669733" lon="10.4576233"><ele>235.0</ele><time>2026-05-01T11:41:28.466Z</time></trkpt><trkpt lat="45.5668733" lon="10.4577617"><ele>235.0</ele><time>2026-05-01T11:41:29.466Z</time></trkpt><trkpt lat="45.5667483" lon="10.4579167"><ele>235.0</ele><time>2026-05-01T11:41:30.466Z</time></trkpt><trkpt lat="45.5666217" lon="10.4580867"><ele>235.25</ele><time>2026-05-01T11:41:31.466Z</time></trkpt><trkpt lat="45.566505" lon="10.458255"><ele>235.5</ele><time>2026-05-01T11:41:32.466Z</time></trkpt><trkpt lat="45.5664083" lon="10.4584067"><ele>235.75</ele><time>2026-05-01T11:41:33.466Z</time></trkpt><trkpt lat="45.5663167" lon="10.4585383"><ele>236.0</ele><time>2026-05-01T11:41:34.466Z</time></trkpt><trkpt lat="45.5662183" lon="10.4586333"><ele>236.75</ele><time>2026-05-01T11:41:35.466Z</time></trkpt><trkpt lat="45.5661033" lon="10.4586733"><ele>237.5</ele><time>2026-05-01T11:41:36.467Z</time></trkpt><trkpt lat="45.5659683" lon="10.4586667"><ele>238.25</ele><time>2026-05-01T11:41:37.466Z</time></trkpt><trkpt lat="45.565835" lon="10.458625"><ele>239.0</ele><time>2026-05-01T11:41:38.466Z</time></trkpt><trkpt lat="45.565705" lon="10.4585667"><ele>239.0</ele><time>2026-05-01T11:41:39.466Z</time></trkpt><trkpt lat="45.5655783" lon="10.4585117"><ele>239.0</ele><time>2026-05-01T11:41:40.466Z</time></trkpt><trkpt lat="45.565455" lon="10.4584683"><ele>239.0</ele><time>2026-05-01T11:41:41.466Z</time></trkpt><trkpt lat="45.56533" lon="10.4584517"><ele>239.0</ele><time>2026-05-01T11:41:42.466Z</time></trkpt><trkpt lat="45.5652083" lon="10.4584367"><ele>238.75</ele><time>2026-05-01T11:41:43.466Z</time></trkpt><trkpt lat="45.5650933" lon="10.4584"><ele>238.5</ele><time>2026-05-01T11:41:44.466Z</time></trkpt><trkpt lat="45.5649783" lon="10.458335"><ele>238.25</ele><time>2026-05-01T11:41:45.466Z</time></trkpt><trkpt lat="45.5648667" lon="10.45827"><ele>238.0</ele><time>2026-05-01T11:41:46.466Z</time></trkpt><trkpt lat="45.56476" lon="10.4581883"><ele>238.0</ele><time>2026-05-01T11:41:47.466Z</time></trkpt><trkpt lat="45.5646483" lon="10.45811"><ele>238.0</ele><time>2026-05-01T11:41:48.466Z</time></trkpt><trkpt lat="45.5645383" lon="10.4580367"><ele>238.0</ele><time>2026-05-01T11:41:49.466Z</time></trkpt><trkpt lat="45.5644183" lon="10.457975"><ele>238.0</ele><time>2026-05-01T11:41:50.466Z</time></trkpt><trkpt lat="45.5642917" lon="10.457915"><ele>237.5</ele><time>2026-05-01T11:41:51.466Z</time></trkpt><trkpt lat="45.5641767" lon="10.4578483"><ele>237.0</ele><time>2026-05-01T11:41:52.466Z</time></trkpt><trkpt lat="45.5640533" lon="10.457785"><ele>236.5</ele><time>2026-05-01T11:41:53.466Z</time></trkpt><trkpt lat="45.5639383" lon="10.4577217"><ele>236.0</ele><time>2026-05-01T11:41:54.466Z</time></trkpt><trkpt lat="45.56383" lon="10.4576583"><ele>236.00000000000003</ele><time>2026-05-01T11:41:55.466Z</time></trkpt><trkpt lat="45.5637317" lon="10.45761"><ele>236.0</ele><time>2026-05-01T11:41:56.466Z</time></trkpt><trkpt lat="45.5636467" lon="10.4575717"><ele>236.0</ele><time>2026-05-01T11:41:57.466Z</time></trkpt><trkpt lat="45.56358" lon="10.45754"><ele>236.0</ele><time>2026-05-01T11:41:58.466Z</time></trkpt><trkpt lat="45.5634933" lon="10.4575033"><ele>236.00000000000003</ele><time>2026-05-01T11:42:00.466Z</time></trkpt><trkpt lat="45.5634033" lon="10.4575017"><ele>236.0</ele><time>2026-05-01T11:42:17.466Z</time></trkpt><trkpt lat="45.5633417" lon="10.457525"><ele>236.0</ele><time>2026-05-01T11:42:19.466Z</time></trkpt><trkpt lat="45.5632883" lon="10.4574767"><ele>236.00000000000003</ele><time>2026-05-01T11:42:29.466Z</time></trkpt><trkpt lat="45.56327" lon="10.4572783"><ele>236.00000000000003</ele><time>2026-05-01T11:42:31.466Z</time></trkpt><trkpt lat="45.5632683" lon="10.45715"><ele>236.0</ele><time>2026-05-01T11:42:32.466Z</time></trkpt><trkpt lat="45.5632683" lon="10.45703"><ele>236.0</ele><time>2026-05-01T11:42:33.466Z</time></trkpt><trkpt lat="45.5632767" lon="10.4569183"><ele>235.66666666666669</ele><time>2026-05-01T11:42:34.466Z</time></trkpt><trkpt lat="45.5632867" lon="10.456825"><ele>235.33333333333334</ele><time>2026-05-01T11:42:35.466Z</time></trkpt><trkpt lat="45.5633067" lon="10.4567283"><ele>235.0</ele><time>2026-05-01T11:42:36.466Z</time></trkpt><trkpt lat="45.5633217" lon="10.45661"><ele>234.66666666666669</ele><time>2026-05-01T11:42:37.466Z</time></trkpt><trkpt lat="45.56334" lon="10.4564867"><ele>234.33333333333334</ele><time>2026-05-01T11:42:38.466Z</time></trkpt><trkpt lat="45.5633617" lon="10.4563533"><ele>234.0</ele><time>2026-05-01T11:42:39.466Z</time></trkpt><trkpt lat="45.5633833" lon="10.456215"><ele>233.83333333333334</ele><time>2026-05-01T11:42:40.466Z</time></trkpt><trkpt lat="45.5634" lon="10.456095"><ele>233.66666666666669</ele><time>2026-05-01T11:42:41.466Z</time></trkpt><trkpt lat="45.563415" lon="10.455985"><ele>233.5</ele><time>2026-05-01T11:42:42.466Z</time></trkpt><trkpt lat="45.563425" lon="10.4558767"><ele>233.33333333333334</ele><time>2026-05-01T11:42:43.466Z</time></trkpt><trkpt lat="45.5634317" lon="10.455715"><ele>233.16666666666669</ele><time>2026-05-01T11:42:45.467Z</time></trkpt><trkpt lat="45.563405" lon="10.4555967"><ele>233.0</ele><time>2026-05-01T11:42:47.466Z</time></trkpt><trkpt lat="45.5632967" lon="10.4555033"><ele>232.33333333333334</ele><time>2026-05-01T11:42:49.466Z</time></trkpt><trkpt lat="45.5632183" lon="10.4554383"><ele>231.66666666666669</ele><time>2026-05-01T11:42:50.466Z</time></trkpt><trkpt lat="45.563145" lon="10.4553933"><ele>231.0</ele><time>2026-05-01T11:42:51.466Z</time></trkpt><trkpt lat="45.5630783" lon="10.4553433"><ele>230.33333333333331</ele><time>2026-05-01T11:42:52.466Z</time></trkpt><trkpt lat="45.563005" lon="10.4552867"><ele>229.66666666666666</ele><time>2026-05-01T11:42:53.466Z</time></trkpt><trkpt lat="45.5629267" lon="10.4552133"><ele>229.0</ele><time>2026-05-01T11:42:54.467Z</time></trkpt><trkpt lat="45.5628367" lon="10.4551133"><ele>229.0</ele><time>2026-05-01T11:42:55.466Z</time></trkpt><trkpt lat="45.5627583" lon="10.4550283"><ele>228.99999999999997</ele><time>2026-05-01T11:42:56.466Z</time></trkpt><trkpt lat="45.56267" lon="10.4549233"><ele>228.99999999999997</ele><time>2026-05-01T11:42:57.466Z</time></trkpt><trkpt lat="45.5626" lon="10.4548167"><ele>229.0</ele><time>2026-05-01T11:42:58.466Z</time></trkpt><trkpt lat="45.5625367" lon="10.454725"><ele>229.0</ele><time>2026-05-01T11:42:59.466Z</time></trkpt><trkpt lat="45.562475" lon="10.4546433"><ele>228.39999999999998</ele><time>2026-05-01T11:43:00.467Z</time></trkpt><trkpt lat="45.5624133" lon="10.4545883"><ele>227.79999999999998</ele><time>2026-05-01T11:43:01.466Z</time></trkpt><trkpt lat="45.562335" lon="10.4545317"><ele>227.20000000000002</ele><time>2026-05-01T11:43:02.466Z</time></trkpt><trkpt lat="45.5622517" lon="10.4544917"><ele>226.60000000000002</ele><time>2026-05-01T11:43:03.466Z</time></trkpt><trkpt lat="45.56215" lon="10.4544483"><ele>226.0</ele><time>2026-05-01T11:43:04.466Z</time></trkpt><trkpt lat="45.5620383" lon="10.4544017"><ele>226.75</ele><time>2026-05-01T11:43:05.466Z</time></trkpt><trkpt lat="45.561925" lon="10.454365"><ele>227.5</ele><time>2026-05-01T11:43:06.466Z</time></trkpt><trkpt lat="45.5618083" lon="10.4543333"><ele>228.25</ele><time>2026-05-01T11:43:07.466Z</time></trkpt><trkpt lat="45.5616883" lon="10.4543067"><ele>229.0</ele><time>2026-05-01T11:43:08.466Z</time></trkpt><trkpt lat="45.5615583" lon="10.4542667"><ele>229.0</ele><time>2026-05-01T11:43:09.466Z</time></trkpt><trkpt lat="45.5614317" lon="10.45423"><ele>228.99999999999997</ele><time>2026-05-01T11:43:10.466Z</time></trkpt><trkpt lat="45.5613183" lon="10.4542017"><ele>228.99999999999997</ele><time>2026-05-01T11:43:11.466Z</time></trkpt><trkpt lat="45.5612133" lon="10.4541733"><ele>229.0</ele><time>2026-05-01T11:43:12.466Z</time></trkpt><trkpt lat="45.5611167" lon="10.4541517"><ele>229.0</ele><time>2026-05-01T11:43:13.466Z</time></trkpt><trkpt lat="45.5610267" lon="10.4541283"><ele>229.2</ele><time>2026-05-01T11:43:14.466Z</time></trkpt><trkpt lat="45.5609367" lon="10.4541017"><ele>229.39999999999998</ele><time>2026-05-01T11:43:15.466Z</time></trkpt><trkpt lat="45.5608433" lon="10.45407"><ele>229.6</ele><time>2026-05-01T11:43:16.466Z</time></trkpt><trkpt lat="45.5607433" lon="10.4540283"><ele>229.8</ele><time>2026-05-01T11:43:17.466Z</time></trkpt><trkpt lat="45.5606467" lon="10.454"><ele>230.0</ele><time>2026-05-01T11:43:18.466Z</time></trkpt><trkpt lat="45.560545" lon="10.4539633"><ele>230.0</ele><time>2026-05-01T11:43:19.466Z</time></trkpt><trkpt lat="45.5604433" lon="10.4539317"><ele>230.0</ele><time>2026-05-01T11:43:20.466Z</time></trkpt><trkpt lat="45.5603367" lon="10.453905"><ele>230.0</ele><time>2026-05-01T11:43:21.466Z</time></trkpt><trkpt lat="45.560225" lon="10.4538883"><ele>230.0</ele><time>2026-05-01T11:43:22.466Z</time></trkpt><trkpt lat="45.560115" lon="10.453865"><ele>230.0</ele><time>2026-05-01T11:43:23.466Z</time></trkpt><trkpt lat="45.560005" lon="10.4538317"><ele>229.6</ele><time>2026-05-01T11:43:24.466Z</time></trkpt><trkpt lat="45.5599" lon="10.4537933"><ele>229.2</ele><time>2026-05-01T11:43:25.466Z</time></trkpt><trkpt lat="45.5598033" lon="10.4537633"><ele>228.8</ele><time>2026-05-01T11:43:26.466Z</time></trkpt><trkpt lat="45.5597" lon="10.453745"><ele>228.4</ele><time>2026-05-01T11:43:27.466Z</time></trkpt><trkpt lat="45.5595967" lon="10.4537183"><ele>228.0</ele><time>2026-05-01T11:43:28.466Z</time></trkpt><trkpt lat="45.5595067" lon="10.4536817"><ele>227.4</ele><time>2026-05-01T11:43:29.466Z</time></trkpt><trkpt lat="45.559435" lon="10.45365"><ele>226.8</ele><time>2026-05-01T11:43:30.466Z</time></trkpt><trkpt lat="45.559345" lon="10.4535917"><ele>226.2</ele><time>2026-05-01T11:43:32.466Z</time></trkpt><trkpt lat="45.55931" lon="10.453475"><ele>225.6</ele><time>2026-05-01T11:43:34.466Z</time></trkpt><trkpt lat="45.5592617" lon="10.4532917"><ele>225.0</ele><time>2026-05-01T11:43:36.467Z</time></trkpt><trkpt lat="45.5592583" lon="10.4531333"><ele>225.0</ele><time>2026-05-01T11:43:37.466Z</time></trkpt><trkpt lat="45.5592533" lon="10.4529667"><ele>225.0</ele><time>2026-05-01T11:43:38.466Z</time></trkpt><trkpt lat="45.5592467" lon="10.45281"><ele>225.0</ele><time>2026-05-01T11:43:39.466Z</time></trkpt><trkpt lat="45.5592417" lon="10.4526883"><ele>225.0</ele><time>2026-05-01T11:43:40.466Z</time></trkpt><trkpt lat="45.559245" lon="10.4525833"><ele>225.0</ele><time>2026-05-01T11:43:41.466Z</time></trkpt><trkpt lat="45.559215" lon="10.452475"><ele>225.0</ele><time>2026-05-01T11:43:43.466Z</time></trkpt><trkpt lat="45.5591417" lon="10.4524667"><ele>225.0</ele><time>2026-05-01T11:43:45.466Z</time></trkpt><trkpt lat="45.559075" lon="10.452485"><ele>225.0</ele><time>2026-05-01T11:43:46.467Z</time></trkpt><trkpt lat="45.5589717" lon="10.4525183"><ele>225.0</ele><time>2026-05-01T11:43:47.466Z</time></trkpt><trkpt lat="45.5588483" lon="10.4525617"><ele>225.0</ele><time>2026-05-01T11:43:48.466Z</time></trkpt><trkpt lat="45.558725" lon="10.4525833"><ele>224.0</ele><time>2026-05-01T11:43:49.466Z</time></trkpt><trkpt lat="45.5586233" lon="10.4525833"><ele>223.0</ele><time>2026-05-01T11:43:50.467Z</time></trkpt><trkpt lat="45.558525" lon="10.4525633"><ele>222.0</ele><time>2026-05-01T11:43:51.466Z</time></trkpt><trkpt lat="45.5584333" lon="10.4525233"><ele>221.0</ele><time>2026-05-01T11:43:52.466Z</time></trkpt><trkpt lat="45.5583433" lon="10.452485"><ele>220.0</ele><time>2026-05-01T11:43:53.466Z</time></trkpt><trkpt lat="45.5582517" lon="10.45245"><ele>219.99999999999997</ele><time>2026-05-01T11:43:54.467Z</time></trkpt><trkpt lat="45.558155" lon="10.4524467"><ele>220.0</ele><time>2026-05-01T11:43:55.466Z</time></trkpt><trkpt lat="45.558065" lon="10.45245"><ele>220.0</ele><time>2026-05-01T11:43:56.466Z</time></trkpt><trkpt lat="45.5579917" lon="10.452445"><ele>220.0</ele><time>2026-05-01T11:43:57.466Z</time></trkpt><trkpt lat="45.55789" lon="10.4523567"><ele>219.99999999999997</ele><time>2026-05-01T11:43:59.466Z</time></trkpt><trkpt lat="45.557865" lon="10.4522667"><ele>220.0</ele><time>2026-05-01T11:44:00.466Z</time></trkpt><trkpt lat="45.5578533" lon="10.45214"><ele>220.4</ele><time>2026-05-01T11:44:01.466Z</time></trkpt><trkpt lat="45.5578367" lon="10.4520033"><ele>220.8</ele><time>2026-05-01T11:44:02.466Z</time></trkpt><trkpt lat="45.5578133" lon="10.4518767"><ele>221.2</ele><time>2026-05-01T11:44:03.466Z</time></trkpt><trkpt lat="45.557765" lon="10.4517383"><ele>221.6</ele><time>2026-05-01T11:44:04.466Z</time></trkpt><trkpt lat="45.5576933" lon="10.4516067"><ele>222.0</ele><time>2026-05-01T11:44:05.466Z</time></trkpt><trkpt lat="45.5576217" lon="10.4514883"><ele>222.0</ele><time>2026-05-01T11:44:06.466Z</time></trkpt><trkpt lat="45.5575433" lon="10.45141"><ele>222.0</ele><time>2026-05-01T11:44:07.466Z</time></trkpt><trkpt lat="45.5574333" lon="10.4513433"><ele>222.0</ele><time>2026-05-01T11:44:08.466Z</time></trkpt><trkpt lat="45.5573167" lon="10.4512833"><ele>222.0</ele><time>2026-05-01T11:44:09.466Z</time></trkpt><trkpt lat="45.55722" lon="10.4512067"><ele>221.39999999999998</ele><time>2026-05-01T11:44:10.466Z</time></trkpt><trkpt lat="45.5571467" lon="10.45112"><ele>220.79999999999998</ele><time>2026-05-01T11:44:11.466Z</time></trkpt><trkpt lat="45.557095" lon="10.4510017"><ele>220.2</ele><time>2026-05-01T11:44:12.466Z</time></trkpt><trkpt lat="45.5570483" lon="10.4508583"><ele>219.6</ele><time>2026-05-01T11:44:13.466Z</time></trkpt><trkpt lat="45.5570067" lon="10.4507167"><ele>219.0</ele><time>2026-05-01T11:44:14.466Z</time></trkpt><trkpt lat="45.5569767" lon="10.4506017"><ele>219.6</ele><time>2026-05-01T11:44:15.466Z</time></trkpt><trkpt lat="45.55693" lon="10.4504817"><ele>220.2</ele><time>2026-05-01T11:44:16.466Z</time></trkpt><trkpt lat="45.556875" lon="10.45037"><ele>220.79999999999998</ele><time>2026-05-01T11:44:17.466Z</time></trkpt><trkpt lat="45.5568133" lon="10.45027"><ele>221.39999999999998</ele><time>2026-05-01T11:44:18.466Z</time></trkpt><trkpt lat="45.556755" lon="10.4501633"><ele>222.0</ele><time>2026-05-01T11:44:19.466Z</time></trkpt><trkpt lat="45.5567133" lon="10.4500517"><ele>222.0</ele><time>2026-05-01T11:44:20.466Z</time></trkpt><trkpt lat="45.5566783" lon="10.4499333"><ele>222.0</ele><time>2026-05-01T11:44:21.466Z</time></trkpt><trkpt lat="45.556645" lon="10.4497833"><ele>222.0</ele><time>2026-05-01T11:44:22.466Z</time></trkpt><trkpt lat="45.5566183" lon="10.4495967"><ele>222.0</ele><time>2026-05-01T11:44:23.466Z</time></trkpt><trkpt lat="45.5565983" lon="10.4494067"><ele>221.25</ele><time>2026-05-01T11:44:24.466Z</time></trkpt><trkpt lat="45.55657" lon="10.449205"><ele>220.5</ele><time>2026-05-01T11:44:25.466Z</time></trkpt><trkpt lat="45.5565333" lon="10.4490033"><ele>219.75</ele><time>2026-05-01T11:44:26.466Z</time></trkpt><trkpt lat="45.5565" lon="10.4488133"><ele>219.0</ele><time>2026-05-01T11:44:27.466Z</time></trkpt><trkpt lat="45.55649" lon="10.4486583"><ele>218.6</ele><time>2026-05-01T11:44:28.466Z</time></trkpt><trkpt lat="45.5564867" lon="10.448505"><ele>218.2</ele><time>2026-05-01T11:44:29.466Z</time></trkpt><trkpt lat="45.5565" lon="10.4483567"><ele>217.79999999999998</ele><time>2026-05-01T11:44:30.466Z</time></trkpt><trkpt lat="45.5565283" lon="10.4482067"><ele>217.39999999999998</ele><time>2026-05-01T11:44:31.466Z</time></trkpt><trkpt lat="45.5565617" lon="10.4480883"><ele>217.0</ele><time>2026-05-01T11:44:32.466Z</time></trkpt><trkpt lat="45.5565917" lon="10.44798"><ele>217.0</ele><time>2026-05-01T11:44:33.466Z</time></trkpt><trkpt lat="45.5566167" lon="10.44787"><ele>217.0</ele><time>2026-05-01T11:44:35.466Z</time></trkpt><trkpt lat="45.5566067" lon="10.44798"><ele>217.0</ele><time>2026-05-01T11:44:40.466Z</time></trkpt><trkpt lat="45.5565467" lon="10.4481067"><ele>217.0</ele><time>2026-05-01T11:44:42.467Z</time></trkpt><trkpt lat="45.5565117" lon="10.4482167"><ele>217.0</ele><time>2026-05-01T11:44:43.466Z</time></trkpt><trkpt lat="45.5564783" lon="10.4483567"><ele>217.0</ele><time>2026-05-01T11:44:44.466Z</time></trkpt><trkpt lat="45.5564617" lon="10.4485033"><ele>217.0</ele><time>2026-05-01T11:44:45.466Z</time></trkpt><trkpt lat="45.5564667" lon="10.44866"><ele>217.0</ele><time>2026-05-01T11:44:46.467Z</time></trkpt><trkpt lat="45.5564883" lon="10.44882"><ele>217.0</ele><time>2026-05-01T11:44:47.466Z</time></trkpt><trkpt lat="45.5565183" lon="10.4489867"><ele>217.0</ele><time>2026-05-01T11:44:48.466Z</time></trkpt><trkpt lat="45.5565483" lon="10.44915"><ele>217.39999999999998</ele><time>2026-05-01T11:44:49.466Z</time></trkpt><trkpt lat="45.5565717" lon="10.4492917"><ele>217.79999999999998</ele><time>2026-05-01T11:44:50.466Z</time></trkpt><trkpt lat="45.55659" lon="10.4494267"><ele>218.2</ele><time>2026-05-01T11:44:51.466Z</time></trkpt><trkpt lat="45.5565983" lon="10.44953"><ele>218.6</ele><time>2026-05-01T11:44:52.466Z</time></trkpt><trkpt lat="45.55661" lon="10.44968"><ele>219.0</ele><time>2026-05-01T11:44:54.466Z</time></trkpt><trkpt lat="45.556645" lon="10.4495783"><ele>219.0</ele><time>2026-05-01T11:45:03.466Z</time></trkpt><trkpt lat="45.5566283" lon="10.449475"><ele>219.0</ele><time>2026-05-01T11:45:04.466Z</time></trkpt><trkpt lat="45.5566033" lon="10.4493883"><ele>219.0</ele><time>2026-05-01T11:45:05.466Z</time></trkpt><trkpt lat="45.5565283" lon="10.4493267"><ele>219.0</ele><time>2026-05-01T11:45:07.466Z</time></trkpt><trkpt lat="45.5564633" lon="10.44933"><ele>219.0</ele><time>2026-05-01T11:45:08.466Z</time></trkpt><trkpt lat="45.556375" lon="10.449345"><ele>219.0</ele><time>2026-05-01T11:45:09.466Z</time></trkpt><trkpt lat="45.5562667" lon="10.4493533"><ele>219.39999999999998</ele><time>2026-05-01T11:45:10.466Z</time></trkpt><trkpt lat="45.5561417" lon="10.44936"><ele>219.79999999999998</ele><time>2026-05-01T11:45:11.467Z</time></trkpt><trkpt lat="45.5560183" lon="10.4493633"><ele>220.20000000000002</ele><time>2026-05-01T11:45:12.466Z</time></trkpt><trkpt lat="45.5559167" lon="10.4493567"><ele>220.60000000000002</ele><time>2026-05-01T11:45:13.467Z</time></trkpt><trkpt lat="45.555835" lon="10.44936"><ele>221.0</ele><time>2026-05-01T11:45:14.466Z</time></trkpt><trkpt lat="45.555755" lon="10.4494483"><ele>221.0</ele><time>2026-05-01T11:45:16.466Z</time></trkpt><trkpt lat="45.5557367" lon="10.4495417"><ele>221.00000000000003</ele><time>2026-05-01T11:45:17.466Z</time></trkpt><trkpt lat="45.5557133" lon="10.4496767"><ele>221.00000000000003</ele><time>2026-05-01T11:45:18.466Z</time></trkpt><trkpt lat="45.555685" lon="10.4498367"><ele>221.0</ele><time>2026-05-01T11:45:19.466Z</time></trkpt><trkpt lat="45.5556467" lon="10.4499983"><ele>221.0</ele><time>2026-05-01T11:45:20.466Z</time></trkpt><trkpt lat="45.5556083" lon="10.4501517"><ele>221.60000000000002</ele><time>2026-05-01T11:45:21.466Z</time></trkpt><trkpt lat="45.5555783" lon="10.45031"><ele>222.20000000000002</ele><time>2026-05-01T11:45:22.466Z</time></trkpt><trkpt lat="45.555555" lon="10.4504567"><ele>222.79999999999998</ele><time>2026-05-01T11:45:23.466Z</time></trkpt><trkpt lat="45.5555333" lon="10.450605"><ele>223.39999999999998</ele><time>2026-05-01T11:45:24.466Z</time></trkpt><trkpt lat="45.5555083" lon="10.4507433"><ele>224.0</ele><time>2026-05-01T11:45:25.466Z</time></trkpt><trkpt lat="45.5554867" lon="10.4508617"><ele>224.33333333333334</ele><time>2026-05-01T11:45:26.466Z</time></trkpt><trkpt lat="45.55547" lon="10.4509583"><ele>224.66666666666669</ele><time>2026-05-01T11:45:27.466Z</time></trkpt><trkpt lat="45.555425" lon="10.4510783"><ele>225.0</ele><time>2026-05-01T11:45:29.466Z</time></trkpt><trkpt lat="45.5553317" lon="10.4510933"><ele>225.33333333333331</ele><time>2026-05-01T11:45:31.466Z</time></trkpt><trkpt lat="45.5552417" lon="10.4510667"><ele>225.66666666666666</ele><time>2026-05-01T11:45:33.466Z</time></trkpt><trkpt lat="45.5553067" lon="10.4511067"><ele>226.0</ele><time>2026-05-01T11:46:23.466Z</time></trkpt><trkpt lat="45.5554017" lon="10.4510883"><ele>226.0</ele><time>2026-05-01T11:46:25.466Z</time></trkpt><trkpt lat="45.555465" lon="10.4509867"><ele>226.00000000000003</ele><time>2026-05-01T11:46:27.466Z</time></trkpt><trkpt lat="45.5555017" lon="10.4507883"><ele>226.00000000000003</ele><time>2026-05-01T11:46:29.466Z</time></trkpt><trkpt lat="45.5555217" lon="10.4506533"><ele>226.0</ele><time>2026-05-01T11:46:30.466Z</time></trkpt><trkpt lat="45.5555433" lon="10.4505033"><ele>226.0</ele><time>2026-05-01T11:46:31.466Z</time></trkpt><trkpt lat="45.5555633" lon="10.450365"><ele>225.66666666666666</ele><time>2026-05-01T11:46:32.466Z</time></trkpt><trkpt lat="45.5555883" lon="10.4502317"><ele>225.33333333333331</ele><time>2026-05-01T11:46:33.466Z</time></trkpt><trkpt lat="45.55561" lon="10.4501117"><ele>225.0</ele><time>2026-05-01T11:46:34.466Z</time></trkpt><trkpt lat="45.555635" lon="10.4499967"><ele>224.66666666666669</ele><time>2026-05-01T11:46:35.466Z</time></trkpt><trkpt lat="45.5556617" lon="10.44988"><ele>224.33333333333334</ele><time>2026-05-01T11:46:36.466Z</time></trkpt><trkpt lat="45.555695" lon="10.4497567"><ele>224.0</ele><time>2026-05-01T11:46:37.466Z</time></trkpt><trkpt lat="45.5557183" lon="10.449645"><ele>223.50000000000003</ele><time>2026-05-01T11:46:38.466Z</time></trkpt><trkpt lat="45.55574" lon="10.449545"><ele>223.0</ele><time>2026-05-01T11:46:39.466Z</time></trkpt><trkpt lat="45.5557633" lon="10.4494533"><ele>222.5</ele><time>2026-05-01T11:46:40.466Z</time></trkpt><trkpt lat="45.55582" lon="10.44935"><ele>222.0</ele><time>2026-05-01T11:46:42.466Z</time></trkpt><trkpt lat="45.5559333" lon="10.4493367"><ele>221.50000000000003</ele><time>2026-05-01T11:46:44.467Z</time></trkpt><trkpt lat="45.5560133" lon="10.4493483"><ele>221.0</ele><time>2026-05-01T11:46:45.466Z</time></trkpt><trkpt lat="45.5561033" lon="10.44935"><ele>220.66666666666669</ele><time>2026-05-01T11:46:46.466Z</time></trkpt><trkpt lat="45.55621" lon="10.4493483"><ele>220.33333333333334</ele><time>2026-05-01T11:46:47.466Z</time></trkpt><trkpt lat="45.556315" lon="10.449345"><ele>220.0</ele><time>2026-05-01T11:46:48.466Z</time></trkpt><trkpt lat="45.5564067" lon="10.4493367"><ele>219.66666666666669</ele><time>2026-05-01T11:46:49.466Z</time></trkpt><trkpt lat="45.5564817" lon="10.449325"><ele>219.33333333333334</ele><time>2026-05-01T11:46:50.467Z</time></trkpt><trkpt lat="45.5565467" lon="10.4493267"><ele>219.0</ele><time>2026-05-01T11:46:51.467Z</time></trkpt><trkpt lat="45.5566117" lon="10.4493983"><ele>219.0</ele><time>2026-05-01T11:46:53.466Z</time></trkpt><trkpt lat="45.556645" lon="10.449585"><ele>219.0</ele><time>2026-05-01T11:46:55.466Z</time></trkpt><trkpt lat="45.5566617" lon="10.4497467"><ele>219.0</ele><time>2026-05-01T11:46:56.466Z</time></trkpt><trkpt lat="45.5566817" lon="10.449915"><ele>219.0</ele><time>2026-05-01T11:46:57.466Z</time></trkpt><trkpt lat="45.5567133" lon="10.45003"><ele>219.5</ele><time>2026-05-01T11:46:58.466Z</time></trkpt><trkpt lat="45.5567583" lon="10.4501217"><ele>220.0</ele><time>2026-05-01T11:46:59.466Z</time></trkpt><trkpt lat="45.556815" lon="10.4502167"><ele>220.5</ele><time>2026-05-01T11:47:00.466Z</time></trkpt><trkpt lat="45.5568783" lon="10.45033"><ele>221.0</ele><time>2026-05-01T11:47:01.466Z</time></trkpt><trkpt lat="45.556945" lon="10.4504333"><ele>221.5</ele><time>2026-05-01T11:47:02.466Z</time></trkpt><trkpt lat="45.556995" lon="10.4505183"><ele>222.0</ele><time>2026-05-01T11:47:03.466Z</time></trkpt><trkpt lat="45.5570267" lon="10.45063"><ele>221.39999999999998</ele><time>2026-05-01T11:47:04.466Z</time></trkpt><trkpt lat="45.557045" lon="10.4507483"><ele>220.79999999999998</ele><time>2026-05-01T11:47:05.466Z</time></trkpt><trkpt lat="45.5570633" lon="10.4508783"><ele>220.2</ele><time>2026-05-01T11:47:06.467Z</time></trkpt><trkpt lat="45.557105" lon="10.4510083"><ele>219.6</ele><time>2026-05-01T11:47:07.466Z</time></trkpt><trkpt lat="45.5571583" lon="10.4511167"><ele>219.0</ele><time>2026-05-01T11:47:08.466Z</time></trkpt><trkpt lat="45.5572133" lon="10.451205"><ele>219.0</ele><time>2026-05-01T11:47:09.466Z</time></trkpt><trkpt lat="45.5572767" lon="10.4512617"><ele>219.0</ele><time>2026-05-01T11:47:10.466Z</time></trkpt><trkpt lat="45.5573567" lon="10.4513183"><ele>219.0</ele><time>2026-05-01T11:47:11.466Z</time></trkpt><trkpt lat="45.557445" lon="10.4513767"><ele>219.0</ele><time>2026-05-01T11:47:12.466Z</time></trkpt><trkpt lat="45.55752" lon="10.4514483"><ele>219.0</ele><time>2026-05-01T11:47:13.466Z</time></trkpt><trkpt lat="45.5575967" lon="10.4515317"><ele>219.0</ele><time>2026-05-01T11:47:14.466Z</time></trkpt><trkpt lat="45.5576667" lon="10.4516517"><ele>219.2</ele><time>2026-05-01T11:47:15.466Z</time></trkpt><trkpt lat="45.5577333" lon="10.4517933"><ele>219.39999999999998</ele><time>2026-05-01T11:47:16.466Z</time></trkpt><trkpt lat="45.5577883" lon="10.4519167"><ele>219.6</ele><time>2026-05-01T11:47:17.466Z</time></trkpt><trkpt lat="45.5578267" lon="10.4520367"><ele>219.8</ele><time>2026-05-01T11:47:18.467Z</time></trkpt><trkpt lat="45.55785" lon="10.4521467"><ele>220.0</ele><time>2026-05-01T11:47:19.466Z</time></trkpt><trkpt lat="45.5578717" lon="10.45226"><ele>220.0</ele><time>2026-05-01T11:47:20.466Z</time></trkpt><trkpt lat="45.5578967" lon="10.4523617"><ele>220.0</ele><time>2026-05-01T11:47:21.467Z</time></trkpt><trkpt lat="45.557975" lon="10.4524517"><ele>220.0</ele><time>2026-05-01T11:47:23.467Z</time></trkpt><trkpt lat="45.5581283" lon="10.4524483"><ele>220.0</ele><time>2026-05-01T11:47:25.466Z</time></trkpt><trkpt lat="45.5582367" lon="10.4524467"><ele>220.0</ele><time>2026-05-01T11:47:26.466Z</time></trkpt><trkpt lat="45.5583367" lon="10.45247"><ele>220.0</ele><time>2026-05-01T11:47:27.466Z</time></trkpt><trkpt lat="45.5584367" lon="10.452515"><ele>220.0</ele><time>2026-05-01T11:47:28.466Z</time></trkpt><trkpt lat="45.5585367" lon="10.4525633"><ele>220.0</ele><time>2026-05-01T11:47:29.467Z</time></trkpt><trkpt lat="45.5586383" lon="10.452595"><ele>220.0</ele><time>2026-05-01T11:47:30.466Z</time></trkpt><trkpt lat="45.5587333" lon="10.4526"><ele>220.0</ele><time>2026-05-01T11:47:31.467Z</time></trkpt><trkpt lat="45.558815" lon="10.452605"><ele>220.83333333333331</ele><time>2026-05-01T11:47:32.466Z</time></trkpt><trkpt lat="45.55889" lon="10.45259"><ele>221.66666666666666</ele><time>2026-05-01T11:47:33.466Z</time></trkpt><trkpt lat="45.5589717" lon="10.4525717"><ele>222.5</ele><time>2026-05-01T11:47:34.466Z</time></trkpt><trkpt lat="45.55905" lon="10.452545"><ele>223.33333333333331</ele><time>2026-05-01T11:47:35.466Z</time></trkpt><trkpt lat="45.5591167" lon="10.45252"><ele>224.16666666666666</ele><time>2026-05-01T11:47:36.466Z</time></trkpt><trkpt lat="45.55921" lon="10.4524883"><ele>225.0</ele><time>2026-05-01T11:47:38.467Z</time></trkpt><trkpt lat="45.5593183" lon="10.4524917"><ele>225.0</ele><time>2026-05-01T11:47:41.466Z</time></trkpt><trkpt lat="45.5593917" lon="10.4524933"><ele>225.0</ele><time>2026-05-01T11:47:42.466Z</time></trkpt><trkpt lat="45.5594783" lon="10.4525133"><ele>225.0</ele><time>2026-05-01T11:47:43.466Z</time></trkpt><trkpt lat="45.5595817" lon="10.45255"><ele>225.0</ele><time>2026-05-01T11:47:44.466Z</time></trkpt><trkpt lat="45.5596717" lon="10.4525817"><ele>225.0</ele><time>2026-05-01T11:47:45.466Z</time></trkpt><trkpt lat="45.5597467" lon="10.4526067"><ele>225.0</ele><time>2026-05-01T11:47:46.466Z</time></trkpt><trkpt lat="45.5598333" lon="10.4525633"><ele>225.2</ele><time>2026-05-01T11:47:48.467Z</time></trkpt><trkpt lat="45.5598667" lon="10.45248"><ele>225.4</ele><time>2026-05-01T11:47:49.466Z</time></trkpt><trkpt lat="45.5598933" lon="10.4523667"><ele>225.60000000000002</ele><time>2026-05-01T11:47:50.466Z</time></trkpt><trkpt lat="45.5599233" lon="10.4522133"><ele>225.8</ele><time>2026-05-01T11:47:51.466Z</time></trkpt><trkpt lat="45.559945" lon="10.4520183"><ele>226.0</ele><time>2026-05-01T11:47:52.466Z</time></trkpt><trkpt lat="45.559975" lon="10.4517967"><ele>225.33333333333331</ele><time>2026-05-01T11:47:53.467Z</time></trkpt><trkpt lat="45.5600083" lon="10.4515733"><ele>224.66666666666669</ele><time>2026-05-01T11:47:54.466Z</time></trkpt><trkpt lat="45.5600367" lon="10.4513533"><ele>224.0</ele><time>2026-05-01T11:47:55.466Z</time></trkpt><trkpt lat="45.56006" lon="10.4511517"><ele>223.25</ele><time>2026-05-01T11:47:56.466Z</time></trkpt><trkpt lat="45.5600433" lon="10.4509567"><ele>222.5</ele><time>2026-05-01T11:47:57.466Z</time></trkpt><trkpt lat="45.55999" lon="10.4507583"><ele>221.75</ele><time>2026-05-01T11:47:58.466Z</time></trkpt><trkpt lat="45.55994" lon="10.450565"><ele>221.0</ele><time>2026-05-01T11:47:59.466Z</time></trkpt><trkpt lat="45.5598983" lon="10.4503917"><ele>220.66666666666669</ele><time>2026-05-01T11:48:00.466Z</time></trkpt><trkpt lat="45.5598633" lon="10.4502433"><ele>220.33333333333334</ele><time>2026-05-01T11:48:01.466Z</time></trkpt><trkpt lat="45.5598383" lon="10.4501217"><ele>220.0</ele><time>2026-05-01T11:48:02.466Z</time></trkpt><trkpt lat="45.5598217" lon="10.4500117"><ele>219.66666666666669</ele><time>2026-05-01T11:48:03.466Z</time></trkpt><trkpt lat="45.5598133" lon="10.4499133"><ele>219.33333333333334</ele><time>2026-05-01T11:48:04.466Z</time></trkpt><trkpt lat="45.5598067" lon="10.4498017"><ele>219.0</ele><time>2026-05-01T11:48:06.466Z</time></trkpt><trkpt lat="45.5598" lon="10.4499317"><ele>219.0</ele><time>2026-05-01T11:48:13.466Z</time></trkpt><trkpt lat="45.5598133" lon="10.450085"><ele>218.99999999999997</ele><time>2026-05-01T11:48:15.466Z</time></trkpt><trkpt lat="45.559835" lon="10.45019"><ele>218.99999999999997</ele><time>2026-05-01T11:48:17.466Z</time></trkpt><trkpt lat="45.55989" lon="10.4500917"><ele>219.0</ele><time>2026-05-01T11:48:20.466Z</time></trkpt><trkpt lat="45.559915" lon="10.449965"><ele>219.0</ele><time>2026-05-01T11:48:21.466Z</time></trkpt><trkpt lat="45.5599333" lon="10.4497783"><ele>218.5</ele><time>2026-05-01T11:48:22.466Z</time></trkpt><trkpt lat="45.559945" lon="10.4495467"><ele>218.0</ele><time>2026-05-01T11:48:23.466Z</time></trkpt><trkpt lat="45.55996" lon="10.4493333"><ele>217.5</ele><time>2026-05-01T11:48:24.466Z</time></trkpt><trkpt lat="45.5599467" lon="10.44915"><ele>217.0</ele><time>2026-05-01T11:48:25.466Z</time></trkpt><trkpt lat="45.5598917" lon="10.44896"><ele>217.0</ele><time>2026-05-01T11:48:26.466Z</time></trkpt><trkpt lat="45.5598117" lon="10.4487933"><ele>217.0</ele><time>2026-05-01T11:48:27.466Z</time></trkpt><trkpt lat="45.5597383" lon="10.4486467"><ele>217.0</ele><time>2026-05-01T11:48:28.466Z</time></trkpt><trkpt lat="45.5597" lon="10.4484583"><ele>217.0</ele><time>2026-05-01T11:48:29.466Z</time></trkpt><trkpt lat="45.5596967" lon="10.44824"><ele>216.66666666666666</ele><time>2026-05-01T11:48:30.466Z</time></trkpt><trkpt lat="45.559705" lon="10.448015"><ele>216.33333333333331</ele><time>2026-05-01T11:48:31.466Z</time></trkpt><trkpt lat="45.55972" lon="10.447805"><ele>216.0</ele><time>2026-05-01T11:48:32.466Z</time></trkpt><trkpt lat="45.5597167" lon="10.4475917"><ele>215.66666666666669</ele><time>2026-05-01T11:48:33.466Z</time></trkpt><trkpt lat="45.5596733" lon="10.4473883"><ele>215.33333333333334</ele><time>2026-05-01T11:48:34.466Z</time></trkpt><trkpt lat="45.559585" lon="10.44718"><ele>215.0</ele><time>2026-05-01T11:48:35.466Z</time></trkpt><trkpt lat="45.5594617" lon="10.4469517"><ele>214.0</ele><time>2026-05-01T11:48:36.466Z</time></trkpt><trkpt lat="45.5593283" lon="10.4467167"><ele>213.0</ele><time>2026-05-01T11:48:37.466Z</time></trkpt><trkpt lat="45.5591983" lon="10.44648"><ele>212.0</ele><time>2026-05-01T11:48:38.466Z</time></trkpt><trkpt lat="45.5590967" lon="10.446255"><ele>211.33333333333334</ele><time>2026-05-01T11:48:39.467Z</time></trkpt><trkpt lat="45.5590133" lon="10.44604"><ele>210.66666666666669</ele><time>2026-05-01T11:48:40.466Z</time></trkpt><trkpt lat="45.55894" lon="10.4458317"><ele>210.0</ele><time>2026-05-01T11:48:41.466Z</time></trkpt><trkpt lat="45.5588833" lon="10.4456417"><ele>209.25</ele><time>2026-05-01T11:48:42.466Z</time></trkpt><trkpt lat="45.5588233" lon="10.4454383"><ele>208.5</ele><time>2026-05-01T11:48:43.466Z</time></trkpt><trkpt lat="45.5587583" lon="10.4452717"><ele>207.75</ele><time>2026-05-01T11:48:44.466Z</time></trkpt><trkpt lat="45.5586817" lon="10.4451317"><ele>207.0</ele><time>2026-05-01T11:48:45.466Z</time></trkpt><trkpt lat="45.5585767" lon="10.4450083"><ele>206.25</ele><time>2026-05-01T11:48:46.466Z</time></trkpt><trkpt lat="45.5584583" lon="10.4449383"><ele>205.5</ele><time>2026-05-01T11:48:47.466Z</time></trkpt><trkpt lat="45.558315" lon="10.4449267"><ele>204.75</ele><time>2026-05-01T11:48:48.466Z</time></trkpt><trkpt lat="45.5581567" lon="10.44495"><ele>204.0</ele><time>2026-05-01T11:48:49.466Z</time></trkpt><trkpt lat="45.5579833" lon="10.4450083"><ele>202.25</ele><time>2026-05-01T11:48:50.466Z</time></trkpt><trkpt lat="45.5578283" lon="10.44508"><ele>200.5</ele><time>2026-05-01T11:48:51.466Z</time></trkpt><trkpt lat="45.55769" lon="10.4451417"><ele>198.75</ele><time>2026-05-01T11:48:52.466Z</time></trkpt><trkpt lat="45.557565" lon="10.4452017"><ele>197.0</ele><time>2026-05-01T11:48:53.466Z</time></trkpt><trkpt lat="45.557435" lon="10.445235"><ele>197.0</ele><time>2026-05-01T11:48:54.466Z</time></trkpt><trkpt lat="45.55729" lon="10.4452383"><ele>197.0</ele><time>2026-05-01T11:48:55.466Z</time></trkpt><trkpt lat="45.5571367" lon="10.44519"><ele>197.0</ele><time>2026-05-01T11:48:56.466Z</time></trkpt><trkpt lat="45.5569717" lon="10.4451133"><ele>194.0</ele><time>2026-05-01T11:48:57.466Z</time></trkpt><trkpt lat="45.5568117" lon="10.4450217"><ele>191.0</ele><time>2026-05-01T11:48:58.466Z</time></trkpt><trkpt lat="45.55666" lon="10.4449283"><ele>188.0</ele><time>2026-05-01T11:48:59.466Z</time></trkpt><trkpt lat="45.5565283" lon="10.44481"><ele>188.0</ele><time>2026-05-01T11:49:00.466Z</time></trkpt><trkpt lat="45.556425" lon="10.4446833"><ele>188.0</ele><time>2026-05-01T11:49:01.466Z</time></trkpt><trkpt lat="45.556335" lon="10.4445433"><ele>188.0</ele><time>2026-05-01T11:49:02.466Z</time></trkpt><trkpt lat="45.5562617" lon="10.444395"><ele>188.0</ele><time>2026-05-01T11:49:03.466Z</time></trkpt><trkpt lat="45.5562033" lon="10.444225"><ele>187.5</ele><time>2026-05-01T11:49:04.466Z</time></trkpt><trkpt lat="45.5561667" lon="10.4440267"><ele>187.0</ele><time>2026-05-01T11:49:05.466Z</time></trkpt><trkpt lat="45.556145" lon="10.4438117"><ele>186.5</ele><time>2026-05-01T11:49:06.466Z</time></trkpt><trkpt lat="45.556125" lon="10.4435967"><ele>186.0</ele><time>2026-05-01T11:49:07.466Z</time></trkpt><trkpt lat="45.5560817" lon="10.44339"><ele>185.33333333333334</ele><time>2026-05-01T11:49:08.466Z</time></trkpt><trkpt lat="45.5560067" lon="10.44321"><ele>184.66666666666669</ele><time>2026-05-01T11:49:09.466Z</time></trkpt><trkpt lat="45.5559067" lon="10.4430483"><ele>184.0</ele><time>2026-05-01T11:49:10.466Z</time></trkpt><trkpt lat="45.5557767" lon="10.4429133"><ele>184.2</ele><time>2026-05-01T11:49:11.466Z</time></trkpt><trkpt lat="45.5556417" lon="10.442825"><ele>184.39999999999998</ele><time>2026-05-01T11:49:12.466Z</time></trkpt><trkpt lat="45.5555283" lon="10.4427667"><ele>184.6</ele><time>2026-05-01T11:49:13.466Z</time></trkpt><trkpt lat="45.55543" lon="10.44273"><ele>184.8</ele><time>2026-05-01T11:49:14.466Z</time></trkpt><trkpt lat="45.5553517" lon="10.4427183"><ele>185.0</ele><time>2026-05-01T11:49:15.466Z</time></trkpt><trkpt lat="45.55528" lon="10.4427467"><ele>185.0</ele><time>2026-05-01T11:49:16.466Z</time></trkpt><trkpt lat="45.5552367" lon="10.4428167"><ele>185.0</ele><time>2026-05-01T11:49:17.466Z</time></trkpt><trkpt lat="45.5552183" lon="10.44293"><ele>185.0</ele><time>2026-05-01T11:49:18.467Z</time></trkpt><trkpt lat="45.5552117" lon="10.4430967"><ele>185.0</ele><time>2026-05-01T11:49:19.466Z</time></trkpt><trkpt lat="45.555225" lon="10.44331"><ele>185.0</ele><time>2026-05-01T11:49:20.466Z</time></trkpt><trkpt lat="45.55525" lon="10.4435583"><ele>185.0</ele><time>2026-05-01T11:49:21.466Z</time></trkpt><trkpt lat="45.5552583" lon="10.4437783"><ele>185.0</ele><time>2026-05-01T11:49:22.466Z</time></trkpt><trkpt lat="45.5552733" lon="10.4439633"><ele>185.0</ele><time>2026-05-01T11:49:23.466Z</time></trkpt><trkpt lat="45.5552817" lon="10.44412"><ele>185.0</ele><time>2026-05-01T11:49:24.466Z</time></trkpt><trkpt lat="45.555285" lon="10.4442467"><ele>185.4</ele><time>2026-05-01T11:49:25.467Z</time></trkpt><trkpt lat="45.555275" lon="10.44434"><ele>185.8</ele><time>2026-05-01T11:49:26.466Z</time></trkpt><trkpt lat="45.55518" lon="10.4444317"><ele>186.2</ele><time>2026-05-01T11:49:28.466Z</time></trkpt><trkpt lat="45.5550867" lon="10.4444433"><ele>186.6</ele><time>2026-05-01T11:49:29.466Z</time></trkpt><trkpt lat="45.55497" lon="10.4444533"><ele>187.0</ele><time>2026-05-01T11:49:30.466Z</time></trkpt><trkpt lat="45.5548483" lon="10.444465"><ele>187.0</ele><time>2026-05-01T11:49:31.466Z</time></trkpt><trkpt lat="45.5547167" lon="10.4444783"><ele>187.0</ele><time>2026-05-01T11:49:32.466Z</time></trkpt><trkpt lat="45.5545783" lon="10.4444983"><ele>187.0</ele><time>2026-05-01T11:49:33.466Z</time></trkpt><trkpt lat="45.5544283" lon="10.4445133"><ele>187.0</ele><time>2026-05-01T11:49:34.466Z</time></trkpt><trkpt lat="45.55428" lon="10.4445167"><ele>186.75</ele><time>2026-05-01T11:49:35.467Z</time></trkpt><trkpt lat="45.554135" lon="10.4445133"><ele>186.5</ele><time>2026-05-01T11:49:36.466Z</time></trkpt><trkpt lat="45.55399" lon="10.4444983"><ele>186.25</ele><time>2026-05-01T11:49:37.466Z</time></trkpt><trkpt lat="45.553855" lon="10.44446"><ele>186.0</ele><time>2026-05-01T11:49:38.466Z</time></trkpt><trkpt lat="45.553715" lon="10.4444117"><ele>185.33333333333334</ele><time>2026-05-01T11:49:39.467Z</time></trkpt><trkpt lat="45.5535667" lon="10.4443317"><ele>184.66666666666669</ele><time>2026-05-01T11:49:40.466Z</time></trkpt><trkpt lat="45.5534283" lon="10.4442483"><ele>184.0</ele><time>2026-05-01T11:49:41.466Z</time></trkpt><trkpt lat="45.553275" lon="10.4441633"><ele>184.0</ele><time>2026-05-01T11:49:42.466Z</time></trkpt><trkpt lat="45.5531317" lon="10.4441"><ele>184.0</ele><time>2026-05-01T11:49:43.466Z</time></trkpt><trkpt lat="45.552995" lon="10.4440383"><ele>184.0</ele><time>2026-05-01T11:49:44.466Z</time></trkpt><trkpt lat="45.552865" lon="10.4439617"><ele>184.0</ele><time>2026-05-01T11:49:45.467Z</time></trkpt><trkpt lat="45.55273" lon="10.44388"><ele>184.0</ele><time>2026-05-01T11:49:46.466Z</time></trkpt><trkpt lat="45.5525817" lon="10.44379"><ele>184.0</ele><time>2026-05-01T11:49:47.466Z</time></trkpt><trkpt lat="45.5524433" lon="10.44371"><ele>184.0</ele><time>2026-05-01T11:49:48.467Z</time></trkpt><trkpt lat="45.5523183" lon="10.44365"><ele>184.0</ele><time>2026-05-01T11:49:49.466Z</time></trkpt><trkpt lat="45.5521917" lon="10.4436067"><ele>184.0</ele><time>2026-05-01T11:49:50.466Z</time></trkpt><trkpt lat="45.5520617" lon="10.44357"><ele>184.0</ele><time>2026-05-01T11:49:51.466Z</time></trkpt><trkpt lat="45.5519333" lon="10.4435517"><ele>184.0</ele><time>2026-05-01T11:49:52.466Z</time></trkpt><trkpt lat="45.55181" lon="10.4435567"><ele>184.0</ele><time>2026-05-01T11:49:53.466Z</time></trkpt><trkpt lat="45.5516833" lon="10.4435867"><ele>184.0</ele><time>2026-05-01T11:49:54.466Z</time></trkpt><trkpt lat="45.5515683" lon="10.4436283"><ele>184.0</ele><time>2026-05-01T11:49:55.466Z</time></trkpt><trkpt lat="45.5514667" lon="10.4436683"><ele>184.0</ele><time>2026-05-01T11:49:56.466Z</time></trkpt><trkpt lat="45.5513667" lon="10.4436833"><ele>184.0</ele><time>2026-05-01T11:49:57.467Z</time></trkpt><trkpt lat="45.5512567" lon="10.443675"><ele>184.0</ele><time>2026-05-01T11:49:58.466Z</time></trkpt><trkpt lat="45.55113" lon="10.443645"><ele>184.5</ele><time>2026-05-01T11:49:59.467Z</time></trkpt><trkpt lat="45.55099" lon="10.4436167"><ele>185.0</ele><time>2026-05-01T11:50:00.466Z</time></trkpt><trkpt lat="45.55085" lon="10.4435917"><ele>185.5</ele><time>2026-05-01T11:50:01.466Z</time></trkpt><trkpt lat="45.5507217" lon="10.4435683"><ele>186.0</ele><time>2026-05-01T11:50:02.466Z</time></trkpt><trkpt lat="45.5506033" lon="10.4435517"><ele>186.0</ele><time>2026-05-01T11:50:03.466Z</time></trkpt><trkpt lat="45.5505017" lon="10.4435267"><ele>186.0</ele><time>2026-05-01T11:50:04.466Z</time></trkpt><trkpt lat="45.550415" lon="10.443515"><ele>186.0</ele><time>2026-05-01T11:50:05.466Z</time></trkpt><trkpt lat="45.550335" lon="10.443515"><ele>186.0</ele><time>2026-05-01T11:50:06.466Z</time></trkpt><trkpt lat="45.5502567" lon="10.44354"><ele>186.0</ele><time>2026-05-01T11:50:07.466Z</time></trkpt><trkpt lat="45.5501733" lon="10.44356"><ele>186.0</ele><time>2026-05-01T11:50:08.466Z</time></trkpt><trkpt lat="45.5500767" lon="10.4435583"><ele>186.0</ele><time>2026-05-01T11:50:09.466Z</time></trkpt><trkpt lat="45.5499617" lon="10.4435417"><ele>186.0</ele><time>2026-05-01T11:50:10.466Z</time></trkpt><trkpt lat="45.5498283" lon="10.4435133"><ele>186.0</ele><time>2026-05-01T11:50:11.466Z</time></trkpt><trkpt lat="45.5496833" lon="10.4434833"><ele>186.0</ele><time>2026-05-01T11:50:12.466Z</time></trkpt><trkpt lat="45.5495217" lon="10.4434533"><ele>187.33333333333334</ele><time>2026-05-01T11:50:13.466Z</time></trkpt><trkpt lat="45.5493567" lon="10.4434267"><ele>188.66666666666669</ele><time>2026-05-01T11:50:14.466Z</time></trkpt><trkpt lat="45.549195" lon="10.4434"><ele>190.0</ele><time>2026-05-01T11:50:15.466Z</time></trkpt><trkpt lat="45.5490567" lon="10.44338"><ele>190.0</ele><time>2026-05-01T11:50:16.466Z</time></trkpt><trkpt lat="45.5489317" lon="10.4433633"><ele>190.0</ele><time>2026-05-01T11:50:17.467Z</time></trkpt><trkpt lat="45.548825" lon="10.4433433"><ele>190.0</ele><time>2026-05-01T11:50:18.466Z</time></trkpt><trkpt lat="45.5487383" lon="10.443335"><ele>190.0</ele><time>2026-05-01T11:50:19.466Z</time></trkpt><trkpt lat="45.5486667" lon="10.4433467"><ele>190.0</ele><time>2026-05-01T11:50:20.466Z</time></trkpt><trkpt lat="45.5485883" lon="10.4434533"><ele>189.8</ele><time>2026-05-01T11:50:22.466Z</time></trkpt><trkpt lat="45.5485617" lon="10.4435433"><ele>189.6</ele><time>2026-05-01T11:50:23.467Z</time></trkpt><trkpt lat="45.54853" lon="10.4436733"><ele>189.39999999999998</ele><time>2026-05-01T11:50:24.466Z</time></trkpt><trkpt lat="45.5485017" lon="10.4438533"><ele>189.2</ele><time>2026-05-01T11:50:25.466Z</time></trkpt><trkpt lat="45.548475" lon="10.4440533"><ele>189.0</ele><time>2026-05-01T11:50:26.466Z</time></trkpt><trkpt lat="45.54845" lon="10.4442333"><ele>189.66666666666666</ele><time>2026-05-01T11:50:27.466Z</time></trkpt><trkpt lat="45.54843" lon="10.44438"><ele>190.33333333333331</ele><time>2026-05-01T11:50:28.466Z</time></trkpt><trkpt lat="45.5484" lon="10.4444917"><ele>191.0</ele><time>2026-05-01T11:50:29.466Z</time></trkpt><trkpt lat="45.5483617" lon="10.444575"><ele>191.66666666666666</ele><time>2026-05-01T11:50:30.466Z</time></trkpt><trkpt lat="45.5483233" lon="10.4446633"><ele>192.33333333333331</ele><time>2026-05-01T11:50:31.467Z</time></trkpt><trkpt lat="45.5482867" lon="10.4447667"><ele>193.0</ele><time>2026-05-01T11:50:33.466Z</time></trkpt><trkpt lat="45.5482483" lon="10.44468"><ele>193.0</ele><time>2026-05-01T11:50:36.466Z</time></trkpt><trkpt lat="45.5482683" lon="10.4445883"><ele>193.0</ele><time>2026-05-01T11:50:37.466Z</time></trkpt><trkpt lat="45.5482917" lon="10.4444683"><ele>193.0</ele><time>2026-05-01T11:50:38.466Z</time></trkpt><trkpt lat="45.548315" lon="10.44434"><ele>193.0</ele><time>2026-05-01T11:50:39.466Z</time></trkpt><trkpt lat="45.54832" lon="10.4442317"><ele>193.0</ele><time>2026-05-01T11:50:40.466Z</time></trkpt><trkpt lat="45.54826" lon="10.44407"><ele>193.0</ele><time>2026-05-01T11:50:42.466Z</time></trkpt><trkpt lat="45.5481833" lon="10.443995"><ele>193.0</ele><time>2026-05-01T11:50:43.466Z</time></trkpt><trkpt lat="45.548075" lon="10.44392"><ele>193.0</ele><time>2026-05-01T11:50:44.466Z</time></trkpt><trkpt lat="45.5479317" lon="10.4438383"><ele>193.0</ele><time>2026-05-01T11:50:45.466Z</time></trkpt><trkpt lat="45.5477783" lon="10.44375"><ele>192.4</ele><time>2026-05-01T11:50:46.466Z</time></trkpt><trkpt lat="45.5476417" lon="10.4436717"><ele>191.8</ele><time>2026-05-01T11:50:47.466Z</time></trkpt><trkpt lat="45.5475283" lon="10.44362"><ele>191.2</ele><time>2026-05-01T11:50:48.467Z</time></trkpt><trkpt lat="45.5474367" lon="10.4435833"><ele>190.6</ele><time>2026-05-01T11:50:49.466Z</time></trkpt><trkpt lat="45.547375" lon="10.4435433"><ele>190.0</ele><time>2026-05-01T11:50:50.466Z</time></trkpt><trkpt lat="45.5473183" lon="10.443415"><ele>190.0</ele><time>2026-05-01T11:50:52.466Z</time></trkpt><trkpt lat="45.5473067" lon="10.443295"><ele>190.0</ele><time>2026-05-01T11:50:53.466Z</time></trkpt><trkpt lat="45.5472967" lon="10.4431183"><ele>190.0</ele><time>2026-05-01T11:50:54.466Z</time></trkpt><trkpt lat="45.5472867" lon="10.4428817"><ele>190.0</ele><time>2026-05-01T11:50:55.466Z</time></trkpt><trkpt lat="45.5472817" lon="10.4426083"><ele>188.75</ele><time>2026-05-01T11:50:56.466Z</time></trkpt><trkpt lat="45.54727" lon="10.4423633"><ele>187.5</ele><time>2026-05-01T11:50:57.466Z</time></trkpt><trkpt lat="45.5472633" lon="10.4421783"><ele>186.25</ele><time>2026-05-01T11:50:58.466Z</time></trkpt><trkpt lat="45.547255" lon="10.442035"><ele>185.0</ele><time>2026-05-01T11:50:59.466Z</time></trkpt><trkpt lat="45.5472433" lon="10.4419333"><ele>184.75</ele><time>2026-05-01T11:51:00.466Z</time></trkpt><trkpt lat="45.5471667" lon="10.4418"><ele>184.5</ele><time>2026-05-01T11:51:02.466Z</time></trkpt><trkpt lat="45.5470883" lon="10.44176"><ele>184.25</ele><time>2026-05-01T11:51:03.466Z</time></trkpt><trkpt lat="45.54698" lon="10.44174"><ele>184.0</ele><time>2026-05-01T11:51:04.466Z</time></trkpt><trkpt lat="45.5468433" lon="10.4417417"><ele>183.66666666666669</ele><time>2026-05-01T11:51:05.466Z</time></trkpt><trkpt lat="45.5466733" lon="10.44174"><ele>183.33333333333334</ele><time>2026-05-01T11:51:06.466Z</time></trkpt><trkpt lat="45.5464933" lon="10.4417267"><ele>183.0</ele><time>2026-05-01T11:51:07.467Z</time></trkpt><trkpt lat="45.5463" lon="10.4417083"><ele>183.66666666666666</ele><time>2026-05-01T11:51:08.466Z</time></trkpt><trkpt lat="45.5461183" lon="10.4417017"><ele>184.33333333333331</ele><time>2026-05-01T11:51:09.466Z</time></trkpt><trkpt lat="45.5459483" lon="10.44168"><ele>185.0</ele><time>2026-05-01T11:51:10.466Z</time></trkpt><trkpt lat="45.5457867" lon="10.4416517"><ele>185.0</ele><time>2026-05-01T11:51:11.466Z</time></trkpt><trkpt lat="45.54564" lon="10.441615"><ele>185.0</ele><time>2026-05-01T11:51:12.466Z</time></trkpt><trkpt lat="45.5454933" lon="10.4415633"><ele>185.0</ele><time>2026-05-01T11:51:13.466Z</time></trkpt><trkpt lat="45.5453383" lon="10.4414967"><ele>185.0</ele><time>2026-05-01T11:51:14.466Z</time></trkpt><trkpt lat="45.5451733" lon="10.44143"><ele>185.0</ele><time>2026-05-01T11:51:15.466Z</time></trkpt><trkpt lat="45.5450017" lon="10.4413533"><ele>185.0</ele><time>2026-05-01T11:51:16.466Z</time></trkpt><trkpt lat="45.5448317" lon="10.4412767"><ele>184.33333333333331</ele><time>2026-05-01T11:51:17.466Z</time></trkpt><trkpt lat="45.5446567" lon="10.441205"><ele>183.66666666666666</ele><time>2026-05-01T11:51:18.466Z</time></trkpt><trkpt lat="45.544485" lon="10.4411433"><ele>183.0</ele><time>2026-05-01T11:51:19.466Z</time></trkpt><trkpt lat="45.544315" lon="10.4410883"><ele>183.0</ele><time>2026-05-01T11:51:20.466Z</time></trkpt><trkpt lat="45.544165" lon="10.4410217"><ele>183.0</ele><time>2026-05-01T11:51:21.466Z</time></trkpt><trkpt lat="45.5440267" lon="10.4409733"><ele>183.0</ele><time>2026-05-01T11:51:22.466Z</time></trkpt><trkpt lat="45.5438983" lon="10.4409267"><ele>183.0</ele><time>2026-05-01T11:51:23.466Z</time></trkpt><trkpt lat="45.543775" lon="10.4408883"><ele>182.75</ele><time>2026-05-01T11:51:24.466Z</time></trkpt><trkpt lat="45.5436483" lon="10.4408567"><ele>182.5</ele><time>2026-05-01T11:51:25.466Z</time></trkpt><trkpt lat="45.5435167" lon="10.4408333"><ele>182.25</ele><time>2026-05-01T11:51:26.466Z</time></trkpt><trkpt lat="45.5433933" lon="10.44082"><ele>182.0</ele><time>2026-05-01T11:51:27.466Z</time></trkpt><trkpt lat="45.543265" lon="10.44079"><ele>182.0</ele><time>2026-05-01T11:51:28.466Z</time></trkpt><trkpt lat="45.54314" lon="10.4407483"><ele>182.0</ele><time>2026-05-01T11:51:29.466Z</time></trkpt><trkpt lat="45.543025" lon="10.4407017"><ele>182.0</ele><time>2026-05-01T11:51:30.466Z</time></trkpt><trkpt lat="45.542915" lon="10.4406533"><ele>182.0</ele><time>2026-05-01T11:51:31.466Z</time></trkpt><trkpt lat="45.5428133" lon="10.440605"><ele>181.83333333333331</ele><time>2026-05-01T11:51:32.466Z</time></trkpt><trkpt lat="45.542725" lon="10.4405567"><ele>181.66666666666666</ele><time>2026-05-01T11:51:33.466Z</time></trkpt><trkpt lat="45.54267" lon="10.4404367"><ele>181.5</ele><time>2026-05-01T11:51:35.466Z</time></trkpt><trkpt lat="45.542685" lon="10.4403483"><ele>181.33333333333334</ele><time>2026-05-01T11:51:36.466Z</time></trkpt><trkpt lat="45.5427033" lon="10.44025"><ele>181.16666666666669</ele><time>2026-05-01T11:51:37.466Z</time></trkpt><trkpt lat="45.54268" lon="10.4401267"><ele>181.0</ele><time>2026-05-01T11:51:39.467Z</time></trkpt><trkpt lat="45.5426183" lon="10.440185"><ele>181.0</ele><time>2026-05-01T11:51:41.466Z</time></trkpt><trkpt lat="45.5425733" lon="10.440305"><ele>181.0</ele><time>2026-05-01T11:51:42.466Z</time></trkpt><trkpt lat="45.5425133" lon="10.4404967"><ele>181.0</ele><time>2026-05-01T11:51:43.466Z</time></trkpt><trkpt lat="45.5424167" lon="10.4407083"><ele>181.0</ele><time>2026-05-01T11:51:44.467Z</time></trkpt><trkpt lat="45.5423" lon="10.4408917"><ele>181.0</ele><time>2026-05-01T11:51:45.467Z</time></trkpt><trkpt lat="45.5421633" lon="10.4410083"><ele>181.0</ele><time>2026-05-01T11:51:46.466Z</time></trkpt><trkpt lat="45.5420083" lon="10.4410717"><ele>181.0</ele><time>2026-05-01T11:51:47.466Z</time></trkpt><trkpt lat="45.5418433" lon="10.44112"><ele>180.0</ele><time>2026-05-01T11:51:48.466Z</time></trkpt><trkpt lat="45.5416683" lon="10.4411583"><ele>179.0</ele><time>2026-05-01T11:51:49.466Z</time></trkpt><trkpt lat="45.5414867" lon="10.4411883"><ele>178.0</ele><time>2026-05-01T11:51:50.466Z</time></trkpt><trkpt lat="45.5413083" lon="10.4411633"><ele>177.66666666666669</ele><time>2026-05-01T11:51:51.466Z</time></trkpt><trkpt lat="45.5411183" lon="10.44114"><ele>177.33333333333334</ele><time>2026-05-01T11:51:52.466Z</time></trkpt><trkpt lat="45.540925" lon="10.4411317"><ele>177.0</ele><time>2026-05-01T11:51:53.466Z</time></trkpt><trkpt lat="45.5407467" lon="10.4411267"><ele>177.0</ele><time>2026-05-01T11:51:54.466Z</time></trkpt><trkpt lat="45.5405783" lon="10.441145"><ele>177.0</ele><time>2026-05-01T11:51:55.467Z</time></trkpt><trkpt lat="45.540435" lon="10.44119"><ele>177.0</ele><time>2026-05-01T11:51:56.466Z</time></trkpt><trkpt lat="45.540305" lon="10.4412667"><ele>180.0</ele><time>2026-05-01T11:51:57.466Z</time></trkpt><trkpt lat="45.5401983" lon="10.441355"><ele>183.0</ele><time>2026-05-01T11:51:58.466Z</time></trkpt><trkpt lat="45.540115" lon="10.4414217"><ele>186.0</ele><time>2026-05-01T11:51:59.466Z</time></trkpt><trkpt lat="45.5400167" lon="10.4414533"><ele>189.0</ele><time>2026-05-01T11:52:00.466Z</time></trkpt><trkpt lat="45.539915" lon="10.441465"><ele>192.0</ele><time>2026-05-01T11:52:01.466Z</time></trkpt><trkpt lat="45.5398233" lon="10.44148"><ele>192.0</ele><time>2026-05-01T11:52:02.466Z</time></trkpt><trkpt lat="45.53974" lon="10.4415083"><ele>192.0</ele><time>2026-05-01T11:52:03.466Z</time></trkpt><trkpt lat="45.5396433" lon="10.4415083"><ele>192.0</ele><time>2026-05-01T11:52:04.466Z</time></trkpt><trkpt lat="45.53955" lon="10.44149"><ele>192.0</ele><time>2026-05-01T11:52:05.466Z</time></trkpt><trkpt lat="45.5394617" lon="10.4414317"><ele>192.0</ele><time>2026-05-01T11:52:06.466Z</time></trkpt><trkpt lat="45.5393783" lon="10.4413433"><ele>192.2</ele><time>2026-05-01T11:52:07.467Z</time></trkpt><trkpt lat="45.5392917" lon="10.44129"><ele>192.39999999999998</ele><time>2026-05-01T11:52:08.466Z</time></trkpt><trkpt lat="45.53921" lon="10.4412967"><ele>192.60000000000002</ele><time>2026-05-01T11:52:09.466Z</time></trkpt><trkpt lat="45.5391183" lon="10.4413383"><ele>192.8</ele><time>2026-05-01T11:52:10.466Z</time></trkpt><trkpt lat="45.539025" lon="10.441415"><ele>193.0</ele><time>2026-05-01T11:52:11.467Z</time></trkpt><trkpt lat="45.5389267" lon="10.44147"><ele>193.0</ele><time>2026-05-01T11:52:12.466Z</time></trkpt><trkpt lat="45.5388133" lon="10.441505"><ele>193.0</ele><time>2026-05-01T11:52:13.466Z</time></trkpt><trkpt lat="45.538695" lon="10.4415117"><ele>193.0</ele><time>2026-05-01T11:52:14.466Z</time></trkpt><trkpt lat="45.538565" lon="10.4414817"><ele>193.0</ele><time>2026-05-01T11:52:15.466Z</time></trkpt><trkpt lat="45.53842" lon="10.44143"><ele>193.33333333333331</ele><time>2026-05-01T11:52:16.466Z</time></trkpt><trkpt lat="45.5382583" lon="10.4413617"><ele>193.66666666666669</ele><time>2026-05-01T11:52:17.466Z</time></trkpt><trkpt lat="45.5381" lon="10.4413017"><ele>194.0</ele><time>2026-05-01T11:52:18.466Z</time></trkpt><trkpt lat="45.537955" lon="10.44124"><ele>192.5</ele><time>2026-05-01T11:52:19.466Z</time></trkpt><trkpt lat="45.5378233" lon="10.4411683"><ele>191.0</ele><time>2026-05-01T11:52:20.466Z</time></trkpt><trkpt lat="45.53771" lon="10.4410767"><ele>189.5</ele><time>2026-05-01T11:52:21.466Z</time></trkpt><trkpt lat="45.5375933" lon="10.4409683"><ele>188.0</ele><time>2026-05-01T11:52:22.466Z</time></trkpt><trkpt lat="45.5374683" lon="10.44085"><ele>188.0</ele><time>2026-05-01T11:52:23.466Z</time></trkpt><trkpt lat="45.53734" lon="10.4407533"><ele>188.0</ele><time>2026-05-01T11:52:24.467Z</time></trkpt><trkpt lat="45.5371967" lon="10.4406517"><ele>188.0</ele><time>2026-05-01T11:52:25.466Z</time></trkpt><trkpt lat="45.537065" lon="10.440545"><ele>189.33333333333331</ele><time>2026-05-01T11:52:26.466Z</time></trkpt><trkpt lat="45.5369317" lon="10.4404033"><ele>190.66666666666666</ele><time>2026-05-01T11:52:27.466Z</time></trkpt><trkpt lat="45.53679" lon="10.4402533"><ele>192.0</ele><time>2026-05-01T11:52:28.466Z</time></trkpt><trkpt lat="45.5366517" lon="10.440075"><ele>192.0</ele><time>2026-05-01T11:52:29.466Z</time></trkpt><trkpt lat="45.53652" lon="10.4399117"><ele>192.0</ele><time>2026-05-01T11:52:30.466Z</time></trkpt><trkpt lat="45.536415" lon="10.4397683"><ele>192.0</ele><time>2026-05-01T11:52:31.466Z</time></trkpt><trkpt lat="45.536315" lon="10.4396267"><ele>193.0</ele><time>2026-05-01T11:52:32.466Z</time></trkpt><trkpt lat="45.5362033" lon="10.4394433"><ele>194.0</ele><time>2026-05-01T11:52:33.466Z</time></trkpt><trkpt lat="45.5361017" lon="10.4392617"><ele>195.0</ele><time>2026-05-01T11:52:34.466Z</time></trkpt><trkpt lat="45.536025" lon="10.439065"><ele>195.0</ele><time>2026-05-01T11:52:35.466Z</time></trkpt><trkpt lat="45.5359483" lon="10.4388933"><ele>195.0</ele><time>2026-05-01T11:52:36.466Z</time></trkpt><trkpt lat="45.5358817" lon="10.4387167"><ele>195.0</ele><time>2026-05-01T11:52:37.466Z</time></trkpt><trkpt lat="45.5358117" lon="10.4385533"><ele>195.0</ele><time>2026-05-01T11:52:38.466Z</time></trkpt><trkpt lat="45.535735" lon="10.43841"><ele>195.5</ele><time>2026-05-01T11:52:39.466Z</time></trkpt><trkpt lat="45.5356433" lon="10.43829"><ele>196.0</ele><time>2026-05-01T11:52:40.466Z</time></trkpt><trkpt lat="45.5355333" lon="10.4381917"><ele>196.5</ele><time>2026-05-01T11:52:41.466Z</time></trkpt><trkpt lat="45.5354167" lon="10.4380783"><ele>197.0</ele><time>2026-05-01T11:52:42.466Z</time></trkpt><trkpt lat="45.5353183" lon="10.4379767"><ele>192.33333333333334</ele><time>2026-05-01T11:52:43.466Z</time></trkpt><trkpt lat="45.5352083" lon="10.4378267"><ele>187.66666666666669</ele><time>2026-05-01T11:52:44.466Z</time></trkpt><trkpt lat="45.5351017" lon="10.4376783"><ele>183.0</ele><time>2026-05-01T11:52:45.466Z</time></trkpt><trkpt lat="45.5349733" lon="10.4375367"><ele>183.0</ele><time>2026-05-01T11:52:46.466Z</time></trkpt><trkpt lat="45.5348317" lon="10.437385"><ele>183.0</ele><time>2026-05-01T11:52:47.466Z</time></trkpt><trkpt lat="45.5346733" lon="10.4372217"><ele>183.0</ele><time>2026-05-01T11:52:48.466Z</time></trkpt><trkpt lat="45.5345367" lon="10.4370667"><ele>182.75</ele><time>2026-05-01T11:52:49.466Z</time></trkpt><trkpt lat="45.534415" lon="10.436915"><ele>182.5</ele><time>2026-05-01T11:52:50.466Z</time></trkpt><trkpt lat="45.53431" lon="10.4367817"><ele>182.25</ele><time>2026-05-01T11:52:51.466Z</time></trkpt><trkpt lat="45.5342167" lon="10.4366617"><ele>182.0</ele><time>2026-05-01T11:52:52.466Z</time></trkpt><trkpt lat="45.534115" lon="10.436545"><ele>182.0</ele><time>2026-05-01T11:52:53.467Z</time></trkpt><trkpt lat="45.5339967" lon="10.43644"><ele>182.0</ele><time>2026-05-01T11:52:54.467Z</time></trkpt><trkpt lat="45.5338683" lon="10.4363417"><ele>182.0</ele><time>2026-05-01T11:52:55.466Z</time></trkpt><trkpt lat="45.533725" lon="10.4362567"><ele>182.0</ele><time>2026-05-01T11:52:56.466Z</time></trkpt><trkpt lat="45.53358" lon="10.4361517"><ele>184.33333333333331</ele><time>2026-05-01T11:52:57.466Z</time></trkpt><trkpt lat="45.5334267" lon="10.4360383"><ele>186.66666666666666</ele><time>2026-05-01T11:52:58.466Z</time></trkpt><trkpt lat="45.5332767" lon="10.435925"><ele>189.0</ele><time>2026-05-01T11:52:59.466Z</time></trkpt><trkpt lat="45.5331283" lon="10.4357983"><ele>189.0</ele><time>2026-05-01T11:53:00.466Z</time></trkpt><trkpt lat="45.5330017" lon="10.4356767"><ele>189.0</ele><time>2026-05-01T11:53:01.466Z</time></trkpt><trkpt lat="45.532885" lon="10.435555"><ele>189.0</ele><time>2026-05-01T11:53:02.466Z</time></trkpt><trkpt lat="45.5327783" lon="10.43544"><ele>189.0</ele><time>2026-05-01T11:53:03.466Z</time></trkpt><trkpt lat="45.5326717" lon="10.4353483"><ele>190.75</ele><time>2026-05-01T11:53:04.466Z</time></trkpt><trkpt lat="45.532565" lon="10.435285"><ele>192.5</ele><time>2026-05-01T11:53:05.466Z</time></trkpt><trkpt lat="45.5324617" lon="10.4352667"><ele>194.25</ele><time>2026-05-01T11:53:06.466Z</time></trkpt><trkpt lat="45.5323517" lon="10.4353017"><ele>196.0</ele><time>2026-05-01T11:53:07.466Z</time></trkpt><trkpt lat="45.5322233" lon="10.4353633"><ele>196.0</ele><time>2026-05-01T11:53:08.466Z</time></trkpt><trkpt lat="45.5320867" lon="10.4354367"><ele>196.0</ele><time>2026-05-01T11:53:09.466Z</time></trkpt><trkpt lat="45.5319467" lon="10.4355083"><ele>196.0</ele><time>2026-05-01T11:53:10.466Z</time></trkpt><trkpt lat="45.53181" lon="10.4355817"><ele>196.0</ele><time>2026-05-01T11:53:11.466Z</time></trkpt><trkpt lat="45.5316833" lon="10.4356583"><ele>198.16666666666666</ele><time>2026-05-01T11:53:12.466Z</time></trkpt><trkpt lat="45.5315783" lon="10.4357433"><ele>200.33333333333331</ele><time>2026-05-01T11:53:13.466Z</time></trkpt><trkpt lat="45.5315283" lon="10.43581"><ele>202.5</ele><time>2026-05-01T11:53:14.466Z</time></trkpt><trkpt lat="45.5314617" lon="10.435845"><ele>204.66666666666669</ele><time>2026-05-01T11:53:16.466Z</time></trkpt><trkpt lat="45.5313883" lon="10.4357717"><ele>206.83333333333334</ele><time>2026-05-01T11:53:18.466Z</time></trkpt><trkpt lat="45.5313183" lon="10.4357083"><ele>209.0</ele><time>2026-05-01T11:53:19.466Z</time></trkpt><trkpt lat="45.53122" lon="10.4356283"><ele>209.0</ele><time>2026-05-01T11:53:20.466Z</time></trkpt><trkpt lat="45.5311067" lon="10.4355317"><ele>209.0</ele><time>2026-05-01T11:53:21.466Z</time></trkpt><trkpt lat="45.5309967" lon="10.43542"><ele>209.0</ele><time>2026-05-01T11:53:22.466Z</time></trkpt><trkpt lat="45.5308883" lon="10.4352967"><ele>209.0</ele><time>2026-05-01T11:53:23.466Z</time></trkpt><trkpt lat="45.53079" lon="10.4351517"><ele>209.0</ele><time>2026-05-01T11:53:24.466Z</time></trkpt><trkpt lat="45.530685" lon="10.4349783"><ele>209.0</ele><time>2026-05-01T11:53:25.466Z</time></trkpt><trkpt lat="45.5306117" lon="10.4348317"><ele>209.0</ele><time>2026-05-01T11:53:26.466Z</time></trkpt><trkpt lat="45.5305283" lon="10.43468"><ele>209.0</ele><time>2026-05-01T11:53:27.466Z</time></trkpt><trkpt lat="45.5304283" lon="10.4345233"><ele>208.66666666666669</ele><time>2026-05-01T11:53:28.466Z</time></trkpt><trkpt lat="45.5303233" lon="10.4343933"><ele>208.33333333333331</ele><time>2026-05-01T11:53:29.466Z</time></trkpt><trkpt lat="45.5302033" lon="10.43428"><ele>208.0</ele><time>2026-05-01T11:53:30.466Z</time></trkpt><trkpt lat="45.5300567" lon="10.4341533"><ele>208.0</ele><time>2026-05-01T11:53:31.466Z</time></trkpt><trkpt lat="45.5298967" lon="10.4340333"><ele>208.0</ele><time>2026-05-01T11:53:32.466Z</time></trkpt><trkpt lat="45.5297333" lon="10.4339033"><ele>208.0</ele><time>2026-05-01T11:53:33.466Z</time></trkpt><trkpt lat="45.52957" lon="10.43377"><ele>208.0</ele><time>2026-05-01T11:53:34.466Z</time></trkpt><trkpt lat="45.529405" lon="10.43364"><ele>208.0</ele><time>2026-05-01T11:53:35.466Z</time></trkpt><trkpt lat="45.5292433" lon="10.43351"><ele>208.0</ele><time>2026-05-01T11:53:36.466Z</time></trkpt><trkpt lat="45.529105" lon="10.4333917"><ele>208.0</ele><time>2026-05-01T11:53:37.467Z</time></trkpt><trkpt lat="45.5289767" lon="10.4332817"><ele>208.0</ele><time>2026-05-01T11:53:38.466Z</time></trkpt><trkpt lat="45.5288617" lon="10.4331817"><ele>208.0</ele><time>2026-05-01T11:53:39.466Z</time></trkpt><trkpt lat="45.52876" lon="10.4330933"><ele>208.0</ele><time>2026-05-01T11:53:40.466Z</time></trkpt><trkpt lat="45.5286583" lon="10.4329867"><ele>207.0</ele><time>2026-05-01T11:53:41.466Z</time></trkpt><trkpt lat="45.5285533" lon="10.4328333"><ele>206.0</ele><time>2026-05-01T11:53:42.466Z</time></trkpt><trkpt lat="45.52845" lon="10.4326883"><ele>205.0</ele><time>2026-05-01T11:53:43.466Z</time></trkpt><trkpt lat="45.528355" lon="10.4325667"><ele>204.0</ele><time>2026-05-01T11:53:44.466Z</time></trkpt><trkpt lat="45.528275" lon="10.4324567"><ele>204.0</ele><time>2026-05-01T11:53:45.466Z</time></trkpt><trkpt lat="45.5281817" lon="10.4323567"><ele>204.0</ele><time>2026-05-01T11:53:46.466Z</time></trkpt><trkpt lat="45.5280783" lon="10.432235"><ele>204.0</ele><time>2026-05-01T11:53:47.466Z</time></trkpt><trkpt lat="45.5279533" lon="10.4320983"><ele>204.0</ele><time>2026-05-01T11:53:48.467Z</time></trkpt><trkpt lat="45.5278267" lon="10.4319333"><ele>204.33333333333331</ele><time>2026-05-01T11:53:49.467Z</time></trkpt><trkpt lat="45.527705" lon="10.4317783"><ele>204.66666666666666</ele><time>2026-05-01T11:53:50.467Z</time></trkpt><trkpt lat="45.52759" lon="10.4316233"><ele>205.0</ele><time>2026-05-01T11:53:51.467Z</time></trkpt><trkpt lat="45.5274883" lon="10.4314867"><ele>205.0</ele><time>2026-05-01T11:53:52.467Z</time></trkpt><trkpt lat="45.5274067" lon="10.4313733"><ele>205.0</ele><time>2026-05-01T11:53:53.467Z</time></trkpt><trkpt lat="45.527345" lon="10.4312983"><ele>205.0</ele><time>2026-05-01T11:53:54.467Z</time></trkpt><trkpt lat="45.5272667" lon="10.4312767"><ele>205.0</ele><time>2026-05-01T11:53:56.467Z</time></trkpt><trkpt lat="45.52717" lon="10.43143"><ele>205.0</ele><time>2026-05-01T11:53:58.467Z</time></trkpt><trkpt lat="45.527095" lon="10.43157"><ele>204.6</ele><time>2026-05-01T11:53:59.467Z</time></trkpt><trkpt lat="45.527035" lon="10.4316883"><ele>204.2</ele><time>2026-05-01T11:54:00.467Z</time></trkpt><trkpt lat="45.526985" lon="10.43178"><ele>203.8</ele><time>2026-05-01T11:54:01.467Z</time></trkpt><trkpt lat="45.5269117" lon="10.43182"><ele>203.4</ele><time>2026-05-01T11:54:03.467Z</time></trkpt><trkpt lat="45.5268417" lon="10.4316983"><ele>203.0</ele><time>2026-05-01T11:54:05.467Z</time></trkpt><trkpt lat="45.5267817" lon="10.431585"><ele>203.0</ele><time>2026-05-01T11:54:06.467Z</time></trkpt><trkpt lat="45.526695" lon="10.4314567"><ele>203.0</ele><time>2026-05-01T11:54:07.467Z</time></trkpt><trkpt lat="45.5266133" lon="10.43132"><ele>203.0</ele><time>2026-05-01T11:54:08.467Z</time></trkpt><trkpt lat="45.52653" lon="10.431195"><ele>203.0</ele><time>2026-05-01T11:54:09.467Z</time></trkpt><trkpt lat="45.5264617" lon="10.4310867"><ele>203.00000000000003</ele><time>2026-05-01T11:54:10.468Z</time></trkpt><trkpt lat="45.5263967" lon="10.4309867"><ele>203.0</ele><time>2026-05-01T11:54:11.467Z</time></trkpt><trkpt lat="45.526345" lon="10.4309"><ele>203.0</ele><time>2026-05-01T11:54:12.467Z</time></trkpt><trkpt lat="45.5263067" lon="10.430825"><ele>203.0</ele><time>2026-05-01T11:54:13.467Z</time></trkpt><trkpt lat="45.5262467" lon="10.430775"><ele>203.00000000000003</ele><time>2026-05-01T11:54:15.468Z</time></trkpt><trkpt lat="45.52618" lon="10.430825"><ele>203.0</ele><time>2026-05-01T11:54:17.467Z</time></trkpt><trkpt lat="45.526075" lon="10.4309333"><ele>203.00000000000003</ele><time>2026-05-01T11:54:19.467Z</time></trkpt><trkpt lat="45.526015" lon="10.4310067"><ele>203.0</ele><time>2026-05-01T11:54:20.467Z</time></trkpt><trkpt lat="45.525955" lon="10.431075"><ele>203.0</ele><time>2026-05-01T11:54:21.467Z</time></trkpt><trkpt lat="45.525895" lon="10.4312017"><ele>203.0</ele><time>2026-05-01T11:54:23.467Z</time></trkpt><trkpt lat="45.5258767" lon="10.43133"><ele>203.00000000000003</ele><time>2026-05-01T11:54:25.467Z</time></trkpt><trkpt lat="45.525805" lon="10.4313733"><ele>203.0</ele><time>2026-05-01T11:54:29.467Z</time></trkpt><trkpt lat="45.5257283" lon="10.43144"><ele>203.0</ele><time>2026-05-01T11:54:31.467Z</time></trkpt><trkpt lat="45.5256517" lon="10.4315217"><ele>203.0</ele><time>2026-05-01T11:54:32.467Z</time></trkpt><trkpt lat="45.5255817" lon="10.4316083"><ele>203.0</ele><time>2026-05-01T11:54:33.468Z</time></trkpt><trkpt lat="45.5255233" lon="10.4316667"><ele>203.0</ele><time>2026-05-01T11:54:34.467Z</time></trkpt><trkpt lat="45.5254433" lon="10.4316667"><ele>203.0</ele><time>2026-05-01T11:54:36.467Z</time></trkpt><trkpt lat="45.525365" lon="10.43151"><ele>202.75</ele><time>2026-05-01T11:54:38.467Z</time></trkpt><trkpt lat="45.5253017" lon="10.43135"><ele>202.5</ele><time>2026-05-01T11:54:39.467Z</time></trkpt><trkpt lat="45.5252083" lon="10.4311517"><ele>202.25</ele><time>2026-05-01T11:54:40.467Z</time></trkpt><trkpt lat="45.5251317" lon="10.4309817"><ele>202.0</ele><time>2026-05-01T11:54:41.467Z</time></trkpt><trkpt lat="45.5250683" lon="10.430845"><ele>202.0</ele><time>2026-05-01T11:54:42.467Z</time></trkpt><trkpt lat="45.525015" lon="10.430735"><ele>202.0</ele><time>2026-05-01T11:54:43.467Z</time></trkpt><trkpt lat="45.5249733" lon="10.430655"><ele>202.0</ele><time>2026-05-01T11:54:44.467Z</time></trkpt><trkpt lat="45.52489" lon="10.4306033"><ele>202.0</ele><time>2026-05-01T11:54:46.467Z</time></trkpt><trkpt lat="45.5247783" lon="10.4307083"><ele>202.0</ele><time>2026-05-01T11:54:48.467Z</time></trkpt><trkpt lat="45.5247167" lon="10.4307783"><ele>202.0</ele><time>2026-05-01T11:54:49.467Z</time></trkpt><trkpt lat="45.5246017" lon="10.430845"><ele>202.0</ele><time>2026-05-01T11:54:51.468Z</time></trkpt><trkpt lat="45.5245333" lon="10.4308867"><ele>202.0</ele><time>2026-05-01T11:54:52.467Z</time></trkpt><trkpt lat="45.5244667" lon="10.4309583"><ele>202.0</ele><time>2026-05-01T11:54:53.467Z</time></trkpt><trkpt lat="45.5244" lon="10.431065"><ele>202.0</ele><time>2026-05-01T11:54:54.467Z</time></trkpt><trkpt lat="45.52432" lon="10.4311967"><ele>201.25</ele><time>2026-05-01T11:54:55.467Z</time></trkpt><trkpt lat="45.5242367" lon="10.431325"><ele>200.5</ele><time>2026-05-01T11:54:56.468Z</time></trkpt><trkpt lat="45.5241517" lon="10.4314517"><ele>199.75</ele><time>2026-05-01T11:54:57.467Z</time></trkpt><trkpt lat="45.5240767" lon="10.4315667"><ele>199.0</ele><time>2026-05-01T11:54:58.467Z</time></trkpt><trkpt lat="45.5240067" lon="10.4316717"><ele>198.99999999999997</ele><time>2026-05-01T11:54:59.467Z</time></trkpt><trkpt lat="45.5239333" lon="10.43175"><ele>199.0</ele><time>2026-05-01T11:55:00.467Z</time></trkpt><trkpt lat="45.5238617" lon="10.4317967"><ele>199.0</ele><time>2026-05-01T11:55:01.467Z</time></trkpt><trkpt lat="45.5237767" lon="10.4318167"><ele>199.0</ele><time>2026-05-01T11:55:02.467Z</time></trkpt><trkpt lat="45.52369" lon="10.4318333"><ele>198.99999999999997</ele><time>2026-05-01T11:55:03.467Z</time></trkpt><trkpt lat="45.5236133" lon="10.43185"><ele>199.0</ele><time>2026-05-01T11:55:04.467Z</time></trkpt><trkpt lat="45.52354" lon="10.4318717"><ele>198.79999999999998</ele><time>2026-05-01T11:55:05.467Z</time></trkpt><trkpt lat="45.5234683" lon="10.4319183"><ele>198.6</ele><time>2026-05-01T11:55:06.467Z</time></trkpt><trkpt lat="45.5233917" lon="10.4319917"><ele>198.4</ele><time>2026-05-01T11:55:07.467Z</time></trkpt><trkpt lat="45.5233133" lon="10.432115"><ele>198.2</ele><time>2026-05-01T11:55:08.467Z</time></trkpt><trkpt lat="45.5232217" lon="10.4322667"><ele>198.0</ele><time>2026-05-01T11:55:09.467Z</time></trkpt><trkpt lat="45.523135" lon="10.43239"><ele>197.8</ele><time>2026-05-01T11:55:10.467Z</time></trkpt><trkpt lat="45.523055" lon="10.43248"><ele>197.60000000000002</ele><time>2026-05-01T11:55:11.467Z</time></trkpt><trkpt lat="45.5229917" lon="10.43254"><ele>197.39999999999998</ele><time>2026-05-01T11:55:12.467Z</time></trkpt><trkpt lat="45.52293" lon="10.4326267"><ele>197.2</ele><time>2026-05-01T11:55:14.467Z</time></trkpt><trkpt lat="45.5228183" lon="10.4326433"><ele>197.0</ele><time>2026-05-01T11:55:16.467Z</time></trkpt><trkpt lat="45.5227167" lon="10.4326117"><ele>197.0</ele><time>2026-05-01T11:55:17.467Z</time></trkpt><trkpt lat="45.5225817" lon="10.432575"><ele>197.0</ele><time>2026-05-01T11:55:18.467Z</time></trkpt><trkpt lat="45.522415" lon="10.43254"><ele>197.0</ele><time>2026-05-01T11:55:19.467Z</time></trkpt><trkpt lat="45.52224" lon="10.4325183"><ele>195.66666666666669</ele><time>2026-05-01T11:55:20.467Z</time></trkpt><trkpt lat="45.5220533" lon="10.4325167"><ele>194.33333333333331</ele><time>2026-05-01T11:55:21.467Z</time></trkpt><trkpt lat="45.5218567" lon="10.4325233"><ele>193.0</ele><time>2026-05-01T11:55:22.467Z</time></trkpt><trkpt lat="45.521655" lon="10.4325483"><ele>193.0</ele><time>2026-05-01T11:55:23.468Z</time></trkpt><trkpt lat="45.52145" lon="10.4325667"><ele>193.0</ele><time>2026-05-01T11:55:24.468Z</time></trkpt><trkpt lat="45.5212333" lon="10.43258"><ele>193.0</ele><time>2026-05-01T11:55:25.467Z</time></trkpt><trkpt lat="45.521015" lon="10.4325583"><ele>192.5</ele><time>2026-05-01T11:55:26.467Z</time></trkpt><trkpt lat="45.5207933" lon="10.4325033"><ele>192.0</ele><time>2026-05-01T11:55:27.467Z</time></trkpt><trkpt lat="45.5205733" lon="10.4324117"><ele>190.5</ele><time>2026-05-01T11:55:28.467Z</time></trkpt><trkpt lat="45.5203567" lon="10.4322983"><ele>189.0</ele><time>2026-05-01T11:55:29.468Z</time></trkpt><trkpt lat="45.5201433" lon="10.4321967"><ele>188.33333333333334</ele><time>2026-05-01T11:55:30.467Z</time></trkpt><trkpt lat="45.51995" lon="10.4320983"><ele>187.66666666666669</ele><time>2026-05-01T11:55:31.467Z</time></trkpt><trkpt lat="45.5197633" lon="10.4320233"><ele>187.0</ele><time>2026-05-01T11:55:32.468Z</time></trkpt><trkpt lat="45.5195833" lon="10.4319583"><ele>188.66666666666669</ele><time>2026-05-01T11:55:33.467Z</time></trkpt><trkpt lat="45.5194117" lon="10.4319167"><ele>190.33333333333334</ele><time>2026-05-01T11:55:34.467Z</time></trkpt><trkpt lat="45.5192283" lon="10.4318833"><ele>192.0</ele><time>2026-05-01T11:55:35.467Z</time></trkpt><trkpt lat="45.5190483" lon="10.43187"><ele>192.0</ele><time>2026-05-01T11:55:36.468Z</time></trkpt><trkpt lat="45.5188667" lon="10.431865"><ele>192.0</ele><time>2026-05-01T11:55:37.467Z</time></trkpt><trkpt lat="45.5186733" lon="10.4318733"><ele>192.0</ele><time>2026-05-01T11:55:38.467Z</time></trkpt><trkpt lat="45.5184867" lon="10.4318633"><ele>192.0</ele><time>2026-05-01T11:55:39.467Z</time></trkpt><trkpt lat="45.518295" lon="10.4318517"><ele>192.0</ele><time>2026-05-01T11:55:40.467Z</time></trkpt><trkpt lat="45.5181233" lon="10.4318433"><ele>192.0</ele><time>2026-05-01T11:55:41.467Z</time></trkpt><trkpt lat="45.5179833" lon="10.4318267"><ele>192.2</ele><time>2026-05-01T11:55:42.467Z</time></trkpt><trkpt lat="45.51787" lon="10.4317967"><ele>192.39999999999998</ele><time>2026-05-01T11:55:43.467Z</time></trkpt><trkpt lat="45.517785" lon="10.4317317"><ele>192.60000000000002</ele><time>2026-05-01T11:55:44.467Z</time></trkpt><trkpt lat="45.51772" lon="10.4316267"><ele>192.8</ele><time>2026-05-01T11:55:45.467Z</time></trkpt><trkpt lat="45.51767" lon="10.4314767"><ele>193.0</ele><time>2026-05-01T11:55:46.467Z</time></trkpt><trkpt lat="45.517635" lon="10.4312833"><ele>192.33333333333331</ele><time>2026-05-01T11:55:47.467Z</time></trkpt><trkpt lat="45.5175983" lon="10.431045"><ele>191.66666666666666</ele><time>2026-05-01T11:55:48.467Z</time></trkpt><trkpt lat="45.5175467" lon="10.4307733"><ele>191.0</ele><time>2026-05-01T11:55:49.467Z</time></trkpt><trkpt lat="45.51749" lon="10.4304883"><ele>190.66666666666666</ele><time>2026-05-01T11:55:50.467Z</time></trkpt><trkpt lat="45.5174417" lon="10.4302317"><ele>190.33333333333334</ele><time>2026-05-01T11:55:51.467Z</time></trkpt><trkpt lat="45.5173917" lon="10.4300033"><ele>190.0</ele><time>2026-05-01T11:55:52.467Z</time></trkpt><trkpt lat="45.5173383" lon="10.4298083"><ele>189.5</ele><time>2026-05-01T11:55:53.467Z</time></trkpt><trkpt lat="45.5172933" lon="10.42961"><ele>189.0</ele><time>2026-05-01T11:55:54.467Z</time></trkpt><trkpt lat="45.5172417" lon="10.42944"><ele>188.5</ele><time>2026-05-01T11:55:55.467Z</time></trkpt><trkpt lat="45.5171767" lon="10.4292683"><ele>188.0</ele><time>2026-05-01T11:55:56.467Z</time></trkpt><trkpt lat="45.5171033" lon="10.42911"><ele>188.0</ele><time>2026-05-01T11:55:57.467Z</time></trkpt><trkpt lat="45.517015" lon="10.4289583"><ele>188.0</ele><time>2026-05-01T11:55:58.467Z</time></trkpt><trkpt lat="45.516925" lon="10.4287983"><ele>188.0</ele><time>2026-05-01T11:55:59.467Z</time></trkpt><trkpt lat="45.5168333" lon="10.428625"><ele>188.0</ele><time>2026-05-01T11:56:00.467Z</time></trkpt><trkpt lat="45.516755" lon="10.4284333"><ele>187.0</ele><time>2026-05-01T11:56:01.467Z</time></trkpt><trkpt lat="45.516685" lon="10.4282067"><ele>186.0</ele><time>2026-05-01T11:56:02.467Z</time></trkpt><trkpt lat="45.51662" lon="10.42795"><ele>185.0</ele><time>2026-05-01T11:56:03.467Z</time></trkpt><trkpt lat="45.5165533" lon="10.4276683"><ele>184.0</ele><time>2026-05-01T11:56:04.467Z</time></trkpt><trkpt lat="45.5164867" lon="10.4273583"><ele>183.0</ele><time>2026-05-01T11:56:05.467Z</time></trkpt><trkpt lat="45.5164183" lon="10.4270217"><ele>182.5</ele><time>2026-05-01T11:56:06.467Z</time></trkpt><trkpt lat="45.5163567" lon="10.4266783"><ele>182.0</ele><time>2026-05-01T11:56:07.467Z</time></trkpt><trkpt lat="45.5163033" lon="10.4263783"><ele>182.0</ele><time>2026-05-01T11:56:08.467Z</time></trkpt><trkpt lat="45.5162567" lon="10.426105"><ele>182.0</ele><time>2026-05-01T11:56:09.467Z</time></trkpt><trkpt lat="45.5162117" lon="10.4258717"><ele>182.0</ele><time>2026-05-01T11:56:10.467Z</time></trkpt><trkpt lat="45.5161717" lon="10.4256567"><ele>182.0</ele><time>2026-05-01T11:56:11.467Z</time></trkpt><trkpt lat="45.5161283" lon="10.425465"><ele>182.0</ele><time>2026-05-01T11:56:12.467Z</time></trkpt><trkpt lat="45.5160817" lon="10.4252967"><ele>182.0</ele><time>2026-05-01T11:56:13.467Z</time></trkpt><trkpt lat="45.51604" lon="10.4251517"><ele>182.0</ele><time>2026-05-01T11:56:14.467Z</time></trkpt><trkpt lat="45.5160017" lon="10.425015"><ele>182.0</ele><time>2026-05-01T11:56:15.467Z</time></trkpt><trkpt lat="45.51597" lon="10.42488"><ele>182.0</ele><time>2026-05-01T11:56:16.467Z</time></trkpt><trkpt lat="45.51594" lon="10.424765"><ele>182.0</ele><time>2026-05-01T11:56:17.467Z</time></trkpt><trkpt lat="45.5159267" lon="10.424665"><ele>182.0</ele><time>2026-05-01T11:56:18.467Z</time></trkpt><trkpt lat="45.5159333" lon="10.4245733"><ele>182.0</ele><time>2026-05-01T11:56:19.468Z</time></trkpt><trkpt lat="45.51595" lon="10.4244833"><ele>182.0</ele><time>2026-05-01T11:56:20.467Z</time></trkpt><trkpt lat="45.5159817" lon="10.424385"><ele>182.25</ele><time>2026-05-01T11:56:21.467Z</time></trkpt><trkpt lat="45.51602" lon="10.4242617"><ele>182.5</ele><time>2026-05-01T11:56:22.468Z</time></trkpt><trkpt lat="45.5160683" lon="10.4241183"><ele>182.75</ele><time>2026-05-01T11:56:23.467Z</time></trkpt><trkpt lat="45.516125" lon="10.4239617"><ele>183.0</ele><time>2026-05-01T11:56:24.467Z</time></trkpt><trkpt lat="45.5161867" lon="10.4238083"><ele>183.2</ele><time>2026-05-01T11:56:25.467Z</time></trkpt><trkpt lat="45.5162433" lon="10.4236667"><ele>183.4</ele><time>2026-05-01T11:56:26.467Z</time></trkpt><trkpt lat="45.516295" lon="10.4235433"><ele>183.6</ele><time>2026-05-01T11:56:27.467Z</time></trkpt><trkpt lat="45.5163533" lon="10.4234367"><ele>183.79999999999998</ele><time>2026-05-01T11:56:28.467Z</time></trkpt><trkpt lat="45.5164083" lon="10.42332"><ele>184.0</ele><time>2026-05-01T11:56:29.467Z</time></trkpt><trkpt lat="45.5164583" lon="10.423205"><ele>184.0</ele><time>2026-05-01T11:56:30.467Z</time></trkpt><trkpt lat="45.516505" lon="10.4230917"><ele>184.0</ele><time>2026-05-01T11:56:31.467Z</time></trkpt><trkpt lat="45.5165383" lon="10.4229867"><ele>184.0</ele><time>2026-05-01T11:56:32.468Z</time></trkpt><trkpt lat="45.5165717" lon="10.4228817"><ele>184.0</ele><time>2026-05-01T11:56:33.467Z</time></trkpt><trkpt lat="45.5166083" lon="10.422795"><ele>184.0</ele><time>2026-05-01T11:56:34.467Z</time></trkpt><trkpt lat="45.51667" lon="10.422675"><ele>184.0</ele><time>2026-05-01T11:56:36.467Z</time></trkpt><trkpt lat="45.5167983" lon="10.422625"><ele>183.6</ele><time>2026-05-01T11:56:38.467Z</time></trkpt><trkpt lat="45.516875" lon="10.422615"><ele>183.2</ele><time>2026-05-01T11:56:39.467Z</time></trkpt><trkpt lat="45.5169617" lon="10.422545"><ele>182.79999999999998</ele><time>2026-05-01T11:56:41.467Z</time></trkpt><trkpt lat="45.5169833" lon="10.4224517"><ele>182.39999999999998</ele><time>2026-05-01T11:56:42.467Z</time></trkpt><trkpt lat="45.517015" lon="10.42232"><ele>182.0</ele><time>2026-05-01T11:56:43.467Z</time></trkpt><trkpt lat="45.517055" lon="10.4221483"><ele>181.75</ele><time>2026-05-01T11:56:44.467Z</time></trkpt><trkpt lat="45.51711" lon="10.421955"><ele>181.5</ele><time>2026-05-01T11:56:45.467Z</time></trkpt><trkpt lat="45.5171683" lon="10.4217483"><ele>181.25</ele><time>2026-05-01T11:56:46.467Z</time></trkpt><trkpt lat="45.51723" lon="10.4215667"><ele>181.0</ele><time>2026-05-01T11:56:47.467Z</time></trkpt><trkpt lat="45.517285" lon="10.4213917"><ele>181.0</ele><time>2026-05-01T11:56:48.467Z</time></trkpt><trkpt lat="45.5173433" lon="10.4212317"><ele>181.0</ele><time>2026-05-01T11:56:49.467Z</time></trkpt><trkpt lat="45.51741" lon="10.4210783"><ele>181.0</ele><time>2026-05-01T11:56:50.467Z</time></trkpt><trkpt lat="45.517465" lon="10.4209467"><ele>181.0</ele><time>2026-05-01T11:56:51.467Z</time></trkpt><trkpt lat="45.51751" lon="10.4208367"><ele>181.0</ele><time>2026-05-01T11:56:52.467Z</time></trkpt><trkpt lat="45.5175533" lon="10.4207433"><ele>181.0</ele><time>2026-05-01T11:56:53.467Z</time></trkpt><trkpt lat="45.5175933" lon="10.4206667"><ele>181.0</ele><time>2026-05-01T11:56:54.468Z</time></trkpt><trkpt lat="45.517645" lon="10.4205467"><ele>181.0</ele><time>2026-05-01T11:56:56.467Z</time></trkpt><trkpt lat="45.5176767" lon="10.42046"><ele>181.0</ele><time>2026-05-01T11:56:58.467Z</time></trkpt><trkpt lat="45.5177183" lon="10.420355"><ele>181.0</ele><time>2026-05-01T11:57:01.467Z</time></trkpt><trkpt lat="45.5176967" lon="10.4202633"><ele>181.0</ele><time>2026-05-01T11:57:04.467Z</time></trkpt><trkpt lat="45.5176283" lon="10.4201967"><ele>181.0</ele><time>2026-05-01T11:57:07.467Z</time></trkpt><trkpt lat="45.5175433" lon="10.4201217"><ele>181.0</ele><time>2026-05-01T11:57:09.468Z</time></trkpt><trkpt lat="45.517475" lon="10.4200683"><ele>181.0</ele><time>2026-05-01T11:57:10.467Z</time></trkpt><trkpt lat="45.5173783" lon="10.4199867"><ele>181.0</ele><time>2026-05-01T11:57:11.468Z</time></trkpt><trkpt lat="45.51726" lon="10.4198883"><ele>181.0</ele><time>2026-05-01T11:57:12.467Z</time></trkpt><trkpt lat="45.5171367" lon="10.419785"><ele>180.8</ele><time>2026-05-01T11:57:13.467Z</time></trkpt><trkpt lat="45.5170317" lon="10.4197"><ele>180.60000000000002</ele><time>2026-05-01T11:57:14.467Z</time></trkpt><trkpt lat="45.5169433" lon="10.4196317"><ele>180.4</ele><time>2026-05-01T11:57:15.467Z</time></trkpt><trkpt lat="45.5168733" lon="10.4195617"><ele>180.2</ele><time>2026-05-01T11:57:16.467Z</time></trkpt><trkpt lat="45.5168217" lon="10.4194617"><ele>180.0</ele><time>2026-05-01T11:57:18.467Z</time></trkpt><trkpt lat="45.51687" lon="10.4192767"><ele>180.0</ele><time>2026-05-01T11:57:20.467Z</time></trkpt><trkpt lat="45.51691" lon="10.4191317"><ele>180.0</ele><time>2026-05-01T11:57:21.467Z</time></trkpt><trkpt lat="45.51697" lon="10.418945"><ele>180.0</ele><time>2026-05-01T11:57:22.467Z</time></trkpt><trkpt lat="45.5170267" lon="10.4187583"><ele>180.0</ele><time>2026-05-01T11:57:23.467Z</time></trkpt><trkpt lat="45.5170817" lon="10.4185933"><ele>180.66666666666666</ele><time>2026-05-01T11:57:24.467Z</time></trkpt><trkpt lat="45.517125" lon="10.4184583"><ele>181.33333333333334</ele><time>2026-05-01T11:57:25.467Z</time></trkpt><trkpt lat="45.51715" lon="10.4183367"><ele>182.0</ele><time>2026-05-01T11:57:26.467Z</time></trkpt><trkpt lat="45.5171617" lon="10.41822"><ele>182.66666666666669</ele><time>2026-05-01T11:57:27.467Z</time></trkpt><trkpt lat="45.5171633" lon="10.418095"><ele>183.33333333333334</ele><time>2026-05-01T11:57:28.467Z</time></trkpt><trkpt lat="45.517145" lon="10.4179967"><ele>184.0</ele><time>2026-05-01T11:57:29.467Z</time></trkpt><trkpt lat="45.5171483" lon="10.4178883"><ele>184.79999999999998</ele><time>2026-05-01T11:57:30.467Z</time></trkpt><trkpt lat="45.5171583" lon="10.4177733"><ele>185.6</ele><time>2026-05-01T11:57:31.467Z</time></trkpt><trkpt lat="45.5171833" lon="10.4176367"><ele>186.4</ele><time>2026-05-01T11:57:32.467Z</time></trkpt><trkpt lat="45.5172283" lon="10.4174817"><ele>187.2</ele><time>2026-05-01T11:57:33.467Z</time></trkpt><trkpt lat="45.5172933" lon="10.4172967"><ele>188.0</ele><time>2026-05-01T11:57:34.467Z</time></trkpt><trkpt lat="45.5173517" lon="10.4171133"><ele>189.0</ele><time>2026-05-01T11:57:35.467Z</time></trkpt><trkpt lat="45.5174167" lon="10.4169433"><ele>190.0</ele><time>2026-05-01T11:57:36.467Z</time></trkpt><trkpt lat="45.5174583" lon="10.41677"><ele>191.0</ele><time>2026-05-01T11:57:37.467Z</time></trkpt><trkpt lat="45.5175017" lon="10.4166083"><ele>192.0</ele><time>2026-05-01T11:57:38.467Z</time></trkpt><trkpt lat="45.51753" lon="10.4164683"><ele>192.0</ele><time>2026-05-01T11:57:39.467Z</time></trkpt><trkpt lat="45.5175433" lon="10.4163417"><ele>192.0</ele><time>2026-05-01T11:57:40.467Z</time></trkpt><trkpt lat="45.5175467" lon="10.4161967"><ele>192.0</ele><time>2026-05-01T11:57:41.467Z</time></trkpt><trkpt lat="45.517555" lon="10.416055"><ele>192.0</ele><time>2026-05-01T11:57:42.468Z</time></trkpt><trkpt lat="45.5175533" lon="10.4159383"><ele>192.0</ele><time>2026-05-01T11:57:43.467Z</time></trkpt><trkpt lat="45.5175733" lon="10.4158033"><ele>192.33333333333334</ele><time>2026-05-01T11:57:44.467Z</time></trkpt><trkpt lat="45.51758" lon="10.4156733"><ele>192.66666666666669</ele><time>2026-05-01T11:57:45.467Z</time></trkpt><trkpt lat="45.51758" lon="10.4155567"><ele>193.0</ele><time>2026-05-01T11:57:46.467Z</time></trkpt><trkpt lat="45.5175783" lon="10.4154367"><ele>193.33333333333334</ele><time>2026-05-01T11:57:47.467Z</time></trkpt><trkpt lat="45.5175517" lon="10.415315"><ele>193.66666666666669</ele><time>2026-05-01T11:57:48.467Z</time></trkpt><trkpt lat="45.5175033" lon="10.4152"><ele>194.0</ele><time>2026-05-01T11:57:49.467Z</time></trkpt><trkpt lat="45.5174417" lon="10.4150683"><ele>194.0</ele><time>2026-05-01T11:57:50.467Z</time></trkpt><trkpt lat="45.5173833" lon="10.41493"><ele>194.0</ele><time>2026-05-01T11:57:51.467Z</time></trkpt><trkpt lat="45.5173283" lon="10.4148017"><ele>194.0</ele><time>2026-05-01T11:57:52.467Z</time></trkpt><trkpt lat="45.517295" lon="10.4146783"><ele>194.0</ele><time>2026-05-01T11:57:53.468Z</time></trkpt><trkpt lat="45.5172717" lon="10.4145433"><ele>194.0</ele><time>2026-05-01T11:57:54.467Z</time></trkpt><trkpt lat="45.5172583" lon="10.4143767"><ele>194.75</ele><time>2026-05-01T11:57:55.467Z</time></trkpt><trkpt lat="45.5172417" lon="10.414195"><ele>195.5</ele><time>2026-05-01T11:57:56.467Z</time></trkpt><trkpt lat="45.5172217" lon="10.4140033"><ele>196.25</ele><time>2026-05-01T11:57:57.467Z</time></trkpt><trkpt lat="45.5172117" lon="10.4138283"><ele>197.0</ele><time>2026-05-01T11:57:58.467Z</time></trkpt><trkpt lat="45.5172067" lon="10.4136967"><ele>197.0</ele><time>2026-05-01T11:57:59.467Z</time></trkpt><trkpt lat="45.5172067" lon="10.413565"><ele>197.0</ele><time>2026-05-01T11:58:01.468Z</time></trkpt><trkpt lat="45.5172167" lon="10.4134233"><ele>197.0</ele><time>2026-05-01T11:58:04.468Z</time></trkpt><trkpt lat="45.517225" lon="10.413295"><ele>197.0</ele><time>2026-05-01T11:58:06.467Z</time></trkpt><trkpt lat="45.51719" lon="10.413495"><ele>197.0</ele><time>2026-05-01T11:58:22.467Z</time></trkpt><trkpt lat="45.51718" lon="10.4136333"><ele>197.0</ele><time>2026-05-01T11:58:23.467Z</time></trkpt><trkpt lat="45.517175" lon="10.4137867"><ele>197.0</ele><time>2026-05-01T11:58:24.468Z</time></trkpt><trkpt lat="45.5171883" lon="10.4139533"><ele>197.0</ele><time>2026-05-01T11:58:25.467Z</time></trkpt><trkpt lat="45.517205" lon="10.4141283"><ele>197.0</ele><time>2026-05-01T11:58:26.467Z</time></trkpt><trkpt lat="45.51722" lon="10.41429"><ele>197.0</ele><time>2026-05-01T11:58:27.468Z</time></trkpt><trkpt lat="45.517235" lon="10.4144233"><ele>197.0</ele><time>2026-05-01T11:58:28.467Z</time></trkpt><trkpt lat="45.5172433" lon="10.4145367"><ele>197.0</ele><time>2026-05-01T11:58:29.467Z</time></trkpt><trkpt lat="45.517265" lon="10.4146467"><ele>197.0</ele><time>2026-05-01T11:58:30.467Z</time></trkpt><trkpt lat="45.5173017" lon="10.4147717"><ele>197.0</ele><time>2026-05-01T11:58:31.467Z</time></trkpt><trkpt lat="45.5173667" lon="10.41494"><ele>196.25</ele><time>2026-05-01T11:58:32.467Z</time></trkpt><trkpt lat="45.5174433" lon="10.4151183"><ele>195.5</ele><time>2026-05-01T11:58:33.467Z</time></trkpt><trkpt lat="45.5175217" lon="10.4152683"><ele>194.75</ele><time>2026-05-01T11:58:34.467Z</time></trkpt><trkpt lat="45.51762" lon="10.4153917"><ele>194.0</ele><time>2026-05-01T11:58:35.467Z</time></trkpt><trkpt lat="45.5177367" lon="10.4155033"><ele>194.0</ele><time>2026-05-01T11:58:36.467Z</time></trkpt><trkpt lat="45.5178667" lon="10.4156083"><ele>194.0</ele><time>2026-05-01T11:58:37.467Z</time></trkpt><trkpt lat="45.518015" lon="10.4157217"><ele>194.0</ele><time>2026-05-01T11:58:38.467Z</time></trkpt><trkpt lat="45.5181583" lon="10.415845"><ele>193.66666666666669</ele><time>2026-05-01T11:58:39.467Z</time></trkpt><trkpt lat="45.518275" lon="10.4159833"><ele>193.33333333333331</ele><time>2026-05-01T11:58:40.467Z</time></trkpt><trkpt lat="45.5183967" lon="10.4161267"><ele>193.0</ele><time>2026-05-01T11:58:41.467Z</time></trkpt><trkpt lat="45.5185083" lon="10.41631"><ele>193.33333333333331</ele><time>2026-05-01T11:58:42.468Z</time></trkpt><trkpt lat="45.518625" lon="10.4165033"><ele>193.66666666666669</ele><time>2026-05-01T11:58:43.467Z</time></trkpt><trkpt lat="45.518745" lon="10.4166967"><ele>194.0</ele><time>2026-05-01T11:58:44.467Z</time></trkpt><trkpt lat="45.5188567" lon="10.4168783"><ele>194.0</ele><time>2026-05-01T11:58:45.467Z</time></trkpt><trkpt lat="45.5189617" lon="10.4170483"><ele>194.0</ele><time>2026-05-01T11:58:46.467Z</time></trkpt><trkpt lat="45.5190517" lon="10.4171967"><ele>194.0</ele><time>2026-05-01T11:58:47.467Z</time></trkpt><trkpt lat="45.51913" lon="10.4173317"><ele>194.0</ele><time>2026-05-01T11:58:48.467Z</time></trkpt><trkpt lat="45.519195" lon="10.417445"><ele>194.39999999999998</ele><time>2026-05-01T11:58:49.467Z</time></trkpt><trkpt lat="45.51925" lon="10.4175183"><ele>194.8</ele><time>2026-05-01T11:58:50.467Z</time></trkpt><trkpt lat="45.51934" lon="10.4175317"><ele>195.2</ele><time>2026-05-01T11:58:52.467Z</time></trkpt><trkpt lat="45.5194467" lon="10.4173867"><ele>195.60000000000002</ele><time>2026-05-01T11:58:54.467Z</time></trkpt><trkpt lat="45.5195217" lon="10.417245"><ele>196.0</ele><time>2026-05-01T11:58:55.467Z</time></trkpt><trkpt lat="45.5196117" lon="10.417085"><ele>196.33333333333331</ele><time>2026-05-01T11:58:56.468Z</time></trkpt><trkpt lat="45.5196933" lon="10.41695"><ele>196.66666666666666</ele><time>2026-05-01T11:58:57.467Z</time></trkpt><trkpt lat="45.5197533" lon="10.4168333"><ele>197.0</ele><time>2026-05-01T11:58:58.467Z</time></trkpt><trkpt lat="45.519795" lon="10.41674"><ele>197.33333333333331</ele><time>2026-05-01T11:58:59.467Z</time></trkpt><trkpt lat="45.519795" lon="10.4166467"><ele>197.66666666666666</ele><time>2026-05-01T11:59:00.467Z</time></trkpt><trkpt lat="45.5197567" lon="10.4165533"><ele>198.0</ele><time>2026-05-01T11:59:01.467Z</time></trkpt><trkpt lat="45.5196933" lon="10.416455"><ele>198.0</ele><time>2026-05-01T11:59:02.467Z</time></trkpt><trkpt lat="45.5196483" lon="10.4163717"><ele>198.0</ele><time>2026-05-01T11:59:03.467Z</time></trkpt><trkpt lat="45.5196583" lon="10.416245"><ele>198.0</ele><time>2026-05-01T11:59:05.467Z</time></trkpt><trkpt lat="45.5197133" lon="10.4161633"><ele>198.0</ele><time>2026-05-01T11:59:06.467Z</time></trkpt><trkpt lat="45.519795" lon="10.416045"><ele>198.0</ele><time>2026-05-01T11:59:07.467Z</time></trkpt><trkpt lat="45.5199" lon="10.4158817"><ele>197.66666666666669</ele><time>2026-05-01T11:59:08.467Z</time></trkpt><trkpt lat="45.5200283" lon="10.4156833"><ele>197.33333333333334</ele><time>2026-05-01T11:59:09.467Z</time></trkpt><trkpt lat="45.5201617" lon="10.415475"><ele>197.0</ele><time>2026-05-01T11:59:10.467Z</time></trkpt><trkpt lat="45.520295" lon="10.41527"><ele>197.0</ele><time>2026-05-01T11:59:11.467Z</time></trkpt><trkpt lat="45.5204233" lon="10.41508"><ele>197.0</ele><time>2026-05-01T11:59:12.467Z</time></trkpt><trkpt lat="45.5205417" lon="10.4149017"><ele>197.0</ele><time>2026-05-01T11:59:13.467Z</time></trkpt><trkpt lat="45.52065" lon="10.4147367"><ele>196.75</ele><time>2026-05-01T11:59:14.467Z</time></trkpt><trkpt lat="45.5207433" lon="10.4145767"><ele>196.5</ele><time>2026-05-01T11:59:15.467Z</time></trkpt><trkpt lat="45.5208267" lon="10.41444"><ele>196.25</ele><time>2026-05-01T11:59:16.467Z</time></trkpt><trkpt lat="45.5208983" lon="10.41433"><ele>196.0</ele><time>2026-05-01T11:59:17.467Z</time></trkpt><trkpt lat="45.520955" lon="10.4142233"><ele>196.0</ele><time>2026-05-01T11:59:18.467Z</time></trkpt><trkpt lat="45.5209867" lon="10.4141267"><ele>196.0</ele><time>2026-05-01T11:59:19.467Z</time></trkpt><trkpt lat="45.5209633" lon="10.41395"><ele>196.0</ele><time>2026-05-01T11:59:21.467Z</time></trkpt><trkpt lat="45.5209117" lon="10.41385"><ele>196.0</ele><time>2026-05-01T11:59:22.467Z</time></trkpt><trkpt lat="45.5208367" lon="10.4137267"><ele>196.0</ele><time>2026-05-01T11:59:23.467Z</time></trkpt><trkpt lat="45.5207383" lon="10.4135683"><ele>194.0</ele><time>2026-05-01T11:59:24.467Z</time></trkpt><trkpt lat="45.5206117" lon="10.4133933"><ele>192.0</ele><time>2026-05-01T11:59:25.467Z</time></trkpt><trkpt lat="45.5204967" lon="10.4132217"><ele>190.0</ele><time>2026-05-01T11:59:26.467Z</time></trkpt><trkpt lat="45.5204117" lon="10.4130683"><ele>190.4</ele><time>2026-05-01T11:59:27.467Z</time></trkpt><trkpt lat="45.5203483" lon="10.4129333"><ele>190.8</ele><time>2026-05-01T11:59:28.467Z</time></trkpt><trkpt lat="45.52029" lon="10.4128083"><ele>191.2</ele><time>2026-05-01T11:59:29.467Z</time></trkpt><trkpt lat="45.5202467" lon="10.4126833"><ele>191.6</ele><time>2026-05-01T11:59:30.467Z</time></trkpt><trkpt lat="45.5202083" lon="10.412565"><ele>192.0</ele><time>2026-05-01T11:59:31.467Z</time></trkpt><trkpt lat="45.5201517" lon="10.4124617"><ele>192.0</ele><time>2026-05-01T11:59:32.467Z</time></trkpt><trkpt lat="45.5200817" lon="10.4123817"><ele>192.0</ele><time>2026-05-01T11:59:33.467Z</time></trkpt><trkpt lat="45.5200033" lon="10.41234"><ele>192.0</ele><time>2026-05-01T11:59:34.467Z</time></trkpt><trkpt lat="45.5199233" lon="10.4123317"><ele>192.0</ele><time>2026-05-01T11:59:35.467Z</time></trkpt><trkpt lat="45.5198517" lon="10.41232"><ele>192.0</ele><time>2026-05-01T11:59:36.467Z</time></trkpt><trkpt lat="45.5197567" lon="10.4122217"><ele>192.0</ele><time>2026-05-01T11:59:38.467Z</time></trkpt><trkpt lat="45.51974" lon="10.4121283"><ele>191.0</ele><time>2026-05-01T11:59:39.467Z</time></trkpt><trkpt lat="45.51973" lon="10.4119883"><ele>190.0</ele><time>2026-05-01T11:59:40.467Z</time></trkpt><trkpt lat="45.5197133" lon="10.411835"><ele>189.0</ele><time>2026-05-01T11:59:41.467Z</time></trkpt><trkpt lat="45.5196767" lon="10.4117033"><ele>188.0</ele><time>2026-05-01T11:59:42.467Z</time></trkpt><trkpt lat="45.5196283" lon="10.4115967"><ele>187.0</ele><time>2026-05-01T11:59:43.467Z</time></trkpt><trkpt lat="45.5195417" lon="10.4115417"><ele>187.0</ele><time>2026-05-01T11:59:45.467Z</time></trkpt><trkpt lat="45.5194683" lon="10.4116717"><ele>187.0</ele><time>2026-05-01T11:59:47.467Z</time></trkpt><trkpt lat="45.51941" lon="10.4117967"><ele>187.0</ele><time>2026-05-01T11:59:48.467Z</time></trkpt><trkpt lat="45.5193267" lon="10.4119483"><ele>187.0</ele><time>2026-05-01T11:59:49.467Z</time></trkpt><trkpt lat="45.519245" lon="10.4120933"><ele>187.33333333333334</ele><time>2026-05-01T11:59:50.467Z</time></trkpt><trkpt lat="45.5191733" lon="10.4121983"><ele>187.66666666666669</ele><time>2026-05-01T11:59:51.467Z</time></trkpt><trkpt lat="45.5191067" lon="10.4122783"><ele>188.0</ele><time>2026-05-01T11:59:52.467Z</time></trkpt><trkpt lat="45.5190417" lon="10.4123417"><ele>188.33333333333334</ele><time>2026-05-01T11:59:53.467Z</time></trkpt><trkpt lat="45.5189767" lon="10.412405"><ele>188.66666666666666</ele><time>2026-05-01T11:59:54.467Z</time></trkpt><trkpt lat="45.518905" lon="10.41246"><ele>189.0</ele><time>2026-05-01T11:59:55.467Z</time></trkpt><trkpt lat="45.5188367" lon="10.4125017"><ele>189.0</ele><time>2026-05-01T11:59:56.467Z</time></trkpt><trkpt lat="45.51877" lon="10.4125367"><ele>189.0</ele><time>2026-05-01T11:59:57.467Z</time></trkpt><trkpt lat="45.51871" lon="10.4125767"><ele>189.0</ele><time>2026-05-01T11:59:58.467Z</time></trkpt><trkpt lat="45.5186517" lon="10.4126167"><ele>189.0</ele><time>2026-05-01T11:59:59.467Z</time></trkpt><trkpt lat="45.5185567" lon="10.4126567"><ele>189.0</ele><time>2026-05-01T12:00:01.468Z</time></trkpt><trkpt lat="45.5184717" lon="10.41264"><ele>189.0</ele><time>2026-05-01T12:00:03.467Z</time></trkpt><trkpt lat="45.51839" lon="10.41255"><ele>189.28571428571428</ele><time>2026-05-01T12:00:05.467Z</time></trkpt><trkpt lat="45.5183533" lon="10.4124667"><ele>189.57142857142856</ele><time>2026-05-01T12:00:06.467Z</time></trkpt><trkpt lat="45.5183183" lon="10.41237"><ele>189.85714285714286</ele><time>2026-05-01T12:00:07.467Z</time></trkpt><trkpt lat="45.5182867" lon="10.4122733"><ele>190.14285714285714</ele><time>2026-05-01T12:00:08.467Z</time></trkpt><trkpt lat="45.5182533" lon="10.4121683"><ele>190.42857142857142</ele><time>2026-05-01T12:00:09.467Z</time></trkpt><trkpt lat="45.518215" lon="10.4120767"><ele>190.71428571428572</ele><time>2026-05-01T12:00:10.467Z</time></trkpt><trkpt lat="45.5181733" lon="10.4119917"><ele>191.0</ele><time>2026-05-01T12:00:11.468Z</time></trkpt><trkpt lat="45.5181367" lon="10.41191"><ele>190.83333333333331</ele><time>2026-05-01T12:00:12.467Z</time></trkpt><trkpt lat="45.5180983" lon="10.41183"><ele>190.66666666666666</ele><time>2026-05-01T12:00:13.467Z</time></trkpt><trkpt lat="45.5180583" lon="10.4117533"><ele>190.5</ele><time>2026-05-01T12:00:14.467Z</time></trkpt><trkpt lat="45.5180117" lon="10.4116833"><ele>190.33333333333334</ele><time>2026-05-01T12:00:15.467Z</time></trkpt><trkpt lat="45.5179617" lon="10.411625"><ele>190.16666666666669</ele><time>2026-05-01T12:00:16.467Z</time></trkpt><trkpt lat="45.5179067" lon="10.411575"><ele>190.0</ele><time>2026-05-01T12:00:17.468Z</time></trkpt><trkpt lat="45.517785" lon="10.4114733"><ele>190.0</ele><time>2026-05-01T12:00:19.467Z</time></trkpt><trkpt lat="45.51772" lon="10.41141"><ele>190.0</ele><time>2026-05-01T12:00:20.467Z</time></trkpt><trkpt lat="45.5176567" lon="10.41134"><ele>190.0</ele><time>2026-05-01T12:00:21.467Z</time></trkpt><trkpt lat="45.517585" lon="10.4112683"><ele>190.0</ele><time>2026-05-01T12:00:22.467Z</time></trkpt><trkpt lat="45.5175167" lon="10.4112083"><ele>190.0</ele><time>2026-05-01T12:00:23.468Z</time></trkpt><trkpt lat="45.5174483" lon="10.4111633"><ele>190.0</ele><time>2026-05-01T12:00:24.467Z</time></trkpt><trkpt lat="45.5173767" lon="10.411125"><ele>189.75</ele><time>2026-05-01T12:00:25.467Z</time></trkpt><trkpt lat="45.517275" lon="10.4110783"><ele>189.5</ele><time>2026-05-01T12:00:26.467Z</time></trkpt><trkpt lat="45.5171667" lon="10.41105"><ele>189.25</ele><time>2026-05-01T12:00:27.467Z</time></trkpt><trkpt lat="45.5170483" lon="10.4110383"><ele>189.0</ele><time>2026-05-01T12:00:28.467Z</time></trkpt><trkpt lat="45.51693" lon="10.4110283"><ele>189.0</ele><time>2026-05-01T12:00:29.467Z</time></trkpt><trkpt lat="45.5167917" lon="10.4110117"><ele>189.0</ele><time>2026-05-01T12:00:30.467Z</time></trkpt><trkpt lat="45.5166583" lon="10.4110033"><ele>189.0</ele><time>2026-05-01T12:00:31.467Z</time></trkpt><trkpt lat="45.5165333" lon="10.4109967"><ele>189.0</ele><time>2026-05-01T12:00:32.468Z</time></trkpt><trkpt lat="45.516415" lon="10.4109933"><ele>189.0</ele><time>2026-05-01T12:00:33.467Z</time></trkpt><trkpt lat="45.51631" lon="10.4109733"><ele>189.0</ele><time>2026-05-01T12:00:34.467Z</time></trkpt><trkpt lat="45.516215" lon="10.41093"><ele>189.0</ele><time>2026-05-01T12:00:35.467Z</time></trkpt><trkpt lat="45.5161283" lon="10.4108933"><ele>189.0</ele><time>2026-05-01T12:00:36.467Z</time></trkpt><trkpt lat="45.5160617" lon="10.41086"><ele>189.0</ele><time>2026-05-01T12:00:37.467Z</time></trkpt><trkpt lat="45.5159817" lon="10.4107583"><ele>189.0</ele><time>2026-05-01T12:00:39.467Z</time></trkpt><trkpt lat="45.51598" lon="10.4105783"><ele>189.0</ele><time>2026-05-01T12:00:41.467Z</time></trkpt><trkpt lat="45.5160267" lon="10.410435"><ele>189.0</ele><time>2026-05-01T12:00:42.467Z</time></trkpt><trkpt lat="45.5160617" lon="10.4102917"><ele>189.0</ele><time>2026-05-01T12:00:43.467Z</time></trkpt><trkpt lat="45.5160933" lon="10.41016"><ele>189.0</ele><time>2026-05-01T12:00:44.467Z</time></trkpt><trkpt lat="45.5161167" lon="10.4100367"><ele>188.5</ele><time>2026-05-01T12:00:45.468Z</time></trkpt><trkpt lat="45.51614" lon="10.4099217"><ele>188.0</ele><time>2026-05-01T12:00:46.467Z</time></trkpt><trkpt lat="45.516145" lon="10.4098083"><ele>187.5</ele><time>2026-05-01T12:00:47.468Z</time></trkpt><trkpt lat="45.5161483" lon="10.4096967"><ele>187.0</ele><time>2026-05-01T12:00:48.467Z</time></trkpt><trkpt lat="45.5161633" lon="10.409605"><ele>186.5</ele><time>2026-05-01T12:00:49.467Z</time></trkpt><trkpt lat="45.5161967" lon="10.409525"><ele>186.0</ele><time>2026-05-01T12:00:50.467Z</time></trkpt><trkpt lat="45.5163067" lon="10.409425"><ele>184.33333333333334</ele><time>2026-05-01T12:00:52.467Z</time></trkpt><trkpt lat="45.5163667" lon="10.409395"><ele>182.66666666666666</ele><time>2026-05-01T12:00:53.467Z</time></trkpt><trkpt lat="45.5164467" lon="10.40936"><ele>181.0</ele><time>2026-05-01T12:00:54.467Z</time></trkpt><trkpt lat="45.51652" lon="10.4093433"><ele>179.33333333333331</ele><time>2026-05-01T12:00:55.467Z</time></trkpt><trkpt lat="45.5166" lon="10.409305"><ele>177.66666666666666</ele><time>2026-05-01T12:00:56.467Z</time></trkpt><trkpt lat="45.51668" lon="10.4092583"><ele>176.0</ele><time>2026-05-01T12:00:57.467Z</time></trkpt><trkpt lat="45.5167617" lon="10.40921"><ele>176.0</ele><time>2026-05-01T12:00:58.467Z</time></trkpt><trkpt lat="45.5168467" lon="10.4091817"><ele>176.0</ele><time>2026-05-01T12:00:59.467Z</time></trkpt><trkpt lat="45.5169333" lon="10.40917"><ele>176.0</ele><time>2026-05-01T12:01:00.467Z</time></trkpt><trkpt lat="45.5170183" lon="10.409155"><ele>176.0</ele><time>2026-05-01T12:01:01.467Z</time></trkpt><trkpt lat="45.517095" lon="10.4091467"><ele>176.0</ele><time>2026-05-01T12:01:02.467Z</time></trkpt><trkpt lat="45.5171867" lon="10.40911"><ele>176.0</ele><time>2026-05-01T12:01:04.467Z</time></trkpt><trkpt lat="45.5172733" lon="10.4090067"><ele>174.4</ele><time>2026-05-01T12:01:06.467Z</time></trkpt><trkpt lat="45.517295" lon="10.4089117"><ele>172.8</ele><time>2026-05-01T12:01:07.467Z</time></trkpt><trkpt lat="45.51729" lon="10.40877"><ele>171.20000000000002</ele><time>2026-05-01T12:01:08.467Z</time></trkpt><trkpt lat="45.5172683" lon="10.4086"><ele>169.60000000000002</ele><time>2026-05-01T12:01:09.467Z</time></trkpt><trkpt lat="45.51722" lon="10.4084"><ele>168.0</ele><time>2026-05-01T12:01:10.467Z</time></trkpt><trkpt lat="45.5171633" lon="10.408185"><ele>166.60000000000002</ele><time>2026-05-01T12:01:11.467Z</time></trkpt><trkpt lat="45.5171017" lon="10.4080083"><ele>165.20000000000002</ele><time>2026-05-01T12:01:12.467Z</time></trkpt><trkpt lat="45.5170667" lon="10.4078833"><ele>163.8</ele><time>2026-05-01T12:01:13.467Z</time></trkpt><trkpt lat="45.517045" lon="10.40779"><ele>162.4</ele><time>2026-05-01T12:01:14.467Z</time></trkpt><trkpt lat="45.5170583" lon="10.4076517"><ele>161.0</ele><time>2026-05-01T12:01:16.467Z</time></trkpt><trkpt lat="45.5171167" lon="10.4075817"><ele>160.25</ele><time>2026-05-01T12:01:17.467Z</time></trkpt><trkpt lat="45.51721" lon="10.4074967"><ele>159.5</ele><time>2026-05-01T12:01:18.467Z</time></trkpt><trkpt lat="45.51732" lon="10.4073967"><ele>158.75</ele><time>2026-05-01T12:01:19.468Z</time></trkpt><trkpt lat="45.51741" lon="10.407285"><ele>158.0</ele><time>2026-05-01T12:01:20.467Z</time></trkpt><trkpt lat="45.5174583" lon="10.4071567"><ele>157.5</ele><time>2026-05-01T12:01:21.467Z</time></trkpt><trkpt lat="45.5174767" lon="10.40702"><ele>157.0</ele><time>2026-05-01T12:01:22.467Z</time></trkpt><trkpt lat="45.5174617" lon="10.406855"><ele>156.5</ele><time>2026-05-01T12:01:23.467Z</time></trkpt><trkpt lat="45.5174317" lon="10.4066717"><ele>156.0</ele><time>2026-05-01T12:01:24.467Z</time></trkpt><trkpt lat="45.5174033" lon="10.4065067"><ele>156.0</ele><time>2026-05-01T12:01:25.467Z</time></trkpt><trkpt lat="45.517385" lon="10.406355"><ele>156.0</ele><time>2026-05-01T12:01:26.467Z</time></trkpt><trkpt lat="45.5173767" lon="10.40623"><ele>156.0</ele><time>2026-05-01T12:01:27.467Z</time></trkpt><trkpt lat="45.5173917" lon="10.4061233"><ele>156.0</ele><time>2026-05-01T12:01:28.467Z</time></trkpt><trkpt lat="45.5174233" lon="10.4059917"><ele>156.0</ele><time>2026-05-01T12:01:30.467Z</time></trkpt><trkpt lat="45.5174133" lon="10.4058667"><ele>156.0</ele><time>2026-05-01T12:01:33.467Z</time></trkpt><trkpt lat="45.5173233" lon="10.4057717"><ele>156.0</ele><time>2026-05-01T12:01:35.467Z</time></trkpt><trkpt lat="45.5172283" lon="10.4057"><ele>156.0</ele><time>2026-05-01T12:01:36.467Z</time></trkpt><trkpt lat="45.5171233" lon="10.4056367"><ele>156.0</ele><time>2026-05-01T12:01:37.467Z</time></trkpt><trkpt lat="45.5170067" lon="10.4055933"><ele>156.0</ele><time>2026-05-01T12:01:38.467Z</time></trkpt><trkpt lat="45.5168667" lon="10.4055717"><ele>156.0</ele><time>2026-05-01T12:01:39.467Z</time></trkpt><trkpt lat="45.5167117" lon="10.4055517"><ele>156.0</ele><time>2026-05-01T12:01:40.467Z</time></trkpt><trkpt lat="45.51658" lon="10.405545"><ele>156.0</ele><time>2026-05-01T12:01:41.467Z</time></trkpt><trkpt lat="45.5164667" lon="10.4055283"><ele>156.0</ele><time>2026-05-01T12:01:42.467Z</time></trkpt><trkpt lat="45.5163683" lon="10.4054983"><ele>156.0</ele><time>2026-05-01T12:01:43.467Z</time></trkpt><trkpt lat="45.51626" lon="10.4054267"><ele>156.0</ele><time>2026-05-01T12:01:44.467Z</time></trkpt><trkpt lat="45.51614" lon="10.4053333"><ele>156.0</ele><time>2026-05-01T12:01:45.467Z</time></trkpt><trkpt lat="45.5160167" lon="10.4052183"><ele>155.33333333333334</ele><time>2026-05-01T12:01:46.468Z</time></trkpt><trkpt lat="45.5158833" lon="10.4050833"><ele>154.66666666666669</ele><time>2026-05-01T12:01:47.468Z</time></trkpt><trkpt lat="45.51573" lon="10.4049533"><ele>154.0</ele><time>2026-05-01T12:01:48.467Z</time></trkpt><trkpt lat="45.5155683" lon="10.4048"><ele>154.33333333333334</ele><time>2026-05-01T12:01:49.467Z</time></trkpt><trkpt lat="45.5154017" lon="10.40464"><ele>154.66666666666666</ele><time>2026-05-01T12:01:50.467Z</time></trkpt><trkpt lat="45.5152483" lon="10.4044967"><ele>155.0</ele><time>2026-05-01T12:01:51.467Z</time></trkpt><trkpt lat="45.5151033" lon="10.4043667"><ele>155.0</ele><time>2026-05-01T12:01:52.467Z</time></trkpt><trkpt lat="45.5149833" lon="10.4042517"><ele>155.0</ele><time>2026-05-01T12:01:53.467Z</time></trkpt><trkpt lat="45.5148767" lon="10.4041517"><ele>155.0</ele><time>2026-05-01T12:01:54.467Z</time></trkpt><trkpt lat="45.514785" lon="10.4040633"><ele>155.0</ele><time>2026-05-01T12:01:55.467Z</time></trkpt><trkpt lat="45.5147067" lon="10.4039967"><ele>155.0</ele><time>2026-05-01T12:01:56.467Z</time></trkpt><trkpt lat="45.5146217" lon="10.4039417"><ele>155.0</ele><time>2026-05-01T12:01:57.467Z</time></trkpt><trkpt lat="45.5145167" lon="10.4039167"><ele>155.0</ele><time>2026-05-01T12:01:58.467Z</time></trkpt><trkpt lat="45.5143917" lon="10.4039083"><ele>155.0</ele><time>2026-05-01T12:01:59.467Z</time></trkpt><trkpt lat="45.5142567" lon="10.4039017"><ele>155.33333333333331</ele><time>2026-05-01T12:02:00.467Z</time></trkpt><trkpt lat="45.51411" lon="10.4038883"><ele>155.66666666666666</ele><time>2026-05-01T12:02:01.467Z</time></trkpt><trkpt lat="45.5139633" lon="10.4038533"><ele>156.0</ele><time>2026-05-01T12:02:02.467Z</time></trkpt><trkpt lat="45.5138083" lon="10.403805"><ele>156.33333333333334</ele><time>2026-05-01T12:02:03.467Z</time></trkpt><trkpt lat="45.5136517" lon="10.4037467"><ele>156.66666666666669</ele><time>2026-05-01T12:02:04.467Z</time></trkpt><trkpt lat="45.51349" lon="10.403695"><ele>157.0</ele><time>2026-05-01T12:02:05.467Z</time></trkpt><trkpt lat="45.513325" lon="10.4036483"><ele>157.0</ele><time>2026-05-01T12:02:06.467Z</time></trkpt><trkpt lat="45.51315" lon="10.403615"><ele>157.0</ele><time>2026-05-01T12:02:07.467Z</time></trkpt><trkpt lat="45.5129633" lon="10.4035817"><ele>157.0</ele><time>2026-05-01T12:02:08.467Z</time></trkpt><trkpt lat="45.5127783" lon="10.4035483"><ele>156.33333333333334</ele><time>2026-05-01T12:02:09.467Z</time></trkpt><trkpt lat="45.5126033" lon="10.4035133"><ele>155.66666666666666</ele><time>2026-05-01T12:02:10.468Z</time></trkpt><trkpt lat="45.5124333" lon="10.40348"><ele>155.0</ele><time>2026-05-01T12:02:11.467Z</time></trkpt><trkpt lat="45.5122767" lon="10.4034517"><ele>155.0</ele><time>2026-05-01T12:02:12.467Z</time></trkpt><trkpt lat="45.51213" lon="10.403435"><ele>155.0</ele><time>2026-05-01T12:02:13.467Z</time></trkpt><trkpt lat="45.51199" lon="10.403415"><ele>155.0</ele><time>2026-05-01T12:02:14.467Z</time></trkpt><trkpt lat="45.5118633" lon="10.4034017"><ele>155.0</ele><time>2026-05-01T12:02:15.467Z</time></trkpt><trkpt lat="45.5117533" lon="10.4033717"><ele>155.0</ele><time>2026-05-01T12:02:16.468Z</time></trkpt><trkpt lat="45.5116617" lon="10.4033483"><ele>155.0</ele><time>2026-05-01T12:02:17.468Z</time></trkpt><trkpt lat="45.511585" lon="10.4033333"><ele>155.0</ele><time>2026-05-01T12:02:18.467Z</time></trkpt><trkpt lat="45.5114933" lon="10.40327"><ele>155.0</ele><time>2026-05-01T12:02:20.468Z</time></trkpt><trkpt lat="45.5114583" lon="10.4030883"><ele>155.0</ele><time>2026-05-01T12:02:22.467Z</time></trkpt><trkpt lat="45.5114533" lon="10.4029267"><ele>155.0</ele><time>2026-05-01T12:02:23.467Z</time></trkpt><trkpt lat="45.5114567" lon="10.4027"><ele>155.0</ele><time>2026-05-01T12:02:24.467Z</time></trkpt><trkpt lat="45.5114617" lon="10.4024383"><ele>155.0</ele><time>2026-05-01T12:02:25.468Z</time></trkpt><trkpt lat="45.5114567" lon="10.40216"><ele>154.66666666666666</ele><time>2026-05-01T12:02:26.467Z</time></trkpt><trkpt lat="45.5114533" lon="10.40186"><ele>154.33333333333334</ele><time>2026-05-01T12:02:27.467Z</time></trkpt><trkpt lat="45.511435" lon="10.401555"><ele>154.0</ele><time>2026-05-01T12:02:28.467Z</time></trkpt><trkpt lat="45.5113983" lon="10.401225"><ele>153.0</ele><time>2026-05-01T12:02:29.467Z</time></trkpt><trkpt lat="45.5113517" lon="10.4008867"><ele>152.0</ele><time>2026-05-01T12:02:30.467Z</time></trkpt><trkpt lat="45.511295" lon="10.4005683"><ele>152.33333333333331</ele><time>2026-05-01T12:02:31.467Z</time></trkpt><trkpt lat="45.51123" lon="10.4002817"><ele>152.66666666666666</ele><time>2026-05-01T12:02:32.467Z</time></trkpt><trkpt lat="45.5111617" lon="10.4000217"><ele>153.0</ele><time>2026-05-01T12:02:33.467Z</time></trkpt><trkpt lat="45.5110717" lon="10.3997833"><ele>152.25</ele><time>2026-05-01T12:02:34.467Z</time></trkpt><trkpt lat="45.5109817" lon="10.3995817"><ele>151.5</ele><time>2026-05-01T12:02:35.467Z</time></trkpt><trkpt lat="45.5108917" lon="10.3994067"><ele>150.75</ele><time>2026-05-01T12:02:36.467Z</time></trkpt><trkpt lat="45.510825" lon="10.399255"><ele>150.0</ele><time>2026-05-01T12:02:37.467Z</time></trkpt><trkpt lat="45.5107733" lon="10.3991117"><ele>150.0</ele><time>2026-05-01T12:02:38.467Z</time></trkpt><trkpt lat="45.5107583" lon="10.398945"><ele>150.0</ele><time>2026-05-01T12:02:39.468Z</time></trkpt><trkpt lat="45.5107867" lon="10.398765"><ele>150.0</ele><time>2026-05-01T12:02:40.467Z</time></trkpt><trkpt lat="45.510845" lon="10.3985767"><ele>150.0</ele><time>2026-05-01T12:02:41.467Z</time></trkpt><trkpt lat="45.5109067" lon="10.398395"><ele>150.4</ele><time>2026-05-01T12:02:42.467Z</time></trkpt><trkpt lat="45.510945" lon="10.398225"><ele>150.8</ele><time>2026-05-01T12:02:43.467Z</time></trkpt><trkpt lat="45.5109433" lon="10.3980783"><ele>151.2</ele><time>2026-05-01T12:02:44.467Z</time></trkpt><trkpt lat="45.5108867" lon="10.3979583"><ele>151.6</ele><time>2026-05-01T12:02:45.467Z</time></trkpt><trkpt lat="45.5107917" lon="10.397875"><ele>152.0</ele><time>2026-05-01T12:02:46.467Z</time></trkpt><trkpt lat="45.5106417" lon="10.3978267"><ele>154.0</ele><time>2026-05-01T12:02:47.467Z</time></trkpt><trkpt lat="45.5104617" lon="10.3977833"><ele>156.0</ele><time>2026-05-01T12:02:48.467Z</time></trkpt><trkpt lat="45.5102933" lon="10.3977517"><ele>158.0</ele><time>2026-05-01T12:02:49.467Z</time></trkpt><trkpt lat="45.51016" lon="10.3976983"><ele>158.0</ele><time>2026-05-01T12:02:50.467Z</time></trkpt><trkpt lat="45.51005" lon="10.3976417"><ele>158.0</ele><time>2026-05-01T12:02:51.467Z</time></trkpt><trkpt lat="45.5099717" lon="10.3975417"><ele>158.0</ele><time>2026-05-01T12:02:52.467Z</time></trkpt><trkpt lat="45.5099283" lon="10.3974033"><ele>158.0</ele><time>2026-05-01T12:02:53.467Z</time></trkpt><trkpt lat="45.50992" lon="10.3972267"><ele>159.0</ele><time>2026-05-01T12:02:54.467Z</time></trkpt><trkpt lat="45.5099267" lon="10.3970133"><ele>160.0</ele><time>2026-05-01T12:02:55.467Z</time></trkpt><trkpt lat="45.5099133" lon="10.39677"><ele>161.0</ele><time>2026-05-01T12:02:56.467Z</time></trkpt><trkpt lat="45.50989" lon="10.3965117"><ele>161.66666666666666</ele><time>2026-05-01T12:02:57.467Z</time></trkpt><trkpt lat="45.5098783" lon="10.396265"><ele>162.33333333333334</ele><time>2026-05-01T12:02:58.467Z</time></trkpt><trkpt lat="45.5098633" lon="10.3960467"><ele>163.0</ele><time>2026-05-01T12:02:59.467Z</time></trkpt><trkpt lat="45.509845" lon="10.39585"><ele>163.0</ele><time>2026-05-01T12:03:00.468Z</time></trkpt><trkpt lat="45.50984" lon="10.3956833"><ele>163.0</ele><time>2026-05-01T12:03:01.467Z</time></trkpt><trkpt lat="45.5098067" lon="10.39556"><ele>163.0</ele><time>2026-05-01T12:03:02.467Z</time></trkpt><trkpt lat="45.5097567" lon="10.3954717"><ele>163.0</ele><time>2026-05-01T12:03:03.468Z</time></trkpt><trkpt lat="45.5097017" lon="10.3954267"><ele>163.0</ele><time>2026-05-01T12:03:04.467Z</time></trkpt><trkpt lat="45.5096317" lon="10.3954317"><ele>163.0</ele><time>2026-05-01T12:03:05.467Z</time></trkpt><trkpt lat="45.5095417" lon="10.39549"><ele>162.75</ele><time>2026-05-01T12:03:06.467Z</time></trkpt><trkpt lat="45.5094383" lon="10.3955983"><ele>162.5</ele><time>2026-05-01T12:03:07.467Z</time></trkpt><trkpt lat="45.50932" lon="10.3957367"><ele>162.25</ele><time>2026-05-01T12:03:08.467Z</time></trkpt><trkpt lat="45.5091867" lon="10.3958683"><ele>162.0</ele><time>2026-05-01T12:03:09.467Z</time></trkpt><trkpt lat="45.5090433" lon="10.3960133"><ele>162.0</ele><time>2026-05-01T12:03:10.467Z</time></trkpt><trkpt lat="45.50889" lon="10.396175"><ele>162.0</ele><time>2026-05-01T12:03:11.467Z</time></trkpt><trkpt lat="45.5087167" lon="10.396355"><ele>162.0</ele><time>2026-05-01T12:03:12.467Z</time></trkpt><trkpt lat="45.5085133" lon="10.39655"><ele>161.0</ele><time>2026-05-01T12:03:13.467Z</time></trkpt><trkpt lat="45.5083017" lon="10.39674"><ele>160.0</ele><time>2026-05-01T12:03:14.467Z</time></trkpt><trkpt lat="45.5080967" lon="10.396905"><ele>160.0</ele><time>2026-05-01T12:03:15.467Z</time></trkpt><trkpt lat="45.5078967" lon="10.397035"><ele>160.0</ele><time>2026-05-01T12:03:16.467Z</time></trkpt><trkpt lat="45.507685" lon="10.39713"><ele>160.0</ele><time>2026-05-01T12:03:17.467Z</time></trkpt><trkpt lat="45.5074567" lon="10.3971867"><ele>160.0</ele><time>2026-05-01T12:03:18.467Z</time></trkpt><trkpt lat="45.5072117" lon="10.3971917"><ele>160.0</ele><time>2026-05-01T12:03:19.467Z</time></trkpt><trkpt lat="45.5069417" lon="10.3971483"><ele>160.0</ele><time>2026-05-01T12:03:20.467Z</time></trkpt><trkpt lat="45.5066583" lon="10.3970867"><ele>160.0</ele><time>2026-05-01T12:03:21.467Z</time></trkpt><trkpt lat="45.5063617" lon="10.3970383"><ele>160.0</ele><time>2026-05-01T12:03:22.467Z</time></trkpt><trkpt lat="45.5060533" lon="10.397005"><ele>160.0</ele><time>2026-05-01T12:03:23.467Z</time></trkpt><trkpt lat="45.5057333" lon="10.3970133"><ele>160.0</ele><time>2026-05-01T12:03:24.467Z</time></trkpt><trkpt lat="45.5054133" lon="10.3970333"><ele>160.0</ele><time>2026-05-01T12:03:25.467Z</time></trkpt><trkpt lat="45.505125" lon="10.3970733"><ele>159.0</ele><time>2026-05-01T12:03:26.467Z</time></trkpt><trkpt lat="45.5048583" lon="10.39711"><ele>158.0</ele><time>2026-05-01T12:03:27.467Z</time></trkpt><trkpt lat="45.504615" lon="10.39715"><ele>156.5</ele><time>2026-05-01T12:03:28.467Z</time></trkpt><trkpt lat="45.5043833" lon="10.397175"><ele>155.0</ele><time>2026-05-01T12:03:29.467Z</time></trkpt><trkpt lat="45.504145" lon="10.3972117"><ele>155.0</ele><time>2026-05-01T12:03:30.467Z</time></trkpt><trkpt lat="45.5039083" lon="10.3972583"><ele>155.0</ele><time>2026-05-01T12:03:31.468Z</time></trkpt><trkpt lat="45.503675" lon="10.3973133"><ele>154.5</ele><time>2026-05-01T12:03:32.467Z</time></trkpt><trkpt lat="45.5034367" lon="10.3973833"><ele>154.0</ele><time>2026-05-01T12:03:33.467Z</time></trkpt><trkpt lat="45.503205" lon="10.3974533"><ele>154.0</ele><time>2026-05-01T12:03:34.467Z</time></trkpt><trkpt lat="45.50297" lon="10.3975183"><ele>154.0</ele><time>2026-05-01T12:03:35.467Z</time></trkpt><trkpt lat="45.5027417" lon="10.3975783"><ele>153.5</ele><time>2026-05-01T12:03:36.467Z</time></trkpt><trkpt lat="45.5025083" lon="10.39764"><ele>153.0</ele><time>2026-05-01T12:03:37.467Z</time></trkpt><trkpt lat="45.5022783" lon="10.39769"><ele>154.0</ele><time>2026-05-01T12:03:38.467Z</time></trkpt><trkpt lat="45.5020433" lon="10.39773"><ele>155.0</ele><time>2026-05-01T12:03:39.467Z</time></trkpt><trkpt lat="45.5018117" lon="10.3977467"><ele>155.0</ele><time>2026-05-01T12:03:40.467Z</time></trkpt><trkpt lat="45.501585" lon="10.3977367"><ele>155.0</ele><time>2026-05-01T12:03:41.468Z</time></trkpt><trkpt lat="45.501355" lon="10.3977017"><ele>154.5</ele><time>2026-05-01T12:03:42.467Z</time></trkpt><trkpt lat="45.5011317" lon="10.3976517"><ele>154.0</ele><time>2026-05-01T12:03:43.467Z</time></trkpt><trkpt lat="45.5009133" lon="10.3975817"><ele>154.0</ele><time>2026-05-01T12:03:44.467Z</time></trkpt><trkpt lat="45.5006967" lon="10.397505"><ele>154.0</ele><time>2026-05-01T12:03:45.467Z</time></trkpt><trkpt lat="45.5004783" lon="10.3974267"><ele>154.0</ele><time>2026-05-01T12:03:46.467Z</time></trkpt><trkpt lat="45.5002633" lon="10.39735"><ele>153.66666666666669</ele><time>2026-05-01T12:03:47.467Z</time></trkpt><trkpt lat="45.5000633" lon="10.39728"><ele>153.33333333333334</ele><time>2026-05-01T12:03:48.467Z</time></trkpt><trkpt lat="45.499875" lon="10.397215"><ele>153.0</ele><time>2026-05-01T12:03:49.467Z</time></trkpt><trkpt lat="45.4996933" lon="10.39716"><ele>153.0</ele><time>2026-05-01T12:03:50.467Z</time></trkpt><trkpt lat="45.499525" lon="10.3971"><ele>153.0</ele><time>2026-05-01T12:03:51.467Z</time></trkpt><trkpt lat="45.499355" lon="10.3970467"><ele>153.0</ele><time>2026-05-01T12:03:52.467Z</time></trkpt><trkpt lat="45.499185" lon="10.3969917"><ele>153.0</ele><time>2026-05-01T12:03:53.467Z</time></trkpt><trkpt lat="45.499005" lon="10.3969383"><ele>153.0</ele><time>2026-05-01T12:03:54.467Z</time></trkpt><trkpt lat="45.4988333" lon="10.396875"><ele>153.0</ele><time>2026-05-01T12:03:55.468Z</time></trkpt><trkpt lat="45.4986417" lon="10.39681"><ele>153.0</ele><time>2026-05-01T12:03:56.467Z</time></trkpt><trkpt lat="45.498455" lon="10.3967467"><ele>153.0</ele><time>2026-05-01T12:03:57.467Z</time></trkpt><trkpt lat="45.498265" lon="10.396685"><ele>153.0</ele><time>2026-05-01T12:03:58.467Z</time></trkpt><trkpt lat="45.49807" lon="10.396615"><ele>153.0</ele><time>2026-05-01T12:03:59.467Z</time></trkpt><trkpt lat="45.497875" lon="10.3965483"><ele>153.0</ele><time>2026-05-01T12:04:00.467Z</time></trkpt><trkpt lat="45.497675" lon="10.3964817"><ele>153.0</ele><time>2026-05-01T12:04:01.467Z</time></trkpt><trkpt lat="45.49747" lon="10.3964083"><ele>152.66666666666666</ele><time>2026-05-01T12:04:02.467Z</time></trkpt><trkpt lat="45.4972633" lon="10.3963283"><ele>152.33333333333331</ele><time>2026-05-01T12:04:03.467Z</time></trkpt><trkpt lat="45.4970533" lon="10.39625"><ele>152.0</ele><time>2026-05-01T12:04:04.467Z</time></trkpt><trkpt lat="45.49685" lon="10.396185"><ele>151.66666666666666</ele><time>2026-05-01T12:04:05.467Z</time></trkpt><trkpt lat="45.4966433" lon="10.3961133"><ele>151.33333333333334</ele><time>2026-05-01T12:04:06.467Z</time></trkpt><trkpt lat="45.49644" lon="10.396045"><ele>151.0</ele><time>2026-05-01T12:04:07.467Z</time></trkpt><trkpt lat="45.4962333" lon="10.395965"><ele>150.66666666666669</ele><time>2026-05-01T12:04:08.468Z</time></trkpt><trkpt lat="45.496025" lon="10.395895"><ele>150.33333333333334</ele><time>2026-05-01T12:04:09.467Z</time></trkpt><trkpt lat="45.49582" lon="10.3958267"><ele>150.0</ele><time>2026-05-01T12:04:10.467Z</time></trkpt><trkpt lat="45.4956233" lon="10.3957567"><ele>150.0</ele><time>2026-05-01T12:04:11.467Z</time></trkpt><trkpt lat="45.4954333" lon="10.3956917"><ele>150.0</ele><time>2026-05-01T12:04:12.467Z</time></trkpt><trkpt lat="45.495255" lon="10.3956317"><ele>150.0</ele><time>2026-05-01T12:04:13.467Z</time></trkpt><trkpt lat="45.4950933" lon="10.3955817"><ele>149.75</ele><time>2026-05-01T12:04:14.468Z</time></trkpt><trkpt lat="45.4949517" lon="10.3955283"><ele>149.5</ele><time>2026-05-01T12:04:15.467Z</time></trkpt><trkpt lat="45.49483" lon="10.3954867"><ele>149.25</ele><time>2026-05-01T12:04:16.467Z</time></trkpt><trkpt lat="45.494735" lon="10.3954483"><ele>149.0</ele><time>2026-05-01T12:04:17.467Z</time></trkpt><trkpt lat="45.4946683" lon="10.3953633"><ele>149.4</ele><time>2026-05-01T12:04:19.467Z</time></trkpt><trkpt lat="45.4947033" lon="10.3952033"><ele>149.8</ele><time>2026-05-01T12:04:21.467Z</time></trkpt><trkpt lat="45.4947367" lon="10.39508"><ele>150.2</ele><time>2026-05-01T12:04:22.467Z</time></trkpt><trkpt lat="45.4947633" lon="10.39493"><ele>150.6</ele><time>2026-05-01T12:04:23.467Z</time></trkpt><trkpt lat="45.4947883" lon="10.39475"><ele>151.0</ele><time>2026-05-01T12:04:24.467Z</time></trkpt><trkpt lat="45.4948167" lon="10.3945417"><ele>151.33333333333334</ele><time>2026-05-01T12:04:25.467Z</time></trkpt><trkpt lat="45.4948567" lon="10.3943167"><ele>151.66666666666666</ele><time>2026-05-01T12:04:26.467Z</time></trkpt><trkpt lat="45.49489" lon="10.3940733"><ele>152.0</ele><time>2026-05-01T12:04:27.467Z</time></trkpt><trkpt lat="45.494925" lon="10.39381"><ele>152.0</ele><time>2026-05-01T12:04:28.467Z</time></trkpt><trkpt lat="45.4949683" lon="10.3935367"><ele>152.0</ele><time>2026-05-01T12:04:29.467Z</time></trkpt><trkpt lat="45.4950167" lon="10.3932533"><ele>152.0</ele><time>2026-05-01T12:04:30.467Z</time></trkpt><trkpt lat="45.49506" lon="10.3929617"><ele>152.0</ele><time>2026-05-01T12:04:31.467Z</time></trkpt><trkpt lat="45.4951033" lon="10.39267"><ele>152.0</ele><time>2026-05-01T12:04:32.467Z</time></trkpt><trkpt lat="45.495145" lon="10.3923983"><ele>152.0</ele><time>2026-05-01T12:04:33.467Z</time></trkpt><trkpt lat="45.4951917" lon="10.392125"><ele>152.0</ele><time>2026-05-01T12:04:34.467Z</time></trkpt><trkpt lat="45.4952333" lon="10.3918533"><ele>152.0</ele><time>2026-05-01T12:04:35.467Z</time></trkpt><trkpt lat="45.4952733" lon="10.391595"><ele>152.0</ele><time>2026-05-01T12:04:36.467Z</time></trkpt><trkpt lat="45.4953133" lon="10.3913533"><ele>151.66666666666666</ele><time>2026-05-01T12:04:37.467Z</time></trkpt><trkpt lat="45.495355" lon="10.391125"><ele>151.33333333333334</ele><time>2026-05-01T12:04:38.467Z</time></trkpt><trkpt lat="45.4953933" lon="10.3909067"><ele>151.0</ele><time>2026-05-01T12:04:39.467Z</time></trkpt><trkpt lat="45.4954233" lon="10.3907133"><ele>151.16666666666669</ele><time>2026-05-01T12:04:40.467Z</time></trkpt><trkpt lat="45.4954483" lon="10.39054"><ele>151.33333333333334</ele><time>2026-05-01T12:04:41.467Z</time></trkpt><trkpt lat="45.49547" lon="10.3903967"><ele>151.5</ele><time>2026-05-01T12:04:42.467Z</time></trkpt><trkpt lat="45.4954767" lon="10.3902867"><ele>151.66666666666666</ele><time>2026-05-01T12:04:43.468Z</time></trkpt><trkpt lat="45.49547" lon="10.3901833"><ele>151.83333333333331</ele><time>2026-05-01T12:04:44.468Z</time></trkpt><trkpt lat="45.4954583" lon="10.3900833"><ele>152.0</ele><time>2026-05-01T12:04:45.467Z</time></trkpt><trkpt lat="45.4954233" lon="10.3899733"><ele>152.0</ele><time>2026-05-01T12:04:46.467Z</time></trkpt><trkpt lat="45.4953717" lon="10.3898383"><ele>152.0</ele><time>2026-05-01T12:04:47.467Z</time></trkpt><trkpt lat="45.495305" lon="10.38968"><ele>152.0</ele><time>2026-05-01T12:04:48.467Z</time></trkpt><trkpt lat="45.4952317" lon="10.3894967"><ele>152.0</ele><time>2026-05-01T12:04:49.467Z</time></trkpt><trkpt lat="45.495145" lon="10.3892933"><ele>152.0</ele><time>2026-05-01T12:04:50.467Z</time></trkpt><trkpt lat="45.4950517" lon="10.389095"><ele>152.0</ele><time>2026-05-01T12:04:51.467Z</time></trkpt><trkpt lat="45.4949667" lon="10.3888867"><ele>152.0</ele><time>2026-05-01T12:04:52.468Z</time></trkpt><trkpt lat="45.4948867" lon="10.3887"><ele>152.0</ele><time>2026-05-01T12:04:53.467Z</time></trkpt><trkpt lat="45.4948033" lon="10.38852"><ele>152.0</ele><time>2026-05-01T12:04:54.467Z</time></trkpt><trkpt lat="45.4947283" lon="10.388345"><ele>152.0</ele><time>2026-05-01T12:04:55.467Z</time></trkpt><trkpt lat="45.4946517" lon="10.38819"><ele>152.0</ele><time>2026-05-01T12:04:56.467Z</time></trkpt><trkpt lat="45.4945767" lon="10.3880367"><ele>151.75</ele><time>2026-05-01T12:04:57.467Z</time></trkpt><trkpt lat="45.4945067" lon="10.3878817"><ele>151.5</ele><time>2026-05-01T12:04:58.467Z</time></trkpt><trkpt lat="45.49444" lon="10.3877217"><ele>151.25</ele><time>2026-05-01T12:04:59.467Z</time></trkpt><trkpt lat="45.4943817" lon="10.387575"><ele>151.0</ele><time>2026-05-01T12:05:00.467Z</time></trkpt><trkpt lat="45.4943183" lon="10.3874467"><ele>151.0</ele><time>2026-05-01T12:05:01.467Z</time></trkpt><trkpt lat="45.49424" lon="10.38734"><ele>151.0</ele><time>2026-05-01T12:05:02.467Z</time></trkpt><trkpt lat="45.494155" lon="10.38727"><ele>151.0</ele><time>2026-05-01T12:05:03.467Z</time></trkpt><trkpt lat="45.4940467" lon="10.3872133"><ele>151.0</ele><time>2026-05-01T12:05:04.467Z</time></trkpt><trkpt lat="45.4939267" lon="10.3871517"><ele>151.0</ele><time>2026-05-01T12:05:05.467Z</time></trkpt><trkpt lat="45.4938067" lon="10.3870983"><ele>151.0</ele><time>2026-05-01T12:05:06.467Z</time></trkpt><trkpt lat="45.493685" lon="10.3870717"><ele>151.0</ele><time>2026-05-01T12:05:07.468Z</time></trkpt><trkpt lat="45.4935467" lon="10.3870517"><ele>151.0</ele><time>2026-05-01T12:05:08.467Z</time></trkpt><trkpt lat="45.493405" lon="10.3870367"><ele>151.0</ele><time>2026-05-01T12:05:09.467Z</time></trkpt><trkpt lat="45.49326" lon="10.38702"><ele>151.0</ele><time>2026-05-01T12:05:10.467Z</time></trkpt><trkpt lat="45.4931067" lon="10.3870017"><ele>151.0</ele><time>2026-05-01T12:05:11.467Z</time></trkpt><trkpt lat="45.49296" lon="10.386985"><ele>151.0</ele><time>2026-05-01T12:05:12.468Z</time></trkpt><trkpt lat="45.492815" lon="10.386965"><ele>151.0</ele><time>2026-05-01T12:05:13.467Z</time></trkpt><trkpt lat="45.49268" lon="10.3869383"><ele>150.75</ele><time>2026-05-01T12:05:14.467Z</time></trkpt><trkpt lat="45.4925433" lon="10.386905"><ele>150.5</ele><time>2026-05-01T12:05:15.467Z</time></trkpt><trkpt lat="45.4924117" lon="10.38686"><ele>150.25</ele><time>2026-05-01T12:05:16.467Z</time></trkpt><trkpt lat="45.492275" lon="10.386825"><ele>150.0</ele><time>2026-05-01T12:05:17.467Z</time></trkpt><trkpt lat="45.4921317" lon="10.3867983"><ele>149.75</ele><time>2026-05-01T12:05:18.467Z</time></trkpt><trkpt lat="45.4919833" lon="10.3867667"><ele>149.5</ele><time>2026-05-01T12:05:19.467Z</time></trkpt><trkpt lat="45.4918417" lon="10.3867367"><ele>149.25</ele><time>2026-05-01T12:05:20.467Z</time></trkpt><trkpt lat="45.4917017" lon="10.386715"><ele>149.0</ele><time>2026-05-01T12:05:21.468Z</time></trkpt><trkpt lat="45.49157" lon="10.386695"><ele>149.0</ele><time>2026-05-01T12:05:22.467Z</time></trkpt><trkpt lat="45.4914467" lon="10.38668"><ele>149.0</ele><time>2026-05-01T12:05:23.467Z</time></trkpt><trkpt lat="45.4913233" lon="10.38665"><ele>149.0</ele><time>2026-05-01T12:05:24.467Z</time></trkpt><trkpt lat="45.491195" lon="10.38662"><ele>149.0</ele><time>2026-05-01T12:05:25.467Z</time></trkpt><trkpt lat="45.4910717" lon="10.386595"><ele>149.0</ele><time>2026-05-01T12:05:26.467Z</time></trkpt><trkpt lat="45.49094" lon="10.386565"><ele>149.0</ele><time>2026-05-01T12:05:27.467Z</time></trkpt><trkpt lat="45.4908017" lon="10.3865367"><ele>149.0</ele><time>2026-05-01T12:05:28.467Z</time></trkpt><trkpt lat="45.4906717" lon="10.3865117"><ele>149.0</ele><time>2026-05-01T12:05:29.467Z</time></trkpt><trkpt lat="45.4905367" lon="10.3864817"><ele>148.75</ele><time>2026-05-01T12:05:30.467Z</time></trkpt><trkpt lat="45.4904067" lon="10.3864617"><ele>148.5</ele><time>2026-05-01T12:05:31.468Z</time></trkpt><trkpt lat="45.4902817" lon="10.386435"><ele>148.25</ele><time>2026-05-01T12:05:32.467Z</time></trkpt><trkpt lat="45.49016" lon="10.3864083"><ele>148.0</ele><time>2026-05-01T12:05:33.467Z</time></trkpt><trkpt lat="45.4900417" lon="10.3863883"><ele>148.0</ele><time>2026-05-01T12:05:34.467Z</time></trkpt><trkpt lat="45.489935" lon="10.3863633"><ele>148.0</ele><time>2026-05-01T12:05:35.467Z</time></trkpt><trkpt lat="45.4898317" lon="10.3863417"><ele>148.0</ele><time>2026-05-01T12:05:36.467Z</time></trkpt><trkpt lat="45.489715" lon="10.3863183"><ele>148.0</ele><time>2026-05-01T12:05:37.467Z</time></trkpt><trkpt lat="45.48958" lon="10.3862917"><ele>148.0</ele><time>2026-05-01T12:05:38.467Z</time></trkpt><trkpt lat="45.489435" lon="10.3862617"><ele>148.0</ele><time>2026-05-01T12:05:39.467Z</time></trkpt><trkpt lat="45.4892833" lon="10.3862267"><ele>148.0</ele><time>2026-05-01T12:05:40.467Z</time></trkpt><trkpt lat="45.4891417" lon="10.3861967"><ele>148.0</ele><time>2026-05-01T12:05:41.467Z</time></trkpt><trkpt lat="45.48901" lon="10.3861717"><ele>148.0</ele><time>2026-05-01T12:05:42.467Z</time></trkpt><trkpt lat="45.488895" lon="10.38615"><ele>148.0</ele><time>2026-05-01T12:05:43.467Z</time></trkpt><trkpt lat="45.4887933" lon="10.3861333"><ele>148.0</ele><time>2026-05-01T12:05:44.467Z</time></trkpt><trkpt lat="45.4887083" lon="10.3861167"><ele>148.0</ele><time>2026-05-01T12:05:45.467Z</time></trkpt><trkpt lat="45.4886417" lon="10.3860983"><ele>148.0</ele><time>2026-05-01T12:05:46.467Z</time></trkpt><trkpt lat="45.4885767" lon="10.3860233"><ele>147.75</ele><time>2026-05-01T12:05:48.467Z</time></trkpt><trkpt lat="45.4886017" lon="10.3858617"><ele>147.5</ele><time>2026-05-01T12:05:50.467Z</time></trkpt><trkpt lat="45.488625" lon="10.38572"><ele>147.25</ele><time>2026-05-01T12:05:51.467Z</time></trkpt><trkpt lat="45.488655" lon="10.38553"><ele>147.0</ele><time>2026-05-01T12:05:52.467Z</time></trkpt><trkpt lat="45.4886867" lon="10.385305"><ele>147.0</ele><time>2026-05-01T12:05:53.467Z</time></trkpt><trkpt lat="45.48872" lon="10.3850433"><ele>147.0</ele><time>2026-05-01T12:05:54.467Z</time></trkpt><trkpt lat="45.4887517" lon="10.3847817"><ele>147.0</ele><time>2026-05-01T12:05:55.467Z</time></trkpt><trkpt lat="45.4887783" lon="10.3845517"><ele>147.0</ele><time>2026-05-01T12:05:56.468Z</time></trkpt><trkpt lat="45.48881" lon="10.3843417"><ele>147.0</ele><time>2026-05-01T12:05:57.467Z</time></trkpt><trkpt lat="45.4888333" lon="10.3841467"><ele>147.0</ele><time>2026-05-01T12:05:58.467Z</time></trkpt><trkpt lat="45.48886" lon="10.383965"><ele>147.0</ele><time>2026-05-01T12:05:59.467Z</time></trkpt><trkpt lat="45.4888783" lon="10.3837867"><ele>147.25</ele><time>2026-05-01T12:06:00.467Z</time></trkpt><trkpt lat="45.4889033" lon="10.3836083"><ele>147.5</ele><time>2026-05-01T12:06:01.467Z</time></trkpt><trkpt lat="45.4889217" lon="10.3834433"><ele>147.75</ele><time>2026-05-01T12:06:02.468Z</time></trkpt><trkpt lat="45.48894" lon="10.38329"><ele>148.0</ele><time>2026-05-01T12:06:03.467Z</time></trkpt><trkpt lat="45.4889567" lon="10.38315"><ele>148.0</ele><time>2026-05-01T12:06:04.467Z</time></trkpt><trkpt lat="45.4889717" lon="10.383025"><ele>148.0</ele><time>2026-05-01T12:06:05.467Z</time></trkpt><trkpt lat="45.4889933" lon="10.3829033"><ele>148.0</ele><time>2026-05-01T12:06:06.467Z</time></trkpt><trkpt lat="45.4890117" lon="10.382795"><ele>148.0</ele><time>2026-05-01T12:06:07.467Z</time></trkpt><trkpt lat="45.4890217" lon="10.38269"><ele>148.0</ele><time>2026-05-01T12:06:08.467Z</time></trkpt><trkpt lat="45.488995" lon="10.382545"><ele>148.0</ele><time>2026-05-01T12:06:10.467Z</time></trkpt><trkpt lat="45.4888867" lon="10.3824817"><ele>148.20000000000002</ele><time>2026-05-01T12:06:12.467Z</time></trkpt><trkpt lat="45.4888033" lon="10.3824583"><ele>148.4</ele><time>2026-05-01T12:06:13.467Z</time></trkpt><trkpt lat="45.4887433" lon="10.3824167"><ele>148.60000000000002</ele><time>2026-05-01T12:06:14.467Z</time></trkpt><trkpt lat="45.488685" lon="10.3822617"><ele>148.8</ele><time>2026-05-01T12:06:16.467Z</time></trkpt><trkpt lat="45.48869" lon="10.3821383"><ele>149.0</ele><time>2026-05-01T12:06:17.467Z</time></trkpt><trkpt lat="45.4887183" lon="10.3819717"><ele>148.66666666666666</ele><time>2026-05-01T12:06:18.467Z</time></trkpt><trkpt lat="45.4887683" lon="10.3817633"><ele>148.33333333333334</ele><time>2026-05-01T12:06:19.467Z</time></trkpt><trkpt lat="45.4888217" lon="10.38151"><ele>148.0</ele><time>2026-05-01T12:06:20.467Z</time></trkpt><trkpt lat="45.4888917" lon="10.3812383"><ele>147.66666666666669</ele><time>2026-05-01T12:06:21.467Z</time></trkpt><trkpt lat="45.48896" lon="10.3809467"><ele>147.33333333333334</ele><time>2026-05-01T12:06:22.467Z</time></trkpt><trkpt lat="45.4890217" lon="10.3806383"><ele>147.0</ele><time>2026-05-01T12:06:23.467Z</time></trkpt><trkpt lat="45.4890967" lon="10.38031"><ele>146.5</ele><time>2026-05-01T12:06:24.467Z</time></trkpt><trkpt lat="45.4891667" lon="10.3799783"><ele>146.0</ele><time>2026-05-01T12:06:25.467Z</time></trkpt><trkpt lat="45.48923" lon="10.37968"><ele>146.0</ele><time>2026-05-01T12:06:26.467Z</time></trkpt><trkpt lat="45.4892867" lon="10.3794283"><ele>146.0</ele><time>2026-05-01T12:06:27.467Z</time></trkpt><trkpt lat="45.489335" lon="10.3792133"><ele>146.0</ele><time>2026-05-01T12:06:28.467Z</time></trkpt><trkpt lat="45.48938" lon="10.3790233"><ele>146.0</ele><time>2026-05-01T12:06:29.467Z</time></trkpt><trkpt lat="45.4894233" lon="10.3788567"><ele>146.0</ele><time>2026-05-01T12:06:30.467Z</time></trkpt><trkpt lat="45.48946" lon="10.378705"><ele>146.0</ele><time>2026-05-01T12:06:31.467Z</time></trkpt><trkpt lat="45.48949" lon="10.37857"><ele>146.0</ele><time>2026-05-01T12:06:32.467Z</time></trkpt><trkpt lat="45.489515" lon="10.3784483"><ele>146.0</ele><time>2026-05-01T12:06:33.467Z</time></trkpt><trkpt lat="45.4895167" lon="10.3783417"><ele>146.5</ele><time>2026-05-01T12:06:34.467Z</time></trkpt><trkpt lat="45.4894683" lon="10.378205"><ele>147.0</ele><time>2026-05-01T12:06:36.467Z</time></trkpt><trkpt lat="45.489305" lon="10.3781617"><ele>147.5</ele><time>2026-05-01T12:06:38.467Z</time></trkpt><trkpt lat="45.4891683" lon="10.3781317"><ele>148.0</ele><time>2026-05-01T12:06:39.467Z</time></trkpt><trkpt lat="45.4890333" lon="10.378095"><ele>148.0</ele><time>2026-05-01T12:06:40.467Z</time></trkpt><trkpt lat="45.4889233" lon="10.3780583"><ele>148.0</ele><time>2026-05-01T12:06:41.467Z</time></trkpt><trkpt lat="45.4888433" lon="10.378015"><ele>148.0</ele><time>2026-05-01T12:06:42.467Z</time></trkpt><trkpt lat="45.4887933" lon="10.37796"><ele>148.0</ele><time>2026-05-01T12:06:43.467Z</time></trkpt><trkpt lat="45.4887567" lon="10.3778733"><ele>148.0</ele><time>2026-05-01T12:06:44.468Z</time></trkpt><trkpt lat="45.4887417" lon="10.3777483"><ele>148.0</ele><time>2026-05-01T12:06:45.467Z</time></trkpt><trkpt lat="45.48875" lon="10.3775883"><ele>147.5</ele><time>2026-05-01T12:06:46.467Z</time></trkpt><trkpt lat="45.4887533" lon="10.3774067"><ele>147.0</ele><time>2026-05-01T12:06:47.467Z</time></trkpt><trkpt lat="45.4887517" lon="10.3772383"><ele>146.5</ele><time>2026-05-01T12:06:48.467Z</time></trkpt><trkpt lat="45.48874" lon="10.3770717"><ele>146.0</ele><time>2026-05-01T12:06:49.467Z</time></trkpt><trkpt lat="45.48873" lon="10.3769217"><ele>146.0</ele><time>2026-05-01T12:06:50.467Z</time></trkpt><trkpt lat="45.48871" lon="10.37677"><ele>146.0</ele><time>2026-05-01T12:06:51.468Z</time></trkpt><trkpt lat="45.4886883" lon="10.3766"><ele>146.0</ele><time>2026-05-01T12:06:52.467Z</time></trkpt><trkpt lat="45.4886683" lon="10.376415"><ele>146.0</ele><time>2026-05-01T12:06:53.467Z</time></trkpt><trkpt lat="45.48865" lon="10.3762067"><ele>146.33333333333331</ele><time>2026-05-01T12:06:54.467Z</time></trkpt><trkpt lat="45.48863" lon="10.3759883"><ele>146.66666666666666</ele><time>2026-05-01T12:06:55.467Z</time></trkpt><trkpt lat="45.4886083" lon="10.37575"><ele>147.0</ele><time>2026-05-01T12:06:56.467Z</time></trkpt><trkpt lat="45.4885867" lon="10.3755017"><ele>147.0</ele><time>2026-05-01T12:06:57.467Z</time></trkpt><trkpt lat="45.4885633" lon="10.37524"><ele>147.0</ele><time>2026-05-01T12:06:58.468Z</time></trkpt><trkpt lat="45.488545" lon="10.37497"><ele>147.0</ele><time>2026-05-01T12:06:59.467Z</time></trkpt><trkpt lat="45.48852" lon="10.374705"><ele>146.25</ele><time>2026-05-01T12:07:00.467Z</time></trkpt><trkpt lat="45.4884883" lon="10.3744617"><ele>145.5</ele><time>2026-05-01T12:07:01.467Z</time></trkpt><trkpt lat="45.4884617" lon="10.37426"><ele>144.75</ele><time>2026-05-01T12:07:02.467Z</time></trkpt><trkpt lat="45.4884367" lon="10.3740783"><ele>144.0</ele><time>2026-05-01T12:07:03.467Z</time></trkpt><trkpt lat="45.4884217" lon="10.3739133"><ele>144.25</ele><time>2026-05-01T12:07:04.467Z</time></trkpt><trkpt lat="45.4884367" lon="10.373775"><ele>144.5</ele><time>2026-05-01T12:07:05.467Z</time></trkpt><trkpt lat="45.4884767" lon="10.3736283"><ele>144.75</ele><time>2026-05-01T12:07:06.467Z</time></trkpt><trkpt lat="45.4885283" lon="10.3734783"><ele>145.0</ele><time>2026-05-01T12:07:07.467Z</time></trkpt><trkpt lat="45.488585" lon="10.373295"><ele>145.0</ele><time>2026-05-01T12:07:08.467Z</time></trkpt><trkpt lat="45.4886483" lon="10.3731067"><ele>145.0</ele><time>2026-05-01T12:07:09.468Z</time></trkpt><trkpt lat="45.4887133" lon="10.3729317"><ele>145.0</ele><time>2026-05-01T12:07:10.467Z</time></trkpt><trkpt lat="45.4887683" lon="10.37275"><ele>145.0</ele><time>2026-05-01T12:07:11.467Z</time></trkpt><trkpt lat="45.4888283" lon="10.3725567"><ele>145.66666666666669</ele><time>2026-05-01T12:07:12.467Z</time></trkpt><trkpt lat="45.4888867" lon="10.3723583"><ele>146.33333333333334</ele><time>2026-05-01T12:07:13.467Z</time></trkpt><trkpt lat="45.48895" lon="10.3721667"><ele>147.0</ele><time>2026-05-01T12:07:14.468Z</time></trkpt><trkpt lat="45.48902" lon="10.3719767"><ele>147.0</ele><time>2026-05-01T12:07:15.467Z</time></trkpt><trkpt lat="45.4890767" lon="10.371775"><ele>147.0</ele><time>2026-05-01T12:07:16.467Z</time></trkpt><trkpt lat="45.4891417" lon="10.3715783"><ele>147.0</ele><time>2026-05-01T12:07:17.467Z</time></trkpt><trkpt lat="45.48921" lon="10.371375"><ele>147.66666666666666</ele><time>2026-05-01T12:07:18.467Z</time></trkpt><trkpt lat="45.4892783" lon="10.3711617"><ele>148.33333333333331</ele><time>2026-05-01T12:07:19.467Z</time></trkpt><trkpt lat="45.4893533" lon="10.3709417"><ele>149.0</ele><time>2026-05-01T12:07:20.468Z</time></trkpt><trkpt lat="45.48942" lon="10.3707217"><ele>148.66666666666666</ele><time>2026-05-01T12:07:21.467Z</time></trkpt><trkpt lat="45.48949" lon="10.3705117"><ele>148.33333333333334</ele><time>2026-05-01T12:07:22.467Z</time></trkpt><trkpt lat="45.4895633" lon="10.370305"><ele>148.0</ele><time>2026-05-01T12:07:23.467Z</time></trkpt><trkpt lat="45.48963" lon="10.3701017"><ele>148.0</ele><time>2026-05-01T12:07:24.467Z</time></trkpt><trkpt lat="45.489705" lon="10.369895"><ele>148.0</ele><time>2026-05-01T12:07:25.467Z</time></trkpt><trkpt lat="45.4897717" lon="10.369685"><ele>148.0</ele><time>2026-05-01T12:07:26.467Z</time></trkpt><trkpt lat="45.4898467" lon="10.3694667"><ele>147.33333333333334</ele><time>2026-05-01T12:07:27.467Z</time></trkpt><trkpt lat="45.4899117" lon="10.3692533"><ele>146.66666666666666</ele><time>2026-05-01T12:07:28.467Z</time></trkpt><trkpt lat="45.48999" lon="10.3690333"><ele>146.0</ele><time>2026-05-01T12:07:29.467Z</time></trkpt><trkpt lat="45.49005" lon="10.36882"><ele>145.66666666666666</ele><time>2026-05-01T12:07:30.467Z</time></trkpt><trkpt lat="45.4901167" lon="10.3685967"><ele>145.33333333333334</ele><time>2026-05-01T12:07:31.467Z</time></trkpt><trkpt lat="45.4901933" lon="10.3683817"><ele>145.0</ele><time>2026-05-01T12:07:32.467Z</time></trkpt><trkpt lat="45.4902617" lon="10.3681683"><ele>145.0</ele><time>2026-05-01T12:07:33.467Z</time></trkpt><trkpt lat="45.4903383" lon="10.3679467"><ele>145.0</ele><time>2026-05-01T12:07:34.467Z</time></trkpt><trkpt lat="45.4904083" lon="10.36772"><ele>145.0</ele><time>2026-05-01T12:07:35.467Z</time></trkpt><trkpt lat="45.490565" lon="10.3672683"><ele>146.0</ele><time>2026-05-01T12:07:37.467Z</time></trkpt><trkpt lat="45.490635" lon="10.3670433"><ele>147.0</ele><time>2026-05-01T12:07:38.467Z</time></trkpt><trkpt lat="45.4907133" lon="10.366805"><ele>148.0</ele><time>2026-05-01T12:07:39.467Z</time></trkpt><trkpt lat="45.490795" lon="10.3665683"><ele>147.66666666666669</ele><time>2026-05-01T12:07:40.467Z</time></trkpt><trkpt lat="45.4908767" lon="10.3663267"><ele>147.33333333333334</ele><time>2026-05-01T12:07:41.467Z</time></trkpt><trkpt lat="45.4909583" lon="10.3660833"><ele>147.0</ele><time>2026-05-01T12:07:42.467Z</time></trkpt><trkpt lat="45.4910367" lon="10.36585"><ele>147.0</ele><time>2026-05-01T12:07:43.467Z</time></trkpt><trkpt lat="45.4911067" lon="10.3656283"><ele>147.0</ele><time>2026-05-01T12:07:44.467Z</time></trkpt><trkpt lat="45.4911783" lon="10.3654117"><ele>147.0</ele><time>2026-05-01T12:07:45.467Z</time></trkpt><trkpt lat="45.4912483" lon="10.36521"><ele>147.33333333333334</ele><time>2026-05-01T12:07:46.467Z</time></trkpt><trkpt lat="45.4913133" lon="10.3650033"><ele>147.66666666666669</ele><time>2026-05-01T12:07:47.467Z</time></trkpt><trkpt lat="45.49138" lon="10.3648017"><ele>148.0</ele><time>2026-05-01T12:07:48.467Z</time></trkpt><trkpt lat="45.49144" lon="10.364615"><ele>148.0</ele><time>2026-05-01T12:07:49.467Z</time></trkpt><trkpt lat="45.4915033" lon="10.3644333"><ele>148.0</ele><time>2026-05-01T12:07:50.467Z</time></trkpt><trkpt lat="45.4915683" lon="10.3642583"><ele>148.0</ele><time>2026-05-01T12:07:51.467Z</time></trkpt><trkpt lat="45.4916233" lon="10.3640983"><ele>148.0</ele><time>2026-05-01T12:07:52.467Z</time></trkpt><trkpt lat="45.4916917" lon="10.36395"><ele>147.4</ele><time>2026-05-01T12:07:53.467Z</time></trkpt><trkpt lat="45.4917333" lon="10.36382"><ele>146.8</ele><time>2026-05-01T12:07:54.467Z</time></trkpt><trkpt lat="45.4917817" lon="10.3637033"><ele>146.2</ele><time>2026-05-01T12:07:55.467Z</time></trkpt><trkpt lat="45.4918283" lon="10.3636"><ele>145.6</ele><time>2026-05-01T12:07:56.467Z</time></trkpt><trkpt lat="45.4918783" lon="10.3634833"><ele>145.0</ele><time>2026-05-01T12:07:57.467Z</time></trkpt><trkpt lat="45.4919417" lon="10.3633533"><ele>145.0</ele><time>2026-05-01T12:07:58.467Z</time></trkpt><trkpt lat="45.4919883" lon="10.3632083"><ele>145.0</ele><time>2026-05-01T12:07:59.467Z</time></trkpt><trkpt lat="45.4920167" lon="10.3630717"><ele>145.0</ele><time>2026-05-01T12:08:00.467Z</time></trkpt><trkpt lat="45.4920133" lon="10.362945"><ele>145.0</ele><time>2026-05-01T12:08:01.468Z</time></trkpt><trkpt lat="45.4919933" lon="10.3628333"><ele>145.0</ele><time>2026-05-01T12:08:02.467Z</time></trkpt><trkpt lat="45.4919783" lon="10.36272"><ele>145.0</ele><time>2026-05-01T12:08:03.467Z</time></trkpt><trkpt lat="45.4919967" lon="10.362585"><ele>145.0</ele><time>2026-05-01T12:08:04.467Z</time></trkpt><trkpt lat="45.4920467" lon="10.36243"><ele>145.0</ele><time>2026-05-01T12:08:05.467Z</time></trkpt><trkpt lat="45.4921317" lon="10.36227"><ele>145.0</ele><time>2026-05-01T12:08:06.467Z</time></trkpt><trkpt lat="45.4922317" lon="10.3620867"><ele>147.0</ele><time>2026-05-01T12:08:07.467Z</time></trkpt><trkpt lat="45.49245" lon="10.3616517"><ele>149.0</ele><time>2026-05-01T12:08:09.467Z</time></trkpt><trkpt lat="45.4925733" lon="10.36139"><ele>149.0</ele><time>2026-05-01T12:08:10.467Z</time></trkpt><trkpt lat="45.4927" lon="10.3611133"><ele>149.0</ele><time>2026-05-01T12:08:11.467Z</time></trkpt><trkpt lat="45.4928267" lon="10.3608317"><ele>149.0</ele><time>2026-05-01T12:08:12.467Z</time></trkpt><trkpt lat="45.4929567" lon="10.360565"><ele>149.0</ele><time>2026-05-01T12:08:13.467Z</time></trkpt><trkpt lat="45.4930733" lon="10.3603083"><ele>149.0</ele><time>2026-05-01T12:08:14.467Z</time></trkpt><trkpt lat="45.49319" lon="10.3600733"><ele>149.0</ele><time>2026-05-01T12:08:15.467Z</time></trkpt><trkpt lat="45.4933083" lon="10.35987"><ele>149.0</ele><time>2026-05-01T12:08:16.467Z</time></trkpt><trkpt lat="45.4934233" lon="10.3596983"><ele>149.0</ele><time>2026-05-01T12:08:17.467Z</time></trkpt><trkpt lat="45.49352" lon="10.35956"><ele>148.6</ele><time>2026-05-01T12:08:18.467Z</time></trkpt><trkpt lat="45.4936167" lon="10.3594733"><ele>148.2</ele><time>2026-05-01T12:08:19.467Z</time></trkpt><trkpt lat="45.49372" lon="10.3594233"><ele>147.79999999999998</ele><time>2026-05-01T12:08:20.467Z</time></trkpt><trkpt lat="45.4938233" lon="10.35939"><ele>147.4</ele><time>2026-05-01T12:08:21.467Z</time></trkpt><trkpt lat="45.4938967" lon="10.359335"><ele>147.0</ele><time>2026-05-01T12:08:22.467Z</time></trkpt><trkpt lat="45.493945" lon="10.3592383"><ele>147.0</ele><time>2026-05-01T12:08:23.467Z</time></trkpt><trkpt lat="45.4939517" lon="10.3591333"><ele>147.0</ele><time>2026-05-01T12:08:24.467Z</time></trkpt><trkpt lat="45.4939167" lon="10.359035"><ele>147.0</ele><time>2026-05-01T12:08:25.467Z</time></trkpt><trkpt lat="45.4938533" lon="10.3589483"><ele>147.0</ele><time>2026-05-01T12:08:26.467Z</time></trkpt><trkpt lat="45.493765" lon="10.3589083"><ele>147.0</ele><time>2026-05-01T12:08:27.467Z</time></trkpt><trkpt lat="45.4936733" lon="10.3589167"><ele>147.0</ele><time>2026-05-01T12:08:28.467Z</time></trkpt><trkpt lat="45.493585" lon="10.3589867"><ele>146.75</ele><time>2026-05-01T12:08:29.467Z</time></trkpt><trkpt lat="45.4934933" lon="10.3590833"><ele>146.5</ele><time>2026-05-01T12:08:30.468Z</time></trkpt><trkpt lat="45.4933867" lon="10.359135"><ele>146.25</ele><time>2026-05-01T12:08:31.467Z</time></trkpt><trkpt lat="45.4932633" lon="10.3591067"><ele>146.0</ele><time>2026-05-01T12:08:32.467Z</time></trkpt><trkpt lat="45.493135" lon="10.359025"><ele>146.0</ele><time>2026-05-01T12:08:33.467Z</time></trkpt><trkpt lat="45.492985" lon="10.3589317"><ele>146.0</ele><time>2026-05-01T12:08:34.467Z</time></trkpt><trkpt lat="45.49281" lon="10.35883"><ele>146.0</ele><time>2026-05-01T12:08:35.467Z</time></trkpt><trkpt lat="45.4926267" lon="10.3587167"><ele>146.0</ele><time>2026-05-01T12:08:36.467Z</time></trkpt><trkpt lat="45.4923983" lon="10.3585817"><ele>146.0</ele><time>2026-05-01T12:08:37.467Z</time></trkpt><trkpt lat="45.4921383" lon="10.358435"><ele>146.5</ele><time>2026-05-01T12:08:38.467Z</time></trkpt><trkpt lat="45.4918833" lon="10.3582883"><ele>147.0</ele><time>2026-05-01T12:08:39.467Z</time></trkpt><trkpt lat="45.4913317" lon="10.3579633"><ele>147.0</ele><time>2026-05-01T12:08:41.467Z</time></trkpt><trkpt lat="45.4911" lon="10.3578267"><ele>147.0</ele><time>2026-05-01T12:08:42.467Z</time></trkpt><trkpt lat="45.4908967" lon="10.3576967"><ele>147.0</ele><time>2026-05-01T12:08:43.467Z</time></trkpt><trkpt lat="45.4907217" lon="10.35759"><ele>147.0</ele><time>2026-05-01T12:08:44.467Z</time></trkpt><trkpt lat="45.490575" lon="10.3575"><ele>147.0</ele><time>2026-05-01T12:08:45.467Z</time></trkpt><trkpt lat="45.4904517" lon="10.3574183"><ele>146.83333333333334</ele><time>2026-05-01T12:08:46.467Z</time></trkpt><trkpt lat="45.4903467" lon="10.3573583"><ele>146.66666666666666</ele><time>2026-05-01T12:08:47.468Z</time></trkpt><trkpt lat="45.4902633" lon="10.3573067"><ele>146.5</ele><time>2026-05-01T12:08:48.467Z</time></trkpt><trkpt lat="45.4902067" lon="10.3572583"><ele>146.33333333333331</ele><time>2026-05-01T12:08:49.468Z</time></trkpt><trkpt lat="45.4901617" lon="10.357185"><ele>146.16666666666666</ele><time>2026-05-01T12:08:50.467Z</time></trkpt><trkpt lat="45.4901867" lon="10.3570717"><ele>146.0</ele><time>2026-05-01T12:08:52.467Z</time></trkpt><trkpt lat="45.4902517" lon="10.3570383"><ele>145.83333333333331</ele><time>2026-05-01T12:08:53.467Z</time></trkpt><trkpt lat="45.49031" lon="10.3570017"><ele>145.66666666666666</ele><time>2026-05-01T12:08:54.467Z</time></trkpt><trkpt lat="45.4903917" lon="10.35692"><ele>145.5</ele><time>2026-05-01T12:08:56.467Z</time></trkpt><trkpt lat="45.4904" lon="10.3568183"><ele>145.33333333333334</ele><time>2026-05-01T12:08:58.467Z</time></trkpt><trkpt lat="45.4903267" lon="10.3567483"><ele>145.16666666666669</ele><time>2026-05-01T12:09:01.467Z</time></trkpt><trkpt lat="45.490255" lon="10.3567717"><ele>145.0</ele><time>2026-05-01T12:09:04.467Z</time></trkpt><trkpt lat="45.4902133" lon="10.3566833"><ele>145.0</ele><time>2026-05-01T12:09:54.467Z</time></trkpt><trkpt lat="45.4902667" lon="10.3566333"><ele>145.0</ele><time>2026-05-01T12:09:59.467Z</time></trkpt><trkpt lat="45.4903133" lon="10.3565717"><ele>145.0</ele><time>2026-05-01T12:10:04.467Z</time></trkpt><trkpt lat="45.4903733" lon="10.3565083"><ele>145.0</ele><time>2026-05-01T12:10:10.467Z</time></trkpt><trkpt lat="45.4904417" lon="10.356445"><ele>145.0</ele><time>2026-05-01T12:10:16.467Z</time></trkpt><trkpt lat="45.4904983" lon="10.3564033"><ele>145.0</ele><time>2026-05-01T12:10:20.468Z</time></trkpt><trkpt lat="45.4903245" lon="10.3564535"><ele>145.0</ele><time>2026-05-01T12:10:31.269Z</time></trkpt></trkseg></trk></gpx>